<?xml version="1.0" encoding="UTF-8" standalone="no" ?>
<gpx xmlns="http://www.topografix.com/GPX/1/1" xmlns:xsi="http://www.w3.org/2001/XMLSchema-instance" xsi:schemaLocation="http://www.topografix.com/GPX/1/1 http://www.topografix.com/GPX/1/1/gpx.xsd" version="1.1" creator="VisuGPX - https://www.visugpx.com">
  <metadata>
    <name>ainsa</name>
  </metadata>
  <trk>
    <name><![CDATA[Broto 31. ]]></name>
    <extensions>
      <line xmlns="http://www.topografix.com/GPX/gpx_style/0/2">
        <color>000088</color>
        <width>4</width>
      </line>
    </extensions>
    <trkseg>
      <trkpt lat="42.60204" lon="-0.12079">
        <ele>896.9</ele>
        <time>2017-07-30T07:35:18Z</time>
      </trkpt>
      <trkpt lat="42.60201" lon="-0.12079">
        <ele>897.1</ele>
        <time>2017-07-30T07:35:54Z</time>
      </trkpt>
      <trkpt lat="42.60205" lon="-0.12079">
        <ele>897</ele>
        <time>2017-07-30T07:39:54Z</time>
      </trkpt>
      <trkpt lat="42.60205" lon="-0.12075">
        <ele>897</ele>
        <time>2017-07-30T07:39:57Z</time>
      </trkpt>
      <trkpt lat="42.60208" lon="-0.12071">
        <ele>897</ele>
        <time>2017-07-30T07:39:59Z</time>
      </trkpt>
      <trkpt lat="42.60211" lon="-0.12071">
        <ele>897</ele>
        <time>2017-07-30T07:40:01Z</time>
      </trkpt>
      <trkpt lat="42.60215" lon="-0.1207">
        <ele>897</ele>
        <time>2017-07-30T07:40:03Z</time>
      </trkpt>
      <trkpt lat="42.60218" lon="-0.12068">
        <ele>897</ele>
        <time>2017-07-30T07:40:05Z</time>
      </trkpt>
      <trkpt lat="42.60221" lon="-0.12067">
        <ele>897</ele>
        <time>2017-07-30T07:40:07Z</time>
      </trkpt>
      <trkpt lat="42.60224" lon="-0.12066">
        <ele>897</ele>
        <time>2017-07-30T07:40:09Z</time>
      </trkpt>
      <trkpt lat="42.60227" lon="-0.12066">
        <ele>897</ele>
        <time>2017-07-30T07:40:11Z</time>
      </trkpt>
      <trkpt lat="42.6023" lon="-0.12066">
        <ele>897</ele>
        <time>2017-07-30T07:40:13Z</time>
      </trkpt>
      <trkpt lat="42.60233" lon="-0.12067">
        <ele>897</ele>
        <time>2017-07-30T07:40:15Z</time>
      </trkpt>
      <trkpt lat="42.60238" lon="-0.12069">
        <ele>897</ele>
        <time>2017-07-30T07:41:55Z</time>
      </trkpt>
      <trkpt lat="42.60243" lon="-0.12067">
        <ele>897</ele>
        <time>2017-07-30T07:41:57Z</time>
      </trkpt>
      <trkpt lat="42.60245" lon="-0.12066">
        <ele>896.8</ele>
        <time>2017-07-30T07:41:58Z</time>
      </trkpt>
      <trkpt lat="42.60248" lon="-0.12065">
        <ele>895.7</ele>
        <time>2017-07-30T07:41:59Z</time>
      </trkpt>
      <trkpt lat="42.60252" lon="-0.12064">
        <ele>894.5</ele>
        <time>2017-07-30T07:42:00Z</time>
      </trkpt>
      <trkpt lat="42.60255" lon="-0.12063">
        <ele>894</ele>
        <time>2017-07-30T07:42:01Z</time>
      </trkpt>
      <trkpt lat="42.60257" lon="-0.12062">
        <ele>894</ele>
        <time>2017-07-30T07:42:02Z</time>
      </trkpt>
      <trkpt lat="42.60263" lon="-0.12062">
        <ele>894</ele>
        <time>2017-07-30T07:42:04Z</time>
      </trkpt>
      <trkpt lat="42.60266" lon="-0.12063">
        <ele>894</ele>
        <time>2017-07-30T07:42:05Z</time>
      </trkpt>
      <trkpt lat="42.60268" lon="-0.12063">
        <ele>894</ele>
        <time>2017-07-30T07:42:06Z</time>
      </trkpt>
      <trkpt lat="42.60273" lon="-0.12064">
        <ele>894</ele>
        <time>2017-07-30T07:42:08Z</time>
      </trkpt>
      <trkpt lat="42.60277" lon="-0.12064">
        <ele>894</ele>
        <time>2017-07-30T07:42:10Z</time>
      </trkpt>
      <trkpt lat="42.60279" lon="-0.12063">
        <ele>894</ele>
        <time>2017-07-30T07:42:11Z</time>
      </trkpt>
      <trkpt lat="42.60283" lon="-0.12062">
        <ele>894</ele>
        <time>2017-07-30T07:42:12Z</time>
      </trkpt>
      <trkpt lat="42.60287" lon="-0.12061">
        <ele>893.9</ele>
        <time>2017-07-30T07:42:13Z</time>
      </trkpt>
      <trkpt lat="42.60291" lon="-0.12062">
        <ele>893.9</ele>
        <time>2017-07-30T07:42:14Z</time>
      </trkpt>
      <trkpt lat="42.60295" lon="-0.12063">
        <ele>893.8</ele>
        <time>2017-07-30T07:42:15Z</time>
      </trkpt>
      <trkpt lat="42.60299" lon="-0.12066">
        <ele>893.7</ele>
        <time>2017-07-30T07:42:16Z</time>
      </trkpt>
      <trkpt lat="42.60303" lon="-0.12068">
        <ele>893.7</ele>
        <time>2017-07-30T07:42:17Z</time>
      </trkpt>
      <trkpt lat="42.60307" lon="-0.12071">
        <ele>893.6</ele>
        <time>2017-07-30T07:42:18Z</time>
      </trkpt>
      <trkpt lat="42.60311" lon="-0.12073">
        <ele>893.5</ele>
        <time>2017-07-30T07:42:19Z</time>
      </trkpt>
      <trkpt lat="42.60315" lon="-0.12076">
        <ele>893.5</ele>
        <time>2017-07-30T07:42:20Z</time>
      </trkpt>
      <trkpt lat="42.60319" lon="-0.12079">
        <ele>893.4</ele>
        <time>2017-07-30T07:42:21Z</time>
      </trkpt>
      <trkpt lat="42.60322" lon="-0.12082">
        <ele>893.4</ele>
        <time>2017-07-30T07:42:22Z</time>
      </trkpt>
      <trkpt lat="42.60326" lon="-0.12085">
        <ele>893.3</ele>
        <time>2017-07-30T07:42:23Z</time>
      </trkpt>
      <trkpt lat="42.6033" lon="-0.12089">
        <ele>893.3</ele>
        <time>2017-07-30T07:42:24Z</time>
      </trkpt>
      <trkpt lat="42.60334" lon="-0.12093">
        <ele>893.2</ele>
        <time>2017-07-30T07:42:25Z</time>
      </trkpt>
      <trkpt lat="42.60338" lon="-0.12096">
        <ele>893.2</ele>
        <time>2017-07-30T07:42:26Z</time>
      </trkpt>
      <trkpt lat="42.60341" lon="-0.121">
        <ele>893.1</ele>
        <time>2017-07-30T07:42:27Z</time>
      </trkpt>
      <trkpt lat="42.60345" lon="-0.12105">
        <ele>893.1</ele>
        <time>2017-07-30T07:42:28Z</time>
      </trkpt>
      <trkpt lat="42.60348" lon="-0.12109">
        <ele>893</ele>
        <time>2017-07-30T07:42:29Z</time>
      </trkpt>
      <trkpt lat="42.60352" lon="-0.12113">
        <ele>893</ele>
        <time>2017-07-30T07:42:30Z</time>
      </trkpt>
      <trkpt lat="42.60355" lon="-0.12118">
        <ele>892.9</ele>
        <time>2017-07-30T07:42:31Z</time>
      </trkpt>
      <trkpt lat="42.60358" lon="-0.12122">
        <ele>892.8</ele>
        <time>2017-07-30T07:42:32Z</time>
      </trkpt>
      <trkpt lat="42.60361" lon="-0.12127">
        <ele>892.8</ele>
        <time>2017-07-30T07:42:33Z</time>
      </trkpt>
      <trkpt lat="42.60365" lon="-0.12131">
        <ele>892.7</ele>
        <time>2017-07-30T07:42:34Z</time>
      </trkpt>
      <trkpt lat="42.60368" lon="-0.12136">
        <ele>892.6</ele>
        <time>2017-07-30T07:42:35Z</time>
      </trkpt>
      <trkpt lat="42.60371" lon="-0.12141">
        <ele>892.6</ele>
        <time>2017-07-30T07:42:36Z</time>
      </trkpt>
      <trkpt lat="42.60374" lon="-0.12145">
        <ele>892.5</ele>
        <time>2017-07-30T07:42:37Z</time>
      </trkpt>
      <trkpt lat="42.60378" lon="-0.1215">
        <ele>892.4</ele>
        <time>2017-07-30T07:42:38Z</time>
      </trkpt>
      <trkpt lat="42.60381" lon="-0.12155">
        <ele>892.3</ele>
        <time>2017-07-30T07:42:39Z</time>
      </trkpt>
      <trkpt lat="42.60384" lon="-0.1216">
        <ele>892.2</ele>
        <time>2017-07-30T07:42:40Z</time>
      </trkpt>
      <trkpt lat="42.60387" lon="-0.12165">
        <ele>892.1</ele>
        <time>2017-07-30T07:42:41Z</time>
      </trkpt>
      <trkpt lat="42.6039" lon="-0.1217">
        <ele>892</ele>
        <time>2017-07-30T07:42:42Z</time>
      </trkpt>
      <trkpt lat="42.60393" lon="-0.12175">
        <ele>891.9</ele>
        <time>2017-07-30T07:42:43Z</time>
      </trkpt>
      <trkpt lat="42.60396" lon="-0.1218">
        <ele>891.8</ele>
        <time>2017-07-30T07:42:44Z</time>
      </trkpt>
      <trkpt lat="42.60399" lon="-0.12185">
        <ele>892.3</ele>
        <time>2017-07-30T07:42:45Z</time>
      </trkpt>
      <trkpt lat="42.60401" lon="-0.1219">
        <ele>892.5</ele>
        <time>2017-07-30T07:42:46Z</time>
      </trkpt>
      <trkpt lat="42.60403" lon="-0.12195">
        <ele>892.4</ele>
        <time>2017-07-30T07:42:47Z</time>
      </trkpt>
      <trkpt lat="42.60405" lon="-0.122">
        <ele>892.4</ele>
        <time>2017-07-30T07:42:48Z</time>
      </trkpt>
      <trkpt lat="42.60407" lon="-0.12204">
        <ele>892.3</ele>
        <time>2017-07-30T07:42:49Z</time>
      </trkpt>
      <trkpt lat="42.60409" lon="-0.12209">
        <ele>892.2</ele>
        <time>2017-07-30T07:42:50Z</time>
      </trkpt>
      <trkpt lat="42.60411" lon="-0.12214">
        <ele>892.1</ele>
        <time>2017-07-30T07:42:51Z</time>
      </trkpt>
      <trkpt lat="42.60412" lon="-0.12218">
        <ele>892</ele>
        <time>2017-07-30T07:42:52Z</time>
      </trkpt>
      <trkpt lat="42.60414" lon="-0.12223">
        <ele>892</ele>
        <time>2017-07-30T07:42:54Z</time>
      </trkpt>
      <trkpt lat="42.60416" lon="-0.12227">
        <ele>892</ele>
        <time>2017-07-30T07:42:56Z</time>
      </trkpt>
      <trkpt lat="42.60417" lon="-0.1223">
        <ele>892.1</ele>
        <time>2017-07-30T07:42:58Z</time>
      </trkpt>
      <trkpt lat="42.60418" lon="-0.12234">
        <ele>893.7</ele>
        <time>2017-07-30T07:43:00Z</time>
      </trkpt>
      <trkpt lat="42.60421" lon="-0.12241">
        <ele>896.3</ele>
        <time>2017-07-30T07:43:02Z</time>
      </trkpt>
      <trkpt lat="42.60422" lon="-0.12245">
        <ele>898</ele>
        <time>2017-07-30T07:43:03Z</time>
      </trkpt>
      <trkpt lat="42.60424" lon="-0.12249">
        <ele>897.6</ele>
        <time>2017-07-30T07:43:04Z</time>
      </trkpt>
      <trkpt lat="42.60427" lon="-0.12253">
        <ele>897.3</ele>
        <time>2017-07-30T07:43:05Z</time>
      </trkpt>
      <trkpt lat="42.60429" lon="-0.12257">
        <ele>896.9</ele>
        <time>2017-07-30T07:43:06Z</time>
      </trkpt>
      <trkpt lat="42.60432" lon="-0.12261">
        <ele>896.5</ele>
        <time>2017-07-30T07:43:07Z</time>
      </trkpt>
      <trkpt lat="42.60434" lon="-0.12266">
        <ele>896.1</ele>
        <time>2017-07-30T07:43:08Z</time>
      </trkpt>
      <trkpt lat="42.60436" lon="-0.1227">
        <ele>895.7</ele>
        <time>2017-07-30T07:43:09Z</time>
      </trkpt>
      <trkpt lat="42.60439" lon="-0.12275">
        <ele>895.3</ele>
        <time>2017-07-30T07:43:10Z</time>
      </trkpt>
      <trkpt lat="42.60441" lon="-0.12279">
        <ele>895</ele>
        <time>2017-07-30T07:43:11Z</time>
      </trkpt>
      <trkpt lat="42.60444" lon="-0.12283">
        <ele>895</ele>
        <time>2017-07-30T07:43:12Z</time>
      </trkpt>
      <trkpt lat="42.60446" lon="-0.12287">
        <ele>895</ele>
        <time>2017-07-30T07:43:13Z</time>
      </trkpt>
      <trkpt lat="42.60449" lon="-0.12291">
        <ele>895</ele>
        <time>2017-07-30T07:43:14Z</time>
      </trkpt>
      <trkpt lat="42.60452" lon="-0.12295">
        <ele>895</ele>
        <time>2017-07-30T07:43:15Z</time>
      </trkpt>
      <trkpt lat="42.60455" lon="-0.123">
        <ele>895</ele>
        <time>2017-07-30T07:43:16Z</time>
      </trkpt>
      <trkpt lat="42.60458" lon="-0.12304">
        <ele>895</ele>
        <time>2017-07-30T07:43:17Z</time>
      </trkpt>
      <trkpt lat="42.60461" lon="-0.12309">
        <ele>895</ele>
        <time>2017-07-30T07:43:18Z</time>
      </trkpt>
      <trkpt lat="42.60464" lon="-0.12313">
        <ele>895</ele>
        <time>2017-07-30T07:43:19Z</time>
      </trkpt>
      <trkpt lat="42.60467" lon="-0.12317">
        <ele>895.1</ele>
        <time>2017-07-30T07:43:20Z</time>
      </trkpt>
      <trkpt lat="42.60471" lon="-0.12322">
        <ele>895.3</ele>
        <time>2017-07-30T07:43:21Z</time>
      </trkpt>
      <trkpt lat="42.60474" lon="-0.12327">
        <ele>895.5</ele>
        <time>2017-07-30T07:43:22Z</time>
      </trkpt>
      <trkpt lat="42.60477" lon="-0.12331">
        <ele>895.7</ele>
        <time>2017-07-30T07:43:23Z</time>
      </trkpt>
      <trkpt lat="42.6048" lon="-0.12336">
        <ele>895.9</ele>
        <time>2017-07-30T07:43:24Z</time>
      </trkpt>
      <trkpt lat="42.60483" lon="-0.1234">
        <ele>896.1</ele>
        <time>2017-07-30T07:43:25Z</time>
      </trkpt>
      <trkpt lat="42.60486" lon="-0.12344">
        <ele>896.3</ele>
        <time>2017-07-30T07:43:26Z</time>
      </trkpt>
      <trkpt lat="42.6049" lon="-0.12348">
        <ele>896.5</ele>
        <time>2017-07-30T07:43:27Z</time>
      </trkpt>
      <trkpt lat="42.60494" lon="-0.12352">
        <ele>896.7</ele>
        <time>2017-07-30T07:43:28Z</time>
      </trkpt>
      <trkpt lat="42.60498" lon="-0.12355">
        <ele>896.9</ele>
        <time>2017-07-30T07:43:29Z</time>
      </trkpt>
      <trkpt lat="42.60502" lon="-0.12359">
        <ele>897.2</ele>
        <time>2017-07-30T07:43:30Z</time>
      </trkpt>
      <trkpt lat="42.60505" lon="-0.12364">
        <ele>897.4</ele>
        <time>2017-07-30T07:43:31Z</time>
      </trkpt>
      <trkpt lat="42.60508" lon="-0.12367">
        <ele>897.5</ele>
        <time>2017-07-30T07:43:32Z</time>
      </trkpt>
      <trkpt lat="42.6051" lon="-0.1237">
        <ele>897.7</ele>
        <time>2017-07-30T07:43:33Z</time>
      </trkpt>
      <trkpt lat="42.60509" lon="-0.12375">
        <ele>898.2</ele>
        <time>2017-07-30T07:43:35Z</time>
      </trkpt>
      <trkpt lat="42.60506" lon="-0.12377">
        <ele>898.2</ele>
        <time>2017-07-30T07:43:36Z</time>
      </trkpt>
      <trkpt lat="42.60503" lon="-0.12378">
        <ele>898.3</ele>
        <time>2017-07-30T07:43:37Z</time>
      </trkpt>
      <trkpt lat="42.60499" lon="-0.12373">
        <ele>898.4</ele>
        <time>2017-07-30T07:43:38Z</time>
      </trkpt>
      <trkpt lat="42.60496" lon="-0.12368">
        <ele>898.5</ele>
        <time>2017-07-30T07:43:39Z</time>
      </trkpt>
      <trkpt lat="42.60491" lon="-0.12363">
        <ele>898.7</ele>
        <time>2017-07-30T07:43:40Z</time>
      </trkpt>
      <trkpt lat="42.60485" lon="-0.12359">
        <ele>898.8</ele>
        <time>2017-07-30T07:43:41Z</time>
      </trkpt>
      <trkpt lat="42.60478" lon="-0.12358">
        <ele>899</ele>
        <time>2017-07-30T07:43:42Z</time>
      </trkpt>
      <trkpt lat="42.60472" lon="-0.12361">
        <ele>899</ele>
        <time>2017-07-30T07:43:43Z</time>
      </trkpt>
      <trkpt lat="42.60467" lon="-0.12366">
        <ele>899</ele>
        <time>2017-07-30T07:43:44Z</time>
      </trkpt>
      <trkpt lat="42.60462" lon="-0.12372">
        <ele>899.1</ele>
        <time>2017-07-30T07:43:45Z</time>
      </trkpt>
      <trkpt lat="42.60457" lon="-0.12376">
        <ele>899.6</ele>
        <time>2017-07-30T07:43:46Z</time>
      </trkpt>
      <trkpt lat="42.60452" lon="-0.1238">
        <ele>900.1</ele>
        <time>2017-07-30T07:43:47Z</time>
      </trkpt>
      <trkpt lat="42.60447" lon="-0.12384">
        <ele>900.6</ele>
        <time>2017-07-30T07:43:48Z</time>
      </trkpt>
      <trkpt lat="42.60442" lon="-0.12388">
        <ele>901.1</ele>
        <time>2017-07-30T07:43:49Z</time>
      </trkpt>
      <trkpt lat="42.60437" lon="-0.12393">
        <ele>901.6</ele>
        <time>2017-07-30T07:43:50Z</time>
      </trkpt>
      <trkpt lat="42.60432" lon="-0.12397">
        <ele>902.1</ele>
        <time>2017-07-30T07:43:51Z</time>
      </trkpt>
      <trkpt lat="42.60428" lon="-0.12401">
        <ele>902.6</ele>
        <time>2017-07-30T07:43:52Z</time>
      </trkpt>
      <trkpt lat="42.60425" lon="-0.12404">
        <ele>902.9</ele>
        <time>2017-07-30T07:43:53Z</time>
      </trkpt>
      <trkpt lat="42.60421" lon="-0.12406">
        <ele>903.2</ele>
        <time>2017-07-30T07:43:54Z</time>
      </trkpt>
      <trkpt lat="42.60416" lon="-0.12409">
        <ele>903.8</ele>
        <time>2017-07-30T07:43:55Z</time>
      </trkpt>
      <trkpt lat="42.6041" lon="-0.12414">
        <ele>904</ele>
        <time>2017-07-30T07:43:57Z</time>
      </trkpt>
      <trkpt lat="42.60407" lon="-0.12416">
        <ele>915.6</ele>
        <time>2017-07-30T07:43:58Z</time>
      </trkpt>
      <trkpt lat="42.60404" lon="-0.12418">
        <ele>926</ele>
        <time>2017-07-30T07:43:59Z</time>
      </trkpt>
      <trkpt lat="42.60401" lon="-0.12419">
        <ele>926</ele>
        <time>2017-07-30T07:44:00Z</time>
      </trkpt>
      <trkpt lat="42.60398" lon="-0.12421">
        <ele>926</ele>
        <time>2017-07-30T07:44:01Z</time>
      </trkpt>
      <trkpt lat="42.60394" lon="-0.12424">
        <ele>926</ele>
        <time>2017-07-30T07:44:02Z</time>
      </trkpt>
      <trkpt lat="42.6039" lon="-0.12425">
        <ele>926</ele>
        <time>2017-07-30T07:44:04Z</time>
      </trkpt>
      <trkpt lat="42.60387" lon="-0.12427">
        <ele>926</ele>
        <time>2017-07-30T07:44:05Z</time>
      </trkpt>
      <trkpt lat="42.60382" lon="-0.12429">
        <ele>926</ele>
        <time>2017-07-30T07:44:07Z</time>
      </trkpt>
      <trkpt lat="42.60377" lon="-0.1243">
        <ele>925.8</ele>
        <time>2017-07-30T07:44:09Z</time>
      </trkpt>
      <trkpt lat="42.60374" lon="-0.12429">
        <ele>925.6</ele>
        <time>2017-07-30T07:44:10Z</time>
      </trkpt>
      <trkpt lat="42.60371" lon="-0.12428">
        <ele>925.3</ele>
        <time>2017-07-30T07:44:11Z</time>
      </trkpt>
      <trkpt lat="42.60368" lon="-0.12426">
        <ele>925.1</ele>
        <time>2017-07-30T07:44:12Z</time>
      </trkpt>
      <trkpt lat="42.60366" lon="-0.12425">
        <ele>924.8</ele>
        <time>2017-07-30T07:44:13Z</time>
      </trkpt>
      <trkpt lat="42.60363" lon="-0.12423">
        <ele>924.5</ele>
        <time>2017-07-30T07:44:14Z</time>
      </trkpt>
      <trkpt lat="42.6036" lon="-0.12422">
        <ele>924.2</ele>
        <time>2017-07-30T07:44:15Z</time>
      </trkpt>
      <trkpt lat="42.60358" lon="-0.1242">
        <ele>924</ele>
        <time>2017-07-30T07:44:16Z</time>
      </trkpt>
      <trkpt lat="42.60353" lon="-0.12418">
        <ele>923.5</ele>
        <time>2017-07-30T07:44:18Z</time>
      </trkpt>
      <trkpt lat="42.6035" lon="-0.12416">
        <ele>923.3</ele>
        <time>2017-07-30T07:44:19Z</time>
      </trkpt>
      <trkpt lat="42.60345" lon="-0.12414">
        <ele>922.9</ele>
        <time>2017-07-30T07:44:21Z</time>
      </trkpt>
      <trkpt lat="42.6034" lon="-0.12411">
        <ele>922.4</ele>
        <time>2017-07-30T07:44:23Z</time>
      </trkpt>
      <trkpt lat="42.60337" lon="-0.1241">
        <ele>922.1</ele>
        <time>2017-07-30T07:44:24Z</time>
      </trkpt>
      <trkpt lat="42.60334" lon="-0.1241">
        <ele>921.8</ele>
        <time>2017-07-30T07:44:25Z</time>
      </trkpt>
      <trkpt lat="42.60331" lon="-0.12409">
        <ele>921.5</ele>
        <time>2017-07-30T07:44:26Z</time>
      </trkpt>
      <trkpt lat="42.60328" lon="-0.12408">
        <ele>920.9</ele>
        <time>2017-07-30T07:44:27Z</time>
      </trkpt>
      <trkpt lat="42.60324" lon="-0.12407">
        <ele>920</ele>
        <time>2017-07-30T07:44:28Z</time>
      </trkpt>
      <trkpt lat="42.6032" lon="-0.12405">
        <ele>919.1</ele>
        <time>2017-07-30T07:44:29Z</time>
      </trkpt>
      <trkpt lat="42.60317" lon="-0.12403">
        <ele>918.2</ele>
        <time>2017-07-30T07:44:30Z</time>
      </trkpt>
      <trkpt lat="42.60313" lon="-0.124">
        <ele>917.2</ele>
        <time>2017-07-30T07:44:31Z</time>
      </trkpt>
      <trkpt lat="42.60309" lon="-0.12396">
        <ele>916.1</ele>
        <time>2017-07-30T07:44:32Z</time>
      </trkpt>
      <trkpt lat="42.60306" lon="-0.12391">
        <ele>915.2</ele>
        <time>2017-07-30T07:44:33Z</time>
      </trkpt>
      <trkpt lat="42.60302" lon="-0.12386">
        <ele>914.3</ele>
        <time>2017-07-30T07:44:34Z</time>
      </trkpt>
      <trkpt lat="42.60299" lon="-0.1238">
        <ele>913.8</ele>
        <time>2017-07-30T07:44:35Z</time>
      </trkpt>
      <trkpt lat="42.60296" lon="-0.12375">
        <ele>913.3</ele>
        <time>2017-07-30T07:44:36Z</time>
      </trkpt>
      <trkpt lat="42.60291" lon="-0.12369">
        <ele>912.6</ele>
        <time>2017-07-30T07:44:37Z</time>
      </trkpt>
      <trkpt lat="42.60286" lon="-0.12365">
        <ele>912</ele>
        <time>2017-07-30T07:44:38Z</time>
      </trkpt>
      <trkpt lat="42.60281" lon="-0.12361">
        <ele>911.6</ele>
        <time>2017-07-30T07:44:39Z</time>
      </trkpt>
      <trkpt lat="42.60276" lon="-0.12358">
        <ele>911.3</ele>
        <time>2017-07-30T07:44:40Z</time>
      </trkpt>
      <trkpt lat="42.60269" lon="-0.12356">
        <ele>911</ele>
        <time>2017-07-30T07:44:41Z</time>
      </trkpt>
      <trkpt lat="42.60262" lon="-0.12355">
        <ele>910.6</ele>
        <time>2017-07-30T07:44:42Z</time>
      </trkpt>
      <trkpt lat="42.60256" lon="-0.12355">
        <ele>910.2</ele>
        <time>2017-07-30T07:44:43Z</time>
      </trkpt>
      <trkpt lat="42.60249" lon="-0.12355">
        <ele>909.8</ele>
        <time>2017-07-30T07:44:44Z</time>
      </trkpt>
      <trkpt lat="42.60242" lon="-0.12354">
        <ele>909.5</ele>
        <time>2017-07-30T07:44:45Z</time>
      </trkpt>
      <trkpt lat="42.60235" lon="-0.12354">
        <ele>909.1</ele>
        <time>2017-07-30T07:44:46Z</time>
      </trkpt>
      <trkpt lat="42.60229" lon="-0.12354">
        <ele>908.7</ele>
        <time>2017-07-30T07:44:47Z</time>
      </trkpt>
      <trkpt lat="42.60223" lon="-0.12354">
        <ele>908.4</ele>
        <time>2017-07-30T07:44:48Z</time>
      </trkpt>
      <trkpt lat="42.60217" lon="-0.12354">
        <ele>908.1</ele>
        <time>2017-07-30T07:44:49Z</time>
      </trkpt>
      <trkpt lat="42.60212" lon="-0.12356">
        <ele>907.7</ele>
        <time>2017-07-30T07:44:50Z</time>
      </trkpt>
      <trkpt lat="42.60207" lon="-0.12357">
        <ele>907.4</ele>
        <time>2017-07-30T07:44:51Z</time>
      </trkpt>
      <trkpt lat="42.60203" lon="-0.1236">
        <ele>907.1</ele>
        <time>2017-07-30T07:44:52Z</time>
      </trkpt>
      <trkpt lat="42.60199" lon="-0.12362">
        <ele>907.3</ele>
        <time>2017-07-30T07:44:53Z</time>
      </trkpt>
      <trkpt lat="42.60195" lon="-0.12366">
        <ele>907.6</ele>
        <time>2017-07-30T07:44:54Z</time>
      </trkpt>
      <trkpt lat="42.60192" lon="-0.12368">
        <ele>907.9</ele>
        <time>2017-07-30T07:44:55Z</time>
      </trkpt>
      <trkpt lat="42.60189" lon="-0.12371">
        <ele>908.2</ele>
        <time>2017-07-30T07:44:56Z</time>
      </trkpt>
      <trkpt lat="42.60186" lon="-0.12373">
        <ele>908.4</ele>
        <time>2017-07-30T07:44:57Z</time>
      </trkpt>
      <trkpt lat="42.60184" lon="-0.12376">
        <ele>908.5</ele>
        <time>2017-07-30T07:44:58Z</time>
      </trkpt>
      <trkpt lat="42.60182" lon="-0.1238">
        <ele>908.6</ele>
        <time>2017-07-30T07:44:59Z</time>
      </trkpt>
      <trkpt lat="42.6018" lon="-0.12383">
        <ele>908.7</ele>
        <time>2017-07-30T07:45:00Z</time>
      </trkpt>
      <trkpt lat="42.60178" lon="-0.12387">
        <ele>908.8</ele>
        <time>2017-07-30T07:45:01Z</time>
      </trkpt>
      <trkpt lat="42.60175" lon="-0.1239">
        <ele>908.9</ele>
        <time>2017-07-30T07:45:02Z</time>
      </trkpt>
      <trkpt lat="42.60173" lon="-0.12393">
        <ele>909</ele>
        <time>2017-07-30T07:45:03Z</time>
      </trkpt>
      <trkpt lat="42.60171" lon="-0.12396">
        <ele>909.1</ele>
        <time>2017-07-30T07:45:04Z</time>
      </trkpt>
      <trkpt lat="42.60169" lon="-0.12399">
        <ele>909.2</ele>
        <time>2017-07-30T07:45:05Z</time>
      </trkpt>
      <trkpt lat="42.60167" lon="-0.12403">
        <ele>909.2</ele>
        <time>2017-07-30T07:45:06Z</time>
      </trkpt>
      <trkpt lat="42.60165" lon="-0.12406">
        <ele>909.3</ele>
        <time>2017-07-30T07:45:07Z</time>
      </trkpt>
      <trkpt lat="42.60164" lon="-0.1241">
        <ele>909.4</ele>
        <time>2017-07-30T07:45:08Z</time>
      </trkpt>
      <trkpt lat="42.60162" lon="-0.12414">
        <ele>909.5</ele>
        <time>2017-07-30T07:45:09Z</time>
      </trkpt>
      <trkpt lat="42.6016" lon="-0.12417">
        <ele>909.6</ele>
        <time>2017-07-30T07:45:10Z</time>
      </trkpt>
      <trkpt lat="42.60158" lon="-0.12421">
        <ele>909.7</ele>
        <time>2017-07-30T07:45:11Z</time>
      </trkpt>
      <trkpt lat="42.60156" lon="-0.12424">
        <ele>909.7</ele>
        <time>2017-07-30T07:45:12Z</time>
      </trkpt>
      <trkpt lat="42.60154" lon="-0.12428">
        <ele>909.8</ele>
        <time>2017-07-30T07:45:13Z</time>
      </trkpt>
      <trkpt lat="42.60152" lon="-0.1243">
        <ele>909.9</ele>
        <time>2017-07-30T07:45:14Z</time>
      </trkpt>
      <trkpt lat="42.60149" lon="-0.12433">
        <ele>910</ele>
        <time>2017-07-30T07:45:15Z</time>
      </trkpt>
      <trkpt lat="42.60146" lon="-0.12436">
        <ele>910.1</ele>
        <time>2017-07-30T07:45:16Z</time>
      </trkpt>
      <trkpt lat="42.60143" lon="-0.12438">
        <ele>910.2</ele>
        <time>2017-07-30T07:45:17Z</time>
      </trkpt>
      <trkpt lat="42.6014" lon="-0.12441">
        <ele>910.2</ele>
        <time>2017-07-30T07:45:18Z</time>
      </trkpt>
      <trkpt lat="42.60137" lon="-0.12443">
        <ele>910.3</ele>
        <time>2017-07-30T07:45:19Z</time>
      </trkpt>
      <trkpt lat="42.60133" lon="-0.12445">
        <ele>910.3</ele>
        <time>2017-07-30T07:45:20Z</time>
      </trkpt>
      <trkpt lat="42.60129" lon="-0.12448">
        <ele>910.4</ele>
        <time>2017-07-30T07:45:21Z</time>
      </trkpt>
      <trkpt lat="42.60126" lon="-0.12452">
        <ele>910.5</ele>
        <time>2017-07-30T07:45:22Z</time>
      </trkpt>
      <trkpt lat="42.60123" lon="-0.12456">
        <ele>910.5</ele>
        <time>2017-07-30T07:45:23Z</time>
      </trkpt>
      <trkpt lat="42.6012" lon="-0.12461">
        <ele>910.6</ele>
        <time>2017-07-30T07:45:24Z</time>
      </trkpt>
      <trkpt lat="42.60118" lon="-0.12467">
        <ele>910.7</ele>
        <time>2017-07-30T07:45:25Z</time>
      </trkpt>
      <trkpt lat="42.60116" lon="-0.12474">
        <ele>910.8</ele>
        <time>2017-07-30T07:45:26Z</time>
      </trkpt>
      <trkpt lat="42.60115" lon="-0.1248">
        <ele>910.9</ele>
        <time>2017-07-30T07:45:27Z</time>
      </trkpt>
      <trkpt lat="42.60113" lon="-0.12487">
        <ele>911.1</ele>
        <time>2017-07-30T07:45:28Z</time>
      </trkpt>
      <trkpt lat="42.60112" lon="-0.12492">
        <ele>911.2</ele>
        <time>2017-07-30T07:45:29Z</time>
      </trkpt>
      <trkpt lat="42.60111" lon="-0.12498">
        <ele>911.3</ele>
        <time>2017-07-30T07:45:30Z</time>
      </trkpt>
      <trkpt lat="42.6011" lon="-0.12504">
        <ele>911.4</ele>
        <time>2017-07-30T07:45:31Z</time>
      </trkpt>
      <trkpt lat="42.60108" lon="-0.12511">
        <ele>911.5</ele>
        <time>2017-07-30T07:45:32Z</time>
      </trkpt>
      <trkpt lat="42.60107" lon="-0.12517">
        <ele>911.6</ele>
        <time>2017-07-30T07:45:33Z</time>
      </trkpt>
      <trkpt lat="42.60106" lon="-0.12523">
        <ele>911.8</ele>
        <time>2017-07-30T07:45:34Z</time>
      </trkpt>
      <trkpt lat="42.60104" lon="-0.12529">
        <ele>911.9</ele>
        <time>2017-07-30T07:45:35Z</time>
      </trkpt>
      <trkpt lat="42.60102" lon="-0.12534">
        <ele>912.1</ele>
        <time>2017-07-30T07:45:36Z</time>
      </trkpt>
      <trkpt lat="42.601" lon="-0.1254">
        <ele>912.4</ele>
        <time>2017-07-30T07:45:37Z</time>
      </trkpt>
      <trkpt lat="42.60099" lon="-0.12545">
        <ele>912.6</ele>
        <time>2017-07-30T07:45:38Z</time>
      </trkpt>
      <trkpt lat="42.60097" lon="-0.12551">
        <ele>912.8</ele>
        <time>2017-07-30T07:45:39Z</time>
      </trkpt>
      <trkpt lat="42.60096" lon="-0.12556">
        <ele>913.1</ele>
        <time>2017-07-30T07:45:40Z</time>
      </trkpt>
      <trkpt lat="42.60095" lon="-0.12561">
        <ele>913.3</ele>
        <time>2017-07-30T07:45:41Z</time>
      </trkpt>
      <trkpt lat="42.60094" lon="-0.12566">
        <ele>913.5</ele>
        <time>2017-07-30T07:45:42Z</time>
      </trkpt>
      <trkpt lat="42.60092" lon="-0.12572">
        <ele>913.8</ele>
        <time>2017-07-30T07:45:43Z</time>
      </trkpt>
      <trkpt lat="42.6009" lon="-0.12577">
        <ele>914.1</ele>
        <time>2017-07-30T07:45:44Z</time>
      </trkpt>
      <trkpt lat="42.60089" lon="-0.12582">
        <ele>914.3</ele>
        <time>2017-07-30T07:45:45Z</time>
      </trkpt>
      <trkpt lat="42.60087" lon="-0.12588">
        <ele>914.6</ele>
        <time>2017-07-30T07:45:46Z</time>
      </trkpt>
      <trkpt lat="42.60086" lon="-0.12594">
        <ele>914.8</ele>
        <time>2017-07-30T07:45:47Z</time>
      </trkpt>
      <trkpt lat="42.60085" lon="-0.12599">
        <ele>915</ele>
        <time>2017-07-30T07:45:48Z</time>
      </trkpt>
      <trkpt lat="42.60084" lon="-0.12604">
        <ele>915.2</ele>
        <time>2017-07-30T07:45:49Z</time>
      </trkpt>
      <trkpt lat="42.60083" lon="-0.12609">
        <ele>915.4</ele>
        <time>2017-07-30T07:45:50Z</time>
      </trkpt>
      <trkpt lat="42.60082" lon="-0.12615">
        <ele>915.6</ele>
        <time>2017-07-30T07:45:51Z</time>
      </trkpt>
      <trkpt lat="42.60081" lon="-0.1262">
        <ele>915.9</ele>
        <time>2017-07-30T07:45:52Z</time>
      </trkpt>
      <trkpt lat="42.6008" lon="-0.12625">
        <ele>916.2</ele>
        <time>2017-07-30T07:45:53Z</time>
      </trkpt>
      <trkpt lat="42.6008" lon="-0.1263">
        <ele>916.5</ele>
        <time>2017-07-30T07:45:54Z</time>
      </trkpt>
      <trkpt lat="42.60079" lon="-0.12635">
        <ele>916.8</ele>
        <time>2017-07-30T07:45:55Z</time>
      </trkpt>
      <trkpt lat="42.60079" lon="-0.12639">
        <ele>917.1</ele>
        <time>2017-07-30T07:45:56Z</time>
      </trkpt>
      <trkpt lat="42.60078" lon="-0.12644">
        <ele>917.4</ele>
        <time>2017-07-30T07:45:57Z</time>
      </trkpt>
      <trkpt lat="42.60076" lon="-0.12649">
        <ele>917.8</ele>
        <time>2017-07-30T07:45:58Z</time>
      </trkpt>
      <trkpt lat="42.60074" lon="-0.12653">
        <ele>918.1</ele>
        <time>2017-07-30T07:45:59Z</time>
      </trkpt>
      <trkpt lat="42.60072" lon="-0.12657">
        <ele>918.5</ele>
        <time>2017-07-30T07:46:00Z</time>
      </trkpt>
      <trkpt lat="42.60069" lon="-0.12661">
        <ele>918.8</ele>
        <time>2017-07-30T07:46:01Z</time>
      </trkpt>
      <trkpt lat="42.60067" lon="-0.12664">
        <ele>919.2</ele>
        <time>2017-07-30T07:46:02Z</time>
      </trkpt>
      <trkpt lat="42.60064" lon="-0.12668">
        <ele>919.6</ele>
        <time>2017-07-30T07:46:03Z</time>
      </trkpt>
      <trkpt lat="42.60062" lon="-0.12671">
        <ele>920</ele>
        <time>2017-07-30T07:46:04Z</time>
      </trkpt>
      <trkpt lat="42.60059" lon="-0.12675">
        <ele>920.4</ele>
        <time>2017-07-30T07:46:05Z</time>
      </trkpt>
      <trkpt lat="42.60056" lon="-0.12678">
        <ele>920.8</ele>
        <time>2017-07-30T07:46:06Z</time>
      </trkpt>
      <trkpt lat="42.60053" lon="-0.12682">
        <ele>921.3</ele>
        <time>2017-07-30T07:46:07Z</time>
      </trkpt>
      <trkpt lat="42.6005" lon="-0.12685">
        <ele>921.7</ele>
        <time>2017-07-30T07:46:08Z</time>
      </trkpt>
      <trkpt lat="42.60047" lon="-0.12688">
        <ele>921.8</ele>
        <time>2017-07-30T07:46:09Z</time>
      </trkpt>
      <trkpt lat="42.60044" lon="-0.1269">
        <ele>921.7</ele>
        <time>2017-07-30T07:46:10Z</time>
      </trkpt>
      <trkpt lat="42.6004" lon="-0.12693">
        <ele>921.5</ele>
        <time>2017-07-30T07:46:12Z</time>
      </trkpt>
      <trkpt lat="42.60035" lon="-0.12696">
        <ele>921.4</ele>
        <time>2017-07-30T07:46:14Z</time>
      </trkpt>
      <trkpt lat="42.60032" lon="-0.12699">
        <ele>921.3</ele>
        <time>2017-07-30T07:46:16Z</time>
      </trkpt>
      <trkpt lat="42.60028" lon="-0.12702">
        <ele>921.2</ele>
        <time>2017-07-30T07:46:18Z</time>
      </trkpt>
      <trkpt lat="42.60024" lon="-0.12704">
        <ele>921.1</ele>
        <time>2017-07-30T07:46:20Z</time>
      </trkpt>
      <trkpt lat="42.6002" lon="-0.12706">
        <ele>921</ele>
        <time>2017-07-30T07:46:22Z</time>
      </trkpt>
      <trkpt lat="42.60016" lon="-0.12709">
        <ele>920.9</ele>
        <time>2017-07-30T07:46:24Z</time>
      </trkpt>
      <trkpt lat="42.60013" lon="-0.12712">
        <ele>920.8</ele>
        <time>2017-07-30T07:46:26Z</time>
      </trkpt>
      <trkpt lat="42.60009" lon="-0.12715">
        <ele>920.7</ele>
        <time>2017-07-30T07:46:28Z</time>
      </trkpt>
      <trkpt lat="42.60005" lon="-0.12718">
        <ele>920.7</ele>
        <time>2017-07-30T07:46:30Z</time>
      </trkpt>
      <trkpt lat="42.60002" lon="-0.12721">
        <ele>920.6</ele>
        <time>2017-07-30T07:46:32Z</time>
      </trkpt>
      <trkpt lat="42.59998" lon="-0.12725">
        <ele>920.5</ele>
        <time>2017-07-30T07:46:34Z</time>
      </trkpt>
      <trkpt lat="42.59995" lon="-0.12728">
        <ele>920.5</ele>
        <time>2017-07-30T07:46:36Z</time>
      </trkpt>
      <trkpt lat="42.59992" lon="-0.1273">
        <ele>920.4</ele>
        <time>2017-07-30T07:46:38Z</time>
      </trkpt>
      <trkpt lat="42.59989" lon="-0.12733">
        <ele>920.3</ele>
        <time>2017-07-30T07:46:40Z</time>
      </trkpt>
      <trkpt lat="42.59986" lon="-0.12736">
        <ele>920.3</ele>
        <time>2017-07-30T07:46:42Z</time>
      </trkpt>
      <trkpt lat="42.59983" lon="-0.12739">
        <ele>920.2</ele>
        <time>2017-07-30T07:46:44Z</time>
      </trkpt>
      <trkpt lat="42.5998" lon="-0.12742">
        <ele>920.1</ele>
        <time>2017-07-30T07:46:46Z</time>
      </trkpt>
      <trkpt lat="42.59976" lon="-0.12745">
        <ele>920.1</ele>
        <time>2017-07-30T07:46:48Z</time>
      </trkpt>
      <trkpt lat="42.59972" lon="-0.12747">
        <ele>920</ele>
        <time>2017-07-30T07:46:50Z</time>
      </trkpt>
      <trkpt lat="42.59969" lon="-0.12749">
        <ele>920.3</ele>
        <time>2017-07-30T07:46:52Z</time>
      </trkpt>
      <trkpt lat="42.59966" lon="-0.12749">
        <ele>920.5</ele>
        <time>2017-07-30T07:46:54Z</time>
      </trkpt>
      <trkpt lat="42.59962" lon="-0.12748">
        <ele>920.7</ele>
        <time>2017-07-30T07:46:56Z</time>
      </trkpt>
      <trkpt lat="42.59959" lon="-0.12747">
        <ele>920.7</ele>
        <time>2017-07-30T07:46:58Z</time>
      </trkpt>
      <trkpt lat="42.59955" lon="-0.12745">
        <ele>920</ele>
        <time>2017-07-30T07:47:00Z</time>
      </trkpt>
      <trkpt lat="42.59951" lon="-0.12744">
        <ele>920</ele>
        <time>2017-07-30T07:47:02Z</time>
      </trkpt>
      <trkpt lat="42.59947" lon="-0.12742">
        <ele>920</ele>
        <time>2017-07-30T07:47:04Z</time>
      </trkpt>
      <trkpt lat="42.59944" lon="-0.1274">
        <ele>920</ele>
        <time>2017-07-30T07:47:06Z</time>
      </trkpt>
      <trkpt lat="42.59941" lon="-0.1274">
        <ele>920</ele>
        <time>2017-07-30T07:47:08Z</time>
      </trkpt>
      <trkpt lat="42.59942" lon="-0.12746">
        <ele>920.4</ele>
        <time>2017-07-30T07:47:11Z</time>
      </trkpt>
      <trkpt lat="42.59946" lon="-0.1275">
        <ele>920.8</ele>
        <time>2017-07-30T07:47:13Z</time>
      </trkpt>
      <trkpt lat="42.5995" lon="-0.12752">
        <ele>921.3</ele>
        <time>2017-07-30T07:47:15Z</time>
      </trkpt>
      <trkpt lat="42.59955" lon="-0.12755">
        <ele>921.9</ele>
        <time>2017-07-30T07:47:17Z</time>
      </trkpt>
      <trkpt lat="42.59959" lon="-0.12759">
        <ele>922.5</ele>
        <time>2017-07-30T07:47:19Z</time>
      </trkpt>
      <trkpt lat="42.59963" lon="-0.12764">
        <ele>923.1</ele>
        <time>2017-07-30T07:47:21Z</time>
      </trkpt>
      <trkpt lat="42.59965" lon="-0.12766">
        <ele>923.4</ele>
        <time>2017-07-30T07:47:22Z</time>
      </trkpt>
      <trkpt lat="42.59968" lon="-0.12769">
        <ele>923.7</ele>
        <time>2017-07-30T07:47:23Z</time>
      </trkpt>
      <trkpt lat="42.5997" lon="-0.12771">
        <ele>923.9</ele>
        <time>2017-07-30T07:47:24Z</time>
      </trkpt>
      <trkpt lat="42.59972" lon="-0.12773">
        <ele>924.2</ele>
        <time>2017-07-30T07:47:25Z</time>
      </trkpt>
      <trkpt lat="42.59975" lon="-0.12775">
        <ele>924.4</ele>
        <time>2017-07-30T07:47:26Z</time>
      </trkpt>
      <trkpt lat="42.59977" lon="-0.12778">
        <ele>924.6</ele>
        <time>2017-07-30T07:47:27Z</time>
      </trkpt>
      <trkpt lat="42.59979" lon="-0.1278">
        <ele>924.8</ele>
        <time>2017-07-30T07:47:28Z</time>
      </trkpt>
      <trkpt lat="42.59981" lon="-0.12782">
        <ele>925</ele>
        <time>2017-07-30T07:47:29Z</time>
      </trkpt>
      <trkpt lat="42.59983" lon="-0.12784">
        <ele>925.2</ele>
        <time>2017-07-30T07:47:30Z</time>
      </trkpt>
      <trkpt lat="42.59988" lon="-0.12789">
        <ele>925.7</ele>
        <time>2017-07-30T07:47:32Z</time>
      </trkpt>
      <trkpt lat="42.59992" lon="-0.12793">
        <ele>926.3</ele>
        <time>2017-07-30T07:47:34Z</time>
      </trkpt>
      <trkpt lat="42.59995" lon="-0.12798">
        <ele>927</ele>
        <time>2017-07-30T07:47:36Z</time>
      </trkpt>
      <trkpt lat="42.59999" lon="-0.12802">
        <ele>927.6</ele>
        <time>2017-07-30T07:47:38Z</time>
      </trkpt>
      <trkpt lat="42.60003" lon="-0.12807">
        <ele>928.4</ele>
        <time>2017-07-30T07:47:40Z</time>
      </trkpt>
      <trkpt lat="42.60007" lon="-0.1281">
        <ele>929</ele>
        <time>2017-07-30T07:47:42Z</time>
      </trkpt>
      <trkpt lat="42.60012" lon="-0.12811">
        <ele>929.5</ele>
        <time>2017-07-30T07:47:44Z</time>
      </trkpt>
      <trkpt lat="42.60017" lon="-0.12811">
        <ele>930.1</ele>
        <time>2017-07-30T07:47:46Z</time>
      </trkpt>
      <trkpt lat="42.6002" lon="-0.12811">
        <ele>930.3</ele>
        <time>2017-07-30T07:47:47Z</time>
      </trkpt>
      <trkpt lat="42.60023" lon="-0.1281">
        <ele>930.6</ele>
        <time>2017-07-30T07:47:48Z</time>
      </trkpt>
      <trkpt lat="42.60025" lon="-0.12809">
        <ele>930.8</ele>
        <time>2017-07-30T07:47:49Z</time>
      </trkpt>
      <trkpt lat="42.60028" lon="-0.12808">
        <ele>931.1</ele>
        <time>2017-07-30T07:47:50Z</time>
      </trkpt>
      <trkpt lat="42.60031" lon="-0.12806">
        <ele>931.3</ele>
        <time>2017-07-30T07:47:51Z</time>
      </trkpt>
      <trkpt lat="42.60033" lon="-0.12805">
        <ele>931.4</ele>
        <time>2017-07-30T07:47:52Z</time>
      </trkpt>
      <trkpt lat="42.60036" lon="-0.12804">
        <ele>931.6</ele>
        <time>2017-07-30T07:47:53Z</time>
      </trkpt>
      <trkpt lat="42.60039" lon="-0.12803">
        <ele>931.8</ele>
        <time>2017-07-30T07:47:54Z</time>
      </trkpt>
      <trkpt lat="42.60041" lon="-0.12801">
        <ele>931.9</ele>
        <time>2017-07-30T07:47:55Z</time>
      </trkpt>
      <trkpt lat="42.60044" lon="-0.12799">
        <ele>932.1</ele>
        <time>2017-07-30T07:47:56Z</time>
      </trkpt>
      <trkpt lat="42.60046" lon="-0.12798">
        <ele>932.3</ele>
        <time>2017-07-30T07:47:57Z</time>
      </trkpt>
      <trkpt lat="42.60051" lon="-0.12794">
        <ele>932.7</ele>
        <time>2017-07-30T07:47:59Z</time>
      </trkpt>
      <trkpt lat="42.60055" lon="-0.12791">
        <ele>933.2</ele>
        <time>2017-07-30T07:48:01Z</time>
      </trkpt>
      <trkpt lat="42.60059" lon="-0.12787">
        <ele>933.6</ele>
        <time>2017-07-30T07:48:03Z</time>
      </trkpt>
      <trkpt lat="42.60063" lon="-0.12784">
        <ele>934.1</ele>
        <time>2017-07-30T07:48:05Z</time>
      </trkpt>
      <trkpt lat="42.60067" lon="-0.12781">
        <ele>934.6</ele>
        <time>2017-07-30T07:48:07Z</time>
      </trkpt>
      <trkpt lat="42.60071" lon="-0.12777">
        <ele>935.1</ele>
        <time>2017-07-30T07:48:09Z</time>
      </trkpt>
      <trkpt lat="42.60074" lon="-0.12773">
        <ele>935.6</ele>
        <time>2017-07-30T07:48:11Z</time>
      </trkpt>
      <trkpt lat="42.60077" lon="-0.12768">
        <ele>936.1</ele>
        <time>2017-07-30T07:48:13Z</time>
      </trkpt>
      <trkpt lat="42.60081" lon="-0.12763">
        <ele>936.7</ele>
        <time>2017-07-30T07:48:15Z</time>
      </trkpt>
      <trkpt lat="42.60084" lon="-0.12758">
        <ele>937.2</ele>
        <time>2017-07-30T07:48:17Z</time>
      </trkpt>
      <trkpt lat="42.60087" lon="-0.12753">
        <ele>937.8</ele>
        <time>2017-07-30T07:48:19Z</time>
      </trkpt>
      <trkpt lat="42.6009" lon="-0.12748">
        <ele>938.3</ele>
        <time>2017-07-30T07:48:21Z</time>
      </trkpt>
      <trkpt lat="42.60093" lon="-0.12743">
        <ele>938.7</ele>
        <time>2017-07-30T07:48:23Z</time>
      </trkpt>
      <trkpt lat="42.60096" lon="-0.12739">
        <ele>939.1</ele>
        <time>2017-07-30T07:48:25Z</time>
      </trkpt>
      <trkpt lat="42.60099" lon="-0.12735">
        <ele>939.6</ele>
        <time>2017-07-30T07:48:27Z</time>
      </trkpt>
      <trkpt lat="42.60101" lon="-0.12732">
        <ele>940</ele>
        <time>2017-07-30T07:48:29Z</time>
      </trkpt>
      <trkpt lat="42.60104" lon="-0.12729">
        <ele>940.6</ele>
        <time>2017-07-30T07:48:32Z</time>
      </trkpt>
      <trkpt lat="42.60107" lon="-0.12725">
        <ele>941.4</ele>
        <time>2017-07-30T07:48:34Z</time>
      </trkpt>
      <trkpt lat="42.60109" lon="-0.1272">
        <ele>942.3</ele>
        <time>2017-07-30T07:48:36Z</time>
      </trkpt>
      <trkpt lat="42.60111" lon="-0.12715">
        <ele>943.1</ele>
        <time>2017-07-30T07:48:38Z</time>
      </trkpt>
      <trkpt lat="42.60111" lon="-0.12709">
        <ele>944</ele>
        <time>2017-07-30T07:48:40Z</time>
      </trkpt>
      <trkpt lat="42.60111" lon="-0.12703">
        <ele>944.9</ele>
        <time>2017-07-30T07:48:42Z</time>
      </trkpt>
      <trkpt lat="42.60112" lon="-0.12696">
        <ele>945.6</ele>
        <time>2017-07-30T07:48:44Z</time>
      </trkpt>
      <trkpt lat="42.60112" lon="-0.12691">
        <ele>946.4</ele>
        <time>2017-07-30T07:48:46Z</time>
      </trkpt>
      <trkpt lat="42.60112" lon="-0.12685">
        <ele>947.1</ele>
        <time>2017-07-30T07:48:48Z</time>
      </trkpt>
      <trkpt lat="42.60112" lon="-0.12679">
        <ele>947.8</ele>
        <time>2017-07-30T07:48:50Z</time>
      </trkpt>
      <trkpt lat="42.60113" lon="-0.12674">
        <ele>948.6</ele>
        <time>2017-07-30T07:48:52Z</time>
      </trkpt>
      <trkpt lat="42.60114" lon="-0.12668">
        <ele>949.3</ele>
        <time>2017-07-30T07:48:54Z</time>
      </trkpt>
      <trkpt lat="42.60116" lon="-0.12663">
        <ele>950.1</ele>
        <time>2017-07-30T07:48:56Z</time>
      </trkpt>
      <trkpt lat="42.60117" lon="-0.12659">
        <ele>950.7</ele>
        <time>2017-07-30T07:48:58Z</time>
      </trkpt>
      <trkpt lat="42.6012" lon="-0.12655">
        <ele>951.2</ele>
        <time>2017-07-30T07:49:00Z</time>
      </trkpt>
      <trkpt lat="42.60123" lon="-0.12651">
        <ele>951.9</ele>
        <time>2017-07-30T07:49:02Z</time>
      </trkpt>
      <trkpt lat="42.60125" lon="-0.12646">
        <ele>952.7</ele>
        <time>2017-07-30T07:49:04Z</time>
      </trkpt>
      <trkpt lat="42.60126" lon="-0.12641">
        <ele>953.6</ele>
        <time>2017-07-30T07:49:06Z</time>
      </trkpt>
      <trkpt lat="42.60127" lon="-0.12636">
        <ele>954.6</ele>
        <time>2017-07-30T07:49:08Z</time>
      </trkpt>
      <trkpt lat="42.60129" lon="-0.12631">
        <ele>955.5</ele>
        <time>2017-07-30T07:49:10Z</time>
      </trkpt>
      <trkpt lat="42.60131" lon="-0.12627">
        <ele>956.3</ele>
        <time>2017-07-30T07:49:12Z</time>
      </trkpt>
      <trkpt lat="42.60132" lon="-0.12623">
        <ele>957</ele>
        <time>2017-07-30T07:49:14Z</time>
      </trkpt>
      <trkpt lat="42.60134" lon="-0.1262">
        <ele>957.6</ele>
        <time>2017-07-30T07:49:16Z</time>
      </trkpt>
      <trkpt lat="42.60136" lon="-0.12616">
        <ele>958.3</ele>
        <time>2017-07-30T07:49:18Z</time>
      </trkpt>
      <trkpt lat="42.60139" lon="-0.12613">
        <ele>959</ele>
        <time>2017-07-30T07:49:20Z</time>
      </trkpt>
      <trkpt lat="42.60141" lon="-0.1261">
        <ele>959.7</ele>
        <time>2017-07-30T07:49:22Z</time>
      </trkpt>
      <trkpt lat="42.60144" lon="-0.12608">
        <ele>960.3</ele>
        <time>2017-07-30T07:49:24Z</time>
      </trkpt>
      <trkpt lat="42.60147" lon="-0.12607">
        <ele>961</ele>
        <time>2017-07-30T07:49:26Z</time>
      </trkpt>
      <trkpt lat="42.6015" lon="-0.12606">
        <ele>961.8</ele>
        <time>2017-07-30T07:49:28Z</time>
      </trkpt>
      <trkpt lat="42.60153" lon="-0.12605">
        <ele>962.6</ele>
        <time>2017-07-30T07:49:30Z</time>
      </trkpt>
      <trkpt lat="42.60156" lon="-0.12603">
        <ele>963.4</ele>
        <time>2017-07-30T07:49:32Z</time>
      </trkpt>
      <trkpt lat="42.60159" lon="-0.12602">
        <ele>964.1</ele>
        <time>2017-07-30T07:49:34Z</time>
      </trkpt>
      <trkpt lat="42.60162" lon="-0.12601">
        <ele>964.8</ele>
        <time>2017-07-30T07:49:36Z</time>
      </trkpt>
      <trkpt lat="42.60166" lon="-0.126">
        <ele>965.7</ele>
        <time>2017-07-30T07:49:39Z</time>
      </trkpt>
      <trkpt lat="42.60169" lon="-0.12599">
        <ele>966.5</ele>
        <time>2017-07-30T07:49:41Z</time>
      </trkpt>
      <trkpt lat="42.60172" lon="-0.12597">
        <ele>967.3</ele>
        <time>2017-07-30T07:49:43Z</time>
      </trkpt>
      <trkpt lat="42.60175" lon="-0.12596">
        <ele>968.2</ele>
        <time>2017-07-30T07:49:45Z</time>
      </trkpt>
      <trkpt lat="42.60178" lon="-0.12596">
        <ele>968.4</ele>
        <time>2017-07-30T07:49:47Z</time>
      </trkpt>
      <trkpt lat="42.60182" lon="-0.12597">
        <ele>968.7</ele>
        <time>2017-07-30T07:49:49Z</time>
      </trkpt>
      <trkpt lat="42.60185" lon="-0.12598">
        <ele>968.9</ele>
        <time>2017-07-30T07:49:51Z</time>
      </trkpt>
      <trkpt lat="42.60188" lon="-0.12599">
        <ele>969.2</ele>
        <time>2017-07-30T07:49:53Z</time>
      </trkpt>
      <trkpt lat="42.60191" lon="-0.126">
        <ele>969.5</ele>
        <time>2017-07-30T07:49:55Z</time>
      </trkpt>
      <trkpt lat="42.60195" lon="-0.126">
        <ele>969.8</ele>
        <time>2017-07-30T07:49:57Z</time>
      </trkpt>
      <trkpt lat="42.60197" lon="-0.12601">
        <ele>970</ele>
        <time>2017-07-30T07:49:59Z</time>
      </trkpt>
      <trkpt lat="42.60201" lon="-0.12602">
        <ele>970.3</ele>
        <time>2017-07-30T07:50:01Z</time>
      </trkpt>
      <trkpt lat="42.60204" lon="-0.12603">
        <ele>970.6</ele>
        <time>2017-07-30T07:50:03Z</time>
      </trkpt>
      <trkpt lat="42.60207" lon="-0.12603">
        <ele>970.9</ele>
        <time>2017-07-30T07:50:05Z</time>
      </trkpt>
      <trkpt lat="42.60211" lon="-0.12604">
        <ele>971.2</ele>
        <time>2017-07-30T07:50:07Z</time>
      </trkpt>
      <trkpt lat="42.60215" lon="-0.12604">
        <ele>971.6</ele>
        <time>2017-07-30T07:50:09Z</time>
      </trkpt>
      <trkpt lat="42.60218" lon="-0.12604">
        <ele>971.9</ele>
        <time>2017-07-30T07:50:11Z</time>
      </trkpt>
      <trkpt lat="42.60222" lon="-0.12604">
        <ele>972.2</ele>
        <time>2017-07-30T07:50:13Z</time>
      </trkpt>
      <trkpt lat="42.60225" lon="-0.12605">
        <ele>972.6</ele>
        <time>2017-07-30T07:50:15Z</time>
      </trkpt>
      <trkpt lat="42.60228" lon="-0.12604">
        <ele>972.8</ele>
        <time>2017-07-30T07:50:27Z</time>
      </trkpt>
      <trkpt lat="42.6023" lon="-0.12602">
        <ele>973.1</ele>
        <time>2017-07-30T07:51:40Z</time>
      </trkpt>
      <trkpt lat="42.60233" lon="-0.12603">
        <ele>973.4</ele>
        <time>2017-07-30T07:51:42Z</time>
      </trkpt>
      <trkpt lat="42.60237" lon="-0.12604">
        <ele>973.8</ele>
        <time>2017-07-30T07:51:44Z</time>
      </trkpt>
      <trkpt lat="42.6024" lon="-0.12605">
        <ele>974.2</ele>
        <time>2017-07-30T07:51:46Z</time>
      </trkpt>
      <trkpt lat="42.60244" lon="-0.12605">
        <ele>974.6</ele>
        <time>2017-07-30T07:51:48Z</time>
      </trkpt>
      <trkpt lat="42.60248" lon="-0.12605">
        <ele>975.1</ele>
        <time>2017-07-30T07:51:50Z</time>
      </trkpt>
      <trkpt lat="42.60251" lon="-0.12605">
        <ele>975.5</ele>
        <time>2017-07-30T07:51:52Z</time>
      </trkpt>
      <trkpt lat="42.60255" lon="-0.12605">
        <ele>976</ele>
        <time>2017-07-30T07:51:54Z</time>
      </trkpt>
      <trkpt lat="42.60258" lon="-0.12604">
        <ele>976.5</ele>
        <time>2017-07-30T07:51:56Z</time>
      </trkpt>
      <trkpt lat="42.60262" lon="-0.12604">
        <ele>977</ele>
        <time>2017-07-30T07:51:58Z</time>
      </trkpt>
      <trkpt lat="42.60266" lon="-0.12604">
        <ele>977.5</ele>
        <time>2017-07-30T07:52:00Z</time>
      </trkpt>
      <trkpt lat="42.6027" lon="-0.12604">
        <ele>978</ele>
        <time>2017-07-30T07:52:02Z</time>
      </trkpt>
      <trkpt lat="42.60273" lon="-0.12604">
        <ele>978.3</ele>
        <time>2017-07-30T07:52:04Z</time>
      </trkpt>
      <trkpt lat="42.60276" lon="-0.12605">
        <ele>978.6</ele>
        <time>2017-07-30T07:52:06Z</time>
      </trkpt>
      <trkpt lat="42.60279" lon="-0.12605">
        <ele>978.9</ele>
        <time>2017-07-30T07:52:08Z</time>
      </trkpt>
      <trkpt lat="42.60282" lon="-0.12606">
        <ele>979</ele>
        <time>2017-07-30T07:52:10Z</time>
      </trkpt>
      <trkpt lat="42.60285" lon="-0.12608">
        <ele>979.2</ele>
        <time>2017-07-30T07:52:12Z</time>
      </trkpt>
      <trkpt lat="42.60288" lon="-0.1261">
        <ele>979.4</ele>
        <time>2017-07-30T07:52:14Z</time>
      </trkpt>
      <trkpt lat="42.60291" lon="-0.12613">
        <ele>979.8</ele>
        <time>2017-07-30T07:52:16Z</time>
      </trkpt>
      <trkpt lat="42.60294" lon="-0.12616">
        <ele>980</ele>
        <time>2017-07-30T07:52:18Z</time>
      </trkpt>
      <trkpt lat="42.60296" lon="-0.12619">
        <ele>980.3</ele>
        <time>2017-07-30T07:52:20Z</time>
      </trkpt>
      <trkpt lat="42.60297" lon="-0.12622">
        <ele>980.5</ele>
        <time>2017-07-30T07:52:22Z</time>
      </trkpt>
      <trkpt lat="42.60301" lon="-0.12625">
        <ele>980.9</ele>
        <time>2017-07-30T07:52:24Z</time>
      </trkpt>
      <trkpt lat="42.60305" lon="-0.12627">
        <ele>981.3</ele>
        <time>2017-07-30T07:52:26Z</time>
      </trkpt>
      <trkpt lat="42.6031" lon="-0.12629">
        <ele>981.8</ele>
        <time>2017-07-30T07:52:28Z</time>
      </trkpt>
      <trkpt lat="42.60314" lon="-0.1263">
        <ele>982.1</ele>
        <time>2017-07-30T07:52:30Z</time>
      </trkpt>
      <trkpt lat="42.60318" lon="-0.12631">
        <ele>982.5</ele>
        <time>2017-07-30T07:52:32Z</time>
      </trkpt>
      <trkpt lat="42.60322" lon="-0.12634">
        <ele>982.8</ele>
        <time>2017-07-30T07:52:34Z</time>
      </trkpt>
      <trkpt lat="42.60326" lon="-0.12638">
        <ele>983.1</ele>
        <time>2017-07-30T07:52:36Z</time>
      </trkpt>
      <trkpt lat="42.60329" lon="-0.12643">
        <ele>983.4</ele>
        <time>2017-07-30T07:52:38Z</time>
      </trkpt>
      <trkpt lat="42.60332" lon="-0.12647">
        <ele>983.8</ele>
        <time>2017-07-30T07:52:40Z</time>
      </trkpt>
      <trkpt lat="42.60336" lon="-0.12652">
        <ele>984.1</ele>
        <time>2017-07-30T07:52:42Z</time>
      </trkpt>
      <trkpt lat="42.60339" lon="-0.12656">
        <ele>984.4</ele>
        <time>2017-07-30T07:52:44Z</time>
      </trkpt>
      <trkpt lat="42.60342" lon="-0.12659">
        <ele>984.6</ele>
        <time>2017-07-30T07:52:46Z</time>
      </trkpt>
      <trkpt lat="42.60345" lon="-0.12662">
        <ele>984.9</ele>
        <time>2017-07-30T07:52:48Z</time>
      </trkpt>
      <trkpt lat="42.60349" lon="-0.12665">
        <ele>985.1</ele>
        <time>2017-07-30T07:52:50Z</time>
      </trkpt>
      <trkpt lat="42.60352" lon="-0.12667">
        <ele>985.3</ele>
        <time>2017-07-30T07:52:52Z</time>
      </trkpt>
      <trkpt lat="42.60355" lon="-0.1267">
        <ele>985.5</ele>
        <time>2017-07-30T07:52:54Z</time>
      </trkpt>
      <trkpt lat="42.60359" lon="-0.12672">
        <ele>985.7</ele>
        <time>2017-07-30T07:52:56Z</time>
      </trkpt>
      <trkpt lat="42.60363" lon="-0.12676">
        <ele>986</ele>
        <time>2017-07-30T07:52:58Z</time>
      </trkpt>
      <trkpt lat="42.60367" lon="-0.12679">
        <ele>986.4</ele>
        <time>2017-07-30T07:53:00Z</time>
      </trkpt>
      <trkpt lat="42.6037" lon="-0.12681">
        <ele>986.6</ele>
        <time>2017-07-30T07:53:02Z</time>
      </trkpt>
      <trkpt lat="42.60374" lon="-0.12682">
        <ele>986.8</ele>
        <time>2017-07-30T07:53:04Z</time>
      </trkpt>
      <trkpt lat="42.60378" lon="-0.12684">
        <ele>987</ele>
        <time>2017-07-30T07:53:06Z</time>
      </trkpt>
      <trkpt lat="42.60381" lon="-0.12685">
        <ele>987.3</ele>
        <time>2017-07-30T07:53:08Z</time>
      </trkpt>
      <trkpt lat="42.60385" lon="-0.12687">
        <ele>987.8</ele>
        <time>2017-07-30T07:53:10Z</time>
      </trkpt>
      <trkpt lat="42.60388" lon="-0.12689">
        <ele>988.4</ele>
        <time>2017-07-30T07:53:12Z</time>
      </trkpt>
      <trkpt lat="42.60392" lon="-0.12692">
        <ele>989</ele>
        <time>2017-07-30T07:53:14Z</time>
      </trkpt>
      <trkpt lat="42.60394" lon="-0.12695">
        <ele>989.5</ele>
        <time>2017-07-30T07:53:16Z</time>
      </trkpt>
      <trkpt lat="42.60393" lon="-0.127">
        <ele>990.1</ele>
        <time>2017-07-30T07:53:18Z</time>
      </trkpt>
      <trkpt lat="42.6039" lon="-0.12703">
        <ele>990.6</ele>
        <time>2017-07-30T07:53:20Z</time>
      </trkpt>
      <trkpt lat="42.60386" lon="-0.12702">
        <ele>991.2</ele>
        <time>2017-07-30T07:53:22Z</time>
      </trkpt>
      <trkpt lat="42.60382" lon="-0.12699">
        <ele>991.7</ele>
        <time>2017-07-30T07:53:24Z</time>
      </trkpt>
      <trkpt lat="42.60379" lon="-0.12697">
        <ele>992.1</ele>
        <time>2017-07-30T07:53:26Z</time>
      </trkpt>
      <trkpt lat="42.60375" lon="-0.12696">
        <ele>992.5</ele>
        <time>2017-07-30T07:53:28Z</time>
      </trkpt>
      <trkpt lat="42.60371" lon="-0.12696">
        <ele>992.9</ele>
        <time>2017-07-30T07:53:30Z</time>
      </trkpt>
      <trkpt lat="42.60367" lon="-0.12695">
        <ele>993.2</ele>
        <time>2017-07-30T07:53:32Z</time>
      </trkpt>
      <trkpt lat="42.60364" lon="-0.12693">
        <ele>993.5</ele>
        <time>2017-07-30T07:53:34Z</time>
      </trkpt>
      <trkpt lat="42.60361" lon="-0.12691">
        <ele>993.9</ele>
        <time>2017-07-30T07:53:36Z</time>
      </trkpt>
      <trkpt lat="42.60357" lon="-0.1269">
        <ele>994.2</ele>
        <time>2017-07-30T07:53:38Z</time>
      </trkpt>
      <trkpt lat="42.60354" lon="-0.12688">
        <ele>994.5</ele>
        <time>2017-07-30T07:53:40Z</time>
      </trkpt>
      <trkpt lat="42.6035" lon="-0.12688">
        <ele>994.8</ele>
        <time>2017-07-30T07:53:42Z</time>
      </trkpt>
      <trkpt lat="42.60347" lon="-0.12687">
        <ele>995.2</ele>
        <time>2017-07-30T07:53:44Z</time>
      </trkpt>
      <trkpt lat="42.60343" lon="-0.12685">
        <ele>995.5</ele>
        <time>2017-07-30T07:53:46Z</time>
      </trkpt>
      <trkpt lat="42.6034" lon="-0.12683">
        <ele>995.9</ele>
        <time>2017-07-30T07:53:48Z</time>
      </trkpt>
      <trkpt lat="42.60337" lon="-0.12682">
        <ele>996.2</ele>
        <time>2017-07-30T07:53:50Z</time>
      </trkpt>
      <trkpt lat="42.60333" lon="-0.12682">
        <ele>996.5</ele>
        <time>2017-07-30T07:53:52Z</time>
      </trkpt>
      <trkpt lat="42.6033" lon="-0.12681">
        <ele>996.9</ele>
        <time>2017-07-30T07:53:54Z</time>
      </trkpt>
      <trkpt lat="42.60326" lon="-0.12681">
        <ele>997.4</ele>
        <time>2017-07-30T07:53:56Z</time>
      </trkpt>
      <trkpt lat="42.60322" lon="-0.1268">
        <ele>997.8</ele>
        <time>2017-07-30T07:53:58Z</time>
      </trkpt>
      <trkpt lat="42.60319" lon="-0.12679">
        <ele>998.2</ele>
        <time>2017-07-30T07:54:00Z</time>
      </trkpt>
      <trkpt lat="42.60315" lon="-0.12679">
        <ele>998.6</ele>
        <time>2017-07-30T07:54:02Z</time>
      </trkpt>
      <trkpt lat="42.60311" lon="-0.12679">
        <ele>999.1</ele>
        <time>2017-07-30T07:54:04Z</time>
      </trkpt>
      <trkpt lat="42.60308" lon="-0.12678">
        <ele>999.5</ele>
        <time>2017-07-30T07:54:06Z</time>
      </trkpt>
      <trkpt lat="42.60304" lon="-0.12678">
        <ele>999.9</ele>
        <time>2017-07-30T07:54:08Z</time>
      </trkpt>
      <trkpt lat="42.60301" lon="-0.12678">
        <ele>1000.2</ele>
        <time>2017-07-30T07:54:10Z</time>
      </trkpt>
      <trkpt lat="42.60298" lon="-0.12677">
        <ele>1000.6</ele>
        <time>2017-07-30T07:54:12Z</time>
      </trkpt>
      <trkpt lat="42.60295" lon="-0.12677">
        <ele>1001</ele>
        <time>2017-07-30T07:54:14Z</time>
      </trkpt>
      <trkpt lat="42.60292" lon="-0.12677">
        <ele>1001.3</ele>
        <time>2017-07-30T07:54:16Z</time>
      </trkpt>
      <trkpt lat="42.60289" lon="-0.12677">
        <ele>1001.7</ele>
        <time>2017-07-30T07:54:18Z</time>
      </trkpt>
      <trkpt lat="42.60286" lon="-0.12678">
        <ele>1002</ele>
        <time>2017-07-30T07:54:20Z</time>
      </trkpt>
      <trkpt lat="42.60282" lon="-0.12679">
        <ele>1002.4</ele>
        <time>2017-07-30T07:54:23Z</time>
      </trkpt>
      <trkpt lat="42.60279" lon="-0.12679">
        <ele>1002.8</ele>
        <time>2017-07-30T07:54:25Z</time>
      </trkpt>
      <trkpt lat="42.60276" lon="-0.1268">
        <ele>1003.2</ele>
        <time>2017-07-30T07:54:27Z</time>
      </trkpt>
      <trkpt lat="42.60273" lon="-0.12681">
        <ele>1003.6</ele>
        <time>2017-07-30T07:54:29Z</time>
      </trkpt>
      <trkpt lat="42.6027" lon="-0.12682">
        <ele>1004</ele>
        <time>2017-07-30T07:54:31Z</time>
      </trkpt>
      <trkpt lat="42.60267" lon="-0.12683">
        <ele>1004.4</ele>
        <time>2017-07-30T07:54:33Z</time>
      </trkpt>
      <trkpt lat="42.60264" lon="-0.12684">
        <ele>1004.9</ele>
        <time>2017-07-30T07:54:35Z</time>
      </trkpt>
      <trkpt lat="42.60261" lon="-0.12686">
        <ele>1005.4</ele>
        <time>2017-07-30T07:54:38Z</time>
      </trkpt>
      <trkpt lat="42.60258" lon="-0.12688">
        <ele>1005.9</ele>
        <time>2017-07-30T07:54:40Z</time>
      </trkpt>
      <trkpt lat="42.60256" lon="-0.1269">
        <ele>1006.3</ele>
        <time>2017-07-30T07:54:42Z</time>
      </trkpt>
      <trkpt lat="42.60253" lon="-0.12692">
        <ele>1007</ele>
        <time>2017-07-30T07:54:45Z</time>
      </trkpt>
      <trkpt lat="42.6025" lon="-0.12695">
        <ele>1007.5</ele>
        <time>2017-07-30T07:54:47Z</time>
      </trkpt>
      <trkpt lat="42.60247" lon="-0.12698">
        <ele>1008.2</ele>
        <time>2017-07-30T07:54:50Z</time>
      </trkpt>
      <trkpt lat="42.60245" lon="-0.12702">
        <ele>1008.9</ele>
        <time>2017-07-30T07:54:53Z</time>
      </trkpt>
      <trkpt lat="42.60243" lon="-0.12705">
        <ele>1009.5</ele>
        <time>2017-07-30T07:54:55Z</time>
      </trkpt>
      <trkpt lat="42.6024" lon="-0.12709">
        <ele>1010.3</ele>
        <time>2017-07-30T07:54:58Z</time>
      </trkpt>
      <trkpt lat="42.60237" lon="-0.12711">
        <ele>1010.9</ele>
        <time>2017-07-30T07:55:00Z</time>
      </trkpt>
      <trkpt lat="42.60235" lon="-0.12714">
        <ele>1011.4</ele>
        <time>2017-07-30T07:55:02Z</time>
      </trkpt>
      <trkpt lat="42.60233" lon="-0.12717">
        <ele>1011.9</ele>
        <time>2017-07-30T07:55:04Z</time>
      </trkpt>
      <trkpt lat="42.60232" lon="-0.1272">
        <ele>1012.3</ele>
        <time>2017-07-30T07:55:06Z</time>
      </trkpt>
      <trkpt lat="42.6023" lon="-0.12723">
        <ele>1012.7</ele>
        <time>2017-07-30T07:55:08Z</time>
      </trkpt>
      <trkpt lat="42.60229" lon="-0.12726">
        <ele>1013</ele>
        <time>2017-07-30T07:55:10Z</time>
      </trkpt>
      <trkpt lat="42.60227" lon="-0.12729">
        <ele>1013.3</ele>
        <time>2017-07-30T07:55:12Z</time>
      </trkpt>
      <trkpt lat="42.60225" lon="-0.12732">
        <ele>1013.7</ele>
        <time>2017-07-30T07:55:14Z</time>
      </trkpt>
      <trkpt lat="42.60222" lon="-0.12734">
        <ele>1014</ele>
        <time>2017-07-30T07:55:16Z</time>
      </trkpt>
      <trkpt lat="42.6022" lon="-0.12736">
        <ele>1014.2</ele>
        <time>2017-07-30T07:55:18Z</time>
      </trkpt>
      <trkpt lat="42.60217" lon="-0.12739">
        <ele>1014.5</ele>
        <time>2017-07-30T07:55:20Z</time>
      </trkpt>
      <trkpt lat="42.60215" lon="-0.12741">
        <ele>1014.8</ele>
        <time>2017-07-30T07:55:22Z</time>
      </trkpt>
      <trkpt lat="42.60212" lon="-0.12744">
        <ele>1015.2</ele>
        <time>2017-07-30T07:55:25Z</time>
      </trkpt>
      <trkpt lat="42.6021" lon="-0.12747">
        <ele>1015.4</ele>
        <time>2017-07-30T07:55:27Z</time>
      </trkpt>
      <trkpt lat="42.60208" lon="-0.12751">
        <ele>1015.6</ele>
        <time>2017-07-30T07:55:29Z</time>
      </trkpt>
      <trkpt lat="42.60207" lon="-0.12755">
        <ele>1015.8</ele>
        <time>2017-07-30T07:55:31Z</time>
      </trkpt>
      <trkpt lat="42.60206" lon="-0.1276">
        <ele>1016.2</ele>
        <time>2017-07-30T07:55:33Z</time>
      </trkpt>
      <trkpt lat="42.60204" lon="-0.12765">
        <ele>1016.7</ele>
        <time>2017-07-30T07:55:35Z</time>
      </trkpt>
      <trkpt lat="42.60202" lon="-0.12769">
        <ele>1017.2</ele>
        <time>2017-07-30T07:55:37Z</time>
      </trkpt>
      <trkpt lat="42.60199" lon="-0.12772">
        <ele>1017.7</ele>
        <time>2017-07-30T07:55:39Z</time>
      </trkpt>
      <trkpt lat="42.60197" lon="-0.12776">
        <ele>1018</ele>
        <time>2017-07-30T07:55:41Z</time>
      </trkpt>
      <trkpt lat="42.60194" lon="-0.12779">
        <ele>1018.4</ele>
        <time>2017-07-30T07:55:43Z</time>
      </trkpt>
      <trkpt lat="42.60192" lon="-0.12783">
        <ele>1018.9</ele>
        <time>2017-07-30T07:55:45Z</time>
      </trkpt>
      <trkpt lat="42.6019" lon="-0.12788">
        <ele>1019.4</ele>
        <time>2017-07-30T07:55:47Z</time>
      </trkpt>
      <trkpt lat="42.6019" lon="-0.12794">
        <ele>1020</ele>
        <time>2017-07-30T07:55:49Z</time>
      </trkpt>
      <trkpt lat="42.6019" lon="-0.12799">
        <ele>1020.5</ele>
        <time>2017-07-30T07:55:51Z</time>
      </trkpt>
      <trkpt lat="42.60191" lon="-0.12803">
        <ele>1021</ele>
        <time>2017-07-30T07:55:53Z</time>
      </trkpt>
      <trkpt lat="42.60192" lon="-0.12807">
        <ele>1021.4</ele>
        <time>2017-07-30T07:55:55Z</time>
      </trkpt>
      <trkpt lat="42.60193" lon="-0.12811">
        <ele>1021.8</ele>
        <time>2017-07-30T07:55:57Z</time>
      </trkpt>
      <trkpt lat="42.60194" lon="-0.12815">
        <ele>1022.2</ele>
        <time>2017-07-30T07:55:59Z</time>
      </trkpt>
      <trkpt lat="42.60196" lon="-0.12819">
        <ele>1022.6</ele>
        <time>2017-07-30T07:56:01Z</time>
      </trkpt>
      <trkpt lat="42.60197" lon="-0.12822">
        <ele>1022.9</ele>
        <time>2017-07-30T07:56:03Z</time>
      </trkpt>
      <trkpt lat="42.60198" lon="-0.12826">
        <ele>1023.3</ele>
        <time>2017-07-30T07:56:05Z</time>
      </trkpt>
      <trkpt lat="42.60199" lon="-0.12829">
        <ele>1023.6</ele>
        <time>2017-07-30T07:56:07Z</time>
      </trkpt>
      <trkpt lat="42.602" lon="-0.12833">
        <ele>1023.9</ele>
        <time>2017-07-30T07:56:09Z</time>
      </trkpt>
      <trkpt lat="42.60201" lon="-0.12837">
        <ele>1024.3</ele>
        <time>2017-07-30T07:56:11Z</time>
      </trkpt>
      <trkpt lat="42.60202" lon="-0.12841">
        <ele>1024.5</ele>
        <time>2017-07-30T07:56:13Z</time>
      </trkpt>
      <trkpt lat="42.60202" lon="-0.12845">
        <ele>1024.8</ele>
        <time>2017-07-30T07:56:15Z</time>
      </trkpt>
      <trkpt lat="42.60203" lon="-0.12848">
        <ele>1025.1</ele>
        <time>2017-07-30T07:56:17Z</time>
      </trkpt>
      <trkpt lat="42.60203" lon="-0.12853">
        <ele>1025.4</ele>
        <time>2017-07-30T07:56:19Z</time>
      </trkpt>
      <trkpt lat="42.60204" lon="-0.12857">
        <ele>1025.7</ele>
        <time>2017-07-30T07:56:21Z</time>
      </trkpt>
      <trkpt lat="42.60204" lon="-0.12861">
        <ele>1025.9</ele>
        <time>2017-07-30T07:56:23Z</time>
      </trkpt>
      <trkpt lat="42.60204" lon="-0.12865">
        <ele>1026</ele>
        <time>2017-07-30T07:56:25Z</time>
      </trkpt>
      <trkpt lat="42.60203" lon="-0.12869">
        <ele>1026.2</ele>
        <time>2017-07-30T07:56:27Z</time>
      </trkpt>
      <trkpt lat="42.60201" lon="-0.12872">
        <ele>1026.4</ele>
        <time>2017-07-30T07:56:29Z</time>
      </trkpt>
      <trkpt lat="42.60199" lon="-0.12875">
        <ele>1026.7</ele>
        <time>2017-07-30T07:56:31Z</time>
      </trkpt>
      <trkpt lat="42.60195" lon="-0.12876">
        <ele>1027</ele>
        <time>2017-07-30T07:56:33Z</time>
      </trkpt>
      <trkpt lat="42.60192" lon="-0.12876">
        <ele>1027.4</ele>
        <time>2017-07-30T07:56:35Z</time>
      </trkpt>
      <trkpt lat="42.60189" lon="-0.12876">
        <ele>1027.7</ele>
        <time>2017-07-30T07:56:37Z</time>
      </trkpt>
      <trkpt lat="42.60186" lon="-0.12876">
        <ele>1028.2</ele>
        <time>2017-07-30T07:56:39Z</time>
      </trkpt>
      <trkpt lat="42.60183" lon="-0.12877">
        <ele>1028.7</ele>
        <time>2017-07-30T07:56:41Z</time>
      </trkpt>
      <trkpt lat="42.6018" lon="-0.12879">
        <ele>1029.1</ele>
        <time>2017-07-30T07:56:43Z</time>
      </trkpt>
      <trkpt lat="42.60179" lon="-0.12884">
        <ele>1029.7</ele>
        <time>2017-07-30T07:56:46Z</time>
      </trkpt>
      <trkpt lat="42.6018" lon="-0.12889">
        <ele>1030</ele>
        <time>2017-07-30T07:56:48Z</time>
      </trkpt>
      <trkpt lat="42.60181" lon="-0.12893">
        <ele>1030.1</ele>
        <time>2017-07-30T07:56:50Z</time>
      </trkpt>
      <trkpt lat="42.60183" lon="-0.12896">
        <ele>1030.1</ele>
        <time>2017-07-30T07:56:52Z</time>
      </trkpt>
      <trkpt lat="42.60185" lon="-0.12899">
        <ele>1030.1</ele>
        <time>2017-07-30T07:56:54Z</time>
      </trkpt>
      <trkpt lat="42.60188" lon="-0.12901">
        <ele>1030.2</ele>
        <time>2017-07-30T07:56:56Z</time>
      </trkpt>
      <trkpt lat="42.6019" lon="-0.12903">
        <ele>1030.2</ele>
        <time>2017-07-30T07:56:58Z</time>
      </trkpt>
      <trkpt lat="42.60193" lon="-0.12906">
        <ele>1030.2</ele>
        <time>2017-07-30T07:57:01Z</time>
      </trkpt>
      <trkpt lat="42.60195" lon="-0.12909">
        <ele>1030.3</ele>
        <time>2017-07-30T07:57:03Z</time>
      </trkpt>
      <trkpt lat="42.60198" lon="-0.12911">
        <ele>1030.3</ele>
        <time>2017-07-30T07:57:05Z</time>
      </trkpt>
      <trkpt lat="42.60201" lon="-0.12914">
        <ele>1030.3</ele>
        <time>2017-07-30T07:57:07Z</time>
      </trkpt>
      <trkpt lat="42.60204" lon="-0.12916">
        <ele>1030.3</ele>
        <time>2017-07-30T07:57:09Z</time>
      </trkpt>
      <trkpt lat="42.60206" lon="-0.12919">
        <ele>1030.3</ele>
        <time>2017-07-30T07:57:11Z</time>
      </trkpt>
      <trkpt lat="42.60208" lon="-0.12922">
        <ele>1030.3</ele>
        <time>2017-07-30T07:57:13Z</time>
      </trkpt>
      <trkpt lat="42.6021" lon="-0.12924">
        <ele>1030.3</ele>
        <time>2017-07-30T07:57:15Z</time>
      </trkpt>
      <trkpt lat="42.60212" lon="-0.12926">
        <ele>1030.3</ele>
        <time>2017-07-30T07:57:17Z</time>
      </trkpt>
      <trkpt lat="42.60215" lon="-0.12927">
        <ele>1030.3</ele>
        <time>2017-07-30T07:57:19Z</time>
      </trkpt>
      <trkpt lat="42.60218" lon="-0.12929">
        <ele>1030.3</ele>
        <time>2017-07-30T07:57:21Z</time>
      </trkpt>
      <trkpt lat="42.60221" lon="-0.1293">
        <ele>1030.3</ele>
        <time>2017-07-30T07:57:23Z</time>
      </trkpt>
      <trkpt lat="42.60223" lon="-0.12931">
        <ele>1030.3</ele>
        <time>2017-07-30T07:57:25Z</time>
      </trkpt>
      <trkpt lat="42.60226" lon="-0.12932">
        <ele>1030.2</ele>
        <time>2017-07-30T07:57:27Z</time>
      </trkpt>
      <trkpt lat="42.6023" lon="-0.12935">
        <ele>1030.2</ele>
        <time>2017-07-30T07:57:30Z</time>
      </trkpt>
      <trkpt lat="42.60232" lon="-0.12935">
        <ele>1030.2</ele>
        <time>2017-07-30T07:57:32Z</time>
      </trkpt>
      <trkpt lat="42.60236" lon="-0.12934">
        <ele>1030.1</ele>
        <time>2017-07-30T07:57:35Z</time>
      </trkpt>
      <trkpt lat="42.6024" lon="-0.12931">
        <ele>1030.1</ele>
        <time>2017-07-30T07:57:38Z</time>
      </trkpt>
      <trkpt lat="42.60242" lon="-0.12928">
        <ele>1030</ele>
        <time>2017-07-30T07:57:40Z</time>
      </trkpt>
      <trkpt lat="42.60243" lon="-0.12925">
        <ele>1030</ele>
        <time>2017-07-30T07:57:42Z</time>
      </trkpt>
      <trkpt lat="42.60246" lon="-0.12921">
        <ele>1030</ele>
        <time>2017-07-30T07:57:45Z</time>
      </trkpt>
      <trkpt lat="42.60247" lon="-0.12917">
        <ele>1030</ele>
        <time>2017-07-30T07:57:48Z</time>
      </trkpt>
      <trkpt lat="42.60249" lon="-0.12912">
        <ele>1030.5</ele>
        <time>2017-07-30T07:57:51Z</time>
      </trkpt>
      <trkpt lat="42.60251" lon="-0.12908">
        <ele>1030.9</ele>
        <time>2017-07-30T07:57:53Z</time>
      </trkpt>
      <trkpt lat="42.60252" lon="-0.12905">
        <ele>1031.3</ele>
        <time>2017-07-30T07:57:55Z</time>
      </trkpt>
      <trkpt lat="42.60254" lon="-0.12901">
        <ele>1031.7</ele>
        <time>2017-07-30T07:57:57Z</time>
      </trkpt>
      <trkpt lat="42.60255" lon="-0.12898">
        <ele>1032.1</ele>
        <time>2017-07-30T07:57:59Z</time>
      </trkpt>
      <trkpt lat="42.60256" lon="-0.12895">
        <ele>1032.4</ele>
        <time>2017-07-30T07:58:01Z</time>
      </trkpt>
      <trkpt lat="42.60258" lon="-0.12891">
        <ele>1032.8</ele>
        <time>2017-07-30T07:58:03Z</time>
      </trkpt>
      <trkpt lat="42.60259" lon="-0.12887">
        <ele>1033.2</ele>
        <time>2017-07-30T07:58:05Z</time>
      </trkpt>
      <trkpt lat="42.60261" lon="-0.12884">
        <ele>1033.7</ele>
        <time>2017-07-30T07:58:07Z</time>
      </trkpt>
      <trkpt lat="42.60262" lon="-0.1288">
        <ele>1034.1</ele>
        <time>2017-07-30T07:58:09Z</time>
      </trkpt>
      <trkpt lat="42.60264" lon="-0.12877">
        <ele>1034.5</ele>
        <time>2017-07-30T07:58:11Z</time>
      </trkpt>
      <trkpt lat="42.60267" lon="-0.12872">
        <ele>1035</ele>
        <time>2017-07-30T07:58:14Z</time>
      </trkpt>
      <trkpt lat="42.60269" lon="-0.1287">
        <ele>1035.4</ele>
        <time>2017-07-30T07:58:16Z</time>
      </trkpt>
      <trkpt lat="42.6027" lon="-0.12866">
        <ele>1035.8</ele>
        <time>2017-07-30T07:58:18Z</time>
      </trkpt>
      <trkpt lat="42.60271" lon="-0.12862">
        <ele>1036.2</ele>
        <time>2017-07-30T07:58:20Z</time>
      </trkpt>
      <trkpt lat="42.60272" lon="-0.12858">
        <ele>1036.6</ele>
        <time>2017-07-30T07:58:22Z</time>
      </trkpt>
      <trkpt lat="42.60273" lon="-0.12855">
        <ele>1037</ele>
        <time>2017-07-30T07:58:24Z</time>
      </trkpt>
      <trkpt lat="42.60274" lon="-0.1285">
        <ele>1037.6</ele>
        <time>2017-07-30T07:58:27Z</time>
      </trkpt>
      <trkpt lat="42.60275" lon="-0.12846">
        <ele>1038</ele>
        <time>2017-07-30T07:58:29Z</time>
      </trkpt>
      <trkpt lat="42.60277" lon="-0.12843">
        <ele>1038.4</ele>
        <time>2017-07-30T07:58:31Z</time>
      </trkpt>
      <trkpt lat="42.60278" lon="-0.12839">
        <ele>1038.9</ele>
        <time>2017-07-30T07:58:33Z</time>
      </trkpt>
      <trkpt lat="42.60279" lon="-0.12835">
        <ele>1039.4</ele>
        <time>2017-07-30T07:58:35Z</time>
      </trkpt>
      <trkpt lat="42.6028" lon="-0.12831">
        <ele>1040</ele>
        <time>2017-07-30T07:58:37Z</time>
      </trkpt>
      <trkpt lat="42.60281" lon="-0.12827">
        <ele>1040.7</ele>
        <time>2017-07-30T07:58:39Z</time>
      </trkpt>
      <trkpt lat="42.60281" lon="-0.12823">
        <ele>1041.4</ele>
        <time>2017-07-30T07:58:41Z</time>
      </trkpt>
      <trkpt lat="42.60281" lon="-0.1282">
        <ele>1042.2</ele>
        <time>2017-07-30T07:58:43Z</time>
      </trkpt>
      <trkpt lat="42.60282" lon="-0.12816">
        <ele>1043.1</ele>
        <time>2017-07-30T07:58:45Z</time>
      </trkpt>
      <trkpt lat="42.60282" lon="-0.12812">
        <ele>1044.1</ele>
        <time>2017-07-30T07:58:47Z</time>
      </trkpt>
      <trkpt lat="42.60284" lon="-0.12808">
        <ele>1045</ele>
        <time>2017-07-30T07:58:49Z</time>
      </trkpt>
      <trkpt lat="42.60286" lon="-0.12806">
        <ele>1045.9</ele>
        <time>2017-07-30T07:58:51Z</time>
      </trkpt>
      <trkpt lat="42.60289" lon="-0.12805">
        <ele>1047.2</ele>
        <time>2017-07-30T07:58:53Z</time>
      </trkpt>
      <trkpt lat="42.60293" lon="-0.12807">
        <ele>1048.5</ele>
        <time>2017-07-30T07:58:55Z</time>
      </trkpt>
      <trkpt lat="42.60296" lon="-0.1281">
        <ele>1049.6</ele>
        <time>2017-07-30T07:58:57Z</time>
      </trkpt>
      <trkpt lat="42.60298" lon="-0.12814">
        <ele>1050.6</ele>
        <time>2017-07-30T07:58:59Z</time>
      </trkpt>
      <trkpt lat="42.603" lon="-0.12818">
        <ele>1051.4</ele>
        <time>2017-07-30T07:59:01Z</time>
      </trkpt>
      <trkpt lat="42.60301" lon="-0.12822">
        <ele>1052.3</ele>
        <time>2017-07-30T07:59:03Z</time>
      </trkpt>
      <trkpt lat="42.60303" lon="-0.12826">
        <ele>1052.9</ele>
        <time>2017-07-30T07:59:05Z</time>
      </trkpt>
      <trkpt lat="42.60304" lon="-0.12829">
        <ele>1053.5</ele>
        <time>2017-07-30T07:59:07Z</time>
      </trkpt>
      <trkpt lat="42.60305" lon="-0.12833">
        <ele>1054</ele>
        <time>2017-07-30T07:59:09Z</time>
      </trkpt>
      <trkpt lat="42.60307" lon="-0.12837">
        <ele>1054.7</ele>
        <time>2017-07-30T07:59:12Z</time>
      </trkpt>
      <trkpt lat="42.60308" lon="-0.1284">
        <ele>1055.2</ele>
        <time>2017-07-30T07:59:14Z</time>
      </trkpt>
      <trkpt lat="42.6031" lon="-0.12843">
        <ele>1055.7</ele>
        <time>2017-07-30T07:59:16Z</time>
      </trkpt>
      <trkpt lat="42.60313" lon="-0.12846">
        <ele>1056.2</ele>
        <time>2017-07-30T07:59:18Z</time>
      </trkpt>
      <trkpt lat="42.60316" lon="-0.12849">
        <ele>1056.8</ele>
        <time>2017-07-30T07:59:20Z</time>
      </trkpt>
      <trkpt lat="42.60317" lon="-0.12852">
        <ele>1057.2</ele>
        <time>2017-07-30T07:59:22Z</time>
      </trkpt>
      <trkpt lat="42.60319" lon="-0.12856">
        <ele>1057.7</ele>
        <time>2017-07-30T07:59:24Z</time>
      </trkpt>
      <trkpt lat="42.6032" lon="-0.12861">
        <ele>1058.1</ele>
        <time>2017-07-30T07:59:26Z</time>
      </trkpt>
      <trkpt lat="42.60321" lon="-0.12865">
        <ele>1058.5</ele>
        <time>2017-07-30T07:59:28Z</time>
      </trkpt>
      <trkpt lat="42.60323" lon="-0.12869">
        <ele>1058.8</ele>
        <time>2017-07-30T07:59:30Z</time>
      </trkpt>
      <trkpt lat="42.60324" lon="-0.12872">
        <ele>1059.2</ele>
        <time>2017-07-30T07:59:32Z</time>
      </trkpt>
      <trkpt lat="42.60325" lon="-0.12877">
        <ele>1059.6</ele>
        <time>2017-07-30T07:59:34Z</time>
      </trkpt>
      <trkpt lat="42.60326" lon="-0.1288">
        <ele>1059.9</ele>
        <time>2017-07-30T07:59:36Z</time>
      </trkpt>
      <trkpt lat="42.60326" lon="-0.12884">
        <ele>1060.2</ele>
        <time>2017-07-30T07:59:39Z</time>
      </trkpt>
      <trkpt lat="42.60326" lon="-0.1289">
        <ele>1060.6</ele>
        <time>2017-07-30T07:59:42Z</time>
      </trkpt>
      <trkpt lat="42.60326" lon="-0.12895">
        <ele>1061</ele>
        <time>2017-07-30T07:59:45Z</time>
      </trkpt>
      <trkpt lat="42.60329" lon="-0.129">
        <ele>1061.5</ele>
        <time>2017-07-30T07:59:48Z</time>
      </trkpt>
      <trkpt lat="42.60331" lon="-0.12906">
        <ele>1061.9</ele>
        <time>2017-07-30T07:59:50Z</time>
      </trkpt>
      <trkpt lat="42.60333" lon="-0.12911">
        <ele>1062.4</ele>
        <time>2017-07-30T07:59:52Z</time>
      </trkpt>
      <trkpt lat="42.60335" lon="-0.12916">
        <ele>1062.8</ele>
        <time>2017-07-30T07:59:54Z</time>
      </trkpt>
      <trkpt lat="42.60336" lon="-0.1292">
        <ele>1063.1</ele>
        <time>2017-07-30T07:59:56Z</time>
      </trkpt>
      <trkpt lat="42.60337" lon="-0.12924">
        <ele>1063.4</ele>
        <time>2017-07-30T07:59:58Z</time>
      </trkpt>
      <trkpt lat="42.60339" lon="-0.12928">
        <ele>1063.7</ele>
        <time>2017-07-30T08:00:00Z</time>
      </trkpt>
      <trkpt lat="42.60341" lon="-0.12932">
        <ele>1064.1</ele>
        <time>2017-07-30T08:00:02Z</time>
      </trkpt>
      <trkpt lat="42.60343" lon="-0.12936">
        <ele>1064.4</ele>
        <time>2017-07-30T08:00:04Z</time>
      </trkpt>
      <trkpt lat="42.60345" lon="-0.12941">
        <ele>1064.8</ele>
        <time>2017-07-30T08:00:06Z</time>
      </trkpt>
      <trkpt lat="42.60346" lon="-0.12945">
        <ele>1065.1</ele>
        <time>2017-07-30T08:00:08Z</time>
      </trkpt>
      <trkpt lat="42.60348" lon="-0.12948">
        <ele>1065.4</ele>
        <time>2017-07-30T08:00:10Z</time>
      </trkpt>
      <trkpt lat="42.60349" lon="-0.12953">
        <ele>1065.7</ele>
        <time>2017-07-30T08:00:12Z</time>
      </trkpt>
      <trkpt lat="42.60351" lon="-0.12958">
        <ele>1066.1</ele>
        <time>2017-07-30T08:00:14Z</time>
      </trkpt>
      <trkpt lat="42.60353" lon="-0.12963">
        <ele>1066.5</ele>
        <time>2017-07-30T08:00:16Z</time>
      </trkpt>
      <trkpt lat="42.60354" lon="-0.12968">
        <ele>1066.9</ele>
        <time>2017-07-30T08:00:18Z</time>
      </trkpt>
      <trkpt lat="42.60354" lon="-0.12972">
        <ele>1067.1</ele>
        <time>2017-07-30T08:00:20Z</time>
      </trkpt>
      <trkpt lat="42.60355" lon="-0.12976">
        <ele>1067.4</ele>
        <time>2017-07-30T08:00:22Z</time>
      </trkpt>
      <trkpt lat="42.60356" lon="-0.12981">
        <ele>1067.8</ele>
        <time>2017-07-30T08:00:25Z</time>
      </trkpt>
      <trkpt lat="42.60357" lon="-0.12987">
        <ele>1068.2</ele>
        <time>2017-07-30T08:00:28Z</time>
      </trkpt>
      <trkpt lat="42.60358" lon="-0.12992">
        <ele>1068.6</ele>
        <time>2017-07-30T08:00:30Z</time>
      </trkpt>
      <trkpt lat="42.6036" lon="-0.12997">
        <ele>1069.1</ele>
        <time>2017-07-30T08:00:32Z</time>
      </trkpt>
      <trkpt lat="42.60362" lon="-0.13003">
        <ele>1069.6</ele>
        <time>2017-07-30T08:00:34Z</time>
      </trkpt>
      <trkpt lat="42.60364" lon="-0.13008">
        <ele>1070.1</ele>
        <time>2017-07-30T08:00:36Z</time>
      </trkpt>
      <trkpt lat="42.60365" lon="-0.13013">
        <ele>1070.5</ele>
        <time>2017-07-30T08:00:38Z</time>
      </trkpt>
      <trkpt lat="42.60367" lon="-0.13018">
        <ele>1070.9</ele>
        <time>2017-07-30T08:00:40Z</time>
      </trkpt>
      <trkpt lat="42.60368" lon="-0.13023">
        <ele>1071.4</ele>
        <time>2017-07-30T08:00:42Z</time>
      </trkpt>
      <trkpt lat="42.60369" lon="-0.13027">
        <ele>1071.8</ele>
        <time>2017-07-30T08:00:44Z</time>
      </trkpt>
      <trkpt lat="42.60369" lon="-0.13031">
        <ele>1072.2</ele>
        <time>2017-07-30T08:00:46Z</time>
      </trkpt>
      <trkpt lat="42.6037" lon="-0.13036">
        <ele>1072.7</ele>
        <time>2017-07-30T08:00:48Z</time>
      </trkpt>
      <trkpt lat="42.6037" lon="-0.13041">
        <ele>1073.2</ele>
        <time>2017-07-30T08:00:50Z</time>
      </trkpt>
      <trkpt lat="42.6037" lon="-0.13046">
        <ele>1073.7</ele>
        <time>2017-07-30T08:00:52Z</time>
      </trkpt>
      <trkpt lat="42.6037" lon="-0.13051">
        <ele>1074.2</ele>
        <time>2017-07-30T08:00:54Z</time>
      </trkpt>
      <trkpt lat="42.6037" lon="-0.13056">
        <ele>1074.7</ele>
        <time>2017-07-30T08:00:56Z</time>
      </trkpt>
      <trkpt lat="42.6037" lon="-0.13062">
        <ele>1075.3</ele>
        <time>2017-07-30T08:00:58Z</time>
      </trkpt>
      <trkpt lat="42.60371" lon="-0.13069">
        <ele>1076.2</ele>
        <time>2017-07-30T08:01:00Z</time>
      </trkpt>
      <trkpt lat="42.60372" lon="-0.13073">
        <ele>1076.4</ele>
        <time>2017-07-30T08:01:01Z</time>
      </trkpt>
      <trkpt lat="42.60373" lon="-0.13077">
        <ele>1076.6</ele>
        <time>2017-07-30T08:01:02Z</time>
      </trkpt>
      <trkpt lat="42.60373" lon="-0.13082">
        <ele>1076.8</ele>
        <time>2017-07-30T08:01:03Z</time>
      </trkpt>
      <trkpt lat="42.60374" lon="-0.13086">
        <ele>1077</ele>
        <time>2017-07-30T08:01:04Z</time>
      </trkpt>
      <trkpt lat="42.60375" lon="-0.1309">
        <ele>1077.2</ele>
        <time>2017-07-30T08:01:05Z</time>
      </trkpt>
      <trkpt lat="42.60376" lon="-0.13094">
        <ele>1077.4</ele>
        <time>2017-07-30T08:01:06Z</time>
      </trkpt>
      <trkpt lat="42.60377" lon="-0.13098">
        <ele>1077.6</ele>
        <time>2017-07-30T08:01:07Z</time>
      </trkpt>
      <trkpt lat="42.60377" lon="-0.13105">
        <ele>1077.9</ele>
        <time>2017-07-30T08:01:09Z</time>
      </trkpt>
      <trkpt lat="42.60378" lon="-0.1311">
        <ele>1078</ele>
        <time>2017-07-30T08:01:11Z</time>
      </trkpt>
      <trkpt lat="42.60377" lon="-0.13115">
        <ele>1078</ele>
        <time>2017-07-30T08:01:13Z</time>
      </trkpt>
      <trkpt lat="42.60377" lon="-0.1312">
        <ele>1078</ele>
        <time>2017-07-30T08:01:15Z</time>
      </trkpt>
      <trkpt lat="42.60376" lon="-0.13123">
        <ele>1078.2</ele>
        <time>2017-07-30T08:01:17Z</time>
      </trkpt>
      <trkpt lat="42.60376" lon="-0.13127">
        <ele>1078.3</ele>
        <time>2017-07-30T08:01:19Z</time>
      </trkpt>
      <trkpt lat="42.60375" lon="-0.13131">
        <ele>1078.2</ele>
        <time>2017-07-30T08:01:21Z</time>
      </trkpt>
      <trkpt lat="42.60375" lon="-0.13135">
        <ele>1078.1</ele>
        <time>2017-07-30T08:01:23Z</time>
      </trkpt>
      <trkpt lat="42.60375" lon="-0.13139">
        <ele>1078.5</ele>
        <time>2017-07-30T08:01:25Z</time>
      </trkpt>
      <trkpt lat="42.60376" lon="-0.13144">
        <ele>1079.1</ele>
        <time>2017-07-30T08:01:27Z</time>
      </trkpt>
      <trkpt lat="42.60377" lon="-0.13148">
        <ele>1079.7</ele>
        <time>2017-07-30T08:01:29Z</time>
      </trkpt>
      <trkpt lat="42.60378" lon="-0.13152">
        <ele>1080.3</ele>
        <time>2017-07-30T08:01:31Z</time>
      </trkpt>
      <trkpt lat="42.60378" lon="-0.13157">
        <ele>1080.9</ele>
        <time>2017-07-30T08:01:33Z</time>
      </trkpt>
      <trkpt lat="42.60378" lon="-0.13161">
        <ele>1081.5</ele>
        <time>2017-07-30T08:01:35Z</time>
      </trkpt>
      <trkpt lat="42.60378" lon="-0.13165">
        <ele>1082</ele>
        <time>2017-07-30T08:01:37Z</time>
      </trkpt>
      <trkpt lat="42.60378" lon="-0.13169">
        <ele>1082.5</ele>
        <time>2017-07-30T08:01:39Z</time>
      </trkpt>
      <trkpt lat="42.60378" lon="-0.13173">
        <ele>1083</ele>
        <time>2017-07-30T08:01:41Z</time>
      </trkpt>
      <trkpt lat="42.60378" lon="-0.13177">
        <ele>1083.6</ele>
        <time>2017-07-30T08:01:43Z</time>
      </trkpt>
      <trkpt lat="42.60379" lon="-0.13181">
        <ele>1084.8</ele>
        <time>2017-07-30T08:01:45Z</time>
      </trkpt>
      <trkpt lat="42.6038" lon="-0.13185">
        <ele>1086</ele>
        <time>2017-07-30T08:01:47Z</time>
      </trkpt>
      <trkpt lat="42.60381" lon="-0.13188">
        <ele>1086.9</ele>
        <time>2017-07-30T08:01:49Z</time>
      </trkpt>
      <trkpt lat="42.60382" lon="-0.13192">
        <ele>1087.6</ele>
        <time>2017-07-30T08:01:51Z</time>
      </trkpt>
      <trkpt lat="42.60383" lon="-0.13196">
        <ele>1088.3</ele>
        <time>2017-07-30T08:01:53Z</time>
      </trkpt>
      <trkpt lat="42.60384" lon="-0.13199">
        <ele>1089.5</ele>
        <time>2017-07-30T08:01:55Z</time>
      </trkpt>
      <trkpt lat="42.60386" lon="-0.13203">
        <ele>1090.7</ele>
        <time>2017-07-30T08:01:57Z</time>
      </trkpt>
      <trkpt lat="42.60387" lon="-0.13208">
        <ele>1092</ele>
        <time>2017-07-30T08:02:00Z</time>
      </trkpt>
      <trkpt lat="42.60388" lon="-0.13211">
        <ele>1092.9</ele>
        <time>2017-07-30T08:02:02Z</time>
      </trkpt>
      <trkpt lat="42.6039" lon="-0.13215">
        <ele>1093.8</ele>
        <time>2017-07-30T08:02:04Z</time>
      </trkpt>
      <trkpt lat="42.60391" lon="-0.13219">
        <ele>1094.5</ele>
        <time>2017-07-30T08:02:06Z</time>
      </trkpt>
      <trkpt lat="42.60392" lon="-0.13222">
        <ele>1095.3</ele>
        <time>2017-07-30T08:02:08Z</time>
      </trkpt>
      <trkpt lat="42.60393" lon="-0.13226">
        <ele>1096.3</ele>
        <time>2017-07-30T08:02:10Z</time>
      </trkpt>
      <trkpt lat="42.60395" lon="-0.13231">
        <ele>1097.4</ele>
        <time>2017-07-30T08:02:12Z</time>
      </trkpt>
      <trkpt lat="42.60397" lon="-0.13234">
        <ele>1098.4</ele>
        <time>2017-07-30T08:02:14Z</time>
      </trkpt>
      <trkpt lat="42.604" lon="-0.13238">
        <ele>1099.4</ele>
        <time>2017-07-30T08:02:16Z</time>
      </trkpt>
      <trkpt lat="42.60403" lon="-0.13243">
        <ele>1100.5</ele>
        <time>2017-07-30T08:02:18Z</time>
      </trkpt>
      <trkpt lat="42.60405" lon="-0.13247">
        <ele>1101.1</ele>
        <time>2017-07-30T08:02:20Z</time>
      </trkpt>
      <trkpt lat="42.60407" lon="-0.13252">
        <ele>1101.5</ele>
        <time>2017-07-30T08:02:22Z</time>
      </trkpt>
      <trkpt lat="42.60409" lon="-0.13256">
        <ele>1102.5</ele>
        <time>2017-07-30T08:02:24Z</time>
      </trkpt>
      <trkpt lat="42.60411" lon="-0.13259">
        <ele>1103.4</ele>
        <time>2017-07-30T08:02:26Z</time>
      </trkpt>
      <trkpt lat="42.60413" lon="-0.13262">
        <ele>1104.3</ele>
        <time>2017-07-30T08:02:28Z</time>
      </trkpt>
      <trkpt lat="42.60415" lon="-0.13264">
        <ele>1105.3</ele>
        <time>2017-07-30T08:02:30Z</time>
      </trkpt>
      <trkpt lat="42.60418" lon="-0.13267">
        <ele>1106.3</ele>
        <time>2017-07-30T08:02:32Z</time>
      </trkpt>
      <trkpt lat="42.6042" lon="-0.1327">
        <ele>1107.1</ele>
        <time>2017-07-30T08:02:34Z</time>
      </trkpt>
      <trkpt lat="42.60422" lon="-0.13272">
        <ele>1107.9</ele>
        <time>2017-07-30T08:02:36Z</time>
      </trkpt>
      <trkpt lat="42.60424" lon="-0.13275">
        <ele>1108.5</ele>
        <time>2017-07-30T08:02:38Z</time>
      </trkpt>
      <trkpt lat="42.60427" lon="-0.13277">
        <ele>1108.8</ele>
        <time>2017-07-30T08:02:40Z</time>
      </trkpt>
      <trkpt lat="42.60429" lon="-0.1328">
        <ele>1109.2</ele>
        <time>2017-07-30T08:02:42Z</time>
      </trkpt>
      <trkpt lat="42.60431" lon="-0.13282">
        <ele>1109.6</ele>
        <time>2017-07-30T08:02:44Z</time>
      </trkpt>
      <trkpt lat="42.60434" lon="-0.13285">
        <ele>1110.2</ele>
        <time>2017-07-30T08:02:46Z</time>
      </trkpt>
      <trkpt lat="42.60437" lon="-0.13287">
        <ele>1110.9</ele>
        <time>2017-07-30T08:02:48Z</time>
      </trkpt>
      <trkpt lat="42.6044" lon="-0.13289">
        <ele>1111.9</ele>
        <time>2017-07-30T08:02:50Z</time>
      </trkpt>
      <trkpt lat="42.60443" lon="-0.13292">
        <ele>1112.6</ele>
        <time>2017-07-30T08:02:52Z</time>
      </trkpt>
      <trkpt lat="42.60446" lon="-0.13295">
        <ele>1113.1</ele>
        <time>2017-07-30T08:02:54Z</time>
      </trkpt>
      <trkpt lat="42.60448" lon="-0.13299">
        <ele>1119</ele>
        <time>2017-07-30T08:02:56Z</time>
      </trkpt>
      <trkpt lat="42.60449" lon="-0.13304">
        <ele>1119</ele>
        <time>2017-07-30T08:02:58Z</time>
      </trkpt>
      <trkpt lat="42.6045" lon="-0.13308">
        <ele>1119.5</ele>
        <time>2017-07-30T08:03:00Z</time>
      </trkpt>
      <trkpt lat="42.60451" lon="-0.13313">
        <ele>1120</ele>
        <time>2017-07-30T08:03:02Z</time>
      </trkpt>
      <trkpt lat="42.60452" lon="-0.13317">
        <ele>1120.5</ele>
        <time>2017-07-30T08:03:04Z</time>
      </trkpt>
      <trkpt lat="42.60455" lon="-0.1332">
        <ele>1121.1</ele>
        <time>2017-07-30T08:03:06Z</time>
      </trkpt>
      <trkpt lat="42.60458" lon="-0.13323">
        <ele>1121.7</ele>
        <time>2017-07-30T08:03:08Z</time>
      </trkpt>
      <trkpt lat="42.60462" lon="-0.13326">
        <ele>1122.3</ele>
        <time>2017-07-30T08:03:10Z</time>
      </trkpt>
      <trkpt lat="42.60466" lon="-0.13328">
        <ele>1122.9</ele>
        <time>2017-07-30T08:03:12Z</time>
      </trkpt>
      <trkpt lat="42.6047" lon="-0.13331">
        <ele>1123.7</ele>
        <time>2017-07-30T08:03:14Z</time>
      </trkpt>
      <trkpt lat="42.60474" lon="-0.13334">
        <ele>1124.3</ele>
        <time>2017-07-30T08:03:16Z</time>
      </trkpt>
      <trkpt lat="42.60478" lon="-0.13337">
        <ele>1124.9</ele>
        <time>2017-07-30T08:03:18Z</time>
      </trkpt>
      <trkpt lat="42.60482" lon="-0.1334">
        <ele>1125.6</ele>
        <time>2017-07-30T08:03:20Z</time>
      </trkpt>
      <trkpt lat="42.60486" lon="-0.13343">
        <ele>1126.6</ele>
        <time>2017-07-30T08:03:22Z</time>
      </trkpt>
      <trkpt lat="42.6049" lon="-0.13346">
        <ele>1127.4</ele>
        <time>2017-07-30T08:03:24Z</time>
      </trkpt>
      <trkpt lat="42.60493" lon="-0.13348">
        <ele>1128.3</ele>
        <time>2017-07-30T08:03:26Z</time>
      </trkpt>
      <trkpt lat="42.60497" lon="-0.13351">
        <ele>1129.2</ele>
        <time>2017-07-30T08:03:28Z</time>
      </trkpt>
      <trkpt lat="42.605" lon="-0.13353">
        <ele>1130.2</ele>
        <time>2017-07-30T08:03:30Z</time>
      </trkpt>
      <trkpt lat="42.60503" lon="-0.13356">
        <ele>1131.4</ele>
        <time>2017-07-30T08:03:32Z</time>
      </trkpt>
      <trkpt lat="42.60505" lon="-0.13359">
        <ele>1132.6</ele>
        <time>2017-07-30T08:03:34Z</time>
      </trkpt>
      <trkpt lat="42.60508" lon="-0.13362">
        <ele>1134</ele>
        <time>2017-07-30T08:03:36Z</time>
      </trkpt>
      <trkpt lat="42.6051" lon="-0.13365">
        <ele>1135.8</ele>
        <time>2017-07-30T08:03:38Z</time>
      </trkpt>
      <trkpt lat="42.60512" lon="-0.13369">
        <ele>1137.9</ele>
        <time>2017-07-30T08:03:40Z</time>
      </trkpt>
      <trkpt lat="42.60514" lon="-0.13373">
        <ele>1139.6</ele>
        <time>2017-07-30T08:03:42Z</time>
      </trkpt>
      <trkpt lat="42.60515" lon="-0.13377">
        <ele>1140.1</ele>
        <time>2017-07-30T08:03:44Z</time>
      </trkpt>
      <trkpt lat="42.60515" lon="-0.13383">
        <ele>1140.8</ele>
        <time>2017-07-30T08:03:47Z</time>
      </trkpt>
      <trkpt lat="42.60516" lon="-0.13388">
        <ele>1141.4</ele>
        <time>2017-07-30T08:03:50Z</time>
      </trkpt>
      <trkpt lat="42.60516" lon="-0.13392">
        <ele>1141.9</ele>
        <time>2017-07-30T08:03:53Z</time>
      </trkpt>
      <trkpt lat="42.60518" lon="-0.13395">
        <ele>1142.4</ele>
        <time>2017-07-30T08:03:55Z</time>
      </trkpt>
      <trkpt lat="42.60521" lon="-0.13398">
        <ele>1143.1</ele>
        <time>2017-07-30T08:03:58Z</time>
      </trkpt>
      <trkpt lat="42.60523" lon="-0.134">
        <ele>1143.6</ele>
        <time>2017-07-30T08:04:00Z</time>
      </trkpt>
      <trkpt lat="42.60526" lon="-0.13403">
        <ele>1144.2</ele>
        <time>2017-07-30T08:04:03Z</time>
      </trkpt>
      <trkpt lat="42.60528" lon="-0.13407">
        <ele>1144.8</ele>
        <time>2017-07-30T08:04:06Z</time>
      </trkpt>
      <trkpt lat="42.6053" lon="-0.13411">
        <ele>1145.4</ele>
        <time>2017-07-30T08:04:09Z</time>
      </trkpt>
      <trkpt lat="42.60532" lon="-0.13415">
        <ele>1146</ele>
        <time>2017-07-30T08:04:12Z</time>
      </trkpt>
      <trkpt lat="42.60534" lon="-0.13419">
        <ele>1146.6</ele>
        <time>2017-07-30T08:04:15Z</time>
      </trkpt>
      <trkpt lat="42.60533" lon="-0.13424">
        <ele>1147.2</ele>
        <time>2017-07-30T08:04:18Z</time>
      </trkpt>
      <trkpt lat="42.60531" lon="-0.13426">
        <ele>1147.7</ele>
        <time>2017-07-30T08:04:20Z</time>
      </trkpt>
      <trkpt lat="42.60529" lon="-0.13428">
        <ele>1147.7</ele>
        <time>2017-07-30T08:04:22Z</time>
      </trkpt>
      <trkpt lat="42.60526" lon="-0.13429">
        <ele>1147.4</ele>
        <time>2017-07-30T08:04:24Z</time>
      </trkpt>
      <trkpt lat="42.60522" lon="-0.1343">
        <ele>1146.9</ele>
        <time>2017-07-30T08:04:27Z</time>
      </trkpt>
      <trkpt lat="42.60519" lon="-0.13429">
        <ele>1146.5</ele>
        <time>2017-07-30T08:04:29Z</time>
      </trkpt>
      <trkpt lat="42.60517" lon="-0.13427">
        <ele>1146.2</ele>
        <time>2017-07-30T08:04:31Z</time>
      </trkpt>
      <trkpt lat="42.60514" lon="-0.13424">
        <ele>1145.8</ele>
        <time>2017-07-30T08:04:34Z</time>
      </trkpt>
      <trkpt lat="42.60511" lon="-0.13422">
        <ele>1145.4</ele>
        <time>2017-07-30T08:04:36Z</time>
      </trkpt>
      <trkpt lat="42.60509" lon="-0.13421">
        <ele>1145</ele>
        <time>2017-07-30T08:04:38Z</time>
      </trkpt>
      <trkpt lat="42.60506" lon="-0.13419">
        <ele>1144.6</ele>
        <time>2017-07-30T08:04:40Z</time>
      </trkpt>
      <trkpt lat="42.60503" lon="-0.13417">
        <ele>1144.4</ele>
        <time>2017-07-30T08:04:42Z</time>
      </trkpt>
      <trkpt lat="42.60501" lon="-0.13416">
        <ele>1144.8</ele>
        <time>2017-07-30T08:04:44Z</time>
      </trkpt>
      <trkpt lat="42.60498" lon="-0.13415">
        <ele>1144.5</ele>
        <time>2017-07-30T08:04:46Z</time>
      </trkpt>
      <trkpt lat="42.60495" lon="-0.13414">
        <ele>1145</ele>
        <time>2017-07-30T08:04:48Z</time>
      </trkpt>
      <trkpt lat="42.60492" lon="-0.13413">
        <ele>1145.5</ele>
        <time>2017-07-30T08:04:50Z</time>
      </trkpt>
      <trkpt lat="42.60489" lon="-0.13413">
        <ele>1146.2</ele>
        <time>2017-07-30T08:04:52Z</time>
      </trkpt>
      <trkpt lat="42.60486" lon="-0.13412">
        <ele>1146.9</ele>
        <time>2017-07-30T08:04:54Z</time>
      </trkpt>
      <trkpt lat="42.60483" lon="-0.13412">
        <ele>1147.7</ele>
        <time>2017-07-30T08:04:56Z</time>
      </trkpt>
      <trkpt lat="42.6048" lon="-0.13412">
        <ele>1148.4</ele>
        <time>2017-07-30T08:04:58Z</time>
      </trkpt>
      <trkpt lat="42.60476" lon="-0.13412">
        <ele>1149.1</ele>
        <time>2017-07-30T08:05:00Z</time>
      </trkpt>
      <trkpt lat="42.60473" lon="-0.13412">
        <ele>1149.8</ele>
        <time>2017-07-30T08:05:02Z</time>
      </trkpt>
      <trkpt lat="42.6047" lon="-0.13412">
        <ele>1150.4</ele>
        <time>2017-07-30T08:05:04Z</time>
      </trkpt>
      <trkpt lat="42.60467" lon="-0.13412">
        <ele>1151</ele>
        <time>2017-07-30T08:05:06Z</time>
      </trkpt>
      <trkpt lat="42.60464" lon="-0.13412">
        <ele>1151.6</ele>
        <time>2017-07-30T08:05:08Z</time>
      </trkpt>
      <trkpt lat="42.60461" lon="-0.13413">
        <ele>1152.2</ele>
        <time>2017-07-30T08:05:10Z</time>
      </trkpt>
      <trkpt lat="42.60459" lon="-0.13413">
        <ele>1152.6</ele>
        <time>2017-07-30T08:05:12Z</time>
      </trkpt>
      <trkpt lat="42.60456" lon="-0.13413">
        <ele>1152.4</ele>
        <time>2017-07-30T08:05:14Z</time>
      </trkpt>
      <trkpt lat="42.60453" lon="-0.13413">
        <ele>1153.3</ele>
        <time>2017-07-30T08:05:16Z</time>
      </trkpt>
      <trkpt lat="42.60449" lon="-0.13414">
        <ele>1153.4</ele>
        <time>2017-07-30T08:05:18Z</time>
      </trkpt>
      <trkpt lat="42.60447" lon="-0.13415">
        <ele>1153.2</ele>
        <time>2017-07-30T08:05:20Z</time>
      </trkpt>
      <trkpt lat="42.60444" lon="-0.13416">
        <ele>1154.4</ele>
        <time>2017-07-30T08:05:22Z</time>
      </trkpt>
      <trkpt lat="42.60441" lon="-0.13416">
        <ele>1154.3</ele>
        <time>2017-07-30T08:05:24Z</time>
      </trkpt>
      <trkpt lat="42.60438" lon="-0.13417">
        <ele>1154.1</ele>
        <time>2017-07-30T08:05:26Z</time>
      </trkpt>
      <trkpt lat="42.60435" lon="-0.13417">
        <ele>1153.9</ele>
        <time>2017-07-30T08:05:28Z</time>
      </trkpt>
      <trkpt lat="42.60432" lon="-0.13418">
        <ele>1153.7</ele>
        <time>2017-07-30T08:05:30Z</time>
      </trkpt>
      <trkpt lat="42.6043" lon="-0.13419">
        <ele>1153.4</ele>
        <time>2017-07-30T08:05:32Z</time>
      </trkpt>
      <trkpt lat="42.60426" lon="-0.13419">
        <ele>1153.2</ele>
        <time>2017-07-30T08:05:34Z</time>
      </trkpt>
      <trkpt lat="42.60423" lon="-0.1342">
        <ele>1152.9</ele>
        <time>2017-07-30T08:05:36Z</time>
      </trkpt>
      <trkpt lat="42.60419" lon="-0.1342">
        <ele>1154.1</ele>
        <time>2017-07-30T08:05:38Z</time>
      </trkpt>
      <trkpt lat="42.60416" lon="-0.13421">
        <ele>1154</ele>
        <time>2017-07-30T08:05:40Z</time>
      </trkpt>
      <trkpt lat="42.60413" lon="-0.1342">
        <ele>1154</ele>
        <time>2017-07-30T08:05:42Z</time>
      </trkpt>
      <trkpt lat="42.6041" lon="-0.13421">
        <ele>1154.1</ele>
        <time>2017-07-30T08:05:44Z</time>
      </trkpt>
      <trkpt lat="42.60407" lon="-0.13421">
        <ele>1154.2</ele>
        <time>2017-07-30T08:05:46Z</time>
      </trkpt>
      <trkpt lat="42.60404" lon="-0.1342">
        <ele>1154.3</ele>
        <time>2017-07-30T08:05:48Z</time>
      </trkpt>
      <trkpt lat="42.60401" lon="-0.13419">
        <ele>1152.9</ele>
        <time>2017-07-30T08:05:50Z</time>
      </trkpt>
      <trkpt lat="42.60397" lon="-0.13419">
        <ele>1153</ele>
        <time>2017-07-30T08:05:52Z</time>
      </trkpt>
      <trkpt lat="42.60395" lon="-0.13418">
        <ele>1153</ele>
        <time>2017-07-30T08:05:54Z</time>
      </trkpt>
      <trkpt lat="42.60391" lon="-0.13417">
        <ele>1153</ele>
        <time>2017-07-30T08:05:56Z</time>
      </trkpt>
      <trkpt lat="42.60389" lon="-0.13416">
        <ele>1152.2</ele>
        <time>2017-07-30T08:05:58Z</time>
      </trkpt>
      <trkpt lat="42.60386" lon="-0.13414">
        <ele>1151.7</ele>
        <time>2017-07-30T08:06:00Z</time>
      </trkpt>
      <trkpt lat="42.60383" lon="-0.13413">
        <ele>1151.2</ele>
        <time>2017-07-30T08:06:02Z</time>
      </trkpt>
      <trkpt lat="42.60379" lon="-0.13413">
        <ele>1150.6</ele>
        <time>2017-07-30T08:06:05Z</time>
      </trkpt>
      <trkpt lat="42.60376" lon="-0.13413">
        <ele>1150.2</ele>
        <time>2017-07-30T08:06:07Z</time>
      </trkpt>
      <trkpt lat="42.60373" lon="-0.13413">
        <ele>1149.8</ele>
        <time>2017-07-30T08:06:09Z</time>
      </trkpt>
      <trkpt lat="42.60371" lon="-0.13416">
        <ele>1150</ele>
        <time>2017-07-30T08:06:11Z</time>
      </trkpt>
      <trkpt lat="42.60369" lon="-0.13419">
        <ele>1150.6</ele>
        <time>2017-07-30T08:06:13Z</time>
      </trkpt>
      <trkpt lat="42.60368" lon="-0.13423">
        <ele>1151.2</ele>
        <time>2017-07-30T08:06:15Z</time>
      </trkpt>
      <trkpt lat="42.60369" lon="-0.13427">
        <ele>1151.8</ele>
        <time>2017-07-30T08:06:17Z</time>
      </trkpt>
      <trkpt lat="42.60371" lon="-0.1343">
        <ele>1152.7</ele>
        <time>2017-07-30T08:06:19Z</time>
      </trkpt>
      <trkpt lat="42.60374" lon="-0.13432">
        <ele>1153.9</ele>
        <time>2017-07-30T08:06:21Z</time>
      </trkpt>
      <trkpt lat="42.60377" lon="-0.13435">
        <ele>1155.1</ele>
        <time>2017-07-30T08:06:23Z</time>
      </trkpt>
      <trkpt lat="42.6038" lon="-0.13436">
        <ele>1156.2</ele>
        <time>2017-07-30T08:06:25Z</time>
      </trkpt>
      <trkpt lat="42.60383" lon="-0.13437">
        <ele>1156.8</ele>
        <time>2017-07-30T08:06:27Z</time>
      </trkpt>
      <trkpt lat="42.60386" lon="-0.13438">
        <ele>1157.4</ele>
        <time>2017-07-30T08:06:29Z</time>
      </trkpt>
      <trkpt lat="42.6039" lon="-0.1344">
        <ele>1158.3</ele>
        <time>2017-07-30T08:06:32Z</time>
      </trkpt>
      <trkpt lat="42.60393" lon="-0.1344">
        <ele>1159</ele>
        <time>2017-07-30T08:06:34Z</time>
      </trkpt>
      <trkpt lat="42.60397" lon="-0.13442">
        <ele>1160</ele>
        <time>2017-07-30T08:06:37Z</time>
      </trkpt>
      <trkpt lat="42.604" lon="-0.13444">
        <ele>1160.7</ele>
        <time>2017-07-30T08:06:39Z</time>
      </trkpt>
      <trkpt lat="42.60403" lon="-0.13445">
        <ele>1160.6</ele>
        <time>2017-07-30T08:06:41Z</time>
      </trkpt>
      <trkpt lat="42.60406" lon="-0.13445">
        <ele>1160.4</ele>
        <time>2017-07-30T08:06:43Z</time>
      </trkpt>
      <trkpt lat="42.6041" lon="-0.13446">
        <ele>1161.4</ele>
        <time>2017-07-30T08:06:45Z</time>
      </trkpt>
      <trkpt lat="42.60413" lon="-0.13446">
        <ele>1161.1</ele>
        <time>2017-07-30T08:06:47Z</time>
      </trkpt>
      <trkpt lat="42.60417" lon="-0.13447">
        <ele>1160.9</ele>
        <time>2017-07-30T08:06:49Z</time>
      </trkpt>
      <trkpt lat="42.6042" lon="-0.13448">
        <ele>1160.6</ele>
        <time>2017-07-30T08:06:51Z</time>
      </trkpt>
      <trkpt lat="42.60423" lon="-0.13449">
        <ele>1160.4</ele>
        <time>2017-07-30T08:06:53Z</time>
      </trkpt>
      <trkpt lat="42.60426" lon="-0.1345">
        <ele>1161.4</ele>
        <time>2017-07-30T08:06:55Z</time>
      </trkpt>
      <trkpt lat="42.60429" lon="-0.13451">
        <ele>1161.1</ele>
        <time>2017-07-30T08:06:57Z</time>
      </trkpt>
      <trkpt lat="42.60432" lon="-0.13453">
        <ele>1160.8</ele>
        <time>2017-07-30T08:06:59Z</time>
      </trkpt>
      <trkpt lat="42.60435" lon="-0.13455">
        <ele>1161.7</ele>
        <time>2017-07-30T08:07:01Z</time>
      </trkpt>
      <trkpt lat="42.60438" lon="-0.13456">
        <ele>1161.4</ele>
        <time>2017-07-30T08:07:03Z</time>
      </trkpt>
      <trkpt lat="42.60441" lon="-0.13456">
        <ele>1161.1</ele>
        <time>2017-07-30T08:07:05Z</time>
      </trkpt>
      <trkpt lat="42.60444" lon="-0.13456">
        <ele>1160.8</ele>
        <time>2017-07-30T08:07:07Z</time>
      </trkpt>
      <trkpt lat="42.60447" lon="-0.13457">
        <ele>1160.6</ele>
        <time>2017-07-30T08:07:09Z</time>
      </trkpt>
      <trkpt lat="42.60451" lon="-0.13458">
        <ele>1160.4</ele>
        <time>2017-07-30T08:07:11Z</time>
      </trkpt>
      <trkpt lat="42.60454" lon="-0.13459">
        <ele>1161.3</ele>
        <time>2017-07-30T08:07:13Z</time>
      </trkpt>
      <trkpt lat="42.60457" lon="-0.13462">
        <ele>1161</ele>
        <time>2017-07-30T08:07:15Z</time>
      </trkpt>
      <trkpt lat="42.60459" lon="-0.13465">
        <ele>1161.8</ele>
        <time>2017-07-30T08:07:17Z</time>
      </trkpt>
      <trkpt lat="42.60462" lon="-0.13468">
        <ele>1162.9</ele>
        <time>2017-07-30T08:07:19Z</time>
      </trkpt>
      <trkpt lat="42.60465" lon="-0.1347">
        <ele>1162.5</ele>
        <time>2017-07-30T08:07:21Z</time>
      </trkpt>
      <trkpt lat="42.60468" lon="-0.13472">
        <ele>1163.1</ele>
        <time>2017-07-30T08:07:23Z</time>
      </trkpt>
      <trkpt lat="42.6047" lon="-0.13475">
        <ele>1162.5</ele>
        <time>2017-07-30T08:07:25Z</time>
      </trkpt>
      <trkpt lat="42.60473" lon="-0.13478">
        <ele>1163.2</ele>
        <time>2017-07-30T08:07:27Z</time>
      </trkpt>
      <trkpt lat="42.60476" lon="-0.1348">
        <ele>1164.2</ele>
        <time>2017-07-30T08:07:29Z</time>
      </trkpt>
      <trkpt lat="42.60478" lon="-0.13482">
        <ele>1163.7</ele>
        <time>2017-07-30T08:07:31Z</time>
      </trkpt>
      <trkpt lat="42.60481" lon="-0.13485">
        <ele>1165.3</ele>
        <time>2017-07-30T08:07:33Z</time>
      </trkpt>
      <trkpt lat="42.60484" lon="-0.13487">
        <ele>1165.3</ele>
        <time>2017-07-30T08:07:35Z</time>
      </trkpt>
      <trkpt lat="42.60487" lon="-0.1349">
        <ele>1167.4</ele>
        <time>2017-07-30T08:07:37Z</time>
      </trkpt>
      <trkpt lat="42.60489" lon="-0.13493">
        <ele>1169.8</ele>
        <time>2017-07-30T08:07:39Z</time>
      </trkpt>
      <trkpt lat="42.60492" lon="-0.13495">
        <ele>1169.6</ele>
        <time>2017-07-30T08:07:41Z</time>
      </trkpt>
      <trkpt lat="42.60494" lon="-0.13497">
        <ele>1172.1</ele>
        <time>2017-07-30T08:07:43Z</time>
      </trkpt>
      <trkpt lat="42.60497" lon="-0.13499">
        <ele>1171.9</ele>
        <time>2017-07-30T08:07:45Z</time>
      </trkpt>
      <trkpt lat="42.605" lon="-0.13502">
        <ele>1174.5</ele>
        <time>2017-07-30T08:07:47Z</time>
      </trkpt>
      <trkpt lat="42.60501" lon="-0.13505">
        <ele>1174.2</ele>
        <time>2017-07-30T08:07:49Z</time>
      </trkpt>
      <trkpt lat="42.60501" lon="-0.13509">
        <ele>1176.7</ele>
        <time>2017-07-30T08:07:51Z</time>
      </trkpt>
      <trkpt lat="42.605" lon="-0.13513">
        <ele>1179.7</ele>
        <time>2017-07-30T08:07:53Z</time>
      </trkpt>
      <trkpt lat="42.60497" lon="-0.13514">
        <ele>1180.2</ele>
        <time>2017-07-30T08:07:55Z</time>
      </trkpt>
      <trkpt lat="42.60493" lon="-0.13511">
        <ele>1180.6</ele>
        <time>2017-07-30T08:07:57Z</time>
      </trkpt>
      <trkpt lat="42.6049" lon="-0.13509">
        <ele>1178.2</ele>
        <time>2017-07-30T08:07:59Z</time>
      </trkpt>
      <trkpt lat="42.60487" lon="-0.13506">
        <ele>1178.4</ele>
        <time>2017-07-30T08:08:01Z</time>
      </trkpt>
      <trkpt lat="42.60484" lon="-0.13504">
        <ele>1175.7</ele>
        <time>2017-07-30T08:08:03Z</time>
      </trkpt>
      <trkpt lat="42.60481" lon="-0.13501">
        <ele>1175.9</ele>
        <time>2017-07-30T08:08:05Z</time>
      </trkpt>
      <trkpt lat="42.60478" lon="-0.13499">
        <ele>1173.9</ele>
        <time>2017-07-30T08:08:07Z</time>
      </trkpt>
      <trkpt lat="42.60475" lon="-0.13498">
        <ele>1174.3</ele>
        <time>2017-07-30T08:08:09Z</time>
      </trkpt>
      <trkpt lat="42.60472" lon="-0.13496">
        <ele>1172</ele>
        <time>2017-07-30T08:08:11Z</time>
      </trkpt>
      <trkpt lat="42.60469" lon="-0.13496">
        <ele>1172.5</ele>
        <time>2017-07-30T08:08:13Z</time>
      </trkpt>
      <trkpt lat="42.60465" lon="-0.13496">
        <ele>1173.1</ele>
        <time>2017-07-30T08:08:15Z</time>
      </trkpt>
      <trkpt lat="42.60462" lon="-0.13495">
        <ele>1174.5</ele>
        <time>2017-07-30T08:08:17Z</time>
      </trkpt>
      <trkpt lat="42.60459" lon="-0.13494">
        <ele>1175.2</ele>
        <time>2017-07-30T08:08:19Z</time>
      </trkpt>
      <trkpt lat="42.60456" lon="-0.13493">
        <ele>1176</ele>
        <time>2017-07-30T08:08:21Z</time>
      </trkpt>
      <trkpt lat="42.60453" lon="-0.13492">
        <ele>1173.7</ele>
        <time>2017-07-30T08:08:23Z</time>
      </trkpt>
      <trkpt lat="42.6045" lon="-0.1349">
        <ele>1174.4</ele>
        <time>2017-07-30T08:08:25Z</time>
      </trkpt>
      <trkpt lat="42.60447" lon="-0.13488">
        <ele>1175</ele>
        <time>2017-07-30T08:08:27Z</time>
      </trkpt>
      <trkpt lat="42.60444" lon="-0.13487">
        <ele>1173.2</ele>
        <time>2017-07-30T08:08:29Z</time>
      </trkpt>
      <trkpt lat="42.6044" lon="-0.13488">
        <ele>1173.6</ele>
        <time>2017-07-30T08:08:31Z</time>
      </trkpt>
      <trkpt lat="42.60437" lon="-0.13488">
        <ele>1173.4</ele>
        <time>2017-07-30T08:08:33Z</time>
      </trkpt>
      <trkpt lat="42.60434" lon="-0.13488">
        <ele>1173.2</ele>
        <time>2017-07-30T08:08:35Z</time>
      </trkpt>
      <trkpt lat="42.6043" lon="-0.13488">
        <ele>1173</ele>
        <time>2017-07-30T08:08:37Z</time>
      </trkpt>
      <trkpt lat="42.60427" lon="-0.13489">
        <ele>1172.8</ele>
        <time>2017-07-30T08:08:39Z</time>
      </trkpt>
      <trkpt lat="42.60424" lon="-0.1349">
        <ele>1172.6</ele>
        <time>2017-07-30T08:08:41Z</time>
      </trkpt>
      <trkpt lat="42.60421" lon="-0.13492">
        <ele>1172.4</ele>
        <time>2017-07-30T08:08:43Z</time>
      </trkpt>
      <trkpt lat="42.60418" lon="-0.13494">
        <ele>1172.1</ele>
        <time>2017-07-30T08:08:45Z</time>
      </trkpt>
      <trkpt lat="42.60416" lon="-0.13497">
        <ele>1171.9</ele>
        <time>2017-07-30T08:08:47Z</time>
      </trkpt>
      <trkpt lat="42.60413" lon="-0.135">
        <ele>1171.7</ele>
        <time>2017-07-30T08:08:49Z</time>
      </trkpt>
      <trkpt lat="42.6041" lon="-0.13503">
        <ele>1171.5</ele>
        <time>2017-07-30T08:08:51Z</time>
      </trkpt>
      <trkpt lat="42.60408" lon="-0.13507">
        <ele>1171.2</ele>
        <time>2017-07-30T08:08:53Z</time>
      </trkpt>
      <trkpt lat="42.60406" lon="-0.13511">
        <ele>1171</ele>
        <time>2017-07-30T08:08:55Z</time>
      </trkpt>
      <trkpt lat="42.60405" lon="-0.13515">
        <ele>1172.5</ele>
        <time>2017-07-30T08:08:57Z</time>
      </trkpt>
      <trkpt lat="42.60403" lon="-0.13519">
        <ele>1174.5</ele>
        <time>2017-07-30T08:08:59Z</time>
      </trkpt>
      <trkpt lat="42.604" lon="-0.13523">
        <ele>1175.4</ele>
        <time>2017-07-30T08:09:01Z</time>
      </trkpt>
      <trkpt lat="42.60399" lon="-0.13527">
        <ele>1175.8</ele>
        <time>2017-07-30T08:09:03Z</time>
      </trkpt>
      <trkpt lat="42.60397" lon="-0.13531">
        <ele>1177</ele>
        <time>2017-07-30T08:09:05Z</time>
      </trkpt>
      <trkpt lat="42.60395" lon="-0.13535">
        <ele>1176.2</ele>
        <time>2017-07-30T08:09:07Z</time>
      </trkpt>
      <trkpt lat="42.60394" lon="-0.13539">
        <ele>1177.4</ele>
        <time>2017-07-30T08:09:09Z</time>
      </trkpt>
      <trkpt lat="42.60392" lon="-0.13542">
        <ele>1177.5</ele>
        <time>2017-07-30T08:09:11Z</time>
      </trkpt>
      <trkpt lat="42.6039" lon="-0.13546">
        <ele>1178.6</ele>
        <time>2017-07-30T08:09:13Z</time>
      </trkpt>
      <trkpt lat="42.60388" lon="-0.13549">
        <ele>1178.6</ele>
        <time>2017-07-30T08:09:15Z</time>
      </trkpt>
      <trkpt lat="42.60385" lon="-0.13552">
        <ele>1177.8</ele>
        <time>2017-07-30T08:09:17Z</time>
      </trkpt>
      <trkpt lat="42.60382" lon="-0.13554">
        <ele>1177.7</ele>
        <time>2017-07-30T08:09:19Z</time>
      </trkpt>
      <trkpt lat="42.60379" lon="-0.13558">
        <ele>1177.5</ele>
        <time>2017-07-30T08:09:21Z</time>
      </trkpt>
      <trkpt lat="42.60377" lon="-0.13561">
        <ele>1177.6</ele>
        <time>2017-07-30T08:09:23Z</time>
      </trkpt>
      <trkpt lat="42.60375" lon="-0.13566">
        <ele>1177.7</ele>
        <time>2017-07-30T08:09:25Z</time>
      </trkpt>
      <trkpt lat="42.60373" lon="-0.1357">
        <ele>1178.1</ele>
        <time>2017-07-30T08:09:27Z</time>
      </trkpt>
      <trkpt lat="42.60371" lon="-0.13573">
        <ele>1179.5</ele>
        <time>2017-07-30T08:09:29Z</time>
      </trkpt>
      <trkpt lat="42.60369" lon="-0.13576">
        <ele>1179.9</ele>
        <time>2017-07-30T08:09:31Z</time>
      </trkpt>
      <trkpt lat="42.60366" lon="-0.13579">
        <ele>1180.4</ele>
        <time>2017-07-30T08:09:33Z</time>
      </trkpt>
      <trkpt lat="42.60364" lon="-0.13582">
        <ele>1179.6</ele>
        <time>2017-07-30T08:09:35Z</time>
      </trkpt>
      <trkpt lat="42.60362" lon="-0.13585">
        <ele>1180.9</ele>
        <time>2017-07-30T08:09:37Z</time>
      </trkpt>
      <trkpt lat="42.60359" lon="-0.13587">
        <ele>1181.4</ele>
        <time>2017-07-30T08:09:39Z</time>
      </trkpt>
      <trkpt lat="42.60357" lon="-0.1359">
        <ele>1180.5</ele>
        <time>2017-07-30T08:09:41Z</time>
      </trkpt>
      <trkpt lat="42.60354" lon="-0.13594">
        <ele>1180.8</ele>
        <time>2017-07-30T08:09:43Z</time>
      </trkpt>
      <trkpt lat="42.60352" lon="-0.13598">
        <ele>1182.5</ele>
        <time>2017-07-30T08:09:45Z</time>
      </trkpt>
      <trkpt lat="42.6035" lon="-0.13602">
        <ele>1182.8</ele>
        <time>2017-07-30T08:09:47Z</time>
      </trkpt>
      <trkpt lat="42.60348" lon="-0.13605">
        <ele>1182.9</ele>
        <time>2017-07-30T08:09:49Z</time>
      </trkpt>
      <trkpt lat="42.60346" lon="-0.13609">
        <ele>1184.2</ele>
        <time>2017-07-30T08:09:51Z</time>
      </trkpt>
      <trkpt lat="42.60343" lon="-0.13612">
        <ele>1182.9</ele>
        <time>2017-07-30T08:09:54Z</time>
      </trkpt>
      <trkpt lat="42.60341" lon="-0.13615">
        <ele>1182.9</ele>
        <time>2017-07-30T08:09:56Z</time>
      </trkpt>
      <trkpt lat="42.60341" lon="-0.13619">
        <ele>1184.3</ele>
        <time>2017-07-30T08:09:58Z</time>
      </trkpt>
      <trkpt lat="42.60341" lon="-0.13623">
        <ele>1185.9</ele>
        <time>2017-07-30T08:10:00Z</time>
      </trkpt>
      <trkpt lat="42.60342" lon="-0.13627">
        <ele>1187.5</ele>
        <time>2017-07-30T08:10:02Z</time>
      </trkpt>
      <trkpt lat="42.60345" lon="-0.1363">
        <ele>1188.9</ele>
        <time>2017-07-30T08:10:05Z</time>
      </trkpt>
      <trkpt lat="42.60348" lon="-0.13627">
        <ele>1190.2</ele>
        <time>2017-07-30T08:10:07Z</time>
      </trkpt>
      <trkpt lat="42.60351" lon="-0.13621">
        <ele>1190.2</ele>
        <time>2017-07-30T08:10:09Z</time>
      </trkpt>
      <trkpt lat="42.60353" lon="-0.13615">
        <ele>1189.1</ele>
        <time>2017-07-30T08:10:11Z</time>
      </trkpt>
      <trkpt lat="42.60355" lon="-0.1361">
        <ele>1189.4</ele>
        <time>2017-07-30T08:10:13Z</time>
      </trkpt>
      <trkpt lat="42.60358" lon="-0.13605">
        <ele>1188.4</ele>
        <time>2017-07-30T08:10:15Z</time>
      </trkpt>
      <trkpt lat="42.60361" lon="-0.13601">
        <ele>1188.3</ele>
        <time>2017-07-30T08:10:17Z</time>
      </trkpt>
      <trkpt lat="42.60364" lon="-0.13598">
        <ele>1188.9</ele>
        <time>2017-07-30T08:10:19Z</time>
      </trkpt>
      <trkpt lat="42.60368" lon="-0.13594">
        <ele>1188.4</ele>
        <time>2017-07-30T08:10:21Z</time>
      </trkpt>
      <trkpt lat="42.60371" lon="-0.13591">
        <ele>1188</ele>
        <time>2017-07-30T08:10:23Z</time>
      </trkpt>
      <trkpt lat="42.60375" lon="-0.13588">
        <ele>1189.1</ele>
        <time>2017-07-30T08:10:25Z</time>
      </trkpt>
      <trkpt lat="42.60378" lon="-0.13586">
        <ele>1188.8</ele>
        <time>2017-07-30T08:10:27Z</time>
      </trkpt>
      <trkpt lat="42.60382" lon="-0.13584">
        <ele>1189.9</ele>
        <time>2017-07-30T08:10:29Z</time>
      </trkpt>
      <trkpt lat="42.60385" lon="-0.13582">
        <ele>1189.6</ele>
        <time>2017-07-30T08:10:31Z</time>
      </trkpt>
      <trkpt lat="42.60388" lon="-0.1358">
        <ele>1190.5</ele>
        <time>2017-07-30T08:10:33Z</time>
      </trkpt>
      <trkpt lat="42.6039" lon="-0.13578">
        <ele>1190.1</ele>
        <time>2017-07-30T08:10:35Z</time>
      </trkpt>
      <trkpt lat="42.60393" lon="-0.13576">
        <ele>1191.1</ele>
        <time>2017-07-30T08:10:37Z</time>
      </trkpt>
      <trkpt lat="42.60396" lon="-0.13573">
        <ele>1189.9</ele>
        <time>2017-07-30T08:10:39Z</time>
      </trkpt>
      <trkpt lat="42.60398" lon="-0.13571">
        <ele>1190.9</ele>
        <time>2017-07-30T08:10:41Z</time>
      </trkpt>
      <trkpt lat="42.60401" lon="-0.1357">
        <ele>1190.7</ele>
        <time>2017-07-30T08:10:43Z</time>
      </trkpt>
      <trkpt lat="42.60404" lon="-0.13569">
        <ele>1191.8</ele>
        <time>2017-07-30T08:10:45Z</time>
      </trkpt>
      <trkpt lat="42.60407" lon="-0.13568">
        <ele>1192.9</ele>
        <time>2017-07-30T08:10:47Z</time>
      </trkpt>
      <trkpt lat="42.6041" lon="-0.13569">
        <ele>1194</ele>
        <time>2017-07-30T08:10:49Z</time>
      </trkpt>
      <trkpt lat="42.60413" lon="-0.13569">
        <ele>1195.1</ele>
        <time>2017-07-30T08:10:51Z</time>
      </trkpt>
      <trkpt lat="42.60416" lon="-0.1357">
        <ele>1196.1</ele>
        <time>2017-07-30T08:10:53Z</time>
      </trkpt>
      <trkpt lat="42.60419" lon="-0.13571">
        <ele>1198.3</ele>
        <time>2017-07-30T08:10:55Z</time>
      </trkpt>
      <trkpt lat="42.60421" lon="-0.13574">
        <ele>1199.2</ele>
        <time>2017-07-30T08:10:57Z</time>
      </trkpt>
      <trkpt lat="42.60425" lon="-0.13576">
        <ele>1199.2</ele>
        <time>2017-07-30T08:10:59Z</time>
      </trkpt>
      <trkpt lat="42.60428" lon="-0.13578">
        <ele>1199.2</ele>
        <time>2017-07-30T08:11:01Z</time>
      </trkpt>
      <trkpt lat="42.60431" lon="-0.13579">
        <ele>1199.1</ele>
        <time>2017-07-30T08:11:03Z</time>
      </trkpt>
      <trkpt lat="42.60434" lon="-0.1358">
        <ele>1199.1</ele>
        <time>2017-07-30T08:11:05Z</time>
      </trkpt>
      <trkpt lat="42.60437" lon="-0.13581">
        <ele>1199.1</ele>
        <time>2017-07-30T08:11:07Z</time>
      </trkpt>
      <trkpt lat="42.6044" lon="-0.13581">
        <ele>1199</ele>
        <time>2017-07-30T08:11:09Z</time>
      </trkpt>
      <trkpt lat="42.60443" lon="-0.13581">
        <ele>1199</ele>
        <time>2017-07-30T08:11:11Z</time>
      </trkpt>
      <trkpt lat="42.60446" lon="-0.13581">
        <ele>1198.7</ele>
        <time>2017-07-30T08:11:13Z</time>
      </trkpt>
      <trkpt lat="42.60449" lon="-0.13582">
        <ele>1198.4</ele>
        <time>2017-07-30T08:11:15Z</time>
      </trkpt>
      <trkpt lat="42.60452" lon="-0.13583">
        <ele>1199.5</ele>
        <time>2017-07-30T08:11:17Z</time>
      </trkpt>
      <trkpt lat="42.60454" lon="-0.13588">
        <ele>1201</ele>
        <time>2017-07-30T08:11:20Z</time>
      </trkpt>
      <trkpt lat="42.60454" lon="-0.13591">
        <ele>1202.8</ele>
        <time>2017-07-30T08:11:22Z</time>
      </trkpt>
      <trkpt lat="42.60452" lon="-0.13594">
        <ele>1201.9</ele>
        <time>2017-07-30T08:11:24Z</time>
      </trkpt>
      <trkpt lat="42.60448" lon="-0.13595">
        <ele>1201</ele>
        <time>2017-07-30T08:11:26Z</time>
      </trkpt>
      <trkpt lat="42.60445" lon="-0.13595">
        <ele>1200</ele>
        <time>2017-07-30T08:11:28Z</time>
      </trkpt>
      <trkpt lat="42.60442" lon="-0.13595">
        <ele>1199</ele>
        <time>2017-07-30T08:11:30Z</time>
      </trkpt>
      <trkpt lat="42.60439" lon="-0.13595">
        <ele>1197.9</ele>
        <time>2017-07-30T08:11:32Z</time>
      </trkpt>
      <trkpt lat="42.60436" lon="-0.13596">
        <ele>1199.6</ele>
        <time>2017-07-30T08:11:34Z</time>
      </trkpt>
      <trkpt lat="42.60433" lon="-0.13597">
        <ele>1199.9</ele>
        <time>2017-07-30T08:11:36Z</time>
      </trkpt>
      <trkpt lat="42.6043" lon="-0.13598">
        <ele>1200.6</ele>
        <time>2017-07-30T08:11:38Z</time>
      </trkpt>
      <trkpt lat="42.60427" lon="-0.13599">
        <ele>1201.5</ele>
        <time>2017-07-30T08:11:40Z</time>
      </trkpt>
      <trkpt lat="42.60424" lon="-0.136">
        <ele>1202.3</ele>
        <time>2017-07-30T08:11:42Z</time>
      </trkpt>
      <trkpt lat="42.60421" lon="-0.13601">
        <ele>1203.2</ele>
        <time>2017-07-30T08:11:44Z</time>
      </trkpt>
      <trkpt lat="42.60418" lon="-0.13603">
        <ele>1204.2</ele>
        <time>2017-07-30T08:11:46Z</time>
      </trkpt>
      <trkpt lat="42.60415" lon="-0.13605">
        <ele>1204.7</ele>
        <time>2017-07-30T08:11:48Z</time>
      </trkpt>
      <trkpt lat="42.60412" lon="-0.13607">
        <ele>1205.2</ele>
        <time>2017-07-30T08:11:50Z</time>
      </trkpt>
      <trkpt lat="42.60408" lon="-0.13609">
        <ele>1205.9</ele>
        <time>2017-07-30T08:11:52Z</time>
      </trkpt>
      <trkpt lat="42.60405" lon="-0.13612">
        <ele>1206.7</ele>
        <time>2017-07-30T08:11:54Z</time>
      </trkpt>
      <trkpt lat="42.60402" lon="-0.13615">
        <ele>1207.7</ele>
        <time>2017-07-30T08:11:56Z</time>
      </trkpt>
      <trkpt lat="42.60399" lon="-0.13618">
        <ele>1208.6</ele>
        <time>2017-07-30T08:11:58Z</time>
      </trkpt>
      <trkpt lat="42.60396" lon="-0.13622">
        <ele>1209.3</ele>
        <time>2017-07-30T08:12:00Z</time>
      </trkpt>
      <trkpt lat="42.60393" lon="-0.13626">
        <ele>1209.8</ele>
        <time>2017-07-30T08:12:02Z</time>
      </trkpt>
      <trkpt lat="42.60391" lon="-0.13629">
        <ele>1210.2</ele>
        <time>2017-07-30T08:12:04Z</time>
      </trkpt>
      <trkpt lat="42.60389" lon="-0.13633">
        <ele>1210.9</ele>
        <time>2017-07-30T08:12:06Z</time>
      </trkpt>
      <trkpt lat="42.60387" lon="-0.13637">
        <ele>1211.5</ele>
        <time>2017-07-30T08:12:08Z</time>
      </trkpt>
      <trkpt lat="42.60385" lon="-0.13641">
        <ele>1212.1</ele>
        <time>2017-07-30T08:12:10Z</time>
      </trkpt>
      <trkpt lat="42.60383" lon="-0.13645">
        <ele>1212.6</ele>
        <time>2017-07-30T08:12:12Z</time>
      </trkpt>
      <trkpt lat="42.60381" lon="-0.13649">
        <ele>1213.1</ele>
        <time>2017-07-30T08:12:14Z</time>
      </trkpt>
      <trkpt lat="42.60379" lon="-0.13653">
        <ele>1213.2</ele>
        <time>2017-07-30T08:12:16Z</time>
      </trkpt>
      <trkpt lat="42.60376" lon="-0.13657">
        <ele>1213.2</ele>
        <time>2017-07-30T08:12:18Z</time>
      </trkpt>
      <trkpt lat="42.60373" lon="-0.13662">
        <ele>1213.8</ele>
        <time>2017-07-30T08:12:20Z</time>
      </trkpt>
      <trkpt lat="42.60372" lon="-0.13665">
        <ele>1214.3</ele>
        <time>2017-07-30T08:12:22Z</time>
      </trkpt>
      <trkpt lat="42.60371" lon="-0.13669">
        <ele>1214.8</ele>
        <time>2017-07-30T08:12:24Z</time>
      </trkpt>
      <trkpt lat="42.6037" lon="-0.13673">
        <ele>1215.1</ele>
        <time>2017-07-30T08:12:26Z</time>
      </trkpt>
      <trkpt lat="42.60368" lon="-0.13677">
        <ele>1215.5</ele>
        <time>2017-07-30T08:12:28Z</time>
      </trkpt>
      <trkpt lat="42.60367" lon="-0.13681">
        <ele>1215.9</ele>
        <time>2017-07-30T08:12:30Z</time>
      </trkpt>
      <trkpt lat="42.60366" lon="-0.13685">
        <ele>1216.4</ele>
        <time>2017-07-30T08:12:32Z</time>
      </trkpt>
      <trkpt lat="42.60364" lon="-0.13688">
        <ele>1216.9</ele>
        <time>2017-07-30T08:12:34Z</time>
      </trkpt>
      <trkpt lat="42.60362" lon="-0.13692">
        <ele>1217.5</ele>
        <time>2017-07-30T08:12:36Z</time>
      </trkpt>
      <trkpt lat="42.6036" lon="-0.13695">
        <ele>1218</ele>
        <time>2017-07-30T08:12:38Z</time>
      </trkpt>
      <trkpt lat="42.60358" lon="-0.13698">
        <ele>1218.5</ele>
        <time>2017-07-30T08:12:40Z</time>
      </trkpt>
      <trkpt lat="42.60356" lon="-0.13701">
        <ele>1218.9</ele>
        <time>2017-07-30T08:12:42Z</time>
      </trkpt>
      <trkpt lat="42.60354" lon="-0.13705">
        <ele>1219.3</ele>
        <time>2017-07-30T08:12:44Z</time>
      </trkpt>
      <trkpt lat="42.60352" lon="-0.13709">
        <ele>1219.7</ele>
        <time>2017-07-30T08:12:46Z</time>
      </trkpt>
      <trkpt lat="42.6035" lon="-0.13712">
        <ele>1220.1</ele>
        <time>2017-07-30T08:12:48Z</time>
      </trkpt>
      <trkpt lat="42.60348" lon="-0.13716">
        <ele>1221</ele>
        <time>2017-07-30T08:12:50Z</time>
      </trkpt>
      <trkpt lat="42.60346" lon="-0.13719">
        <ele>1221.9</ele>
        <time>2017-07-30T08:12:52Z</time>
      </trkpt>
      <trkpt lat="42.60344" lon="-0.13723">
        <ele>1222.7</ele>
        <time>2017-07-30T08:12:54Z</time>
      </trkpt>
      <trkpt lat="42.60342" lon="-0.13727">
        <ele>1222.9</ele>
        <time>2017-07-30T08:12:56Z</time>
      </trkpt>
      <trkpt lat="42.60341" lon="-0.1373">
        <ele>1223.1</ele>
        <time>2017-07-30T08:12:58Z</time>
      </trkpt>
      <trkpt lat="42.60339" lon="-0.13734">
        <ele>1223.4</ele>
        <time>2017-07-30T08:13:00Z</time>
      </trkpt>
      <trkpt lat="42.60339" lon="-0.13738">
        <ele>1224.1</ele>
        <time>2017-07-30T08:13:02Z</time>
      </trkpt>
      <trkpt lat="42.60339" lon="-0.13742">
        <ele>1224.9</ele>
        <time>2017-07-30T08:13:04Z</time>
      </trkpt>
      <trkpt lat="42.60338" lon="-0.13747">
        <ele>1225.8</ele>
        <time>2017-07-30T08:13:07Z</time>
      </trkpt>
      <trkpt lat="42.60338" lon="-0.13752">
        <ele>1226.1</ele>
        <time>2017-07-30T08:13:10Z</time>
      </trkpt>
      <trkpt lat="42.60338" lon="-0.13756">
        <ele>1226.4</ele>
        <time>2017-07-30T08:13:12Z</time>
      </trkpt>
      <trkpt lat="42.60338" lon="-0.1376">
        <ele>1226.6</ele>
        <time>2017-07-30T08:13:14Z</time>
      </trkpt>
      <trkpt lat="42.60338" lon="-0.13764">
        <ele>1227.6</ele>
        <time>2017-07-30T08:13:16Z</time>
      </trkpt>
      <trkpt lat="42.60338" lon="-0.13768">
        <ele>1228.5</ele>
        <time>2017-07-30T08:13:18Z</time>
      </trkpt>
      <trkpt lat="42.60338" lon="-0.13772">
        <ele>1229.3</ele>
        <time>2017-07-30T08:13:20Z</time>
      </trkpt>
      <trkpt lat="42.60338" lon="-0.13776">
        <ele>1229.3</ele>
        <time>2017-07-30T08:13:22Z</time>
      </trkpt>
      <trkpt lat="42.60338" lon="-0.13781">
        <ele>1230.5</ele>
        <time>2017-07-30T08:13:25Z</time>
      </trkpt>
      <trkpt lat="42.60338" lon="-0.13787">
        <ele>1231.2</ele>
        <time>2017-07-30T08:13:28Z</time>
      </trkpt>
      <trkpt lat="42.60338" lon="-0.13792">
        <ele>1231.8</ele>
        <time>2017-07-30T08:13:31Z</time>
      </trkpt>
      <trkpt lat="42.60338" lon="-0.13796">
        <ele>1232.4</ele>
        <time>2017-07-30T08:13:33Z</time>
      </trkpt>
      <trkpt lat="42.60338" lon="-0.138">
        <ele>1233</ele>
        <time>2017-07-30T08:13:35Z</time>
      </trkpt>
      <trkpt lat="42.60339" lon="-0.13805">
        <ele>1234.8</ele>
        <time>2017-07-30T08:13:37Z</time>
      </trkpt>
      <trkpt lat="42.60339" lon="-0.13809">
        <ele>1235.3</ele>
        <time>2017-07-30T08:13:39Z</time>
      </trkpt>
      <trkpt lat="42.60339" lon="-0.13814">
        <ele>1235.9</ele>
        <time>2017-07-30T08:13:41Z</time>
      </trkpt>
      <trkpt lat="42.6034" lon="-0.13818">
        <ele>1236.6</ele>
        <time>2017-07-30T08:13:43Z</time>
      </trkpt>
      <trkpt lat="42.6034" lon="-0.13823">
        <ele>1237.4</ele>
        <time>2017-07-30T08:13:45Z</time>
      </trkpt>
      <trkpt lat="42.60341" lon="-0.13828">
        <ele>1238.7</ele>
        <time>2017-07-30T08:13:47Z</time>
      </trkpt>
      <trkpt lat="42.60341" lon="-0.13832">
        <ele>1239.2</ele>
        <time>2017-07-30T08:13:49Z</time>
      </trkpt>
      <trkpt lat="42.60341" lon="-0.13837">
        <ele>1239.7</ele>
        <time>2017-07-30T08:13:51Z</time>
      </trkpt>
      <trkpt lat="42.6034" lon="-0.13842">
        <ele>1240.2</ele>
        <time>2017-07-30T08:13:53Z</time>
      </trkpt>
      <trkpt lat="42.60339" lon="-0.13847">
        <ele>1240.7</ele>
        <time>2017-07-30T08:13:55Z</time>
      </trkpt>
      <trkpt lat="42.60339" lon="-0.13852">
        <ele>1239.9</ele>
        <time>2017-07-30T08:13:57Z</time>
      </trkpt>
      <trkpt lat="42.60338" lon="-0.13857">
        <ele>1240.3</ele>
        <time>2017-07-30T08:13:59Z</time>
      </trkpt>
      <trkpt lat="42.60337" lon="-0.13861">
        <ele>1240.7</ele>
        <time>2017-07-30T08:14:01Z</time>
      </trkpt>
      <trkpt lat="42.60337" lon="-0.13864">
        <ele>1241.1</ele>
        <time>2017-07-30T08:14:03Z</time>
      </trkpt>
      <trkpt lat="42.60336" lon="-0.13868">
        <ele>1241.6</ele>
        <time>2017-07-30T08:14:05Z</time>
      </trkpt>
      <trkpt lat="42.60335" lon="-0.13872">
        <ele>1241.1</ele>
        <time>2017-07-30T08:14:07Z</time>
      </trkpt>
      <trkpt lat="42.60335" lon="-0.13877">
        <ele>1241.8</ele>
        <time>2017-07-30T08:14:09Z</time>
      </trkpt>
      <trkpt lat="42.60335" lon="-0.13882">
        <ele>1242.5</ele>
        <time>2017-07-30T08:14:11Z</time>
      </trkpt>
      <trkpt lat="42.60335" lon="-0.13886">
        <ele>1243.2</ele>
        <time>2017-07-30T08:14:13Z</time>
      </trkpt>
      <trkpt lat="42.60335" lon="-0.13891">
        <ele>1243.9</ele>
        <time>2017-07-30T08:14:15Z</time>
      </trkpt>
      <trkpt lat="42.60334" lon="-0.13896">
        <ele>1244.6</ele>
        <time>2017-07-30T08:14:17Z</time>
      </trkpt>
      <trkpt lat="42.60334" lon="-0.139">
        <ele>1245.4</ele>
        <time>2017-07-30T08:14:19Z</time>
      </trkpt>
      <trkpt lat="42.60333" lon="-0.13905">
        <ele>1247.5</ele>
        <time>2017-07-30T08:14:21Z</time>
      </trkpt>
      <trkpt lat="42.60332" lon="-0.1391">
        <ele>1247.6</ele>
        <time>2017-07-30T08:14:23Z</time>
      </trkpt>
      <trkpt lat="42.60331" lon="-0.13914">
        <ele>1248.5</ele>
        <time>2017-07-30T08:14:25Z</time>
      </trkpt>
      <trkpt lat="42.60329" lon="-0.13917">
        <ele>1247.4</ele>
        <time>2017-07-30T08:14:27Z</time>
      </trkpt>
      <trkpt lat="42.60326" lon="-0.1392">
        <ele>1248.4</ele>
        <time>2017-07-30T08:14:29Z</time>
      </trkpt>
      <trkpt lat="42.60324" lon="-0.13923">
        <ele>1248.2</ele>
        <time>2017-07-30T08:14:31Z</time>
      </trkpt>
      <trkpt lat="42.60322" lon="-0.13925">
        <ele>1246.9</ele>
        <time>2017-07-30T08:14:33Z</time>
      </trkpt>
      <trkpt lat="42.6032" lon="-0.13928">
        <ele>1246.7</ele>
        <time>2017-07-30T08:14:35Z</time>
      </trkpt>
      <trkpt lat="42.60317" lon="-0.1393">
        <ele>1246.7</ele>
        <time>2017-07-30T08:14:37Z</time>
      </trkpt>
      <trkpt lat="42.60315" lon="-0.13933">
        <ele>1246.7</ele>
        <time>2017-07-30T08:14:39Z</time>
      </trkpt>
      <trkpt lat="42.60313" lon="-0.13935">
        <ele>1246.7</ele>
        <time>2017-07-30T08:14:41Z</time>
      </trkpt>
      <trkpt lat="42.60311" lon="-0.13938">
        <ele>1246.7</ele>
        <time>2017-07-30T08:14:43Z</time>
      </trkpt>
      <trkpt lat="42.60309" lon="-0.1394">
        <ele>1246.8</ele>
        <time>2017-07-30T08:14:45Z</time>
      </trkpt>
      <trkpt lat="42.60306" lon="-0.13942">
        <ele>1245.9</ele>
        <time>2017-07-30T08:14:47Z</time>
      </trkpt>
      <trkpt lat="42.60304" lon="-0.13945">
        <ele>1246.1</ele>
        <time>2017-07-30T08:14:49Z</time>
      </trkpt>
      <trkpt lat="42.60301" lon="-0.13947">
        <ele>1246.1</ele>
        <time>2017-07-30T08:14:51Z</time>
      </trkpt>
      <trkpt lat="42.60298" lon="-0.1395">
        <ele>1246.5</ele>
        <time>2017-07-30T08:14:53Z</time>
      </trkpt>
      <trkpt lat="42.60296" lon="-0.13952">
        <ele>1247</ele>
        <time>2017-07-30T08:14:55Z</time>
      </trkpt>
      <trkpt lat="42.60293" lon="-0.13956">
        <ele>1246.1</ele>
        <time>2017-07-30T08:14:58Z</time>
      </trkpt>
      <trkpt lat="42.6029" lon="-0.13959">
        <ele>1246.9</ele>
        <time>2017-07-30T08:15:01Z</time>
      </trkpt>
      <trkpt lat="42.60288" lon="-0.13962">
        <ele>1247.8</ele>
        <time>2017-07-30T08:15:03Z</time>
      </trkpt>
      <trkpt lat="42.60285" lon="-0.13964">
        <ele>1247.1</ele>
        <time>2017-07-30T08:15:05Z</time>
      </trkpt>
      <trkpt lat="42.60283" lon="-0.13968">
        <ele>1248.6</ele>
        <time>2017-07-30T08:15:07Z</time>
      </trkpt>
      <trkpt lat="42.60281" lon="-0.13971">
        <ele>1249.1</ele>
        <time>2017-07-30T08:15:09Z</time>
      </trkpt>
      <trkpt lat="42.60279" lon="-0.13975">
        <ele>1249.4</ele>
        <time>2017-07-30T08:15:11Z</time>
      </trkpt>
      <trkpt lat="42.60277" lon="-0.13978">
        <ele>1250.3</ele>
        <time>2017-07-30T08:15:13Z</time>
      </trkpt>
      <trkpt lat="42.60275" lon="-0.13982">
        <ele>1250.1</ele>
        <time>2017-07-30T08:15:15Z</time>
      </trkpt>
      <trkpt lat="42.60274" lon="-0.13986">
        <ele>1250.2</ele>
        <time>2017-07-30T08:15:17Z</time>
      </trkpt>
      <trkpt lat="42.60273" lon="-0.13989">
        <ele>1250.7</ele>
        <time>2017-07-30T08:15:19Z</time>
      </trkpt>
      <trkpt lat="42.60271" lon="-0.13993">
        <ele>1250.2</ele>
        <time>2017-07-30T08:15:21Z</time>
      </trkpt>
      <trkpt lat="42.6027" lon="-0.13997">
        <ele>1250.5</ele>
        <time>2017-07-30T08:15:23Z</time>
      </trkpt>
      <trkpt lat="42.60269" lon="-0.14001">
        <ele>1249.6</ele>
        <time>2017-07-30T08:15:25Z</time>
      </trkpt>
      <trkpt lat="42.60268" lon="-0.14005">
        <ele>1249.8</ele>
        <time>2017-07-30T08:15:27Z</time>
      </trkpt>
      <trkpt lat="42.60267" lon="-0.1401">
        <ele>1250.1</ele>
        <time>2017-07-30T08:15:29Z</time>
      </trkpt>
      <trkpt lat="42.60266" lon="-0.14015">
        <ele>1249.2</ele>
        <time>2017-07-30T08:15:31Z</time>
      </trkpt>
      <trkpt lat="42.60265" lon="-0.1402">
        <ele>1249.4</ele>
        <time>2017-07-30T08:15:33Z</time>
      </trkpt>
      <trkpt lat="42.60264" lon="-0.14025">
        <ele>1249.5</ele>
        <time>2017-07-30T08:15:35Z</time>
      </trkpt>
      <trkpt lat="42.60263" lon="-0.14029">
        <ele>1249.6</ele>
        <time>2017-07-30T08:15:37Z</time>
      </trkpt>
      <trkpt lat="42.60263" lon="-0.14034">
        <ele>1249.7</ele>
        <time>2017-07-30T08:15:39Z</time>
      </trkpt>
      <trkpt lat="42.60263" lon="-0.14038">
        <ele>1248.4</ele>
        <time>2017-07-30T08:15:41Z</time>
      </trkpt>
      <trkpt lat="42.60263" lon="-0.14043">
        <ele>1248.4</ele>
        <time>2017-07-30T08:15:43Z</time>
      </trkpt>
      <trkpt lat="42.60263" lon="-0.14047">
        <ele>1248.3</ele>
        <time>2017-07-30T08:15:45Z</time>
      </trkpt>
      <trkpt lat="42.60263" lon="-0.14051">
        <ele>1249.6</ele>
        <time>2017-07-30T08:15:47Z</time>
      </trkpt>
      <trkpt lat="42.60264" lon="-0.14056">
        <ele>1249.5</ele>
        <time>2017-07-30T08:15:49Z</time>
      </trkpt>
      <trkpt lat="42.60264" lon="-0.1406">
        <ele>1249.4</ele>
        <time>2017-07-30T08:15:51Z</time>
      </trkpt>
      <trkpt lat="42.60265" lon="-0.14064">
        <ele>1249.2</ele>
        <time>2017-07-30T08:15:53Z</time>
      </trkpt>
      <trkpt lat="42.60266" lon="-0.14068">
        <ele>1250.3</ele>
        <time>2017-07-30T08:15:55Z</time>
      </trkpt>
      <trkpt lat="42.60268" lon="-0.14072">
        <ele>1250</ele>
        <time>2017-07-30T08:15:57Z</time>
      </trkpt>
      <trkpt lat="42.6027" lon="-0.14076">
        <ele>1251.1</ele>
        <time>2017-07-30T08:15:59Z</time>
      </trkpt>
      <trkpt lat="42.60272" lon="-0.1408">
        <ele>1251.1</ele>
        <time>2017-07-30T08:16:01Z</time>
      </trkpt>
      <trkpt lat="42.60272" lon="-0.14085">
        <ele>1250.8</ele>
        <time>2017-07-30T08:16:04Z</time>
      </trkpt>
      <trkpt lat="42.60274" lon="-0.14089">
        <ele>1251.2</ele>
        <time>2017-07-30T08:16:07Z</time>
      </trkpt>
      <trkpt lat="42.60276" lon="-0.14092">
        <ele>1251.2</ele>
        <time>2017-07-30T08:16:09Z</time>
      </trkpt>
      <trkpt lat="42.60277" lon="-0.14095">
        <ele>1251.8</ele>
        <time>2017-07-30T08:16:11Z</time>
      </trkpt>
      <trkpt lat="42.60279" lon="-0.14098">
        <ele>1252.3</ele>
        <time>2017-07-30T08:16:13Z</time>
      </trkpt>
      <trkpt lat="42.60281" lon="-0.14101">
        <ele>1252.3</ele>
        <time>2017-07-30T08:16:15Z</time>
      </trkpt>
      <trkpt lat="42.60284" lon="-0.14102">
        <ele>1252.8</ele>
        <time>2017-07-30T08:16:17Z</time>
      </trkpt>
      <trkpt lat="42.60287" lon="-0.14102">
        <ele>1254.1</ele>
        <time>2017-07-30T08:16:19Z</time>
      </trkpt>
      <trkpt lat="42.6029" lon="-0.141">
        <ele>1256.1</ele>
        <time>2017-07-30T08:16:21Z</time>
      </trkpt>
      <trkpt lat="42.60291" lon="-0.14097">
        <ele>1256.8</ele>
        <time>2017-07-30T08:16:23Z</time>
      </trkpt>
      <trkpt lat="42.60291" lon="-0.14093">
        <ele>1257.5</ele>
        <time>2017-07-30T08:16:25Z</time>
      </trkpt>
      <trkpt lat="42.60289" lon="-0.14089">
        <ele>1258.2</ele>
        <time>2017-07-30T08:16:27Z</time>
      </trkpt>
      <trkpt lat="42.60287" lon="-0.14085">
        <ele>1256.6</ele>
        <time>2017-07-30T08:16:29Z</time>
      </trkpt>
      <trkpt lat="42.60286" lon="-0.14081">
        <ele>1257.1</ele>
        <time>2017-07-30T08:16:31Z</time>
      </trkpt>
      <trkpt lat="42.60284" lon="-0.14077">
        <ele>1256.1</ele>
        <time>2017-07-30T08:16:33Z</time>
      </trkpt>
      <trkpt lat="42.60283" lon="-0.14073">
        <ele>1256.6</ele>
        <time>2017-07-30T08:16:35Z</time>
      </trkpt>
      <trkpt lat="42.60282" lon="-0.14068">
        <ele>1257</ele>
        <time>2017-07-30T08:16:37Z</time>
      </trkpt>
      <trkpt lat="42.60282" lon="-0.14063">
        <ele>1255.9</ele>
        <time>2017-07-30T08:16:39Z</time>
      </trkpt>
      <trkpt lat="42.60282" lon="-0.14059">
        <ele>1256.4</ele>
        <time>2017-07-30T08:16:41Z</time>
      </trkpt>
      <trkpt lat="42.60282" lon="-0.14054">
        <ele>1258.1</ele>
        <time>2017-07-30T08:16:43Z</time>
      </trkpt>
      <trkpt lat="42.60283" lon="-0.1405">
        <ele>1258.3</ele>
        <time>2017-07-30T08:16:45Z</time>
      </trkpt>
      <trkpt lat="42.60283" lon="-0.14045">
        <ele>1258.4</ele>
        <time>2017-07-30T08:16:47Z</time>
      </trkpt>
      <trkpt lat="42.60284" lon="-0.14041">
        <ele>1258.4</ele>
        <time>2017-07-30T08:16:49Z</time>
      </trkpt>
      <trkpt lat="42.60285" lon="-0.14037">
        <ele>1258.3</ele>
        <time>2017-07-30T08:16:51Z</time>
      </trkpt>
      <trkpt lat="42.60286" lon="-0.14032">
        <ele>1259.9</ele>
        <time>2017-07-30T08:16:53Z</time>
      </trkpt>
      <trkpt lat="42.60288" lon="-0.14028">
        <ele>1259.8</ele>
        <time>2017-07-30T08:16:55Z</time>
      </trkpt>
      <trkpt lat="42.6029" lon="-0.14024">
        <ele>1261.4</ele>
        <time>2017-07-30T08:16:57Z</time>
      </trkpt>
      <trkpt lat="42.60292" lon="-0.1402">
        <ele>1263.1</ele>
        <time>2017-07-30T08:16:59Z</time>
      </trkpt>
      <trkpt lat="42.60295" lon="-0.14016">
        <ele>1264.5</ele>
        <time>2017-07-30T08:17:01Z</time>
      </trkpt>
      <trkpt lat="42.60298" lon="-0.14012">
        <ele>1264</ele>
        <time>2017-07-30T08:17:03Z</time>
      </trkpt>
      <trkpt lat="42.60301" lon="-0.14008">
        <ele>1265</ele>
        <time>2017-07-30T08:17:05Z</time>
      </trkpt>
      <trkpt lat="42.60304" lon="-0.14004">
        <ele>1266.4</ele>
        <time>2017-07-30T08:17:07Z</time>
      </trkpt>
      <trkpt lat="42.60307" lon="-0.14001">
        <ele>1266.8</ele>
        <time>2017-07-30T08:17:09Z</time>
      </trkpt>
      <trkpt lat="42.6031" lon="-0.13998">
        <ele>1267</ele>
        <time>2017-07-30T08:17:11Z</time>
      </trkpt>
      <trkpt lat="42.60314" lon="-0.13996">
        <ele>1269.2</ele>
        <time>2017-07-30T08:17:13Z</time>
      </trkpt>
      <trkpt lat="42.60318" lon="-0.13994">
        <ele>1269.1</ele>
        <time>2017-07-30T08:17:15Z</time>
      </trkpt>
      <trkpt lat="42.60323" lon="-0.13993">
        <ele>1270.2</ele>
        <time>2017-07-30T08:17:17Z</time>
      </trkpt>
      <trkpt lat="42.60326" lon="-0.13992">
        <ele>1272.2</ele>
        <time>2017-07-30T08:17:19Z</time>
      </trkpt>
      <trkpt lat="42.6033" lon="-0.13992">
        <ele>1273</ele>
        <time>2017-07-30T08:17:21Z</time>
      </trkpt>
      <trkpt lat="42.60333" lon="-0.13991">
        <ele>1273</ele>
        <time>2017-07-30T08:17:23Z</time>
      </trkpt>
      <trkpt lat="42.60335" lon="-0.1399">
        <ele>1272.4</ele>
        <time>2017-07-30T08:17:25Z</time>
      </trkpt>
      <trkpt lat="42.60339" lon="-0.13988">
        <ele>1272</ele>
        <time>2017-07-30T08:17:27Z</time>
      </trkpt>
      <trkpt lat="42.60342" lon="-0.13987">
        <ele>1271.4</ele>
        <time>2017-07-30T08:17:29Z</time>
      </trkpt>
      <trkpt lat="42.60345" lon="-0.13986">
        <ele>1270.9</ele>
        <time>2017-07-30T08:17:31Z</time>
      </trkpt>
      <trkpt lat="42.60348" lon="-0.13985">
        <ele>1270.5</ele>
        <time>2017-07-30T08:17:33Z</time>
      </trkpt>
      <trkpt lat="42.60351" lon="-0.13984">
        <ele>1270.2</ele>
        <time>2017-07-30T08:17:35Z</time>
      </trkpt>
      <trkpt lat="42.60354" lon="-0.13982">
        <ele>1269.9</ele>
        <time>2017-07-30T08:17:37Z</time>
      </trkpt>
      <trkpt lat="42.60357" lon="-0.1398">
        <ele>1269.6</ele>
        <time>2017-07-30T08:17:39Z</time>
      </trkpt>
      <trkpt lat="42.6036" lon="-0.13979">
        <ele>1269.2</ele>
        <time>2017-07-30T08:17:41Z</time>
      </trkpt>
      <trkpt lat="42.60363" lon="-0.13978">
        <ele>1268.8</ele>
        <time>2017-07-30T08:17:43Z</time>
      </trkpt>
      <trkpt lat="42.60366" lon="-0.13978">
        <ele>1268.3</ele>
        <time>2017-07-30T08:17:45Z</time>
      </trkpt>
      <trkpt lat="42.60369" lon="-0.13977">
        <ele>1268.4</ele>
        <time>2017-07-30T08:17:47Z</time>
      </trkpt>
      <trkpt lat="42.60372" lon="-0.13975">
        <ele>1268.6</ele>
        <time>2017-07-30T08:17:49Z</time>
      </trkpt>
      <trkpt lat="42.60375" lon="-0.13973">
        <ele>1268.8</ele>
        <time>2017-07-30T08:17:51Z</time>
      </trkpt>
      <trkpt lat="42.60377" lon="-0.13972">
        <ele>1268.9</ele>
        <time>2017-07-30T08:17:53Z</time>
      </trkpt>
      <trkpt lat="42.6038" lon="-0.13969">
        <ele>1269</ele>
        <time>2017-07-30T08:17:55Z</time>
      </trkpt>
      <trkpt lat="42.60382" lon="-0.13967">
        <ele>1269.1</ele>
        <time>2017-07-30T08:17:57Z</time>
      </trkpt>
      <trkpt lat="42.60384" lon="-0.13963">
        <ele>1269.2</ele>
        <time>2017-07-30T08:17:59Z</time>
      </trkpt>
      <trkpt lat="42.60386" lon="-0.1396">
        <ele>1269.5</ele>
        <time>2017-07-30T08:18:01Z</time>
      </trkpt>
      <trkpt lat="42.60388" lon="-0.13956">
        <ele>1269.8</ele>
        <time>2017-07-30T08:18:03Z</time>
      </trkpt>
      <trkpt lat="42.6039" lon="-0.13952">
        <ele>1270</ele>
        <time>2017-07-30T08:18:05Z</time>
      </trkpt>
      <trkpt lat="42.60391" lon="-0.13948">
        <ele>1269.8</ele>
        <time>2017-07-30T08:18:07Z</time>
      </trkpt>
      <trkpt lat="42.60393" lon="-0.13944">
        <ele>1269.7</ele>
        <time>2017-07-30T08:18:09Z</time>
      </trkpt>
      <trkpt lat="42.60394" lon="-0.13939">
        <ele>1269.8</ele>
        <time>2017-07-30T08:18:11Z</time>
      </trkpt>
      <trkpt lat="42.60395" lon="-0.13934">
        <ele>1269.2</ele>
        <time>2017-07-30T08:18:13Z</time>
      </trkpt>
      <trkpt lat="42.60396" lon="-0.1393">
        <ele>1268.8</ele>
        <time>2017-07-30T08:18:15Z</time>
      </trkpt>
      <trkpt lat="42.60396" lon="-0.13925">
        <ele>1270</ele>
        <time>2017-07-30T08:18:17Z</time>
      </trkpt>
      <trkpt lat="42.60397" lon="-0.13921">
        <ele>1269.6</ele>
        <time>2017-07-30T08:18:19Z</time>
      </trkpt>
      <trkpt lat="42.60399" lon="-0.13917">
        <ele>1269.2</ele>
        <time>2017-07-30T08:18:21Z</time>
      </trkpt>
      <trkpt lat="42.604" lon="-0.13913">
        <ele>1270.5</ele>
        <time>2017-07-30T08:18:23Z</time>
      </trkpt>
      <trkpt lat="42.60401" lon="-0.13908">
        <ele>1270</ele>
        <time>2017-07-30T08:18:25Z</time>
      </trkpt>
      <trkpt lat="42.60403" lon="-0.13903">
        <ele>1271.1</ele>
        <time>2017-07-30T08:18:27Z</time>
      </trkpt>
      <trkpt lat="42.60404" lon="-0.13899">
        <ele>1270.4</ele>
        <time>2017-07-30T08:18:29Z</time>
      </trkpt>
      <trkpt lat="42.60406" lon="-0.13895">
        <ele>1271.4</ele>
        <time>2017-07-30T08:18:31Z</time>
      </trkpt>
      <trkpt lat="42.60407" lon="-0.13891">
        <ele>1270.7</ele>
        <time>2017-07-30T08:18:33Z</time>
      </trkpt>
      <trkpt lat="42.60409" lon="-0.13887">
        <ele>1271.5</ele>
        <time>2017-07-30T08:18:35Z</time>
      </trkpt>
      <trkpt lat="42.60411" lon="-0.13883">
        <ele>1271.6</ele>
        <time>2017-07-30T08:18:37Z</time>
      </trkpt>
      <trkpt lat="42.60413" lon="-0.13879">
        <ele>1272.3</ele>
        <time>2017-07-30T08:18:39Z</time>
      </trkpt>
      <trkpt lat="42.60414" lon="-0.13875">
        <ele>1271.5</ele>
        <time>2017-07-30T08:18:41Z</time>
      </trkpt>
      <trkpt lat="42.60416" lon="-0.13871">
        <ele>1272.1</ele>
        <time>2017-07-30T08:18:43Z</time>
      </trkpt>
      <trkpt lat="42.60418" lon="-0.13865">
        <ele>1272.1</ele>
        <time>2017-07-30T08:18:45Z</time>
      </trkpt>
      <trkpt lat="42.6042" lon="-0.13861">
        <ele>1271.6</ele>
        <time>2017-07-30T08:18:47Z</time>
      </trkpt>
      <trkpt lat="42.60421" lon="-0.13858">
        <ele>1273.2</ele>
        <time>2017-07-30T08:18:49Z</time>
      </trkpt>
      <trkpt lat="42.60423" lon="-0.13855">
        <ele>1272.7</ele>
        <time>2017-07-30T08:18:51Z</time>
      </trkpt>
      <trkpt lat="42.60424" lon="-0.13852">
        <ele>1272.3</ele>
        <time>2017-07-30T08:18:53Z</time>
      </trkpt>
      <trkpt lat="42.60426" lon="-0.13847">
        <ele>1273.2</ele>
        <time>2017-07-30T08:18:56Z</time>
      </trkpt>
      <trkpt lat="42.60427" lon="-0.13843">
        <ele>1272.7</ele>
        <time>2017-07-30T08:18:58Z</time>
      </trkpt>
      <trkpt lat="42.60428" lon="-0.1384">
        <ele>1273.5</ele>
        <time>2017-07-30T08:19:00Z</time>
      </trkpt>
      <trkpt lat="42.60429" lon="-0.13836">
        <ele>1273.6</ele>
        <time>2017-07-30T08:19:02Z</time>
      </trkpt>
      <trkpt lat="42.60431" lon="-0.13833">
        <ele>1274.5</ele>
        <time>2017-07-30T08:19:04Z</time>
      </trkpt>
      <trkpt lat="42.60434" lon="-0.13831">
        <ele>1274.1</ele>
        <time>2017-07-30T08:19:06Z</time>
      </trkpt>
      <trkpt lat="42.60436" lon="-0.13829">
        <ele>1275.4</ele>
        <time>2017-07-30T08:19:08Z</time>
      </trkpt>
      <trkpt lat="42.6044" lon="-0.13831">
        <ele>1277.9</ele>
        <time>2017-07-30T08:19:11Z</time>
      </trkpt>
      <trkpt lat="42.60441" lon="-0.13834">
        <ele>1278.3</ele>
        <time>2017-07-30T08:19:13Z</time>
      </trkpt>
      <trkpt lat="42.60441" lon="-0.13838">
        <ele>1278.9</ele>
        <time>2017-07-30T08:19:15Z</time>
      </trkpt>
      <trkpt lat="42.60438" lon="-0.13842">
        <ele>1278.4</ele>
        <time>2017-07-30T08:19:17Z</time>
      </trkpt>
      <trkpt lat="42.60435" lon="-0.13845">
        <ele>1278</ele>
        <time>2017-07-30T08:19:19Z</time>
      </trkpt>
      <trkpt lat="42.60432" lon="-0.13847">
        <ele>1276.7</ele>
        <time>2017-07-30T08:19:21Z</time>
      </trkpt>
      <trkpt lat="42.60431" lon="-0.1385">
        <ele>1277.5</ele>
        <time>2017-07-30T08:19:23Z</time>
      </trkpt>
      <trkpt lat="42.6043" lon="-0.13854">
        <ele>1276.7</ele>
        <time>2017-07-30T08:19:25Z</time>
      </trkpt>
      <trkpt lat="42.60429" lon="-0.13859">
        <ele>1277.4</ele>
        <time>2017-07-30T08:19:27Z</time>
      </trkpt>
      <trkpt lat="42.60429" lon="-0.13863">
        <ele>1278.1</ele>
        <time>2017-07-30T08:19:29Z</time>
      </trkpt>
      <trkpt lat="42.60429" lon="-0.13867">
        <ele>1278.9</ele>
        <time>2017-07-30T08:19:31Z</time>
      </trkpt>
      <trkpt lat="42.60428" lon="-0.13871">
        <ele>1279.8</ele>
        <time>2017-07-30T08:19:33Z</time>
      </trkpt>
      <trkpt lat="42.60427" lon="-0.13875">
        <ele>1278.2</ele>
        <time>2017-07-30T08:19:35Z</time>
      </trkpt>
      <trkpt lat="42.60426" lon="-0.13879">
        <ele>1279.1</ele>
        <time>2017-07-30T08:19:37Z</time>
      </trkpt>
      <trkpt lat="42.60426" lon="-0.13882">
        <ele>1280.1</ele>
        <time>2017-07-30T08:19:39Z</time>
      </trkpt>
      <trkpt lat="42.60424" lon="-0.13886">
        <ele>1280.9</ele>
        <time>2017-07-30T08:19:41Z</time>
      </trkpt>
      <trkpt lat="42.60423" lon="-0.13889">
        <ele>1280.1</ele>
        <time>2017-07-30T08:19:43Z</time>
      </trkpt>
      <trkpt lat="42.60423" lon="-0.13893">
        <ele>1280.8</ele>
        <time>2017-07-30T08:19:45Z</time>
      </trkpt>
      <trkpt lat="42.60422" lon="-0.13898">
        <ele>1281.5</ele>
        <time>2017-07-30T08:19:47Z</time>
      </trkpt>
      <trkpt lat="42.60422" lon="-0.13902">
        <ele>1282.3</ele>
        <time>2017-07-30T08:19:49Z</time>
      </trkpt>
      <trkpt lat="42.60422" lon="-0.13905">
        <ele>1282.9</ele>
        <time>2017-07-30T08:19:51Z</time>
      </trkpt>
      <trkpt lat="42.60422" lon="-0.13909">
        <ele>1283.5</ele>
        <time>2017-07-30T08:19:53Z</time>
      </trkpt>
      <trkpt lat="42.60422" lon="-0.13914">
        <ele>1284</ele>
        <time>2017-07-30T08:19:55Z</time>
      </trkpt>
      <trkpt lat="42.60421" lon="-0.13918">
        <ele>1284.4</ele>
        <time>2017-07-30T08:19:57Z</time>
      </trkpt>
      <trkpt lat="42.60421" lon="-0.13922">
        <ele>1284.8</ele>
        <time>2017-07-30T08:19:59Z</time>
      </trkpt>
      <trkpt lat="42.60421" lon="-0.13926">
        <ele>1284.9</ele>
        <time>2017-07-30T08:20:01Z</time>
      </trkpt>
      <trkpt lat="42.60421" lon="-0.13929">
        <ele>1285.3</ele>
        <time>2017-07-30T08:20:03Z</time>
      </trkpt>
      <trkpt lat="42.60421" lon="-0.13933">
        <ele>1285.8</ele>
        <time>2017-07-30T08:20:05Z</time>
      </trkpt>
      <trkpt lat="42.60421" lon="-0.13937">
        <ele>1286.2</ele>
        <time>2017-07-30T08:20:07Z</time>
      </trkpt>
      <trkpt lat="42.60421" lon="-0.13941">
        <ele>1286.5</ele>
        <time>2017-07-30T08:20:09Z</time>
      </trkpt>
      <trkpt lat="42.60421" lon="-0.13945">
        <ele>1286.7</ele>
        <time>2017-07-30T08:20:11Z</time>
      </trkpt>
      <trkpt lat="42.60421" lon="-0.13949">
        <ele>1286.9</ele>
        <time>2017-07-30T08:20:13Z</time>
      </trkpt>
      <trkpt lat="42.60421" lon="-0.13954">
        <ele>1285.6</ele>
        <time>2017-07-30T08:20:16Z</time>
      </trkpt>
      <trkpt lat="42.60421" lon="-0.13958">
        <ele>1286</ele>
        <time>2017-07-30T08:20:19Z</time>
      </trkpt>
      <trkpt lat="42.6042" lon="-0.13964">
        <ele>1286.5</ele>
        <time>2017-07-30T08:20:22Z</time>
      </trkpt>
      <trkpt lat="42.6042" lon="-0.13968">
        <ele>1287</ele>
        <time>2017-07-30T08:20:24Z</time>
      </trkpt>
      <trkpt lat="42.6042" lon="-0.13971">
        <ele>1287.7</ele>
        <time>2017-07-30T08:20:26Z</time>
      </trkpt>
      <trkpt lat="42.6042" lon="-0.13976">
        <ele>1288.5</ele>
        <time>2017-07-30T08:20:29Z</time>
      </trkpt>
      <trkpt lat="42.60418" lon="-0.13981">
        <ele>1289.5</ele>
        <time>2017-07-30T08:20:32Z</time>
      </trkpt>
      <trkpt lat="42.60417" lon="-0.13986">
        <ele>1290.8</ele>
        <time>2017-07-30T08:20:35Z</time>
      </trkpt>
      <trkpt lat="42.60416" lon="-0.1399">
        <ele>1290.9</ele>
        <time>2017-07-30T08:20:37Z</time>
      </trkpt>
      <trkpt lat="42.60415" lon="-0.13995">
        <ele>1293.8</ele>
        <time>2017-07-30T08:20:40Z</time>
      </trkpt>
      <trkpt lat="42.60414" lon="-0.13999">
        <ele>1294</ele>
        <time>2017-07-30T08:20:42Z</time>
      </trkpt>
      <trkpt lat="42.60412" lon="-0.14002">
        <ele>1294</ele>
        <time>2017-07-30T08:20:44Z</time>
      </trkpt>
      <trkpt lat="42.6041" lon="-0.14005">
        <ele>1294.1</ele>
        <time>2017-07-30T08:20:46Z</time>
      </trkpt>
      <trkpt lat="42.60409" lon="-0.14009">
        <ele>1295.3</ele>
        <time>2017-07-30T08:20:48Z</time>
      </trkpt>
      <trkpt lat="42.60407" lon="-0.14012">
        <ele>1295.3</ele>
        <time>2017-07-30T08:20:50Z</time>
      </trkpt>
      <trkpt lat="42.60405" lon="-0.14017">
        <ele>1295.1</ele>
        <time>2017-07-30T08:20:53Z</time>
      </trkpt>
      <trkpt lat="42.60403" lon="-0.1402">
        <ele>1295.2</ele>
        <time>2017-07-30T08:20:55Z</time>
      </trkpt>
      <trkpt lat="42.60401" lon="-0.14022">
        <ele>1294.9</ele>
        <time>2017-07-30T08:20:57Z</time>
      </trkpt>
      <trkpt lat="42.60399" lon="-0.14025">
        <ele>1294.6</ele>
        <time>2017-07-30T08:20:59Z</time>
      </trkpt>
      <trkpt lat="42.60397" lon="-0.14028">
        <ele>1294.7</ele>
        <time>2017-07-30T08:21:01Z</time>
      </trkpt>
      <trkpt lat="42.60395" lon="-0.14031">
        <ele>1294.4</ele>
        <time>2017-07-30T08:21:03Z</time>
      </trkpt>
      <trkpt lat="42.60393" lon="-0.14035">
        <ele>1294.9</ele>
        <time>2017-07-30T08:21:05Z</time>
      </trkpt>
      <trkpt lat="42.60392" lon="-0.14038">
        <ele>1294.4</ele>
        <time>2017-07-30T08:21:07Z</time>
      </trkpt>
      <trkpt lat="42.60391" lon="-0.14043">
        <ele>1295.2</ele>
        <time>2017-07-30T08:21:09Z</time>
      </trkpt>
      <trkpt lat="42.60391" lon="-0.14047">
        <ele>1296</ele>
        <time>2017-07-30T08:21:11Z</time>
      </trkpt>
      <trkpt lat="42.6039" lon="-0.14051">
        <ele>1296.9</ele>
        <time>2017-07-30T08:21:13Z</time>
      </trkpt>
      <trkpt lat="42.6039" lon="-0.14056">
        <ele>1297.8</ele>
        <time>2017-07-30T08:21:15Z</time>
      </trkpt>
      <trkpt lat="42.60391" lon="-0.1406">
        <ele>1298.7</ele>
        <time>2017-07-30T08:21:17Z</time>
      </trkpt>
      <trkpt lat="42.60393" lon="-0.14064">
        <ele>1299.8</ele>
        <time>2017-07-30T08:21:19Z</time>
      </trkpt>
      <trkpt lat="42.60395" lon="-0.14068">
        <ele>1301.1</ele>
        <time>2017-07-30T08:21:21Z</time>
      </trkpt>
      <trkpt lat="42.60396" lon="-0.14072">
        <ele>1302.2</ele>
        <time>2017-07-30T08:21:23Z</time>
      </trkpt>
      <trkpt lat="42.60398" lon="-0.14076">
        <ele>1303.1</ele>
        <time>2017-07-30T08:21:25Z</time>
      </trkpt>
      <trkpt lat="42.604" lon="-0.1408">
        <ele>1304</ele>
        <time>2017-07-30T08:21:27Z</time>
      </trkpt>
      <trkpt lat="42.60402" lon="-0.14083">
        <ele>1304.4</ele>
        <time>2017-07-30T08:21:29Z</time>
      </trkpt>
      <trkpt lat="42.60404" lon="-0.14087">
        <ele>1304.8</ele>
        <time>2017-07-30T08:21:31Z</time>
      </trkpt>
      <trkpt lat="42.60406" lon="-0.14091">
        <ele>1304.7</ele>
        <time>2017-07-30T08:21:33Z</time>
      </trkpt>
      <trkpt lat="42.60407" lon="-0.14094">
        <ele>1304.4</ele>
        <time>2017-07-30T08:21:35Z</time>
      </trkpt>
      <trkpt lat="42.6041" lon="-0.14098">
        <ele>1304</ele>
        <time>2017-07-30T08:21:38Z</time>
      </trkpt>
      <trkpt lat="42.60412" lon="-0.14102">
        <ele>1303.7</ele>
        <time>2017-07-30T08:21:41Z</time>
      </trkpt>
      <trkpt lat="42.60415" lon="-0.14106">
        <ele>1303.3</ele>
        <time>2017-07-30T08:21:44Z</time>
      </trkpt>
      <trkpt lat="42.60417" lon="-0.14109">
        <ele>1303.1</ele>
        <time>2017-07-30T08:21:46Z</time>
      </trkpt>
      <trkpt lat="42.60419" lon="-0.14112">
        <ele>1302.8</ele>
        <time>2017-07-30T08:21:48Z</time>
      </trkpt>
      <trkpt lat="42.6042" lon="-0.14116">
        <ele>1303.2</ele>
        <time>2017-07-30T08:21:50Z</time>
      </trkpt>
      <trkpt lat="42.60421" lon="-0.1412">
        <ele>1303.9</ele>
        <time>2017-07-30T08:21:52Z</time>
      </trkpt>
      <trkpt lat="42.60422" lon="-0.14124">
        <ele>1304.5</ele>
        <time>2017-07-30T08:21:54Z</time>
      </trkpt>
      <trkpt lat="42.60424" lon="-0.14128">
        <ele>1304.6</ele>
        <time>2017-07-30T08:21:56Z</time>
      </trkpt>
      <trkpt lat="42.60426" lon="-0.14131">
        <ele>1304.7</ele>
        <time>2017-07-30T08:21:58Z</time>
      </trkpt>
      <trkpt lat="42.60427" lon="-0.14134">
        <ele>1304.9</ele>
        <time>2017-07-30T08:22:00Z</time>
      </trkpt>
      <trkpt lat="42.60429" lon="-0.14137">
        <ele>1305</ele>
        <time>2017-07-30T08:22:02Z</time>
      </trkpt>
      <trkpt lat="42.60431" lon="-0.1414">
        <ele>1305.2</ele>
        <time>2017-07-30T08:22:04Z</time>
      </trkpt>
      <trkpt lat="42.60433" lon="-0.14144">
        <ele>1305.3</ele>
        <time>2017-07-30T08:22:06Z</time>
      </trkpt>
      <trkpt lat="42.60435" lon="-0.14147">
        <ele>1305.5</ele>
        <time>2017-07-30T08:22:08Z</time>
      </trkpt>
      <trkpt lat="42.60437" lon="-0.1415">
        <ele>1305.7</ele>
        <time>2017-07-30T08:22:10Z</time>
      </trkpt>
      <trkpt lat="42.60439" lon="-0.14153">
        <ele>1305.9</ele>
        <time>2017-07-30T08:22:12Z</time>
      </trkpt>
      <trkpt lat="42.60441" lon="-0.14156">
        <ele>1306.2</ele>
        <time>2017-07-30T08:22:14Z</time>
      </trkpt>
      <trkpt lat="42.60443" lon="-0.14159">
        <ele>1306.4</ele>
        <time>2017-07-30T08:22:16Z</time>
      </trkpt>
      <trkpt lat="42.60445" lon="-0.14162">
        <ele>1306.6</ele>
        <time>2017-07-30T08:22:18Z</time>
      </trkpt>
      <trkpt lat="42.60447" lon="-0.14165">
        <ele>1306.9</ele>
        <time>2017-07-30T08:22:20Z</time>
      </trkpt>
      <trkpt lat="42.60449" lon="-0.14169">
        <ele>1307</ele>
        <time>2017-07-30T08:22:22Z</time>
      </trkpt>
      <trkpt lat="42.6045" lon="-0.14172">
        <ele>1307.1</ele>
        <time>2017-07-30T08:22:24Z</time>
      </trkpt>
      <trkpt lat="42.60451" lon="-0.14176">
        <ele>1307.2</ele>
        <time>2017-07-30T08:22:26Z</time>
      </trkpt>
      <trkpt lat="42.60452" lon="-0.1418">
        <ele>1307.2</ele>
        <time>2017-07-30T08:22:28Z</time>
      </trkpt>
      <trkpt lat="42.60453" lon="-0.14184">
        <ele>1307.4</ele>
        <time>2017-07-30T08:22:30Z</time>
      </trkpt>
      <trkpt lat="42.60455" lon="-0.14187">
        <ele>1307.5</ele>
        <time>2017-07-30T08:22:32Z</time>
      </trkpt>
      <trkpt lat="42.60457" lon="-0.14191">
        <ele>1307.6</ele>
        <time>2017-07-30T08:22:34Z</time>
      </trkpt>
      <trkpt lat="42.60458" lon="-0.14194">
        <ele>1307.6</ele>
        <time>2017-07-30T08:22:36Z</time>
      </trkpt>
      <trkpt lat="42.60459" lon="-0.14198">
        <ele>1307.6</ele>
        <time>2017-07-30T08:22:38Z</time>
      </trkpt>
      <trkpt lat="42.6046" lon="-0.14202">
        <ele>1307.7</ele>
        <time>2017-07-30T08:22:40Z</time>
      </trkpt>
      <trkpt lat="42.60461" lon="-0.14206">
        <ele>1307.8</ele>
        <time>2017-07-30T08:22:42Z</time>
      </trkpt>
      <trkpt lat="42.60462" lon="-0.1421">
        <ele>1307.9</ele>
        <time>2017-07-30T08:22:44Z</time>
      </trkpt>
      <trkpt lat="42.60462" lon="-0.14214">
        <ele>1308</ele>
        <time>2017-07-30T08:22:46Z</time>
      </trkpt>
      <trkpt lat="42.60463" lon="-0.14218">
        <ele>1308.1</ele>
        <time>2017-07-30T08:22:48Z</time>
      </trkpt>
      <trkpt lat="42.60464" lon="-0.14222">
        <ele>1308.1</ele>
        <time>2017-07-30T08:22:50Z</time>
      </trkpt>
      <trkpt lat="42.60464" lon="-0.14226">
        <ele>1308.2</ele>
        <time>2017-07-30T08:22:52Z</time>
      </trkpt>
      <trkpt lat="42.60465" lon="-0.1423">
        <ele>1308.3</ele>
        <time>2017-07-30T08:22:54Z</time>
      </trkpt>
      <trkpt lat="42.60466" lon="-0.14234">
        <ele>1308.4</ele>
        <time>2017-07-30T08:22:56Z</time>
      </trkpt>
      <trkpt lat="42.60466" lon="-0.14238">
        <ele>1308.5</ele>
        <time>2017-07-30T08:22:58Z</time>
      </trkpt>
      <trkpt lat="42.60467" lon="-0.14242">
        <ele>1308.6</ele>
        <time>2017-07-30T08:23:00Z</time>
      </trkpt>
      <trkpt lat="42.60468" lon="-0.14247">
        <ele>1308.6</ele>
        <time>2017-07-30T08:23:02Z</time>
      </trkpt>
      <trkpt lat="42.60468" lon="-0.14252">
        <ele>1308.7</ele>
        <time>2017-07-30T08:23:04Z</time>
      </trkpt>
      <trkpt lat="42.60468" lon="-0.14256">
        <ele>1308.7</ele>
        <time>2017-07-30T08:23:06Z</time>
      </trkpt>
      <trkpt lat="42.60468" lon="-0.1426">
        <ele>1308.7</ele>
        <time>2017-07-30T08:23:08Z</time>
      </trkpt>
      <trkpt lat="42.60468" lon="-0.14264">
        <ele>1308.8</ele>
        <time>2017-07-30T08:23:10Z</time>
      </trkpt>
      <trkpt lat="42.60468" lon="-0.14267">
        <ele>1309</ele>
        <time>2017-07-30T08:23:12Z</time>
      </trkpt>
      <trkpt lat="42.60469" lon="-0.14271">
        <ele>1309.2</ele>
        <time>2017-07-30T08:23:14Z</time>
      </trkpt>
      <trkpt lat="42.60469" lon="-0.14277">
        <ele>1309.3</ele>
        <time>2017-07-30T08:23:17Z</time>
      </trkpt>
      <trkpt lat="42.60469" lon="-0.14281">
        <ele>1309.5</ele>
        <time>2017-07-30T08:23:20Z</time>
      </trkpt>
      <trkpt lat="42.6047" lon="-0.14287">
        <ele>1309.8</ele>
        <time>2017-07-30T08:23:23Z</time>
      </trkpt>
      <trkpt lat="42.6047" lon="-0.14292">
        <ele>1310.1</ele>
        <time>2017-07-30T08:23:26Z</time>
      </trkpt>
      <trkpt lat="42.6047" lon="-0.14297">
        <ele>1310.6</ele>
        <time>2017-07-30T08:23:29Z</time>
      </trkpt>
      <trkpt lat="42.60469" lon="-0.14302">
        <ele>1311.2</ele>
        <time>2017-07-30T08:23:32Z</time>
      </trkpt>
      <trkpt lat="42.60468" lon="-0.14307">
        <ele>1312.5</ele>
        <time>2017-07-30T08:23:35Z</time>
      </trkpt>
      <trkpt lat="42.60468" lon="-0.14312">
        <ele>1313.7</ele>
        <time>2017-07-30T08:23:38Z</time>
      </trkpt>
      <trkpt lat="42.60467" lon="-0.14317">
        <ele>1314.9</ele>
        <time>2017-07-30T08:23:41Z</time>
      </trkpt>
      <trkpt lat="42.60466" lon="-0.14323">
        <ele>1316</ele>
        <time>2017-07-30T08:23:44Z</time>
      </trkpt>
      <trkpt lat="42.60464" lon="-0.14327">
        <ele>1316</ele>
        <time>2017-07-30T08:23:47Z</time>
      </trkpt>
      <trkpt lat="42.60462" lon="-0.14332">
        <ele>1316.5</ele>
        <time>2017-07-30T08:23:50Z</time>
      </trkpt>
      <trkpt lat="42.60461" lon="-0.14336">
        <ele>1317.2</ele>
        <time>2017-07-30T08:23:52Z</time>
      </trkpt>
      <trkpt lat="42.60461" lon="-0.1434">
        <ele>1317.9</ele>
        <time>2017-07-30T08:23:54Z</time>
      </trkpt>
      <trkpt lat="42.60459" lon="-0.14345">
        <ele>1318.5</ele>
        <time>2017-07-30T08:23:57Z</time>
      </trkpt>
      <trkpt lat="42.60458" lon="-0.14348">
        <ele>1318.9</ele>
        <time>2017-07-30T08:23:59Z</time>
      </trkpt>
      <trkpt lat="42.60456" lon="-0.14351">
        <ele>1319.3</ele>
        <time>2017-07-30T08:24:01Z</time>
      </trkpt>
      <trkpt lat="42.60454" lon="-0.14354">
        <ele>1319.8</ele>
        <time>2017-07-30T08:24:03Z</time>
      </trkpt>
      <trkpt lat="42.60453" lon="-0.14357">
        <ele>1320.2</ele>
        <time>2017-07-30T08:24:05Z</time>
      </trkpt>
      <trkpt lat="42.60451" lon="-0.1436">
        <ele>1320.8</ele>
        <time>2017-07-30T08:24:07Z</time>
      </trkpt>
      <trkpt lat="42.6045" lon="-0.14363">
        <ele>1321.5</ele>
        <time>2017-07-30T08:24:09Z</time>
      </trkpt>
      <trkpt lat="42.60448" lon="-0.14367">
        <ele>1322.2</ele>
        <time>2017-07-30T08:24:11Z</time>
      </trkpt>
      <trkpt lat="42.60447" lon="-0.1437">
        <ele>1323.2</ele>
        <time>2017-07-30T08:24:13Z</time>
      </trkpt>
      <trkpt lat="42.60446" lon="-0.14374">
        <ele>1324.3</ele>
        <time>2017-07-30T08:24:15Z</time>
      </trkpt>
      <trkpt lat="42.60445" lon="-0.14377">
        <ele>1325.2</ele>
        <time>2017-07-30T08:24:17Z</time>
      </trkpt>
      <trkpt lat="42.60444" lon="-0.14381">
        <ele>1325.9</ele>
        <time>2017-07-30T08:24:19Z</time>
      </trkpt>
      <trkpt lat="42.60442" lon="-0.14384">
        <ele>1326</ele>
        <time>2017-07-30T08:24:21Z</time>
      </trkpt>
      <trkpt lat="42.60441" lon="-0.14387">
        <ele>1326.8</ele>
        <time>2017-07-30T08:24:23Z</time>
      </trkpt>
      <trkpt lat="42.6044" lon="-0.14391">
        <ele>1327.2</ele>
        <time>2017-07-30T08:24:25Z</time>
      </trkpt>
      <trkpt lat="42.60438" lon="-0.14395">
        <ele>1328.5</ele>
        <time>2017-07-30T08:24:28Z</time>
      </trkpt>
      <trkpt lat="42.60437" lon="-0.14399">
        <ele>1330</ele>
        <time>2017-07-30T08:24:30Z</time>
      </trkpt>
      <trkpt lat="42.60436" lon="-0.14402">
        <ele>1329.4</ele>
        <time>2017-07-30T08:24:32Z</time>
      </trkpt>
      <trkpt lat="42.60435" lon="-0.14406">
        <ele>1331</ele>
        <time>2017-07-30T08:24:34Z</time>
      </trkpt>
      <trkpt lat="42.60433" lon="-0.14409">
        <ele>1331.7</ele>
        <time>2017-07-30T08:24:36Z</time>
      </trkpt>
      <trkpt lat="42.60432" lon="-0.14414">
        <ele>1333</ele>
        <time>2017-07-30T08:24:39Z</time>
      </trkpt>
      <trkpt lat="42.6043" lon="-0.14419">
        <ele>1333</ele>
        <time>2017-07-30T08:24:42Z</time>
      </trkpt>
      <trkpt lat="42.60428" lon="-0.14423">
        <ele>1334</ele>
        <time>2017-07-30T08:24:45Z</time>
      </trkpt>
      <trkpt lat="42.60426" lon="-0.14427">
        <ele>1333.8</ele>
        <time>2017-07-30T08:24:47Z</time>
      </trkpt>
      <trkpt lat="42.60425" lon="-0.1443">
        <ele>1334.9</ele>
        <time>2017-07-30T08:24:49Z</time>
      </trkpt>
      <trkpt lat="42.60424" lon="-0.14434">
        <ele>1336</ele>
        <time>2017-07-30T08:24:51Z</time>
      </trkpt>
      <trkpt lat="42.60423" lon="-0.14439">
        <ele>1335.9</ele>
        <time>2017-07-30T08:24:54Z</time>
      </trkpt>
      <trkpt lat="42.60421" lon="-0.14443">
        <ele>1335.8</ele>
        <time>2017-07-30T08:24:57Z</time>
      </trkpt>
      <trkpt lat="42.60419" lon="-0.14446">
        <ele>1336.7</ele>
        <time>2017-07-30T08:24:59Z</time>
      </trkpt>
      <trkpt lat="42.60416" lon="-0.1445">
        <ele>1336.7</ele>
        <time>2017-07-30T08:25:02Z</time>
      </trkpt>
      <trkpt lat="42.60414" lon="-0.14453">
        <ele>1335.5</ele>
        <time>2017-07-30T08:25:05Z</time>
      </trkpt>
      <trkpt lat="42.60413" lon="-0.14458">
        <ele>1336.7</ele>
        <time>2017-07-30T08:25:08Z</time>
      </trkpt>
      <trkpt lat="42.60411" lon="-0.14462">
        <ele>1336.7</ele>
        <time>2017-07-30T08:25:11Z</time>
      </trkpt>
      <trkpt lat="42.6041" lon="-0.14467">
        <ele>1337.9</ele>
        <time>2017-07-30T08:25:14Z</time>
      </trkpt>
      <trkpt lat="42.60408" lon="-0.14471">
        <ele>1338.7</ele>
        <time>2017-07-30T08:25:17Z</time>
      </trkpt>
      <trkpt lat="42.60406" lon="-0.14476">
        <ele>1339.6</ele>
        <time>2017-07-30T08:25:20Z</time>
      </trkpt>
      <trkpt lat="42.60404" lon="-0.1448">
        <ele>1339.4</ele>
        <time>2017-07-30T08:25:23Z</time>
      </trkpt>
      <trkpt lat="42.60403" lon="-0.14484">
        <ele>1339.4</ele>
        <time>2017-07-30T08:25:25Z</time>
      </trkpt>
      <trkpt lat="42.60401" lon="-0.14487">
        <ele>1339.2</ele>
        <time>2017-07-30T08:25:27Z</time>
      </trkpt>
      <trkpt lat="42.604" lon="-0.14491">
        <ele>1340.2</ele>
        <time>2017-07-30T08:25:29Z</time>
      </trkpt>
      <trkpt lat="42.60399" lon="-0.14496">
        <ele>1340</ele>
        <time>2017-07-30T08:25:32Z</time>
      </trkpt>
      <trkpt lat="42.60398" lon="-0.14499">
        <ele>1340.9</ele>
        <time>2017-07-30T08:25:34Z</time>
      </trkpt>
      <trkpt lat="42.60397" lon="-0.14505">
        <ele>1341.9</ele>
        <time>2017-07-30T08:25:37Z</time>
      </trkpt>
      <trkpt lat="42.60396" lon="-0.1451">
        <ele>1344.3</ele>
        <time>2017-07-30T08:25:40Z</time>
      </trkpt>
      <trkpt lat="42.60395" lon="-0.14515">
        <ele>1344.4</ele>
        <time>2017-07-30T08:25:43Z</time>
      </trkpt>
      <trkpt lat="42.60395" lon="-0.1452">
        <ele>1345.6</ele>
        <time>2017-07-30T08:25:46Z</time>
      </trkpt>
      <trkpt lat="42.60394" lon="-0.14525">
        <ele>1346.7</ele>
        <time>2017-07-30T08:25:49Z</time>
      </trkpt>
      <trkpt lat="42.60394" lon="-0.1453">
        <ele>1347.6</ele>
        <time>2017-07-30T08:25:52Z</time>
      </trkpt>
      <trkpt lat="42.60393" lon="-0.14535">
        <ele>1348.4</ele>
        <time>2017-07-30T08:25:55Z</time>
      </trkpt>
      <trkpt lat="42.60392" lon="-0.1454">
        <ele>1348.9</ele>
        <time>2017-07-30T08:25:58Z</time>
      </trkpt>
      <trkpt lat="42.60392" lon="-0.14546">
        <ele>1349.7</ele>
        <time>2017-07-30T08:26:01Z</time>
      </trkpt>
      <trkpt lat="42.60392" lon="-0.14551">
        <ele>1350.4</ele>
        <time>2017-07-30T08:26:04Z</time>
      </trkpt>
      <trkpt lat="42.60391" lon="-0.14556">
        <ele>1351</ele>
        <time>2017-07-30T08:26:07Z</time>
      </trkpt>
      <trkpt lat="42.60391" lon="-0.1456">
        <ele>1351.7</ele>
        <time>2017-07-30T08:26:10Z</time>
      </trkpt>
      <trkpt lat="42.60392" lon="-0.14565">
        <ele>1352.4</ele>
        <time>2017-07-30T08:26:13Z</time>
      </trkpt>
      <trkpt lat="42.60391" lon="-0.1457">
        <ele>1353.2</ele>
        <time>2017-07-30T08:26:16Z</time>
      </trkpt>
      <trkpt lat="42.60391" lon="-0.14574">
        <ele>1354.6</ele>
        <time>2017-07-30T08:26:19Z</time>
      </trkpt>
      <trkpt lat="42.6039" lon="-0.14579">
        <ele>1355.1</ele>
        <time>2017-07-30T08:26:22Z</time>
      </trkpt>
      <trkpt lat="42.6039" lon="-0.14585">
        <ele>1355.4</ele>
        <time>2017-07-30T08:26:25Z</time>
      </trkpt>
      <trkpt lat="42.6039" lon="-0.14589">
        <ele>1355.7</ele>
        <time>2017-07-30T08:26:27Z</time>
      </trkpt>
      <trkpt lat="42.60389" lon="-0.14592">
        <ele>1354.8</ele>
        <time>2017-07-30T08:26:29Z</time>
      </trkpt>
      <trkpt lat="42.60388" lon="-0.14596">
        <ele>1355.1</ele>
        <time>2017-07-30T08:26:31Z</time>
      </trkpt>
      <trkpt lat="42.60388" lon="-0.146">
        <ele>1355.5</ele>
        <time>2017-07-30T08:26:33Z</time>
      </trkpt>
      <trkpt lat="42.60387" lon="-0.14604">
        <ele>1355.5</ele>
        <time>2017-07-30T08:26:35Z</time>
      </trkpt>
      <trkpt lat="42.60386" lon="-0.14609">
        <ele>1355.1</ele>
        <time>2017-07-30T08:26:38Z</time>
      </trkpt>
      <trkpt lat="42.60385" lon="-0.14614">
        <ele>1355.6</ele>
        <time>2017-07-30T08:26:41Z</time>
      </trkpt>
      <trkpt lat="42.60384" lon="-0.14618">
        <ele>1356.2</ele>
        <time>2017-07-30T08:26:43Z</time>
      </trkpt>
      <trkpt lat="42.60383" lon="-0.14623">
        <ele>1355.8</ele>
        <time>2017-07-30T08:26:46Z</time>
      </trkpt>
      <trkpt lat="42.60383" lon="-0.14627">
        <ele>1356.7</ele>
        <time>2017-07-30T08:26:48Z</time>
      </trkpt>
      <trkpt lat="42.60382" lon="-0.14631">
        <ele>1357.6</ele>
        <time>2017-07-30T08:26:50Z</time>
      </trkpt>
      <trkpt lat="42.60381" lon="-0.14634">
        <ele>1358.5</ele>
        <time>2017-07-30T08:26:52Z</time>
      </trkpt>
      <trkpt lat="42.6038" lon="-0.14638">
        <ele>1358.5</ele>
        <time>2017-07-30T08:26:54Z</time>
      </trkpt>
      <trkpt lat="42.60379" lon="-0.14642">
        <ele>1357.9</ele>
        <time>2017-07-30T08:26:56Z</time>
      </trkpt>
      <trkpt lat="42.60378" lon="-0.14646">
        <ele>1358.7</ele>
        <time>2017-07-30T08:26:58Z</time>
      </trkpt>
      <trkpt lat="42.60377" lon="-0.14649">
        <ele>1359.6</ele>
        <time>2017-07-30T08:27:00Z</time>
      </trkpt>
      <trkpt lat="42.60377" lon="-0.14655">
        <ele>1359.2</ele>
        <time>2017-07-30T08:27:03Z</time>
      </trkpt>
      <trkpt lat="42.60376" lon="-0.1466">
        <ele>1361.1</ele>
        <time>2017-07-30T08:27:06Z</time>
      </trkpt>
      <trkpt lat="42.60376" lon="-0.14664">
        <ele>1361.2</ele>
        <time>2017-07-30T08:27:08Z</time>
      </trkpt>
      <trkpt lat="42.60376" lon="-0.14668">
        <ele>1362</ele>
        <time>2017-07-30T08:27:10Z</time>
      </trkpt>
      <trkpt lat="42.60375" lon="-0.14673">
        <ele>1363.6</ele>
        <time>2017-07-30T08:27:13Z</time>
      </trkpt>
      <trkpt lat="42.60374" lon="-0.14678">
        <ele>1364.5</ele>
        <time>2017-07-30T08:27:16Z</time>
      </trkpt>
      <trkpt lat="42.60373" lon="-0.14683">
        <ele>1364.3</ele>
        <time>2017-07-30T08:27:19Z</time>
      </trkpt>
      <trkpt lat="42.60371" lon="-0.14687">
        <ele>1365.2</ele>
        <time>2017-07-30T08:27:21Z</time>
      </trkpt>
      <trkpt lat="42.6037" lon="-0.1469">
        <ele>1364.9</ele>
        <time>2017-07-30T08:27:23Z</time>
      </trkpt>
      <trkpt lat="42.60369" lon="-0.14694">
        <ele>1364.9</ele>
        <time>2017-07-30T08:27:25Z</time>
      </trkpt>
      <trkpt lat="42.60368" lon="-0.14698">
        <ele>1365.7</ele>
        <time>2017-07-30T08:27:27Z</time>
      </trkpt>
      <trkpt lat="42.60367" lon="-0.14701">
        <ele>1365.6</ele>
        <time>2017-07-30T08:27:29Z</time>
      </trkpt>
      <trkpt lat="42.60366" lon="-0.14705">
        <ele>1366.7</ele>
        <time>2017-07-30T08:27:31Z</time>
      </trkpt>
      <trkpt lat="42.60366" lon="-0.14709">
        <ele>1367.7</ele>
        <time>2017-07-30T08:27:33Z</time>
      </trkpt>
      <trkpt lat="42.60365" lon="-0.14713">
        <ele>1368.7</ele>
        <time>2017-07-30T08:27:35Z</time>
      </trkpt>
      <trkpt lat="42.60364" lon="-0.14717">
        <ele>1369.6</ele>
        <time>2017-07-30T08:27:37Z</time>
      </trkpt>
      <trkpt lat="42.60364" lon="-0.14721">
        <ele>1369.5</ele>
        <time>2017-07-30T08:27:39Z</time>
      </trkpt>
      <trkpt lat="42.60364" lon="-0.14724">
        <ele>1370.1</ele>
        <time>2017-07-30T08:27:41Z</time>
      </trkpt>
      <trkpt lat="42.60363" lon="-0.1473">
        <ele>1370.8</ele>
        <time>2017-07-30T08:27:44Z</time>
      </trkpt>
      <trkpt lat="42.60362" lon="-0.14733">
        <ele>1371.5</ele>
        <time>2017-07-30T08:27:46Z</time>
      </trkpt>
      <trkpt lat="42.60361" lon="-0.14737">
        <ele>1370.7</ele>
        <time>2017-07-30T08:27:48Z</time>
      </trkpt>
      <trkpt lat="42.60359" lon="-0.14742">
        <ele>1372</ele>
        <time>2017-07-30T08:27:51Z</time>
      </trkpt>
      <trkpt lat="42.60358" lon="-0.14747">
        <ele>1372.5</ele>
        <time>2017-07-30T08:27:54Z</time>
      </trkpt>
      <trkpt lat="42.60356" lon="-0.14751">
        <ele>1372.2</ele>
        <time>2017-07-30T08:27:57Z</time>
      </trkpt>
      <trkpt lat="42.60356" lon="-0.14756">
        <ele>1372.9</ele>
        <time>2017-07-30T08:28:00Z</time>
      </trkpt>
      <trkpt lat="42.60355" lon="-0.14761">
        <ele>1373.7</ele>
        <time>2017-07-30T08:28:03Z</time>
      </trkpt>
      <trkpt lat="42.60353" lon="-0.14766">
        <ele>1373.9</ele>
        <time>2017-07-30T08:28:06Z</time>
      </trkpt>
      <trkpt lat="42.60353" lon="-0.14771">
        <ele>1374.9</ele>
        <time>2017-07-30T08:28:09Z</time>
      </trkpt>
      <trkpt lat="42.60351" lon="-0.14776">
        <ele>1375</ele>
        <time>2017-07-30T08:28:12Z</time>
      </trkpt>
      <trkpt lat="42.6035" lon="-0.1478">
        <ele>1376.6</ele>
        <time>2017-07-30T08:28:15Z</time>
      </trkpt>
      <trkpt lat="42.60348" lon="-0.14784">
        <ele>1375.8</ele>
        <time>2017-07-30T08:28:17Z</time>
      </trkpt>
      <trkpt lat="42.60347" lon="-0.14787">
        <ele>1376.7</ele>
        <time>2017-07-30T08:28:19Z</time>
      </trkpt>
      <trkpt lat="42.60344" lon="-0.14791">
        <ele>1376.7</ele>
        <time>2017-07-30T08:28:22Z</time>
      </trkpt>
      <trkpt lat="42.60342" lon="-0.14796">
        <ele>1377.7</ele>
        <time>2017-07-30T08:28:25Z</time>
      </trkpt>
      <trkpt lat="42.60341" lon="-0.14801">
        <ele>1377.8</ele>
        <time>2017-07-30T08:28:28Z</time>
      </trkpt>
      <trkpt lat="42.6034" lon="-0.14804">
        <ele>1378.9</ele>
        <time>2017-07-30T08:28:30Z</time>
      </trkpt>
      <trkpt lat="42.60338" lon="-0.14807">
        <ele>1379.1</ele>
        <time>2017-07-30T08:28:32Z</time>
      </trkpt>
      <trkpt lat="42.60337" lon="-0.1481">
        <ele>1379.1</ele>
        <time>2017-07-30T08:28:34Z</time>
      </trkpt>
      <trkpt lat="42.60335" lon="-0.14813">
        <ele>1379.7</ele>
        <time>2017-07-30T08:28:36Z</time>
      </trkpt>
      <trkpt lat="42.60333" lon="-0.14817">
        <ele>1381.3</ele>
        <time>2017-07-30T08:28:38Z</time>
      </trkpt>
      <trkpt lat="42.60331" lon="-0.1482">
        <ele>1382.4</ele>
        <time>2017-07-30T08:28:40Z</time>
      </trkpt>
      <trkpt lat="42.60329" lon="-0.14824">
        <ele>1383.4</ele>
        <time>2017-07-30T08:28:42Z</time>
      </trkpt>
      <trkpt lat="42.60328" lon="-0.14827">
        <ele>1383.4</ele>
        <time>2017-07-30T08:28:44Z</time>
      </trkpt>
      <trkpt lat="42.60327" lon="-0.14831">
        <ele>1385</ele>
        <time>2017-07-30T08:28:46Z</time>
      </trkpt>
      <trkpt lat="42.60326" lon="-0.14835">
        <ele>1385.5</ele>
        <time>2017-07-30T08:28:49Z</time>
      </trkpt>
      <trkpt lat="42.60327" lon="-0.14838">
        <ele>1387.6</ele>
        <time>2017-07-30T08:28:51Z</time>
      </trkpt>
      <trkpt lat="42.60331" lon="-0.1484">
        <ele>1389.6</ele>
        <time>2017-07-30T08:28:53Z</time>
      </trkpt>
      <trkpt lat="42.60334" lon="-0.1484">
        <ele>1389</ele>
        <time>2017-07-30T08:28:55Z</time>
      </trkpt>
      <trkpt lat="42.60337" lon="-0.14837">
        <ele>1389.7</ele>
        <time>2017-07-30T08:28:57Z</time>
      </trkpt>
      <trkpt lat="42.6034" lon="-0.14833">
        <ele>1389.2</ele>
        <time>2017-07-30T08:28:59Z</time>
      </trkpt>
      <trkpt lat="42.60342" lon="-0.14829">
        <ele>1388</ele>
        <time>2017-07-30T08:29:01Z</time>
      </trkpt>
      <trkpt lat="42.60345" lon="-0.14826">
        <ele>1387.3</ele>
        <time>2017-07-30T08:29:03Z</time>
      </trkpt>
      <trkpt lat="42.60348" lon="-0.14821">
        <ele>1386.6</ele>
        <time>2017-07-30T08:29:05Z</time>
      </trkpt>
      <trkpt lat="42.60351" lon="-0.14817">
        <ele>1385.9</ele>
        <time>2017-07-30T08:29:07Z</time>
      </trkpt>
      <trkpt lat="42.60354" lon="-0.14812">
        <ele>1385.4</ele>
        <time>2017-07-30T08:29:09Z</time>
      </trkpt>
      <trkpt lat="42.60357" lon="-0.14808">
        <ele>1385.1</ele>
        <time>2017-07-30T08:29:11Z</time>
      </trkpt>
      <trkpt lat="42.6036" lon="-0.14803">
        <ele>1384.9</ele>
        <time>2017-07-30T08:29:13Z</time>
      </trkpt>
      <trkpt lat="42.60363" lon="-0.14799">
        <ele>1384.5</ele>
        <time>2017-07-30T08:29:15Z</time>
      </trkpt>
      <trkpt lat="42.60365" lon="-0.14796">
        <ele>1384.1</ele>
        <time>2017-07-30T08:29:17Z</time>
      </trkpt>
      <trkpt lat="42.60368" lon="-0.14792">
        <ele>1383.5</ele>
        <time>2017-07-30T08:29:19Z</time>
      </trkpt>
      <trkpt lat="42.60371" lon="-0.14788">
        <ele>1383.1</ele>
        <time>2017-07-30T08:29:21Z</time>
      </trkpt>
      <trkpt lat="42.60374" lon="-0.14784">
        <ele>1383</ele>
        <time>2017-07-30T08:29:23Z</time>
      </trkpt>
      <trkpt lat="42.60376" lon="-0.14781">
        <ele>1383</ele>
        <time>2017-07-30T08:29:25Z</time>
      </trkpt>
      <trkpt lat="42.60379" lon="-0.14776">
        <ele>1383.1</ele>
        <time>2017-07-30T08:29:27Z</time>
      </trkpt>
      <trkpt lat="42.60382" lon="-0.14771">
        <ele>1382.9</ele>
        <time>2017-07-30T08:29:29Z</time>
      </trkpt>
      <trkpt lat="42.60384" lon="-0.14767">
        <ele>1383.3</ele>
        <time>2017-07-30T08:29:31Z</time>
      </trkpt>
      <trkpt lat="42.60387" lon="-0.14763">
        <ele>1384.1</ele>
        <time>2017-07-30T08:29:33Z</time>
      </trkpt>
      <trkpt lat="42.6039" lon="-0.1476">
        <ele>1384.5</ele>
        <time>2017-07-30T08:29:35Z</time>
      </trkpt>
      <trkpt lat="42.60392" lon="-0.14755">
        <ele>1384.1</ele>
        <time>2017-07-30T08:29:37Z</time>
      </trkpt>
      <trkpt lat="42.60393" lon="-0.14751">
        <ele>1384.4</ele>
        <time>2017-07-30T08:29:39Z</time>
      </trkpt>
      <trkpt lat="42.60396" lon="-0.14747">
        <ele>1384</ele>
        <time>2017-07-30T08:29:41Z</time>
      </trkpt>
      <trkpt lat="42.60398" lon="-0.14743">
        <ele>1384.2</ele>
        <time>2017-07-30T08:29:43Z</time>
      </trkpt>
      <trkpt lat="42.604" lon="-0.1474">
        <ele>1384.2</ele>
        <time>2017-07-30T08:29:45Z</time>
      </trkpt>
      <trkpt lat="42.60402" lon="-0.14736">
        <ele>1384.1</ele>
        <time>2017-07-30T08:29:47Z</time>
      </trkpt>
      <trkpt lat="42.60404" lon="-0.14733">
        <ele>1383.7</ele>
        <time>2017-07-30T08:29:49Z</time>
      </trkpt>
      <trkpt lat="42.60406" lon="-0.14729">
        <ele>1383.4</ele>
        <time>2017-07-30T08:29:51Z</time>
      </trkpt>
      <trkpt lat="42.60407" lon="-0.14725">
        <ele>1383.1</ele>
        <time>2017-07-30T08:29:53Z</time>
      </trkpt>
      <trkpt lat="42.60409" lon="-0.14721">
        <ele>1382.8</ele>
        <time>2017-07-30T08:29:55Z</time>
      </trkpt>
      <trkpt lat="42.60411" lon="-0.14717">
        <ele>1382.4</ele>
        <time>2017-07-30T08:29:57Z</time>
      </trkpt>
      <trkpt lat="42.60413" lon="-0.14713">
        <ele>1381.8</ele>
        <time>2017-07-30T08:29:59Z</time>
      </trkpt>
      <trkpt lat="42.60415" lon="-0.14709">
        <ele>1381</ele>
        <time>2017-07-30T08:30:01Z</time>
      </trkpt>
      <trkpt lat="42.60418" lon="-0.14706">
        <ele>1380.2</ele>
        <time>2017-07-30T08:30:03Z</time>
      </trkpt>
      <trkpt lat="42.60422" lon="-0.14706">
        <ele>1379.6</ele>
        <time>2017-07-30T08:30:05Z</time>
      </trkpt>
      <trkpt lat="42.60425" lon="-0.14709">
        <ele>1379.9</ele>
        <time>2017-07-30T08:30:07Z</time>
      </trkpt>
      <trkpt lat="42.60428" lon="-0.14713">
        <ele>1380.5</ele>
        <time>2017-07-30T08:30:09Z</time>
      </trkpt>
      <trkpt lat="42.60429" lon="-0.14717">
        <ele>1381.2</ele>
        <time>2017-07-30T08:30:11Z</time>
      </trkpt>
      <trkpt lat="42.60429" lon="-0.14721">
        <ele>1381.8</ele>
        <time>2017-07-30T08:30:13Z</time>
      </trkpt>
      <trkpt lat="42.60428" lon="-0.14725">
        <ele>1382.4</ele>
        <time>2017-07-30T08:30:15Z</time>
      </trkpt>
      <trkpt lat="42.60426" lon="-0.14729">
        <ele>1382.8</ele>
        <time>2017-07-30T08:30:17Z</time>
      </trkpt>
      <trkpt lat="42.60424" lon="-0.14732">
        <ele>1383.1</ele>
        <time>2017-07-30T08:30:19Z</time>
      </trkpt>
      <trkpt lat="42.60421" lon="-0.14735">
        <ele>1383.4</ele>
        <time>2017-07-30T08:30:21Z</time>
      </trkpt>
      <trkpt lat="42.60418" lon="-0.14738">
        <ele>1383.8</ele>
        <time>2017-07-30T08:30:23Z</time>
      </trkpt>
      <trkpt lat="42.60415" lon="-0.14741">
        <ele>1384.2</ele>
        <time>2017-07-30T08:30:25Z</time>
      </trkpt>
      <trkpt lat="42.60413" lon="-0.14745">
        <ele>1384.5</ele>
        <time>2017-07-30T08:30:27Z</time>
      </trkpt>
      <trkpt lat="42.60411" lon="-0.14749">
        <ele>1384.7</ele>
        <time>2017-07-30T08:30:29Z</time>
      </trkpt>
      <trkpt lat="42.60409" lon="-0.14754">
        <ele>1385</ele>
        <time>2017-07-30T08:30:31Z</time>
      </trkpt>
      <trkpt lat="42.60407" lon="-0.14759">
        <ele>1385.6</ele>
        <time>2017-07-30T08:30:33Z</time>
      </trkpt>
      <trkpt lat="42.60406" lon="-0.14765">
        <ele>1386.3</ele>
        <time>2017-07-30T08:30:35Z</time>
      </trkpt>
      <trkpt lat="42.60405" lon="-0.14771">
        <ele>1387.5</ele>
        <time>2017-07-30T08:30:37Z</time>
      </trkpt>
      <trkpt lat="42.60404" lon="-0.14776">
        <ele>1388.5</ele>
        <time>2017-07-30T08:30:39Z</time>
      </trkpt>
      <trkpt lat="42.60402" lon="-0.14781">
        <ele>1389.3</ele>
        <time>2017-07-30T08:30:41Z</time>
      </trkpt>
      <trkpt lat="42.60401" lon="-0.14785">
        <ele>1390</ele>
        <time>2017-07-30T08:30:43Z</time>
      </trkpt>
      <trkpt lat="42.60401" lon="-0.14789">
        <ele>1390.9</ele>
        <time>2017-07-30T08:30:45Z</time>
      </trkpt>
      <trkpt lat="42.604" lon="-0.14794">
        <ele>1392</ele>
        <time>2017-07-30T08:30:47Z</time>
      </trkpt>
      <trkpt lat="42.60399" lon="-0.14798">
        <ele>1392.5</ele>
        <time>2017-07-30T08:30:49Z</time>
      </trkpt>
      <trkpt lat="42.60398" lon="-0.14803">
        <ele>1393.8</ele>
        <time>2017-07-30T08:30:51Z</time>
      </trkpt>
      <trkpt lat="42.60397" lon="-0.14807">
        <ele>1395</ele>
        <time>2017-07-30T08:30:53Z</time>
      </trkpt>
      <trkpt lat="42.60395" lon="-0.14811">
        <ele>1395.3</ele>
        <time>2017-07-30T08:30:55Z</time>
      </trkpt>
      <trkpt lat="42.60394" lon="-0.14816">
        <ele>1396.7</ele>
        <time>2017-07-30T08:30:57Z</time>
      </trkpt>
      <trkpt lat="42.60393" lon="-0.1482">
        <ele>1398.1</ele>
        <time>2017-07-30T08:30:59Z</time>
      </trkpt>
      <trkpt lat="42.60391" lon="-0.14824">
        <ele>1398.4</ele>
        <time>2017-07-30T08:31:01Z</time>
      </trkpt>
      <trkpt lat="42.6039" lon="-0.14828">
        <ele>1399.7</ele>
        <time>2017-07-30T08:31:03Z</time>
      </trkpt>
      <trkpt lat="42.60388" lon="-0.14833">
        <ele>1399.8</ele>
        <time>2017-07-30T08:31:05Z</time>
      </trkpt>
      <trkpt lat="42.60386" lon="-0.14837">
        <ele>1401</ele>
        <time>2017-07-30T08:31:07Z</time>
      </trkpt>
      <trkpt lat="42.60385" lon="-0.14841">
        <ele>1401.4</ele>
        <time>2017-07-30T08:31:09Z</time>
      </trkpt>
      <trkpt lat="42.60383" lon="-0.14845">
        <ele>1402.9</ele>
        <time>2017-07-30T08:31:11Z</time>
      </trkpt>
      <trkpt lat="42.60382" lon="-0.14849">
        <ele>1402.1</ele>
        <time>2017-07-30T08:31:13Z</time>
      </trkpt>
      <trkpt lat="42.6038" lon="-0.14852">
        <ele>1403.6</ele>
        <time>2017-07-30T08:31:15Z</time>
      </trkpt>
      <trkpt lat="42.60379" lon="-0.14856">
        <ele>1404.2</ele>
        <time>2017-07-30T08:31:17Z</time>
      </trkpt>
      <trkpt lat="42.60377" lon="-0.1486">
        <ele>1405.5</ele>
        <time>2017-07-30T08:31:19Z</time>
      </trkpt>
      <trkpt lat="42.60375" lon="-0.14864">
        <ele>1406.1</ele>
        <time>2017-07-30T08:31:21Z</time>
      </trkpt>
      <trkpt lat="42.60373" lon="-0.14867">
        <ele>1406.9</ele>
        <time>2017-07-30T08:31:23Z</time>
      </trkpt>
      <trkpt lat="42.6037" lon="-0.1487">
        <ele>1406.3</ele>
        <time>2017-07-30T08:31:25Z</time>
      </trkpt>
      <trkpt lat="42.60368" lon="-0.14873">
        <ele>1407.9</ele>
        <time>2017-07-30T08:31:27Z</time>
      </trkpt>
      <trkpt lat="42.60365" lon="-0.14876">
        <ele>1409.1</ele>
        <time>2017-07-30T08:31:29Z</time>
      </trkpt>
      <trkpt lat="42.60364" lon="-0.1488">
        <ele>1410.2</ele>
        <time>2017-07-30T08:31:31Z</time>
      </trkpt>
      <trkpt lat="42.60361" lon="-0.14883">
        <ele>1411.6</ele>
        <time>2017-07-30T08:31:33Z</time>
      </trkpt>
      <trkpt lat="42.60358" lon="-0.14886">
        <ele>1411.1</ele>
        <time>2017-07-30T08:31:35Z</time>
      </trkpt>
      <trkpt lat="42.60356" lon="-0.14889">
        <ele>1411.5</ele>
        <time>2017-07-30T08:31:37Z</time>
      </trkpt>
      <trkpt lat="42.60354" lon="-0.14892">
        <ele>1411.8</ele>
        <time>2017-07-30T08:31:39Z</time>
      </trkpt>
      <trkpt lat="42.60352" lon="-0.14895">
        <ele>1411.2</ele>
        <time>2017-07-30T08:31:41Z</time>
      </trkpt>
      <trkpt lat="42.60349" lon="-0.14898">
        <ele>1412.2</ele>
        <time>2017-07-30T08:31:43Z</time>
      </trkpt>
      <trkpt lat="42.60347" lon="-0.14901">
        <ele>1412.7</ele>
        <time>2017-07-30T08:31:45Z</time>
      </trkpt>
      <trkpt lat="42.60344" lon="-0.14904">
        <ele>1412.2</ele>
        <time>2017-07-30T08:31:48Z</time>
      </trkpt>
      <trkpt lat="42.60342" lon="-0.14908">
        <ele>1412.9</ele>
        <time>2017-07-30T08:31:51Z</time>
      </trkpt>
      <trkpt lat="42.6034" lon="-0.14911">
        <ele>1413.9</ele>
        <time>2017-07-30T08:31:53Z</time>
      </trkpt>
      <trkpt lat="42.60337" lon="-0.14915">
        <ele>1414.5</ele>
        <time>2017-07-30T08:31:56Z</time>
      </trkpt>
      <trkpt lat="42.60334" lon="-0.14918">
        <ele>1414.9</ele>
        <time>2017-07-30T08:31:59Z</time>
      </trkpt>
      <trkpt lat="42.60332" lon="-0.14921">
        <ele>1414.6</ele>
        <time>2017-07-30T08:32:02Z</time>
      </trkpt>
      <trkpt lat="42.6033" lon="-0.14924">
        <ele>1415.4</ele>
        <time>2017-07-30T08:32:04Z</time>
      </trkpt>
      <trkpt lat="42.60327" lon="-0.14927">
        <ele>1415.9</ele>
        <time>2017-07-30T08:32:06Z</time>
      </trkpt>
      <trkpt lat="42.60325" lon="-0.14928">
        <ele>1415.4</ele>
        <time>2017-07-30T08:32:08Z</time>
      </trkpt>
      <trkpt lat="42.60322" lon="-0.1493">
        <ele>1415.8</ele>
        <time>2017-07-30T08:32:10Z</time>
      </trkpt>
      <trkpt lat="42.60319" lon="-0.14933">
        <ele>1415.2</ele>
        <time>2017-07-30T08:32:12Z</time>
      </trkpt>
      <trkpt lat="42.60316" lon="-0.14936">
        <ele>1415.7</ele>
        <time>2017-07-30T08:32:14Z</time>
      </trkpt>
      <trkpt lat="42.60314" lon="-0.14938">
        <ele>1415.2</ele>
        <time>2017-07-30T08:32:16Z</time>
      </trkpt>
      <trkpt lat="42.60311" lon="-0.14941">
        <ele>1416.4</ele>
        <time>2017-07-30T08:32:18Z</time>
      </trkpt>
      <trkpt lat="42.60308" lon="-0.14944">
        <ele>1417.1</ele>
        <time>2017-07-30T08:32:20Z</time>
      </trkpt>
      <trkpt lat="42.60306" lon="-0.14947">
        <ele>1416.8</ele>
        <time>2017-07-30T08:32:22Z</time>
      </trkpt>
      <trkpt lat="42.60304" lon="-0.1495">
        <ele>1417.7</ele>
        <time>2017-07-30T08:32:24Z</time>
      </trkpt>
      <trkpt lat="42.60301" lon="-0.14952">
        <ele>1419.2</ele>
        <time>2017-07-30T08:32:26Z</time>
      </trkpt>
      <trkpt lat="42.60299" lon="-0.14954">
        <ele>1418.9</ele>
        <time>2017-07-30T08:32:28Z</time>
      </trkpt>
      <trkpt lat="42.60296" lon="-0.14957">
        <ele>1420</ele>
        <time>2017-07-30T08:32:30Z</time>
      </trkpt>
      <trkpt lat="42.60294" lon="-0.1496">
        <ele>1419.4</ele>
        <time>2017-07-30T08:32:32Z</time>
      </trkpt>
      <trkpt lat="42.60291" lon="-0.14962">
        <ele>1420.3</ele>
        <time>2017-07-30T08:32:34Z</time>
      </trkpt>
      <trkpt lat="42.60289" lon="-0.14965">
        <ele>1421.8</ele>
        <time>2017-07-30T08:32:36Z</time>
      </trkpt>
      <trkpt lat="42.60286" lon="-0.14968">
        <ele>1421.1</ele>
        <time>2017-07-30T08:32:39Z</time>
      </trkpt>
      <trkpt lat="42.60283" lon="-0.14971">
        <ele>1421.6</ele>
        <time>2017-07-30T08:32:41Z</time>
      </trkpt>
      <trkpt lat="42.60281" lon="-0.14973">
        <ele>1420.9</ele>
        <time>2017-07-30T08:32:43Z</time>
      </trkpt>
      <trkpt lat="42.60278" lon="-0.14974">
        <ele>1421.4</ele>
        <time>2017-07-30T08:32:45Z</time>
      </trkpt>
      <trkpt lat="42.60274" lon="-0.14977">
        <ele>1420.8</ele>
        <time>2017-07-30T08:32:48Z</time>
      </trkpt>
      <trkpt lat="42.60272" lon="-0.14979">
        <ele>1421.3</ele>
        <time>2017-07-30T08:32:50Z</time>
      </trkpt>
      <trkpt lat="42.60269" lon="-0.14981">
        <ele>1420.5</ele>
        <time>2017-07-30T08:32:52Z</time>
      </trkpt>
      <trkpt lat="42.60266" lon="-0.14983">
        <ele>1421.1</ele>
        <time>2017-07-30T08:32:54Z</time>
      </trkpt>
      <trkpt lat="42.60262" lon="-0.14984">
        <ele>1420.2</ele>
        <time>2017-07-30T08:32:56Z</time>
      </trkpt>
      <trkpt lat="42.60259" lon="-0.14986">
        <ele>1419.4</ele>
        <time>2017-07-30T08:32:58Z</time>
      </trkpt>
      <trkpt lat="42.60255" lon="-0.14988">
        <ele>1419.8</ele>
        <time>2017-07-30T08:33:00Z</time>
      </trkpt>
      <trkpt lat="42.60252" lon="-0.14989">
        <ele>1419</ele>
        <time>2017-07-30T08:33:02Z</time>
      </trkpt>
      <trkpt lat="42.60249" lon="-0.14992">
        <ele>1419.2</ele>
        <time>2017-07-30T08:33:04Z</time>
      </trkpt>
      <trkpt lat="42.60246" lon="-0.14995">
        <ele>1419</ele>
        <time>2017-07-30T08:33:06Z</time>
      </trkpt>
      <trkpt lat="42.60243" lon="-0.14998">
        <ele>1417.7</ele>
        <time>2017-07-30T08:33:08Z</time>
      </trkpt>
      <trkpt lat="42.6024" lon="-0.15002">
        <ele>1416.7</ele>
        <time>2017-07-30T08:33:10Z</time>
      </trkpt>
      <trkpt lat="42.60239" lon="-0.15007">
        <ele>1417</ele>
        <time>2017-07-30T08:33:12Z</time>
      </trkpt>
      <trkpt lat="42.60238" lon="-0.15011">
        <ele>1417.2</ele>
        <time>2017-07-30T08:33:14Z</time>
      </trkpt>
      <trkpt lat="42.60239" lon="-0.15015">
        <ele>1417.3</ele>
        <time>2017-07-30T08:33:16Z</time>
      </trkpt>
      <trkpt lat="42.6024" lon="-0.1502">
        <ele>1417.4</ele>
        <time>2017-07-30T08:33:18Z</time>
      </trkpt>
      <trkpt lat="42.6024" lon="-0.15024">
        <ele>1417.4</ele>
        <time>2017-07-30T08:33:20Z</time>
      </trkpt>
      <trkpt lat="42.60241" lon="-0.15029">
        <ele>1417.5</ele>
        <time>2017-07-30T08:33:22Z</time>
      </trkpt>
      <trkpt lat="42.60241" lon="-0.15033">
        <ele>1419.5</ele>
        <time>2017-07-30T08:33:24Z</time>
      </trkpt>
      <trkpt lat="42.60242" lon="-0.15037">
        <ele>1419.9</ele>
        <time>2017-07-30T08:33:26Z</time>
      </trkpt>
      <trkpt lat="42.60243" lon="-0.15041">
        <ele>1420.4</ele>
        <time>2017-07-30T08:33:28Z</time>
      </trkpt>
      <trkpt lat="42.60244" lon="-0.15044">
        <ele>1421</ele>
        <time>2017-07-30T08:33:30Z</time>
      </trkpt>
      <trkpt lat="42.60246" lon="-0.1505">
        <ele>1423.3</ele>
        <time>2017-07-30T08:33:33Z</time>
      </trkpt>
      <trkpt lat="42.60247" lon="-0.15054">
        <ele>1423.6</ele>
        <time>2017-07-30T08:33:35Z</time>
      </trkpt>
      <trkpt lat="42.60248" lon="-0.15059">
        <ele>1425.5</ele>
        <time>2017-07-30T08:33:37Z</time>
      </trkpt>
      <trkpt lat="42.60249" lon="-0.15062">
        <ele>1425.4</ele>
        <time>2017-07-30T08:33:39Z</time>
      </trkpt>
      <trkpt lat="42.6025" lon="-0.15066">
        <ele>1425.2</ele>
        <time>2017-07-30T08:33:41Z</time>
      </trkpt>
      <trkpt lat="42.60252" lon="-0.15069">
        <ele>1426.5</ele>
        <time>2017-07-30T08:33:43Z</time>
      </trkpt>
      <trkpt lat="42.60253" lon="-0.15073">
        <ele>1426.1</ele>
        <time>2017-07-30T08:33:45Z</time>
      </trkpt>
      <trkpt lat="42.60254" lon="-0.15078">
        <ele>1427.4</ele>
        <time>2017-07-30T08:33:48Z</time>
      </trkpt>
      <trkpt lat="42.60255" lon="-0.15081">
        <ele>1427</ele>
        <time>2017-07-30T08:33:50Z</time>
      </trkpt>
      <trkpt lat="42.60257" lon="-0.15084">
        <ele>1427</ele>
        <time>2017-07-30T08:33:52Z</time>
      </trkpt>
      <trkpt lat="42.60258" lon="-0.15088">
        <ele>1428.5</ele>
        <time>2017-07-30T08:33:54Z</time>
      </trkpt>
      <trkpt lat="42.60259" lon="-0.15093">
        <ele>1428.3</ele>
        <time>2017-07-30T08:33:57Z</time>
      </trkpt>
      <trkpt lat="42.60261" lon="-0.15098">
        <ele>1430.1</ele>
        <time>2017-07-30T08:34:00Z</time>
      </trkpt>
      <trkpt lat="42.60262" lon="-0.15103">
        <ele>1429.9</ele>
        <time>2017-07-30T08:34:03Z</time>
      </trkpt>
      <trkpt lat="42.60263" lon="-0.15107">
        <ele>1429.8</ele>
        <time>2017-07-30T08:34:06Z</time>
      </trkpt>
      <trkpt lat="42.60264" lon="-0.15112">
        <ele>1431.7</ele>
        <time>2017-07-30T08:34:09Z</time>
      </trkpt>
      <trkpt lat="42.60266" lon="-0.15115">
        <ele>1431.5</ele>
        <time>2017-07-30T08:34:11Z</time>
      </trkpt>
      <trkpt lat="42.60267" lon="-0.15119">
        <ele>1433.6</ele>
        <time>2017-07-30T08:34:13Z</time>
      </trkpt>
      <trkpt lat="42.60267" lon="-0.15123">
        <ele>1433.3</ele>
        <time>2017-07-30T08:34:15Z</time>
      </trkpt>
      <trkpt lat="42.60267" lon="-0.15128">
        <ele>1433.1</ele>
        <time>2017-07-30T08:34:18Z</time>
      </trkpt>
      <trkpt lat="42.60268" lon="-0.15132">
        <ele>1433</ele>
        <time>2017-07-30T08:34:21Z</time>
      </trkpt>
      <trkpt lat="42.60269" lon="-0.15137">
        <ele>1433.1</ele>
        <time>2017-07-30T08:34:24Z</time>
      </trkpt>
      <trkpt lat="42.60269" lon="-0.15141">
        <ele>1433.3</ele>
        <time>2017-07-30T08:34:26Z</time>
      </trkpt>
      <trkpt lat="42.6027" lon="-0.15145">
        <ele>1435.2</ele>
        <time>2017-07-30T08:34:28Z</time>
      </trkpt>
      <trkpt lat="42.60271" lon="-0.15149">
        <ele>1435.7</ele>
        <time>2017-07-30T08:34:31Z</time>
      </trkpt>
      <trkpt lat="42.60272" lon="-0.15154">
        <ele>1437</ele>
        <time>2017-07-30T08:34:34Z</time>
      </trkpt>
      <trkpt lat="42.60272" lon="-0.15159">
        <ele>1437.7</ele>
        <time>2017-07-30T08:34:37Z</time>
      </trkpt>
      <trkpt lat="42.60273" lon="-0.15165">
        <ele>1438.4</ele>
        <time>2017-07-30T08:34:40Z</time>
      </trkpt>
      <trkpt lat="42.60273" lon="-0.15168">
        <ele>1441.2</ele>
        <time>2017-07-30T08:34:42Z</time>
      </trkpt>
      <trkpt lat="42.60273" lon="-0.15172">
        <ele>1441.7</ele>
        <time>2017-07-30T08:34:44Z</time>
      </trkpt>
      <trkpt lat="42.60273" lon="-0.15177">
        <ele>1442.2</ele>
        <time>2017-07-30T08:34:47Z</time>
      </trkpt>
      <trkpt lat="42.60273" lon="-0.15182">
        <ele>1442.7</ele>
        <time>2017-07-30T08:34:50Z</time>
      </trkpt>
      <trkpt lat="42.60273" lon="-0.15188">
        <ele>1441.2</ele>
        <time>2017-07-30T08:34:53Z</time>
      </trkpt>
      <trkpt lat="42.60272" lon="-0.15192">
        <ele>1441.8</ele>
        <time>2017-07-30T08:34:55Z</time>
      </trkpt>
      <trkpt lat="42.60272" lon="-0.15197">
        <ele>1443.1</ele>
        <time>2017-07-30T08:34:58Z</time>
      </trkpt>
      <trkpt lat="42.60272" lon="-0.15202">
        <ele>1443.9</ele>
        <time>2017-07-30T08:35:01Z</time>
      </trkpt>
      <trkpt lat="42.60272" lon="-0.15208">
        <ele>1444.8</ele>
        <time>2017-07-30T08:35:04Z</time>
      </trkpt>
      <trkpt lat="42.60271" lon="-0.15213">
        <ele>1445.8</ele>
        <time>2017-07-30T08:35:07Z</time>
      </trkpt>
      <trkpt lat="42.6027" lon="-0.15216">
        <ele>1446.9</ele>
        <time>2017-07-30T08:35:09Z</time>
      </trkpt>
      <trkpt lat="42.60269" lon="-0.15221">
        <ele>1446</ele>
        <time>2017-07-30T08:35:12Z</time>
      </trkpt>
      <trkpt lat="42.60268" lon="-0.15225">
        <ele>1447</ele>
        <time>2017-07-30T08:35:14Z</time>
      </trkpt>
      <trkpt lat="42.60266" lon="-0.15228">
        <ele>1448.1</ele>
        <time>2017-07-30T08:35:16Z</time>
      </trkpt>
      <trkpt lat="42.60265" lon="-0.15232">
        <ele>1447.4</ele>
        <time>2017-07-30T08:35:18Z</time>
      </trkpt>
      <trkpt lat="42.60263" lon="-0.15235">
        <ele>1448.6</ele>
        <time>2017-07-30T08:35:20Z</time>
      </trkpt>
      <trkpt lat="42.60262" lon="-0.15239">
        <ele>1446.6</ele>
        <time>2017-07-30T08:35:22Z</time>
      </trkpt>
      <trkpt lat="42.6026" lon="-0.15242">
        <ele>1445.8</ele>
        <time>2017-07-30T08:35:24Z</time>
      </trkpt>
      <trkpt lat="42.60258" lon="-0.15245">
        <ele>1446.9</ele>
        <time>2017-07-30T08:35:26Z</time>
      </trkpt>
      <trkpt lat="42.60257" lon="-0.15249">
        <ele>1445.9</ele>
        <time>2017-07-30T08:35:28Z</time>
      </trkpt>
      <trkpt lat="42.60255" lon="-0.15252">
        <ele>1445.9</ele>
        <time>2017-07-30T08:35:30Z</time>
      </trkpt>
      <trkpt lat="42.60254" lon="-0.15256">
        <ele>1446.8</ele>
        <time>2017-07-30T08:35:32Z</time>
      </trkpt>
      <trkpt lat="42.60253" lon="-0.15259">
        <ele>1445.9</ele>
        <time>2017-07-30T08:35:34Z</time>
      </trkpt>
      <trkpt lat="42.60252" lon="-0.15263">
        <ele>1446.8</ele>
        <time>2017-07-30T08:35:36Z</time>
      </trkpt>
      <trkpt lat="42.60251" lon="-0.15267">
        <ele>1447.6</ele>
        <time>2017-07-30T08:35:38Z</time>
      </trkpt>
      <trkpt lat="42.6025" lon="-0.1527">
        <ele>1446.5</ele>
        <time>2017-07-30T08:35:40Z</time>
      </trkpt>
      <trkpt lat="42.60249" lon="-0.15275">
        <ele>1447</ele>
        <time>2017-07-30T08:35:43Z</time>
      </trkpt>
      <trkpt lat="42.60248" lon="-0.15279">
        <ele>1447.3</ele>
        <time>2017-07-30T08:35:45Z</time>
      </trkpt>
      <trkpt lat="42.60247" lon="-0.15283">
        <ele>1447.6</ele>
        <time>2017-07-30T08:35:47Z</time>
      </trkpt>
      <trkpt lat="42.60247" lon="-0.15288">
        <ele>1445.9</ele>
        <time>2017-07-30T08:35:50Z</time>
      </trkpt>
      <trkpt lat="42.60247" lon="-0.15294">
        <ele>1446.3</ele>
        <time>2017-07-30T08:35:53Z</time>
      </trkpt>
      <trkpt lat="42.60249" lon="-0.15297">
        <ele>1448.6</ele>
        <time>2017-07-30T08:35:55Z</time>
      </trkpt>
      <trkpt lat="42.60251" lon="-0.15299">
        <ele>1450.4</ele>
        <time>2017-07-30T08:35:57Z</time>
      </trkpt>
      <trkpt lat="42.60254" lon="-0.15299">
        <ele>1452.3</ele>
        <time>2017-07-30T08:35:59Z</time>
      </trkpt>
      <trkpt lat="42.60257" lon="-0.15297">
        <ele>1454.3</ele>
        <time>2017-07-30T08:36:01Z</time>
      </trkpt>
      <trkpt lat="42.60259" lon="-0.15293">
        <ele>1453.7</ele>
        <time>2017-07-30T08:36:03Z</time>
      </trkpt>
      <trkpt lat="42.6026" lon="-0.15288">
        <ele>1453.2</ele>
        <time>2017-07-30T08:36:05Z</time>
      </trkpt>
      <trkpt lat="42.6026" lon="-0.15283">
        <ele>1452.7</ele>
        <time>2017-07-30T08:36:07Z</time>
      </trkpt>
      <trkpt lat="42.60259" lon="-0.15278">
        <ele>1452.3</ele>
        <time>2017-07-30T08:36:09Z</time>
      </trkpt>
      <trkpt lat="42.6026" lon="-0.15273">
        <ele>1453.1</ele>
        <time>2017-07-30T08:36:11Z</time>
      </trkpt>
      <trkpt lat="42.60262" lon="-0.15269">
        <ele>1452.6</ele>
        <time>2017-07-30T08:36:13Z</time>
      </trkpt>
      <trkpt lat="42.60264" lon="-0.15265">
        <ele>1454</ele>
        <time>2017-07-30T08:36:15Z</time>
      </trkpt>
      <trkpt lat="42.60266" lon="-0.15262">
        <ele>1453.5</ele>
        <time>2017-07-30T08:36:17Z</time>
      </trkpt>
      <trkpt lat="42.60268" lon="-0.15258">
        <ele>1454.5</ele>
        <time>2017-07-30T08:36:19Z</time>
      </trkpt>
      <trkpt lat="42.6027" lon="-0.15254">
        <ele>1455.3</ele>
        <time>2017-07-30T08:36:21Z</time>
      </trkpt>
      <trkpt lat="42.60272" lon="-0.1525">
        <ele>1454.9</ele>
        <time>2017-07-30T08:36:24Z</time>
      </trkpt>
      <trkpt lat="42.60274" lon="-0.15247">
        <ele>1455.5</ele>
        <time>2017-07-30T08:36:26Z</time>
      </trkpt>
      <trkpt lat="42.60276" lon="-0.15245">
        <ele>1456.4</ele>
        <time>2017-07-30T08:36:28Z</time>
      </trkpt>
      <trkpt lat="42.60279" lon="-0.15243">
        <ele>1456.5</ele>
        <time>2017-07-30T08:36:31Z</time>
      </trkpt>
      <trkpt lat="42.60282" lon="-0.15239">
        <ele>1455.7</ele>
        <time>2017-07-30T08:36:34Z</time>
      </trkpt>
      <trkpt lat="42.60284" lon="-0.15236">
        <ele>1456.6</ele>
        <time>2017-07-30T08:36:36Z</time>
      </trkpt>
      <trkpt lat="42.60287" lon="-0.15233">
        <ele>1456.8</ele>
        <time>2017-07-30T08:36:39Z</time>
      </trkpt>
      <trkpt lat="42.60289" lon="-0.15228">
        <ele>1457.4</ele>
        <time>2017-07-30T08:36:42Z</time>
      </trkpt>
      <trkpt lat="42.60291" lon="-0.15225">
        <ele>1457.1</ele>
        <time>2017-07-30T08:36:44Z</time>
      </trkpt>
      <trkpt lat="42.60293" lon="-0.15222">
        <ele>1458.4</ele>
        <time>2017-07-30T08:36:46Z</time>
      </trkpt>
      <trkpt lat="42.60295" lon="-0.15218">
        <ele>1459.6</ele>
        <time>2017-07-30T08:36:49Z</time>
      </trkpt>
      <trkpt lat="42.60297" lon="-0.15215">
        <ele>1459.4</ele>
        <time>2017-07-30T08:36:51Z</time>
      </trkpt>
      <trkpt lat="42.60299" lon="-0.15211">
        <ele>1460.7</ele>
        <time>2017-07-30T08:36:54Z</time>
      </trkpt>
      <trkpt lat="42.603" lon="-0.15207">
        <ele>1460.5</ele>
        <time>2017-07-30T08:36:56Z</time>
      </trkpt>
      <trkpt lat="42.60301" lon="-0.15203">
        <ele>1460.4</ele>
        <time>2017-07-30T08:36:58Z</time>
      </trkpt>
      <trkpt lat="42.60302" lon="-0.15199">
        <ele>1461.8</ele>
        <time>2017-07-30T08:37:00Z</time>
      </trkpt>
      <trkpt lat="42.60302" lon="-0.15195">
        <ele>1461.9</ele>
        <time>2017-07-30T08:37:02Z</time>
      </trkpt>
      <trkpt lat="42.60303" lon="-0.15191">
        <ele>1461.9</ele>
        <time>2017-07-30T08:37:04Z</time>
      </trkpt>
      <trkpt lat="42.60305" lon="-0.15187">
        <ele>1463.5</ele>
        <time>2017-07-30T08:37:06Z</time>
      </trkpt>
      <trkpt lat="42.60305" lon="-0.15184">
        <ele>1463.5</ele>
        <time>2017-07-30T08:37:08Z</time>
      </trkpt>
      <trkpt lat="42.60306" lon="-0.1518">
        <ele>1463.5</ele>
        <time>2017-07-30T08:37:10Z</time>
      </trkpt>
      <trkpt lat="42.60307" lon="-0.15175">
        <ele>1463.4</ele>
        <time>2017-07-30T08:37:12Z</time>
      </trkpt>
      <trkpt lat="42.60307" lon="-0.15171">
        <ele>1463.4</ele>
        <time>2017-07-30T08:37:14Z</time>
      </trkpt>
      <trkpt lat="42.60308" lon="-0.15168">
        <ele>1465.1</ele>
        <time>2017-07-30T08:37:16Z</time>
      </trkpt>
      <trkpt lat="42.60308" lon="-0.15164">
        <ele>1465.2</ele>
        <time>2017-07-30T08:37:18Z</time>
      </trkpt>
      <trkpt lat="42.60309" lon="-0.1516">
        <ele>1465.3</ele>
        <time>2017-07-30T08:37:20Z</time>
      </trkpt>
      <trkpt lat="42.6031" lon="-0.15156">
        <ele>1465.3</ele>
        <time>2017-07-30T08:37:22Z</time>
      </trkpt>
      <trkpt lat="42.6031" lon="-0.15153">
        <ele>1465.2</ele>
        <time>2017-07-30T08:37:24Z</time>
      </trkpt>
      <trkpt lat="42.60311" lon="-0.15148">
        <ele>1466.7</ele>
        <time>2017-07-30T08:37:27Z</time>
      </trkpt>
      <trkpt lat="42.60311" lon="-0.15144">
        <ele>1466.4</ele>
        <time>2017-07-30T08:37:29Z</time>
      </trkpt>
      <trkpt lat="42.60311" lon="-0.15138">
        <ele>1466</ele>
        <time>2017-07-30T08:37:32Z</time>
      </trkpt>
      <trkpt lat="42.60312" lon="-0.15134">
        <ele>1465.5</ele>
        <time>2017-07-30T08:37:34Z</time>
      </trkpt>
      <trkpt lat="42.60313" lon="-0.1513">
        <ele>1464.9</ele>
        <time>2017-07-30T08:37:36Z</time>
      </trkpt>
      <trkpt lat="42.60314" lon="-0.15126">
        <ele>1465.7</ele>
        <time>2017-07-30T08:37:38Z</time>
      </trkpt>
      <trkpt lat="42.60315" lon="-0.15122">
        <ele>1465</ele>
        <time>2017-07-30T08:37:40Z</time>
      </trkpt>
      <trkpt lat="42.60316" lon="-0.15118">
        <ele>1464.2</ele>
        <time>2017-07-30T08:37:42Z</time>
      </trkpt>
      <trkpt lat="42.60317" lon="-0.15114">
        <ele>1465</ele>
        <time>2017-07-30T08:37:44Z</time>
      </trkpt>
      <trkpt lat="42.60318" lon="-0.15111">
        <ele>1465</ele>
        <time>2017-07-30T08:37:46Z</time>
      </trkpt>
      <trkpt lat="42.60319" lon="-0.15106">
        <ele>1463.7</ele>
        <time>2017-07-30T08:37:49Z</time>
      </trkpt>
      <trkpt lat="42.6032" lon="-0.15101">
        <ele>1463</ele>
        <time>2017-07-30T08:37:52Z</time>
      </trkpt>
      <trkpt lat="42.60322" lon="-0.15097">
        <ele>1463.4</ele>
        <time>2017-07-30T08:37:55Z</time>
      </trkpt>
      <trkpt lat="42.60323" lon="-0.15092">
        <ele>1462.5</ele>
        <time>2017-07-30T08:37:58Z</time>
      </trkpt>
      <trkpt lat="42.60325" lon="-0.15088">
        <ele>1462.5</ele>
        <time>2017-07-30T08:38:01Z</time>
      </trkpt>
      <trkpt lat="42.60327" lon="-0.15084">
        <ele>1462.4</ele>
        <time>2017-07-30T08:38:04Z</time>
      </trkpt>
      <trkpt lat="42.6033" lon="-0.15082">
        <ele>1463.1</ele>
        <time>2017-07-30T08:38:07Z</time>
      </trkpt>
      <trkpt lat="42.60333" lon="-0.15084">
        <ele>1463.6</ele>
        <time>2017-07-30T08:38:10Z</time>
      </trkpt>
      <trkpt lat="42.60333" lon="-0.15088">
        <ele>1464.3</ele>
        <time>2017-07-30T08:38:12Z</time>
      </trkpt>
      <trkpt lat="42.60332" lon="-0.15091">
        <ele>1465</ele>
        <time>2017-07-30T08:38:14Z</time>
      </trkpt>
      <trkpt lat="42.60331" lon="-0.15095">
        <ele>1465.6</ele>
        <time>2017-07-30T08:38:16Z</time>
      </trkpt>
      <trkpt lat="42.6033" lon="-0.15099">
        <ele>1466.1</ele>
        <time>2017-07-30T08:38:18Z</time>
      </trkpt>
      <trkpt lat="42.60329" lon="-0.15103">
        <ele>1466.9</ele>
        <time>2017-07-30T08:38:20Z</time>
      </trkpt>
      <trkpt lat="42.6033" lon="-0.15107">
        <ele>1467.8</ele>
        <time>2017-07-30T08:38:22Z</time>
      </trkpt>
      <trkpt lat="42.6033" lon="-0.15112">
        <ele>1468.8</ele>
        <time>2017-07-30T08:38:24Z</time>
      </trkpt>
      <trkpt lat="42.60329" lon="-0.15117">
        <ele>1469.4</ele>
        <time>2017-07-30T08:38:26Z</time>
      </trkpt>
      <trkpt lat="42.60329" lon="-0.15122">
        <ele>1470</ele>
        <time>2017-07-30T08:38:28Z</time>
      </trkpt>
      <trkpt lat="42.60329" lon="-0.15127">
        <ele>1470.5</ele>
        <time>2017-07-30T08:38:30Z</time>
      </trkpt>
      <trkpt lat="42.60329" lon="-0.15133">
        <ele>1470.9</ele>
        <time>2017-07-30T08:38:32Z</time>
      </trkpt>
      <trkpt lat="42.60328" lon="-0.15139">
        <ele>1471.4</ele>
        <time>2017-07-30T08:38:34Z</time>
      </trkpt>
      <trkpt lat="42.60328" lon="-0.15143">
        <ele>1471.7</ele>
        <time>2017-07-30T08:38:36Z</time>
      </trkpt>
      <trkpt lat="42.60329" lon="-0.15148">
        <ele>1472.1</ele>
        <time>2017-07-30T08:38:38Z</time>
      </trkpt>
      <trkpt lat="42.60329" lon="-0.15152">
        <ele>1472.6</ele>
        <time>2017-07-30T08:38:40Z</time>
      </trkpt>
      <trkpt lat="42.60329" lon="-0.15156">
        <ele>1473.1</ele>
        <time>2017-07-30T08:38:42Z</time>
      </trkpt>
      <trkpt lat="42.60329" lon="-0.1516">
        <ele>1473.2</ele>
        <time>2017-07-30T08:38:44Z</time>
      </trkpt>
      <trkpt lat="42.60329" lon="-0.15165">
        <ele>1473.2</ele>
        <time>2017-07-30T08:38:46Z</time>
      </trkpt>
      <trkpt lat="42.60329" lon="-0.15169">
        <ele>1473.2</ele>
        <time>2017-07-30T08:38:48Z</time>
      </trkpt>
      <trkpt lat="42.6033" lon="-0.15173">
        <ele>1473.2</ele>
        <time>2017-07-30T08:38:50Z</time>
      </trkpt>
      <trkpt lat="42.60331" lon="-0.15177">
        <ele>1473.1</ele>
        <time>2017-07-30T08:38:52Z</time>
      </trkpt>
      <trkpt lat="42.60331" lon="-0.15181">
        <ele>1473.1</ele>
        <time>2017-07-30T08:38:54Z</time>
      </trkpt>
      <trkpt lat="42.60331" lon="-0.15185">
        <ele>1473.1</ele>
        <time>2017-07-30T08:38:56Z</time>
      </trkpt>
      <trkpt lat="42.60331" lon="-0.1519">
        <ele>1473.1</ele>
        <time>2017-07-30T08:38:58Z</time>
      </trkpt>
      <trkpt lat="42.60331" lon="-0.15195">
        <ele>1473.3</ele>
        <time>2017-07-30T08:39:00Z</time>
      </trkpt>
      <trkpt lat="42.60331" lon="-0.152">
        <ele>1473.4</ele>
        <time>2017-07-30T08:39:02Z</time>
      </trkpt>
      <trkpt lat="42.60331" lon="-0.15204">
        <ele>1473.8</ele>
        <time>2017-07-30T08:39:04Z</time>
      </trkpt>
      <trkpt lat="42.6033" lon="-0.15208">
        <ele>1474.2</ele>
        <time>2017-07-30T08:39:06Z</time>
      </trkpt>
      <trkpt lat="42.6033" lon="-0.15212">
        <ele>1474.6</ele>
        <time>2017-07-30T08:39:08Z</time>
      </trkpt>
      <trkpt lat="42.6033" lon="-0.15216">
        <ele>1475.4</ele>
        <time>2017-07-30T08:39:10Z</time>
      </trkpt>
      <trkpt lat="42.60329" lon="-0.1522">
        <ele>1476.3</ele>
        <time>2017-07-30T08:39:12Z</time>
      </trkpt>
      <trkpt lat="42.60328" lon="-0.15224">
        <ele>1477.2</ele>
        <time>2017-07-30T08:39:14Z</time>
      </trkpt>
      <trkpt lat="42.60328" lon="-0.15229">
        <ele>1478.4</ele>
        <time>2017-07-30T08:39:16Z</time>
      </trkpt>
      <trkpt lat="42.60327" lon="-0.15233">
        <ele>1479.6</ele>
        <time>2017-07-30T08:39:18Z</time>
      </trkpt>
      <trkpt lat="42.60325" lon="-0.15237">
        <ele>1480.7</ele>
        <time>2017-07-30T08:39:20Z</time>
      </trkpt>
      <trkpt lat="42.60324" lon="-0.15241">
        <ele>1481.7</ele>
        <time>2017-07-30T08:39:22Z</time>
      </trkpt>
      <trkpt lat="42.60322" lon="-0.15245">
        <ele>1482.7</ele>
        <time>2017-07-30T08:39:24Z</time>
      </trkpt>
      <trkpt lat="42.60321" lon="-0.15249">
        <ele>1484.2</ele>
        <time>2017-07-30T08:39:26Z</time>
      </trkpt>
      <trkpt lat="42.60321" lon="-0.15254">
        <ele>1485.9</ele>
        <time>2017-07-30T08:39:28Z</time>
      </trkpt>
      <trkpt lat="42.60319" lon="-0.15258">
        <ele>1485.5</ele>
        <time>2017-07-30T08:39:30Z</time>
      </trkpt>
      <trkpt lat="42.60318" lon="-0.15262">
        <ele>1487.5</ele>
        <time>2017-07-30T08:39:32Z</time>
      </trkpt>
      <trkpt lat="42.60317" lon="-0.15266">
        <ele>1487.7</ele>
        <time>2017-07-30T08:39:34Z</time>
      </trkpt>
      <trkpt lat="42.60315" lon="-0.1527">
        <ele>1489.9</ele>
        <time>2017-07-30T08:39:36Z</time>
      </trkpt>
      <trkpt lat="42.60314" lon="-0.15273">
        <ele>1488</ele>
        <time>2017-07-30T08:39:38Z</time>
      </trkpt>
      <trkpt lat="42.60311" lon="-0.15277">
        <ele>1490.2</ele>
        <time>2017-07-30T08:39:40Z</time>
      </trkpt>
      <trkpt lat="42.6031" lon="-0.15281">
        <ele>1490.4</ele>
        <time>2017-07-30T08:39:42Z</time>
      </trkpt>
      <trkpt lat="42.60308" lon="-0.15285">
        <ele>1492.3</ele>
        <time>2017-07-30T08:39:44Z</time>
      </trkpt>
      <trkpt lat="42.60306" lon="-0.15289">
        <ele>1492.4</ele>
        <time>2017-07-30T08:39:46Z</time>
      </trkpt>
      <trkpt lat="42.60305" lon="-0.15294">
        <ele>1494.1</ele>
        <time>2017-07-30T08:39:48Z</time>
      </trkpt>
      <trkpt lat="42.60305" lon="-0.15299">
        <ele>1495.5</ele>
        <time>2017-07-30T08:39:50Z</time>
      </trkpt>
      <trkpt lat="42.60304" lon="-0.15303">
        <ele>1496.7</ele>
        <time>2017-07-30T08:39:52Z</time>
      </trkpt>
      <trkpt lat="42.60304" lon="-0.15307">
        <ele>1495.9</ele>
        <time>2017-07-30T08:39:54Z</time>
      </trkpt>
      <trkpt lat="42.60303" lon="-0.15311">
        <ele>1496.7</ele>
        <time>2017-07-30T08:39:56Z</time>
      </trkpt>
      <trkpt lat="42.60303" lon="-0.15315">
        <ele>1497.3</ele>
        <time>2017-07-30T08:39:58Z</time>
      </trkpt>
      <trkpt lat="42.60302" lon="-0.15319">
        <ele>1497.9</ele>
        <time>2017-07-30T08:40:00Z</time>
      </trkpt>
      <trkpt lat="42.60302" lon="-0.15323">
        <ele>1498.4</ele>
        <time>2017-07-30T08:40:02Z</time>
      </trkpt>
      <trkpt lat="42.60302" lon="-0.15327">
        <ele>1498.7</ele>
        <time>2017-07-30T08:40:04Z</time>
      </trkpt>
      <trkpt lat="42.60301" lon="-0.1533">
        <ele>1498.9</ele>
        <time>2017-07-30T08:40:06Z</time>
      </trkpt>
      <trkpt lat="42.60301" lon="-0.15334">
        <ele>1499.1</ele>
        <time>2017-07-30T08:40:08Z</time>
      </trkpt>
      <trkpt lat="42.60301" lon="-0.15339">
        <ele>1499.5</ele>
        <time>2017-07-30T08:40:10Z</time>
      </trkpt>
      <trkpt lat="42.60301" lon="-0.15343">
        <ele>1500</ele>
        <time>2017-07-30T08:40:12Z</time>
      </trkpt>
      <trkpt lat="42.603" lon="-0.15347">
        <ele>1499</ele>
        <time>2017-07-30T08:40:14Z</time>
      </trkpt>
      <trkpt lat="42.60299" lon="-0.15351">
        <ele>1499</ele>
        <time>2017-07-30T08:40:16Z</time>
      </trkpt>
      <trkpt lat="42.60299" lon="-0.15356">
        <ele>1500.1</ele>
        <time>2017-07-30T08:40:18Z</time>
      </trkpt>
      <trkpt lat="42.60298" lon="-0.1536">
        <ele>1500.5</ele>
        <time>2017-07-30T08:40:20Z</time>
      </trkpt>
      <trkpt lat="42.60298" lon="-0.15365">
        <ele>1500.8</ele>
        <time>2017-07-30T08:40:22Z</time>
      </trkpt>
      <trkpt lat="42.60298" lon="-0.1537">
        <ele>1499.5</ele>
        <time>2017-07-30T08:40:24Z</time>
      </trkpt>
      <trkpt lat="42.60297" lon="-0.15374">
        <ele>1500</ele>
        <time>2017-07-30T08:40:26Z</time>
      </trkpt>
      <trkpt lat="42.60296" lon="-0.15379">
        <ele>1500.6</ele>
        <time>2017-07-30T08:40:28Z</time>
      </trkpt>
      <trkpt lat="42.60295" lon="-0.15383">
        <ele>1501.2</ele>
        <time>2017-07-30T08:40:30Z</time>
      </trkpt>
      <trkpt lat="42.60295" lon="-0.15387">
        <ele>1500.2</ele>
        <time>2017-07-30T08:40:32Z</time>
      </trkpt>
      <trkpt lat="42.60294" lon="-0.15391">
        <ele>1500.9</ele>
        <time>2017-07-30T08:40:34Z</time>
      </trkpt>
      <trkpt lat="42.60292" lon="-0.15396">
        <ele>1501.8</ele>
        <time>2017-07-30T08:40:36Z</time>
      </trkpt>
      <trkpt lat="42.60291" lon="-0.154">
        <ele>1501.2</ele>
        <time>2017-07-30T08:40:38Z</time>
      </trkpt>
      <trkpt lat="42.60289" lon="-0.15405">
        <ele>1502.3</ele>
        <time>2017-07-30T08:40:40Z</time>
      </trkpt>
      <trkpt lat="42.60288" lon="-0.15409">
        <ele>1501.8</ele>
        <time>2017-07-30T08:40:42Z</time>
      </trkpt>
      <trkpt lat="42.60287" lon="-0.15413">
        <ele>1502.8</ele>
        <time>2017-07-30T08:40:44Z</time>
      </trkpt>
      <trkpt lat="42.60286" lon="-0.15417">
        <ele>1503.6</ele>
        <time>2017-07-30T08:40:46Z</time>
      </trkpt>
      <trkpt lat="42.60285" lon="-0.15421">
        <ele>1502.9</ele>
        <time>2017-07-30T08:40:48Z</time>
      </trkpt>
      <trkpt lat="42.60284" lon="-0.15426">
        <ele>1503.5</ele>
        <time>2017-07-30T08:40:50Z</time>
      </trkpt>
      <trkpt lat="42.60284" lon="-0.1543">
        <ele>1504.1</ele>
        <time>2017-07-30T08:40:52Z</time>
      </trkpt>
      <trkpt lat="42.60283" lon="-0.15435">
        <ele>1504.6</ele>
        <time>2017-07-30T08:40:54Z</time>
      </trkpt>
      <trkpt lat="42.60282" lon="-0.15439">
        <ele>1505</ele>
        <time>2017-07-30T08:40:56Z</time>
      </trkpt>
      <trkpt lat="42.60282" lon="-0.15443">
        <ele>1505.4</ele>
        <time>2017-07-30T08:40:58Z</time>
      </trkpt>
      <trkpt lat="42.60282" lon="-0.15447">
        <ele>1505.7</ele>
        <time>2017-07-30T08:41:00Z</time>
      </trkpt>
      <trkpt lat="42.60283" lon="-0.15451">
        <ele>1506.2</ele>
        <time>2017-07-30T08:41:02Z</time>
      </trkpt>
      <trkpt lat="42.60283" lon="-0.15455">
        <ele>1506.6</ele>
        <time>2017-07-30T08:41:04Z</time>
      </trkpt>
      <trkpt lat="42.60283" lon="-0.15459">
        <ele>1506.9</ele>
        <time>2017-07-30T08:41:06Z</time>
      </trkpt>
      <trkpt lat="42.60283" lon="-0.15464">
        <ele>1507.1</ele>
        <time>2017-07-30T08:41:08Z</time>
      </trkpt>
      <trkpt lat="42.60284" lon="-0.15469">
        <ele>1507.2</ele>
        <time>2017-07-30T08:41:10Z</time>
      </trkpt>
      <trkpt lat="42.60284" lon="-0.15474">
        <ele>1507.1</ele>
        <time>2017-07-30T08:41:12Z</time>
      </trkpt>
      <trkpt lat="42.60285" lon="-0.15478">
        <ele>1507.9</ele>
        <time>2017-07-30T08:41:14Z</time>
      </trkpt>
      <trkpt lat="42.60286" lon="-0.15483">
        <ele>1507.5</ele>
        <time>2017-07-30T08:41:16Z</time>
      </trkpt>
      <trkpt lat="42.60287" lon="-0.15489">
        <ele>1506.4</ele>
        <time>2017-07-30T08:41:18Z</time>
      </trkpt>
      <trkpt lat="42.60288" lon="-0.15494">
        <ele>1505.7</ele>
        <time>2017-07-30T08:41:20Z</time>
      </trkpt>
      <trkpt lat="42.60289" lon="-0.15499">
        <ele>1506.1</ele>
        <time>2017-07-30T08:41:22Z</time>
      </trkpt>
      <trkpt lat="42.60291" lon="-0.15504">
        <ele>1505.5</ele>
        <time>2017-07-30T08:41:24Z</time>
      </trkpt>
      <trkpt lat="42.60293" lon="-0.15508">
        <ele>1505.8</ele>
        <time>2017-07-30T08:41:26Z</time>
      </trkpt>
      <trkpt lat="42.60296" lon="-0.15513">
        <ele>1506</ele>
        <time>2017-07-30T08:41:28Z</time>
      </trkpt>
      <trkpt lat="42.60298" lon="-0.15517">
        <ele>1505.1</ele>
        <time>2017-07-30T08:41:30Z</time>
      </trkpt>
      <trkpt lat="42.603" lon="-0.15521">
        <ele>1505.2</ele>
        <time>2017-07-30T08:41:32Z</time>
      </trkpt>
      <trkpt lat="42.60303" lon="-0.15525">
        <ele>1505.2</ele>
        <time>2017-07-30T08:41:34Z</time>
      </trkpt>
      <trkpt lat="42.60306" lon="-0.15528">
        <ele>1505.3</ele>
        <time>2017-07-30T08:41:36Z</time>
      </trkpt>
      <trkpt lat="42.60309" lon="-0.15531">
        <ele>1506</ele>
        <time>2017-07-30T08:41:38Z</time>
      </trkpt>
      <trkpt lat="42.60312" lon="-0.15534">
        <ele>1505.9</ele>
        <time>2017-07-30T08:41:40Z</time>
      </trkpt>
      <trkpt lat="42.60314" lon="-0.15537">
        <ele>1505.7</ele>
        <time>2017-07-30T08:41:42Z</time>
      </trkpt>
      <trkpt lat="42.60317" lon="-0.15539">
        <ele>1506.4</ele>
        <time>2017-07-30T08:41:44Z</time>
      </trkpt>
      <trkpt lat="42.60321" lon="-0.15542">
        <ele>1506.1</ele>
        <time>2017-07-30T08:41:46Z</time>
      </trkpt>
      <trkpt lat="42.60323" lon="-0.15545">
        <ele>1505</ele>
        <time>2017-07-30T08:41:48Z</time>
      </trkpt>
      <trkpt lat="42.60326" lon="-0.15547">
        <ele>1505.8</ele>
        <time>2017-07-30T08:41:50Z</time>
      </trkpt>
      <trkpt lat="42.60329" lon="-0.15549">
        <ele>1505.6</ele>
        <time>2017-07-30T08:41:52Z</time>
      </trkpt>
      <trkpt lat="42.60332" lon="-0.15552">
        <ele>1506.6</ele>
        <time>2017-07-30T08:41:54Z</time>
      </trkpt>
      <trkpt lat="42.60334" lon="-0.15555">
        <ele>1506.8</ele>
        <time>2017-07-30T08:41:56Z</time>
      </trkpt>
      <trkpt lat="42.60337" lon="-0.15558">
        <ele>1507.3</ele>
        <time>2017-07-30T08:41:58Z</time>
      </trkpt>
      <trkpt lat="42.6034" lon="-0.15561">
        <ele>1508.6</ele>
        <time>2017-07-30T08:42:00Z</time>
      </trkpt>
      <trkpt lat="42.60342" lon="-0.15565">
        <ele>1509.2</ele>
        <time>2017-07-30T08:42:02Z</time>
      </trkpt>
      <trkpt lat="42.60345" lon="-0.15568">
        <ele>1508.1</ele>
        <time>2017-07-30T08:42:04Z</time>
      </trkpt>
      <trkpt lat="42.60348" lon="-0.15572">
        <ele>1507.2</ele>
        <time>2017-07-30T08:42:06Z</time>
      </trkpt>
      <trkpt lat="42.60351" lon="-0.15576">
        <ele>1506.9</ele>
        <time>2017-07-30T08:42:08Z</time>
      </trkpt>
      <trkpt lat="42.60354" lon="-0.1558">
        <ele>1506.6</ele>
        <time>2017-07-30T08:42:10Z</time>
      </trkpt>
      <trkpt lat="42.60357" lon="-0.15585">
        <ele>1506.3</ele>
        <time>2017-07-30T08:42:12Z</time>
      </trkpt>
      <trkpt lat="42.60359" lon="-0.15588">
        <ele>1506.1</ele>
        <time>2017-07-30T08:42:14Z</time>
      </trkpt>
      <trkpt lat="42.60362" lon="-0.15592">
        <ele>1505.9</ele>
        <time>2017-07-30T08:42:16Z</time>
      </trkpt>
      <trkpt lat="42.60364" lon="-0.15596">
        <ele>1506</ele>
        <time>2017-07-30T08:42:18Z</time>
      </trkpt>
      <trkpt lat="42.60366" lon="-0.15601">
        <ele>1506.2</ele>
        <time>2017-07-30T08:42:20Z</time>
      </trkpt>
      <trkpt lat="42.60368" lon="-0.15605">
        <ele>1506.3</ele>
        <time>2017-07-30T08:42:22Z</time>
      </trkpt>
      <trkpt lat="42.60371" lon="-0.1561">
        <ele>1506.6</ele>
        <time>2017-07-30T08:42:24Z</time>
      </trkpt>
      <trkpt lat="42.60373" lon="-0.15615">
        <ele>1506.9</ele>
        <time>2017-07-30T08:42:26Z</time>
      </trkpt>
      <trkpt lat="42.60375" lon="-0.1562">
        <ele>1507.3</ele>
        <time>2017-07-30T08:42:28Z</time>
      </trkpt>
      <trkpt lat="42.60376" lon="-0.15625">
        <ele>1507.8</ele>
        <time>2017-07-30T08:42:30Z</time>
      </trkpt>
      <trkpt lat="42.60377" lon="-0.15629">
        <ele>1508</ele>
        <time>2017-07-30T08:42:31Z</time>
      </trkpt>
      <trkpt lat="42.60377" lon="-0.15633">
        <ele>1508.3</ele>
        <time>2017-07-30T08:42:32Z</time>
      </trkpt>
      <trkpt lat="42.60377" lon="-0.15637">
        <ele>1508.7</ele>
        <time>2017-07-30T08:42:33Z</time>
      </trkpt>
      <trkpt lat="42.60376" lon="-0.15642">
        <ele>1509</ele>
        <time>2017-07-30T08:42:34Z</time>
      </trkpt>
      <trkpt lat="42.60376" lon="-0.15645">
        <ele>1509.6</ele>
        <time>2017-07-30T08:42:35Z</time>
      </trkpt>
      <trkpt lat="42.60377" lon="-0.15649">
        <ele>1510.3</ele>
        <time>2017-07-30T08:42:36Z</time>
      </trkpt>
      <trkpt lat="42.60377" lon="-0.15653">
        <ele>1510.9</ele>
        <time>2017-07-30T08:42:37Z</time>
      </trkpt>
      <trkpt lat="42.60378" lon="-0.1566">
        <ele>1511.9</ele>
        <time>2017-07-30T08:42:39Z</time>
      </trkpt>
      <trkpt lat="42.60379" lon="-0.15666">
        <ele>1513.2</ele>
        <time>2017-07-30T08:42:41Z</time>
      </trkpt>
      <trkpt lat="42.6038" lon="-0.15673">
        <ele>1514.7</ele>
        <time>2017-07-30T08:42:43Z</time>
      </trkpt>
      <trkpt lat="42.60381" lon="-0.15677">
        <ele>1515.1</ele>
        <time>2017-07-30T08:42:44Z</time>
      </trkpt>
      <trkpt lat="42.60381" lon="-0.15681">
        <ele>1515.6</ele>
        <time>2017-07-30T08:42:45Z</time>
      </trkpt>
      <trkpt lat="42.60382" lon="-0.15686">
        <ele>1515.9</ele>
        <time>2017-07-30T08:42:46Z</time>
      </trkpt>
      <trkpt lat="42.60382" lon="-0.1569">
        <ele>1516</ele>
        <time>2017-07-30T08:42:47Z</time>
      </trkpt>
      <trkpt lat="42.60382" lon="-0.15695">
        <ele>1516.2</ele>
        <time>2017-07-30T08:42:48Z</time>
      </trkpt>
      <trkpt lat="42.60382" lon="-0.15699">
        <ele>1516.4</ele>
        <time>2017-07-30T08:42:49Z</time>
      </trkpt>
      <trkpt lat="42.60383" lon="-0.15703">
        <ele>1516.6</ele>
        <time>2017-07-30T08:42:50Z</time>
      </trkpt>
      <trkpt lat="42.60383" lon="-0.15708">
        <ele>1516.7</ele>
        <time>2017-07-30T08:42:51Z</time>
      </trkpt>
      <trkpt lat="42.60384" lon="-0.15712">
        <ele>1516.4</ele>
        <time>2017-07-30T08:42:52Z</time>
      </trkpt>
      <trkpt lat="42.60384" lon="-0.15716">
        <ele>1516</ele>
        <time>2017-07-30T08:42:53Z</time>
      </trkpt>
      <trkpt lat="42.60384" lon="-0.1572">
        <ele>1515.7</ele>
        <time>2017-07-30T08:42:54Z</time>
      </trkpt>
      <trkpt lat="42.60384" lon="-0.15723">
        <ele>1515.4</ele>
        <time>2017-07-30T08:42:55Z</time>
      </trkpt>
      <trkpt lat="42.60384" lon="-0.1573">
        <ele>1515.1</ele>
        <time>2017-07-30T08:42:57Z</time>
      </trkpt>
      <trkpt lat="42.60385" lon="-0.15736">
        <ele>1515.5</ele>
        <time>2017-07-30T08:42:59Z</time>
      </trkpt>
      <trkpt lat="42.60386" lon="-0.15742">
        <ele>1515.8</ele>
        <time>2017-07-30T08:43:01Z</time>
      </trkpt>
      <trkpt lat="42.60386" lon="-0.15747">
        <ele>1515.9</ele>
        <time>2017-07-30T08:43:03Z</time>
      </trkpt>
      <trkpt lat="42.60387" lon="-0.15752">
        <ele>1515.9</ele>
        <time>2017-07-30T08:43:05Z</time>
      </trkpt>
      <trkpt lat="42.60388" lon="-0.15758">
        <ele>1516.3</ele>
        <time>2017-07-30T08:43:07Z</time>
      </trkpt>
      <trkpt lat="42.60389" lon="-0.15764">
        <ele>1516.7</ele>
        <time>2017-07-30T08:43:09Z</time>
      </trkpt>
      <trkpt lat="42.60389" lon="-0.1577">
        <ele>1517.5</ele>
        <time>2017-07-30T08:43:11Z</time>
      </trkpt>
      <trkpt lat="42.6039" lon="-0.15775">
        <ele>1518.3</ele>
        <time>2017-07-30T08:43:13Z</time>
      </trkpt>
      <trkpt lat="42.6039" lon="-0.15781">
        <ele>1518.5</ele>
        <time>2017-07-30T08:43:15Z</time>
      </trkpt>
      <trkpt lat="42.60391" lon="-0.15788">
        <ele>1518.7</ele>
        <time>2017-07-30T08:43:17Z</time>
      </trkpt>
      <trkpt lat="42.60391" lon="-0.15795">
        <ele>1519</ele>
        <time>2017-07-30T08:43:19Z</time>
      </trkpt>
      <trkpt lat="42.60392" lon="-0.15801">
        <ele>1519.5</ele>
        <time>2017-07-30T08:43:21Z</time>
      </trkpt>
      <trkpt lat="42.60393" lon="-0.15808">
        <ele>1520.2</ele>
        <time>2017-07-30T08:43:23Z</time>
      </trkpt>
      <trkpt lat="42.60393" lon="-0.15815">
        <ele>1520.9</ele>
        <time>2017-07-30T08:43:25Z</time>
      </trkpt>
      <trkpt lat="42.60393" lon="-0.15822">
        <ele>1521.5</ele>
        <time>2017-07-30T08:43:27Z</time>
      </trkpt>
      <trkpt lat="42.60394" lon="-0.15826">
        <ele>1521.8</ele>
        <time>2017-07-30T08:43:28Z</time>
      </trkpt>
      <trkpt lat="42.60394" lon="-0.1583">
        <ele>1522.1</ele>
        <time>2017-07-30T08:43:29Z</time>
      </trkpt>
      <trkpt lat="42.60395" lon="-0.15834">
        <ele>1522.3</ele>
        <time>2017-07-30T08:43:30Z</time>
      </trkpt>
      <trkpt lat="42.60395" lon="-0.15838">
        <ele>1522.6</ele>
        <time>2017-07-30T08:43:31Z</time>
      </trkpt>
      <trkpt lat="42.60395" lon="-0.15842">
        <ele>1523</ele>
        <time>2017-07-30T08:43:32Z</time>
      </trkpt>
      <trkpt lat="42.60395" lon="-0.15846">
        <ele>1523.5</ele>
        <time>2017-07-30T08:43:33Z</time>
      </trkpt>
      <trkpt lat="42.60395" lon="-0.15851">
        <ele>1524.1</ele>
        <time>2017-07-30T08:43:34Z</time>
      </trkpt>
      <trkpt lat="42.60395" lon="-0.15855">
        <ele>1524.4</ele>
        <time>2017-07-30T08:43:35Z</time>
      </trkpt>
      <trkpt lat="42.60396" lon="-0.15858">
        <ele>1524.7</ele>
        <time>2017-07-30T08:43:36Z</time>
      </trkpt>
      <trkpt lat="42.60396" lon="-0.15863">
        <ele>1525</ele>
        <time>2017-07-30T08:43:37Z</time>
      </trkpt>
      <trkpt lat="42.60396" lon="-0.15867">
        <ele>1525.4</ele>
        <time>2017-07-30T08:43:38Z</time>
      </trkpt>
      <trkpt lat="42.60396" lon="-0.15871">
        <ele>1525.8</ele>
        <time>2017-07-30T08:43:39Z</time>
      </trkpt>
      <trkpt lat="42.60396" lon="-0.15876">
        <ele>1526.2</ele>
        <time>2017-07-30T08:43:40Z</time>
      </trkpt>
      <trkpt lat="42.60396" lon="-0.1588">
        <ele>1526.5</ele>
        <time>2017-07-30T08:43:41Z</time>
      </trkpt>
      <trkpt lat="42.60396" lon="-0.15884">
        <ele>1526.8</ele>
        <time>2017-07-30T08:43:42Z</time>
      </trkpt>
      <trkpt lat="42.60396" lon="-0.15891">
        <ele>1527.1</ele>
        <time>2017-07-30T08:43:44Z</time>
      </trkpt>
      <trkpt lat="42.60396" lon="-0.15898">
        <ele>1527.3</ele>
        <time>2017-07-30T08:43:46Z</time>
      </trkpt>
      <trkpt lat="42.60396" lon="-0.15905">
        <ele>1527</ele>
        <time>2017-07-30T08:43:48Z</time>
      </trkpt>
      <trkpt lat="42.60396" lon="-0.15908">
        <ele>1526.7</ele>
        <time>2017-07-30T08:43:49Z</time>
      </trkpt>
      <trkpt lat="42.60396" lon="-0.15912">
        <ele>1526.3</ele>
        <time>2017-07-30T08:43:50Z</time>
      </trkpt>
      <trkpt lat="42.60395" lon="-0.15916">
        <ele>1526</ele>
        <time>2017-07-30T08:43:51Z</time>
      </trkpt>
      <trkpt lat="42.60394" lon="-0.1592">
        <ele>1525.6</ele>
        <time>2017-07-30T08:43:52Z</time>
      </trkpt>
      <trkpt lat="42.60393" lon="-0.15924">
        <ele>1525.3</ele>
        <time>2017-07-30T08:43:53Z</time>
      </trkpt>
      <trkpt lat="42.60392" lon="-0.15928">
        <ele>1525.5</ele>
        <time>2017-07-30T08:43:54Z</time>
      </trkpt>
      <trkpt lat="42.60391" lon="-0.15932">
        <ele>1525.7</ele>
        <time>2017-07-30T08:43:55Z</time>
      </trkpt>
      <trkpt lat="42.60391" lon="-0.15935">
        <ele>1525.8</ele>
        <time>2017-07-30T08:43:56Z</time>
      </trkpt>
      <trkpt lat="42.60389" lon="-0.15942">
        <ele>1525.5</ele>
        <time>2017-07-30T08:43:58Z</time>
      </trkpt>
      <trkpt lat="42.60388" lon="-0.15949">
        <ele>1525</ele>
        <time>2017-07-30T08:44:00Z</time>
      </trkpt>
      <trkpt lat="42.60386" lon="-0.15956">
        <ele>1524.5</ele>
        <time>2017-07-30T08:44:02Z</time>
      </trkpt>
      <trkpt lat="42.60385" lon="-0.15962">
        <ele>1524</ele>
        <time>2017-07-30T08:44:04Z</time>
      </trkpt>
      <trkpt lat="42.60384" lon="-0.15968">
        <ele>1523.7</ele>
        <time>2017-07-30T08:44:06Z</time>
      </trkpt>
      <trkpt lat="42.60382" lon="-0.15975">
        <ele>1524</ele>
        <time>2017-07-30T08:44:08Z</time>
      </trkpt>
      <trkpt lat="42.60381" lon="-0.15981">
        <ele>1524.5</ele>
        <time>2017-07-30T08:44:10Z</time>
      </trkpt>
      <trkpt lat="42.6038" lon="-0.15988">
        <ele>1524.8</ele>
        <time>2017-07-30T08:44:12Z</time>
      </trkpt>
      <trkpt lat="42.60378" lon="-0.15994">
        <ele>1525.2</ele>
        <time>2017-07-30T08:44:14Z</time>
      </trkpt>
      <trkpt lat="42.60377" lon="-0.16001">
        <ele>1525.8</ele>
        <time>2017-07-30T08:44:16Z</time>
      </trkpt>
      <trkpt lat="42.60377" lon="-0.16008">
        <ele>1525.7</ele>
        <time>2017-07-30T08:44:18Z</time>
      </trkpt>
      <trkpt lat="42.60377" lon="-0.16015">
        <ele>1526</ele>
        <time>2017-07-30T08:44:20Z</time>
      </trkpt>
      <trkpt lat="42.60377" lon="-0.16021">
        <ele>1527</ele>
        <time>2017-07-30T08:44:22Z</time>
      </trkpt>
      <trkpt lat="42.60378" lon="-0.16027">
        <ele>1527.3</ele>
        <time>2017-07-30T08:44:24Z</time>
      </trkpt>
      <trkpt lat="42.60379" lon="-0.16034">
        <ele>1527.5</ele>
        <time>2017-07-30T08:44:26Z</time>
      </trkpt>
      <trkpt lat="42.6038" lon="-0.16038">
        <ele>1527.9</ele>
        <time>2017-07-30T08:44:27Z</time>
      </trkpt>
      <trkpt lat="42.6038" lon="-0.16042">
        <ele>1528.2</ele>
        <time>2017-07-30T08:44:28Z</time>
      </trkpt>
      <trkpt lat="42.60381" lon="-0.16046">
        <ele>1528.2</ele>
        <time>2017-07-30T08:44:29Z</time>
      </trkpt>
      <trkpt lat="42.60382" lon="-0.1605">
        <ele>1528</ele>
        <time>2017-07-30T08:44:30Z</time>
      </trkpt>
      <trkpt lat="42.60383" lon="-0.16055">
        <ele>1527.7</ele>
        <time>2017-07-30T08:44:31Z</time>
      </trkpt>
      <trkpt lat="42.60384" lon="-0.1606">
        <ele>1527.9</ele>
        <time>2017-07-30T08:44:32Z</time>
      </trkpt>
      <trkpt lat="42.60385" lon="-0.16065">
        <ele>1528.1</ele>
        <time>2017-07-30T08:44:33Z</time>
      </trkpt>
      <trkpt lat="42.60387" lon="-0.16071">
        <ele>1527.8</ele>
        <time>2017-07-30T08:44:34Z</time>
      </trkpt>
      <trkpt lat="42.60389" lon="-0.16076">
        <ele>1527.6</ele>
        <time>2017-07-30T08:44:35Z</time>
      </trkpt>
      <trkpt lat="42.6039" lon="-0.16082">
        <ele>1527.5</ele>
        <time>2017-07-30T08:44:36Z</time>
      </trkpt>
      <trkpt lat="42.60392" lon="-0.16088">
        <ele>1527.6</ele>
        <time>2017-07-30T08:44:37Z</time>
      </trkpt>
      <trkpt lat="42.60394" lon="-0.16095">
        <ele>1527.6</ele>
        <time>2017-07-30T08:44:38Z</time>
      </trkpt>
      <trkpt lat="42.60397" lon="-0.16102">
        <ele>1527</ele>
        <time>2017-07-30T08:44:39Z</time>
      </trkpt>
      <trkpt lat="42.60399" lon="-0.16109">
        <ele>1526.8</ele>
        <time>2017-07-30T08:44:40Z</time>
      </trkpt>
      <trkpt lat="42.60402" lon="-0.16116">
        <ele>1526.7</ele>
        <time>2017-07-30T08:44:41Z</time>
      </trkpt>
      <trkpt lat="42.60404" lon="-0.16123">
        <ele>1526.5</ele>
        <time>2017-07-30T08:44:42Z</time>
      </trkpt>
      <trkpt lat="42.60407" lon="-0.16132">
        <ele>1526.1</ele>
        <time>2017-07-30T08:44:43Z</time>
      </trkpt>
      <trkpt lat="42.60409" lon="-0.1614">
        <ele>1525.1</ele>
        <time>2017-07-30T08:44:44Z</time>
      </trkpt>
      <trkpt lat="42.60411" lon="-0.1615">
        <ele>1524.8</ele>
        <time>2017-07-30T08:44:45Z</time>
      </trkpt>
      <trkpt lat="42.60412" lon="-0.1616">
        <ele>1523.8</ele>
        <time>2017-07-30T08:44:46Z</time>
      </trkpt>
      <trkpt lat="42.60412" lon="-0.1617">
        <ele>1523</ele>
        <time>2017-07-30T08:44:47Z</time>
      </trkpt>
      <trkpt lat="42.60412" lon="-0.1618">
        <ele>1522.5</ele>
        <time>2017-07-30T08:44:48Z</time>
      </trkpt>
      <trkpt lat="42.60412" lon="-0.1619">
        <ele>1521.9</ele>
        <time>2017-07-30T08:44:49Z</time>
      </trkpt>
      <trkpt lat="42.60411" lon="-0.162">
        <ele>1521.3</ele>
        <time>2017-07-30T08:44:50Z</time>
      </trkpt>
      <trkpt lat="42.6041" lon="-0.1621">
        <ele>1521</ele>
        <time>2017-07-30T08:44:51Z</time>
      </trkpt>
      <trkpt lat="42.6041" lon="-0.1622">
        <ele>1521</ele>
        <time>2017-07-30T08:44:52Z</time>
      </trkpt>
      <trkpt lat="42.60409" lon="-0.1623">
        <ele>1521.6</ele>
        <time>2017-07-30T08:44:53Z</time>
      </trkpt>
      <trkpt lat="42.60409" lon="-0.1624">
        <ele>1522.5</ele>
        <time>2017-07-30T08:44:54Z</time>
      </trkpt>
      <trkpt lat="42.60408" lon="-0.16249">
        <ele>1523.2</ele>
        <time>2017-07-30T08:44:55Z</time>
      </trkpt>
      <trkpt lat="42.60407" lon="-0.16257">
        <ele>1524.3</ele>
        <time>2017-07-30T08:44:56Z</time>
      </trkpt>
      <trkpt lat="42.60407" lon="-0.16265">
        <ele>1525.5</ele>
        <time>2017-07-30T08:44:57Z</time>
      </trkpt>
      <trkpt lat="42.60406" lon="-0.16272">
        <ele>1526.2</ele>
        <time>2017-07-30T08:44:58Z</time>
      </trkpt>
      <trkpt lat="42.60406" lon="-0.16278">
        <ele>1526.3</ele>
        <time>2017-07-30T08:44:59Z</time>
      </trkpt>
      <trkpt lat="42.60405" lon="-0.16283">
        <ele>1526.4</ele>
        <time>2017-07-30T08:45:00Z</time>
      </trkpt>
      <trkpt lat="42.60405" lon="-0.16288">
        <ele>1526.3</ele>
        <time>2017-07-30T08:45:01Z</time>
      </trkpt>
      <trkpt lat="42.60405" lon="-0.16293">
        <ele>1526.2</ele>
        <time>2017-07-30T08:45:02Z</time>
      </trkpt>
      <trkpt lat="42.60405" lon="-0.16297">
        <ele>1525.9</ele>
        <time>2017-07-30T08:45:03Z</time>
      </trkpt>
      <trkpt lat="42.60405" lon="-0.16301">
        <ele>1525.5</ele>
        <time>2017-07-30T08:45:04Z</time>
      </trkpt>
      <trkpt lat="42.60405" lon="-0.16309">
        <ele>1524.7</ele>
        <time>2017-07-30T08:45:06Z</time>
      </trkpt>
      <trkpt lat="42.60404" lon="-0.16313">
        <ele>1524.3</ele>
        <time>2017-07-30T08:45:07Z</time>
      </trkpt>
      <trkpt lat="42.60404" lon="-0.16317">
        <ele>1523.9</ele>
        <time>2017-07-30T08:45:08Z</time>
      </trkpt>
      <trkpt lat="42.60404" lon="-0.16321">
        <ele>1523.7</ele>
        <time>2017-07-30T08:45:09Z</time>
      </trkpt>
      <trkpt lat="42.60404" lon="-0.16325">
        <ele>1523.4</ele>
        <time>2017-07-30T08:45:10Z</time>
      </trkpt>
      <trkpt lat="42.60404" lon="-0.16329">
        <ele>1523.2</ele>
        <time>2017-07-30T08:45:11Z</time>
      </trkpt>
      <trkpt lat="42.60404" lon="-0.16333">
        <ele>1523</ele>
        <time>2017-07-30T08:45:12Z</time>
      </trkpt>
      <trkpt lat="42.60404" lon="-0.16339">
        <ele>1522.7</ele>
        <time>2017-07-30T08:45:14Z</time>
      </trkpt>
      <trkpt lat="42.60403" lon="-0.16346">
        <ele>1522.8</ele>
        <time>2017-07-30T08:45:16Z</time>
      </trkpt>
      <trkpt lat="42.60403" lon="-0.1635">
        <ele>1522.9</ele>
        <time>2017-07-30T08:45:17Z</time>
      </trkpt>
      <trkpt lat="42.60403" lon="-0.16354">
        <ele>1523.1</ele>
        <time>2017-07-30T08:45:18Z</time>
      </trkpt>
      <trkpt lat="42.60402" lon="-0.16358">
        <ele>1523.3</ele>
        <time>2017-07-30T08:45:19Z</time>
      </trkpt>
      <trkpt lat="42.60402" lon="-0.16361">
        <ele>1523.5</ele>
        <time>2017-07-30T08:45:20Z</time>
      </trkpt>
      <trkpt lat="42.60401" lon="-0.16365">
        <ele>1524</ele>
        <time>2017-07-30T08:45:21Z</time>
      </trkpt>
      <trkpt lat="42.60401" lon="-0.16369">
        <ele>1524.5</ele>
        <time>2017-07-30T08:45:22Z</time>
      </trkpt>
      <trkpt lat="42.604" lon="-0.16372">
        <ele>1525</ele>
        <time>2017-07-30T08:45:23Z</time>
      </trkpt>
      <trkpt lat="42.604" lon="-0.16376">
        <ele>1525.5</ele>
        <time>2017-07-30T08:45:24Z</time>
      </trkpt>
      <trkpt lat="42.60399" lon="-0.1638">
        <ele>1526</ele>
        <time>2017-07-30T08:45:25Z</time>
      </trkpt>
      <trkpt lat="42.60398" lon="-0.16387">
        <ele>1527</ele>
        <time>2017-07-30T08:45:27Z</time>
      </trkpt>
      <trkpt lat="42.60397" lon="-0.1639">
        <ele>1527.5</ele>
        <time>2017-07-30T08:45:28Z</time>
      </trkpt>
      <trkpt lat="42.60396" lon="-0.16394">
        <ele>1527.8</ele>
        <time>2017-07-30T08:45:29Z</time>
      </trkpt>
      <trkpt lat="42.60394" lon="-0.16398">
        <ele>1528.1</ele>
        <time>2017-07-30T08:45:30Z</time>
      </trkpt>
      <trkpt lat="42.60393" lon="-0.16401">
        <ele>1528.2</ele>
        <time>2017-07-30T08:45:31Z</time>
      </trkpt>
      <trkpt lat="42.60391" lon="-0.16404">
        <ele>1528.2</ele>
        <time>2017-07-30T08:45:32Z</time>
      </trkpt>
      <trkpt lat="42.60389" lon="-0.16408">
        <ele>1528.2</ele>
        <time>2017-07-30T08:45:33Z</time>
      </trkpt>
      <trkpt lat="42.60388" lon="-0.16411">
        <ele>1528.1</ele>
        <time>2017-07-30T08:45:34Z</time>
      </trkpt>
      <trkpt lat="42.60386" lon="-0.16415">
        <ele>1528</ele>
        <time>2017-07-30T08:45:35Z</time>
      </trkpt>
      <trkpt lat="42.60384" lon="-0.16419">
        <ele>1528</ele>
        <time>2017-07-30T08:45:36Z</time>
      </trkpt>
      <trkpt lat="42.60382" lon="-0.16423">
        <ele>1527.9</ele>
        <time>2017-07-30T08:45:37Z</time>
      </trkpt>
      <trkpt lat="42.60379" lon="-0.16427">
        <ele>1527.7</ele>
        <time>2017-07-30T08:45:38Z</time>
      </trkpt>
      <trkpt lat="42.60377" lon="-0.1643">
        <ele>1527.4</ele>
        <time>2017-07-30T08:45:39Z</time>
      </trkpt>
      <trkpt lat="42.60375" lon="-0.16433">
        <ele>1527.2</ele>
        <time>2017-07-30T08:45:40Z</time>
      </trkpt>
      <trkpt lat="42.60373" lon="-0.16437">
        <ele>1527</ele>
        <time>2017-07-30T08:45:41Z</time>
      </trkpt>
      <trkpt lat="42.60372" lon="-0.1644">
        <ele>1526.5</ele>
        <time>2017-07-30T08:45:42Z</time>
      </trkpt>
      <trkpt lat="42.6037" lon="-0.16444">
        <ele>1525.7</ele>
        <time>2017-07-30T08:45:43Z</time>
      </trkpt>
      <trkpt lat="42.60368" lon="-0.1645">
        <ele>1524.5</ele>
        <time>2017-07-30T08:45:45Z</time>
      </trkpt>
      <trkpt lat="42.60365" lon="-0.16455">
        <ele>1524.1</ele>
        <time>2017-07-30T08:45:47Z</time>
      </trkpt>
      <trkpt lat="42.60363" lon="-0.16461">
        <ele>1523.7</ele>
        <time>2017-07-30T08:45:49Z</time>
      </trkpt>
      <trkpt lat="42.60361" lon="-0.16467">
        <ele>1523.3</ele>
        <time>2017-07-30T08:45:51Z</time>
      </trkpt>
      <trkpt lat="42.6036" lon="-0.16473">
        <ele>1524.2</ele>
        <time>2017-07-30T08:45:53Z</time>
      </trkpt>
      <trkpt lat="42.60359" lon="-0.16477">
        <ele>1524.7</ele>
        <time>2017-07-30T08:45:54Z</time>
      </trkpt>
      <trkpt lat="42.60359" lon="-0.16481">
        <ele>1525.2</ele>
        <time>2017-07-30T08:45:55Z</time>
      </trkpt>
      <trkpt lat="42.60358" lon="-0.16486">
        <ele>1525.8</ele>
        <time>2017-07-30T08:45:56Z</time>
      </trkpt>
      <trkpt lat="42.60357" lon="-0.1649">
        <ele>1526.3</ele>
        <time>2017-07-30T08:45:57Z</time>
      </trkpt>
      <trkpt lat="42.60356" lon="-0.16495">
        <ele>1526.9</ele>
        <time>2017-07-30T08:45:58Z</time>
      </trkpt>
      <trkpt lat="42.60355" lon="-0.165">
        <ele>1527.5</ele>
        <time>2017-07-30T08:45:59Z</time>
      </trkpt>
      <trkpt lat="42.60354" lon="-0.16505">
        <ele>1528.1</ele>
        <time>2017-07-30T08:46:00Z</time>
      </trkpt>
      <trkpt lat="42.60353" lon="-0.1651">
        <ele>1528.6</ele>
        <time>2017-07-30T08:46:01Z</time>
      </trkpt>
      <trkpt lat="42.60353" lon="-0.16514">
        <ele>1529</ele>
        <time>2017-07-30T08:46:02Z</time>
      </trkpt>
      <trkpt lat="42.60351" lon="-0.16517">
        <ele>1529.4</ele>
        <time>2017-07-30T08:46:03Z</time>
      </trkpt>
      <trkpt lat="42.6035" lon="-0.16521">
        <ele>1529.7</ele>
        <time>2017-07-30T08:46:04Z</time>
      </trkpt>
      <trkpt lat="42.60349" lon="-0.16524">
        <ele>1530</ele>
        <time>2017-07-30T08:46:05Z</time>
      </trkpt>
      <trkpt lat="42.60347" lon="-0.16528">
        <ele>1530.1</ele>
        <time>2017-07-30T08:46:06Z</time>
      </trkpt>
      <trkpt lat="42.60345" lon="-0.16531">
        <ele>1530.1</ele>
        <time>2017-07-30T08:46:07Z</time>
      </trkpt>
      <trkpt lat="42.60344" lon="-0.16534">
        <ele>1530.2</ele>
        <time>2017-07-30T08:46:08Z</time>
      </trkpt>
      <trkpt lat="42.60342" lon="-0.16538">
        <ele>1530.3</ele>
        <time>2017-07-30T08:46:09Z</time>
      </trkpt>
      <trkpt lat="42.6034" lon="-0.16541">
        <ele>1530.4</ele>
        <time>2017-07-30T08:46:10Z</time>
      </trkpt>
      <trkpt lat="42.60338" lon="-0.16545">
        <ele>1530.6</ele>
        <time>2017-07-30T08:46:11Z</time>
      </trkpt>
      <trkpt lat="42.60337" lon="-0.16548">
        <ele>1530.9</ele>
        <time>2017-07-30T08:46:12Z</time>
      </trkpt>
      <trkpt lat="42.60336" lon="-0.16552">
        <ele>1531</ele>
        <time>2017-07-30T08:46:13Z</time>
      </trkpt>
      <trkpt lat="42.60335" lon="-0.16555">
        <ele>1531.2</ele>
        <time>2017-07-30T08:46:14Z</time>
      </trkpt>
      <trkpt lat="42.60334" lon="-0.16559">
        <ele>1531.3</ele>
        <time>2017-07-30T08:46:15Z</time>
      </trkpt>
      <trkpt lat="42.60332" lon="-0.16565">
        <ele>1531.4</ele>
        <time>2017-07-30T08:46:17Z</time>
      </trkpt>
      <trkpt lat="42.60332" lon="-0.1657">
        <ele>1531.7</ele>
        <time>2017-07-30T08:46:19Z</time>
      </trkpt>
      <trkpt lat="42.60332" lon="-0.16576">
        <ele>1532</ele>
        <time>2017-07-30T08:46:21Z</time>
      </trkpt>
      <trkpt lat="42.60332" lon="-0.16582">
        <ele>1532.3</ele>
        <time>2017-07-30T08:46:23Z</time>
      </trkpt>
      <trkpt lat="42.60331" lon="-0.16589">
        <ele>1532.6</ele>
        <time>2017-07-30T08:46:25Z</time>
      </trkpt>
      <trkpt lat="42.60331" lon="-0.16596">
        <ele>1532.4</ele>
        <time>2017-07-30T08:46:27Z</time>
      </trkpt>
      <trkpt lat="42.6033" lon="-0.16599">
        <ele>1532.1</ele>
        <time>2017-07-30T08:46:28Z</time>
      </trkpt>
      <trkpt lat="42.6033" lon="-0.16604">
        <ele>1531.8</ele>
        <time>2017-07-30T08:46:29Z</time>
      </trkpt>
      <trkpt lat="42.6033" lon="-0.16608">
        <ele>1531.4</ele>
        <time>2017-07-30T08:46:30Z</time>
      </trkpt>
      <trkpt lat="42.60329" lon="-0.16613">
        <ele>1531</ele>
        <time>2017-07-30T08:46:31Z</time>
      </trkpt>
      <trkpt lat="42.60329" lon="-0.16619">
        <ele>1530.6</ele>
        <time>2017-07-30T08:46:32Z</time>
      </trkpt>
      <trkpt lat="42.60328" lon="-0.16624">
        <ele>1530.2</ele>
        <time>2017-07-30T08:46:33Z</time>
      </trkpt>
      <trkpt lat="42.60327" lon="-0.16631">
        <ele>1529.7</ele>
        <time>2017-07-30T08:46:34Z</time>
      </trkpt>
      <trkpt lat="42.60326" lon="-0.16638">
        <ele>1529.2</ele>
        <time>2017-07-30T08:46:35Z</time>
      </trkpt>
      <trkpt lat="42.60325" lon="-0.16644">
        <ele>1528.7</ele>
        <time>2017-07-30T08:46:36Z</time>
      </trkpt>
      <trkpt lat="42.60324" lon="-0.16652">
        <ele>1528.2</ele>
        <time>2017-07-30T08:46:37Z</time>
      </trkpt>
      <trkpt lat="42.60322" lon="-0.16659">
        <ele>1527.1</ele>
        <time>2017-07-30T08:46:38Z</time>
      </trkpt>
      <trkpt lat="42.6032" lon="-0.16667">
        <ele>1525.4</ele>
        <time>2017-07-30T08:46:39Z</time>
      </trkpt>
      <trkpt lat="42.60318" lon="-0.16676">
        <ele>1523.6</ele>
        <time>2017-07-30T08:46:40Z</time>
      </trkpt>
      <trkpt lat="42.60316" lon="-0.16684">
        <ele>1522</ele>
        <time>2017-07-30T08:46:41Z</time>
      </trkpt>
      <trkpt lat="42.60314" lon="-0.16693">
        <ele>1520.2</ele>
        <time>2017-07-30T08:46:42Z</time>
      </trkpt>
      <trkpt lat="42.60311" lon="-0.16701">
        <ele>1519.3</ele>
        <time>2017-07-30T08:46:43Z</time>
      </trkpt>
      <trkpt lat="42.60309" lon="-0.16708">
        <ele>1519.3</ele>
        <time>2017-07-30T08:46:44Z</time>
      </trkpt>
      <trkpt lat="42.60308" lon="-0.16713">
        <ele>1519.4</ele>
        <time>2017-07-30T08:46:45Z</time>
      </trkpt>
      <trkpt lat="42.60306" lon="-0.16717">
        <ele>1519.7</ele>
        <time>2017-07-30T08:46:46Z</time>
      </trkpt>
      <trkpt lat="42.60305" lon="-0.16721">
        <ele>1520</ele>
        <time>2017-07-30T08:46:48Z</time>
      </trkpt>
      <trkpt lat="42.60305" lon="-0.16725">
        <ele>1520.3</ele>
        <time>2017-07-30T08:50:59Z</time>
      </trkpt>
      <trkpt lat="42.60303" lon="-0.16731">
        <ele>1520.8</ele>
        <time>2017-07-30T08:51:01Z</time>
      </trkpt>
      <trkpt lat="42.60303" lon="-0.16735">
        <ele>1521.1</ele>
        <time>2017-07-30T08:51:02Z</time>
      </trkpt>
      <trkpt lat="42.60304" lon="-0.1674">
        <ele>1521.4</ele>
        <time>2017-07-30T08:51:03Z</time>
      </trkpt>
      <trkpt lat="42.60304" lon="-0.16745">
        <ele>1521.7</ele>
        <time>2017-07-30T08:51:04Z</time>
      </trkpt>
      <trkpt lat="42.60303" lon="-0.16751">
        <ele>1521.7</ele>
        <time>2017-07-30T08:51:05Z</time>
      </trkpt>
      <trkpt lat="42.60302" lon="-0.16757">
        <ele>1521.8</ele>
        <time>2017-07-30T08:51:06Z</time>
      </trkpt>
      <trkpt lat="42.60298" lon="-0.16764">
        <ele>1522.2</ele>
        <time>2017-07-30T08:51:07Z</time>
      </trkpt>
      <trkpt lat="42.60295" lon="-0.16771">
        <ele>1522</ele>
        <time>2017-07-30T08:51:08Z</time>
      </trkpt>
      <trkpt lat="42.60292" lon="-0.16777">
        <ele>1522</ele>
        <time>2017-07-30T08:51:09Z</time>
      </trkpt>
      <trkpt lat="42.6029" lon="-0.16782">
        <ele>1522.3</ele>
        <time>2017-07-30T08:51:10Z</time>
      </trkpt>
      <trkpt lat="42.60287" lon="-0.16787">
        <ele>1522.5</ele>
        <time>2017-07-30T08:51:11Z</time>
      </trkpt>
      <trkpt lat="42.60286" lon="-0.16792">
        <ele>1522.3</ele>
        <time>2017-07-30T08:51:12Z</time>
      </trkpt>
      <trkpt lat="42.60284" lon="-0.16797">
        <ele>1522.4</ele>
        <time>2017-07-30T08:51:13Z</time>
      </trkpt>
      <trkpt lat="42.60283" lon="-0.16801">
        <ele>1522.1</ele>
        <time>2017-07-30T08:51:14Z</time>
      </trkpt>
      <trkpt lat="42.60281" lon="-0.16806">
        <ele>1521.3</ele>
        <time>2017-07-30T08:51:15Z</time>
      </trkpt>
      <trkpt lat="42.6028" lon="-0.16811">
        <ele>1520.6</ele>
        <time>2017-07-30T08:51:16Z</time>
      </trkpt>
      <trkpt lat="42.60278" lon="-0.16814">
        <ele>1521</ele>
        <time>2017-07-30T08:51:17Z</time>
      </trkpt>
      <trkpt lat="42.60275" lon="-0.16819">
        <ele>1519.5</ele>
        <time>2017-07-30T08:51:19Z</time>
      </trkpt>
      <trkpt lat="42.60272" lon="-0.16824">
        <ele>1519.3</ele>
        <time>2017-07-30T08:51:21Z</time>
      </trkpt>
      <trkpt lat="42.60271" lon="-0.16828">
        <ele>1518.6</ele>
        <time>2017-07-30T08:51:22Z</time>
      </trkpt>
      <trkpt lat="42.6027" lon="-0.16831">
        <ele>1518.6</ele>
        <time>2017-07-30T08:51:23Z</time>
      </trkpt>
      <trkpt lat="42.60268" lon="-0.16835">
        <ele>1519</ele>
        <time>2017-07-30T08:51:24Z</time>
      </trkpt>
      <trkpt lat="42.60266" lon="-0.1684">
        <ele>1519.6</ele>
        <time>2017-07-30T08:51:25Z</time>
      </trkpt>
      <trkpt lat="42.60265" lon="-0.16843">
        <ele>1519.3</ele>
        <time>2017-07-30T08:51:26Z</time>
      </trkpt>
      <trkpt lat="42.60262" lon="-0.16848">
        <ele>1520.1</ele>
        <time>2017-07-30T08:51:28Z</time>
      </trkpt>
      <trkpt lat="42.6026" lon="-0.16851">
        <ele>1520.8</ele>
        <time>2017-07-30T08:51:30Z</time>
      </trkpt>
      <trkpt lat="42.60257" lon="-0.16853">
        <ele>1520.9</ele>
        <time>2017-07-30T08:51:36Z</time>
      </trkpt>
      <trkpt lat="42.6026" lon="-0.16851">
        <ele>1520.9</ele>
        <time>2017-07-30T08:51:42Z</time>
      </trkpt>
      <trkpt lat="42.60263" lon="-0.16849">
        <ele>1519.8</ele>
        <time>2017-07-30T08:51:45Z</time>
      </trkpt>
      <trkpt lat="42.60266" lon="-0.16845">
        <ele>1519</ele>
        <time>2017-07-30T08:51:48Z</time>
      </trkpt>
      <trkpt lat="42.60268" lon="-0.16842">
        <ele>1518.3</ele>
        <time>2017-07-30T08:51:52Z</time>
      </trkpt>
      <trkpt lat="42.60269" lon="-0.16838">
        <ele>1518.8</ele>
        <time>2017-07-30T08:51:56Z</time>
      </trkpt>
      <trkpt lat="42.60271" lon="-0.16835">
        <ele>1518.3</ele>
        <time>2017-07-30T08:51:59Z</time>
      </trkpt>
      <trkpt lat="42.60273" lon="-0.16831">
        <ele>1518.2</ele>
        <time>2017-07-30T08:52:02Z</time>
      </trkpt>
      <trkpt lat="42.60274" lon="-0.16827">
        <ele>1519.1</ele>
        <time>2017-07-30T08:52:05Z</time>
      </trkpt>
      <trkpt lat="42.60276" lon="-0.16824">
        <ele>1519.1</ele>
        <time>2017-07-30T08:52:08Z</time>
      </trkpt>
      <trkpt lat="42.60278" lon="-0.1682">
        <ele>1519.6</ele>
        <time>2017-07-30T08:52:11Z</time>
      </trkpt>
      <trkpt lat="42.60279" lon="-0.16817">
        <ele>1520.6</ele>
        <time>2017-07-30T08:52:14Z</time>
      </trkpt>
      <trkpt lat="42.60279" lon="-0.16812">
        <ele>1521.2</ele>
        <time>2017-07-30T08:52:26Z</time>
      </trkpt>
      <trkpt lat="42.60278" lon="-0.16816">
        <ele>1520.7</ele>
        <time>2017-07-30T08:52:33Z</time>
      </trkpt>
      <trkpt lat="42.60276" lon="-0.1682">
        <ele>1519.7</ele>
        <time>2017-07-30T08:52:37Z</time>
      </trkpt>
      <trkpt lat="42.60275" lon="-0.16824">
        <ele>1519.3</ele>
        <time>2017-07-30T08:52:41Z</time>
      </trkpt>
      <trkpt lat="42.60273" lon="-0.16828">
        <ele>1518.4</ele>
        <time>2017-07-30T08:52:45Z</time>
      </trkpt>
      <trkpt lat="42.6027" lon="-0.16831">
        <ele>1519.3</ele>
        <time>2017-07-30T08:52:48Z</time>
      </trkpt>
      <trkpt lat="42.60268" lon="-0.16835">
        <ele>1519.6</ele>
        <time>2017-07-30T08:52:51Z</time>
      </trkpt>
      <trkpt lat="42.60267" lon="-0.1684">
        <ele>1519.2</ele>
        <time>2017-07-30T08:52:55Z</time>
      </trkpt>
      <trkpt lat="42.60266" lon="-0.16843">
        <ele>1520</ele>
        <time>2017-07-30T08:52:58Z</time>
      </trkpt>
      <trkpt lat="42.60265" lon="-0.16847">
        <ele>1519.6</ele>
        <time>2017-07-30T08:53:02Z</time>
      </trkpt>
      <trkpt lat="42.60267" lon="-0.1685">
        <ele>1517.8</ele>
        <time>2017-07-30T08:53:23Z</time>
      </trkpt>
      <trkpt lat="42.60269" lon="-0.16846">
        <ele>1517.1</ele>
        <time>2017-07-30T08:53:26Z</time>
      </trkpt>
      <trkpt lat="42.60271" lon="-0.16843">
        <ele>1517.7</ele>
        <time>2017-07-30T08:53:28Z</time>
      </trkpt>
      <trkpt lat="42.60273" lon="-0.16838">
        <ele>1517.3</ele>
        <time>2017-07-30T08:53:30Z</time>
      </trkpt>
      <trkpt lat="42.60275" lon="-0.16834">
        <ele>1518</ele>
        <time>2017-07-30T08:53:32Z</time>
      </trkpt>
      <trkpt lat="42.60276" lon="-0.16829">
        <ele>1518</ele>
        <time>2017-07-30T08:53:34Z</time>
      </trkpt>
      <trkpt lat="42.60277" lon="-0.16825">
        <ele>1519</ele>
        <time>2017-07-30T08:53:36Z</time>
      </trkpt>
      <trkpt lat="42.60277" lon="-0.1682">
        <ele>1520.1</ele>
        <time>2017-07-30T08:53:38Z</time>
      </trkpt>
      <trkpt lat="42.60277" lon="-0.16817">
        <ele>1521.2</ele>
        <time>2017-07-30T08:53:40Z</time>
      </trkpt>
      <trkpt lat="42.60279" lon="-0.16813">
        <ele>1522.1</ele>
        <time>2017-07-30T08:53:43Z</time>
      </trkpt>
      <trkpt lat="42.60282" lon="-0.16814">
        <ele>1521.8</ele>
        <time>2017-07-30T08:53:53Z</time>
      </trkpt>
      <trkpt lat="42.60285" lon="-0.16813">
        <ele>1521.3</ele>
        <time>2017-07-30T08:53:57Z</time>
      </trkpt>
      <trkpt lat="42.60288" lon="-0.16813">
        <ele>1520.7</ele>
        <time>2017-07-30T08:54:05Z</time>
      </trkpt>
      <trkpt lat="42.60292" lon="-0.16812">
        <ele>1519.9</ele>
        <time>2017-07-30T08:54:08Z</time>
      </trkpt>
      <trkpt lat="42.60295" lon="-0.16812">
        <ele>1519</ele>
        <time>2017-07-30T08:54:10Z</time>
      </trkpt>
      <trkpt lat="42.60299" lon="-0.1681">
        <ele>1518</ele>
        <time>2017-07-30T08:54:13Z</time>
      </trkpt>
      <trkpt lat="42.60302" lon="-0.16807">
        <ele>1516.9</ele>
        <time>2017-07-30T08:54:14Z</time>
      </trkpt>
      <trkpt lat="42.60304" lon="-0.16805">
        <ele>1517.9</ele>
        <time>2017-07-30T08:54:15Z</time>
      </trkpt>
      <trkpt lat="42.60307" lon="-0.16803">
        <ele>1516.8</ele>
        <time>2017-07-30T08:54:16Z</time>
      </trkpt>
      <trkpt lat="42.60311" lon="-0.16801">
        <ele>1515.4</ele>
        <time>2017-07-30T08:54:18Z</time>
      </trkpt>
      <trkpt lat="42.60314" lon="-0.16801">
        <ele>1514</ele>
        <time>2017-07-30T08:54:19Z</time>
      </trkpt>
      <trkpt lat="42.60317" lon="-0.16801">
        <ele>1511.3</ele>
        <time>2017-07-30T08:54:20Z</time>
      </trkpt>
      <trkpt lat="42.60321" lon="-0.16801">
        <ele>1509.8</ele>
        <time>2017-07-30T08:54:21Z</time>
      </trkpt>
      <trkpt lat="42.60324" lon="-0.16801">
        <ele>1509.6</ele>
        <time>2017-07-30T08:54:22Z</time>
      </trkpt>
      <trkpt lat="42.60326" lon="-0.168">
        <ele>1509.6</ele>
        <time>2017-07-30T08:54:23Z</time>
      </trkpt>
      <trkpt lat="42.60329" lon="-0.16799">
        <ele>1508.2</ele>
        <time>2017-07-30T08:54:24Z</time>
      </trkpt>
      <trkpt lat="42.60332" lon="-0.16798">
        <ele>1507.1</ele>
        <time>2017-07-30T08:54:25Z</time>
      </trkpt>
      <trkpt lat="42.60336" lon="-0.16797">
        <ele>1506.2</ele>
        <time>2017-07-30T08:54:26Z</time>
      </trkpt>
      <trkpt lat="42.60339" lon="-0.16796">
        <ele>1505.2</ele>
        <time>2017-07-30T08:54:27Z</time>
      </trkpt>
      <trkpt lat="42.60344" lon="-0.16794">
        <ele>1504.2</ele>
        <time>2017-07-30T08:54:29Z</time>
      </trkpt>
      <trkpt lat="42.60346" lon="-0.16792">
        <ele>1504.2</ele>
        <time>2017-07-30T08:54:30Z</time>
      </trkpt>
      <trkpt lat="42.60349" lon="-0.16791">
        <ele>1503.2</ele>
        <time>2017-07-30T08:54:31Z</time>
      </trkpt>
      <trkpt lat="42.60352" lon="-0.1679">
        <ele>1502.1</ele>
        <time>2017-07-30T08:54:32Z</time>
      </trkpt>
      <trkpt lat="42.60356" lon="-0.16789">
        <ele>1501.1</ele>
        <time>2017-07-30T08:54:33Z</time>
      </trkpt>
      <trkpt lat="42.60359" lon="-0.16789">
        <ele>1500.2</ele>
        <time>2017-07-30T08:54:34Z</time>
      </trkpt>
      <trkpt lat="42.60364" lon="-0.16787">
        <ele>1498.9</ele>
        <time>2017-07-30T08:54:36Z</time>
      </trkpt>
      <trkpt lat="42.60367" lon="-0.16786">
        <ele>1498.9</ele>
        <time>2017-07-30T08:54:37Z</time>
      </trkpt>
      <trkpt lat="42.60371" lon="-0.16783">
        <ele>1497</ele>
        <time>2017-07-30T08:54:39Z</time>
      </trkpt>
      <trkpt lat="42.60375" lon="-0.16782">
        <ele>1495.5</ele>
        <time>2017-07-30T08:54:41Z</time>
      </trkpt>
      <trkpt lat="42.60378" lon="-0.16782">
        <ele>1494</ele>
        <time>2017-07-30T08:54:43Z</time>
      </trkpt>
      <trkpt lat="42.60382" lon="-0.16782">
        <ele>1492.6</ele>
        <time>2017-07-30T08:54:45Z</time>
      </trkpt>
      <trkpt lat="42.60386" lon="-0.1678">
        <ele>1491.1</ele>
        <time>2017-07-30T08:54:47Z</time>
      </trkpt>
      <trkpt lat="42.6039" lon="-0.16778">
        <ele>1489.2</ele>
        <time>2017-07-30T08:54:49Z</time>
      </trkpt>
      <trkpt lat="42.60392" lon="-0.16776">
        <ele>1489.2</ele>
        <time>2017-07-30T08:54:50Z</time>
      </trkpt>
      <trkpt lat="42.60397" lon="-0.16774">
        <ele>1486.9</ele>
        <time>2017-07-30T08:54:52Z</time>
      </trkpt>
      <trkpt lat="42.604" lon="-0.16772">
        <ele>1485.2</ele>
        <time>2017-07-30T08:54:53Z</time>
      </trkpt>
      <trkpt lat="42.60403" lon="-0.16771">
        <ele>1484.4</ele>
        <time>2017-07-30T08:54:54Z</time>
      </trkpt>
      <trkpt lat="42.60406" lon="-0.16768">
        <ele>1482.7</ele>
        <time>2017-07-30T08:54:55Z</time>
      </trkpt>
      <trkpt lat="42.6041" lon="-0.16765">
        <ele>1482.2</ele>
        <time>2017-07-30T08:54:56Z</time>
      </trkpt>
      <trkpt lat="42.60413" lon="-0.16762">
        <ele>1482</ele>
        <time>2017-07-30T08:54:57Z</time>
      </trkpt>
      <trkpt lat="42.60417" lon="-0.16758">
        <ele>1481.9</ele>
        <time>2017-07-30T08:54:58Z</time>
      </trkpt>
      <trkpt lat="42.6042" lon="-0.16755">
        <ele>1480.6</ele>
        <time>2017-07-30T08:54:59Z</time>
      </trkpt>
      <trkpt lat="42.60422" lon="-0.16751">
        <ele>1480.3</ele>
        <time>2017-07-30T08:55:01Z</time>
      </trkpt>
      <trkpt lat="42.60424" lon="-0.16745">
        <ele>1481</ele>
        <time>2017-07-30T08:55:03Z</time>
      </trkpt>
      <trkpt lat="42.60425" lon="-0.16741">
        <ele>1482.2</ele>
        <time>2017-07-30T08:55:04Z</time>
      </trkpt>
      <trkpt lat="42.60428" lon="-0.16735">
        <ele>1481.9</ele>
        <time>2017-07-30T08:55:06Z</time>
      </trkpt>
      <trkpt lat="42.6043" lon="-0.1673">
        <ele>1483</ele>
        <time>2017-07-30T08:55:08Z</time>
      </trkpt>
      <trkpt lat="42.60434" lon="-0.16727">
        <ele>1482.5</ele>
        <time>2017-07-30T08:55:10Z</time>
      </trkpt>
      <trkpt lat="42.60437" lon="-0.16725">
        <ele>1479.9</ele>
        <time>2017-07-30T08:55:12Z</time>
      </trkpt>
      <trkpt lat="42.6044" lon="-0.16723">
        <ele>1479.6</ele>
        <time>2017-07-30T08:55:13Z</time>
      </trkpt>
      <trkpt lat="42.60444" lon="-0.1672">
        <ele>1478.6</ele>
        <time>2017-07-30T08:55:14Z</time>
      </trkpt>
      <trkpt lat="42.60447" lon="-0.16719">
        <ele>1478.3</ele>
        <time>2017-07-30T08:55:15Z</time>
      </trkpt>
      <trkpt lat="42.60451" lon="-0.16716">
        <ele>1477.1</ele>
        <time>2017-07-30T08:55:17Z</time>
      </trkpt>
      <trkpt lat="42.60455" lon="-0.16714">
        <ele>1476.5</ele>
        <time>2017-07-30T08:55:19Z</time>
      </trkpt>
      <trkpt lat="42.60456" lon="-0.1671">
        <ele>1475.8</ele>
        <time>2017-07-30T08:55:22Z</time>
      </trkpt>
      <trkpt lat="42.60458" lon="-0.16714">
        <ele>1475.1</ele>
        <time>2017-07-30T08:55:29Z</time>
      </trkpt>
      <trkpt lat="42.60462" lon="-0.16711">
        <ele>1474.3</ele>
        <time>2017-07-30T08:55:42Z</time>
      </trkpt>
      <trkpt lat="42.60465" lon="-0.16709">
        <ele>1472.8</ele>
        <time>2017-07-30T08:55:43Z</time>
      </trkpt>
      <trkpt lat="42.60469" lon="-0.16706">
        <ele>1470.8</ele>
        <time>2017-07-30T08:55:45Z</time>
      </trkpt>
      <trkpt lat="42.60472" lon="-0.16703">
        <ele>1470.2</ele>
        <time>2017-07-30T08:55:46Z</time>
      </trkpt>
      <trkpt lat="42.60477" lon="-0.16699">
        <ele>1469</ele>
        <time>2017-07-30T08:55:47Z</time>
      </trkpt>
      <trkpt lat="42.6048" lon="-0.16697">
        <ele>1467.9</ele>
        <time>2017-07-30T08:55:48Z</time>
      </trkpt>
      <trkpt lat="42.60483" lon="-0.16692">
        <ele>1466.4</ele>
        <time>2017-07-30T08:55:50Z</time>
      </trkpt>
      <trkpt lat="42.60485" lon="-0.16689">
        <ele>1464.7</ele>
        <time>2017-07-30T08:55:51Z</time>
      </trkpt>
      <trkpt lat="42.60487" lon="-0.16686">
        <ele>1464.8</ele>
        <time>2017-07-30T08:55:52Z</time>
      </trkpt>
      <trkpt lat="42.6049" lon="-0.16682">
        <ele>1462.9</ele>
        <time>2017-07-30T08:55:53Z</time>
      </trkpt>
      <trkpt lat="42.60492" lon="-0.1668">
        <ele>1460.9</ele>
        <time>2017-07-30T08:55:54Z</time>
      </trkpt>
      <trkpt lat="42.60495" lon="-0.16675">
        <ele>1458.9</ele>
        <time>2017-07-30T08:55:56Z</time>
      </trkpt>
      <trkpt lat="42.60495" lon="-0.16668">
        <ele>1458.5</ele>
        <time>2017-07-30T08:55:58Z</time>
      </trkpt>
      <trkpt lat="42.60496" lon="-0.16663">
        <ele>1458.4</ele>
        <time>2017-07-30T08:55:59Z</time>
      </trkpt>
      <trkpt lat="42.60497" lon="-0.16659">
        <ele>1456.9</ele>
        <time>2017-07-30T08:56:00Z</time>
      </trkpt>
      <trkpt lat="42.60499" lon="-0.16654">
        <ele>1457</ele>
        <time>2017-07-30T08:56:01Z</time>
      </trkpt>
      <trkpt lat="42.60502" lon="-0.1665">
        <ele>1455.6</ele>
        <time>2017-07-30T08:56:02Z</time>
      </trkpt>
      <trkpt lat="42.60504" lon="-0.16645">
        <ele>1454.1</ele>
        <time>2017-07-30T08:56:03Z</time>
      </trkpt>
      <trkpt lat="42.60505" lon="-0.16641">
        <ele>1454.1</ele>
        <time>2017-07-30T08:56:04Z</time>
      </trkpt>
      <trkpt lat="42.60506" lon="-0.16636">
        <ele>1454</ele>
        <time>2017-07-30T08:56:05Z</time>
      </trkpt>
      <trkpt lat="42.60507" lon="-0.16632">
        <ele>1452.2</ele>
        <time>2017-07-30T08:56:06Z</time>
      </trkpt>
      <trkpt lat="42.60508" lon="-0.16628">
        <ele>1452.1</ele>
        <time>2017-07-30T08:56:07Z</time>
      </trkpt>
      <trkpt lat="42.60507" lon="-0.16623">
        <ele>1452</ele>
        <time>2017-07-30T08:56:14Z</time>
      </trkpt>
      <trkpt lat="42.60509" lon="-0.16628">
        <ele>1452.2</ele>
        <time>2017-07-30T08:56:18Z</time>
      </trkpt>
      <trkpt lat="42.60512" lon="-0.16632">
        <ele>1450.5</ele>
        <time>2017-07-30T08:56:20Z</time>
      </trkpt>
      <trkpt lat="42.60513" lon="-0.16635">
        <ele>1448.5</ele>
        <time>2017-07-30T08:56:21Z</time>
      </trkpt>
      <trkpt lat="42.60515" lon="-0.16639">
        <ele>1448.5</ele>
        <time>2017-07-30T08:56:22Z</time>
      </trkpt>
      <trkpt lat="42.60516" lon="-0.16643">
        <ele>1446.2</ele>
        <time>2017-07-30T08:56:23Z</time>
      </trkpt>
      <trkpt lat="42.60517" lon="-0.16648">
        <ele>1446</ele>
        <time>2017-07-30T08:56:24Z</time>
      </trkpt>
      <trkpt lat="42.60517" lon="-0.16654">
        <ele>1445.9</ele>
        <time>2017-07-30T08:56:26Z</time>
      </trkpt>
      <trkpt lat="42.60515" lon="-0.16656">
        <ele>1448</ele>
        <time>2017-07-30T08:56:28Z</time>
      </trkpt>
      <trkpt lat="42.60516" lon="-0.16652">
        <ele>1445.9</ele>
        <time>2017-07-30T08:56:33Z</time>
      </trkpt>
      <trkpt lat="42.60518" lon="-0.16645">
        <ele>1446.3</ele>
        <time>2017-07-30T08:56:35Z</time>
      </trkpt>
      <trkpt lat="42.60518" lon="-0.1664">
        <ele>1446.5</ele>
        <time>2017-07-30T08:56:36Z</time>
      </trkpt>
      <trkpt lat="42.60519" lon="-0.16635">
        <ele>1446.6</ele>
        <time>2017-07-30T08:56:37Z</time>
      </trkpt>
      <trkpt lat="42.60519" lon="-0.16631">
        <ele>1444.7</ele>
        <time>2017-07-30T08:56:38Z</time>
      </trkpt>
      <trkpt lat="42.6052" lon="-0.16626">
        <ele>1444.8</ele>
        <time>2017-07-30T08:56:40Z</time>
      </trkpt>
      <trkpt lat="42.60523" lon="-0.16628">
        <ele>1442.9</ele>
        <time>2017-07-30T08:56:45Z</time>
      </trkpt>
      <trkpt lat="42.60524" lon="-0.16632">
        <ele>1442.7</ele>
        <time>2017-07-30T08:56:48Z</time>
      </trkpt>
      <trkpt lat="42.60527" lon="-0.16637">
        <ele>1440.6</ele>
        <time>2017-07-30T08:56:51Z</time>
      </trkpt>
      <trkpt lat="42.60529" lon="-0.1664">
        <ele>1438.5</ele>
        <time>2017-07-30T08:56:52Z</time>
      </trkpt>
      <trkpt lat="42.6053" lon="-0.16643">
        <ele>1438.3</ele>
        <time>2017-07-30T08:56:53Z</time>
      </trkpt>
      <trkpt lat="42.6053" lon="-0.16649">
        <ele>1438.2</ele>
        <time>2017-07-30T08:56:55Z</time>
      </trkpt>
      <trkpt lat="42.6053" lon="-0.16656">
        <ele>1437.9</ele>
        <time>2017-07-30T08:56:57Z</time>
      </trkpt>
      <trkpt lat="42.60531" lon="-0.1666">
        <ele>1438</ele>
        <time>2017-07-30T08:56:58Z</time>
      </trkpt>
      <trkpt lat="42.60532" lon="-0.16665">
        <ele>1435.7</ele>
        <time>2017-07-30T08:56:59Z</time>
      </trkpt>
      <trkpt lat="42.60533" lon="-0.1667">
        <ele>1435.6</ele>
        <time>2017-07-30T08:57:00Z</time>
      </trkpt>
      <trkpt lat="42.60535" lon="-0.16675">
        <ele>1435.5</ele>
        <time>2017-07-30T08:57:01Z</time>
      </trkpt>
      <trkpt lat="42.60535" lon="-0.1668">
        <ele>1433.1</ele>
        <time>2017-07-30T08:57:02Z</time>
      </trkpt>
      <trkpt lat="42.60537" lon="-0.16687">
        <ele>1433.1</ele>
        <time>2017-07-30T08:57:03Z</time>
      </trkpt>
      <trkpt lat="42.60538" lon="-0.16692">
        <ele>1433.1</ele>
        <time>2017-07-30T08:57:04Z</time>
      </trkpt>
      <trkpt lat="42.60539" lon="-0.16697">
        <ele>1430.9</ele>
        <time>2017-07-30T08:57:05Z</time>
      </trkpt>
      <trkpt lat="42.60541" lon="-0.16701">
        <ele>1431.2</ele>
        <time>2017-07-30T08:57:06Z</time>
      </trkpt>
      <trkpt lat="42.60543" lon="-0.16705">
        <ele>1429.4</ele>
        <time>2017-07-30T08:57:07Z</time>
      </trkpt>
      <trkpt lat="42.60545" lon="-0.16709">
        <ele>1427.7</ele>
        <time>2017-07-30T08:57:08Z</time>
      </trkpt>
      <trkpt lat="42.60546" lon="-0.16713">
        <ele>1428.4</ele>
        <time>2017-07-30T08:57:10Z</time>
      </trkpt>
      <trkpt lat="42.60549" lon="-0.16713">
        <ele>1426.4</ele>
        <time>2017-07-30T08:57:13Z</time>
      </trkpt>
      <trkpt lat="42.60551" lon="-0.16704">
        <ele>1423.3</ele>
        <time>2017-07-30T08:57:15Z</time>
      </trkpt>
      <trkpt lat="42.60552" lon="-0.167">
        <ele>1422.8</ele>
        <time>2017-07-30T08:57:16Z</time>
      </trkpt>
      <trkpt lat="42.60553" lon="-0.16696">
        <ele>1422.4</ele>
        <time>2017-07-30T08:57:17Z</time>
      </trkpt>
      <trkpt lat="42.60553" lon="-0.16692">
        <ele>1422.2</ele>
        <time>2017-07-30T08:57:18Z</time>
      </trkpt>
      <trkpt lat="42.60554" lon="-0.16689">
        <ele>1420.5</ele>
        <time>2017-07-30T08:57:19Z</time>
      </trkpt>
      <trkpt lat="42.60554" lon="-0.16684">
        <ele>1420.7</ele>
        <time>2017-07-30T08:57:20Z</time>
      </trkpt>
      <trkpt lat="42.60555" lon="-0.1668">
        <ele>1421</ele>
        <time>2017-07-30T08:57:21Z</time>
      </trkpt>
      <trkpt lat="42.60556" lon="-0.16676">
        <ele>1421.3</ele>
        <time>2017-07-30T08:57:22Z</time>
      </trkpt>
      <trkpt lat="42.60556" lon="-0.16672">
        <ele>1421.6</ele>
        <time>2017-07-30T08:57:23Z</time>
      </trkpt>
      <trkpt lat="42.60557" lon="-0.16667">
        <ele>1421.8</ele>
        <time>2017-07-30T08:57:24Z</time>
      </trkpt>
      <trkpt lat="42.60557" lon="-0.16662">
        <ele>1422</ele>
        <time>2017-07-30T08:57:25Z</time>
      </trkpt>
      <trkpt lat="42.60557" lon="-0.16656">
        <ele>1420.6</ele>
        <time>2017-07-30T08:57:26Z</time>
      </trkpt>
      <trkpt lat="42.60558" lon="-0.16651">
        <ele>1420.5</ele>
        <time>2017-07-30T08:57:27Z</time>
      </trkpt>
      <trkpt lat="42.60559" lon="-0.16646">
        <ele>1420.5</ele>
        <time>2017-07-30T08:57:28Z</time>
      </trkpt>
      <trkpt lat="42.6056" lon="-0.16643">
        <ele>1420.5</ele>
        <time>2017-07-30T08:57:29Z</time>
      </trkpt>
      <trkpt lat="42.60561" lon="-0.16639">
        <ele>1418.9</ele>
        <time>2017-07-30T08:57:33Z</time>
      </trkpt>
      <trkpt lat="42.60561" lon="-0.16643">
        <ele>1419</ele>
        <time>2017-07-30T08:57:40Z</time>
      </trkpt>
      <trkpt lat="42.60561" lon="-0.16648">
        <ele>1419.1</ele>
        <time>2017-07-30T08:57:42Z</time>
      </trkpt>
      <trkpt lat="42.60562" lon="-0.16652">
        <ele>1419.2</ele>
        <time>2017-07-30T08:57:43Z</time>
      </trkpt>
      <trkpt lat="42.60562" lon="-0.16658">
        <ele>1419.2</ele>
        <time>2017-07-30T08:57:44Z</time>
      </trkpt>
      <trkpt lat="42.60563" lon="-0.16662">
        <ele>1419.2</ele>
        <time>2017-07-30T08:57:45Z</time>
      </trkpt>
      <trkpt lat="42.60564" lon="-0.16667">
        <ele>1417.4</ele>
        <time>2017-07-30T08:57:46Z</time>
      </trkpt>
      <trkpt lat="42.60566" lon="-0.16671">
        <ele>1417.2</ele>
        <time>2017-07-30T08:57:48Z</time>
      </trkpt>
      <trkpt lat="42.60569" lon="-0.1667">
        <ele>1415.5</ele>
        <time>2017-07-30T08:57:52Z</time>
      </trkpt>
      <trkpt lat="42.60573" lon="-0.16664">
        <ele>1414.1</ele>
        <time>2017-07-30T08:57:54Z</time>
      </trkpt>
      <trkpt lat="42.60575" lon="-0.1666">
        <ele>1412.4</ele>
        <time>2017-07-30T08:57:55Z</time>
      </trkpt>
      <trkpt lat="42.60577" lon="-0.16657">
        <ele>1411.1</ele>
        <time>2017-07-30T08:57:56Z</time>
      </trkpt>
      <trkpt lat="42.60579" lon="-0.16654">
        <ele>1411.3</ele>
        <time>2017-07-30T08:57:57Z</time>
      </trkpt>
      <trkpt lat="42.60581" lon="-0.1665">
        <ele>1410.1</ele>
        <time>2017-07-30T08:57:58Z</time>
      </trkpt>
      <trkpt lat="42.60582" lon="-0.16647">
        <ele>1409</ele>
        <time>2017-07-30T08:57:59Z</time>
      </trkpt>
      <trkpt lat="42.60585" lon="-0.16642">
        <ele>1409.1</ele>
        <time>2017-07-30T08:58:01Z</time>
      </trkpt>
      <trkpt lat="42.60587" lon="-0.16639">
        <ele>1407.9</ele>
        <time>2017-07-30T08:58:03Z</time>
      </trkpt>
      <trkpt lat="42.6059" lon="-0.16643">
        <ele>1406.3</ele>
        <time>2017-07-30T08:58:06Z</time>
      </trkpt>
      <trkpt lat="42.60593" lon="-0.16649">
        <ele>1404.4</ele>
        <time>2017-07-30T08:58:08Z</time>
      </trkpt>
      <trkpt lat="42.60595" lon="-0.16653">
        <ele>1404.1</ele>
        <time>2017-07-30T08:58:09Z</time>
      </trkpt>
      <trkpt lat="42.60596" lon="-0.16656">
        <ele>1402.1</ele>
        <time>2017-07-30T08:58:10Z</time>
      </trkpt>
      <trkpt lat="42.60598" lon="-0.16659">
        <ele>1402.1</ele>
        <time>2017-07-30T08:58:11Z</time>
      </trkpt>
      <trkpt lat="42.606" lon="-0.16664">
        <ele>1400</ele>
        <time>2017-07-30T08:58:13Z</time>
      </trkpt>
      <trkpt lat="42.60602" lon="-0.16667">
        <ele>1398</ele>
        <time>2017-07-30T08:58:15Z</time>
      </trkpt>
      <trkpt lat="42.60603" lon="-0.16671">
        <ele>1398</ele>
        <time>2017-07-30T08:58:17Z</time>
      </trkpt>
      <trkpt lat="42.60606" lon="-0.16673">
        <ele>1396</ele>
        <time>2017-07-30T08:58:21Z</time>
      </trkpt>
      <trkpt lat="42.60608" lon="-0.1667">
        <ele>1394.5</ele>
        <time>2017-07-30T08:58:27Z</time>
      </trkpt>
      <trkpt lat="42.60609" lon="-0.16675">
        <ele>1394.4</ele>
        <time>2017-07-30T08:58:33Z</time>
      </trkpt>
      <trkpt lat="42.6061" lon="-0.16678">
        <ele>1394.2</ele>
        <time>2017-07-30T08:58:34Z</time>
      </trkpt>
      <trkpt lat="42.6061" lon="-0.16682">
        <ele>1394</ele>
        <time>2017-07-30T08:58:35Z</time>
      </trkpt>
      <trkpt lat="42.60611" lon="-0.16687">
        <ele>1393.9</ele>
        <time>2017-07-30T08:58:37Z</time>
      </trkpt>
      <trkpt lat="42.6061" lon="-0.16692">
        <ele>1393.9</ele>
        <time>2017-07-30T08:58:45Z</time>
      </trkpt>
      <trkpt lat="42.60612" lon="-0.16696">
        <ele>1392.3</ele>
        <time>2017-07-30T08:58:47Z</time>
      </trkpt>
      <trkpt lat="42.60615" lon="-0.167">
        <ele>1390.6</ele>
        <time>2017-07-30T08:58:49Z</time>
      </trkpt>
      <trkpt lat="42.60616" lon="-0.16704">
        <ele>1390.7</ele>
        <time>2017-07-30T08:58:51Z</time>
      </trkpt>
      <trkpt lat="42.60619" lon="-0.16702">
        <ele>1388.7</ele>
        <time>2017-07-30T08:59:06Z</time>
      </trkpt>
      <trkpt lat="42.60621" lon="-0.167">
        <ele>1386.6</ele>
        <time>2017-07-30T08:59:11Z</time>
      </trkpt>
      <trkpt lat="42.60622" lon="-0.16696">
        <ele>1386.6</ele>
        <time>2017-07-30T08:59:16Z</time>
      </trkpt>
      <trkpt lat="42.60625" lon="-0.16694">
        <ele>1384.5</ele>
        <time>2017-07-30T08:59:18Z</time>
      </trkpt>
      <trkpt lat="42.60627" lon="-0.16692">
        <ele>1382.3</ele>
        <time>2017-07-30T08:59:21Z</time>
      </trkpt>
      <trkpt lat="42.60631" lon="-0.16691">
        <ele>1380.3</ele>
        <time>2017-07-30T08:59:25Z</time>
      </trkpt>
      <trkpt lat="42.60633" lon="-0.16687">
        <ele>1378.7</ele>
        <time>2017-07-30T08:59:28Z</time>
      </trkpt>
      <trkpt lat="42.60636" lon="-0.16682">
        <ele>1377.5</ele>
        <time>2017-07-30T08:59:30Z</time>
      </trkpt>
      <trkpt lat="42.60639" lon="-0.16678">
        <ele>1376.4</ele>
        <time>2017-07-30T08:59:32Z</time>
      </trkpt>
      <trkpt lat="42.60641" lon="-0.16676">
        <ele>1376.8</ele>
        <time>2017-07-30T08:59:33Z</time>
      </trkpt>
      <trkpt lat="42.60643" lon="-0.16673">
        <ele>1375.3</ele>
        <time>2017-07-30T08:59:34Z</time>
      </trkpt>
      <trkpt lat="42.60645" lon="-0.16669">
        <ele>1375.6</ele>
        <time>2017-07-30T08:59:35Z</time>
      </trkpt>
      <trkpt lat="42.60646" lon="-0.16664">
        <ele>1374.1</ele>
        <time>2017-07-30T08:59:36Z</time>
      </trkpt>
      <trkpt lat="42.60646" lon="-0.1666">
        <ele>1374.5</ele>
        <time>2017-07-30T08:59:38Z</time>
      </trkpt>
      <trkpt lat="42.60648" lon="-0.16656">
        <ele>1374.6</ele>
        <time>2017-07-30T08:59:42Z</time>
      </trkpt>
      <trkpt lat="42.60645" lon="-0.16657">
        <ele>1376.3</ele>
        <time>2017-07-30T08:59:48Z</time>
      </trkpt>
      <trkpt lat="42.60644" lon="-0.16661">
        <ele>1376.2</ele>
        <time>2017-07-30T08:59:56Z</time>
      </trkpt>
      <trkpt lat="42.60646" lon="-0.16667">
        <ele>1374.3</ele>
        <time>2017-07-30T08:59:58Z</time>
      </trkpt>
      <trkpt lat="42.60649" lon="-0.16673">
        <ele>1372.1</ele>
        <time>2017-07-30T09:00:00Z</time>
      </trkpt>
      <trkpt lat="42.6065" lon="-0.16677">
        <ele>1371.8</ele>
        <time>2017-07-30T09:00:01Z</time>
      </trkpt>
      <trkpt lat="42.60652" lon="-0.16682">
        <ele>1369.8</ele>
        <time>2017-07-30T09:00:02Z</time>
      </trkpt>
      <trkpt lat="42.60652" lon="-0.16686">
        <ele>1369.5</ele>
        <time>2017-07-30T09:00:03Z</time>
      </trkpt>
      <trkpt lat="42.60653" lon="-0.1669">
        <ele>1369.3</ele>
        <time>2017-07-30T09:00:04Z</time>
      </trkpt>
      <trkpt lat="42.60652" lon="-0.16694">
        <ele>1369.1</ele>
        <time>2017-07-30T09:00:05Z</time>
      </trkpt>
      <trkpt lat="42.60652" lon="-0.16699">
        <ele>1368.9</ele>
        <time>2017-07-30T09:00:06Z</time>
      </trkpt>
      <trkpt lat="42.60652" lon="-0.16703">
        <ele>1370.4</ele>
        <time>2017-07-30T09:00:07Z</time>
      </trkpt>
      <trkpt lat="42.60651" lon="-0.16707">
        <ele>1370.2</ele>
        <time>2017-07-30T09:00:08Z</time>
      </trkpt>
      <trkpt lat="42.60649" lon="-0.16713">
        <ele>1369.9</ele>
        <time>2017-07-30T09:00:10Z</time>
      </trkpt>
      <trkpt lat="42.60652" lon="-0.16715">
        <ele>1368.1</ele>
        <time>2017-07-30T09:00:15Z</time>
      </trkpt>
      <trkpt lat="42.60655" lon="-0.16712">
        <ele>1366.3</ele>
        <time>2017-07-30T09:00:16Z</time>
      </trkpt>
      <trkpt lat="42.60659" lon="-0.1671">
        <ele>1365</ele>
        <time>2017-07-30T09:00:17Z</time>
      </trkpt>
      <trkpt lat="42.60661" lon="-0.16708">
        <ele>1363.5</ele>
        <time>2017-07-30T09:00:18Z</time>
      </trkpt>
      <trkpt lat="42.60666" lon="-0.16704">
        <ele>1362.5</ele>
        <time>2017-07-30T09:00:20Z</time>
      </trkpt>
      <trkpt lat="42.6067" lon="-0.16701">
        <ele>1361.4</ele>
        <time>2017-07-30T09:00:21Z</time>
      </trkpt>
      <trkpt lat="42.60673" lon="-0.16698">
        <ele>1359.8</ele>
        <time>2017-07-30T09:00:22Z</time>
      </trkpt>
      <trkpt lat="42.60675" lon="-0.16696">
        <ele>1358.2</ele>
        <time>2017-07-30T09:00:23Z</time>
      </trkpt>
      <trkpt lat="42.60677" lon="-0.16693">
        <ele>1356.4</ele>
        <time>2017-07-30T09:00:24Z</time>
      </trkpt>
      <trkpt lat="42.60679" lon="-0.1669">
        <ele>1356.4</ele>
        <time>2017-07-30T09:00:25Z</time>
      </trkpt>
      <trkpt lat="42.60681" lon="-0.16685">
        <ele>1354.6</ele>
        <time>2017-07-30T09:00:26Z</time>
      </trkpt>
      <trkpt lat="42.60683" lon="-0.1668">
        <ele>1352.6</ele>
        <time>2017-07-30T09:00:27Z</time>
      </trkpt>
      <trkpt lat="42.60685" lon="-0.16677">
        <ele>1352.7</ele>
        <time>2017-07-30T09:00:28Z</time>
      </trkpt>
      <trkpt lat="42.60687" lon="-0.16672">
        <ele>1351.3</ele>
        <time>2017-07-30T09:00:30Z</time>
      </trkpt>
      <trkpt lat="42.60688" lon="-0.16665">
        <ele>1351.6</ele>
        <time>2017-07-30T09:00:32Z</time>
      </trkpt>
      <trkpt lat="42.60689" lon="-0.16661">
        <ele>1352.1</ele>
        <time>2017-07-30T09:00:33Z</time>
      </trkpt>
      <trkpt lat="42.60689" lon="-0.16657">
        <ele>1352.5</ele>
        <time>2017-07-30T09:00:35Z</time>
      </trkpt>
      <trkpt lat="42.60689" lon="-0.16653">
        <ele>1353</ele>
        <time>2017-07-30T09:00:39Z</time>
      </trkpt>
      <trkpt lat="42.60692" lon="-0.16655">
        <ele>1351.4</ele>
        <time>2017-07-30T09:00:48Z</time>
      </trkpt>
      <trkpt lat="42.60695" lon="-0.16661">
        <ele>1348.8</ele>
        <time>2017-07-30T09:00:50Z</time>
      </trkpt>
      <trkpt lat="42.60696" lon="-0.16664">
        <ele>1347.3</ele>
        <time>2017-07-30T09:00:51Z</time>
      </trkpt>
      <trkpt lat="42.60697" lon="-0.16668">
        <ele>1346.8</ele>
        <time>2017-07-30T09:00:52Z</time>
      </trkpt>
      <trkpt lat="42.60697" lon="-0.16673">
        <ele>1346</ele>
        <time>2017-07-30T09:00:53Z</time>
      </trkpt>
      <trkpt lat="42.60698" lon="-0.16677">
        <ele>1345.6</ele>
        <time>2017-07-30T09:00:54Z</time>
      </trkpt>
      <trkpt lat="42.607" lon="-0.16682">
        <ele>1343.3</ele>
        <time>2017-07-30T09:00:55Z</time>
      </trkpt>
      <trkpt lat="42.607" lon="-0.16686">
        <ele>1343</ele>
        <time>2017-07-30T09:00:56Z</time>
      </trkpt>
      <trkpt lat="42.60701" lon="-0.16691">
        <ele>1342.8</ele>
        <time>2017-07-30T09:00:58Z</time>
      </trkpt>
      <trkpt lat="42.60701" lon="-0.16695">
        <ele>1342.7</ele>
        <time>2017-07-30T09:01:00Z</time>
      </trkpt>
      <trkpt lat="42.60701" lon="-0.16699">
        <ele>1342.7</ele>
        <time>2017-07-30T09:01:04Z</time>
      </trkpt>
      <trkpt lat="42.60705" lon="-0.16698">
        <ele>1340.7</ele>
        <time>2017-07-30T09:01:07Z</time>
      </trkpt>
      <trkpt lat="42.6071" lon="-0.16695">
        <ele>1336.2</ele>
        <time>2017-07-30T09:01:09Z</time>
      </trkpt>
      <trkpt lat="42.60714" lon="-0.16692">
        <ele>1334.2</ele>
        <time>2017-07-30T09:01:11Z</time>
      </trkpt>
      <trkpt lat="42.60716" lon="-0.16688">
        <ele>1332.5</ele>
        <time>2017-07-30T09:01:13Z</time>
      </trkpt>
      <trkpt lat="42.60718" lon="-0.16683">
        <ele>1331.1</ele>
        <time>2017-07-30T09:01:15Z</time>
      </trkpt>
      <trkpt lat="42.6072" lon="-0.16679">
        <ele>1331.6</ele>
        <time>2017-07-30T09:01:17Z</time>
      </trkpt>
      <trkpt lat="42.60722" lon="-0.16674">
        <ele>1330.4</ele>
        <time>2017-07-30T09:01:19Z</time>
      </trkpt>
      <trkpt lat="42.60725" lon="-0.16669">
        <ele>1329.1</ele>
        <time>2017-07-30T09:01:21Z</time>
      </trkpt>
      <trkpt lat="42.60728" lon="-0.16664">
        <ele>1328.3</ele>
        <time>2017-07-30T09:01:23Z</time>
      </trkpt>
      <trkpt lat="42.6073" lon="-0.1666">
        <ele>1328.3</ele>
        <time>2017-07-30T09:01:24Z</time>
      </trkpt>
      <trkpt lat="42.60731" lon="-0.16656">
        <ele>1327</ele>
        <time>2017-07-30T09:01:25Z</time>
      </trkpt>
      <trkpt lat="42.60733" lon="-0.16652">
        <ele>1327.9</ele>
        <time>2017-07-30T09:01:26Z</time>
      </trkpt>
      <trkpt lat="42.60734" lon="-0.16648">
        <ele>1328.8</ele>
        <time>2017-07-30T09:01:27Z</time>
      </trkpt>
      <trkpt lat="42.60734" lon="-0.16644">
        <ele>1327.6</ele>
        <time>2017-07-30T09:01:28Z</time>
      </trkpt>
      <trkpt lat="42.60734" lon="-0.1664">
        <ele>1330.4</ele>
        <time>2017-07-30T09:01:30Z</time>
      </trkpt>
      <trkpt lat="42.60731" lon="-0.16639">
        <ele>1330.4</ele>
        <time>2017-07-30T09:01:32Z</time>
      </trkpt>
      <trkpt lat="42.60728" lon="-0.16641">
        <ele>1332.3</ele>
        <time>2017-07-30T09:01:39Z</time>
      </trkpt>
      <trkpt lat="42.60729" lon="-0.16645">
        <ele>1331.7</ele>
        <time>2017-07-30T09:01:43Z</time>
      </trkpt>
      <trkpt lat="42.60731" lon="-0.1665">
        <ele>1329</ele>
        <time>2017-07-30T09:01:45Z</time>
      </trkpt>
      <trkpt lat="42.60733" lon="-0.16654">
        <ele>1328.1</ele>
        <time>2017-07-30T09:01:47Z</time>
      </trkpt>
      <trkpt lat="42.60734" lon="-0.16658">
        <ele>1325.1</ele>
        <time>2017-07-30T09:01:49Z</time>
      </trkpt>
      <trkpt lat="42.60735" lon="-0.16662">
        <ele>1324.3</ele>
        <time>2017-07-30T09:01:52Z</time>
      </trkpt>
      <trkpt lat="42.60736" lon="-0.16665">
        <ele>1323.6</ele>
        <time>2017-07-30T09:01:58Z</time>
      </trkpt>
      <trkpt lat="42.60739" lon="-0.16663">
        <ele>1322.1</ele>
        <time>2017-07-30T09:02:00Z</time>
      </trkpt>
      <trkpt lat="42.60743" lon="-0.1666">
        <ele>1319.9</ele>
        <time>2017-07-30T09:02:02Z</time>
      </trkpt>
      <trkpt lat="42.60745" lon="-0.16657">
        <ele>1318.9</ele>
        <time>2017-07-30T09:02:04Z</time>
      </trkpt>
      <trkpt lat="42.60748" lon="-0.16658">
        <ele>1317.1</ele>
        <time>2017-07-30T09:02:15Z</time>
      </trkpt>
      <trkpt lat="42.6075" lon="-0.16656">
        <ele>1315.5</ele>
        <time>2017-07-30T09:02:18Z</time>
      </trkpt>
      <trkpt lat="42.60753" lon="-0.16655">
        <ele>1314.8</ele>
        <time>2017-07-30T09:02:23Z</time>
      </trkpt>
      <trkpt lat="42.60756" lon="-0.16657">
        <ele>1313.8</ele>
        <time>2017-07-30T09:02:28Z</time>
      </trkpt>
      <trkpt lat="42.60758" lon="-0.16655">
        <ele>1313</ele>
        <time>2017-07-30T09:02:37Z</time>
      </trkpt>
      <trkpt lat="42.6076" lon="-0.16658">
        <ele>1310.1</ele>
        <time>2017-07-30T09:02:44Z</time>
      </trkpt>
      <trkpt lat="42.6076" lon="-0.16662">
        <ele>1309.3</ele>
        <time>2017-07-30T09:02:46Z</time>
      </trkpt>
      <trkpt lat="42.6076" lon="-0.16666">
        <ele>1308.6</ele>
        <time>2017-07-30T09:02:48Z</time>
      </trkpt>
      <trkpt lat="42.6076" lon="-0.1667">
        <ele>1308.1</ele>
        <time>2017-07-30T09:02:51Z</time>
      </trkpt>
      <trkpt lat="42.60762" lon="-0.16674">
        <ele>1307.6</ele>
        <time>2017-07-30T09:02:53Z</time>
      </trkpt>
      <trkpt lat="42.60764" lon="-0.16678">
        <ele>1305.2</ele>
        <time>2017-07-30T09:02:56Z</time>
      </trkpt>
      <trkpt lat="42.60767" lon="-0.1668">
        <ele>1303.2</ele>
        <time>2017-07-30T09:02:59Z</time>
      </trkpt>
      <trkpt lat="42.60769" lon="-0.16688">
        <ele>1300.4</ele>
        <time>2017-07-30T09:03:01Z</time>
      </trkpt>
      <trkpt lat="42.60769" lon="-0.16692">
        <ele>1300</ele>
        <time>2017-07-30T09:03:02Z</time>
      </trkpt>
      <trkpt lat="42.60768" lon="-0.16698">
        <ele>1301.8</ele>
        <time>2017-07-30T09:03:04Z</time>
      </trkpt>
      <trkpt lat="42.60769" lon="-0.16704">
        <ele>1299.2</ele>
        <time>2017-07-30T09:03:06Z</time>
      </trkpt>
      <trkpt lat="42.60771" lon="-0.16707">
        <ele>1299.2</ele>
        <time>2017-07-30T09:03:08Z</time>
      </trkpt>
      <trkpt lat="42.60776" lon="-0.16704">
        <ele>1295.6</ele>
        <time>2017-07-30T09:03:10Z</time>
      </trkpt>
      <trkpt lat="42.6078" lon="-0.16702">
        <ele>1294.4</ele>
        <time>2017-07-30T09:03:12Z</time>
      </trkpt>
      <trkpt lat="42.60784" lon="-0.16706">
        <ele>1290.7</ele>
        <time>2017-07-30T09:03:14Z</time>
      </trkpt>
      <trkpt lat="42.60786" lon="-0.1671">
        <ele>1290.2</ele>
        <time>2017-07-30T09:03:16Z</time>
      </trkpt>
      <trkpt lat="42.60787" lon="-0.16716">
        <ele>1289.3</ele>
        <time>2017-07-30T09:03:18Z</time>
      </trkpt>
      <trkpt lat="42.60788" lon="-0.16722">
        <ele>1286.6</ele>
        <time>2017-07-30T09:03:20Z</time>
      </trkpt>
      <trkpt lat="42.60786" lon="-0.16726">
        <ele>1288.3</ele>
        <time>2017-07-30T09:03:23Z</time>
      </trkpt>
      <trkpt lat="42.60789" lon="-0.16726">
        <ele>1286.1</ele>
        <time>2017-07-30T09:03:28Z</time>
      </trkpt>
      <trkpt lat="42.60792" lon="-0.16728">
        <ele>1283.8</ele>
        <time>2017-07-30T09:03:33Z</time>
      </trkpt>
      <trkpt lat="42.6079" lon="-0.16731">
        <ele>1285.5</ele>
        <time>2017-07-30T09:03:38Z</time>
      </trkpt>
      <trkpt lat="42.60791" lon="-0.16734">
        <ele>1282.4</ele>
        <time>2017-07-30T09:03:44Z</time>
      </trkpt>
      <trkpt lat="42.60794" lon="-0.16735">
        <ele>1280.2</ele>
        <time>2017-07-30T09:03:48Z</time>
      </trkpt>
      <trkpt lat="42.60793" lon="-0.16739">
        <ele>1281.8</ele>
        <time>2017-07-30T09:03:54Z</time>
      </trkpt>
      <trkpt lat="42.60791" lon="-0.16742">
        <ele>1281.3</ele>
        <time>2017-07-30T09:03:59Z</time>
      </trkpt>
      <trkpt lat="42.60793" lon="-0.16745">
        <ele>1281.3</ele>
        <time>2017-07-30T09:04:03Z</time>
      </trkpt>
      <trkpt lat="42.60795" lon="-0.1675">
        <ele>1278.8</ele>
        <time>2017-07-30T09:04:08Z</time>
      </trkpt>
      <trkpt lat="42.60797" lon="-0.16753">
        <ele>1278.7</ele>
        <time>2017-07-30T09:04:10Z</time>
      </trkpt>
      <trkpt lat="42.60798" lon="-0.16758">
        <ele>1276.8</ele>
        <time>2017-07-30T09:04:12Z</time>
      </trkpt>
      <trkpt lat="42.60798" lon="-0.16762">
        <ele>1276.9</ele>
        <time>2017-07-30T09:04:14Z</time>
      </trkpt>
      <trkpt lat="42.60798" lon="-0.16766">
        <ele>1277.5</ele>
        <time>2017-07-30T09:04:16Z</time>
      </trkpt>
      <trkpt lat="42.60798" lon="-0.16771">
        <ele>1278</ele>
        <time>2017-07-30T09:04:18Z</time>
      </trkpt>
      <trkpt lat="42.60797" lon="-0.16776">
        <ele>1278.5</ele>
        <time>2017-07-30T09:04:20Z</time>
      </trkpt>
      <trkpt lat="42.60797" lon="-0.16782">
        <ele>1278.8</ele>
        <time>2017-07-30T09:04:22Z</time>
      </trkpt>
      <trkpt lat="42.60798" lon="-0.16788">
        <ele>1279</ele>
        <time>2017-07-30T09:04:24Z</time>
      </trkpt>
      <trkpt lat="42.60799" lon="-0.16795">
        <ele>1279.7</ele>
        <time>2017-07-30T09:04:26Z</time>
      </trkpt>
      <trkpt lat="42.608" lon="-0.168">
        <ele>1280.5</ele>
        <time>2017-07-30T09:04:28Z</time>
      </trkpt>
      <trkpt lat="42.60795" lon="-0.16802">
        <ele>1281.9</ele>
        <time>2017-07-30T09:04:34Z</time>
      </trkpt>
      <trkpt lat="42.60793" lon="-0.16804">
        <ele>1282.6</ele>
        <time>2017-07-30T09:04:38Z</time>
      </trkpt>
      <trkpt lat="42.6079" lon="-0.16809">
        <ele>1283.7</ele>
        <time>2017-07-30T09:04:45Z</time>
      </trkpt>
      <trkpt lat="42.608" lon="-0.16809">
        <ele>1278.9</ele>
        <time>2017-07-30T09:05:23Z</time>
      </trkpt>
      <trkpt lat="42.60804" lon="-0.1681">
        <ele>1277.2</ele>
        <time>2017-07-30T09:05:24Z</time>
      </trkpt>
      <trkpt lat="42.60808" lon="-0.16811">
        <ele>1277.6</ele>
        <time>2017-07-30T09:05:25Z</time>
      </trkpt>
      <trkpt lat="42.60812" lon="-0.16812">
        <ele>1277.4</ele>
        <time>2017-07-30T09:05:26Z</time>
      </trkpt>
      <trkpt lat="42.60815" lon="-0.16813">
        <ele>1277.3</ele>
        <time>2017-07-30T09:05:27Z</time>
      </trkpt>
      <trkpt lat="42.60818" lon="-0.16813">
        <ele>1277.4</ele>
        <time>2017-07-30T09:05:28Z</time>
      </trkpt>
      <trkpt lat="42.60823" lon="-0.16813">
        <ele>1278.3</ele>
        <time>2017-07-30T09:05:30Z</time>
      </trkpt>
      <trkpt lat="42.60826" lon="-0.16813">
        <ele>1278.9</ele>
        <time>2017-07-30T09:05:32Z</time>
      </trkpt>
      <trkpt lat="42.6083" lon="-0.16812">
        <ele>1279.7</ele>
        <time>2017-07-30T09:05:34Z</time>
      </trkpt>
      <trkpt lat="42.60834" lon="-0.16811">
        <ele>1280.5</ele>
        <time>2017-07-30T09:05:36Z</time>
      </trkpt>
      <trkpt lat="42.60838" lon="-0.16806">
        <ele>1281.3</ele>
        <time>2017-07-30T09:05:38Z</time>
      </trkpt>
      <trkpt lat="42.6084" lon="-0.16803">
        <ele>1280.4</ele>
        <time>2017-07-30T09:05:39Z</time>
      </trkpt>
      <trkpt lat="42.60842" lon="-0.168">
        <ele>1280.1</ele>
        <time>2017-07-30T09:05:40Z</time>
      </trkpt>
      <trkpt lat="42.60846" lon="-0.16795">
        <ele>1279.5</ele>
        <time>2017-07-30T09:05:42Z</time>
      </trkpt>
      <trkpt lat="42.6085" lon="-0.16793">
        <ele>1280</ele>
        <time>2017-07-30T09:05:43Z</time>
      </trkpt>
      <trkpt lat="42.60855" lon="-0.1679">
        <ele>1279.6</ele>
        <time>2017-07-30T09:05:44Z</time>
      </trkpt>
      <trkpt lat="42.60859" lon="-0.16788">
        <ele>1278.6</ele>
        <time>2017-07-30T09:05:45Z</time>
      </trkpt>
      <trkpt lat="42.60862" lon="-0.16786">
        <ele>1279.1</ele>
        <time>2017-07-30T09:05:46Z</time>
      </trkpt>
      <trkpt lat="42.60866" lon="-0.16784">
        <ele>1278.4</ele>
        <time>2017-07-30T09:05:47Z</time>
      </trkpt>
      <trkpt lat="42.6087" lon="-0.16782">
        <ele>1279.6</ele>
        <time>2017-07-30T09:05:48Z</time>
      </trkpt>
      <trkpt lat="42.60874" lon="-0.1678">
        <ele>1280.3</ele>
        <time>2017-07-30T09:05:49Z</time>
      </trkpt>
      <trkpt lat="42.60877" lon="-0.1678">
        <ele>1279.8</ele>
        <time>2017-07-30T09:05:50Z</time>
      </trkpt>
      <trkpt lat="42.6088" lon="-0.16779">
        <ele>1280.4</ele>
        <time>2017-07-30T09:05:51Z</time>
      </trkpt>
      <trkpt lat="42.60883" lon="-0.16778">
        <ele>1281.1</ele>
        <time>2017-07-30T09:05:52Z</time>
      </trkpt>
      <trkpt lat="42.60886" lon="-0.16777">
        <ele>1281.7</ele>
        <time>2017-07-30T09:05:53Z</time>
      </trkpt>
      <trkpt lat="42.60888" lon="-0.16775">
        <ele>1280.5</ele>
        <time>2017-07-30T09:05:54Z</time>
      </trkpt>
      <trkpt lat="42.6089" lon="-0.16772">
        <ele>1281.1</ele>
        <time>2017-07-30T09:05:55Z</time>
      </trkpt>
      <trkpt lat="42.60895" lon="-0.1677">
        <ele>1281.2</ele>
        <time>2017-07-30T09:05:57Z</time>
      </trkpt>
      <trkpt lat="42.60898" lon="-0.16771">
        <ele>1281.2</ele>
        <time>2017-07-30T09:05:58Z</time>
      </trkpt>
      <trkpt lat="42.60901" lon="-0.16771">
        <ele>1281.9</ele>
        <time>2017-07-30T09:05:59Z</time>
      </trkpt>
      <trkpt lat="42.60903" lon="-0.16768">
        <ele>1282.6</ele>
        <time>2017-07-30T09:06:00Z</time>
      </trkpt>
      <trkpt lat="42.60905" lon="-0.16765">
        <ele>1281.9</ele>
        <time>2017-07-30T09:06:01Z</time>
      </trkpt>
      <trkpt lat="42.60907" lon="-0.1676">
        <ele>1280.3</ele>
        <time>2017-07-30T09:06:02Z</time>
      </trkpt>
      <trkpt lat="42.60907" lon="-0.16756">
        <ele>1278.8</ele>
        <time>2017-07-30T09:06:03Z</time>
      </trkpt>
      <trkpt lat="42.60908" lon="-0.16752">
        <ele>1278.1</ele>
        <time>2017-07-30T09:06:04Z</time>
      </trkpt>
      <trkpt lat="42.60908" lon="-0.16748">
        <ele>1276.8</ele>
        <time>2017-07-30T09:06:05Z</time>
      </trkpt>
      <trkpt lat="42.60908" lon="-0.16745">
        <ele>1275.5</ele>
        <time>2017-07-30T09:06:06Z</time>
      </trkpt>
      <trkpt lat="42.60911" lon="-0.16739">
        <ele>1274.3</ele>
        <time>2017-07-30T09:06:08Z</time>
      </trkpt>
      <trkpt lat="42.60915" lon="-0.16735">
        <ele>1272.9</ele>
        <time>2017-07-30T09:06:10Z</time>
      </trkpt>
      <trkpt lat="42.60919" lon="-0.16733">
        <ele>1273.1</ele>
        <time>2017-07-30T09:06:12Z</time>
      </trkpt>
      <trkpt lat="42.60924" lon="-0.16731">
        <ele>1272</ele>
        <time>2017-07-30T09:06:14Z</time>
      </trkpt>
      <trkpt lat="42.60927" lon="-0.16728">
        <ele>1271.1</ele>
        <time>2017-07-30T09:06:16Z</time>
      </trkpt>
      <trkpt lat="42.6093" lon="-0.16726">
        <ele>1271</ele>
        <time>2017-07-30T09:06:18Z</time>
      </trkpt>
      <trkpt lat="42.60933" lon="-0.16723">
        <ele>1270.4</ele>
        <time>2017-07-30T09:06:21Z</time>
      </trkpt>
      <trkpt lat="42.60936" lon="-0.16723">
        <ele>1271.4</ele>
        <time>2017-07-30T09:06:24Z</time>
      </trkpt>
      <trkpt lat="42.60939" lon="-0.16721">
        <ele>1271.9</ele>
        <time>2017-07-30T09:06:30Z</time>
      </trkpt>
      <trkpt lat="42.60943" lon="-0.16721">
        <ele>1272.4</ele>
        <time>2017-07-30T09:06:32Z</time>
      </trkpt>
      <trkpt lat="42.60948" lon="-0.16719">
        <ele>1272.1</ele>
        <time>2017-07-30T09:06:34Z</time>
      </trkpt>
      <trkpt lat="42.60952" lon="-0.16718">
        <ele>1273.5</ele>
        <time>2017-07-30T09:06:36Z</time>
      </trkpt>
      <trkpt lat="42.60957" lon="-0.16715">
        <ele>1273.4</ele>
        <time>2017-07-30T09:06:38Z</time>
      </trkpt>
      <trkpt lat="42.60962" lon="-0.16713">
        <ele>1275.1</ele>
        <time>2017-07-30T09:06:40Z</time>
      </trkpt>
      <trkpt lat="42.60966" lon="-0.16711">
        <ele>1275</ele>
        <time>2017-07-30T09:06:42Z</time>
      </trkpt>
      <trkpt lat="42.6097" lon="-0.16708">
        <ele>1275.8</ele>
        <time>2017-07-30T09:06:44Z</time>
      </trkpt>
      <trkpt lat="42.60975" lon="-0.16705">
        <ele>1276.2</ele>
        <time>2017-07-30T09:06:46Z</time>
      </trkpt>
      <trkpt lat="42.60979" lon="-0.16701">
        <ele>1275.9</ele>
        <time>2017-07-30T09:06:48Z</time>
      </trkpt>
      <trkpt lat="42.60983" lon="-0.16699">
        <ele>1276.7</ele>
        <time>2017-07-30T09:06:50Z</time>
      </trkpt>
      <trkpt lat="42.60986" lon="-0.16695">
        <ele>1276.4</ele>
        <time>2017-07-30T09:06:52Z</time>
      </trkpt>
      <trkpt lat="42.60988" lon="-0.16693">
        <ele>1276.1</ele>
        <time>2017-07-30T09:06:53Z</time>
      </trkpt>
      <trkpt lat="42.6099" lon="-0.16691">
        <ele>1276.9</ele>
        <time>2017-07-30T09:06:54Z</time>
      </trkpt>
      <trkpt lat="42.60992" lon="-0.16688">
        <ele>1275.4</ele>
        <time>2017-07-30T09:06:55Z</time>
      </trkpt>
      <trkpt lat="42.60995" lon="-0.16685">
        <ele>1274.5</ele>
        <time>2017-07-30T09:06:56Z</time>
      </trkpt>
      <trkpt lat="42.60999" lon="-0.16682">
        <ele>1275.8</ele>
        <time>2017-07-30T09:06:57Z</time>
      </trkpt>
      <trkpt lat="42.61004" lon="-0.16679">
        <ele>1274.5</ele>
        <time>2017-07-30T09:06:58Z</time>
      </trkpt>
      <trkpt lat="42.61009" lon="-0.16675">
        <ele>1273.8</ele>
        <time>2017-07-30T09:06:59Z</time>
      </trkpt>
      <trkpt lat="42.61014" lon="-0.16672">
        <ele>1272.5</ele>
        <time>2017-07-30T09:07:00Z</time>
      </trkpt>
      <trkpt lat="42.61019" lon="-0.16668">
        <ele>1273.9</ele>
        <time>2017-07-30T09:07:01Z</time>
      </trkpt>
      <trkpt lat="42.61024" lon="-0.16665">
        <ele>1272.7</ele>
        <time>2017-07-30T09:07:02Z</time>
      </trkpt>
      <trkpt lat="42.61029" lon="-0.16662">
        <ele>1272.2</ele>
        <time>2017-07-30T09:07:03Z</time>
      </trkpt>
      <trkpt lat="42.61033" lon="-0.1666">
        <ele>1272.9</ele>
        <time>2017-07-30T09:07:04Z</time>
      </trkpt>
      <trkpt lat="42.61037" lon="-0.16659">
        <ele>1271.9</ele>
        <time>2017-07-30T09:07:06Z</time>
      </trkpt>
      <trkpt lat="42.6104" lon="-0.16659">
        <ele>1272.8</ele>
        <time>2017-07-30T09:07:08Z</time>
      </trkpt>
      <trkpt lat="42.61044" lon="-0.16659">
        <ele>1274.6</ele>
        <time>2017-07-30T09:07:10Z</time>
      </trkpt>
      <trkpt lat="42.61049" lon="-0.16658">
        <ele>1275.5</ele>
        <time>2017-07-30T09:07:12Z</time>
      </trkpt>
      <trkpt lat="42.61053" lon="-0.16657">
        <ele>1277</ele>
        <time>2017-07-30T09:07:14Z</time>
      </trkpt>
      <trkpt lat="42.61057" lon="-0.16655">
        <ele>1276.1</ele>
        <time>2017-07-30T09:07:17Z</time>
      </trkpt>
      <trkpt lat="42.6106" lon="-0.16653">
        <ele>1276.7</ele>
        <time>2017-07-30T09:07:19Z</time>
      </trkpt>
      <trkpt lat="42.61063" lon="-0.16649">
        <ele>1275.8</ele>
        <time>2017-07-30T09:07:21Z</time>
      </trkpt>
      <trkpt lat="42.61065" lon="-0.16646">
        <ele>1274.2</ele>
        <time>2017-07-30T09:07:22Z</time>
      </trkpt>
      <trkpt lat="42.61067" lon="-0.16643">
        <ele>1273.5</ele>
        <time>2017-07-30T09:07:23Z</time>
      </trkpt>
      <trkpt lat="42.6107" lon="-0.16637">
        <ele>1272.9</ele>
        <time>2017-07-30T09:07:25Z</time>
      </trkpt>
      <trkpt lat="42.61072" lon="-0.1663">
        <ele>1272.1</ele>
        <time>2017-07-30T09:07:27Z</time>
      </trkpt>
      <trkpt lat="42.61074" lon="-0.16625">
        <ele>1269</ele>
        <time>2017-07-30T09:07:28Z</time>
      </trkpt>
      <trkpt lat="42.61075" lon="-0.1662">
        <ele>1267.4</ele>
        <time>2017-07-30T09:07:29Z</time>
      </trkpt>
      <trkpt lat="42.61077" lon="-0.16615">
        <ele>1266.9</ele>
        <time>2017-07-30T09:07:30Z</time>
      </trkpt>
      <trkpt lat="42.61079" lon="-0.16611">
        <ele>1266.6</ele>
        <time>2017-07-30T09:07:31Z</time>
      </trkpt>
      <trkpt lat="42.61082" lon="-0.16608">
        <ele>1266.1</ele>
        <time>2017-07-30T09:07:32Z</time>
      </trkpt>
      <trkpt lat="42.61084" lon="-0.16605">
        <ele>1266</ele>
        <time>2017-07-30T09:07:33Z</time>
      </trkpt>
      <trkpt lat="42.61087" lon="-0.16602">
        <ele>1265.4</ele>
        <time>2017-07-30T09:07:34Z</time>
      </trkpt>
      <trkpt lat="42.6109" lon="-0.16599">
        <ele>1264.6</ele>
        <time>2017-07-30T09:07:35Z</time>
      </trkpt>
      <trkpt lat="42.61093" lon="-0.16596">
        <ele>1265.3</ele>
        <time>2017-07-30T09:07:36Z</time>
      </trkpt>
      <trkpt lat="42.61096" lon="-0.16593">
        <ele>1264.3</ele>
        <time>2017-07-30T09:07:37Z</time>
      </trkpt>
      <trkpt lat="42.61098" lon="-0.1659">
        <ele>1263.4</ele>
        <time>2017-07-30T09:07:38Z</time>
      </trkpt>
      <trkpt lat="42.61101" lon="-0.16587">
        <ele>1262.5</ele>
        <time>2017-07-30T09:07:39Z</time>
      </trkpt>
      <trkpt lat="42.61103" lon="-0.16583">
        <ele>1263.1</ele>
        <time>2017-07-30T09:07:40Z</time>
      </trkpt>
      <trkpt lat="42.61106" lon="-0.16579">
        <ele>1261.7</ele>
        <time>2017-07-30T09:07:41Z</time>
      </trkpt>
      <trkpt lat="42.61108" lon="-0.16576">
        <ele>1261.1</ele>
        <time>2017-07-30T09:07:42Z</time>
      </trkpt>
      <trkpt lat="42.61111" lon="-0.16573">
        <ele>1260.5</ele>
        <time>2017-07-30T09:07:43Z</time>
      </trkpt>
      <trkpt lat="42.61114" lon="-0.1657">
        <ele>1261.2</ele>
        <time>2017-07-30T09:07:45Z</time>
      </trkpt>
      <trkpt lat="42.61118" lon="-0.16569">
        <ele>1260.9</ele>
        <time>2017-07-30T09:07:47Z</time>
      </trkpt>
      <trkpt lat="42.61122" lon="-0.16568">
        <ele>1261.9</ele>
        <time>2017-07-30T09:07:49Z</time>
      </trkpt>
      <trkpt lat="42.61127" lon="-0.16566">
        <ele>1264.2</ele>
        <time>2017-07-30T09:07:51Z</time>
      </trkpt>
      <trkpt lat="42.61131" lon="-0.16563">
        <ele>1264.4</ele>
        <time>2017-07-30T09:07:53Z</time>
      </trkpt>
      <trkpt lat="42.61135" lon="-0.16558">
        <ele>1264.7</ele>
        <time>2017-07-30T09:07:55Z</time>
      </trkpt>
      <trkpt lat="42.61137" lon="-0.16552">
        <ele>1264.9</ele>
        <time>2017-07-30T09:07:57Z</time>
      </trkpt>
      <trkpt lat="42.61138" lon="-0.16547">
        <ele>1265.5</ele>
        <time>2017-07-30T09:07:59Z</time>
      </trkpt>
      <trkpt lat="42.6114" lon="-0.16543">
        <ele>1265</ele>
        <time>2017-07-30T09:08:01Z</time>
      </trkpt>
      <trkpt lat="42.61142" lon="-0.16538">
        <ele>1265.6</ele>
        <time>2017-07-30T09:08:03Z</time>
      </trkpt>
      <trkpt lat="42.61144" lon="-0.16532">
        <ele>1265.1</ele>
        <time>2017-07-30T09:08:05Z</time>
      </trkpt>
      <trkpt lat="42.61146" lon="-0.16526">
        <ele>1265.2</ele>
        <time>2017-07-30T09:08:07Z</time>
      </trkpt>
      <trkpt lat="42.61148" lon="-0.16521">
        <ele>1265.6</ele>
        <time>2017-07-30T09:08:09Z</time>
      </trkpt>
      <trkpt lat="42.6115" lon="-0.16515">
        <ele>1264.6</ele>
        <time>2017-07-30T09:08:11Z</time>
      </trkpt>
      <trkpt lat="42.61151" lon="-0.16511">
        <ele>1264.6</ele>
        <time>2017-07-30T09:08:13Z</time>
      </trkpt>
      <trkpt lat="42.61153" lon="-0.16505">
        <ele>1262.3</ele>
        <time>2017-07-30T09:08:15Z</time>
      </trkpt>
      <trkpt lat="42.61154" lon="-0.16501">
        <ele>1263.4</ele>
        <time>2017-07-30T09:08:16Z</time>
      </trkpt>
      <trkpt lat="42.61155" lon="-0.16498">
        <ele>1262.4</ele>
        <time>2017-07-30T09:08:17Z</time>
      </trkpt>
      <trkpt lat="42.61157" lon="-0.16494">
        <ele>1261.3</ele>
        <time>2017-07-30T09:08:18Z</time>
      </trkpt>
      <trkpt lat="42.61159" lon="-0.1649">
        <ele>1261.4</ele>
        <time>2017-07-30T09:08:19Z</time>
      </trkpt>
      <trkpt lat="42.6116" lon="-0.16487">
        <ele>1260.2</ele>
        <time>2017-07-30T09:08:20Z</time>
      </trkpt>
      <trkpt lat="42.61162" lon="-0.16484">
        <ele>1261.5</ele>
        <time>2017-07-30T09:08:21Z</time>
      </trkpt>
      <trkpt lat="42.61164" lon="-0.16481">
        <ele>1261.5</ele>
        <time>2017-07-30T09:08:22Z</time>
      </trkpt>
      <trkpt lat="42.61166" lon="-0.16478">
        <ele>1260.5</ele>
        <time>2017-07-30T09:08:23Z</time>
      </trkpt>
      <trkpt lat="42.61169" lon="-0.16475">
        <ele>1260.7</ele>
        <time>2017-07-30T09:08:24Z</time>
      </trkpt>
      <trkpt lat="42.61172" lon="-0.16472">
        <ele>1261.9</ele>
        <time>2017-07-30T09:08:25Z</time>
      </trkpt>
      <trkpt lat="42.61175" lon="-0.16471">
        <ele>1262.3</ele>
        <time>2017-07-30T09:08:26Z</time>
      </trkpt>
      <trkpt lat="42.6118" lon="-0.16468">
        <ele>1265</ele>
        <time>2017-07-30T09:08:28Z</time>
      </trkpt>
      <trkpt lat="42.61185" lon="-0.16466">
        <ele>1265.3</ele>
        <time>2017-07-30T09:08:30Z</time>
      </trkpt>
      <trkpt lat="42.61189" lon="-0.16464">
        <ele>1266.6</ele>
        <time>2017-07-30T09:08:32Z</time>
      </trkpt>
      <trkpt lat="42.61193" lon="-0.16462">
        <ele>1268</ele>
        <time>2017-07-30T09:08:34Z</time>
      </trkpt>
      <trkpt lat="42.61197" lon="-0.1646">
        <ele>1269</ele>
        <time>2017-07-30T09:08:36Z</time>
      </trkpt>
      <trkpt lat="42.61201" lon="-0.16458">
        <ele>1270.3</ele>
        <time>2017-07-30T09:08:38Z</time>
      </trkpt>
      <trkpt lat="42.61204" lon="-0.16456">
        <ele>1270.2</ele>
        <time>2017-07-30T09:08:40Z</time>
      </trkpt>
      <trkpt lat="42.61208" lon="-0.16453">
        <ele>1270.4</ele>
        <time>2017-07-30T09:08:42Z</time>
      </trkpt>
      <trkpt lat="42.6121" lon="-0.1645">
        <ele>1271.5</ele>
        <time>2017-07-30T09:08:45Z</time>
      </trkpt>
      <trkpt lat="42.61213" lon="-0.16448">
        <ele>1271.4</ele>
        <time>2017-07-30T09:08:47Z</time>
      </trkpt>
      <trkpt lat="42.61217" lon="-0.16448">
        <ele>1273</ele>
        <time>2017-07-30T09:08:49Z</time>
      </trkpt>
      <trkpt lat="42.61221" lon="-0.16446">
        <ele>1273.5</ele>
        <time>2017-07-30T09:08:51Z</time>
      </trkpt>
      <trkpt lat="42.61225" lon="-0.16442">
        <ele>1273</ele>
        <time>2017-07-30T09:08:53Z</time>
      </trkpt>
      <trkpt lat="42.61229" lon="-0.16438">
        <ele>1272.2</ele>
        <time>2017-07-30T09:08:55Z</time>
      </trkpt>
      <trkpt lat="42.61231" lon="-0.16435">
        <ele>1271.3</ele>
        <time>2017-07-30T09:08:56Z</time>
      </trkpt>
      <trkpt lat="42.61233" lon="-0.16432">
        <ele>1270.4</ele>
        <time>2017-07-30T09:08:57Z</time>
      </trkpt>
      <trkpt lat="42.61235" lon="-0.16429">
        <ele>1270.3</ele>
        <time>2017-07-30T09:08:58Z</time>
      </trkpt>
      <trkpt lat="42.61239" lon="-0.16424">
        <ele>1269.6</ele>
        <time>2017-07-30T09:09:00Z</time>
      </trkpt>
      <trkpt lat="42.61242" lon="-0.16419">
        <ele>1268</ele>
        <time>2017-07-30T09:09:02Z</time>
      </trkpt>
      <trkpt lat="42.61245" lon="-0.16414">
        <ele>1267.8</ele>
        <time>2017-07-30T09:09:04Z</time>
      </trkpt>
      <trkpt lat="42.61247" lon="-0.16411">
        <ele>1268.7</ele>
        <time>2017-07-30T09:09:05Z</time>
      </trkpt>
      <trkpt lat="42.61249" lon="-0.16407">
        <ele>1268.4</ele>
        <time>2017-07-30T09:09:06Z</time>
      </trkpt>
      <trkpt lat="42.61252" lon="-0.16404">
        <ele>1267</ele>
        <time>2017-07-30T09:09:07Z</time>
      </trkpt>
      <trkpt lat="42.61254" lon="-0.16401">
        <ele>1266.4</ele>
        <time>2017-07-30T09:09:08Z</time>
      </trkpt>
      <trkpt lat="42.61257" lon="-0.16398">
        <ele>1267.2</ele>
        <time>2017-07-30T09:09:09Z</time>
      </trkpt>
      <trkpt lat="42.6126" lon="-0.16397">
        <ele>1266.6</ele>
        <time>2017-07-30T09:09:10Z</time>
      </trkpt>
      <trkpt lat="42.61262" lon="-0.16394">
        <ele>1267.4</ele>
        <time>2017-07-30T09:09:11Z</time>
      </trkpt>
      <trkpt lat="42.61264" lon="-0.16391">
        <ele>1267</ele>
        <time>2017-07-30T09:09:12Z</time>
      </trkpt>
      <trkpt lat="42.61266" lon="-0.16388">
        <ele>1265.9</ele>
        <time>2017-07-30T09:09:13Z</time>
      </trkpt>
      <trkpt lat="42.61269" lon="-0.16384">
        <ele>1265.5</ele>
        <time>2017-07-30T09:09:14Z</time>
      </trkpt>
      <trkpt lat="42.61271" lon="-0.16381">
        <ele>1266.1</ele>
        <time>2017-07-30T09:09:15Z</time>
      </trkpt>
      <trkpt lat="42.61273" lon="-0.16378">
        <ele>1264.8</ele>
        <time>2017-07-30T09:09:16Z</time>
      </trkpt>
      <trkpt lat="42.61276" lon="-0.16375">
        <ele>1264</ele>
        <time>2017-07-30T09:09:17Z</time>
      </trkpt>
      <trkpt lat="42.61278" lon="-0.16371">
        <ele>1263.1</ele>
        <time>2017-07-30T09:09:18Z</time>
      </trkpt>
      <trkpt lat="42.61281" lon="-0.16368">
        <ele>1262.3</ele>
        <time>2017-07-30T09:09:19Z</time>
      </trkpt>
      <trkpt lat="42.61283" lon="-0.16364">
        <ele>1262.2</ele>
        <time>2017-07-30T09:09:20Z</time>
      </trkpt>
      <trkpt lat="42.61285" lon="-0.1636">
        <ele>1261.4</ele>
        <time>2017-07-30T09:09:21Z</time>
      </trkpt>
      <trkpt lat="42.61288" lon="-0.16357">
        <ele>1260.7</ele>
        <time>2017-07-30T09:09:22Z</time>
      </trkpt>
      <trkpt lat="42.6129" lon="-0.16354">
        <ele>1259.9</ele>
        <time>2017-07-30T09:09:23Z</time>
      </trkpt>
      <trkpt lat="42.61293" lon="-0.16352">
        <ele>1260.1</ele>
        <time>2017-07-30T09:09:24Z</time>
      </trkpt>
      <trkpt lat="42.61295" lon="-0.16349">
        <ele>1258.9</ele>
        <time>2017-07-30T09:09:25Z</time>
      </trkpt>
      <trkpt lat="42.61298" lon="-0.16346">
        <ele>1257.9</ele>
        <time>2017-07-30T09:09:26Z</time>
      </trkpt>
      <trkpt lat="42.613" lon="-0.16344">
        <ele>1258.1</ele>
        <time>2017-07-30T09:09:27Z</time>
      </trkpt>
      <trkpt lat="42.61302" lon="-0.1634">
        <ele>1257.1</ele>
        <time>2017-07-30T09:09:29Z</time>
      </trkpt>
      <trkpt lat="42.61306" lon="-0.16336">
        <ele>1256.2</ele>
        <time>2017-07-30T09:09:31Z</time>
      </trkpt>
      <trkpt lat="42.61308" lon="-0.16333">
        <ele>1255.1</ele>
        <time>2017-07-30T09:09:35Z</time>
      </trkpt>
      <trkpt lat="42.61311" lon="-0.16329">
        <ele>1254</ele>
        <time>2017-07-30T09:09:37Z</time>
      </trkpt>
      <trkpt lat="42.61314" lon="-0.16325">
        <ele>1252.7</ele>
        <time>2017-07-30T09:09:39Z</time>
      </trkpt>
      <trkpt lat="42.61318" lon="-0.16322">
        <ele>1252.6</ele>
        <time>2017-07-30T09:09:41Z</time>
      </trkpt>
      <trkpt lat="42.61322" lon="-0.1632">
        <ele>1250.8</ele>
        <time>2017-07-30T09:09:43Z</time>
      </trkpt>
      <trkpt lat="42.61324" lon="-0.1632">
        <ele>1250.7</ele>
        <time>2017-07-30T09:09:44Z</time>
      </trkpt>
      <trkpt lat="42.61327" lon="-0.16321">
        <ele>1251.5</ele>
        <time>2017-07-30T09:09:45Z</time>
      </trkpt>
      <trkpt lat="42.6133" lon="-0.16323">
        <ele>1251</ele>
        <time>2017-07-30T09:09:46Z</time>
      </trkpt>
      <trkpt lat="42.61332" lon="-0.16325">
        <ele>1250.6</ele>
        <time>2017-07-30T09:09:47Z</time>
      </trkpt>
      <trkpt lat="42.61334" lon="-0.16328">
        <ele>1251.1</ele>
        <time>2017-07-30T09:09:48Z</time>
      </trkpt>
      <trkpt lat="42.61336" lon="-0.16331">
        <ele>1252</ele>
        <time>2017-07-30T09:09:49Z</time>
      </trkpt>
      <trkpt lat="42.61339" lon="-0.16336">
        <ele>1252.2</ele>
        <time>2017-07-30T09:09:50Z</time>
      </trkpt>
      <trkpt lat="42.61342" lon="-0.1634">
        <ele>1252.2</ele>
        <time>2017-07-30T09:09:51Z</time>
      </trkpt>
      <trkpt lat="42.61344" lon="-0.16345">
        <ele>1252.2</ele>
        <time>2017-07-30T09:09:52Z</time>
      </trkpt>
      <trkpt lat="42.61346" lon="-0.16351">
        <ele>1253.1</ele>
        <time>2017-07-30T09:09:53Z</time>
      </trkpt>
      <trkpt lat="42.61348" lon="-0.16356">
        <ele>1253.7</ele>
        <time>2017-07-30T09:09:54Z</time>
      </trkpt>
      <trkpt lat="42.61349" lon="-0.16362">
        <ele>1254.4</ele>
        <time>2017-07-30T09:09:55Z</time>
      </trkpt>
      <trkpt lat="42.61351" lon="-0.16368">
        <ele>1253.5</ele>
        <time>2017-07-30T09:09:56Z</time>
      </trkpt>
      <trkpt lat="42.61352" lon="-0.16373">
        <ele>1255.2</ele>
        <time>2017-07-30T09:09:57Z</time>
      </trkpt>
      <trkpt lat="42.61353" lon="-0.16378">
        <ele>1254.4</ele>
        <time>2017-07-30T09:09:58Z</time>
      </trkpt>
      <trkpt lat="42.61355" lon="-0.16383">
        <ele>1255.2</ele>
        <time>2017-07-30T09:09:59Z</time>
      </trkpt>
      <trkpt lat="42.61357" lon="-0.16389">
        <ele>1254.4</ele>
        <time>2017-07-30T09:10:00Z</time>
      </trkpt>
      <trkpt lat="42.61359" lon="-0.16394">
        <ele>1256.2</ele>
        <time>2017-07-30T09:10:01Z</time>
      </trkpt>
      <trkpt lat="42.61361" lon="-0.16399">
        <ele>1255.8</ele>
        <time>2017-07-30T09:10:02Z</time>
      </trkpt>
      <trkpt lat="42.61363" lon="-0.16405">
        <ele>1255.4</ele>
        <time>2017-07-30T09:10:03Z</time>
      </trkpt>
      <trkpt lat="42.61365" lon="-0.16411">
        <ele>1257.7</ele>
        <time>2017-07-30T09:10:04Z</time>
      </trkpt>
      <trkpt lat="42.61368" lon="-0.16417">
        <ele>1256.9</ele>
        <time>2017-07-30T09:10:05Z</time>
      </trkpt>
      <trkpt lat="42.6137" lon="-0.16422">
        <ele>1256</ele>
        <time>2017-07-30T09:10:06Z</time>
      </trkpt>
      <trkpt lat="42.61373" lon="-0.16427">
        <ele>1254.8</ele>
        <time>2017-07-30T09:10:07Z</time>
      </trkpt>
      <trkpt lat="42.61375" lon="-0.16431">
        <ele>1253.6</ele>
        <time>2017-07-30T09:10:08Z</time>
      </trkpt>
      <trkpt lat="42.61377" lon="-0.16436">
        <ele>1254.3</ele>
        <time>2017-07-30T09:10:09Z</time>
      </trkpt>
      <trkpt lat="42.6138" lon="-0.16441">
        <ele>1253.6</ele>
        <time>2017-07-30T09:10:10Z</time>
      </trkpt>
      <trkpt lat="42.61382" lon="-0.16447">
        <ele>1252.2</ele>
        <time>2017-07-30T09:10:11Z</time>
      </trkpt>
      <trkpt lat="42.61383" lon="-0.16452">
        <ele>1253</ele>
        <time>2017-07-30T09:10:12Z</time>
      </trkpt>
      <trkpt lat="42.61384" lon="-0.16456">
        <ele>1254</ele>
        <time>2017-07-30T09:10:13Z</time>
      </trkpt>
      <trkpt lat="42.61384" lon="-0.16461">
        <ele>1255</ele>
        <time>2017-07-30T09:10:15Z</time>
      </trkpt>
      <trkpt lat="42.61384" lon="-0.16465">
        <ele>1256</ele>
        <time>2017-07-30T09:10:16Z</time>
      </trkpt>
      <trkpt lat="42.61383" lon="-0.16469">
        <ele>1256.9</ele>
        <time>2017-07-30T09:10:17Z</time>
      </trkpt>
      <trkpt lat="42.61383" lon="-0.16473">
        <ele>1257.7</ele>
        <time>2017-07-30T09:10:18Z</time>
      </trkpt>
      <trkpt lat="42.61383" lon="-0.16477">
        <ele>1258.5</ele>
        <time>2017-07-30T09:10:19Z</time>
      </trkpt>
      <trkpt lat="42.61384" lon="-0.1648">
        <ele>1259.2</ele>
        <time>2017-07-30T09:10:20Z</time>
      </trkpt>
      <trkpt lat="42.61386" lon="-0.16484">
        <ele>1257.1</ele>
        <time>2017-07-30T09:10:21Z</time>
      </trkpt>
      <trkpt lat="42.61388" lon="-0.1649">
        <ele>1256.9</ele>
        <time>2017-07-30T09:10:23Z</time>
      </trkpt>
      <trkpt lat="42.61389" lon="-0.16493">
        <ele>1257.5</ele>
        <time>2017-07-30T09:10:24Z</time>
      </trkpt>
      <trkpt lat="42.6139" lon="-0.16497">
        <ele>1258</ele>
        <time>2017-07-30T09:10:25Z</time>
      </trkpt>
      <trkpt lat="42.61392" lon="-0.16501">
        <ele>1256.2</ele>
        <time>2017-07-30T09:10:26Z</time>
      </trkpt>
      <trkpt lat="42.61393" lon="-0.16505">
        <ele>1256.5</ele>
        <time>2017-07-30T09:10:27Z</time>
      </trkpt>
      <trkpt lat="42.61394" lon="-0.16509">
        <ele>1256.8</ele>
        <time>2017-07-30T09:10:28Z</time>
      </trkpt>
      <trkpt lat="42.61394" lon="-0.16513">
        <ele>1255.4</ele>
        <time>2017-07-30T09:10:29Z</time>
      </trkpt>
      <trkpt lat="42.61395" lon="-0.16517">
        <ele>1255.6</ele>
        <time>2017-07-30T09:10:30Z</time>
      </trkpt>
      <trkpt lat="42.61396" lon="-0.16521">
        <ele>1255.8</ele>
        <time>2017-07-30T09:10:31Z</time>
      </trkpt>
      <trkpt lat="42.61396" lon="-0.16524">
        <ele>1255.9</ele>
        <time>2017-07-30T09:10:32Z</time>
      </trkpt>
      <trkpt lat="42.61398" lon="-0.16529">
        <ele>1254.3</ele>
        <time>2017-07-30T09:10:34Z</time>
      </trkpt>
      <trkpt lat="42.614" lon="-0.16532">
        <ele>1254.6</ele>
        <time>2017-07-30T09:10:35Z</time>
      </trkpt>
      <trkpt lat="42.61401" lon="-0.16536">
        <ele>1253.1</ele>
        <time>2017-07-30T09:10:36Z</time>
      </trkpt>
      <trkpt lat="42.61403" lon="-0.16541">
        <ele>1253.5</ele>
        <time>2017-07-30T09:10:37Z</time>
      </trkpt>
      <trkpt lat="42.61404" lon="-0.16546">
        <ele>1252</ele>
        <time>2017-07-30T09:10:38Z</time>
      </trkpt>
      <trkpt lat="42.61407" lon="-0.16551">
        <ele>1250.6</ele>
        <time>2017-07-30T09:10:39Z</time>
      </trkpt>
      <trkpt lat="42.6141" lon="-0.16557">
        <ele>1250.9</ele>
        <time>2017-07-30T09:10:40Z</time>
      </trkpt>
      <trkpt lat="42.61413" lon="-0.16562">
        <ele>1250.5</ele>
        <time>2017-07-30T09:10:41Z</time>
      </trkpt>
      <trkpt lat="42.61416" lon="-0.16566">
        <ele>1250.2</ele>
        <time>2017-07-30T09:10:42Z</time>
      </trkpt>
      <trkpt lat="42.61419" lon="-0.16571">
        <ele>1250.2</ele>
        <time>2017-07-30T09:10:43Z</time>
      </trkpt>
      <trkpt lat="42.61422" lon="-0.16577">
        <ele>1250</ele>
        <time>2017-07-30T09:10:44Z</time>
      </trkpt>
      <trkpt lat="42.61425" lon="-0.16582">
        <ele>1249.2</ele>
        <time>2017-07-30T09:10:45Z</time>
      </trkpt>
      <trkpt lat="42.61429" lon="-0.16589">
        <ele>1248.3</ele>
        <time>2017-07-30T09:10:46Z</time>
      </trkpt>
      <trkpt lat="42.61432" lon="-0.16598">
        <ele>1245.1</ele>
        <time>2017-07-30T09:10:47Z</time>
      </trkpt>
      <trkpt lat="42.61434" lon="-0.16605">
        <ele>1246.9</ele>
        <time>2017-07-30T09:10:48Z</time>
      </trkpt>
      <trkpt lat="42.61435" lon="-0.16611">
        <ele>1247.8</ele>
        <time>2017-07-30T09:10:49Z</time>
      </trkpt>
      <trkpt lat="42.61435" lon="-0.16616">
        <ele>1247</ele>
        <time>2017-07-30T09:10:50Z</time>
      </trkpt>
      <trkpt lat="42.61436" lon="-0.1662">
        <ele>1248.3</ele>
        <time>2017-07-30T09:10:51Z</time>
      </trkpt>
      <trkpt lat="42.61436" lon="-0.16624">
        <ele>1249.8</ele>
        <time>2017-07-30T09:10:52Z</time>
      </trkpt>
      <trkpt lat="42.61437" lon="-0.16628">
        <ele>1251.4</ele>
        <time>2017-07-30T09:10:53Z</time>
      </trkpt>
      <trkpt lat="42.61438" lon="-0.16632">
        <ele>1253</ele>
        <time>2017-07-30T09:10:54Z</time>
      </trkpt>
      <trkpt lat="42.61439" lon="-0.16636">
        <ele>1252.3</ele>
        <time>2017-07-30T09:10:55Z</time>
      </trkpt>
      <trkpt lat="42.6144" lon="-0.16641">
        <ele>1253.6</ele>
        <time>2017-07-30T09:10:57Z</time>
      </trkpt>
      <trkpt lat="42.61444" lon="-0.16644">
        <ele>1253</ele>
        <time>2017-07-30T09:10:59Z</time>
      </trkpt>
      <trkpt lat="42.61447" lon="-0.16645">
        <ele>1251</ele>
        <time>2017-07-30T09:11:00Z</time>
      </trkpt>
      <trkpt lat="42.6145" lon="-0.16646">
        <ele>1248.7</ele>
        <time>2017-07-30T09:11:01Z</time>
      </trkpt>
      <trkpt lat="42.61452" lon="-0.16647">
        <ele>1246.2</ele>
        <time>2017-07-30T09:11:02Z</time>
      </trkpt>
      <trkpt lat="42.61455" lon="-0.16647">
        <ele>1245.2</ele>
        <time>2017-07-30T09:11:03Z</time>
      </trkpt>
      <trkpt lat="42.6146" lon="-0.16649">
        <ele>1239.8</ele>
        <time>2017-07-30T09:11:05Z</time>
      </trkpt>
      <trkpt lat="42.61463" lon="-0.16651">
        <ele>1239.7</ele>
        <time>2017-07-30T09:11:06Z</time>
      </trkpt>
      <trkpt lat="42.61466" lon="-0.16654">
        <ele>1238.5</ele>
        <time>2017-07-30T09:11:07Z</time>
      </trkpt>
      <trkpt lat="42.61469" lon="-0.16658">
        <ele>1237.2</ele>
        <time>2017-07-30T09:11:08Z</time>
      </trkpt>
      <trkpt lat="42.61471" lon="-0.16663">
        <ele>1235.9</ele>
        <time>2017-07-30T09:11:09Z</time>
      </trkpt>
      <trkpt lat="42.61473" lon="-0.16667">
        <ele>1234.5</ele>
        <time>2017-07-30T09:11:10Z</time>
      </trkpt>
      <trkpt lat="42.61475" lon="-0.16673">
        <ele>1235.4</ele>
        <time>2017-07-30T09:11:11Z</time>
      </trkpt>
      <trkpt lat="42.61478" lon="-0.16678">
        <ele>1235.2</ele>
        <time>2017-07-30T09:11:12Z</time>
      </trkpt>
      <trkpt lat="42.6148" lon="-0.16684">
        <ele>1233.8</ele>
        <time>2017-07-30T09:11:13Z</time>
      </trkpt>
      <trkpt lat="42.61483" lon="-0.16689">
        <ele>1232.2</ele>
        <time>2017-07-30T09:11:14Z</time>
      </trkpt>
      <trkpt lat="42.61485" lon="-0.16694">
        <ele>1234.1</ele>
        <time>2017-07-30T09:11:15Z</time>
      </trkpt>
      <trkpt lat="42.61486" lon="-0.16698">
        <ele>1232.1</ele>
        <time>2017-07-30T09:11:16Z</time>
      </trkpt>
      <trkpt lat="42.61487" lon="-0.16702">
        <ele>1232</ele>
        <time>2017-07-30T09:11:17Z</time>
      </trkpt>
      <trkpt lat="42.61488" lon="-0.16706">
        <ele>1233</ele>
        <time>2017-07-30T09:11:18Z</time>
      </trkpt>
      <trkpt lat="42.6149" lon="-0.1671">
        <ele>1231</ele>
        <time>2017-07-30T09:11:19Z</time>
      </trkpt>
      <trkpt lat="42.61491" lon="-0.16714">
        <ele>1231.9</ele>
        <time>2017-07-30T09:11:20Z</time>
      </trkpt>
      <trkpt lat="42.61493" lon="-0.1672">
        <ele>1229.9</ele>
        <time>2017-07-30T09:11:21Z</time>
      </trkpt>
      <trkpt lat="42.61496" lon="-0.16725">
        <ele>1228.7</ele>
        <time>2017-07-30T09:11:22Z</time>
      </trkpt>
      <trkpt lat="42.61499" lon="-0.1673">
        <ele>1226.8</ele>
        <time>2017-07-30T09:11:23Z</time>
      </trkpt>
      <trkpt lat="42.61502" lon="-0.16734">
        <ele>1224.9</ele>
        <time>2017-07-30T09:11:24Z</time>
      </trkpt>
      <trkpt lat="42.61504" lon="-0.16737">
        <ele>1224.9</ele>
        <time>2017-07-30T09:11:25Z</time>
      </trkpt>
      <trkpt lat="42.61506" lon="-0.16739">
        <ele>1223</ele>
        <time>2017-07-30T09:11:26Z</time>
      </trkpt>
      <trkpt lat="42.61508" lon="-0.16742">
        <ele>1221</ele>
        <time>2017-07-30T09:11:27Z</time>
      </trkpt>
      <trkpt lat="42.6151" lon="-0.16745">
        <ele>1220.9</ele>
        <time>2017-07-30T09:11:28Z</time>
      </trkpt>
      <trkpt lat="42.61512" lon="-0.16749">
        <ele>1219</ele>
        <time>2017-07-30T09:11:29Z</time>
      </trkpt>
      <trkpt lat="42.61515" lon="-0.16755">
        <ele>1217.7</ele>
        <time>2017-07-30T09:11:30Z</time>
      </trkpt>
      <trkpt lat="42.61518" lon="-0.16761">
        <ele>1216.2</ele>
        <time>2017-07-30T09:11:31Z</time>
      </trkpt>
      <trkpt lat="42.6152" lon="-0.16766">
        <ele>1216.8</ele>
        <time>2017-07-30T09:11:32Z</time>
      </trkpt>
      <trkpt lat="42.61521" lon="-0.16769">
        <ele>1215.4</ele>
        <time>2017-07-30T09:11:33Z</time>
      </trkpt>
      <trkpt lat="42.61523" lon="-0.16776">
        <ele>1216.4</ele>
        <time>2017-07-30T09:11:35Z</time>
      </trkpt>
      <trkpt lat="42.61525" lon="-0.16781">
        <ele>1215.2</ele>
        <time>2017-07-30T09:11:36Z</time>
      </trkpt>
      <trkpt lat="42.61528" lon="-0.16786">
        <ele>1214.1</ele>
        <time>2017-07-30T09:11:37Z</time>
      </trkpt>
      <trkpt lat="42.61531" lon="-0.16792">
        <ele>1213.1</ele>
        <time>2017-07-30T09:11:38Z</time>
      </trkpt>
      <trkpt lat="42.61535" lon="-0.16797">
        <ele>1212.1</ele>
        <time>2017-07-30T09:11:39Z</time>
      </trkpt>
      <trkpt lat="42.61538" lon="-0.16802">
        <ele>1211.4</ele>
        <time>2017-07-30T09:11:40Z</time>
      </trkpt>
      <trkpt lat="42.61542" lon="-0.16806">
        <ele>1210.5</ele>
        <time>2017-07-30T09:11:41Z</time>
      </trkpt>
      <trkpt lat="42.61545" lon="-0.1681">
        <ele>1209.8</ele>
        <time>2017-07-30T09:11:42Z</time>
      </trkpt>
      <trkpt lat="42.61548" lon="-0.16815">
        <ele>1209.2</ele>
        <time>2017-07-30T09:11:43Z</time>
      </trkpt>
      <trkpt lat="42.61551" lon="-0.1682">
        <ele>1208.7</ele>
        <time>2017-07-30T09:11:44Z</time>
      </trkpt>
      <trkpt lat="42.61554" lon="-0.16825">
        <ele>1208.5</ele>
        <time>2017-07-30T09:11:45Z</time>
      </trkpt>
      <trkpt lat="42.61556" lon="-0.1683">
        <ele>1208.4</ele>
        <time>2017-07-30T09:11:46Z</time>
      </trkpt>
      <trkpt lat="42.61557" lon="-0.16834">
        <ele>1208.5</ele>
        <time>2017-07-30T09:11:47Z</time>
      </trkpt>
      <trkpt lat="42.61557" lon="-0.16838">
        <ele>1208.7</ele>
        <time>2017-07-30T09:11:48Z</time>
      </trkpt>
      <trkpt lat="42.61555" lon="-0.16842">
        <ele>1209</ele>
        <time>2017-07-30T09:11:49Z</time>
      </trkpt>
      <trkpt lat="42.61553" lon="-0.16847">
        <ele>1209.3</ele>
        <time>2017-07-30T09:11:50Z</time>
      </trkpt>
      <trkpt lat="42.61552" lon="-0.16853">
        <ele>1209.6</ele>
        <time>2017-07-30T09:11:51Z</time>
      </trkpt>
      <trkpt lat="42.61551" lon="-0.16859">
        <ele>1209.9</ele>
        <time>2017-07-30T09:11:52Z</time>
      </trkpt>
      <trkpt lat="42.61552" lon="-0.16864">
        <ele>1210</ele>
        <time>2017-07-30T09:11:53Z</time>
      </trkpt>
      <trkpt lat="42.61553" lon="-0.16869">
        <ele>1209.9</ele>
        <time>2017-07-30T09:11:54Z</time>
      </trkpt>
      <trkpt lat="42.61554" lon="-0.16873">
        <ele>1209.8</ele>
        <time>2017-07-30T09:11:55Z</time>
      </trkpt>
      <trkpt lat="42.61555" lon="-0.16877">
        <ele>1209.7</ele>
        <time>2017-07-30T09:11:56Z</time>
      </trkpt>
      <trkpt lat="42.61556" lon="-0.1688">
        <ele>1209.5</ele>
        <time>2017-07-30T09:11:57Z</time>
      </trkpt>
      <trkpt lat="42.61557" lon="-0.16886">
        <ele>1209.5</ele>
        <time>2017-07-30T09:11:59Z</time>
      </trkpt>
      <trkpt lat="42.61558" lon="-0.1689">
        <ele>1209.7</ele>
        <time>2017-07-30T09:12:01Z</time>
      </trkpt>
      <trkpt lat="42.6156" lon="-0.16893">
        <ele>1210</ele>
        <time>2017-07-30T09:12:04Z</time>
      </trkpt>
      <trkpt lat="42.61564" lon="-0.16894">
        <ele>1209.9</ele>
        <time>2017-07-30T09:12:07Z</time>
      </trkpt>
      <trkpt lat="42.61567" lon="-0.16895">
        <ele>1210</ele>
        <time>2017-07-30T09:12:09Z</time>
      </trkpt>
      <trkpt lat="42.6157" lon="-0.16895">
        <ele>1210.1</ele>
        <time>2017-07-30T09:12:11Z</time>
      </trkpt>
      <trkpt lat="42.61573" lon="-0.16896">
        <ele>1210.4</ele>
        <time>2017-07-30T09:12:13Z</time>
      </trkpt>
      <trkpt lat="42.61576" lon="-0.16896">
        <ele>1210.8</ele>
        <time>2017-07-30T09:12:15Z</time>
      </trkpt>
      <trkpt lat="42.6158" lon="-0.16898">
        <ele>1211.2</ele>
        <time>2017-07-30T09:12:17Z</time>
      </trkpt>
      <trkpt lat="42.61583" lon="-0.169">
        <ele>1211.7</ele>
        <time>2017-07-30T09:12:19Z</time>
      </trkpt>
      <trkpt lat="42.61586" lon="-0.16902">
        <ele>1212</ele>
        <time>2017-07-30T09:12:22Z</time>
      </trkpt>
      <trkpt lat="42.61589" lon="-0.16905">
        <ele>1212.2</ele>
        <time>2017-07-30T09:12:25Z</time>
      </trkpt>
      <trkpt lat="42.61591" lon="-0.16909">
        <ele>1212.7</ele>
        <time>2017-07-30T09:12:27Z</time>
      </trkpt>
      <trkpt lat="42.61593" lon="-0.16911">
        <ele>1213</ele>
        <time>2017-07-30T09:12:29Z</time>
      </trkpt>
      <trkpt lat="42.61595" lon="-0.16915">
        <ele>1212.7</ele>
        <time>2017-07-30T09:12:31Z</time>
      </trkpt>
      <trkpt lat="42.61595" lon="-0.16919">
        <ele>1212.5</ele>
        <time>2017-07-30T09:12:36Z</time>
      </trkpt>
      <trkpt lat="42.61596" lon="-0.16923">
        <ele>1212.3</ele>
        <time>2017-07-30T09:12:39Z</time>
      </trkpt>
      <trkpt lat="42.61597" lon="-0.16927">
        <ele>1212.6</ele>
        <time>2017-07-30T09:12:41Z</time>
      </trkpt>
      <trkpt lat="42.61599" lon="-0.16931">
        <ele>1212.8</ele>
        <time>2017-07-30T09:12:43Z</time>
      </trkpt>
      <trkpt lat="42.61601" lon="-0.16935">
        <ele>1212.4</ele>
        <time>2017-07-30T09:12:45Z</time>
      </trkpt>
      <trkpt lat="42.61603" lon="-0.16939">
        <ele>1212.5</ele>
        <time>2017-07-30T09:12:47Z</time>
      </trkpt>
      <trkpt lat="42.61605" lon="-0.16943">
        <ele>1212.4</ele>
        <time>2017-07-30T09:12:49Z</time>
      </trkpt>
      <trkpt lat="42.61606" lon="-0.16948">
        <ele>1212.3</ele>
        <time>2017-07-30T09:12:52Z</time>
      </trkpt>
      <trkpt lat="42.61608" lon="-0.16952">
        <ele>1212.1</ele>
        <time>2017-07-30T09:12:54Z</time>
      </trkpt>
      <trkpt lat="42.6161" lon="-0.16956">
        <ele>1212.6</ele>
        <time>2017-07-30T09:12:56Z</time>
      </trkpt>
      <trkpt lat="42.61611" lon="-0.16961">
        <ele>1212.6</ele>
        <time>2017-07-30T09:12:58Z</time>
      </trkpt>
      <trkpt lat="42.61613" lon="-0.16967">
        <ele>1213.2</ele>
        <time>2017-07-30T09:13:00Z</time>
      </trkpt>
      <trkpt lat="42.61613" lon="-0.16973">
        <ele>1213.2</ele>
        <time>2017-07-30T09:13:02Z</time>
      </trkpt>
      <trkpt lat="42.61614" lon="-0.1698">
        <ele>1213.1</ele>
        <time>2017-07-30T09:13:04Z</time>
      </trkpt>
      <trkpt lat="42.61616" lon="-0.16986">
        <ele>1213.3</ele>
        <time>2017-07-30T09:13:06Z</time>
      </trkpt>
      <trkpt lat="42.61617" lon="-0.16993">
        <ele>1213</ele>
        <time>2017-07-30T09:13:08Z</time>
      </trkpt>
      <trkpt lat="42.61617" lon="-0.16998">
        <ele>1212.8</ele>
        <time>2017-07-30T09:13:10Z</time>
      </trkpt>
      <trkpt lat="42.61619" lon="-0.17004">
        <ele>1213</ele>
        <time>2017-07-30T09:13:12Z</time>
      </trkpt>
      <trkpt lat="42.6162" lon="-0.17011">
        <ele>1212.9</ele>
        <time>2017-07-30T09:13:14Z</time>
      </trkpt>
      <trkpt lat="42.61622" lon="-0.17017">
        <ele>1213.3</ele>
        <time>2017-07-30T09:13:16Z</time>
      </trkpt>
      <trkpt lat="42.61623" lon="-0.17022">
        <ele>1213.2</ele>
        <time>2017-07-30T09:13:18Z</time>
      </trkpt>
      <trkpt lat="42.61625" lon="-0.17027">
        <ele>1213.8</ele>
        <time>2017-07-30T09:13:20Z</time>
      </trkpt>
      <trkpt lat="42.61627" lon="-0.17032">
        <ele>1213.7</ele>
        <time>2017-07-30T09:13:22Z</time>
      </trkpt>
      <trkpt lat="42.61629" lon="-0.17037">
        <ele>1214.3</ele>
        <time>2017-07-30T09:13:24Z</time>
      </trkpt>
      <trkpt lat="42.61631" lon="-0.17041">
        <ele>1214.9</ele>
        <time>2017-07-30T09:13:26Z</time>
      </trkpt>
      <trkpt lat="42.61633" lon="-0.17045">
        <ele>1214.7</ele>
        <time>2017-07-30T09:13:28Z</time>
      </trkpt>
      <trkpt lat="42.61634" lon="-0.1705">
        <ele>1215.2</ele>
        <time>2017-07-30T09:13:30Z</time>
      </trkpt>
      <trkpt lat="42.61636" lon="-0.17054">
        <ele>1215</ele>
        <time>2017-07-30T09:13:32Z</time>
      </trkpt>
      <trkpt lat="42.61638" lon="-0.17057">
        <ele>1215.5</ele>
        <time>2017-07-30T09:13:34Z</time>
      </trkpt>
      <trkpt lat="42.6164" lon="-0.17061">
        <ele>1215.3</ele>
        <time>2017-07-30T09:13:36Z</time>
      </trkpt>
      <trkpt lat="42.61641" lon="-0.17064">
        <ele>1215.7</ele>
        <time>2017-07-30T09:13:38Z</time>
      </trkpt>
      <trkpt lat="42.61644" lon="-0.17065">
        <ele>1216</ele>
        <time>2017-07-30T09:13:46Z</time>
      </trkpt>
      <trkpt lat="42.61647" lon="-0.17066">
        <ele>1216.4</ele>
        <time>2017-07-30T09:14:07Z</time>
      </trkpt>
      <trkpt lat="42.61649" lon="-0.1707">
        <ele>1216.2</ele>
        <time>2017-07-30T09:14:10Z</time>
      </trkpt>
      <trkpt lat="42.61651" lon="-0.17074">
        <ele>1216.4</ele>
        <time>2017-07-30T09:14:12Z</time>
      </trkpt>
      <trkpt lat="42.61653" lon="-0.17078">
        <ele>1216.7</ele>
        <time>2017-07-30T09:14:15Z</time>
      </trkpt>
      <trkpt lat="42.61655" lon="-0.17081">
        <ele>1216.5</ele>
        <time>2017-07-30T09:14:17Z</time>
      </trkpt>
      <trkpt lat="42.61657" lon="-0.17085">
        <ele>1216.8</ele>
        <time>2017-07-30T09:14:20Z</time>
      </trkpt>
      <trkpt lat="42.61659" lon="-0.17089">
        <ele>1216.6</ele>
        <time>2017-07-30T09:14:23Z</time>
      </trkpt>
      <trkpt lat="42.61661" lon="-0.17094">
        <ele>1216.8</ele>
        <time>2017-07-30T09:14:26Z</time>
      </trkpt>
      <trkpt lat="42.61663" lon="-0.17097">
        <ele>1217.2</ele>
        <time>2017-07-30T09:14:28Z</time>
      </trkpt>
      <trkpt lat="42.61667" lon="-0.17099">
        <ele>1217.3</ele>
        <time>2017-07-30T09:14:31Z</time>
      </trkpt>
      <trkpt lat="42.6167" lon="-0.17098">
        <ele>1217.7</ele>
        <time>2017-07-30T09:14:33Z</time>
      </trkpt>
      <trkpt lat="42.61674" lon="-0.17098">
        <ele>1218</ele>
        <time>2017-07-30T09:14:35Z</time>
      </trkpt>
      <trkpt lat="42.61678" lon="-0.17096">
        <ele>1219.2</ele>
        <time>2017-07-30T09:14:37Z</time>
      </trkpt>
      <trkpt lat="42.61682" lon="-0.17096">
        <ele>1219.7</ele>
        <time>2017-07-30T09:14:39Z</time>
      </trkpt>
      <trkpt lat="42.61687" lon="-0.17095">
        <ele>1220.1</ele>
        <time>2017-07-30T09:14:41Z</time>
      </trkpt>
      <trkpt lat="42.61692" lon="-0.17095">
        <ele>1221</ele>
        <time>2017-07-30T09:14:43Z</time>
      </trkpt>
      <trkpt lat="42.61697" lon="-0.17095">
        <ele>1221</ele>
        <time>2017-07-30T09:14:45Z</time>
      </trkpt>
      <trkpt lat="42.61702" lon="-0.17094">
        <ele>1221.2</ele>
        <time>2017-07-30T09:14:47Z</time>
      </trkpt>
      <trkpt lat="42.61707" lon="-0.17093">
        <ele>1221.9</ele>
        <time>2017-07-30T09:14:49Z</time>
      </trkpt>
      <trkpt lat="42.6171" lon="-0.17092">
        <ele>1222.3</ele>
        <time>2017-07-30T09:14:50Z</time>
      </trkpt>
      <trkpt lat="42.61712" lon="-0.17091">
        <ele>1222.7</ele>
        <time>2017-07-30T09:14:51Z</time>
      </trkpt>
      <trkpt lat="42.61715" lon="-0.1709">
        <ele>1223.1</ele>
        <time>2017-07-30T09:14:52Z</time>
      </trkpt>
      <trkpt lat="42.6172" lon="-0.17088">
        <ele>1223.8</ele>
        <time>2017-07-30T09:14:54Z</time>
      </trkpt>
      <trkpt lat="42.61725" lon="-0.17087">
        <ele>1224.3</ele>
        <time>2017-07-30T09:14:56Z</time>
      </trkpt>
      <trkpt lat="42.6173" lon="-0.17084">
        <ele>1225</ele>
        <time>2017-07-30T09:14:58Z</time>
      </trkpt>
      <trkpt lat="42.61736" lon="-0.17084">
        <ele>1225.8</ele>
        <time>2017-07-30T09:15:00Z</time>
      </trkpt>
      <trkpt lat="42.61738" lon="-0.17083">
        <ele>1226.2</ele>
        <time>2017-07-30T09:15:01Z</time>
      </trkpt>
      <trkpt lat="42.61741" lon="-0.17083">
        <ele>1226.7</ele>
        <time>2017-07-30T09:15:02Z</time>
      </trkpt>
      <trkpt lat="42.61744" lon="-0.17083">
        <ele>1227.1</ele>
        <time>2017-07-30T09:15:03Z</time>
      </trkpt>
      <trkpt lat="42.61747" lon="-0.17082">
        <ele>1227.6</ele>
        <time>2017-07-30T09:15:04Z</time>
      </trkpt>
      <trkpt lat="42.6175" lon="-0.17082">
        <ele>1228</ele>
        <time>2017-07-30T09:15:05Z</time>
      </trkpt>
      <trkpt lat="42.61752" lon="-0.17082">
        <ele>1228.5</ele>
        <time>2017-07-30T09:15:06Z</time>
      </trkpt>
      <trkpt lat="42.61755" lon="-0.17082">
        <ele>1229.1</ele>
        <time>2017-07-30T09:15:07Z</time>
      </trkpt>
      <trkpt lat="42.61758" lon="-0.17081">
        <ele>1229.7</ele>
        <time>2017-07-30T09:15:08Z</time>
      </trkpt>
      <trkpt lat="42.61763" lon="-0.1708">
        <ele>1230.8</ele>
        <time>2017-07-30T09:15:10Z</time>
      </trkpt>
      <trkpt lat="42.61766" lon="-0.1708">
        <ele>1231.4</ele>
        <time>2017-07-30T09:15:11Z</time>
      </trkpt>
      <trkpt lat="42.61771" lon="-0.17079">
        <ele>1232.2</ele>
        <time>2017-07-30T09:15:13Z</time>
      </trkpt>
      <trkpt lat="42.61774" lon="-0.17078">
        <ele>1232.3</ele>
        <time>2017-07-30T09:15:14Z</time>
      </trkpt>
      <trkpt lat="42.61777" lon="-0.17078">
        <ele>1232.4</ele>
        <time>2017-07-30T09:15:15Z</time>
      </trkpt>
      <trkpt lat="42.6178" lon="-0.17077">
        <ele>1232.6</ele>
        <time>2017-07-30T09:15:16Z</time>
      </trkpt>
      <trkpt lat="42.61783" lon="-0.17076">
        <ele>1232.7</ele>
        <time>2017-07-30T09:15:17Z</time>
      </trkpt>
      <trkpt lat="42.61786" lon="-0.17076">
        <ele>1232.9</ele>
        <time>2017-07-30T09:15:18Z</time>
      </trkpt>
      <trkpt lat="42.61789" lon="-0.17075">
        <ele>1233</ele>
        <time>2017-07-30T09:15:19Z</time>
      </trkpt>
      <trkpt lat="42.61792" lon="-0.17076">
        <ele>1233.2</ele>
        <time>2017-07-30T09:15:20Z</time>
      </trkpt>
      <trkpt lat="42.61798" lon="-0.17077">
        <ele>1233.6</ele>
        <time>2017-07-30T09:15:22Z</time>
      </trkpt>
      <trkpt lat="42.618" lon="-0.17078">
        <ele>1233.8</ele>
        <time>2017-07-30T09:15:23Z</time>
      </trkpt>
      <trkpt lat="42.61803" lon="-0.17078">
        <ele>1234.1</ele>
        <time>2017-07-30T09:15:24Z</time>
      </trkpt>
      <trkpt lat="42.61806" lon="-0.17078">
        <ele>1234.3</ele>
        <time>2017-07-30T09:15:25Z</time>
      </trkpt>
      <trkpt lat="42.61809" lon="-0.17078">
        <ele>1234.5</ele>
        <time>2017-07-30T09:15:26Z</time>
      </trkpt>
      <trkpt lat="42.61811" lon="-0.17078">
        <ele>1234.8</ele>
        <time>2017-07-30T09:15:27Z</time>
      </trkpt>
      <trkpt lat="42.61817" lon="-0.17079">
        <ele>1235.4</ele>
        <time>2017-07-30T09:15:29Z</time>
      </trkpt>
      <trkpt lat="42.61822" lon="-0.17079">
        <ele>1236.1</ele>
        <time>2017-07-30T09:15:31Z</time>
      </trkpt>
      <trkpt lat="42.61827" lon="-0.17078">
        <ele>1236.8</ele>
        <time>2017-07-30T09:15:33Z</time>
      </trkpt>
      <trkpt lat="42.61831" lon="-0.17076">
        <ele>1237.4</ele>
        <time>2017-07-30T09:15:35Z</time>
      </trkpt>
      <trkpt lat="42.61836" lon="-0.17072">
        <ele>1237.8</ele>
        <time>2017-07-30T09:15:37Z</time>
      </trkpt>
      <trkpt lat="42.6184" lon="-0.17068">
        <ele>1238.2</ele>
        <time>2017-07-30T09:15:39Z</time>
      </trkpt>
      <trkpt lat="42.61844" lon="-0.17065">
        <ele>1238.4</ele>
        <time>2017-07-30T09:15:41Z</time>
      </trkpt>
      <trkpt lat="42.61849" lon="-0.17062">
        <ele>1238.6</ele>
        <time>2017-07-30T09:15:43Z</time>
      </trkpt>
      <trkpt lat="42.61853" lon="-0.17058">
        <ele>1238.8</ele>
        <time>2017-07-30T09:15:45Z</time>
      </trkpt>
      <trkpt lat="42.61856" lon="-0.17055">
        <ele>1239</ele>
        <time>2017-07-30T09:15:47Z</time>
      </trkpt>
      <trkpt lat="42.6186" lon="-0.17053">
        <ele>1239</ele>
        <time>2017-07-30T09:15:49Z</time>
      </trkpt>
      <trkpt lat="42.61865" lon="-0.17052">
        <ele>1239</ele>
        <time>2017-07-30T09:15:51Z</time>
      </trkpt>
      <trkpt lat="42.61868" lon="-0.17051">
        <ele>1239</ele>
        <time>2017-07-30T09:15:53Z</time>
      </trkpt>
      <trkpt lat="42.61871" lon="-0.17052">
        <ele>1239</ele>
        <time>2017-07-30T09:15:55Z</time>
      </trkpt>
      <trkpt lat="42.61874" lon="-0.17056">
        <ele>1238.7</ele>
        <time>2017-07-30T09:15:57Z</time>
      </trkpt>
      <trkpt lat="42.61875" lon="-0.1706">
        <ele>1238.2</ele>
        <time>2017-07-30T09:15:58Z</time>
      </trkpt>
      <trkpt lat="42.61876" lon="-0.17064">
        <ele>1237.7</ele>
        <time>2017-07-30T09:15:59Z</time>
      </trkpt>
      <trkpt lat="42.61877" lon="-0.17068">
        <ele>1237.2</ele>
        <time>2017-07-30T09:16:00Z</time>
      </trkpt>
      <trkpt lat="42.61878" lon="-0.17073">
        <ele>1236.5</ele>
        <time>2017-07-30T09:16:01Z</time>
      </trkpt>
      <trkpt lat="42.61879" lon="-0.17078">
        <ele>1235.9</ele>
        <time>2017-07-30T09:16:02Z</time>
      </trkpt>
      <trkpt lat="42.61879" lon="-0.17083">
        <ele>1235.3</ele>
        <time>2017-07-30T09:16:03Z</time>
      </trkpt>
      <trkpt lat="42.6188" lon="-0.17089">
        <ele>1234.6</ele>
        <time>2017-07-30T09:16:04Z</time>
      </trkpt>
      <trkpt lat="42.61881" lon="-0.17094">
        <ele>1234</ele>
        <time>2017-07-30T09:16:05Z</time>
      </trkpt>
      <trkpt lat="42.61882" lon="-0.171">
        <ele>1234</ele>
        <time>2017-07-30T09:16:06Z</time>
      </trkpt>
      <trkpt lat="42.61882" lon="-0.17106">
        <ele>1234</ele>
        <time>2017-07-30T09:16:07Z</time>
      </trkpt>
      <trkpt lat="42.61883" lon="-0.17111">
        <ele>1234</ele>
        <time>2017-07-30T09:16:08Z</time>
      </trkpt>
      <trkpt lat="42.61884" lon="-0.17117">
        <ele>1234.1</ele>
        <time>2017-07-30T09:16:09Z</time>
      </trkpt>
      <trkpt lat="42.61885" lon="-0.17122">
        <ele>1234.1</ele>
        <time>2017-07-30T09:16:10Z</time>
      </trkpt>
      <trkpt lat="42.61887" lon="-0.17128">
        <ele>1234.1</ele>
        <time>2017-07-30T09:16:11Z</time>
      </trkpt>
      <trkpt lat="42.61888" lon="-0.17133">
        <ele>1234.1</ele>
        <time>2017-07-30T09:16:12Z</time>
      </trkpt>
      <trkpt lat="42.61889" lon="-0.17139">
        <ele>1234.1</ele>
        <time>2017-07-30T09:16:13Z</time>
      </trkpt>
      <trkpt lat="42.6189" lon="-0.17144">
        <ele>1234.1</ele>
        <time>2017-07-30T09:16:14Z</time>
      </trkpt>
      <trkpt lat="42.61891" lon="-0.1715">
        <ele>1234.2</ele>
        <time>2017-07-30T09:16:15Z</time>
      </trkpt>
      <trkpt lat="42.61892" lon="-0.17156">
        <ele>1234.2</ele>
        <time>2017-07-30T09:16:16Z</time>
      </trkpt>
      <trkpt lat="42.61894" lon="-0.17161">
        <ele>1234.2</ele>
        <time>2017-07-30T09:16:17Z</time>
      </trkpt>
      <trkpt lat="42.61895" lon="-0.17167">
        <ele>1234.2</ele>
        <time>2017-07-30T09:16:18Z</time>
      </trkpt>
      <trkpt lat="42.61896" lon="-0.17172">
        <ele>1234.2</ele>
        <time>2017-07-30T09:16:19Z</time>
      </trkpt>
      <trkpt lat="42.61897" lon="-0.17177">
        <ele>1234.2</ele>
        <time>2017-07-30T09:16:20Z</time>
      </trkpt>
      <trkpt lat="42.61898" lon="-0.17183">
        <ele>1234.2</ele>
        <time>2017-07-30T09:16:21Z</time>
      </trkpt>
      <trkpt lat="42.61899" lon="-0.17189">
        <ele>1234.3</ele>
        <time>2017-07-30T09:16:22Z</time>
      </trkpt>
      <trkpt lat="42.619" lon="-0.17194">
        <ele>1234.3</ele>
        <time>2017-07-30T09:16:23Z</time>
      </trkpt>
      <trkpt lat="42.61901" lon="-0.172">
        <ele>1234.3</ele>
        <time>2017-07-30T09:16:24Z</time>
      </trkpt>
      <trkpt lat="42.61902" lon="-0.17206">
        <ele>1234.4</ele>
        <time>2017-07-30T09:16:25Z</time>
      </trkpt>
      <trkpt lat="42.61903" lon="-0.17212">
        <ele>1234.4</ele>
        <time>2017-07-30T09:16:26Z</time>
      </trkpt>
      <trkpt lat="42.61904" lon="-0.17217">
        <ele>1234.4</ele>
        <time>2017-07-30T09:16:27Z</time>
      </trkpt>
      <trkpt lat="42.61905" lon="-0.17223">
        <ele>1234.5</ele>
        <time>2017-07-30T09:16:28Z</time>
      </trkpt>
      <trkpt lat="42.61907" lon="-0.17228">
        <ele>1234.5</ele>
        <time>2017-07-30T09:16:29Z</time>
      </trkpt>
      <trkpt lat="42.61908" lon="-0.17234">
        <ele>1234.5</ele>
        <time>2017-07-30T09:16:30Z</time>
      </trkpt>
      <trkpt lat="42.61909" lon="-0.17239">
        <ele>1234.6</ele>
        <time>2017-07-30T09:16:31Z</time>
      </trkpt>
      <trkpt lat="42.6191" lon="-0.17245">
        <ele>1234.6</ele>
        <time>2017-07-30T09:16:32Z</time>
      </trkpt>
      <trkpt lat="42.61911" lon="-0.1725">
        <ele>1234.6</ele>
        <time>2017-07-30T09:16:33Z</time>
      </trkpt>
      <trkpt lat="42.61912" lon="-0.17256">
        <ele>1234.7</ele>
        <time>2017-07-30T09:16:34Z</time>
      </trkpt>
      <trkpt lat="42.61913" lon="-0.17262">
        <ele>1234.8</ele>
        <time>2017-07-30T09:16:35Z</time>
      </trkpt>
      <trkpt lat="42.61914" lon="-0.17268">
        <ele>1234.9</ele>
        <time>2017-07-30T09:16:36Z</time>
      </trkpt>
      <trkpt lat="42.61916" lon="-0.17274">
        <ele>1235.1</ele>
        <time>2017-07-30T09:16:37Z</time>
      </trkpt>
      <trkpt lat="42.61916" lon="-0.1728">
        <ele>1235.2</ele>
        <time>2017-07-30T09:16:38Z</time>
      </trkpt>
      <trkpt lat="42.61917" lon="-0.17286">
        <ele>1235.4</ele>
        <time>2017-07-30T09:16:39Z</time>
      </trkpt>
      <trkpt lat="42.61917" lon="-0.17293">
        <ele>1235.5</ele>
        <time>2017-07-30T09:16:40Z</time>
      </trkpt>
      <trkpt lat="42.61918" lon="-0.17299">
        <ele>1235.6</ele>
        <time>2017-07-30T09:16:41Z</time>
      </trkpt>
      <trkpt lat="42.61919" lon="-0.17305">
        <ele>1235.6</ele>
        <time>2017-07-30T09:16:42Z</time>
      </trkpt>
      <trkpt lat="42.61919" lon="-0.17312">
        <ele>1235.7</ele>
        <time>2017-07-30T09:16:43Z</time>
      </trkpt>
      <trkpt lat="42.6192" lon="-0.17318">
        <ele>1235.7</ele>
        <time>2017-07-30T09:16:44Z</time>
      </trkpt>
      <trkpt lat="42.6192" lon="-0.17325">
        <ele>1235.8</ele>
        <time>2017-07-30T09:16:45Z</time>
      </trkpt>
      <trkpt lat="42.61921" lon="-0.17331">
        <ele>1235.8</ele>
        <time>2017-07-30T09:16:46Z</time>
      </trkpt>
      <trkpt lat="42.61921" lon="-0.17339">
        <ele>1235.8</ele>
        <time>2017-07-30T09:16:47Z</time>
      </trkpt>
      <trkpt lat="42.61921" lon="-0.17346">
        <ele>1235.8</ele>
        <time>2017-07-30T09:16:48Z</time>
      </trkpt>
      <trkpt lat="42.61922" lon="-0.17353">
        <ele>1235.8</ele>
        <time>2017-07-30T09:16:49Z</time>
      </trkpt>
      <trkpt lat="42.61923" lon="-0.1736">
        <ele>1235.8</ele>
        <time>2017-07-30T09:16:50Z</time>
      </trkpt>
      <trkpt lat="42.61923" lon="-0.17367">
        <ele>1235.9</ele>
        <time>2017-07-30T09:16:51Z</time>
      </trkpt>
      <trkpt lat="42.61923" lon="-0.17374">
        <ele>1235.9</ele>
        <time>2017-07-30T09:16:52Z</time>
      </trkpt>
      <trkpt lat="42.61924" lon="-0.17381">
        <ele>1235.9</ele>
        <time>2017-07-30T09:16:53Z</time>
      </trkpt>
      <trkpt lat="42.61924" lon="-0.17388">
        <ele>1235.9</ele>
        <time>2017-07-30T09:16:54Z</time>
      </trkpt>
      <trkpt lat="42.61925" lon="-0.17395">
        <ele>1235.9</ele>
        <time>2017-07-30T09:16:55Z</time>
      </trkpt>
      <trkpt lat="42.61925" lon="-0.17401">
        <ele>1235.9</ele>
        <time>2017-07-30T09:16:56Z</time>
      </trkpt>
      <trkpt lat="42.61926" lon="-0.17408">
        <ele>1235.9</ele>
        <time>2017-07-30T09:16:57Z</time>
      </trkpt>
      <trkpt lat="42.61926" lon="-0.17415">
        <ele>1235.9</ele>
        <time>2017-07-30T09:16:58Z</time>
      </trkpt>
      <trkpt lat="42.61926" lon="-0.17422">
        <ele>1235.9</ele>
        <time>2017-07-30T09:16:59Z</time>
      </trkpt>
      <trkpt lat="42.61927" lon="-0.17428">
        <ele>1236</ele>
        <time>2017-07-30T09:17:00Z</time>
      </trkpt>
      <trkpt lat="42.61927" lon="-0.17435">
        <ele>1236</ele>
        <time>2017-07-30T09:17:01Z</time>
      </trkpt>
      <trkpt lat="42.61927" lon="-0.17441">
        <ele>1236</ele>
        <time>2017-07-30T09:17:02Z</time>
      </trkpt>
      <trkpt lat="42.61928" lon="-0.17448">
        <ele>1236</ele>
        <time>2017-07-30T09:17:03Z</time>
      </trkpt>
      <trkpt lat="42.61928" lon="-0.17455">
        <ele>1236</ele>
        <time>2017-07-30T09:17:04Z</time>
      </trkpt>
      <trkpt lat="42.61929" lon="-0.17463">
        <ele>1236</ele>
        <time>2017-07-30T09:17:05Z</time>
      </trkpt>
      <trkpt lat="42.61929" lon="-0.1747">
        <ele>1236</ele>
        <time>2017-07-30T09:17:06Z</time>
      </trkpt>
      <trkpt lat="42.61929" lon="-0.17477">
        <ele>1236</ele>
        <time>2017-07-30T09:17:07Z</time>
      </trkpt>
      <trkpt lat="42.61929" lon="-0.17484">
        <ele>1236</ele>
        <time>2017-07-30T09:17:08Z</time>
      </trkpt>
      <trkpt lat="42.6193" lon="-0.17491">
        <ele>1236</ele>
        <time>2017-07-30T09:17:09Z</time>
      </trkpt>
      <trkpt lat="42.61929" lon="-0.17498">
        <ele>1236.1</ele>
        <time>2017-07-30T09:17:10Z</time>
      </trkpt>
      <trkpt lat="42.6193" lon="-0.17505">
        <ele>1236.1</ele>
        <time>2017-07-30T09:17:11Z</time>
      </trkpt>
      <trkpt lat="42.6193" lon="-0.17512">
        <ele>1236.2</ele>
        <time>2017-07-30T09:17:12Z</time>
      </trkpt>
      <trkpt lat="42.61932" lon="-0.17519">
        <ele>1236.2</ele>
        <time>2017-07-30T09:17:13Z</time>
      </trkpt>
      <trkpt lat="42.61932" lon="-0.17526">
        <ele>1236.3</ele>
        <time>2017-07-30T09:17:14Z</time>
      </trkpt>
      <trkpt lat="42.61933" lon="-0.17533">
        <ele>1236.3</ele>
        <time>2017-07-30T09:17:15Z</time>
      </trkpt>
      <trkpt lat="42.61933" lon="-0.1754">
        <ele>1236.4</ele>
        <time>2017-07-30T09:17:16Z</time>
      </trkpt>
      <trkpt lat="42.61934" lon="-0.17547">
        <ele>1236.5</ele>
        <time>2017-07-30T09:17:17Z</time>
      </trkpt>
      <trkpt lat="42.61935" lon="-0.17554">
        <ele>1236.5</ele>
        <time>2017-07-30T09:17:18Z</time>
      </trkpt>
      <trkpt lat="42.61937" lon="-0.17561">
        <ele>1236.6</ele>
        <time>2017-07-30T09:17:19Z</time>
      </trkpt>
      <trkpt lat="42.61938" lon="-0.17568">
        <ele>1236.8</ele>
        <time>2017-07-30T09:17:20Z</time>
      </trkpt>
      <trkpt lat="42.61939" lon="-0.17576">
        <ele>1237</ele>
        <time>2017-07-30T09:17:21Z</time>
      </trkpt>
      <trkpt lat="42.6194" lon="-0.17582">
        <ele>1237.2</ele>
        <time>2017-07-30T09:17:22Z</time>
      </trkpt>
      <trkpt lat="42.61942" lon="-0.1759">
        <ele>1237.4</ele>
        <time>2017-07-30T09:17:23Z</time>
      </trkpt>
      <trkpt lat="42.61943" lon="-0.17596">
        <ele>1237.5</ele>
        <time>2017-07-30T09:17:24Z</time>
      </trkpt>
      <trkpt lat="42.61944" lon="-0.17603">
        <ele>1237.6</ele>
        <time>2017-07-30T09:17:25Z</time>
      </trkpt>
      <trkpt lat="42.61946" lon="-0.1761">
        <ele>1237.7</ele>
        <time>2017-07-30T09:17:26Z</time>
      </trkpt>
      <trkpt lat="42.61947" lon="-0.17617">
        <ele>1237.7</ele>
        <time>2017-07-30T09:17:27Z</time>
      </trkpt>
      <trkpt lat="42.61948" lon="-0.17624">
        <ele>1237.8</ele>
        <time>2017-07-30T09:17:28Z</time>
      </trkpt>
      <trkpt lat="42.6195" lon="-0.17631">
        <ele>1237.8</ele>
        <time>2017-07-30T09:17:29Z</time>
      </trkpt>
      <trkpt lat="42.61951" lon="-0.17638">
        <ele>1237.9</ele>
        <time>2017-07-30T09:17:30Z</time>
      </trkpt>
      <trkpt lat="42.61952" lon="-0.17645">
        <ele>1237.9</ele>
        <time>2017-07-30T09:17:31Z</time>
      </trkpt>
      <trkpt lat="42.61954" lon="-0.17652">
        <ele>1237.9</ele>
        <time>2017-07-30T09:17:32Z</time>
      </trkpt>
      <trkpt lat="42.61956" lon="-0.17659">
        <ele>1238</ele>
        <time>2017-07-30T09:17:33Z</time>
      </trkpt>
      <trkpt lat="42.61958" lon="-0.17666">
        <ele>1238</ele>
        <time>2017-07-30T09:17:34Z</time>
      </trkpt>
      <trkpt lat="42.61959" lon="-0.17673">
        <ele>1238.1</ele>
        <time>2017-07-30T09:17:35Z</time>
      </trkpt>
      <trkpt lat="42.6196" lon="-0.1768">
        <ele>1238.1</ele>
        <time>2017-07-30T09:17:36Z</time>
      </trkpt>
      <trkpt lat="42.61963" lon="-0.17687">
        <ele>1238.1</ele>
        <time>2017-07-30T09:17:37Z</time>
      </trkpt>
      <trkpt lat="42.61965" lon="-0.17694">
        <ele>1238.2</ele>
        <time>2017-07-30T09:17:38Z</time>
      </trkpt>
      <trkpt lat="42.61968" lon="-0.177">
        <ele>1238.2</ele>
        <time>2017-07-30T09:17:39Z</time>
      </trkpt>
      <trkpt lat="42.6197" lon="-0.17707">
        <ele>1238.3</ele>
        <time>2017-07-30T09:17:40Z</time>
      </trkpt>
      <trkpt lat="42.61973" lon="-0.17714">
        <ele>1238.3</ele>
        <time>2017-07-30T09:17:41Z</time>
      </trkpt>
      <trkpt lat="42.61975" lon="-0.1772">
        <ele>1238.3</ele>
        <time>2017-07-30T09:17:42Z</time>
      </trkpt>
      <trkpt lat="42.61978" lon="-0.17726">
        <ele>1238.4</ele>
        <time>2017-07-30T09:17:43Z</time>
      </trkpt>
      <trkpt lat="42.6198" lon="-0.17732">
        <ele>1238.5</ele>
        <time>2017-07-30T09:17:44Z</time>
      </trkpt>
      <trkpt lat="42.61984" lon="-0.17739">
        <ele>1238.6</ele>
        <time>2017-07-30T09:17:45Z</time>
      </trkpt>
      <trkpt lat="42.61987" lon="-0.17745">
        <ele>1238.6</ele>
        <time>2017-07-30T09:17:46Z</time>
      </trkpt>
      <trkpt lat="42.6199" lon="-0.17751">
        <ele>1238.7</ele>
        <time>2017-07-30T09:17:47Z</time>
      </trkpt>
      <trkpt lat="42.61993" lon="-0.17757">
        <ele>1238.9</ele>
        <time>2017-07-30T09:17:48Z</time>
      </trkpt>
      <trkpt lat="42.61995" lon="-0.17764">
        <ele>1239</ele>
        <time>2017-07-30T09:17:49Z</time>
      </trkpt>
      <trkpt lat="42.61997" lon="-0.1777">
        <ele>1239.2</ele>
        <time>2017-07-30T09:17:50Z</time>
      </trkpt>
      <trkpt lat="42.61999" lon="-0.17776">
        <ele>1239.4</ele>
        <time>2017-07-30T09:17:51Z</time>
      </trkpt>
      <trkpt lat="42.62001" lon="-0.17783">
        <ele>1239.6</ele>
        <time>2017-07-30T09:17:52Z</time>
      </trkpt>
      <trkpt lat="42.62003" lon="-0.1779">
        <ele>1239.8</ele>
        <time>2017-07-30T09:17:53Z</time>
      </trkpt>
      <trkpt lat="42.62004" lon="-0.17796">
        <ele>1239.8</ele>
        <time>2017-07-30T09:17:54Z</time>
      </trkpt>
      <trkpt lat="42.62005" lon="-0.17803">
        <ele>1239.9</ele>
        <time>2017-07-30T09:17:55Z</time>
      </trkpt>
      <trkpt lat="42.62006" lon="-0.17809">
        <ele>1239.9</ele>
        <time>2017-07-30T09:17:56Z</time>
      </trkpt>
      <trkpt lat="42.62007" lon="-0.17816">
        <ele>1240</ele>
        <time>2017-07-30T09:17:57Z</time>
      </trkpt>
      <trkpt lat="42.62008" lon="-0.17821">
        <ele>1240</ele>
        <time>2017-07-30T09:17:58Z</time>
      </trkpt>
      <trkpt lat="42.6201" lon="-0.17827">
        <ele>1240.1</ele>
        <time>2017-07-30T09:17:59Z</time>
      </trkpt>
      <trkpt lat="42.6201" lon="-0.17834">
        <ele>1240.2</ele>
        <time>2017-07-30T09:18:00Z</time>
      </trkpt>
      <trkpt lat="42.62011" lon="-0.1784">
        <ele>1240.2</ele>
        <time>2017-07-30T09:18:01Z</time>
      </trkpt>
      <trkpt lat="42.62012" lon="-0.17847">
        <ele>1240.3</ele>
        <time>2017-07-30T09:18:02Z</time>
      </trkpt>
      <trkpt lat="42.62012" lon="-0.17854">
        <ele>1240.4</ele>
        <time>2017-07-30T09:18:03Z</time>
      </trkpt>
      <trkpt lat="42.62013" lon="-0.1786">
        <ele>1240.4</ele>
        <time>2017-07-30T09:18:04Z</time>
      </trkpt>
      <trkpt lat="42.62014" lon="-0.17867">
        <ele>1240.5</ele>
        <time>2017-07-30T09:18:05Z</time>
      </trkpt>
      <trkpt lat="42.62014" lon="-0.17873">
        <ele>1240.6</ele>
        <time>2017-07-30T09:18:06Z</time>
      </trkpt>
      <trkpt lat="42.62015" lon="-0.17879">
        <ele>1240.7</ele>
        <time>2017-07-30T09:18:07Z</time>
      </trkpt>
      <trkpt lat="42.62016" lon="-0.17886">
        <ele>1240.9</ele>
        <time>2017-07-30T09:18:08Z</time>
      </trkpt>
      <trkpt lat="42.62017" lon="-0.17892">
        <ele>1241.1</ele>
        <time>2017-07-30T09:18:09Z</time>
      </trkpt>
      <trkpt lat="42.62018" lon="-0.17898">
        <ele>1241.3</ele>
        <time>2017-07-30T09:18:10Z</time>
      </trkpt>
      <trkpt lat="42.6202" lon="-0.17904">
        <ele>1241.5</ele>
        <time>2017-07-30T09:18:11Z</time>
      </trkpt>
      <trkpt lat="42.62022" lon="-0.1791">
        <ele>1241.7</ele>
        <time>2017-07-30T09:18:12Z</time>
      </trkpt>
      <trkpt lat="42.62023" lon="-0.17916">
        <ele>1241.9</ele>
        <time>2017-07-30T09:18:13Z</time>
      </trkpt>
      <trkpt lat="42.62025" lon="-0.17922">
        <ele>1242.1</ele>
        <time>2017-07-30T09:18:14Z</time>
      </trkpt>
      <trkpt lat="42.62026" lon="-0.17929">
        <ele>1242.2</ele>
        <time>2017-07-30T09:18:15Z</time>
      </trkpt>
      <trkpt lat="42.62027" lon="-0.17935">
        <ele>1242.3</ele>
        <time>2017-07-30T09:18:16Z</time>
      </trkpt>
      <trkpt lat="42.62028" lon="-0.17941">
        <ele>1242.4</ele>
        <time>2017-07-30T09:18:17Z</time>
      </trkpt>
      <trkpt lat="42.62029" lon="-0.17947">
        <ele>1242.5</ele>
        <time>2017-07-30T09:18:18Z</time>
      </trkpt>
      <trkpt lat="42.6203" lon="-0.17953">
        <ele>1242.6</ele>
        <time>2017-07-30T09:18:19Z</time>
      </trkpt>
      <trkpt lat="42.6203" lon="-0.1796">
        <ele>1242.7</ele>
        <time>2017-07-30T09:18:20Z</time>
      </trkpt>
      <trkpt lat="42.6203" lon="-0.17966">
        <ele>1242.7</ele>
        <time>2017-07-30T09:18:21Z</time>
      </trkpt>
      <trkpt lat="42.6203" lon="-0.17972">
        <ele>1242.9</ele>
        <time>2017-07-30T09:18:22Z</time>
      </trkpt>
      <trkpt lat="42.62031" lon="-0.17978">
        <ele>1243.1</ele>
        <time>2017-07-30T09:18:23Z</time>
      </trkpt>
      <trkpt lat="42.62031" lon="-0.17985">
        <ele>1243.3</ele>
        <time>2017-07-30T09:18:24Z</time>
      </trkpt>
      <trkpt lat="42.62031" lon="-0.17991">
        <ele>1243.5</ele>
        <time>2017-07-30T09:18:25Z</time>
      </trkpt>
      <trkpt lat="42.62031" lon="-0.17998">
        <ele>1243.7</ele>
        <time>2017-07-30T09:18:26Z</time>
      </trkpt>
      <trkpt lat="42.62031" lon="-0.18003">
        <ele>1243.8</ele>
        <time>2017-07-30T09:18:27Z</time>
      </trkpt>
      <trkpt lat="42.62031" lon="-0.1801">
        <ele>1244</ele>
        <time>2017-07-30T09:18:28Z</time>
      </trkpt>
      <trkpt lat="42.62032" lon="-0.18016">
        <ele>1244.1</ele>
        <time>2017-07-30T09:18:29Z</time>
      </trkpt>
      <trkpt lat="42.62033" lon="-0.18022">
        <ele>1244.2</ele>
        <time>2017-07-30T09:18:30Z</time>
      </trkpt>
      <trkpt lat="42.62033" lon="-0.18028">
        <ele>1244.3</ele>
        <time>2017-07-30T09:18:31Z</time>
      </trkpt>
      <trkpt lat="42.62033" lon="-0.18034">
        <ele>1244.4</ele>
        <time>2017-07-30T09:18:32Z</time>
      </trkpt>
      <trkpt lat="42.62034" lon="-0.1804">
        <ele>1244.5</ele>
        <time>2017-07-30T09:18:33Z</time>
      </trkpt>
      <trkpt lat="42.62035" lon="-0.18047">
        <ele>1244.6</ele>
        <time>2017-07-30T09:18:34Z</time>
      </trkpt>
      <trkpt lat="42.62035" lon="-0.18053">
        <ele>1244.6</ele>
        <time>2017-07-30T09:18:35Z</time>
      </trkpt>
      <trkpt lat="42.62036" lon="-0.18059">
        <ele>1244.7</ele>
        <time>2017-07-30T09:18:36Z</time>
      </trkpt>
      <trkpt lat="42.62037" lon="-0.18065">
        <ele>1244.8</ele>
        <time>2017-07-30T09:18:37Z</time>
      </trkpt>
      <trkpt lat="42.62038" lon="-0.18071">
        <ele>1244.9</ele>
        <time>2017-07-30T09:18:38Z</time>
      </trkpt>
      <trkpt lat="42.6204" lon="-0.18077">
        <ele>1245</ele>
        <time>2017-07-30T09:18:39Z</time>
      </trkpt>
      <trkpt lat="42.6204" lon="-0.18083">
        <ele>1245.1</ele>
        <time>2017-07-30T09:18:40Z</time>
      </trkpt>
      <trkpt lat="42.62041" lon="-0.18089">
        <ele>1245.3</ele>
        <time>2017-07-30T09:18:41Z</time>
      </trkpt>
      <trkpt lat="42.62042" lon="-0.18096">
        <ele>1245.5</ele>
        <time>2017-07-30T09:18:42Z</time>
      </trkpt>
      <trkpt lat="42.62044" lon="-0.18101">
        <ele>1245.7</ele>
        <time>2017-07-30T09:18:43Z</time>
      </trkpt>
      <trkpt lat="42.62045" lon="-0.18107">
        <ele>1245.9</ele>
        <time>2017-07-30T09:18:44Z</time>
      </trkpt>
      <trkpt lat="42.62047" lon="-0.18113">
        <ele>1246.1</ele>
        <time>2017-07-30T09:18:45Z</time>
      </trkpt>
      <trkpt lat="42.62048" lon="-0.18119">
        <ele>1246.3</ele>
        <time>2017-07-30T09:18:46Z</time>
      </trkpt>
      <trkpt lat="42.62049" lon="-0.18125">
        <ele>1246.4</ele>
        <time>2017-07-30T09:18:47Z</time>
      </trkpt>
      <trkpt lat="42.62049" lon="-0.18131">
        <ele>1246.5</ele>
        <time>2017-07-30T09:18:48Z</time>
      </trkpt>
      <trkpt lat="42.6205" lon="-0.18137">
        <ele>1246.6</ele>
        <time>2017-07-30T09:18:49Z</time>
      </trkpt>
      <trkpt lat="42.6205" lon="-0.18143">
        <ele>1246.7</ele>
        <time>2017-07-30T09:18:50Z</time>
      </trkpt>
      <trkpt lat="42.6205" lon="-0.18149">
        <ele>1246.8</ele>
        <time>2017-07-30T09:18:51Z</time>
      </trkpt>
      <trkpt lat="42.62051" lon="-0.18155">
        <ele>1246.8</ele>
        <time>2017-07-30T09:18:52Z</time>
      </trkpt>
      <trkpt lat="42.6205" lon="-0.18161">
        <ele>1246.9</ele>
        <time>2017-07-30T09:18:53Z</time>
      </trkpt>
      <trkpt lat="42.62051" lon="-0.18168">
        <ele>1247.1</ele>
        <time>2017-07-30T09:18:54Z</time>
      </trkpt>
      <trkpt lat="42.62051" lon="-0.18174">
        <ele>1247.4</ele>
        <time>2017-07-30T09:18:55Z</time>
      </trkpt>
      <trkpt lat="42.6205" lon="-0.1818">
        <ele>1247.6</ele>
        <time>2017-07-30T09:18:56Z</time>
      </trkpt>
      <trkpt lat="42.62051" lon="-0.18186">
        <ele>1247.7</ele>
        <time>2017-07-30T09:18:57Z</time>
      </trkpt>
      <trkpt lat="42.62051" lon="-0.18192">
        <ele>1247.9</ele>
        <time>2017-07-30T09:18:58Z</time>
      </trkpt>
      <trkpt lat="42.6205" lon="-0.18199">
        <ele>1248.1</ele>
        <time>2017-07-30T09:18:59Z</time>
      </trkpt>
      <trkpt lat="42.6205" lon="-0.18205">
        <ele>1248.3</ele>
        <time>2017-07-30T09:19:00Z</time>
      </trkpt>
      <trkpt lat="42.6205" lon="-0.18211">
        <ele>1248.4</ele>
        <time>2017-07-30T09:19:01Z</time>
      </trkpt>
      <trkpt lat="42.62049" lon="-0.18217">
        <ele>1248.5</ele>
        <time>2017-07-30T09:19:02Z</time>
      </trkpt>
      <trkpt lat="42.62049" lon="-0.18223">
        <ele>1248.6</ele>
        <time>2017-07-30T09:19:03Z</time>
      </trkpt>
      <trkpt lat="42.62048" lon="-0.1823">
        <ele>1248.7</ele>
        <time>2017-07-30T09:19:04Z</time>
      </trkpt>
      <trkpt lat="42.62048" lon="-0.18236">
        <ele>1248.7</ele>
        <time>2017-07-30T09:19:05Z</time>
      </trkpt>
      <trkpt lat="42.62048" lon="-0.18242">
        <ele>1248.8</ele>
        <time>2017-07-30T09:19:06Z</time>
      </trkpt>
      <trkpt lat="42.62047" lon="-0.18248">
        <ele>1248.8</ele>
        <time>2017-07-30T09:19:07Z</time>
      </trkpt>
      <trkpt lat="42.62047" lon="-0.18255">
        <ele>1248.9</ele>
        <time>2017-07-30T09:19:08Z</time>
      </trkpt>
      <trkpt lat="42.62047" lon="-0.1826">
        <ele>1249</ele>
        <time>2017-07-30T09:19:09Z</time>
      </trkpt>
      <trkpt lat="42.62047" lon="-0.18266">
        <ele>1249</ele>
        <time>2017-07-30T09:19:10Z</time>
      </trkpt>
      <trkpt lat="42.62046" lon="-0.18272">
        <ele>1249.1</ele>
        <time>2017-07-30T09:19:11Z</time>
      </trkpt>
      <trkpt lat="42.62046" lon="-0.18278">
        <ele>1249.2</ele>
        <time>2017-07-30T09:19:12Z</time>
      </trkpt>
      <trkpt lat="42.62046" lon="-0.18284">
        <ele>1249.3</ele>
        <time>2017-07-30T09:19:13Z</time>
      </trkpt>
      <trkpt lat="42.62046" lon="-0.1829">
        <ele>1249.5</ele>
        <time>2017-07-30T09:19:14Z</time>
      </trkpt>
      <trkpt lat="42.62047" lon="-0.18296">
        <ele>1249.6</ele>
        <time>2017-07-30T09:19:15Z</time>
      </trkpt>
      <trkpt lat="42.62047" lon="-0.18302">
        <ele>1249.8</ele>
        <time>2017-07-30T09:19:16Z</time>
      </trkpt>
      <trkpt lat="42.62048" lon="-0.18307">
        <ele>1250</ele>
        <time>2017-07-30T09:19:17Z</time>
      </trkpt>
      <trkpt lat="42.62049" lon="-0.18314">
        <ele>1250.1</ele>
        <time>2017-07-30T09:19:18Z</time>
      </trkpt>
      <trkpt lat="42.6205" lon="-0.1832">
        <ele>1250.3</ele>
        <time>2017-07-30T09:19:19Z</time>
      </trkpt>
      <trkpt lat="42.62052" lon="-0.18326">
        <ele>1250.5</ele>
        <time>2017-07-30T09:19:20Z</time>
      </trkpt>
      <trkpt lat="42.62053" lon="-0.18331">
        <ele>1250.6</ele>
        <time>2017-07-30T09:19:21Z</time>
      </trkpt>
      <trkpt lat="42.62055" lon="-0.18336">
        <ele>1250.7</ele>
        <time>2017-07-30T09:19:22Z</time>
      </trkpt>
      <trkpt lat="42.62057" lon="-0.18342">
        <ele>1250.9</ele>
        <time>2017-07-30T09:19:23Z</time>
      </trkpt>
      <trkpt lat="42.62059" lon="-0.18347">
        <ele>1251.1</ele>
        <time>2017-07-30T09:19:24Z</time>
      </trkpt>
      <trkpt lat="42.62062" lon="-0.18352">
        <ele>1251.3</ele>
        <time>2017-07-30T09:19:25Z</time>
      </trkpt>
      <trkpt lat="42.62064" lon="-0.18357">
        <ele>1251.5</ele>
        <time>2017-07-30T09:19:26Z</time>
      </trkpt>
      <trkpt lat="42.62066" lon="-0.18362">
        <ele>1251.7</ele>
        <time>2017-07-30T09:19:27Z</time>
      </trkpt>
      <trkpt lat="42.62068" lon="-0.18368">
        <ele>1251.9</ele>
        <time>2017-07-30T09:19:28Z</time>
      </trkpt>
      <trkpt lat="42.6207" lon="-0.18373">
        <ele>1252</ele>
        <time>2017-07-30T09:19:29Z</time>
      </trkpt>
      <trkpt lat="42.62073" lon="-0.18377">
        <ele>1252.2</ele>
        <time>2017-07-30T09:19:30Z</time>
      </trkpt>
      <trkpt lat="42.62074" lon="-0.18383">
        <ele>1252.4</ele>
        <time>2017-07-30T09:19:31Z</time>
      </trkpt>
      <trkpt lat="42.62076" lon="-0.18388">
        <ele>1252.5</ele>
        <time>2017-07-30T09:19:32Z</time>
      </trkpt>
      <trkpt lat="42.62078" lon="-0.18393">
        <ele>1252.6</ele>
        <time>2017-07-30T09:19:33Z</time>
      </trkpt>
      <trkpt lat="42.62079" lon="-0.18398">
        <ele>1252.7</ele>
        <time>2017-07-30T09:19:34Z</time>
      </trkpt>
      <trkpt lat="42.6208" lon="-0.18404">
        <ele>1252.8</ele>
        <time>2017-07-30T09:19:35Z</time>
      </trkpt>
      <trkpt lat="42.62081" lon="-0.18409">
        <ele>1252.9</ele>
        <time>2017-07-30T09:19:36Z</time>
      </trkpt>
      <trkpt lat="42.62082" lon="-0.18414">
        <ele>1253</ele>
        <time>2017-07-30T09:19:37Z</time>
      </trkpt>
      <trkpt lat="42.62082" lon="-0.1842">
        <ele>1253.2</ele>
        <time>2017-07-30T09:19:38Z</time>
      </trkpt>
      <trkpt lat="42.62082" lon="-0.18426">
        <ele>1253.4</ele>
        <time>2017-07-30T09:19:39Z</time>
      </trkpt>
      <trkpt lat="42.62082" lon="-0.18432">
        <ele>1253.6</ele>
        <time>2017-07-30T09:19:40Z</time>
      </trkpt>
      <trkpt lat="42.62083" lon="-0.18437">
        <ele>1253.8</ele>
        <time>2017-07-30T09:19:41Z</time>
      </trkpt>
      <trkpt lat="42.62083" lon="-0.18443">
        <ele>1254</ele>
        <time>2017-07-30T09:19:42Z</time>
      </trkpt>
      <trkpt lat="42.62083" lon="-0.18449">
        <ele>1254.2</ele>
        <time>2017-07-30T09:19:43Z</time>
      </trkpt>
      <trkpt lat="42.62083" lon="-0.18455">
        <ele>1254.4</ele>
        <time>2017-07-30T09:19:44Z</time>
      </trkpt>
      <trkpt lat="42.62082" lon="-0.1846">
        <ele>1254.6</ele>
        <time>2017-07-30T09:19:45Z</time>
      </trkpt>
      <trkpt lat="42.62082" lon="-0.18466">
        <ele>1254.7</ele>
        <time>2017-07-30T09:19:46Z</time>
      </trkpt>
      <trkpt lat="42.62082" lon="-0.18472">
        <ele>1254.8</ele>
        <time>2017-07-30T09:19:47Z</time>
      </trkpt>
      <trkpt lat="42.62082" lon="-0.18477">
        <ele>1255</ele>
        <time>2017-07-30T09:19:48Z</time>
      </trkpt>
      <trkpt lat="42.62081" lon="-0.18482">
        <ele>1255.1</ele>
        <time>2017-07-30T09:19:49Z</time>
      </trkpt>
      <trkpt lat="42.6208" lon="-0.18487">
        <ele>1255.2</ele>
        <time>2017-07-30T09:19:50Z</time>
      </trkpt>
      <trkpt lat="42.62079" lon="-0.18492">
        <ele>1255.3</ele>
        <time>2017-07-30T09:19:51Z</time>
      </trkpt>
      <trkpt lat="42.62078" lon="-0.18497">
        <ele>1255.5</ele>
        <time>2017-07-30T09:19:52Z</time>
      </trkpt>
      <trkpt lat="42.62077" lon="-0.18502">
        <ele>1255.7</ele>
        <time>2017-07-30T09:19:53Z</time>
      </trkpt>
      <trkpt lat="42.62076" lon="-0.18506">
        <ele>1255.9</ele>
        <time>2017-07-30T09:19:54Z</time>
      </trkpt>
      <trkpt lat="42.62074" lon="-0.18511">
        <ele>1256.1</ele>
        <time>2017-07-30T09:19:55Z</time>
      </trkpt>
      <trkpt lat="42.62073" lon="-0.18515">
        <ele>1256.3</ele>
        <time>2017-07-30T09:19:56Z</time>
      </trkpt>
      <trkpt lat="42.62071" lon="-0.1852">
        <ele>1256.5</ele>
        <time>2017-07-30T09:19:57Z</time>
      </trkpt>
      <trkpt lat="42.62069" lon="-0.18524">
        <ele>1256.7</ele>
        <time>2017-07-30T09:19:58Z</time>
      </trkpt>
      <trkpt lat="42.62068" lon="-0.18529">
        <ele>1256.8</ele>
        <time>2017-07-30T09:19:59Z</time>
      </trkpt>
      <trkpt lat="42.62066" lon="-0.18533">
        <ele>1256.9</ele>
        <time>2017-07-30T09:20:00Z</time>
      </trkpt>
      <trkpt lat="42.62064" lon="-0.18538">
        <ele>1257</ele>
        <time>2017-07-30T09:20:01Z</time>
      </trkpt>
      <trkpt lat="42.62062" lon="-0.18542">
        <ele>1257.2</ele>
        <time>2017-07-30T09:20:02Z</time>
      </trkpt>
      <trkpt lat="42.6206" lon="-0.18546">
        <ele>1257.4</ele>
        <time>2017-07-30T09:20:03Z</time>
      </trkpt>
      <trkpt lat="42.62059" lon="-0.18551">
        <ele>1257.7</ele>
        <time>2017-07-30T09:20:04Z</time>
      </trkpt>
      <trkpt lat="42.62057" lon="-0.18555">
        <ele>1257.9</ele>
        <time>2017-07-30T09:20:05Z</time>
      </trkpt>
      <trkpt lat="42.62055" lon="-0.1856">
        <ele>1258.2</ele>
        <time>2017-07-30T09:20:06Z</time>
      </trkpt>
      <trkpt lat="42.62054" lon="-0.18564">
        <ele>1258.4</ele>
        <time>2017-07-30T09:20:07Z</time>
      </trkpt>
      <trkpt lat="42.62052" lon="-0.18568">
        <ele>1258.7</ele>
        <time>2017-07-30T09:20:08Z</time>
      </trkpt>
      <trkpt lat="42.6205" lon="-0.18573">
        <ele>1258.9</ele>
        <time>2017-07-30T09:20:09Z</time>
      </trkpt>
      <trkpt lat="42.62049" lon="-0.18577">
        <ele>1259</ele>
        <time>2017-07-30T09:20:10Z</time>
      </trkpt>
      <trkpt lat="42.62047" lon="-0.18581">
        <ele>1259.2</ele>
        <time>2017-07-30T09:20:11Z</time>
      </trkpt>
      <trkpt lat="42.62046" lon="-0.18585">
        <ele>1259.4</ele>
        <time>2017-07-30T09:20:12Z</time>
      </trkpt>
      <trkpt lat="42.62044" lon="-0.18589">
        <ele>1259.6</ele>
        <time>2017-07-30T09:20:13Z</time>
      </trkpt>
      <trkpt lat="42.62043" lon="-0.18592">
        <ele>1259.8</ele>
        <time>2017-07-30T09:20:14Z</time>
      </trkpt>
      <trkpt lat="42.62041" lon="-0.18596">
        <ele>1260.1</ele>
        <time>2017-07-30T09:20:15Z</time>
      </trkpt>
      <trkpt lat="42.6204" lon="-0.186">
        <ele>1260.3</ele>
        <time>2017-07-30T09:20:16Z</time>
      </trkpt>
      <trkpt lat="42.62039" lon="-0.18604">
        <ele>1260.5</ele>
        <time>2017-07-30T09:20:17Z</time>
      </trkpt>
      <trkpt lat="42.62037" lon="-0.18608">
        <ele>1260.7</ele>
        <time>2017-07-30T09:20:18Z</time>
      </trkpt>
      <trkpt lat="42.62036" lon="-0.18612">
        <ele>1261</ele>
        <time>2017-07-30T09:20:19Z</time>
      </trkpt>
      <trkpt lat="42.62034" lon="-0.18616">
        <ele>1261.1</ele>
        <time>2017-07-30T09:20:20Z</time>
      </trkpt>
      <trkpt lat="42.62032" lon="-0.18619">
        <ele>1261.3</ele>
        <time>2017-07-30T09:20:21Z</time>
      </trkpt>
      <trkpt lat="42.62031" lon="-0.18623">
        <ele>1261.5</ele>
        <time>2017-07-30T09:20:22Z</time>
      </trkpt>
      <trkpt lat="42.62029" lon="-0.18627">
        <ele>1261.7</ele>
        <time>2017-07-30T09:20:23Z</time>
      </trkpt>
      <trkpt lat="42.62028" lon="-0.1863">
        <ele>1262</ele>
        <time>2017-07-30T09:20:24Z</time>
      </trkpt>
      <trkpt lat="42.62026" lon="-0.18634">
        <ele>1262.2</ele>
        <time>2017-07-30T09:20:25Z</time>
      </trkpt>
      <trkpt lat="42.62025" lon="-0.18638">
        <ele>1262.5</ele>
        <time>2017-07-30T09:20:26Z</time>
      </trkpt>
      <trkpt lat="42.62023" lon="-0.18642">
        <ele>1262.7</ele>
        <time>2017-07-30T09:20:27Z</time>
      </trkpt>
      <trkpt lat="42.62022" lon="-0.18646">
        <ele>1263</ele>
        <time>2017-07-30T09:20:28Z</time>
      </trkpt>
      <trkpt lat="42.62021" lon="-0.18649">
        <ele>1263.2</ele>
        <time>2017-07-30T09:20:29Z</time>
      </trkpt>
      <trkpt lat="42.6202" lon="-0.18653">
        <ele>1263.4</ele>
        <time>2017-07-30T09:20:30Z</time>
      </trkpt>
      <trkpt lat="42.62018" lon="-0.18657">
        <ele>1263.6</ele>
        <time>2017-07-30T09:20:31Z</time>
      </trkpt>
      <trkpt lat="42.62017" lon="-0.18661">
        <ele>1263.8</ele>
        <time>2017-07-30T09:20:32Z</time>
      </trkpt>
      <trkpt lat="42.62016" lon="-0.18665">
        <ele>1264.1</ele>
        <time>2017-07-30T09:20:33Z</time>
      </trkpt>
      <trkpt lat="42.62016" lon="-0.18669">
        <ele>1264.3</ele>
        <time>2017-07-30T09:20:34Z</time>
      </trkpt>
      <trkpt lat="42.62015" lon="-0.18673">
        <ele>1264.6</ele>
        <time>2017-07-30T09:20:35Z</time>
      </trkpt>
      <trkpt lat="42.62014" lon="-0.18677">
        <ele>1264.9</ele>
        <time>2017-07-30T09:20:36Z</time>
      </trkpt>
      <trkpt lat="42.62014" lon="-0.1868">
        <ele>1265.2</ele>
        <time>2017-07-30T09:20:37Z</time>
      </trkpt>
      <trkpt lat="42.62013" lon="-0.18684">
        <ele>1265.5</ele>
        <time>2017-07-30T09:20:38Z</time>
      </trkpt>
      <trkpt lat="42.62012" lon="-0.18688">
        <ele>1265.6</ele>
        <time>2017-07-30T09:20:39Z</time>
      </trkpt>
      <trkpt lat="42.62012" lon="-0.18692">
        <ele>1265.8</ele>
        <time>2017-07-30T09:20:40Z</time>
      </trkpt>
      <trkpt lat="42.62012" lon="-0.18697">
        <ele>1266</ele>
        <time>2017-07-30T09:20:41Z</time>
      </trkpt>
      <trkpt lat="42.62012" lon="-0.18701">
        <ele>1266.2</ele>
        <time>2017-07-30T09:20:42Z</time>
      </trkpt>
      <trkpt lat="42.62012" lon="-0.18705">
        <ele>1266.5</ele>
        <time>2017-07-30T09:20:43Z</time>
      </trkpt>
      <trkpt lat="42.62012" lon="-0.18709">
        <ele>1266.8</ele>
        <time>2017-07-30T09:20:44Z</time>
      </trkpt>
      <trkpt lat="42.62013" lon="-0.18713">
        <ele>1267</ele>
        <time>2017-07-30T09:20:45Z</time>
      </trkpt>
      <trkpt lat="42.62014" lon="-0.18718">
        <ele>1267.3</ele>
        <time>2017-07-30T09:20:46Z</time>
      </trkpt>
      <trkpt lat="42.62014" lon="-0.18722">
        <ele>1267.6</ele>
        <time>2017-07-30T09:20:47Z</time>
      </trkpt>
      <trkpt lat="42.62015" lon="-0.18726">
        <ele>1267.8</ele>
        <time>2017-07-30T09:20:48Z</time>
      </trkpt>
      <trkpt lat="42.62017" lon="-0.1873">
        <ele>1268</ele>
        <time>2017-07-30T09:20:49Z</time>
      </trkpt>
      <trkpt lat="42.62018" lon="-0.18734">
        <ele>1268.1</ele>
        <time>2017-07-30T09:20:50Z</time>
      </trkpt>
      <trkpt lat="42.62019" lon="-0.18737">
        <ele>1268.3</ele>
        <time>2017-07-30T09:20:51Z</time>
      </trkpt>
      <trkpt lat="42.6202" lon="-0.18741">
        <ele>1268.4</ele>
        <time>2017-07-30T09:20:52Z</time>
      </trkpt>
      <trkpt lat="42.62021" lon="-0.18745">
        <ele>1268.6</ele>
        <time>2017-07-30T09:20:53Z</time>
      </trkpt>
      <trkpt lat="42.62022" lon="-0.18749">
        <ele>1268.8</ele>
        <time>2017-07-30T09:20:54Z</time>
      </trkpt>
      <trkpt lat="42.62023" lon="-0.18752">
        <ele>1269.1</ele>
        <time>2017-07-30T09:20:55Z</time>
      </trkpt>
      <trkpt lat="42.62024" lon="-0.18756">
        <ele>1269.3</ele>
        <time>2017-07-30T09:20:56Z</time>
      </trkpt>
      <trkpt lat="42.62025" lon="-0.1876">
        <ele>1269.6</ele>
        <time>2017-07-30T09:20:57Z</time>
      </trkpt>
      <trkpt lat="42.62026" lon="-0.18763">
        <ele>1269.8</ele>
        <time>2017-07-30T09:20:58Z</time>
      </trkpt>
      <trkpt lat="42.62027" lon="-0.1877">
        <ele>1270.1</ele>
        <time>2017-07-30T09:21:00Z</time>
      </trkpt>
      <trkpt lat="42.62028" lon="-0.18774">
        <ele>1270.2</ele>
        <time>2017-07-30T09:21:01Z</time>
      </trkpt>
      <trkpt lat="42.62029" lon="-0.18781">
        <ele>1270.4</ele>
        <time>2017-07-30T09:21:03Z</time>
      </trkpt>
      <trkpt lat="42.62029" lon="-0.18784">
        <ele>1270.5</ele>
        <time>2017-07-30T09:21:04Z</time>
      </trkpt>
      <trkpt lat="42.6203" lon="-0.18788">
        <ele>1270.7</ele>
        <time>2017-07-30T09:21:05Z</time>
      </trkpt>
      <trkpt lat="42.6203" lon="-0.18792">
        <ele>1270.9</ele>
        <time>2017-07-30T09:21:06Z</time>
      </trkpt>
      <trkpt lat="42.6203" lon="-0.18796">
        <ele>1271.1</ele>
        <time>2017-07-30T09:21:07Z</time>
      </trkpt>
      <trkpt lat="42.6203" lon="-0.188">
        <ele>1271.4</ele>
        <time>2017-07-30T09:21:08Z</time>
      </trkpt>
      <trkpt lat="42.62029" lon="-0.18805">
        <ele>1271.6</ele>
        <time>2017-07-30T09:21:09Z</time>
      </trkpt>
      <trkpt lat="42.62028" lon="-0.18809">
        <ele>1271.8</ele>
        <time>2017-07-30T09:21:10Z</time>
      </trkpt>
      <trkpt lat="42.62027" lon="-0.18813">
        <ele>1271.9</ele>
        <time>2017-07-30T09:21:11Z</time>
      </trkpt>
      <trkpt lat="42.62026" lon="-0.18817">
        <ele>1272</ele>
        <time>2017-07-30T09:21:12Z</time>
      </trkpt>
      <trkpt lat="42.62025" lon="-0.18821">
        <ele>1272.1</ele>
        <time>2017-07-30T09:21:13Z</time>
      </trkpt>
      <trkpt lat="42.62023" lon="-0.18824">
        <ele>1272.2</ele>
        <time>2017-07-30T09:21:14Z</time>
      </trkpt>
      <trkpt lat="42.62022" lon="-0.18827">
        <ele>1272.3</ele>
        <time>2017-07-30T09:21:15Z</time>
      </trkpt>
      <trkpt lat="42.6202" lon="-0.18831">
        <ele>1272.4</ele>
        <time>2017-07-30T09:21:16Z</time>
      </trkpt>
      <trkpt lat="42.62018" lon="-0.18834">
        <ele>1272.5</ele>
        <time>2017-07-30T09:21:17Z</time>
      </trkpt>
      <trkpt lat="42.62016" lon="-0.18837">
        <ele>1272.8</ele>
        <time>2017-07-30T09:21:18Z</time>
      </trkpt>
      <trkpt lat="42.62014" lon="-0.1884">
        <ele>1273</ele>
        <time>2017-07-30T09:21:19Z</time>
      </trkpt>
      <trkpt lat="42.62012" lon="-0.18843">
        <ele>1273.2</ele>
        <time>2017-07-30T09:21:20Z</time>
      </trkpt>
      <trkpt lat="42.6201" lon="-0.18846">
        <ele>1273.4</ele>
        <time>2017-07-30T09:21:21Z</time>
      </trkpt>
      <trkpt lat="42.62008" lon="-0.1885">
        <ele>1273.7</ele>
        <time>2017-07-30T09:21:22Z</time>
      </trkpt>
      <trkpt lat="42.62007" lon="-0.18853">
        <ele>1273.9</ele>
        <time>2017-07-30T09:21:23Z</time>
      </trkpt>
      <trkpt lat="42.62005" lon="-0.18856">
        <ele>1274.1</ele>
        <time>2017-07-30T09:21:24Z</time>
      </trkpt>
      <trkpt lat="42.62004" lon="-0.18859">
        <ele>1274.4</ele>
        <time>2017-07-30T09:21:25Z</time>
      </trkpt>
      <trkpt lat="42.62002" lon="-0.18863">
        <ele>1274.6</ele>
        <time>2017-07-30T09:21:26Z</time>
      </trkpt>
      <trkpt lat="42.62001" lon="-0.18866">
        <ele>1274.7</ele>
        <time>2017-07-30T09:21:27Z</time>
      </trkpt>
      <trkpt lat="42.62" lon="-0.1887">
        <ele>1274.9</ele>
        <time>2017-07-30T09:21:28Z</time>
      </trkpt>
      <trkpt lat="42.61999" lon="-0.18873">
        <ele>1275.1</ele>
        <time>2017-07-30T09:21:29Z</time>
      </trkpt>
      <trkpt lat="42.61999" lon="-0.18877">
        <ele>1275.3</ele>
        <time>2017-07-30T09:21:30Z</time>
      </trkpt>
      <trkpt lat="42.61998" lon="-0.18881">
        <ele>1275.5</ele>
        <time>2017-07-30T09:21:31Z</time>
      </trkpt>
      <trkpt lat="42.61997" lon="-0.18884">
        <ele>1275.8</ele>
        <time>2017-07-30T09:21:32Z</time>
      </trkpt>
      <trkpt lat="42.61997" lon="-0.18888">
        <ele>1276</ele>
        <time>2017-07-30T09:21:33Z</time>
      </trkpt>
      <trkpt lat="42.61996" lon="-0.18892">
        <ele>1276.2</ele>
        <time>2017-07-30T09:21:34Z</time>
      </trkpt>
      <trkpt lat="42.61996" lon="-0.18895">
        <ele>1276.4</ele>
        <time>2017-07-30T09:21:35Z</time>
      </trkpt>
      <trkpt lat="42.61995" lon="-0.18899">
        <ele>1276.6</ele>
        <time>2017-07-30T09:21:36Z</time>
      </trkpt>
      <trkpt lat="42.61995" lon="-0.18903">
        <ele>1276.8</ele>
        <time>2017-07-30T09:21:37Z</time>
      </trkpt>
      <trkpt lat="42.61994" lon="-0.18907">
        <ele>1276.9</ele>
        <time>2017-07-30T09:21:38Z</time>
      </trkpt>
      <trkpt lat="42.61994" lon="-0.1891">
        <ele>1277.1</ele>
        <time>2017-07-30T09:21:39Z</time>
      </trkpt>
      <trkpt lat="42.61993" lon="-0.18917">
        <ele>1277.5</ele>
        <time>2017-07-30T09:21:41Z</time>
      </trkpt>
      <trkpt lat="42.61992" lon="-0.18924">
        <ele>1277.9</ele>
        <time>2017-07-30T09:21:43Z</time>
      </trkpt>
      <trkpt lat="42.6199" lon="-0.18931">
        <ele>1278.3</ele>
        <time>2017-07-30T09:21:45Z</time>
      </trkpt>
      <trkpt lat="42.61989" lon="-0.18938">
        <ele>1278.7</ele>
        <time>2017-07-30T09:21:47Z</time>
      </trkpt>
      <trkpt lat="42.61988" lon="-0.18945">
        <ele>1279.1</ele>
        <time>2017-07-30T09:21:49Z</time>
      </trkpt>
      <trkpt lat="42.61988" lon="-0.18952">
        <ele>1279.6</ele>
        <time>2017-07-30T09:21:51Z</time>
      </trkpt>
      <trkpt lat="42.61988" lon="-0.18959">
        <ele>1280</ele>
        <time>2017-07-30T09:21:53Z</time>
      </trkpt>
      <trkpt lat="42.61987" lon="-0.18967">
        <ele>1280.5</ele>
        <time>2017-07-30T09:21:55Z</time>
      </trkpt>
      <trkpt lat="42.61988" lon="-0.18974">
        <ele>1280.8</ele>
        <time>2017-07-30T09:21:57Z</time>
      </trkpt>
      <trkpt lat="42.61988" lon="-0.18981">
        <ele>1281.1</ele>
        <time>2017-07-30T09:21:59Z</time>
      </trkpt>
      <trkpt lat="42.61989" lon="-0.18984">
        <ele>1281.2</ele>
        <time>2017-07-30T09:22:00Z</time>
      </trkpt>
      <trkpt lat="42.61989" lon="-0.18988">
        <ele>1281.4</ele>
        <time>2017-07-30T09:22:01Z</time>
      </trkpt>
      <trkpt lat="42.6199" lon="-0.18992">
        <ele>1281.6</ele>
        <time>2017-07-30T09:22:02Z</time>
      </trkpt>
      <trkpt lat="42.61991" lon="-0.18999">
        <ele>1282.1</ele>
        <time>2017-07-30T09:22:04Z</time>
      </trkpt>
      <trkpt lat="42.61992" lon="-0.19006">
        <ele>1282.5</ele>
        <time>2017-07-30T09:22:06Z</time>
      </trkpt>
      <trkpt lat="42.61993" lon="-0.19009">
        <ele>1282.7</ele>
        <time>2017-07-30T09:22:07Z</time>
      </trkpt>
      <trkpt lat="42.61994" lon="-0.19013">
        <ele>1282.9</ele>
        <time>2017-07-30T09:22:08Z</time>
      </trkpt>
      <trkpt lat="42.61994" lon="-0.19017">
        <ele>1283</ele>
        <time>2017-07-30T09:22:09Z</time>
      </trkpt>
      <trkpt lat="42.61995" lon="-0.1902">
        <ele>1283.2</ele>
        <time>2017-07-30T09:22:10Z</time>
      </trkpt>
      <trkpt lat="42.61996" lon="-0.19024">
        <ele>1283.4</ele>
        <time>2017-07-30T09:22:11Z</time>
      </trkpt>
      <trkpt lat="42.61998" lon="-0.1903">
        <ele>1283.8</ele>
        <time>2017-07-30T09:22:13Z</time>
      </trkpt>
      <trkpt lat="42.61999" lon="-0.19037">
        <ele>1284.3</ele>
        <time>2017-07-30T09:22:15Z</time>
      </trkpt>
      <trkpt lat="42.62001" lon="-0.19044">
        <ele>1284.7</ele>
        <time>2017-07-30T09:22:17Z</time>
      </trkpt>
      <trkpt lat="42.62002" lon="-0.19047">
        <ele>1284.9</ele>
        <time>2017-07-30T09:22:18Z</time>
      </trkpt>
      <trkpt lat="42.62003" lon="-0.19051">
        <ele>1285</ele>
        <time>2017-07-30T09:22:19Z</time>
      </trkpt>
      <trkpt lat="42.62004" lon="-0.19054">
        <ele>1285.1</ele>
        <time>2017-07-30T09:22:20Z</time>
      </trkpt>
      <trkpt lat="42.62005" lon="-0.19058">
        <ele>1285.3</ele>
        <time>2017-07-30T09:22:21Z</time>
      </trkpt>
      <trkpt lat="42.62006" lon="-0.19061">
        <ele>1285.4</ele>
        <time>2017-07-30T09:22:22Z</time>
      </trkpt>
      <trkpt lat="42.62007" lon="-0.19065">
        <ele>1285.7</ele>
        <time>2017-07-30T09:22:23Z</time>
      </trkpt>
      <trkpt lat="42.62008" lon="-0.19068">
        <ele>1285.9</ele>
        <time>2017-07-30T09:22:24Z</time>
      </trkpt>
      <trkpt lat="42.62009" lon="-0.19071">
        <ele>1286.2</ele>
        <time>2017-07-30T09:22:25Z</time>
      </trkpt>
      <trkpt lat="42.62011" lon="-0.19075">
        <ele>1286.4</ele>
        <time>2017-07-30T09:22:26Z</time>
      </trkpt>
      <trkpt lat="42.62013" lon="-0.19078">
        <ele>1286.7</ele>
        <time>2017-07-30T09:22:27Z</time>
      </trkpt>
      <trkpt lat="42.62015" lon="-0.19081">
        <ele>1286.9</ele>
        <time>2017-07-30T09:22:28Z</time>
      </trkpt>
      <trkpt lat="42.62017" lon="-0.19084">
        <ele>1287.1</ele>
        <time>2017-07-30T09:22:29Z</time>
      </trkpt>
      <trkpt lat="42.62019" lon="-0.19087">
        <ele>1287.3</ele>
        <time>2017-07-30T09:22:30Z</time>
      </trkpt>
      <trkpt lat="42.62022" lon="-0.1909">
        <ele>1287.4</ele>
        <time>2017-07-30T09:22:31Z</time>
      </trkpt>
      <trkpt lat="42.62024" lon="-0.19092">
        <ele>1287.6</ele>
        <time>2017-07-30T09:22:32Z</time>
      </trkpt>
      <trkpt lat="42.62027" lon="-0.19095">
        <ele>1287.9</ele>
        <time>2017-07-30T09:22:33Z</time>
      </trkpt>
      <trkpt lat="42.62029" lon="-0.19097">
        <ele>1288.2</ele>
        <time>2017-07-30T09:22:34Z</time>
      </trkpt>
      <trkpt lat="42.62031" lon="-0.191">
        <ele>1288.5</ele>
        <time>2017-07-30T09:22:35Z</time>
      </trkpt>
      <trkpt lat="42.62034" lon="-0.19102">
        <ele>1288.7</ele>
        <time>2017-07-30T09:22:36Z</time>
      </trkpt>
      <trkpt lat="42.62038" lon="-0.19105">
        <ele>1289</ele>
        <time>2017-07-30T09:22:38Z</time>
      </trkpt>
      <trkpt lat="42.62042" lon="-0.19109">
        <ele>1289.3</ele>
        <time>2017-07-30T09:22:40Z</time>
      </trkpt>
      <trkpt lat="42.62046" lon="-0.19113">
        <ele>1289.5</ele>
        <time>2017-07-30T09:22:42Z</time>
      </trkpt>
      <trkpt lat="42.62051" lon="-0.19117">
        <ele>1290</ele>
        <time>2017-07-30T09:22:44Z</time>
      </trkpt>
      <trkpt lat="42.62055" lon="-0.1912">
        <ele>1290.5</ele>
        <time>2017-07-30T09:22:46Z</time>
      </trkpt>
      <trkpt lat="42.6206" lon="-0.19123">
        <ele>1290.9</ele>
        <time>2017-07-30T09:22:48Z</time>
      </trkpt>
      <trkpt lat="42.62064" lon="-0.19126">
        <ele>1291.1</ele>
        <time>2017-07-30T09:22:50Z</time>
      </trkpt>
      <trkpt lat="42.62069" lon="-0.19129">
        <ele>1291.4</ele>
        <time>2017-07-30T09:22:52Z</time>
      </trkpt>
      <trkpt lat="42.62073" lon="-0.19133">
        <ele>1291.6</ele>
        <time>2017-07-30T09:22:54Z</time>
      </trkpt>
      <trkpt lat="42.62077" lon="-0.19136">
        <ele>1291.9</ele>
        <time>2017-07-30T09:22:56Z</time>
      </trkpt>
      <trkpt lat="42.62081" lon="-0.19139">
        <ele>1292.3</ele>
        <time>2017-07-30T09:22:58Z</time>
      </trkpt>
      <trkpt lat="42.62085" lon="-0.19143">
        <ele>1292.7</ele>
        <time>2017-07-30T09:23:00Z</time>
      </trkpt>
      <trkpt lat="42.62089" lon="-0.19146">
        <ele>1293.1</ele>
        <time>2017-07-30T09:23:02Z</time>
      </trkpt>
      <trkpt lat="42.62094" lon="-0.19149">
        <ele>1293.4</ele>
        <time>2017-07-30T09:23:04Z</time>
      </trkpt>
      <trkpt lat="42.62098" lon="-0.19152">
        <ele>1293.7</ele>
        <time>2017-07-30T09:23:06Z</time>
      </trkpt>
      <trkpt lat="42.62102" lon="-0.19156">
        <ele>1294.1</ele>
        <time>2017-07-30T09:23:08Z</time>
      </trkpt>
      <trkpt lat="42.62106" lon="-0.1916">
        <ele>1294.5</ele>
        <time>2017-07-30T09:23:10Z</time>
      </trkpt>
      <trkpt lat="42.62109" lon="-0.19165">
        <ele>1295</ele>
        <time>2017-07-30T09:23:12Z</time>
      </trkpt>
      <trkpt lat="42.62113" lon="-0.1917">
        <ele>1295.2</ele>
        <time>2017-07-30T09:23:14Z</time>
      </trkpt>
      <trkpt lat="42.62116" lon="-0.19175">
        <ele>1295.5</ele>
        <time>2017-07-30T09:23:16Z</time>
      </trkpt>
      <trkpt lat="42.6212" lon="-0.1918">
        <ele>1296</ele>
        <time>2017-07-30T09:23:18Z</time>
      </trkpt>
      <trkpt lat="42.62124" lon="-0.19185">
        <ele>1296.4</ele>
        <time>2017-07-30T09:23:20Z</time>
      </trkpt>
      <trkpt lat="42.62127" lon="-0.1919">
        <ele>1296.9</ele>
        <time>2017-07-30T09:23:22Z</time>
      </trkpt>
      <trkpt lat="42.62131" lon="-0.19195">
        <ele>1297.2</ele>
        <time>2017-07-30T09:23:24Z</time>
      </trkpt>
      <trkpt lat="42.62134" lon="-0.192">
        <ele>1297.4</ele>
        <time>2017-07-30T09:23:26Z</time>
      </trkpt>
      <trkpt lat="42.62138" lon="-0.19205">
        <ele>1297.7</ele>
        <time>2017-07-30T09:23:28Z</time>
      </trkpt>
      <trkpt lat="42.62142" lon="-0.1921">
        <ele>1298</ele>
        <time>2017-07-30T09:23:30Z</time>
      </trkpt>
      <trkpt lat="42.62145" lon="-0.19215">
        <ele>1298.4</ele>
        <time>2017-07-30T09:23:32Z</time>
      </trkpt>
      <trkpt lat="42.62149" lon="-0.19219">
        <ele>1298.9</ele>
        <time>2017-07-30T09:23:34Z</time>
      </trkpt>
      <trkpt lat="42.62153" lon="-0.19224">
        <ele>1299.3</ele>
        <time>2017-07-30T09:23:36Z</time>
      </trkpt>
      <trkpt lat="42.62157" lon="-0.19229">
        <ele>1299.6</ele>
        <time>2017-07-30T09:23:38Z</time>
      </trkpt>
      <trkpt lat="42.6216" lon="-0.19234">
        <ele>1299.8</ele>
        <time>2017-07-30T09:23:40Z</time>
      </trkpt>
      <trkpt lat="42.62164" lon="-0.19239">
        <ele>1300.2</ele>
        <time>2017-07-30T09:23:42Z</time>
      </trkpt>
      <trkpt lat="42.62168" lon="-0.19243">
        <ele>1300.6</ele>
        <time>2017-07-30T09:23:44Z</time>
      </trkpt>
      <trkpt lat="42.62171" lon="-0.19248">
        <ele>1301</ele>
        <time>2017-07-30T09:23:46Z</time>
      </trkpt>
      <trkpt lat="42.62175" lon="-0.19254">
        <ele>1301.4</ele>
        <time>2017-07-30T09:23:48Z</time>
      </trkpt>
      <trkpt lat="42.62178" lon="-0.19259">
        <ele>1301.6</ele>
        <time>2017-07-30T09:23:50Z</time>
      </trkpt>
      <trkpt lat="42.62181" lon="-0.19264">
        <ele>1301.9</ele>
        <time>2017-07-30T09:23:52Z</time>
      </trkpt>
      <trkpt lat="42.62185" lon="-0.19269">
        <ele>1302.2</ele>
        <time>2017-07-30T09:23:54Z</time>
      </trkpt>
      <trkpt lat="42.62189" lon="-0.19275">
        <ele>1302.7</ele>
        <time>2017-07-30T09:23:56Z</time>
      </trkpt>
      <trkpt lat="42.6219" lon="-0.19278">
        <ele>1302.9</ele>
        <time>2017-07-30T09:23:57Z</time>
      </trkpt>
      <trkpt lat="42.62192" lon="-0.1928">
        <ele>1303.2</ele>
        <time>2017-07-30T09:23:58Z</time>
      </trkpt>
      <trkpt lat="42.62194" lon="-0.19283">
        <ele>1303.4</ele>
        <time>2017-07-30T09:23:59Z</time>
      </trkpt>
      <trkpt lat="42.62197" lon="-0.19289">
        <ele>1303.6</ele>
        <time>2017-07-30T09:24:01Z</time>
      </trkpt>
      <trkpt lat="42.62198" lon="-0.19292">
        <ele>1303.7</ele>
        <time>2017-07-30T09:24:02Z</time>
      </trkpt>
      <trkpt lat="42.622" lon="-0.19296">
        <ele>1303.8</ele>
        <time>2017-07-30T09:24:03Z</time>
      </trkpt>
      <trkpt lat="42.62202" lon="-0.19299">
        <ele>1304</ele>
        <time>2017-07-30T09:24:04Z</time>
      </trkpt>
      <trkpt lat="42.62203" lon="-0.19302">
        <ele>1304.1</ele>
        <time>2017-07-30T09:24:05Z</time>
      </trkpt>
      <trkpt lat="42.62205" lon="-0.19305">
        <ele>1304.2</ele>
        <time>2017-07-30T09:24:06Z</time>
      </trkpt>
      <trkpt lat="42.62208" lon="-0.19311">
        <ele>1304.7</ele>
        <time>2017-07-30T09:24:08Z</time>
      </trkpt>
      <trkpt lat="42.62209" lon="-0.19314">
        <ele>1304.9</ele>
        <time>2017-07-30T09:24:09Z</time>
      </trkpt>
      <trkpt lat="42.62211" lon="-0.19317">
        <ele>1305.1</ele>
        <time>2017-07-30T09:24:10Z</time>
      </trkpt>
      <trkpt lat="42.62212" lon="-0.1932">
        <ele>1305.2</ele>
        <time>2017-07-30T09:24:11Z</time>
      </trkpt>
      <trkpt lat="42.62214" lon="-0.19323">
        <ele>1305.4</ele>
        <time>2017-07-30T09:24:12Z</time>
      </trkpt>
      <trkpt lat="42.62216" lon="-0.19327">
        <ele>1305.5</ele>
        <time>2017-07-30T09:24:13Z</time>
      </trkpt>
      <trkpt lat="42.62217" lon="-0.1933">
        <ele>1305.5</ele>
        <time>2017-07-30T09:24:14Z</time>
      </trkpt>
      <trkpt lat="42.62219" lon="-0.19333">
        <ele>1305.6</ele>
        <time>2017-07-30T09:24:15Z</time>
      </trkpt>
      <trkpt lat="42.6222" lon="-0.19336">
        <ele>1305.7</ele>
        <time>2017-07-30T09:24:16Z</time>
      </trkpt>
      <trkpt lat="42.62222" lon="-0.19339">
        <ele>1305.7</ele>
        <time>2017-07-30T09:24:17Z</time>
      </trkpt>
      <trkpt lat="42.62224" lon="-0.19342">
        <ele>1305.8</ele>
        <time>2017-07-30T09:24:18Z</time>
      </trkpt>
      <trkpt lat="42.62225" lon="-0.19345">
        <ele>1305.9</ele>
        <time>2017-07-30T09:24:19Z</time>
      </trkpt>
      <trkpt lat="42.62227" lon="-0.19349">
        <ele>1306</ele>
        <time>2017-07-30T09:24:20Z</time>
      </trkpt>
      <trkpt lat="42.62228" lon="-0.19352">
        <ele>1306</ele>
        <time>2017-07-30T09:24:21Z</time>
      </trkpt>
      <trkpt lat="42.6223" lon="-0.19355">
        <ele>1306.2</ele>
        <time>2017-07-30T09:24:22Z</time>
      </trkpt>
      <trkpt lat="42.62232" lon="-0.19359">
        <ele>1306.3</ele>
        <time>2017-07-30T09:24:23Z</time>
      </trkpt>
      <trkpt lat="42.62234" lon="-0.19362">
        <ele>1306.5</ele>
        <time>2017-07-30T09:24:24Z</time>
      </trkpt>
      <trkpt lat="42.62237" lon="-0.19365">
        <ele>1306.6</ele>
        <time>2017-07-30T09:24:25Z</time>
      </trkpt>
      <trkpt lat="42.62239" lon="-0.19367">
        <ele>1306.7</ele>
        <time>2017-07-30T09:24:26Z</time>
      </trkpt>
      <trkpt lat="42.62241" lon="-0.1937">
        <ele>1306.8</ele>
        <time>2017-07-30T09:24:27Z</time>
      </trkpt>
      <trkpt lat="42.62243" lon="-0.19373">
        <ele>1307.1</ele>
        <time>2017-07-30T09:24:28Z</time>
      </trkpt>
      <trkpt lat="42.62245" lon="-0.19376">
        <ele>1307.3</ele>
        <time>2017-07-30T09:24:29Z</time>
      </trkpt>
      <trkpt lat="42.62247" lon="-0.1938">
        <ele>1307.5</ele>
        <time>2017-07-30T09:24:30Z</time>
      </trkpt>
      <trkpt lat="42.62249" lon="-0.19383">
        <ele>1307.7</ele>
        <time>2017-07-30T09:24:31Z</time>
      </trkpt>
      <trkpt lat="42.62252" lon="-0.19386">
        <ele>1307.9</ele>
        <time>2017-07-30T09:24:32Z</time>
      </trkpt>
      <trkpt lat="42.62254" lon="-0.19388">
        <ele>1308</ele>
        <time>2017-07-30T09:24:33Z</time>
      </trkpt>
      <trkpt lat="42.62256" lon="-0.19391">
        <ele>1308.1</ele>
        <time>2017-07-30T09:24:34Z</time>
      </trkpt>
      <trkpt lat="42.62258" lon="-0.19394">
        <ele>1308.2</ele>
        <time>2017-07-30T09:24:35Z</time>
      </trkpt>
      <trkpt lat="42.6226" lon="-0.19398">
        <ele>1308.3</ele>
        <time>2017-07-30T09:24:36Z</time>
      </trkpt>
      <trkpt lat="42.62262" lon="-0.19401">
        <ele>1308.5</ele>
        <time>2017-07-30T09:24:37Z</time>
      </trkpt>
      <trkpt lat="42.62264" lon="-0.19405">
        <ele>1308.6</ele>
        <time>2017-07-30T09:24:38Z</time>
      </trkpt>
      <trkpt lat="42.62265" lon="-0.19408">
        <ele>1308.7</ele>
        <time>2017-07-30T09:24:39Z</time>
      </trkpt>
      <trkpt lat="42.62266" lon="-0.19412">
        <ele>1308.9</ele>
        <time>2017-07-30T09:24:40Z</time>
      </trkpt>
      <trkpt lat="42.62267" lon="-0.19416">
        <ele>1309.1</ele>
        <time>2017-07-30T09:24:41Z</time>
      </trkpt>
      <trkpt lat="42.62268" lon="-0.19421">
        <ele>1309.4</ele>
        <time>2017-07-30T09:24:42Z</time>
      </trkpt>
      <trkpt lat="42.62269" lon="-0.19425">
        <ele>1309.6</ele>
        <time>2017-07-30T09:24:43Z</time>
      </trkpt>
      <trkpt lat="42.6227" lon="-0.19429">
        <ele>1309.9</ele>
        <time>2017-07-30T09:24:44Z</time>
      </trkpt>
      <trkpt lat="42.6227" lon="-0.19433">
        <ele>1310.1</ele>
        <time>2017-07-30T09:24:45Z</time>
      </trkpt>
      <trkpt lat="42.62271" lon="-0.19438">
        <ele>1310.3</ele>
        <time>2017-07-30T09:24:46Z</time>
      </trkpt>
      <trkpt lat="42.62271" lon="-0.19442">
        <ele>1310.4</ele>
        <time>2017-07-30T09:24:47Z</time>
      </trkpt>
      <trkpt lat="42.6227" lon="-0.19447">
        <ele>1310.4</ele>
        <time>2017-07-30T09:24:48Z</time>
      </trkpt>
      <trkpt lat="42.6227" lon="-0.19451">
        <ele>1310.5</ele>
        <time>2017-07-30T09:24:49Z</time>
      </trkpt>
      <trkpt lat="42.62269" lon="-0.19456">
        <ele>1310.6</ele>
        <time>2017-07-30T09:24:50Z</time>
      </trkpt>
      <trkpt lat="42.62268" lon="-0.19461">
        <ele>1310.6</ele>
        <time>2017-07-30T09:24:51Z</time>
      </trkpt>
      <trkpt lat="42.62267" lon="-0.19465">
        <ele>1310.7</ele>
        <time>2017-07-30T09:24:52Z</time>
      </trkpt>
      <trkpt lat="42.62265" lon="-0.1947">
        <ele>1310.8</ele>
        <time>2017-07-30T09:24:53Z</time>
      </trkpt>
      <trkpt lat="42.62263" lon="-0.19474">
        <ele>1310.8</ele>
        <time>2017-07-30T09:24:54Z</time>
      </trkpt>
      <trkpt lat="42.62261" lon="-0.19479">
        <ele>1310.9</ele>
        <time>2017-07-30T09:24:55Z</time>
      </trkpt>
      <trkpt lat="42.62259" lon="-0.19483">
        <ele>1310.9</ele>
        <time>2017-07-30T09:24:56Z</time>
      </trkpt>
      <trkpt lat="42.62256" lon="-0.19488">
        <ele>1311</ele>
        <time>2017-07-30T09:24:57Z</time>
      </trkpt>
      <trkpt lat="42.62253" lon="-0.19492">
        <ele>1311</ele>
        <time>2017-07-30T09:24:58Z</time>
      </trkpt>
      <trkpt lat="42.6225" lon="-0.19496">
        <ele>1311.1</ele>
        <time>2017-07-30T09:24:59Z</time>
      </trkpt>
      <trkpt lat="42.62247" lon="-0.19499">
        <ele>1311.1</ele>
        <time>2017-07-30T09:25:00Z</time>
      </trkpt>
      <trkpt lat="42.62243" lon="-0.19501">
        <ele>1311.2</ele>
        <time>2017-07-30T09:25:01Z</time>
      </trkpt>
      <trkpt lat="42.62239" lon="-0.19503">
        <ele>1311.2</ele>
        <time>2017-07-30T09:25:02Z</time>
      </trkpt>
      <trkpt lat="42.62235" lon="-0.19505">
        <ele>1311.3</ele>
        <time>2017-07-30T09:25:03Z</time>
      </trkpt>
      <trkpt lat="42.62231" lon="-0.19506">
        <ele>1311.4</ele>
        <time>2017-07-30T09:25:04Z</time>
      </trkpt>
      <trkpt lat="42.62227" lon="-0.19506">
        <ele>1311.5</ele>
        <time>2017-07-30T09:25:05Z</time>
      </trkpt>
      <trkpt lat="42.62223" lon="-0.19506">
        <ele>1311.7</ele>
        <time>2017-07-30T09:25:06Z</time>
      </trkpt>
      <trkpt lat="42.62218" lon="-0.19506">
        <ele>1312</ele>
        <time>2017-07-30T09:25:07Z</time>
      </trkpt>
      <trkpt lat="42.62214" lon="-0.19505">
        <ele>1312.3</ele>
        <time>2017-07-30T09:25:08Z</time>
      </trkpt>
      <trkpt lat="42.6221" lon="-0.19505">
        <ele>1312.5</ele>
        <time>2017-07-30T09:25:09Z</time>
      </trkpt>
      <trkpt lat="42.62206" lon="-0.19503">
        <ele>1312.8</ele>
        <time>2017-07-30T09:25:10Z</time>
      </trkpt>
      <trkpt lat="42.62203" lon="-0.19502">
        <ele>1313.1</ele>
        <time>2017-07-30T09:25:11Z</time>
      </trkpt>
      <trkpt lat="42.62199" lon="-0.19501">
        <ele>1313.2</ele>
        <time>2017-07-30T09:25:12Z</time>
      </trkpt>
      <trkpt lat="42.62196" lon="-0.195">
        <ele>1313.4</ele>
        <time>2017-07-30T09:25:13Z</time>
      </trkpt>
      <trkpt lat="42.62193" lon="-0.19498">
        <ele>1313.5</ele>
        <time>2017-07-30T09:25:14Z</time>
      </trkpt>
      <trkpt lat="42.62189" lon="-0.19497">
        <ele>1313.7</ele>
        <time>2017-07-30T09:25:15Z</time>
      </trkpt>
      <trkpt lat="42.62186" lon="-0.19495">
        <ele>1313.8</ele>
        <time>2017-07-30T09:25:16Z</time>
      </trkpt>
      <trkpt lat="42.62183" lon="-0.19494">
        <ele>1313.9</ele>
        <time>2017-07-30T09:25:17Z</time>
      </trkpt>
      <trkpt lat="42.62181" lon="-0.19492">
        <ele>1314</ele>
        <time>2017-07-30T09:25:18Z</time>
      </trkpt>
      <trkpt lat="42.62178" lon="-0.19491">
        <ele>1314.1</ele>
        <time>2017-07-30T09:25:19Z</time>
      </trkpt>
      <trkpt lat="42.62175" lon="-0.1949">
        <ele>1314.4</ele>
        <time>2017-07-30T09:25:20Z</time>
      </trkpt>
      <trkpt lat="42.62172" lon="-0.19489">
        <ele>1314.6</ele>
        <time>2017-07-30T09:25:21Z</time>
      </trkpt>
      <trkpt lat="42.6217" lon="-0.19488">
        <ele>1314.8</ele>
        <time>2017-07-30T09:25:22Z</time>
      </trkpt>
      <trkpt lat="42.62167" lon="-0.19487">
        <ele>1315.1</ele>
        <time>2017-07-30T09:25:23Z</time>
      </trkpt>
      <trkpt lat="42.62162" lon="-0.19485">
        <ele>1315.5</ele>
        <time>2017-07-30T09:25:25Z</time>
      </trkpt>
      <trkpt lat="42.62157" lon="-0.19483">
        <ele>1315.8</ele>
        <time>2017-07-30T09:25:27Z</time>
      </trkpt>
      <trkpt lat="42.62152" lon="-0.19481">
        <ele>1316.1</ele>
        <time>2017-07-30T09:25:29Z</time>
      </trkpt>
      <trkpt lat="42.62147" lon="-0.19479">
        <ele>1316.4</ele>
        <time>2017-07-30T09:25:31Z</time>
      </trkpt>
      <trkpt lat="42.62143" lon="-0.19476">
        <ele>1316.9</ele>
        <time>2017-07-30T09:25:33Z</time>
      </trkpt>
      <trkpt lat="42.62138" lon="-0.19474">
        <ele>1317.3</ele>
        <time>2017-07-30T09:25:35Z</time>
      </trkpt>
      <trkpt lat="42.62133" lon="-0.19471">
        <ele>1317.8</ele>
        <time>2017-07-30T09:25:37Z</time>
      </trkpt>
      <trkpt lat="42.62128" lon="-0.19468">
        <ele>1318.1</ele>
        <time>2017-07-30T09:25:39Z</time>
      </trkpt>
      <trkpt lat="42.62124" lon="-0.19466">
        <ele>1318.3</ele>
        <time>2017-07-30T09:25:41Z</time>
      </trkpt>
      <trkpt lat="42.62119" lon="-0.19463">
        <ele>1318.5</ele>
        <time>2017-07-30T09:25:43Z</time>
      </trkpt>
      <trkpt lat="42.62115" lon="-0.1946">
        <ele>1318.7</ele>
        <time>2017-07-30T09:25:45Z</time>
      </trkpt>
      <trkpt lat="42.62111" lon="-0.19457">
        <ele>1319.2</ele>
        <time>2017-07-30T09:25:47Z</time>
      </trkpt>
      <trkpt lat="42.62106" lon="-0.19455">
        <ele>1319.6</ele>
        <time>2017-07-30T09:25:49Z</time>
      </trkpt>
      <trkpt lat="42.62102" lon="-0.19452">
        <ele>1320.1</ele>
        <time>2017-07-30T09:25:51Z</time>
      </trkpt>
      <trkpt lat="42.62097" lon="-0.19449">
        <ele>1320.3</ele>
        <time>2017-07-30T09:25:53Z</time>
      </trkpt>
      <trkpt lat="42.62092" lon="-0.19447">
        <ele>1320.6</ele>
        <time>2017-07-30T09:25:55Z</time>
      </trkpt>
      <trkpt lat="42.62087" lon="-0.19445">
        <ele>1320.8</ele>
        <time>2017-07-30T09:25:57Z</time>
      </trkpt>
      <trkpt lat="42.62082" lon="-0.19443">
        <ele>1321.1</ele>
        <time>2017-07-30T09:25:59Z</time>
      </trkpt>
      <trkpt lat="42.62078" lon="-0.19441">
        <ele>1321.5</ele>
        <time>2017-07-30T09:26:01Z</time>
      </trkpt>
      <trkpt lat="42.62073" lon="-0.19439">
        <ele>1322</ele>
        <time>2017-07-30T09:26:03Z</time>
      </trkpt>
      <trkpt lat="42.62068" lon="-0.19436">
        <ele>1322.5</ele>
        <time>2017-07-30T09:26:05Z</time>
      </trkpt>
      <trkpt lat="42.62063" lon="-0.19434">
        <ele>1322.7</ele>
        <time>2017-07-30T09:26:07Z</time>
      </trkpt>
      <trkpt lat="42.62058" lon="-0.19432">
        <ele>1323</ele>
        <time>2017-07-30T09:26:09Z</time>
      </trkpt>
      <trkpt lat="42.62054" lon="-0.1943">
        <ele>1323.3</ele>
        <time>2017-07-30T09:26:11Z</time>
      </trkpt>
      <trkpt lat="42.62049" lon="-0.19428">
        <ele>1323.6</ele>
        <time>2017-07-30T09:26:13Z</time>
      </trkpt>
      <trkpt lat="42.62044" lon="-0.19425">
        <ele>1324</ele>
        <time>2017-07-30T09:26:15Z</time>
      </trkpt>
      <trkpt lat="42.6204" lon="-0.19423">
        <ele>1324.5</ele>
        <time>2017-07-30T09:26:17Z</time>
      </trkpt>
      <trkpt lat="42.62035" lon="-0.1942">
        <ele>1325</ele>
        <time>2017-07-30T09:26:19Z</time>
      </trkpt>
      <trkpt lat="42.6203" lon="-0.19418">
        <ele>1325.3</ele>
        <time>2017-07-30T09:26:21Z</time>
      </trkpt>
      <trkpt lat="42.62026" lon="-0.19415">
        <ele>1325.6</ele>
        <time>2017-07-30T09:26:23Z</time>
      </trkpt>
      <trkpt lat="42.62021" lon="-0.19413">
        <ele>1326.1</ele>
        <time>2017-07-30T09:26:25Z</time>
      </trkpt>
      <trkpt lat="42.62017" lon="-0.1941">
        <ele>1326.6</ele>
        <time>2017-07-30T09:26:27Z</time>
      </trkpt>
      <trkpt lat="42.62012" lon="-0.19407">
        <ele>1327</ele>
        <time>2017-07-30T09:26:29Z</time>
      </trkpt>
      <trkpt lat="42.62008" lon="-0.19404">
        <ele>1327.4</ele>
        <time>2017-07-30T09:26:31Z</time>
      </trkpt>
      <trkpt lat="42.62004" lon="-0.19401">
        <ele>1327.6</ele>
        <time>2017-07-30T09:26:33Z</time>
      </trkpt>
      <trkpt lat="42.61999" lon="-0.19399">
        <ele>1327.8</ele>
        <time>2017-07-30T09:26:35Z</time>
      </trkpt>
      <trkpt lat="42.61995" lon="-0.19397">
        <ele>1328</ele>
        <time>2017-07-30T09:26:37Z</time>
      </trkpt>
      <trkpt lat="42.6199" lon="-0.19395">
        <ele>1328.4</ele>
        <time>2017-07-30T09:26:39Z</time>
      </trkpt>
      <trkpt lat="42.61985" lon="-0.19393">
        <ele>1328.9</ele>
        <time>2017-07-30T09:26:41Z</time>
      </trkpt>
      <trkpt lat="42.6198" lon="-0.19393">
        <ele>1329.4</ele>
        <time>2017-07-30T09:26:43Z</time>
      </trkpt>
      <trkpt lat="42.61975" lon="-0.19392">
        <ele>1329.8</ele>
        <time>2017-07-30T09:26:45Z</time>
      </trkpt>
      <trkpt lat="42.6197" lon="-0.19392">
        <ele>1330.1</ele>
        <time>2017-07-30T09:26:47Z</time>
      </trkpt>
      <trkpt lat="42.61965" lon="-0.19392">
        <ele>1330.4</ele>
        <time>2017-07-30T09:26:49Z</time>
      </trkpt>
      <trkpt lat="42.61961" lon="-0.19393">
        <ele>1330.9</ele>
        <time>2017-07-30T09:26:51Z</time>
      </trkpt>
      <trkpt lat="42.61956" lon="-0.19394">
        <ele>1331.5</ele>
        <time>2017-07-30T09:26:53Z</time>
      </trkpt>
      <trkpt lat="42.61952" lon="-0.19396">
        <ele>1332</ele>
        <time>2017-07-30T09:26:55Z</time>
      </trkpt>
      <trkpt lat="42.61947" lon="-0.19399">
        <ele>1332.4</ele>
        <time>2017-07-30T09:26:57Z</time>
      </trkpt>
      <trkpt lat="42.61942" lon="-0.19402">
        <ele>1332.9</ele>
        <time>2017-07-30T09:26:59Z</time>
      </trkpt>
      <trkpt lat="42.61938" lon="-0.19406">
        <ele>1333.4</ele>
        <time>2017-07-30T09:27:01Z</time>
      </trkpt>
      <trkpt lat="42.61935" lon="-0.19411">
        <ele>1333.9</ele>
        <time>2017-07-30T09:27:03Z</time>
      </trkpt>
      <trkpt lat="42.61931" lon="-0.19416">
        <ele>1334.4</ele>
        <time>2017-07-30T09:27:05Z</time>
      </trkpt>
      <trkpt lat="42.61927" lon="-0.19421">
        <ele>1335</ele>
        <time>2017-07-30T09:27:07Z</time>
      </trkpt>
      <trkpt lat="42.61923" lon="-0.19426">
        <ele>1335.5</ele>
        <time>2017-07-30T09:27:09Z</time>
      </trkpt>
      <trkpt lat="42.6192" lon="-0.19432">
        <ele>1336</ele>
        <time>2017-07-30T09:27:11Z</time>
      </trkpt>
      <trkpt lat="42.61917" lon="-0.19438">
        <ele>1336.5</ele>
        <time>2017-07-30T09:27:13Z</time>
      </trkpt>
      <trkpt lat="42.61914" lon="-0.19443">
        <ele>1336.9</ele>
        <time>2017-07-30T09:27:15Z</time>
      </trkpt>
      <trkpt lat="42.61911" lon="-0.19449">
        <ele>1337.2</ele>
        <time>2017-07-30T09:27:17Z</time>
      </trkpt>
      <trkpt lat="42.61908" lon="-0.19455">
        <ele>1337.6</ele>
        <time>2017-07-30T09:27:19Z</time>
      </trkpt>
      <trkpt lat="42.61906" lon="-0.19458">
        <ele>1337.8</ele>
        <time>2017-07-30T09:27:20Z</time>
      </trkpt>
      <trkpt lat="42.61903" lon="-0.19464">
        <ele>1338.3</ele>
        <time>2017-07-30T09:27:22Z</time>
      </trkpt>
      <trkpt lat="42.619" lon="-0.19469">
        <ele>1338.7</ele>
        <time>2017-07-30T09:27:24Z</time>
      </trkpt>
      <trkpt lat="42.61897" lon="-0.19475">
        <ele>1339.1</ele>
        <time>2017-07-30T09:27:26Z</time>
      </trkpt>
      <trkpt lat="42.61895" lon="-0.19478">
        <ele>1339.2</ele>
        <time>2017-07-30T09:27:27Z</time>
      </trkpt>
      <trkpt lat="42.61894" lon="-0.19481">
        <ele>1339.4</ele>
        <time>2017-07-30T09:27:28Z</time>
      </trkpt>
      <trkpt lat="42.61891" lon="-0.19487">
        <ele>1339.6</ele>
        <time>2017-07-30T09:27:30Z</time>
      </trkpt>
      <trkpt lat="42.61889" lon="-0.1949">
        <ele>1339.8</ele>
        <time>2017-07-30T09:27:31Z</time>
      </trkpt>
      <trkpt lat="42.61888" lon="-0.19493">
        <ele>1340.1</ele>
        <time>2017-07-30T09:27:32Z</time>
      </trkpt>
      <trkpt lat="42.61886" lon="-0.19496">
        <ele>1340.3</ele>
        <time>2017-07-30T09:27:33Z</time>
      </trkpt>
      <trkpt lat="42.61885" lon="-0.19499">
        <ele>1340.6</ele>
        <time>2017-07-30T09:27:34Z</time>
      </trkpt>
      <trkpt lat="42.61882" lon="-0.19505">
        <ele>1341.1</ele>
        <time>2017-07-30T09:27:36Z</time>
      </trkpt>
      <trkpt lat="42.6188" lon="-0.19512">
        <ele>1341.4</ele>
        <time>2017-07-30T09:27:38Z</time>
      </trkpt>
      <trkpt lat="42.61878" lon="-0.19519">
        <ele>1341.7</ele>
        <time>2017-07-30T09:27:40Z</time>
      </trkpt>
      <trkpt lat="42.61877" lon="-0.19523">
        <ele>1341.9</ele>
        <time>2017-07-30T09:27:41Z</time>
      </trkpt>
      <trkpt lat="42.61877" lon="-0.19526">
        <ele>1342.2</ele>
        <time>2017-07-30T09:27:42Z</time>
      </trkpt>
      <trkpt lat="42.61876" lon="-0.1953">
        <ele>1342.4</ele>
        <time>2017-07-30T09:27:43Z</time>
      </trkpt>
      <trkpt lat="42.61875" lon="-0.19537">
        <ele>1342.9</ele>
        <time>2017-07-30T09:27:45Z</time>
      </trkpt>
      <trkpt lat="42.61875" lon="-0.19544">
        <ele>1343.4</ele>
        <time>2017-07-30T09:27:47Z</time>
      </trkpt>
      <trkpt lat="42.61875" lon="-0.19551">
        <ele>1343.9</ele>
        <time>2017-07-30T09:27:49Z</time>
      </trkpt>
      <trkpt lat="42.61875" lon="-0.19558">
        <ele>1344.4</ele>
        <time>2017-07-30T09:27:51Z</time>
      </trkpt>
      <trkpt lat="42.61875" lon="-0.19565">
        <ele>1344.9</ele>
        <time>2017-07-30T09:27:53Z</time>
      </trkpt>
      <trkpt lat="42.61876" lon="-0.19572">
        <ele>1345.4</ele>
        <time>2017-07-30T09:27:55Z</time>
      </trkpt>
      <trkpt lat="42.61876" lon="-0.19579">
        <ele>1345.9</ele>
        <time>2017-07-30T09:27:57Z</time>
      </trkpt>
      <trkpt lat="42.61877" lon="-0.19585">
        <ele>1346.3</ele>
        <time>2017-07-30T09:27:59Z</time>
      </trkpt>
      <trkpt lat="42.61877" lon="-0.19592">
        <ele>1346.8</ele>
        <time>2017-07-30T09:28:01Z</time>
      </trkpt>
      <trkpt lat="42.61878" lon="-0.19598">
        <ele>1347.2</ele>
        <time>2017-07-30T09:28:03Z</time>
      </trkpt>
      <trkpt lat="42.61879" lon="-0.19605">
        <ele>1347.7</ele>
        <time>2017-07-30T09:28:05Z</time>
      </trkpt>
      <trkpt lat="42.6188" lon="-0.19612">
        <ele>1348.2</ele>
        <time>2017-07-30T09:28:07Z</time>
      </trkpt>
      <trkpt lat="42.61881" lon="-0.19619">
        <ele>1348.7</ele>
        <time>2017-07-30T09:28:09Z</time>
      </trkpt>
      <trkpt lat="42.61881" lon="-0.19626">
        <ele>1349.1</ele>
        <time>2017-07-30T09:28:11Z</time>
      </trkpt>
      <trkpt lat="42.61882" lon="-0.19633">
        <ele>1349.4</ele>
        <time>2017-07-30T09:28:13Z</time>
      </trkpt>
      <trkpt lat="42.61883" lon="-0.1964">
        <ele>1349.7</ele>
        <time>2017-07-30T09:28:15Z</time>
      </trkpt>
      <trkpt lat="42.61884" lon="-0.19648">
        <ele>1350.2</ele>
        <time>2017-07-30T09:28:17Z</time>
      </trkpt>
      <trkpt lat="42.61884" lon="-0.19651">
        <ele>1350.5</ele>
        <time>2017-07-30T09:28:18Z</time>
      </trkpt>
      <trkpt lat="42.61885" lon="-0.19655">
        <ele>1350.8</ele>
        <time>2017-07-30T09:28:19Z</time>
      </trkpt>
      <trkpt lat="42.61885" lon="-0.19659">
        <ele>1351</ele>
        <time>2017-07-30T09:28:20Z</time>
      </trkpt>
      <trkpt lat="42.61886" lon="-0.19662">
        <ele>1351.2</ele>
        <time>2017-07-30T09:28:21Z</time>
      </trkpt>
      <trkpt lat="42.61887" lon="-0.19666">
        <ele>1351.3</ele>
        <time>2017-07-30T09:28:22Z</time>
      </trkpt>
      <trkpt lat="42.61887" lon="-0.1967">
        <ele>1351.4</ele>
        <time>2017-07-30T09:28:23Z</time>
      </trkpt>
      <trkpt lat="42.61888" lon="-0.19673">
        <ele>1351.5</ele>
        <time>2017-07-30T09:28:24Z</time>
      </trkpt>
      <trkpt lat="42.61889" lon="-0.19677">
        <ele>1351.6</ele>
        <time>2017-07-30T09:28:25Z</time>
      </trkpt>
      <trkpt lat="42.61889" lon="-0.19681">
        <ele>1351.8</ele>
        <time>2017-07-30T09:28:26Z</time>
      </trkpt>
      <trkpt lat="42.6189" lon="-0.19684">
        <ele>1351.9</ele>
        <time>2017-07-30T09:28:27Z</time>
      </trkpt>
      <trkpt lat="42.61891" lon="-0.19691">
        <ele>1352.4</ele>
        <time>2017-07-30T09:28:29Z</time>
      </trkpt>
      <trkpt lat="42.61893" lon="-0.19698">
        <ele>1353</ele>
        <time>2017-07-30T09:28:31Z</time>
      </trkpt>
      <trkpt lat="42.61894" lon="-0.19706">
        <ele>1353.4</ele>
        <time>2017-07-30T09:28:33Z</time>
      </trkpt>
      <trkpt lat="42.61894" lon="-0.19709">
        <ele>1353.6</ele>
        <time>2017-07-30T09:28:34Z</time>
      </trkpt>
      <trkpt lat="42.61895" lon="-0.19716">
        <ele>1353.8</ele>
        <time>2017-07-30T09:28:36Z</time>
      </trkpt>
      <trkpt lat="42.61896" lon="-0.19723">
        <ele>1354</ele>
        <time>2017-07-30T09:28:38Z</time>
      </trkpt>
      <trkpt lat="42.61896" lon="-0.1973">
        <ele>1354.3</ele>
        <time>2017-07-30T09:28:40Z</time>
      </trkpt>
      <trkpt lat="42.61896" lon="-0.19734">
        <ele>1354.4</ele>
        <time>2017-07-30T09:28:41Z</time>
      </trkpt>
      <trkpt lat="42.61896" lon="-0.19741">
        <ele>1354.9</ele>
        <time>2017-07-30T09:28:43Z</time>
      </trkpt>
      <trkpt lat="42.61896" lon="-0.19745">
        <ele>1355.1</ele>
        <time>2017-07-30T09:28:44Z</time>
      </trkpt>
      <trkpt lat="42.61896" lon="-0.19748">
        <ele>1355.4</ele>
        <time>2017-07-30T09:28:45Z</time>
      </trkpt>
      <trkpt lat="42.61895" lon="-0.19755">
        <ele>1355.9</ele>
        <time>2017-07-30T09:28:47Z</time>
      </trkpt>
      <trkpt lat="42.61895" lon="-0.19763">
        <ele>1356.2</ele>
        <time>2017-07-30T09:28:49Z</time>
      </trkpt>
      <trkpt lat="42.61894" lon="-0.19766">
        <ele>1356.4</ele>
        <time>2017-07-30T09:28:50Z</time>
      </trkpt>
      <trkpt lat="42.61893" lon="-0.19773">
        <ele>1356.7</ele>
        <time>2017-07-30T09:28:52Z</time>
      </trkpt>
      <trkpt lat="42.61891" lon="-0.1978">
        <ele>1357.2</ele>
        <time>2017-07-30T09:28:54Z</time>
      </trkpt>
      <trkpt lat="42.6189" lon="-0.19787">
        <ele>1357.7</ele>
        <time>2017-07-30T09:28:56Z</time>
      </trkpt>
      <trkpt lat="42.61889" lon="-0.19791">
        <ele>1357.9</ele>
        <time>2017-07-30T09:28:57Z</time>
      </trkpt>
      <trkpt lat="42.61887" lon="-0.19798">
        <ele>1358.3</ele>
        <time>2017-07-30T09:28:59Z</time>
      </trkpt>
      <trkpt lat="42.61886" lon="-0.19804">
        <ele>1358.6</ele>
        <time>2017-07-30T09:29:01Z</time>
      </trkpt>
      <trkpt lat="42.61884" lon="-0.19811">
        <ele>1358.8</ele>
        <time>2017-07-30T09:29:03Z</time>
      </trkpt>
      <trkpt lat="42.61882" lon="-0.19818">
        <ele>1359.1</ele>
        <time>2017-07-30T09:29:05Z</time>
      </trkpt>
      <trkpt lat="42.61881" lon="-0.19825">
        <ele>1359.5</ele>
        <time>2017-07-30T09:29:07Z</time>
      </trkpt>
      <trkpt lat="42.61881" lon="-0.19832">
        <ele>1360</ele>
        <time>2017-07-30T09:29:09Z</time>
      </trkpt>
      <trkpt lat="42.6188" lon="-0.19839">
        <ele>1360.5</ele>
        <time>2017-07-30T09:29:11Z</time>
      </trkpt>
      <trkpt lat="42.61878" lon="-0.19845">
        <ele>1360.8</ele>
        <time>2017-07-30T09:29:13Z</time>
      </trkpt>
      <trkpt lat="42.61876" lon="-0.19852">
        <ele>1361.1</ele>
        <time>2017-07-30T09:29:15Z</time>
      </trkpt>
      <trkpt lat="42.61874" lon="-0.19859">
        <ele>1361.4</ele>
        <time>2017-07-30T09:29:17Z</time>
      </trkpt>
      <trkpt lat="42.61873" lon="-0.19862">
        <ele>1361.6</ele>
        <time>2017-07-30T09:29:18Z</time>
      </trkpt>
      <trkpt lat="42.61872" lon="-0.19866">
        <ele>1361.8</ele>
        <time>2017-07-30T09:29:19Z</time>
      </trkpt>
      <trkpt lat="42.61871" lon="-0.19873">
        <ele>1362.3</ele>
        <time>2017-07-30T09:29:21Z</time>
      </trkpt>
      <trkpt lat="42.6187" lon="-0.19876">
        <ele>1362.6</ele>
        <time>2017-07-30T09:29:22Z</time>
      </trkpt>
      <trkpt lat="42.61869" lon="-0.19883">
        <ele>1363.1</ele>
        <time>2017-07-30T09:29:24Z</time>
      </trkpt>
      <trkpt lat="42.61868" lon="-0.19891">
        <ele>1363.4</ele>
        <time>2017-07-30T09:29:26Z</time>
      </trkpt>
      <trkpt lat="42.61868" lon="-0.19894">
        <ele>1363.6</ele>
        <time>2017-07-30T09:29:27Z</time>
      </trkpt>
      <trkpt lat="42.61867" lon="-0.19898">
        <ele>1363.8</ele>
        <time>2017-07-30T09:29:28Z</time>
      </trkpt>
      <trkpt lat="42.61867" lon="-0.19902">
        <ele>1363.9</ele>
        <time>2017-07-30T09:29:29Z</time>
      </trkpt>
      <trkpt lat="42.61867" lon="-0.19906">
        <ele>1364.1</ele>
        <time>2017-07-30T09:29:30Z</time>
      </trkpt>
      <trkpt lat="42.61867" lon="-0.19909">
        <ele>1364.3</ele>
        <time>2017-07-30T09:29:31Z</time>
      </trkpt>
      <trkpt lat="42.61867" lon="-0.19913">
        <ele>1364.5</ele>
        <time>2017-07-30T09:29:32Z</time>
      </trkpt>
      <trkpt lat="42.61867" lon="-0.19917">
        <ele>1364.8</ele>
        <time>2017-07-30T09:29:33Z</time>
      </trkpt>
      <trkpt lat="42.61868" lon="-0.19921">
        <ele>1365</ele>
        <time>2017-07-30T09:29:34Z</time>
      </trkpt>
      <trkpt lat="42.61868" lon="-0.19925">
        <ele>1365.3</ele>
        <time>2017-07-30T09:29:35Z</time>
      </trkpt>
      <trkpt lat="42.61869" lon="-0.19929">
        <ele>1365.5</ele>
        <time>2017-07-30T09:29:36Z</time>
      </trkpt>
      <trkpt lat="42.61869" lon="-0.19934">
        <ele>1365.6</ele>
        <time>2017-07-30T09:29:37Z</time>
      </trkpt>
      <trkpt lat="42.61869" lon="-0.19938">
        <ele>1365.7</ele>
        <time>2017-07-30T09:29:38Z</time>
      </trkpt>
      <trkpt lat="42.61869" lon="-0.19943">
        <ele>1365.8</ele>
        <time>2017-07-30T09:29:39Z</time>
      </trkpt>
      <trkpt lat="42.61869" lon="-0.19947">
        <ele>1365.9</ele>
        <time>2017-07-30T09:29:40Z</time>
      </trkpt>
      <trkpt lat="42.61868" lon="-0.19952">
        <ele>1366</ele>
        <time>2017-07-30T09:29:41Z</time>
      </trkpt>
      <trkpt lat="42.61866" lon="-0.19956">
        <ele>1366.1</ele>
        <time>2017-07-30T09:29:42Z</time>
      </trkpt>
      <trkpt lat="42.61865" lon="-0.1996">
        <ele>1366.2</ele>
        <time>2017-07-30T09:29:43Z</time>
      </trkpt>
      <trkpt lat="42.61863" lon="-0.19964">
        <ele>1366.4</ele>
        <time>2017-07-30T09:29:44Z</time>
      </trkpt>
      <trkpt lat="42.6186" lon="-0.19968">
        <ele>1366.7</ele>
        <time>2017-07-30T09:29:45Z</time>
      </trkpt>
      <trkpt lat="42.61857" lon="-0.19972">
        <ele>1366.9</ele>
        <time>2017-07-30T09:29:46Z</time>
      </trkpt>
      <trkpt lat="42.61854" lon="-0.19976">
        <ele>1367.2</ele>
        <time>2017-07-30T09:29:47Z</time>
      </trkpt>
      <trkpt lat="42.61851" lon="-0.19979">
        <ele>1367.4</ele>
        <time>2017-07-30T09:29:48Z</time>
      </trkpt>
      <trkpt lat="42.61847" lon="-0.19981">
        <ele>1367.7</ele>
        <time>2017-07-30T09:29:49Z</time>
      </trkpt>
      <trkpt lat="42.61843" lon="-0.19983">
        <ele>1367.9</ele>
        <time>2017-07-30T09:29:50Z</time>
      </trkpt>
      <trkpt lat="42.61839" lon="-0.19984">
        <ele>1368.1</ele>
        <time>2017-07-30T09:29:51Z</time>
      </trkpt>
      <trkpt lat="42.61835" lon="-0.19984">
        <ele>1368.2</ele>
        <time>2017-07-30T09:29:52Z</time>
      </trkpt>
      <trkpt lat="42.61831" lon="-0.19984">
        <ele>1368.2</ele>
        <time>2017-07-30T09:29:53Z</time>
      </trkpt>
      <trkpt lat="42.61826" lon="-0.19983">
        <ele>1368.2</ele>
        <time>2017-07-30T09:29:54Z</time>
      </trkpt>
      <trkpt lat="42.61822" lon="-0.19982">
        <ele>1368.3</ele>
        <time>2017-07-30T09:29:55Z</time>
      </trkpt>
      <trkpt lat="42.61818" lon="-0.1998">
        <ele>1368.3</ele>
        <time>2017-07-30T09:29:56Z</time>
      </trkpt>
      <trkpt lat="42.61814" lon="-0.19977">
        <ele>1368.4</ele>
        <time>2017-07-30T09:29:57Z</time>
      </trkpt>
      <trkpt lat="42.6181" lon="-0.19974">
        <ele>1368.4</ele>
        <time>2017-07-30T09:29:58Z</time>
      </trkpt>
      <trkpt lat="42.61806" lon="-0.19971">
        <ele>1368.4</ele>
        <time>2017-07-30T09:29:59Z</time>
      </trkpt>
      <trkpt lat="42.61802" lon="-0.19968">
        <ele>1368.5</ele>
        <time>2017-07-30T09:30:00Z</time>
      </trkpt>
      <trkpt lat="42.61798" lon="-0.19964">
        <ele>1368.5</ele>
        <time>2017-07-30T09:30:01Z</time>
      </trkpt>
      <trkpt lat="42.61795" lon="-0.19961">
        <ele>1368.5</ele>
        <time>2017-07-30T09:30:02Z</time>
      </trkpt>
      <trkpt lat="42.61792" lon="-0.19957">
        <ele>1368.6</ele>
        <time>2017-07-30T09:30:03Z</time>
      </trkpt>
      <trkpt lat="42.61789" lon="-0.19952">
        <ele>1368.6</ele>
        <time>2017-07-30T09:30:04Z</time>
      </trkpt>
      <trkpt lat="42.61786" lon="-0.19948">
        <ele>1368.7</ele>
        <time>2017-07-30T09:30:05Z</time>
      </trkpt>
      <trkpt lat="42.61783" lon="-0.19943">
        <ele>1368.7</ele>
        <time>2017-07-30T09:30:06Z</time>
      </trkpt>
      <trkpt lat="42.61781" lon="-0.19938">
        <ele>1368.8</ele>
        <time>2017-07-30T09:30:07Z</time>
      </trkpt>
      <trkpt lat="42.61778" lon="-0.19933">
        <ele>1368.8</ele>
        <time>2017-07-30T09:30:08Z</time>
      </trkpt>
      <trkpt lat="42.61776" lon="-0.19928">
        <ele>1368.9</ele>
        <time>2017-07-30T09:30:09Z</time>
      </trkpt>
      <trkpt lat="42.61775" lon="-0.1992">
        <ele>1369</ele>
        <time>2017-07-30T09:30:10Z</time>
      </trkpt>
      <trkpt lat="42.61773" lon="-0.19913">
        <ele>1369.1</ele>
        <time>2017-07-30T09:30:11Z</time>
      </trkpt>
      <trkpt lat="42.61771" lon="-0.19906">
        <ele>1369.2</ele>
        <time>2017-07-30T09:30:12Z</time>
      </trkpt>
      <trkpt lat="42.61769" lon="-0.199">
        <ele>1369.3</ele>
        <time>2017-07-30T09:30:13Z</time>
      </trkpt>
      <trkpt lat="42.61768" lon="-0.19895">
        <ele>1369.3</ele>
        <time>2017-07-30T09:30:14Z</time>
      </trkpt>
      <trkpt lat="42.61766" lon="-0.1989">
        <ele>1369.4</ele>
        <time>2017-07-30T09:30:15Z</time>
      </trkpt>
      <trkpt lat="42.61763" lon="-0.19884">
        <ele>1369.6</ele>
        <time>2017-07-30T09:30:16Z</time>
      </trkpt>
      <trkpt lat="42.61761" lon="-0.19879">
        <ele>1369.9</ele>
        <time>2017-07-30T09:30:17Z</time>
      </trkpt>
      <trkpt lat="42.61759" lon="-0.19874">
        <ele>1370.1</ele>
        <time>2017-07-30T09:30:18Z</time>
      </trkpt>
      <trkpt lat="42.61758" lon="-0.19868">
        <ele>1370.3</ele>
        <time>2017-07-30T09:30:19Z</time>
      </trkpt>
      <trkpt lat="42.61756" lon="-0.19863">
        <ele>1370.5</ele>
        <time>2017-07-30T09:30:20Z</time>
      </trkpt>
      <trkpt lat="42.61754" lon="-0.19859">
        <ele>1370.7</ele>
        <time>2017-07-30T09:30:21Z</time>
      </trkpt>
      <trkpt lat="42.61751" lon="-0.19855">
        <ele>1370.7</ele>
        <time>2017-07-30T09:30:22Z</time>
      </trkpt>
      <trkpt lat="42.61749" lon="-0.19851">
        <ele>1370.8</ele>
        <time>2017-07-30T09:30:23Z</time>
      </trkpt>
      <trkpt lat="42.61746" lon="-0.19847">
        <ele>1370.9</ele>
        <time>2017-07-30T09:30:24Z</time>
      </trkpt>
      <trkpt lat="42.61744" lon="-0.19843">
        <ele>1371</ele>
        <time>2017-07-30T09:30:25Z</time>
      </trkpt>
      <trkpt lat="42.61741" lon="-0.19838">
        <ele>1371.1</ele>
        <time>2017-07-30T09:30:26Z</time>
      </trkpt>
      <trkpt lat="42.61739" lon="-0.19834">
        <ele>1371.2</ele>
        <time>2017-07-30T09:30:27Z</time>
      </trkpt>
      <trkpt lat="42.61737" lon="-0.19829">
        <ele>1371.3</ele>
        <time>2017-07-30T09:30:28Z</time>
      </trkpt>
      <trkpt lat="42.61734" lon="-0.19825">
        <ele>1371.4</ele>
        <time>2017-07-30T09:30:29Z</time>
      </trkpt>
      <trkpt lat="42.61732" lon="-0.1982">
        <ele>1371.5</ele>
        <time>2017-07-30T09:30:30Z</time>
      </trkpt>
      <trkpt lat="42.61729" lon="-0.19816">
        <ele>1371.5</ele>
        <time>2017-07-30T09:30:31Z</time>
      </trkpt>
      <trkpt lat="42.61727" lon="-0.19812">
        <ele>1371.6</ele>
        <time>2017-07-30T09:30:32Z</time>
      </trkpt>
      <trkpt lat="42.61724" lon="-0.19808">
        <ele>1371.7</ele>
        <time>2017-07-30T09:30:33Z</time>
      </trkpt>
      <trkpt lat="42.61721" lon="-0.19805">
        <ele>1371.9</ele>
        <time>2017-07-30T09:30:34Z</time>
      </trkpt>
      <trkpt lat="42.61718" lon="-0.19801">
        <ele>1372.1</ele>
        <time>2017-07-30T09:30:35Z</time>
      </trkpt>
      <trkpt lat="42.61714" lon="-0.19798">
        <ele>1372.4</ele>
        <time>2017-07-30T09:30:36Z</time>
      </trkpt>
      <trkpt lat="42.61711" lon="-0.19796">
        <ele>1372.7</ele>
        <time>2017-07-30T09:30:37Z</time>
      </trkpt>
      <trkpt lat="42.61708" lon="-0.19794">
        <ele>1373</ele>
        <time>2017-07-30T09:30:38Z</time>
      </trkpt>
      <trkpt lat="42.61704" lon="-0.19792">
        <ele>1373.2</ele>
        <time>2017-07-30T09:30:39Z</time>
      </trkpt>
      <trkpt lat="42.61701" lon="-0.19792">
        <ele>1373.4</ele>
        <time>2017-07-30T09:30:40Z</time>
      </trkpt>
      <trkpt lat="42.61698" lon="-0.19792">
        <ele>1373.6</ele>
        <time>2017-07-30T09:30:41Z</time>
      </trkpt>
      <trkpt lat="42.61695" lon="-0.19793">
        <ele>1373.7</ele>
        <time>2017-07-30T09:30:42Z</time>
      </trkpt>
      <trkpt lat="42.61692" lon="-0.19794">
        <ele>1373.9</ele>
        <time>2017-07-30T09:30:43Z</time>
      </trkpt>
      <trkpt lat="42.61689" lon="-0.19795">
        <ele>1374.1</ele>
        <time>2017-07-30T09:30:44Z</time>
      </trkpt>
      <trkpt lat="42.61686" lon="-0.19797">
        <ele>1374.4</ele>
        <time>2017-07-30T09:30:45Z</time>
      </trkpt>
      <trkpt lat="42.61683" lon="-0.19798">
        <ele>1374.7</ele>
        <time>2017-07-30T09:30:46Z</time>
      </trkpt>
      <trkpt lat="42.6168" lon="-0.198">
        <ele>1375</ele>
        <time>2017-07-30T09:30:47Z</time>
      </trkpt>
      <trkpt lat="42.61678" lon="-0.19802">
        <ele>1375.3</ele>
        <time>2017-07-30T09:30:48Z</time>
      </trkpt>
      <trkpt lat="42.61675" lon="-0.19805">
        <ele>1375.5</ele>
        <time>2017-07-30T09:30:49Z</time>
      </trkpt>
      <trkpt lat="42.61672" lon="-0.19807">
        <ele>1375.9</ele>
        <time>2017-07-30T09:30:50Z</time>
      </trkpt>
      <trkpt lat="42.61669" lon="-0.19809">
        <ele>1376.1</ele>
        <time>2017-07-30T09:30:51Z</time>
      </trkpt>
      <trkpt lat="42.61667" lon="-0.19811">
        <ele>1376.4</ele>
        <time>2017-07-30T09:30:52Z</time>
      </trkpt>
      <trkpt lat="42.61664" lon="-0.19813">
        <ele>1376.7</ele>
        <time>2017-07-30T09:30:53Z</time>
      </trkpt>
      <trkpt lat="42.61662" lon="-0.19816">
        <ele>1377</ele>
        <time>2017-07-30T09:30:54Z</time>
      </trkpt>
      <trkpt lat="42.6166" lon="-0.19818">
        <ele>1377.3</ele>
        <time>2017-07-30T09:30:55Z</time>
      </trkpt>
      <trkpt lat="42.61657" lon="-0.1982">
        <ele>1377.6</ele>
        <time>2017-07-30T09:30:56Z</time>
      </trkpt>
      <trkpt lat="42.61655" lon="-0.19822">
        <ele>1377.9</ele>
        <time>2017-07-30T09:30:57Z</time>
      </trkpt>
      <trkpt lat="42.61651" lon="-0.19827">
        <ele>1378.3</ele>
        <time>2017-07-30T09:30:59Z</time>
      </trkpt>
      <trkpt lat="42.61648" lon="-0.19832">
        <ele>1378.8</ele>
        <time>2017-07-30T09:31:01Z</time>
      </trkpt>
      <trkpt lat="42.61644" lon="-0.19837">
        <ele>1379.4</ele>
        <time>2017-07-30T09:31:03Z</time>
      </trkpt>
      <trkpt lat="42.61642" lon="-0.1984">
        <ele>1379.7</ele>
        <time>2017-07-30T09:31:04Z</time>
      </trkpt>
      <trkpt lat="42.61641" lon="-0.19843">
        <ele>1380.1</ele>
        <time>2017-07-30T09:31:05Z</time>
      </trkpt>
      <trkpt lat="42.61639" lon="-0.19846">
        <ele>1380.4</ele>
        <time>2017-07-30T09:31:06Z</time>
      </trkpt>
      <trkpt lat="42.61637" lon="-0.19849">
        <ele>1380.5</ele>
        <time>2017-07-30T09:31:07Z</time>
      </trkpt>
      <trkpt lat="42.61633" lon="-0.19854">
        <ele>1380.9</ele>
        <time>2017-07-30T09:31:09Z</time>
      </trkpt>
      <trkpt lat="42.61629" lon="-0.19858">
        <ele>1381.2</ele>
        <time>2017-07-30T09:31:11Z</time>
      </trkpt>
      <trkpt lat="42.61624" lon="-0.19861">
        <ele>1381.8</ele>
        <time>2017-07-30T09:31:13Z</time>
      </trkpt>
      <trkpt lat="42.6162" lon="-0.19865">
        <ele>1382.4</ele>
        <time>2017-07-30T09:31:15Z</time>
      </trkpt>
      <trkpt lat="42.61616" lon="-0.19869">
        <ele>1382.8</ele>
        <time>2017-07-30T09:31:17Z</time>
      </trkpt>
      <trkpt lat="42.61611" lon="-0.19873">
        <ele>1383.2</ele>
        <time>2017-07-30T09:31:19Z</time>
      </trkpt>
      <trkpt lat="42.61607" lon="-0.19877">
        <ele>1383.6</ele>
        <time>2017-07-30T09:31:21Z</time>
      </trkpt>
      <trkpt lat="42.61603" lon="-0.19881">
        <ele>1384.2</ele>
        <time>2017-07-30T09:31:23Z</time>
      </trkpt>
      <trkpt lat="42.61599" lon="-0.19885">
        <ele>1384.7</ele>
        <time>2017-07-30T09:31:25Z</time>
      </trkpt>
      <trkpt lat="42.61596" lon="-0.1989">
        <ele>1385.2</ele>
        <time>2017-07-30T09:31:27Z</time>
      </trkpt>
      <trkpt lat="42.61593" lon="-0.19895">
        <ele>1385.5</ele>
        <time>2017-07-30T09:31:29Z</time>
      </trkpt>
      <trkpt lat="42.6159" lon="-0.19901">
        <ele>1385.8</ele>
        <time>2017-07-30T09:31:31Z</time>
      </trkpt>
      <trkpt lat="42.61587" lon="-0.19906">
        <ele>1386.3</ele>
        <time>2017-07-30T09:31:33Z</time>
      </trkpt>
      <trkpt lat="42.61583" lon="-0.19911">
        <ele>1386.8</ele>
        <time>2017-07-30T09:31:35Z</time>
      </trkpt>
      <trkpt lat="42.61579" lon="-0.19916">
        <ele>1387.2</ele>
        <time>2017-07-30T09:31:37Z</time>
      </trkpt>
      <trkpt lat="42.61575" lon="-0.19919">
        <ele>1387.6</ele>
        <time>2017-07-30T09:31:39Z</time>
      </trkpt>
      <trkpt lat="42.61571" lon="-0.19923">
        <ele>1388</ele>
        <time>2017-07-30T09:31:41Z</time>
      </trkpt>
      <trkpt lat="42.61566" lon="-0.19925">
        <ele>1388.4</ele>
        <time>2017-07-30T09:31:43Z</time>
      </trkpt>
      <trkpt lat="42.61562" lon="-0.19928">
        <ele>1388.9</ele>
        <time>2017-07-30T09:31:45Z</time>
      </trkpt>
      <trkpt lat="42.61557" lon="-0.19932">
        <ele>1389.3</ele>
        <time>2017-07-30T09:31:47Z</time>
      </trkpt>
      <trkpt lat="42.61553" lon="-0.19935">
        <ele>1389.8</ele>
        <time>2017-07-30T09:31:49Z</time>
      </trkpt>
      <trkpt lat="42.61549" lon="-0.19939">
        <ele>1390.2</ele>
        <time>2017-07-30T09:31:51Z</time>
      </trkpt>
      <trkpt lat="42.61546" lon="-0.19944">
        <ele>1390.6</ele>
        <time>2017-07-30T09:31:53Z</time>
      </trkpt>
      <trkpt lat="42.61543" lon="-0.1995">
        <ele>1391.2</ele>
        <time>2017-07-30T09:31:55Z</time>
      </trkpt>
      <trkpt lat="42.6154" lon="-0.19956">
        <ele>1391.8</ele>
        <time>2017-07-30T09:31:57Z</time>
      </trkpt>
      <trkpt lat="42.61538" lon="-0.19961">
        <ele>1392.3</ele>
        <time>2017-07-30T09:31:59Z</time>
      </trkpt>
      <trkpt lat="42.61535" lon="-0.19967">
        <ele>1392.7</ele>
        <time>2017-07-30T09:32:01Z</time>
      </trkpt>
      <trkpt lat="42.61531" lon="-0.19972">
        <ele>1393.1</ele>
        <time>2017-07-30T09:32:03Z</time>
      </trkpt>
      <trkpt lat="42.61528" lon="-0.19977">
        <ele>1393.6</ele>
        <time>2017-07-30T09:32:05Z</time>
      </trkpt>
      <trkpt lat="42.61524" lon="-0.19981">
        <ele>1394.1</ele>
        <time>2017-07-30T09:32:07Z</time>
      </trkpt>
      <trkpt lat="42.6152" lon="-0.19985">
        <ele>1394.7</ele>
        <time>2017-07-30T09:32:09Z</time>
      </trkpt>
      <trkpt lat="42.61516" lon="-0.19987">
        <ele>1395.1</ele>
        <time>2017-07-30T09:32:11Z</time>
      </trkpt>
      <trkpt lat="42.61511" lon="-0.1999">
        <ele>1395.5</ele>
        <time>2017-07-30T09:32:13Z</time>
      </trkpt>
      <trkpt lat="42.61507" lon="-0.19992">
        <ele>1395.8</ele>
        <time>2017-07-30T09:32:15Z</time>
      </trkpt>
      <trkpt lat="42.61502" lon="-0.19994">
        <ele>1396.2</ele>
        <time>2017-07-30T09:32:17Z</time>
      </trkpt>
      <trkpt lat="42.61497" lon="-0.19995">
        <ele>1396.7</ele>
        <time>2017-07-30T09:32:19Z</time>
      </trkpt>
      <trkpt lat="42.61492" lon="-0.19996">
        <ele>1397.2</ele>
        <time>2017-07-30T09:32:21Z</time>
      </trkpt>
      <trkpt lat="42.61488" lon="-0.19997">
        <ele>1397.6</ele>
        <time>2017-07-30T09:32:23Z</time>
      </trkpt>
      <trkpt lat="42.61483" lon="-0.19999">
        <ele>1397.9</ele>
        <time>2017-07-30T09:32:25Z</time>
      </trkpt>
      <trkpt lat="42.61478" lon="-0.20001">
        <ele>1398.2</ele>
        <time>2017-07-30T09:32:27Z</time>
      </trkpt>
      <trkpt lat="42.61474" lon="-0.20004">
        <ele>1398.7</ele>
        <time>2017-07-30T09:32:29Z</time>
      </trkpt>
      <trkpt lat="42.6147" lon="-0.20006">
        <ele>1399.3</ele>
        <time>2017-07-30T09:32:31Z</time>
      </trkpt>
      <trkpt lat="42.61465" lon="-0.20009">
        <ele>1399.9</ele>
        <time>2017-07-30T09:32:33Z</time>
      </trkpt>
      <trkpt lat="42.6146" lon="-0.20012">
        <ele>1400.3</ele>
        <time>2017-07-30T09:32:35Z</time>
      </trkpt>
      <trkpt lat="42.61456" lon="-0.20015">
        <ele>1400.7</ele>
        <time>2017-07-30T09:32:37Z</time>
      </trkpt>
      <trkpt lat="42.61451" lon="-0.20019">
        <ele>1401.3</ele>
        <time>2017-07-30T09:32:39Z</time>
      </trkpt>
      <trkpt lat="42.61447" lon="-0.20023">
        <ele>1401.8</ele>
        <time>2017-07-30T09:32:41Z</time>
      </trkpt>
      <trkpt lat="42.61443" lon="-0.20027">
        <ele>1402.3</ele>
        <time>2017-07-30T09:32:43Z</time>
      </trkpt>
      <trkpt lat="42.61439" lon="-0.2003">
        <ele>1402.6</ele>
        <time>2017-07-30T09:32:45Z</time>
      </trkpt>
      <trkpt lat="42.61434" lon="-0.20034">
        <ele>1402.9</ele>
        <time>2017-07-30T09:32:47Z</time>
      </trkpt>
      <trkpt lat="42.6143" lon="-0.20038">
        <ele>1403.3</ele>
        <time>2017-07-30T09:32:49Z</time>
      </trkpt>
      <trkpt lat="42.61426" lon="-0.20042">
        <ele>1403.8</ele>
        <time>2017-07-30T09:32:51Z</time>
      </trkpt>
      <trkpt lat="42.61422" lon="-0.20046">
        <ele>1404.3</ele>
        <time>2017-07-30T09:32:53Z</time>
      </trkpt>
      <trkpt lat="42.61419" lon="-0.20051">
        <ele>1404.7</ele>
        <time>2017-07-30T09:32:55Z</time>
      </trkpt>
      <trkpt lat="42.61415" lon="-0.20056">
        <ele>1405.1</ele>
        <time>2017-07-30T09:32:57Z</time>
      </trkpt>
      <trkpt lat="42.61412" lon="-0.20061">
        <ele>1405.4</ele>
        <time>2017-07-30T09:32:59Z</time>
      </trkpt>
      <trkpt lat="42.61409" lon="-0.20066">
        <ele>1405.6</ele>
        <time>2017-07-30T09:33:01Z</time>
      </trkpt>
      <trkpt lat="42.61407" lon="-0.20071">
        <ele>1406.1</ele>
        <time>2017-07-30T09:33:03Z</time>
      </trkpt>
      <trkpt lat="42.61404" lon="-0.20077">
        <ele>1406.7</ele>
        <time>2017-07-30T09:33:05Z</time>
      </trkpt>
      <trkpt lat="42.61401" lon="-0.20083">
        <ele>1407.2</ele>
        <time>2017-07-30T09:33:07Z</time>
      </trkpt>
      <trkpt lat="42.61398" lon="-0.20088">
        <ele>1407.7</ele>
        <time>2017-07-30T09:33:09Z</time>
      </trkpt>
      <trkpt lat="42.61396" lon="-0.20094">
        <ele>1408.1</ele>
        <time>2017-07-30T09:33:11Z</time>
      </trkpt>
      <trkpt lat="42.61393" lon="-0.201">
        <ele>1408.7</ele>
        <time>2017-07-30T09:33:13Z</time>
      </trkpt>
      <trkpt lat="42.6139" lon="-0.20105">
        <ele>1409.2</ele>
        <time>2017-07-30T09:33:15Z</time>
      </trkpt>
      <trkpt lat="42.61386" lon="-0.2011">
        <ele>1409.6</ele>
        <time>2017-07-30T09:33:17Z</time>
      </trkpt>
      <trkpt lat="42.61381" lon="-0.20113">
        <ele>1410</ele>
        <time>2017-07-30T09:33:19Z</time>
      </trkpt>
      <trkpt lat="42.61376" lon="-0.20115">
        <ele>1410.3</ele>
        <time>2017-07-30T09:33:21Z</time>
      </trkpt>
      <trkpt lat="42.61371" lon="-0.20117">
        <ele>1410.7</ele>
        <time>2017-07-30T09:33:23Z</time>
      </trkpt>
      <trkpt lat="42.61366" lon="-0.20118">
        <ele>1411.2</ele>
        <time>2017-07-30T09:33:25Z</time>
      </trkpt>
      <trkpt lat="42.61361" lon="-0.20119">
        <ele>1411.7</ele>
        <time>2017-07-30T09:33:27Z</time>
      </trkpt>
      <trkpt lat="42.61356" lon="-0.2012">
        <ele>1412.1</ele>
        <time>2017-07-30T09:33:29Z</time>
      </trkpt>
      <trkpt lat="42.6135" lon="-0.20121">
        <ele>1412.4</ele>
        <time>2017-07-30T09:33:31Z</time>
      </trkpt>
      <trkpt lat="42.61345" lon="-0.20123">
        <ele>1412.7</ele>
        <time>2017-07-30T09:33:33Z</time>
      </trkpt>
      <trkpt lat="42.61343" lon="-0.20123">
        <ele>1412.9</ele>
        <time>2017-07-30T09:33:34Z</time>
      </trkpt>
      <trkpt lat="42.61337" lon="-0.20125">
        <ele>1413.4</ele>
        <time>2017-07-30T09:33:36Z</time>
      </trkpt>
      <trkpt lat="42.61335" lon="-0.20126">
        <ele>1413.7</ele>
        <time>2017-07-30T09:33:37Z</time>
      </trkpt>
      <trkpt lat="42.61332" lon="-0.20127">
        <ele>1414</ele>
        <time>2017-07-30T09:33:38Z</time>
      </trkpt>
      <trkpt lat="42.61329" lon="-0.20128">
        <ele>1414.3</ele>
        <time>2017-07-30T09:33:39Z</time>
      </trkpt>
      <trkpt lat="42.61327" lon="-0.20129">
        <ele>1414.5</ele>
        <time>2017-07-30T09:33:40Z</time>
      </trkpt>
      <trkpt lat="42.61324" lon="-0.20131">
        <ele>1414.7</ele>
        <time>2017-07-30T09:33:41Z</time>
      </trkpt>
      <trkpt lat="42.61321" lon="-0.20132">
        <ele>1414.9</ele>
        <time>2017-07-30T09:33:42Z</time>
      </trkpt>
      <trkpt lat="42.61319" lon="-0.20133">
        <ele>1415.1</ele>
        <time>2017-07-30T09:33:43Z</time>
      </trkpt>
      <trkpt lat="42.61316" lon="-0.20135">
        <ele>1415.4</ele>
        <time>2017-07-30T09:33:44Z</time>
      </trkpt>
      <trkpt lat="42.61314" lon="-0.20137">
        <ele>1415.6</ele>
        <time>2017-07-30T09:33:45Z</time>
      </trkpt>
      <trkpt lat="42.61311" lon="-0.20139">
        <ele>1415.9</ele>
        <time>2017-07-30T09:33:46Z</time>
      </trkpt>
      <trkpt lat="42.61309" lon="-0.20142">
        <ele>1416.1</ele>
        <time>2017-07-30T09:33:47Z</time>
      </trkpt>
      <trkpt lat="42.61307" lon="-0.20145">
        <ele>1416.3</ele>
        <time>2017-07-30T09:33:48Z</time>
      </trkpt>
      <trkpt lat="42.61304" lon="-0.20147">
        <ele>1416.5</ele>
        <time>2017-07-30T09:33:49Z</time>
      </trkpt>
      <trkpt lat="42.61301" lon="-0.20149">
        <ele>1416.7</ele>
        <time>2017-07-30T09:33:50Z</time>
      </trkpt>
      <trkpt lat="42.61299" lon="-0.2015">
        <ele>1416.8</ele>
        <time>2017-07-30T09:33:51Z</time>
      </trkpt>
      <trkpt lat="42.61296" lon="-0.20151">
        <ele>1416.9</ele>
        <time>2017-07-30T09:33:52Z</time>
      </trkpt>
      <trkpt lat="42.61291" lon="-0.20153">
        <ele>1416.1</ele>
        <time>2017-07-30T09:33:54Z</time>
      </trkpt>
      <trkpt lat="42.61288" lon="-0.20157">
        <ele>1415.8</ele>
        <time>2017-07-30T09:33:56Z</time>
      </trkpt>
      <trkpt lat="42.61281" lon="-0.20161">
        <ele>1415.7</ele>
        <time>2017-07-30T09:33:58Z</time>
      </trkpt>
      <trkpt lat="42.61276" lon="-0.20161">
        <ele>1415.7</ele>
        <time>2017-07-30T09:35:03Z</time>
      </trkpt>
      <trkpt lat="42.6127" lon="-0.20161">
        <ele>1415.7</ele>
        <time>2017-07-30T09:35:51Z</time>
      </trkpt>
      <trkpt lat="42.61265" lon="-0.20162">
        <ele>1416.2</ele>
        <time>2017-07-30T09:35:52Z</time>
      </trkpt>
      <trkpt lat="42.6126" lon="-0.20164">
        <ele>1416.5</ele>
        <time>2017-07-30T09:35:53Z</time>
      </trkpt>
      <trkpt lat="42.61253" lon="-0.20166">
        <ele>1417.1</ele>
        <time>2017-07-30T09:35:54Z</time>
      </trkpt>
      <trkpt lat="42.61247" lon="-0.20167">
        <ele>1417.4</ele>
        <time>2017-07-30T09:35:55Z</time>
      </trkpt>
      <trkpt lat="42.6124" lon="-0.20165">
        <ele>1417</ele>
        <time>2017-07-30T09:35:56Z</time>
      </trkpt>
      <trkpt lat="42.61235" lon="-0.20167">
        <ele>1417</ele>
        <time>2017-07-30T09:35:57Z</time>
      </trkpt>
      <trkpt lat="42.61231" lon="-0.20171">
        <ele>1417.7</ele>
        <time>2017-07-30T09:35:58Z</time>
      </trkpt>
      <trkpt lat="42.61226" lon="-0.20174">
        <ele>1418.2</ele>
        <time>2017-07-30T09:35:59Z</time>
      </trkpt>
      <trkpt lat="42.6122" lon="-0.20179">
        <ele>1418.9</ele>
        <time>2017-07-30T09:36:00Z</time>
      </trkpt>
      <trkpt lat="42.61213" lon="-0.20183">
        <ele>1419.9</ele>
        <time>2017-07-30T09:36:01Z</time>
      </trkpt>
      <trkpt lat="42.61208" lon="-0.20186">
        <ele>1421.1</ele>
        <time>2017-07-30T09:36:02Z</time>
      </trkpt>
      <trkpt lat="42.61203" lon="-0.20189">
        <ele>1422.2</ele>
        <time>2017-07-30T09:36:03Z</time>
      </trkpt>
      <trkpt lat="42.612" lon="-0.20192">
        <ele>1423.1</ele>
        <time>2017-07-30T09:36:04Z</time>
      </trkpt>
      <trkpt lat="42.61197" lon="-0.20194">
        <ele>1423.8</ele>
        <time>2017-07-30T09:36:05Z</time>
      </trkpt>
      <trkpt lat="42.61193" lon="-0.20196">
        <ele>1424.7</ele>
        <time>2017-07-30T09:36:07Z</time>
      </trkpt>
      <trkpt lat="42.61189" lon="-0.20199">
        <ele>1425.6</ele>
        <time>2017-07-30T09:36:09Z</time>
      </trkpt>
      <trkpt lat="42.61186" lon="-0.202">
        <ele>1426.4</ele>
        <time>2017-07-30T09:36:11Z</time>
      </trkpt>
      <trkpt lat="42.61183" lon="-0.20202">
        <ele>1427.2</ele>
        <time>2017-07-30T09:36:13Z</time>
      </trkpt>
      <trkpt lat="42.6118" lon="-0.20203">
        <ele>1428</ele>
        <time>2017-07-30T09:36:15Z</time>
      </trkpt>
      <trkpt lat="42.61177" lon="-0.20205">
        <ele>1428.8</ele>
        <time>2017-07-30T09:36:17Z</time>
      </trkpt>
      <trkpt lat="42.61173" lon="-0.20207">
        <ele>1429.9</ele>
        <time>2017-07-30T09:36:19Z</time>
      </trkpt>
      <trkpt lat="42.6117" lon="-0.20208">
        <ele>1431</ele>
        <time>2017-07-30T09:36:21Z</time>
      </trkpt>
      <trkpt lat="42.61168" lon="-0.2021">
        <ele>1432</ele>
        <time>2017-07-30T09:36:23Z</time>
      </trkpt>
      <trkpt lat="42.61165" lon="-0.20211">
        <ele>1432.7</ele>
        <time>2017-07-30T09:36:25Z</time>
      </trkpt>
      <trkpt lat="42.61162" lon="-0.20212">
        <ele>1433.5</ele>
        <time>2017-07-30T09:36:27Z</time>
      </trkpt>
      <trkpt lat="42.61159" lon="-0.20213">
        <ele>1434.6</ele>
        <time>2017-07-30T09:36:30Z</time>
      </trkpt>
      <trkpt lat="42.61155" lon="-0.20215">
        <ele>1435.7</ele>
        <time>2017-07-30T09:36:33Z</time>
      </trkpt>
      <trkpt lat="42.61151" lon="-0.20217">
        <ele>1436.9</ele>
        <time>2017-07-30T09:36:36Z</time>
      </trkpt>
      <trkpt lat="42.61148" lon="-0.20219">
        <ele>1438.4</ele>
        <time>2017-07-30T09:36:39Z</time>
      </trkpt>
      <trkpt lat="42.61144" lon="-0.20222">
        <ele>1439.8</ele>
        <time>2017-07-30T09:36:42Z</time>
      </trkpt>
      <trkpt lat="42.61142" lon="-0.20225">
        <ele>1440.9</ele>
        <time>2017-07-30T09:36:45Z</time>
      </trkpt>
      <trkpt lat="42.61139" lon="-0.20228">
        <ele>1442</ele>
        <time>2017-07-30T09:36:48Z</time>
      </trkpt>
      <trkpt lat="42.61136" lon="-0.20232">
        <ele>1443.1</ele>
        <time>2017-07-30T09:36:51Z</time>
      </trkpt>
      <trkpt lat="42.61133" lon="-0.20235">
        <ele>1444.2</ele>
        <time>2017-07-30T09:36:54Z</time>
      </trkpt>
      <trkpt lat="42.61129" lon="-0.20236">
        <ele>1445.8</ele>
        <time>2017-07-30T09:36:57Z</time>
      </trkpt>
      <trkpt lat="42.61125" lon="-0.20237">
        <ele>1447.5</ele>
        <time>2017-07-30T09:37:00Z</time>
      </trkpt>
      <trkpt lat="42.61122" lon="-0.20238">
        <ele>1448.6</ele>
        <time>2017-07-30T09:37:03Z</time>
      </trkpt>
      <trkpt lat="42.61118" lon="-0.20238">
        <ele>1449.6</ele>
        <time>2017-07-30T09:37:06Z</time>
      </trkpt>
      <trkpt lat="42.61115" lon="-0.20238">
        <ele>1450.6</ele>
        <time>2017-07-30T09:37:09Z</time>
      </trkpt>
      <trkpt lat="42.61112" lon="-0.20238">
        <ele>1451.7</ele>
        <time>2017-07-30T09:37:12Z</time>
      </trkpt>
      <trkpt lat="42.61109" lon="-0.20237">
        <ele>1452.9</ele>
        <time>2017-07-30T09:37:15Z</time>
      </trkpt>
      <trkpt lat="42.61106" lon="-0.20236">
        <ele>1454.1</ele>
        <time>2017-07-30T09:37:18Z</time>
      </trkpt>
      <trkpt lat="42.61103" lon="-0.20235">
        <ele>1455.4</ele>
        <time>2017-07-30T09:37:21Z</time>
      </trkpt>
      <trkpt lat="42.611" lon="-0.20234">
        <ele>1456.6</ele>
        <time>2017-07-30T09:37:24Z</time>
      </trkpt>
      <trkpt lat="42.61097" lon="-0.20233">
        <ele>1458.1</ele>
        <time>2017-07-30T09:37:27Z</time>
      </trkpt>
      <trkpt lat="42.61093" lon="-0.20233">
        <ele>1459.9</ele>
        <time>2017-07-30T09:37:30Z</time>
      </trkpt>
      <trkpt lat="42.6109" lon="-0.20232">
        <ele>1461.8</ele>
        <time>2017-07-30T09:37:33Z</time>
      </trkpt>
      <trkpt lat="42.61087" lon="-0.20231">
        <ele>1463.7</ele>
        <time>2017-07-30T09:37:36Z</time>
      </trkpt>
      <trkpt lat="42.61084" lon="-0.20231">
        <ele>1465.6</ele>
        <time>2017-07-30T09:37:39Z</time>
      </trkpt>
      <trkpt lat="42.61081" lon="-0.20231">
        <ele>1467.4</ele>
        <time>2017-07-30T09:37:42Z</time>
      </trkpt>
      <trkpt lat="42.61078" lon="-0.20232">
        <ele>1468.6</ele>
        <time>2017-07-30T09:37:45Z</time>
      </trkpt>
      <trkpt lat="42.61075" lon="-0.20234">
        <ele>1469.4</ele>
        <time>2017-07-30T09:37:48Z</time>
      </trkpt>
      <trkpt lat="42.61072" lon="-0.20235">
        <ele>1470.2</ele>
        <time>2017-07-30T09:37:51Z</time>
      </trkpt>
      <trkpt lat="42.61069" lon="-0.20236">
        <ele>1471</ele>
        <time>2017-07-30T09:37:54Z</time>
      </trkpt>
      <trkpt lat="42.61065" lon="-0.20237">
        <ele>1471.8</ele>
        <time>2017-07-30T09:37:57Z</time>
      </trkpt>
      <trkpt lat="42.61062" lon="-0.20238">
        <ele>1472.8</ele>
        <time>2017-07-30T09:38:00Z</time>
      </trkpt>
      <trkpt lat="42.61059" lon="-0.20239">
        <ele>1473.7</ele>
        <time>2017-07-30T09:38:03Z</time>
      </trkpt>
      <trkpt lat="42.61055" lon="-0.2024">
        <ele>1474.7</ele>
        <time>2017-07-30T09:38:06Z</time>
      </trkpt>
      <trkpt lat="42.61052" lon="-0.20242">
        <ele>1475.5</ele>
        <time>2017-07-30T09:38:09Z</time>
      </trkpt>
      <trkpt lat="42.61049" lon="-0.20244">
        <ele>1476.3</ele>
        <time>2017-07-30T09:38:12Z</time>
      </trkpt>
      <trkpt lat="42.61045" lon="-0.20244">
        <ele>1477.6</ele>
        <time>2017-07-30T09:38:15Z</time>
      </trkpt>
      <trkpt lat="42.61041" lon="-0.20244">
        <ele>1479.1</ele>
        <time>2017-07-30T09:38:18Z</time>
      </trkpt>
      <trkpt lat="42.61038" lon="-0.20244">
        <ele>1480.3</ele>
        <time>2017-07-30T09:38:20Z</time>
      </trkpt>
      <trkpt lat="42.61035" lon="-0.20245">
        <ele>1481.6</ele>
        <time>2017-07-30T09:38:22Z</time>
      </trkpt>
      <trkpt lat="42.61032" lon="-0.20246">
        <ele>1482.8</ele>
        <time>2017-07-30T09:38:24Z</time>
      </trkpt>
      <trkpt lat="42.61029" lon="-0.20247">
        <ele>1484.3</ele>
        <time>2017-07-30T09:38:26Z</time>
      </trkpt>
      <trkpt lat="42.61026" lon="-0.20248">
        <ele>1486.2</ele>
        <time>2017-07-30T09:38:28Z</time>
      </trkpt>
      <trkpt lat="42.61023" lon="-0.20249">
        <ele>1487.3</ele>
        <time>2017-07-30T09:38:30Z</time>
      </trkpt>
      <trkpt lat="42.6102" lon="-0.2025">
        <ele>1488.2</ele>
        <time>2017-07-30T09:38:32Z</time>
      </trkpt>
      <trkpt lat="42.61017" lon="-0.20251">
        <ele>1489.1</ele>
        <time>2017-07-30T09:38:34Z</time>
      </trkpt>
      <trkpt lat="42.61014" lon="-0.20252">
        <ele>1490</ele>
        <time>2017-07-30T09:38:36Z</time>
      </trkpt>
      <trkpt lat="42.61012" lon="-0.20253">
        <ele>1490.8</ele>
        <time>2017-07-30T09:38:38Z</time>
      </trkpt>
      <trkpt lat="42.61008" lon="-0.20254">
        <ele>1491.8</ele>
        <time>2017-07-30T09:38:41Z</time>
      </trkpt>
      <trkpt lat="42.61005" lon="-0.20256">
        <ele>1493</ele>
        <time>2017-07-30T09:38:44Z</time>
      </trkpt>
      <trkpt lat="42.61003" lon="-0.2026">
        <ele>1494.2</ele>
        <time>2017-07-30T09:38:47Z</time>
      </trkpt>
      <trkpt lat="42.61003" lon="-0.20265">
        <ele>1495.6</ele>
        <time>2017-07-30T09:38:50Z</time>
      </trkpt>
      <trkpt lat="42.61004" lon="-0.20269">
        <ele>1496.4</ele>
        <time>2017-07-30T09:38:52Z</time>
      </trkpt>
      <trkpt lat="42.61006" lon="-0.20272">
        <ele>1495.9</ele>
        <time>2017-07-30T09:38:54Z</time>
      </trkpt>
      <trkpt lat="42.61008" lon="-0.20275">
        <ele>1495.5</ele>
        <time>2017-07-30T09:38:56Z</time>
      </trkpt>
      <trkpt lat="42.61011" lon="-0.20278">
        <ele>1495.4</ele>
        <time>2017-07-30T09:38:58Z</time>
      </trkpt>
      <trkpt lat="42.61015" lon="-0.2028">
        <ele>1495.1</ele>
        <time>2017-07-30T09:39:00Z</time>
      </trkpt>
      <trkpt lat="42.61018" lon="-0.20283">
        <ele>1494.7</ele>
        <time>2017-07-30T09:39:02Z</time>
      </trkpt>
      <trkpt lat="42.61021" lon="-0.20286">
        <ele>1494.5</ele>
        <time>2017-07-30T09:39:04Z</time>
      </trkpt>
      <trkpt lat="42.61024" lon="-0.20288">
        <ele>1494.2</ele>
        <time>2017-07-30T09:39:06Z</time>
      </trkpt>
      <trkpt lat="42.61027" lon="-0.2029">
        <ele>1494.1</ele>
        <time>2017-07-30T09:39:08Z</time>
      </trkpt>
      <trkpt lat="42.6103" lon="-0.20291">
        <ele>1494.2</ele>
        <time>2017-07-30T09:39:10Z</time>
      </trkpt>
      <trkpt lat="42.61033" lon="-0.20293">
        <ele>1494.3</ele>
        <time>2017-07-30T09:39:12Z</time>
      </trkpt>
      <trkpt lat="42.61036" lon="-0.20295">
        <ele>1494.5</ele>
        <time>2017-07-30T09:39:14Z</time>
      </trkpt>
      <trkpt lat="42.61039" lon="-0.20297">
        <ele>1494.8</ele>
        <time>2017-07-30T09:39:16Z</time>
      </trkpt>
      <trkpt lat="42.61042" lon="-0.20299">
        <ele>1495.2</ele>
        <time>2017-07-30T09:39:18Z</time>
      </trkpt>
      <trkpt lat="42.61044" lon="-0.20301">
        <ele>1495.7</ele>
        <time>2017-07-30T09:39:20Z</time>
      </trkpt>
      <trkpt lat="42.61047" lon="-0.20304">
        <ele>1496.3</ele>
        <time>2017-07-30T09:39:22Z</time>
      </trkpt>
      <trkpt lat="42.6105" lon="-0.20306">
        <ele>1497</ele>
        <time>2017-07-30T09:39:24Z</time>
      </trkpt>
      <trkpt lat="42.61054" lon="-0.20308">
        <ele>1498</ele>
        <time>2017-07-30T09:39:26Z</time>
      </trkpt>
      <trkpt lat="42.61057" lon="-0.2031">
        <ele>1499.2</ele>
        <time>2017-07-30T09:39:28Z</time>
      </trkpt>
      <trkpt lat="42.61061" lon="-0.20312">
        <ele>1500.8</ele>
        <time>2017-07-30T09:39:30Z</time>
      </trkpt>
      <trkpt lat="42.61064" lon="-0.20315">
        <ele>1502.2</ele>
        <time>2017-07-30T09:39:32Z</time>
      </trkpt>
      <trkpt lat="42.61067" lon="-0.20317">
        <ele>1503.5</ele>
        <time>2017-07-30T09:39:34Z</time>
      </trkpt>
      <trkpt lat="42.6107" lon="-0.20319">
        <ele>1504.8</ele>
        <time>2017-07-30T09:39:36Z</time>
      </trkpt>
      <trkpt lat="42.61074" lon="-0.20322">
        <ele>1506.1</ele>
        <time>2017-07-30T09:39:38Z</time>
      </trkpt>
      <trkpt lat="42.61077" lon="-0.20324">
        <ele>1506.6</ele>
        <time>2017-07-30T09:39:40Z</time>
      </trkpt>
      <trkpt lat="42.61081" lon="-0.20324">
        <ele>1507.2</ele>
        <time>2017-07-30T09:39:42Z</time>
      </trkpt>
      <trkpt lat="42.61085" lon="-0.20325">
        <ele>1508.2</ele>
        <time>2017-07-30T09:39:44Z</time>
      </trkpt>
      <trkpt lat="42.6109" lon="-0.20326">
        <ele>1509.3</ele>
        <time>2017-07-30T09:39:46Z</time>
      </trkpt>
      <trkpt lat="42.61093" lon="-0.20328">
        <ele>1509.9</ele>
        <time>2017-07-30T09:39:48Z</time>
      </trkpt>
      <trkpt lat="42.61097" lon="-0.20329">
        <ele>1510.5</ele>
        <time>2017-07-30T09:39:50Z</time>
      </trkpt>
      <trkpt lat="42.61101" lon="-0.20331">
        <ele>1510.8</ele>
        <time>2017-07-30T09:39:52Z</time>
      </trkpt>
      <trkpt lat="42.61104" lon="-0.20332">
        <ele>1510.8</ele>
        <time>2017-07-30T09:39:54Z</time>
      </trkpt>
      <trkpt lat="42.61108" lon="-0.20333">
        <ele>1510.9</ele>
        <time>2017-07-30T09:39:56Z</time>
      </trkpt>
      <trkpt lat="42.61112" lon="-0.20334">
        <ele>1511.5</ele>
        <time>2017-07-30T09:39:58Z</time>
      </trkpt>
      <trkpt lat="42.61116" lon="-0.20335">
        <ele>1512</ele>
        <time>2017-07-30T09:40:00Z</time>
      </trkpt>
      <trkpt lat="42.6112" lon="-0.20336">
        <ele>1512</ele>
        <time>2017-07-30T09:40:02Z</time>
      </trkpt>
      <trkpt lat="42.61125" lon="-0.20338">
        <ele>1511.3</ele>
        <time>2017-07-30T09:40:04Z</time>
      </trkpt>
      <trkpt lat="42.61129" lon="-0.2034">
        <ele>1509.7</ele>
        <time>2017-07-30T09:40:06Z</time>
      </trkpt>
      <trkpt lat="42.61134" lon="-0.20341">
        <ele>1508.9</ele>
        <time>2017-07-30T09:40:08Z</time>
      </trkpt>
      <trkpt lat="42.61138" lon="-0.20342">
        <ele>1508.9</ele>
        <time>2017-07-30T09:40:10Z</time>
      </trkpt>
      <trkpt lat="42.61143" lon="-0.20344">
        <ele>1508.6</ele>
        <time>2017-07-30T09:40:12Z</time>
      </trkpt>
      <trkpt lat="42.61147" lon="-0.20346">
        <ele>1508.2</ele>
        <time>2017-07-30T09:40:14Z</time>
      </trkpt>
      <trkpt lat="42.6115" lon="-0.20347">
        <ele>1508.2</ele>
        <time>2017-07-30T09:40:16Z</time>
      </trkpt>
      <trkpt lat="42.61153" lon="-0.20349">
        <ele>1508.5</ele>
        <time>2017-07-30T09:40:18Z</time>
      </trkpt>
      <trkpt lat="42.61156" lon="-0.20352">
        <ele>1509.5</ele>
        <time>2017-07-30T09:40:20Z</time>
      </trkpt>
      <trkpt lat="42.61158" lon="-0.20355">
        <ele>1510.9</ele>
        <time>2017-07-30T09:40:22Z</time>
      </trkpt>
      <trkpt lat="42.6116" lon="-0.20358">
        <ele>1511.1</ele>
        <time>2017-07-30T09:40:24Z</time>
      </trkpt>
      <trkpt lat="42.61162" lon="-0.20361">
        <ele>1510.7</ele>
        <time>2017-07-30T09:40:26Z</time>
      </trkpt>
      <trkpt lat="42.61164" lon="-0.20366">
        <ele>1510.9</ele>
        <time>2017-07-30T09:40:29Z</time>
      </trkpt>
      <trkpt lat="42.61166" lon="-0.20371">
        <ele>1511.6</ele>
        <time>2017-07-30T09:40:32Z</time>
      </trkpt>
      <trkpt lat="42.61168" lon="-0.20374">
        <ele>1512.2</ele>
        <time>2017-07-30T09:40:34Z</time>
      </trkpt>
      <trkpt lat="42.6117" lon="-0.20377">
        <ele>1513</ele>
        <time>2017-07-30T09:40:36Z</time>
      </trkpt>
      <trkpt lat="42.61171" lon="-0.2038">
        <ele>1513.8</ele>
        <time>2017-07-30T09:40:38Z</time>
      </trkpt>
      <trkpt lat="42.61173" lon="-0.20383">
        <ele>1514.6</ele>
        <time>2017-07-30T09:40:40Z</time>
      </trkpt>
      <trkpt lat="42.61175" lon="-0.20386">
        <ele>1515.2</ele>
        <time>2017-07-30T09:40:42Z</time>
      </trkpt>
      <trkpt lat="42.61178" lon="-0.20389">
        <ele>1515.8</ele>
        <time>2017-07-30T09:40:44Z</time>
      </trkpt>
      <trkpt lat="42.61181" lon="-0.20391">
        <ele>1516.3</ele>
        <time>2017-07-30T09:40:46Z</time>
      </trkpt>
      <trkpt lat="42.61184" lon="-0.20392">
        <ele>1515.4</ele>
        <time>2017-07-30T09:40:48Z</time>
      </trkpt>
      <trkpt lat="42.61187" lon="-0.20394">
        <ele>1514.4</ele>
        <time>2017-07-30T09:40:50Z</time>
      </trkpt>
      <trkpt lat="42.6119" lon="-0.20396">
        <ele>1513.6</ele>
        <time>2017-07-30T09:40:52Z</time>
      </trkpt>
      <trkpt lat="42.61192" lon="-0.20399">
        <ele>1513.2</ele>
        <time>2017-07-30T09:40:54Z</time>
      </trkpt>
      <trkpt lat="42.61195" lon="-0.20402">
        <ele>1512.7</ele>
        <time>2017-07-30T09:40:56Z</time>
      </trkpt>
      <trkpt lat="42.61197" lon="-0.20404">
        <ele>1512.6</ele>
        <time>2017-07-30T09:40:58Z</time>
      </trkpt>
      <trkpt lat="42.612" lon="-0.20406">
        <ele>1512.5</ele>
        <time>2017-07-30T09:41:00Z</time>
      </trkpt>
      <trkpt lat="42.61202" lon="-0.20408">
        <ele>1512.4</ele>
        <time>2017-07-30T09:41:02Z</time>
      </trkpt>
      <trkpt lat="42.61205" lon="-0.2041">
        <ele>1512.1</ele>
        <time>2017-07-30T09:41:04Z</time>
      </trkpt>
      <trkpt lat="42.61208" lon="-0.20413">
        <ele>1512.1</ele>
        <time>2017-07-30T09:41:06Z</time>
      </trkpt>
      <trkpt lat="42.6121" lon="-0.20415">
        <ele>1512.3</ele>
        <time>2017-07-30T09:41:08Z</time>
      </trkpt>
      <trkpt lat="42.61212" lon="-0.20417">
        <ele>1512.4</ele>
        <time>2017-07-30T09:41:10Z</time>
      </trkpt>
      <trkpt lat="42.61215" lon="-0.2042">
        <ele>1512.1</ele>
        <time>2017-07-30T09:41:12Z</time>
      </trkpt>
      <trkpt lat="42.61217" lon="-0.20422">
        <ele>1511.8</ele>
        <time>2017-07-30T09:41:14Z</time>
      </trkpt>
      <trkpt lat="42.6122" lon="-0.20424">
        <ele>1511.7</ele>
        <time>2017-07-30T09:41:16Z</time>
      </trkpt>
      <trkpt lat="42.61222" lon="-0.20426">
        <ele>1511.6</ele>
        <time>2017-07-30T09:41:18Z</time>
      </trkpt>
      <trkpt lat="42.61225" lon="-0.20427">
        <ele>1511.7</ele>
        <time>2017-07-30T09:41:20Z</time>
      </trkpt>
      <trkpt lat="42.61229" lon="-0.20426">
        <ele>1511.9</ele>
        <time>2017-07-30T09:41:22Z</time>
      </trkpt>
      <trkpt lat="42.61233" lon="-0.20426">
        <ele>1511.5</ele>
        <time>2017-07-30T09:41:24Z</time>
      </trkpt>
      <trkpt lat="42.61236" lon="-0.20425">
        <ele>1510.9</ele>
        <time>2017-07-30T09:41:26Z</time>
      </trkpt>
      <trkpt lat="42.6124" lon="-0.20424">
        <ele>1510.5</ele>
        <time>2017-07-30T09:41:28Z</time>
      </trkpt>
      <trkpt lat="42.61243" lon="-0.20423">
        <ele>1510.3</ele>
        <time>2017-07-30T09:41:30Z</time>
      </trkpt>
      <trkpt lat="42.61245" lon="-0.20422">
        <ele>1510</ele>
        <time>2017-07-30T09:41:32Z</time>
      </trkpt>
      <trkpt lat="42.61248" lon="-0.20421">
        <ele>1509.5</ele>
        <time>2017-07-30T09:41:34Z</time>
      </trkpt>
      <trkpt lat="42.61251" lon="-0.20419">
        <ele>1508.9</ele>
        <time>2017-07-30T09:41:36Z</time>
      </trkpt>
      <trkpt lat="42.61254" lon="-0.20417">
        <ele>1508.5</ele>
        <time>2017-07-30T09:41:38Z</time>
      </trkpt>
      <trkpt lat="42.61256" lon="-0.20414">
        <ele>1508.3</ele>
        <time>2017-07-30T09:41:40Z</time>
      </trkpt>
      <trkpt lat="42.61258" lon="-0.20411">
        <ele>1508.1</ele>
        <time>2017-07-30T09:41:42Z</time>
      </trkpt>
      <trkpt lat="42.6126" lon="-0.20408">
        <ele>1507.7</ele>
        <time>2017-07-30T09:41:44Z</time>
      </trkpt>
      <trkpt lat="42.61263" lon="-0.20406">
        <ele>1507.1</ele>
        <time>2017-07-30T09:41:46Z</time>
      </trkpt>
      <trkpt lat="42.61265" lon="-0.20404">
        <ele>1506.6</ele>
        <time>2017-07-30T09:41:48Z</time>
      </trkpt>
      <trkpt lat="42.61268" lon="-0.20401">
        <ele>1505.5</ele>
        <time>2017-07-30T09:41:50Z</time>
      </trkpt>
      <trkpt lat="42.6127" lon="-0.20398">
        <ele>1504.2</ele>
        <time>2017-07-30T09:41:52Z</time>
      </trkpt>
      <trkpt lat="42.61272" lon="-0.20394">
        <ele>1502.9</ele>
        <time>2017-07-30T09:41:54Z</time>
      </trkpt>
      <trkpt lat="42.61274" lon="-0.20389">
        <ele>1501.5</ele>
        <time>2017-07-30T09:41:56Z</time>
      </trkpt>
      <trkpt lat="42.61276" lon="-0.20385">
        <ele>1500.2</ele>
        <time>2017-07-30T09:41:58Z</time>
      </trkpt>
      <trkpt lat="42.61277" lon="-0.20381">
        <ele>1499.4</ele>
        <time>2017-07-30T09:42:00Z</time>
      </trkpt>
      <trkpt lat="42.61279" lon="-0.20377">
        <ele>1499.1</ele>
        <time>2017-07-30T09:42:02Z</time>
      </trkpt>
      <trkpt lat="42.61281" lon="-0.20374">
        <ele>1498.4</ele>
        <time>2017-07-30T09:42:05Z</time>
      </trkpt>
      <trkpt lat="42.61284" lon="-0.20373">
        <ele>1497.4</ele>
        <time>2017-07-30T09:42:10Z</time>
      </trkpt>
      <trkpt lat="42.61286" lon="-0.20376">
        <ele>1497.8</ele>
        <time>2017-07-30T09:42:17Z</time>
      </trkpt>
      <trkpt lat="42.61288" lon="-0.20379">
        <ele>1499.1</ele>
        <time>2017-07-30T09:42:20Z</time>
      </trkpt>
      <trkpt lat="42.61291" lon="-0.20382">
        <ele>1500.7</ele>
        <time>2017-07-30T09:42:23Z</time>
      </trkpt>
      <trkpt lat="42.61294" lon="-0.20384">
        <ele>1501.4</ele>
        <time>2017-07-30T09:42:26Z</time>
      </trkpt>
      <trkpt lat="42.61297" lon="-0.20388">
        <ele>1502.2</ele>
        <time>2017-07-30T09:42:29Z</time>
      </trkpt>
      <trkpt lat="42.61299" lon="-0.2039">
        <ele>1502.5</ele>
        <time>2017-07-30T09:42:31Z</time>
      </trkpt>
      <trkpt lat="42.61302" lon="-0.20393">
        <ele>1502.9</ele>
        <time>2017-07-30T09:42:33Z</time>
      </trkpt>
      <trkpt lat="42.61304" lon="-0.20397">
        <ele>1503.6</ele>
        <time>2017-07-30T09:42:35Z</time>
      </trkpt>
      <trkpt lat="42.61307" lon="-0.20399">
        <ele>1504.4</ele>
        <time>2017-07-30T09:42:37Z</time>
      </trkpt>
      <trkpt lat="42.61309" lon="-0.20401">
        <ele>1505.2</ele>
        <time>2017-07-30T09:42:39Z</time>
      </trkpt>
      <trkpt lat="42.61311" lon="-0.20404">
        <ele>1505.6</ele>
        <time>2017-07-30T09:42:41Z</time>
      </trkpt>
      <trkpt lat="42.61314" lon="-0.20407">
        <ele>1506</ele>
        <time>2017-07-30T09:42:43Z</time>
      </trkpt>
      <trkpt lat="42.61316" lon="-0.2041">
        <ele>1506.9</ele>
        <time>2017-07-30T09:42:45Z</time>
      </trkpt>
      <trkpt lat="42.61319" lon="-0.20413">
        <ele>1508.7</ele>
        <time>2017-07-30T09:42:48Z</time>
      </trkpt>
      <trkpt lat="42.61322" lon="-0.20416">
        <ele>1510</ele>
        <time>2017-07-30T09:42:50Z</time>
      </trkpt>
      <trkpt lat="42.61325" lon="-0.20418">
        <ele>1510.8</ele>
        <time>2017-07-30T09:42:52Z</time>
      </trkpt>
      <trkpt lat="42.61328" lon="-0.20421">
        <ele>1511.4</ele>
        <time>2017-07-30T09:42:54Z</time>
      </trkpt>
      <trkpt lat="42.61331" lon="-0.20423">
        <ele>1511.9</ele>
        <time>2017-07-30T09:42:56Z</time>
      </trkpt>
      <trkpt lat="42.61334" lon="-0.20426">
        <ele>1512.4</ele>
        <time>2017-07-30T09:42:58Z</time>
      </trkpt>
      <trkpt lat="42.61337" lon="-0.20428">
        <ele>1512.5</ele>
        <time>2017-07-30T09:43:00Z</time>
      </trkpt>
      <trkpt lat="42.61341" lon="-0.2043">
        <ele>1512.7</ele>
        <time>2017-07-30T09:43:02Z</time>
      </trkpt>
      <trkpt lat="42.61345" lon="-0.20432">
        <ele>1512.9</ele>
        <time>2017-07-30T09:43:04Z</time>
      </trkpt>
      <trkpt lat="42.61349" lon="-0.20432">
        <ele>1512.4</ele>
        <time>2017-07-30T09:43:06Z</time>
      </trkpt>
      <trkpt lat="42.61353" lon="-0.20432">
        <ele>1511.1</ele>
        <time>2017-07-30T09:43:08Z</time>
      </trkpt>
      <trkpt lat="42.61357" lon="-0.20431">
        <ele>1509.2</ele>
        <time>2017-07-30T09:43:10Z</time>
      </trkpt>
      <trkpt lat="42.61361" lon="-0.20428">
        <ele>1508.5</ele>
        <time>2017-07-30T09:43:12Z</time>
      </trkpt>
      <trkpt lat="42.61363" lon="-0.20425">
        <ele>1508</ele>
        <time>2017-07-30T09:43:13Z</time>
      </trkpt>
      <trkpt lat="42.61365" lon="-0.20422">
        <ele>1507.2</ele>
        <time>2017-07-30T09:43:14Z</time>
      </trkpt>
      <trkpt lat="42.61366" lon="-0.20418">
        <ele>1506.4</ele>
        <time>2017-07-30T09:43:15Z</time>
      </trkpt>
      <trkpt lat="42.61367" lon="-0.20415">
        <ele>1505.2</ele>
        <time>2017-07-30T09:43:16Z</time>
      </trkpt>
      <trkpt lat="42.61368" lon="-0.20408">
        <ele>1503.3</ele>
        <time>2017-07-30T09:43:18Z</time>
      </trkpt>
      <trkpt lat="42.61369" lon="-0.20401">
        <ele>1501.9</ele>
        <time>2017-07-30T09:43:20Z</time>
      </trkpt>
      <trkpt lat="42.61371" lon="-0.20395">
        <ele>1501</ele>
        <time>2017-07-30T09:43:22Z</time>
      </trkpt>
      <trkpt lat="42.61373" lon="-0.2039">
        <ele>1499.8</ele>
        <time>2017-07-30T09:43:24Z</time>
      </trkpt>
      <trkpt lat="42.61375" lon="-0.20384">
        <ele>1497.9</ele>
        <time>2017-07-30T09:43:26Z</time>
      </trkpt>
      <trkpt lat="42.61376" lon="-0.20379">
        <ele>1496.3</ele>
        <time>2017-07-30T09:43:28Z</time>
      </trkpt>
      <trkpt lat="42.61378" lon="-0.20373">
        <ele>1495</ele>
        <time>2017-07-30T09:43:30Z</time>
      </trkpt>
      <trkpt lat="42.6138" lon="-0.20368">
        <ele>1493</ele>
        <time>2017-07-30T09:43:32Z</time>
      </trkpt>
      <trkpt lat="42.61381" lon="-0.20362">
        <ele>1490.9</ele>
        <time>2017-07-30T09:43:34Z</time>
      </trkpt>
      <trkpt lat="42.61383" lon="-0.20357">
        <ele>1489.2</ele>
        <time>2017-07-30T09:43:36Z</time>
      </trkpt>
      <trkpt lat="42.61384" lon="-0.20351">
        <ele>1487.4</ele>
        <time>2017-07-30T09:43:38Z</time>
      </trkpt>
      <trkpt lat="42.61386" lon="-0.20345">
        <ele>1485.5</ele>
        <time>2017-07-30T09:43:40Z</time>
      </trkpt>
      <trkpt lat="42.61388" lon="-0.2034">
        <ele>1485</ele>
        <time>2017-07-30T09:43:42Z</time>
      </trkpt>
      <trkpt lat="42.61389" lon="-0.20335">
        <ele>1485.5</ele>
        <time>2017-07-30T09:43:44Z</time>
      </trkpt>
      <trkpt lat="42.61391" lon="-0.2033">
        <ele>1486.6</ele>
        <time>2017-07-30T09:43:46Z</time>
      </trkpt>
      <trkpt lat="42.61394" lon="-0.20325">
        <ele>1485.1</ele>
        <time>2017-07-30T09:43:48Z</time>
      </trkpt>
      <trkpt lat="42.61396" lon="-0.20321">
        <ele>1484.2</ele>
        <time>2017-07-30T09:43:50Z</time>
      </trkpt>
      <trkpt lat="42.614" lon="-0.20318">
        <ele>1484.1</ele>
        <time>2017-07-30T09:43:52Z</time>
      </trkpt>
      <trkpt lat="42.61404" lon="-0.20317">
        <ele>1487.2</ele>
        <time>2017-07-30T09:43:54Z</time>
      </trkpt>
      <trkpt lat="42.61409" lon="-0.20319">
        <ele>1490.5</ele>
        <time>2017-07-30T09:43:56Z</time>
      </trkpt>
      <trkpt lat="42.61413" lon="-0.20323">
        <ele>1493.7</ele>
        <time>2017-07-30T09:43:58Z</time>
      </trkpt>
      <trkpt lat="42.61417" lon="-0.20327">
        <ele>1496.1</ele>
        <time>2017-07-30T09:44:00Z</time>
      </trkpt>
      <trkpt lat="42.61421" lon="-0.20332">
        <ele>1499.1</ele>
        <time>2017-07-30T09:44:02Z</time>
      </trkpt>
      <trkpt lat="42.61423" lon="-0.20335">
        <ele>1500.9</ele>
        <time>2017-07-30T09:44:03Z</time>
      </trkpt>
      <trkpt lat="42.61425" lon="-0.20338">
        <ele>1502.5</ele>
        <time>2017-07-30T09:44:04Z</time>
      </trkpt>
      <trkpt lat="42.61428" lon="-0.2034">
        <ele>1503.9</ele>
        <time>2017-07-30T09:44:05Z</time>
      </trkpt>
      <trkpt lat="42.6143" lon="-0.20343">
        <ele>1505.2</ele>
        <time>2017-07-30T09:44:06Z</time>
      </trkpt>
      <trkpt lat="42.61432" lon="-0.20345">
        <ele>1506.7</ele>
        <time>2017-07-30T09:44:07Z</time>
      </trkpt>
      <trkpt lat="42.61435" lon="-0.20347">
        <ele>1508.2</ele>
        <time>2017-07-30T09:44:08Z</time>
      </trkpt>
      <trkpt lat="42.61437" lon="-0.20349">
        <ele>1509.4</ele>
        <time>2017-07-30T09:44:09Z</time>
      </trkpt>
      <trkpt lat="42.6144" lon="-0.2035">
        <ele>1510.2</ele>
        <time>2017-07-30T09:44:10Z</time>
      </trkpt>
      <trkpt lat="42.61443" lon="-0.20351">
        <ele>1511</ele>
        <time>2017-07-30T09:44:11Z</time>
      </trkpt>
      <trkpt lat="42.61445" lon="-0.20352">
        <ele>1511.9</ele>
        <time>2017-07-30T09:44:12Z</time>
      </trkpt>
      <trkpt lat="42.61448" lon="-0.20352">
        <ele>1512.6</ele>
        <time>2017-07-30T09:44:13Z</time>
      </trkpt>
      <trkpt lat="42.61451" lon="-0.20352">
        <ele>1513.4</ele>
        <time>2017-07-30T09:44:14Z</time>
      </trkpt>
      <trkpt lat="42.61454" lon="-0.20351">
        <ele>1514.6</ele>
        <time>2017-07-30T09:44:15Z</time>
      </trkpt>
      <trkpt lat="42.61458" lon="-0.2035">
        <ele>1515.8</ele>
        <time>2017-07-30T09:44:16Z</time>
      </trkpt>
      <trkpt lat="42.61461" lon="-0.20349">
        <ele>1516.2</ele>
        <time>2017-07-30T09:44:17Z</time>
      </trkpt>
      <trkpt lat="42.61464" lon="-0.20347">
        <ele>1516.4</ele>
        <time>2017-07-30T09:44:18Z</time>
      </trkpt>
      <trkpt lat="42.61467" lon="-0.20345">
        <ele>1516.6</ele>
        <time>2017-07-30T09:44:19Z</time>
      </trkpt>
      <trkpt lat="42.6147" lon="-0.20343">
        <ele>1516.9</ele>
        <time>2017-07-30T09:44:20Z</time>
      </trkpt>
      <trkpt lat="42.61473" lon="-0.20341">
        <ele>1517</ele>
        <time>2017-07-30T09:44:21Z</time>
      </trkpt>
      <trkpt lat="42.61476" lon="-0.20338">
        <ele>1517</ele>
        <time>2017-07-30T09:44:22Z</time>
      </trkpt>
      <trkpt lat="42.61479" lon="-0.20336">
        <ele>1516.3</ele>
        <time>2017-07-30T09:44:23Z</time>
      </trkpt>
      <trkpt lat="42.61482" lon="-0.20334">
        <ele>1515.5</ele>
        <time>2017-07-30T09:44:24Z</time>
      </trkpt>
      <trkpt lat="42.61485" lon="-0.20331">
        <ele>1514.5</ele>
        <time>2017-07-30T09:44:25Z</time>
      </trkpt>
      <trkpt lat="42.61488" lon="-0.20328">
        <ele>1513.5</ele>
        <time>2017-07-30T09:44:26Z</time>
      </trkpt>
      <trkpt lat="42.6149" lon="-0.20325">
        <ele>1512.6</ele>
        <time>2017-07-30T09:44:27Z</time>
      </trkpt>
      <trkpt lat="42.61492" lon="-0.20322">
        <ele>1512.5</ele>
        <time>2017-07-30T09:44:28Z</time>
      </trkpt>
      <trkpt lat="42.61495" lon="-0.20319">
        <ele>1512.5</ele>
        <time>2017-07-30T09:44:29Z</time>
      </trkpt>
      <trkpt lat="42.61497" lon="-0.20316">
        <ele>1512.5</ele>
        <time>2017-07-30T09:44:30Z</time>
      </trkpt>
      <trkpt lat="42.61499" lon="-0.20313">
        <ele>1512.5</ele>
        <time>2017-07-30T09:44:31Z</time>
      </trkpt>
      <trkpt lat="42.61502" lon="-0.20308">
        <ele>1512.1</ele>
        <time>2017-07-30T09:44:33Z</time>
      </trkpt>
      <trkpt lat="42.61505" lon="-0.20301">
        <ele>1510.3</ele>
        <time>2017-07-30T09:44:35Z</time>
      </trkpt>
      <trkpt lat="42.61506" lon="-0.20298">
        <ele>1509.6</ele>
        <time>2017-07-30T09:44:36Z</time>
      </trkpt>
      <trkpt lat="42.61507" lon="-0.20294">
        <ele>1509.6</ele>
        <time>2017-07-30T09:44:37Z</time>
      </trkpt>
      <trkpt lat="42.61509" lon="-0.20291">
        <ele>1509.6</ele>
        <time>2017-07-30T09:44:38Z</time>
      </trkpt>
      <trkpt lat="42.61511" lon="-0.20287">
        <ele>1509.5</ele>
        <time>2017-07-30T09:44:39Z</time>
      </trkpt>
      <trkpt lat="42.61513" lon="-0.20284">
        <ele>1509.2</ele>
        <time>2017-07-30T09:44:40Z</time>
      </trkpt>
      <trkpt lat="42.61515" lon="-0.20281">
        <ele>1509</ele>
        <time>2017-07-30T09:44:41Z</time>
      </trkpt>
      <trkpt lat="42.61517" lon="-0.20278">
        <ele>1509</ele>
        <time>2017-07-30T09:44:42Z</time>
      </trkpt>
      <trkpt lat="42.61519" lon="-0.20275">
        <ele>1509.1</ele>
        <time>2017-07-30T09:44:43Z</time>
      </trkpt>
      <trkpt lat="42.61521" lon="-0.20271">
        <ele>1509.2</ele>
        <time>2017-07-30T09:44:44Z</time>
      </trkpt>
      <trkpt lat="42.61523" lon="-0.20268">
        <ele>1509.4</ele>
        <time>2017-07-30T09:44:45Z</time>
      </trkpt>
      <trkpt lat="42.61524" lon="-0.20264">
        <ele>1509.6</ele>
        <time>2017-07-30T09:44:46Z</time>
      </trkpt>
      <trkpt lat="42.61526" lon="-0.20261">
        <ele>1509.5</ele>
        <time>2017-07-30T09:44:47Z</time>
      </trkpt>
      <trkpt lat="42.61528" lon="-0.20257">
        <ele>1509.2</ele>
        <time>2017-07-30T09:44:48Z</time>
      </trkpt>
      <trkpt lat="42.6153" lon="-0.20254">
        <ele>1509</ele>
        <time>2017-07-30T09:44:49Z</time>
      </trkpt>
      <trkpt lat="42.61532" lon="-0.20251">
        <ele>1508.9</ele>
        <time>2017-07-30T09:44:50Z</time>
      </trkpt>
      <trkpt lat="42.61534" lon="-0.20247">
        <ele>1508.9</ele>
        <time>2017-07-30T09:44:51Z</time>
      </trkpt>
      <trkpt lat="42.61536" lon="-0.20243">
        <ele>1509</ele>
        <time>2017-07-30T09:44:52Z</time>
      </trkpt>
      <trkpt lat="42.61539" lon="-0.2024">
        <ele>1509.2</ele>
        <time>2017-07-30T09:44:53Z</time>
      </trkpt>
      <trkpt lat="42.61541" lon="-0.20236">
        <ele>1509.3</ele>
        <time>2017-07-30T09:44:54Z</time>
      </trkpt>
      <trkpt lat="42.61543" lon="-0.20231">
        <ele>1509.1</ele>
        <time>2017-07-30T09:44:55Z</time>
      </trkpt>
      <trkpt lat="42.61545" lon="-0.20227">
        <ele>1509.3</ele>
        <time>2017-07-30T09:44:56Z</time>
      </trkpt>
      <trkpt lat="42.61547" lon="-0.20222">
        <ele>1509.9</ele>
        <time>2017-07-30T09:44:57Z</time>
      </trkpt>
      <trkpt lat="42.6155" lon="-0.20218">
        <ele>1509.2</ele>
        <time>2017-07-30T09:44:58Z</time>
      </trkpt>
      <trkpt lat="42.61553" lon="-0.20214">
        <ele>1508.3</ele>
        <time>2017-07-30T09:44:59Z</time>
      </trkpt>
      <trkpt lat="42.61556" lon="-0.2021">
        <ele>1508.1</ele>
        <time>2017-07-30T09:45:00Z</time>
      </trkpt>
      <trkpt lat="42.6156" lon="-0.20208">
        <ele>1508.8</ele>
        <time>2017-07-30T09:45:01Z</time>
      </trkpt>
      <trkpt lat="42.61564" lon="-0.20206">
        <ele>1510.4</ele>
        <time>2017-07-30T09:45:02Z</time>
      </trkpt>
      <trkpt lat="42.61568" lon="-0.20208">
        <ele>1512</ele>
        <time>2017-07-30T09:45:03Z</time>
      </trkpt>
      <trkpt lat="42.61572" lon="-0.20212">
        <ele>1513.7</ele>
        <time>2017-07-30T09:45:04Z</time>
      </trkpt>
      <trkpt lat="42.61574" lon="-0.20219">
        <ele>1515.7</ele>
        <time>2017-07-30T09:45:05Z</time>
      </trkpt>
      <trkpt lat="42.61576" lon="-0.20226">
        <ele>1517.9</ele>
        <time>2017-07-30T09:45:06Z</time>
      </trkpt>
      <trkpt lat="42.61576" lon="-0.20232">
        <ele>1520.1</ele>
        <time>2017-07-30T09:45:07Z</time>
      </trkpt>
      <trkpt lat="42.61576" lon="-0.20237">
        <ele>1521.4</ele>
        <time>2017-07-30T09:45:08Z</time>
      </trkpt>
      <trkpt lat="42.61576" lon="-0.20242">
        <ele>1522.4</ele>
        <time>2017-07-30T09:45:09Z</time>
      </trkpt>
      <trkpt lat="42.61576" lon="-0.20246">
        <ele>1523.2</ele>
        <time>2017-07-30T09:45:10Z</time>
      </trkpt>
      <trkpt lat="42.61575" lon="-0.20249">
        <ele>1523.8</ele>
        <time>2017-07-30T09:45:11Z</time>
      </trkpt>
      <trkpt lat="42.61575" lon="-0.20256">
        <ele>1525.1</ele>
        <time>2017-07-30T09:45:13Z</time>
      </trkpt>
      <trkpt lat="42.61575" lon="-0.20263">
        <ele>1526.8</ele>
        <time>2017-07-30T09:45:15Z</time>
      </trkpt>
      <trkpt lat="42.61576" lon="-0.20269">
        <ele>1527.9</ele>
        <time>2017-07-30T09:45:17Z</time>
      </trkpt>
      <trkpt lat="42.61576" lon="-0.20275">
        <ele>1528.7</ele>
        <time>2017-07-30T09:45:19Z</time>
      </trkpt>
      <trkpt lat="42.61577" lon="-0.2028">
        <ele>1529.5</ele>
        <time>2017-07-30T09:45:21Z</time>
      </trkpt>
      <trkpt lat="42.61578" lon="-0.20285">
        <ele>1530.4</ele>
        <time>2017-07-30T09:45:23Z</time>
      </trkpt>
      <trkpt lat="42.61579" lon="-0.20289">
        <ele>1531.8</ele>
        <time>2017-07-30T09:45:25Z</time>
      </trkpt>
      <trkpt lat="42.61579" lon="-0.20294">
        <ele>1533</ele>
        <time>2017-07-30T09:45:27Z</time>
      </trkpt>
      <trkpt lat="42.61579" lon="-0.20298">
        <ele>1533.8</ele>
        <time>2017-07-30T09:45:29Z</time>
      </trkpt>
      <trkpt lat="42.6158" lon="-0.20302">
        <ele>1534.6</ele>
        <time>2017-07-30T09:45:31Z</time>
      </trkpt>
      <trkpt lat="42.61581" lon="-0.20306">
        <ele>1535.3</ele>
        <time>2017-07-30T09:45:33Z</time>
      </trkpt>
      <trkpt lat="42.61583" lon="-0.2031">
        <ele>1536.1</ele>
        <time>2017-07-30T09:45:35Z</time>
      </trkpt>
      <trkpt lat="42.61584" lon="-0.20314">
        <ele>1536.8</ele>
        <time>2017-07-30T09:45:37Z</time>
      </trkpt>
      <trkpt lat="42.61586" lon="-0.20317">
        <ele>1537.4</ele>
        <time>2017-07-30T09:45:39Z</time>
      </trkpt>
      <trkpt lat="42.61589" lon="-0.20321">
        <ele>1538</ele>
        <time>2017-07-30T09:45:41Z</time>
      </trkpt>
      <trkpt lat="42.61592" lon="-0.20323">
        <ele>1538</ele>
        <time>2017-07-30T09:45:43Z</time>
      </trkpt>
      <trkpt lat="42.61596" lon="-0.20324">
        <ele>1538.2</ele>
        <time>2017-07-30T09:45:45Z</time>
      </trkpt>
      <trkpt lat="42.61599" lon="-0.20325">
        <ele>1538.8</ele>
        <time>2017-07-30T09:45:47Z</time>
      </trkpt>
      <trkpt lat="42.61603" lon="-0.20325">
        <ele>1539.3</ele>
        <time>2017-07-30T09:45:49Z</time>
      </trkpt>
      <trkpt lat="42.61606" lon="-0.20324">
        <ele>1539.5</ele>
        <time>2017-07-30T09:45:51Z</time>
      </trkpt>
      <trkpt lat="42.6161" lon="-0.20324">
        <ele>1539.6</ele>
        <time>2017-07-30T09:45:53Z</time>
      </trkpt>
      <trkpt lat="42.61614" lon="-0.20323">
        <ele>1539.9</ele>
        <time>2017-07-30T09:45:55Z</time>
      </trkpt>
      <trkpt lat="42.61618" lon="-0.20324">
        <ele>1540.2</ele>
        <time>2017-07-30T09:45:57Z</time>
      </trkpt>
      <trkpt lat="42.61621" lon="-0.20325">
        <ele>1540.5</ele>
        <time>2017-07-30T09:45:59Z</time>
      </trkpt>
      <trkpt lat="42.61624" lon="-0.20326">
        <ele>1540.7</ele>
        <time>2017-07-30T09:46:01Z</time>
      </trkpt>
      <trkpt lat="42.61628" lon="-0.20328">
        <ele>1540.9</ele>
        <time>2017-07-30T09:46:03Z</time>
      </trkpt>
      <trkpt lat="42.61631" lon="-0.20329">
        <ele>1541.7</ele>
        <time>2017-07-30T09:46:05Z</time>
      </trkpt>
      <trkpt lat="42.61634" lon="-0.20331">
        <ele>1542.7</ele>
        <time>2017-07-30T09:46:07Z</time>
      </trkpt>
      <trkpt lat="42.61637" lon="-0.20333">
        <ele>1543.4</ele>
        <time>2017-07-30T09:46:09Z</time>
      </trkpt>
      <trkpt lat="42.61641" lon="-0.20335">
        <ele>1544.1</ele>
        <time>2017-07-30T09:46:11Z</time>
      </trkpt>
      <trkpt lat="42.61645" lon="-0.20336">
        <ele>1544.3</ele>
        <time>2017-07-30T09:46:13Z</time>
      </trkpt>
      <trkpt lat="42.61648" lon="-0.20336">
        <ele>1544.1</ele>
        <time>2017-07-30T09:46:15Z</time>
      </trkpt>
      <trkpt lat="42.61652" lon="-0.20336">
        <ele>1543.8</ele>
        <time>2017-07-30T09:46:17Z</time>
      </trkpt>
      <trkpt lat="42.61655" lon="-0.20335">
        <ele>1543.5</ele>
        <time>2017-07-30T09:46:19Z</time>
      </trkpt>
      <trkpt lat="42.61659" lon="-0.20335">
        <ele>1543</ele>
        <time>2017-07-30T09:46:21Z</time>
      </trkpt>
      <trkpt lat="42.61663" lon="-0.20333">
        <ele>1541.6</ele>
        <time>2017-07-30T09:46:23Z</time>
      </trkpt>
      <trkpt lat="42.61668" lon="-0.20332">
        <ele>1539.9</ele>
        <time>2017-07-30T09:46:25Z</time>
      </trkpt>
      <trkpt lat="42.61671" lon="-0.2033">
        <ele>1538.5</ele>
        <time>2017-07-30T09:46:27Z</time>
      </trkpt>
      <trkpt lat="42.61675" lon="-0.20328">
        <ele>1537.1</ele>
        <time>2017-07-30T09:46:29Z</time>
      </trkpt>
      <trkpt lat="42.61678" lon="-0.20326">
        <ele>1535.8</ele>
        <time>2017-07-30T09:46:31Z</time>
      </trkpt>
      <trkpt lat="42.61681" lon="-0.20325">
        <ele>1534.3</ele>
        <time>2017-07-30T09:46:33Z</time>
      </trkpt>
      <trkpt lat="42.61685" lon="-0.20325">
        <ele>1534.6</ele>
        <time>2017-07-30T09:46:35Z</time>
      </trkpt>
      <trkpt lat="42.61688" lon="-0.20327">
        <ele>1535.6</ele>
        <time>2017-07-30T09:46:37Z</time>
      </trkpt>
      <trkpt lat="42.6169" lon="-0.20329">
        <ele>1536.6</ele>
        <time>2017-07-30T09:46:39Z</time>
      </trkpt>
      <trkpt lat="42.61693" lon="-0.20333">
        <ele>1537.9</ele>
        <time>2017-07-30T09:46:42Z</time>
      </trkpt>
      <trkpt lat="42.61696" lon="-0.20337">
        <ele>1539.2</ele>
        <time>2017-07-30T09:46:45Z</time>
      </trkpt>
      <trkpt lat="42.61698" lon="-0.2034">
        <ele>1539.7</ele>
        <time>2017-07-30T09:46:47Z</time>
      </trkpt>
      <trkpt lat="42.617" lon="-0.20342">
        <ele>1540.1</ele>
        <time>2017-07-30T09:46:49Z</time>
      </trkpt>
      <trkpt lat="42.61701" lon="-0.20345">
        <ele>1540.7</ele>
        <time>2017-07-30T09:46:51Z</time>
      </trkpt>
      <trkpt lat="42.61704" lon="-0.20349">
        <ele>1542.8</ele>
        <time>2017-07-30T09:46:54Z</time>
      </trkpt>
      <trkpt lat="42.61706" lon="-0.20351">
        <ele>1544.2</ele>
        <time>2017-07-30T09:46:56Z</time>
      </trkpt>
      <trkpt lat="42.61708" lon="-0.20354">
        <ele>1545.1</ele>
        <time>2017-07-30T09:46:58Z</time>
      </trkpt>
      <trkpt lat="42.6171" lon="-0.20357">
        <ele>1545.7</ele>
        <time>2017-07-30T09:47:00Z</time>
      </trkpt>
      <trkpt lat="42.61714" lon="-0.2036">
        <ele>1546.6</ele>
        <time>2017-07-30T09:47:03Z</time>
      </trkpt>
      <trkpt lat="42.61716" lon="-0.20362">
        <ele>1547.9</ele>
        <time>2017-07-30T09:47:05Z</time>
      </trkpt>
      <trkpt lat="42.61719" lon="-0.20364">
        <ele>1549.1</ele>
        <time>2017-07-30T09:47:07Z</time>
      </trkpt>
      <trkpt lat="42.61721" lon="-0.20367">
        <ele>1550</ele>
        <time>2017-07-30T09:47:09Z</time>
      </trkpt>
      <trkpt lat="42.61724" lon="-0.20369">
        <ele>1550.5</ele>
        <time>2017-07-30T09:47:11Z</time>
      </trkpt>
      <trkpt lat="42.61727" lon="-0.20372">
        <ele>1551</ele>
        <time>2017-07-30T09:47:13Z</time>
      </trkpt>
      <trkpt lat="42.61729" lon="-0.20374">
        <ele>1552.4</ele>
        <time>2017-07-30T09:47:15Z</time>
      </trkpt>
      <trkpt lat="42.61731" lon="-0.20376">
        <ele>1553.8</ele>
        <time>2017-07-30T09:47:17Z</time>
      </trkpt>
      <trkpt lat="42.61734" lon="-0.20379">
        <ele>1555.2</ele>
        <time>2017-07-30T09:47:19Z</time>
      </trkpt>
      <trkpt lat="42.61737" lon="-0.20381">
        <ele>1555.7</ele>
        <time>2017-07-30T09:47:21Z</time>
      </trkpt>
      <trkpt lat="42.6174" lon="-0.20384">
        <ele>1556.3</ele>
        <time>2017-07-30T09:47:23Z</time>
      </trkpt>
      <trkpt lat="42.61742" lon="-0.20386">
        <ele>1557.1</ele>
        <time>2017-07-30T09:47:25Z</time>
      </trkpt>
      <trkpt lat="42.61745" lon="-0.20389">
        <ele>1558.1</ele>
        <time>2017-07-30T09:47:27Z</time>
      </trkpt>
      <trkpt lat="42.61747" lon="-0.20391">
        <ele>1559.1</ele>
        <time>2017-07-30T09:47:29Z</time>
      </trkpt>
      <trkpt lat="42.6175" lon="-0.20394">
        <ele>1559</ele>
        <time>2017-07-30T09:47:31Z</time>
      </trkpt>
      <trkpt lat="42.61752" lon="-0.20397">
        <ele>1558.8</ele>
        <time>2017-07-30T09:47:33Z</time>
      </trkpt>
      <trkpt lat="42.61754" lon="-0.204">
        <ele>1558.5</ele>
        <time>2017-07-30T09:47:35Z</time>
      </trkpt>
      <trkpt lat="42.61757" lon="-0.20403">
        <ele>1558.2</ele>
        <time>2017-07-30T09:47:37Z</time>
      </trkpt>
      <trkpt lat="42.61759" lon="-0.20405">
        <ele>1558</ele>
        <time>2017-07-30T09:47:39Z</time>
      </trkpt>
      <trkpt lat="42.61761" lon="-0.20408">
        <ele>1557.6</ele>
        <time>2017-07-30T09:47:41Z</time>
      </trkpt>
      <trkpt lat="42.61763" lon="-0.20411">
        <ele>1556.7</ele>
        <time>2017-07-30T09:47:43Z</time>
      </trkpt>
      <trkpt lat="42.61766" lon="-0.20413">
        <ele>1555.8</ele>
        <time>2017-07-30T09:47:45Z</time>
      </trkpt>
      <trkpt lat="42.61769" lon="-0.20414">
        <ele>1555.3</ele>
        <time>2017-07-30T09:47:47Z</time>
      </trkpt>
      <trkpt lat="42.61772" lon="-0.20416">
        <ele>1555.2</ele>
        <time>2017-07-30T09:47:49Z</time>
      </trkpt>
      <trkpt lat="42.61775" lon="-0.20418">
        <ele>1555.1</ele>
        <time>2017-07-30T09:47:51Z</time>
      </trkpt>
      <trkpt lat="42.61778" lon="-0.2042">
        <ele>1555.6</ele>
        <time>2017-07-30T09:47:53Z</time>
      </trkpt>
      <trkpt lat="42.61781" lon="-0.20422">
        <ele>1556.2</ele>
        <time>2017-07-30T09:47:55Z</time>
      </trkpt>
      <trkpt lat="42.61783" lon="-0.20425">
        <ele>1556.8</ele>
        <time>2017-07-30T09:47:57Z</time>
      </trkpt>
      <trkpt lat="42.61786" lon="-0.20428">
        <ele>1557.3</ele>
        <time>2017-07-30T09:47:59Z</time>
      </trkpt>
      <trkpt lat="42.61788" lon="-0.20431">
        <ele>1557.8</ele>
        <time>2017-07-30T09:48:01Z</time>
      </trkpt>
      <trkpt lat="42.61791" lon="-0.20433">
        <ele>1557.8</ele>
        <time>2017-07-30T09:48:03Z</time>
      </trkpt>
      <trkpt lat="42.61793" lon="-0.20436">
        <ele>1557.8</ele>
        <time>2017-07-30T09:48:05Z</time>
      </trkpt>
      <trkpt lat="42.61795" lon="-0.20439">
        <ele>1557.7</ele>
        <time>2017-07-30T09:48:07Z</time>
      </trkpt>
      <trkpt lat="42.61795" lon="-0.20444">
        <ele>1558.4</ele>
        <time>2017-07-30T09:48:09Z</time>
      </trkpt>
      <trkpt lat="42.61794" lon="-0.20448">
        <ele>1559.1</ele>
        <time>2017-07-30T09:48:11Z</time>
      </trkpt>
      <trkpt lat="42.61792" lon="-0.2045">
        <ele>1559.9</ele>
        <time>2017-07-30T09:48:13Z</time>
      </trkpt>
      <trkpt lat="42.61789" lon="-0.2045">
        <ele>1560.8</ele>
        <time>2017-07-30T09:48:15Z</time>
      </trkpt>
      <trkpt lat="42.61786" lon="-0.20448">
        <ele>1561.9</ele>
        <time>2017-07-30T09:48:17Z</time>
      </trkpt>
      <trkpt lat="42.61784" lon="-0.20446">
        <ele>1562.4</ele>
        <time>2017-07-30T09:48:19Z</time>
      </trkpt>
      <trkpt lat="42.61781" lon="-0.20444">
        <ele>1562.8</ele>
        <time>2017-07-30T09:48:21Z</time>
      </trkpt>
      <trkpt lat="42.61779" lon="-0.20443">
        <ele>1563.2</ele>
        <time>2017-07-30T09:48:23Z</time>
      </trkpt>
      <trkpt lat="42.61776" lon="-0.20441">
        <ele>1563.6</ele>
        <time>2017-07-30T09:48:25Z</time>
      </trkpt>
      <trkpt lat="42.61772" lon="-0.2044">
        <ele>1564</ele>
        <time>2017-07-30T09:48:28Z</time>
      </trkpt>
      <trkpt lat="42.61769" lon="-0.20439">
        <ele>1564.4</ele>
        <time>2017-07-30T09:48:30Z</time>
      </trkpt>
      <trkpt lat="42.61766" lon="-0.20438">
        <ele>1564.5</ele>
        <time>2017-07-30T09:48:32Z</time>
      </trkpt>
      <trkpt lat="42.61763" lon="-0.20436">
        <ele>1564.6</ele>
        <time>2017-07-30T09:48:35Z</time>
      </trkpt>
      <trkpt lat="42.61759" lon="-0.20435">
        <ele>1564.8</ele>
        <time>2017-07-30T09:48:38Z</time>
      </trkpt>
      <trkpt lat="42.61756" lon="-0.20433">
        <ele>1565.1</ele>
        <time>2017-07-30T09:48:40Z</time>
      </trkpt>
      <trkpt lat="42.61753" lon="-0.20432">
        <ele>1565.5</ele>
        <time>2017-07-30T09:48:42Z</time>
      </trkpt>
      <trkpt lat="42.61751" lon="-0.20431">
        <ele>1566</ele>
        <time>2017-07-30T09:48:44Z</time>
      </trkpt>
      <trkpt lat="42.61748" lon="-0.2043">
        <ele>1567</ele>
        <time>2017-07-30T09:48:46Z</time>
      </trkpt>
      <trkpt lat="42.61745" lon="-0.2043">
        <ele>1567.9</ele>
        <time>2017-07-30T09:48:48Z</time>
      </trkpt>
      <trkpt lat="42.61741" lon="-0.20428">
        <ele>1568.5</ele>
        <time>2017-07-30T09:48:51Z</time>
      </trkpt>
      <trkpt lat="42.61737" lon="-0.20426">
        <ele>1568.5</ele>
        <time>2017-07-30T09:48:54Z</time>
      </trkpt>
      <trkpt lat="42.61735" lon="-0.20425">
        <ele>1568.9</ele>
        <time>2017-07-30T09:48:56Z</time>
      </trkpt>
      <trkpt lat="42.61732" lon="-0.20424">
        <ele>1570.1</ele>
        <time>2017-07-30T09:48:58Z</time>
      </trkpt>
      <trkpt lat="42.61729" lon="-0.20423">
        <ele>1571.3</ele>
        <time>2017-07-30T09:49:00Z</time>
      </trkpt>
      <trkpt lat="42.61726" lon="-0.20421">
        <ele>1572.1</ele>
        <time>2017-07-30T09:49:03Z</time>
      </trkpt>
      <trkpt lat="42.61723" lon="-0.20421">
        <ele>1572.3</ele>
        <time>2017-07-30T09:49:05Z</time>
      </trkpt>
      <trkpt lat="42.6172" lon="-0.20421">
        <ele>1572.4</ele>
        <time>2017-07-30T09:49:07Z</time>
      </trkpt>
      <trkpt lat="42.61717" lon="-0.2042">
        <ele>1572.9</ele>
        <time>2017-07-30T09:49:09Z</time>
      </trkpt>
      <trkpt lat="42.61714" lon="-0.20419">
        <ele>1573.5</ele>
        <time>2017-07-30T09:49:11Z</time>
      </trkpt>
      <trkpt lat="42.61711" lon="-0.20419">
        <ele>1573.9</ele>
        <time>2017-07-30T09:49:13Z</time>
      </trkpt>
      <trkpt lat="42.61708" lon="-0.20418">
        <ele>1573.9</ele>
        <time>2017-07-30T09:49:15Z</time>
      </trkpt>
      <trkpt lat="42.61705" lon="-0.20418">
        <ele>1574</ele>
        <time>2017-07-30T09:49:17Z</time>
      </trkpt>
      <trkpt lat="42.61702" lon="-0.20418">
        <ele>1574</ele>
        <time>2017-07-30T09:49:19Z</time>
      </trkpt>
      <trkpt lat="42.61699" lon="-0.20418">
        <ele>1574.1</ele>
        <time>2017-07-30T09:49:21Z</time>
      </trkpt>
      <trkpt lat="42.61696" lon="-0.20418">
        <ele>1574.2</ele>
        <time>2017-07-30T09:49:23Z</time>
      </trkpt>
      <trkpt lat="42.61693" lon="-0.20419">
        <ele>1574</ele>
        <time>2017-07-30T09:49:25Z</time>
      </trkpt>
      <trkpt lat="42.6169" lon="-0.20419">
        <ele>1573.9</ele>
        <time>2017-07-30T09:49:27Z</time>
      </trkpt>
      <trkpt lat="42.61687" lon="-0.2042">
        <ele>1573.6</ele>
        <time>2017-07-30T09:49:29Z</time>
      </trkpt>
      <trkpt lat="42.61684" lon="-0.2042">
        <ele>1573.3</ele>
        <time>2017-07-30T09:49:31Z</time>
      </trkpt>
      <trkpt lat="42.61681" lon="-0.20422">
        <ele>1573</ele>
        <time>2017-07-30T09:49:33Z</time>
      </trkpt>
      <trkpt lat="42.61678" lon="-0.20424">
        <ele>1572.7</ele>
        <time>2017-07-30T09:49:35Z</time>
      </trkpt>
      <trkpt lat="42.61675" lon="-0.20427">
        <ele>1572.5</ele>
        <time>2017-07-30T09:49:37Z</time>
      </trkpt>
      <trkpt lat="42.61672" lon="-0.20429">
        <ele>1572.7</ele>
        <time>2017-07-30T09:49:39Z</time>
      </trkpt>
      <trkpt lat="42.61669" lon="-0.20431">
        <ele>1572.8</ele>
        <time>2017-07-30T09:49:41Z</time>
      </trkpt>
      <trkpt lat="42.61666" lon="-0.20433">
        <ele>1573</ele>
        <time>2017-07-30T09:49:43Z</time>
      </trkpt>
      <trkpt lat="42.61663" lon="-0.20435">
        <ele>1573.1</ele>
        <time>2017-07-30T09:49:45Z</time>
      </trkpt>
      <trkpt lat="42.6166" lon="-0.20437">
        <ele>1573</ele>
        <time>2017-07-30T09:49:47Z</time>
      </trkpt>
      <trkpt lat="42.61657" lon="-0.20439">
        <ele>1572.9</ele>
        <time>2017-07-30T09:49:49Z</time>
      </trkpt>
      <trkpt lat="42.61654" lon="-0.2044">
        <ele>1572.7</ele>
        <time>2017-07-30T09:49:51Z</time>
      </trkpt>
      <trkpt lat="42.61651" lon="-0.20442">
        <ele>1572.7</ele>
        <time>2017-07-30T09:49:53Z</time>
      </trkpt>
      <trkpt lat="42.61648" lon="-0.20443">
        <ele>1572.7</ele>
        <time>2017-07-30T09:49:55Z</time>
      </trkpt>
      <trkpt lat="42.61645" lon="-0.20444">
        <ele>1572.7</ele>
        <time>2017-07-30T09:49:57Z</time>
      </trkpt>
      <trkpt lat="42.61641" lon="-0.20446">
        <ele>1572.7</ele>
        <time>2017-07-30T09:49:59Z</time>
      </trkpt>
      <trkpt lat="42.61638" lon="-0.20447">
        <ele>1572.5</ele>
        <time>2017-07-30T09:50:01Z</time>
      </trkpt>
      <trkpt lat="42.61635" lon="-0.20448">
        <ele>1572.1</ele>
        <time>2017-07-30T09:50:03Z</time>
      </trkpt>
      <trkpt lat="42.61631" lon="-0.20449">
        <ele>1571.9</ele>
        <time>2017-07-30T09:50:05Z</time>
      </trkpt>
      <trkpt lat="42.61628" lon="-0.2045">
        <ele>1572.3</ele>
        <time>2017-07-30T09:50:07Z</time>
      </trkpt>
      <trkpt lat="42.61624" lon="-0.20451">
        <ele>1572.7</ele>
        <time>2017-07-30T09:50:09Z</time>
      </trkpt>
      <trkpt lat="42.61621" lon="-0.20451">
        <ele>1572.9</ele>
        <time>2017-07-30T09:50:11Z</time>
      </trkpt>
      <trkpt lat="42.61618" lon="-0.20452">
        <ele>1573</ele>
        <time>2017-07-30T09:50:13Z</time>
      </trkpt>
      <trkpt lat="42.61614" lon="-0.20453">
        <ele>1573.5</ele>
        <time>2017-07-30T09:50:15Z</time>
      </trkpt>
      <trkpt lat="42.61611" lon="-0.20454">
        <ele>1574.4</ele>
        <time>2017-07-30T09:50:17Z</time>
      </trkpt>
      <trkpt lat="42.61608" lon="-0.20454">
        <ele>1575.4</ele>
        <time>2017-07-30T09:50:19Z</time>
      </trkpt>
      <trkpt lat="42.61604" lon="-0.20455">
        <ele>1576.3</ele>
        <time>2017-07-30T09:50:21Z</time>
      </trkpt>
      <trkpt lat="42.616" lon="-0.20456">
        <ele>1577.3</ele>
        <time>2017-07-30T09:50:23Z</time>
      </trkpt>
      <trkpt lat="42.61597" lon="-0.20457">
        <ele>1577.5</ele>
        <time>2017-07-30T09:50:25Z</time>
      </trkpt>
      <trkpt lat="42.61593" lon="-0.20458">
        <ele>1577.5</ele>
        <time>2017-07-30T09:50:27Z</time>
      </trkpt>
      <trkpt lat="42.6159" lon="-0.20459">
        <ele>1577.3</ele>
        <time>2017-07-30T09:50:29Z</time>
      </trkpt>
      <trkpt lat="42.61586" lon="-0.2046">
        <ele>1577</ele>
        <time>2017-07-30T09:50:31Z</time>
      </trkpt>
      <trkpt lat="42.61583" lon="-0.20461">
        <ele>1576.6</ele>
        <time>2017-07-30T09:50:33Z</time>
      </trkpt>
      <trkpt lat="42.61579" lon="-0.20461">
        <ele>1576.9</ele>
        <time>2017-07-30T09:50:35Z</time>
      </trkpt>
      <trkpt lat="42.61575" lon="-0.20462">
        <ele>1577.3</ele>
        <time>2017-07-30T09:50:37Z</time>
      </trkpt>
      <trkpt lat="42.61572" lon="-0.20462">
        <ele>1577.4</ele>
        <time>2017-07-30T09:50:39Z</time>
      </trkpt>
      <trkpt lat="42.61568" lon="-0.20463">
        <ele>1577.2</ele>
        <time>2017-07-30T09:50:41Z</time>
      </trkpt>
      <trkpt lat="42.61565" lon="-0.20464">
        <ele>1576.9</ele>
        <time>2017-07-30T09:50:43Z</time>
      </trkpt>
      <trkpt lat="42.61562" lon="-0.20464">
        <ele>1577</ele>
        <time>2017-07-30T09:50:45Z</time>
      </trkpt>
      <trkpt lat="42.61558" lon="-0.20465">
        <ele>1577.2</ele>
        <time>2017-07-30T09:50:47Z</time>
      </trkpt>
      <trkpt lat="42.61554" lon="-0.20465">
        <ele>1577.2</ele>
        <time>2017-07-30T09:50:49Z</time>
      </trkpt>
      <trkpt lat="42.61551" lon="-0.20466">
        <ele>1576.8</ele>
        <time>2017-07-30T09:50:51Z</time>
      </trkpt>
      <trkpt lat="42.61547" lon="-0.20466">
        <ele>1576.4</ele>
        <time>2017-07-30T09:50:53Z</time>
      </trkpt>
      <trkpt lat="42.61544" lon="-0.20467">
        <ele>1576.2</ele>
        <time>2017-07-30T09:50:55Z</time>
      </trkpt>
      <trkpt lat="42.61541" lon="-0.20467">
        <ele>1576</ele>
        <time>2017-07-30T09:50:57Z</time>
      </trkpt>
      <trkpt lat="42.61538" lon="-0.20467">
        <ele>1575.7</ele>
        <time>2017-07-30T09:50:59Z</time>
      </trkpt>
      <trkpt lat="42.61534" lon="-0.20467">
        <ele>1575.5</ele>
        <time>2017-07-30T09:51:01Z</time>
      </trkpt>
      <trkpt lat="42.61531" lon="-0.20468">
        <ele>1575.3</ele>
        <time>2017-07-30T09:51:03Z</time>
      </trkpt>
      <trkpt lat="42.61528" lon="-0.20468">
        <ele>1575.3</ele>
        <time>2017-07-30T09:51:05Z</time>
      </trkpt>
      <trkpt lat="42.61525" lon="-0.20468">
        <ele>1575.5</ele>
        <time>2017-07-30T09:51:07Z</time>
      </trkpt>
      <trkpt lat="42.61522" lon="-0.20469">
        <ele>1575.8</ele>
        <time>2017-07-30T09:51:09Z</time>
      </trkpt>
      <trkpt lat="42.61518" lon="-0.20469">
        <ele>1575.9</ele>
        <time>2017-07-30T09:51:11Z</time>
      </trkpt>
      <trkpt lat="42.61515" lon="-0.2047">
        <ele>1575.8</ele>
        <time>2017-07-30T09:51:13Z</time>
      </trkpt>
      <trkpt lat="42.61512" lon="-0.20471">
        <ele>1575.8</ele>
        <time>2017-07-30T09:51:15Z</time>
      </trkpt>
      <trkpt lat="42.61509" lon="-0.20473">
        <ele>1575.7</ele>
        <time>2017-07-30T09:51:17Z</time>
      </trkpt>
      <trkpt lat="42.61506" lon="-0.20474">
        <ele>1575.5</ele>
        <time>2017-07-30T09:51:19Z</time>
      </trkpt>
      <trkpt lat="42.61503" lon="-0.20476">
        <ele>1575.4</ele>
        <time>2017-07-30T09:51:21Z</time>
      </trkpt>
      <trkpt lat="42.615" lon="-0.20478">
        <ele>1575.4</ele>
        <time>2017-07-30T09:51:23Z</time>
      </trkpt>
      <trkpt lat="42.61497" lon="-0.20482">
        <ele>1575.5</ele>
        <time>2017-07-30T09:51:25Z</time>
      </trkpt>
      <trkpt lat="42.61494" lon="-0.20485">
        <ele>1575.7</ele>
        <time>2017-07-30T09:51:27Z</time>
      </trkpt>
      <trkpt lat="42.61491" lon="-0.20489">
        <ele>1575.9</ele>
        <time>2017-07-30T09:51:29Z</time>
      </trkpt>
      <trkpt lat="42.61489" lon="-0.20493">
        <ele>1576.2</ele>
        <time>2017-07-30T09:51:31Z</time>
      </trkpt>
      <trkpt lat="42.61487" lon="-0.20497">
        <ele>1576.5</ele>
        <time>2017-07-30T09:51:33Z</time>
      </trkpt>
      <trkpt lat="42.61484" lon="-0.20502">
        <ele>1577.3</ele>
        <time>2017-07-30T09:51:35Z</time>
      </trkpt>
      <trkpt lat="42.61481" lon="-0.20508">
        <ele>1578.6</ele>
        <time>2017-07-30T09:51:37Z</time>
      </trkpt>
      <trkpt lat="42.6148" lon="-0.20511">
        <ele>1579.2</ele>
        <time>2017-07-30T09:51:38Z</time>
      </trkpt>
      <trkpt lat="42.61477" lon="-0.20517">
        <ele>1580.2</ele>
        <time>2017-07-30T09:51:40Z</time>
      </trkpt>
      <trkpt lat="42.61475" lon="-0.20522">
        <ele>1581</ele>
        <time>2017-07-30T09:51:42Z</time>
      </trkpt>
      <trkpt lat="42.61472" lon="-0.20526">
        <ele>1581.6</ele>
        <time>2017-07-30T09:51:44Z</time>
      </trkpt>
      <trkpt lat="42.6147" lon="-0.20531">
        <ele>1582.5</ele>
        <time>2017-07-30T09:51:46Z</time>
      </trkpt>
      <trkpt lat="42.61468" lon="-0.20537">
        <ele>1583.5</ele>
        <time>2017-07-30T09:51:48Z</time>
      </trkpt>
      <trkpt lat="42.61466" lon="-0.20542">
        <ele>1583.9</ele>
        <time>2017-07-30T09:51:50Z</time>
      </trkpt>
      <trkpt lat="42.61464" lon="-0.20548">
        <ele>1584.3</ele>
        <time>2017-07-30T09:51:52Z</time>
      </trkpt>
      <trkpt lat="42.61463" lon="-0.20553">
        <ele>1584.5</ele>
        <time>2017-07-30T09:51:54Z</time>
      </trkpt>
      <trkpt lat="42.61461" lon="-0.20559">
        <ele>1584.7</ele>
        <time>2017-07-30T09:51:56Z</time>
      </trkpt>
      <trkpt lat="42.6146" lon="-0.20564">
        <ele>1585</ele>
        <time>2017-07-30T09:51:58Z</time>
      </trkpt>
      <trkpt lat="42.61458" lon="-0.2057">
        <ele>1585.2</ele>
        <time>2017-07-30T09:52:00Z</time>
      </trkpt>
      <trkpt lat="42.61456" lon="-0.20575">
        <ele>1584.6</ele>
        <time>2017-07-30T09:52:02Z</time>
      </trkpt>
      <trkpt lat="42.61453" lon="-0.2058">
        <ele>1584.1</ele>
        <time>2017-07-30T09:52:04Z</time>
      </trkpt>
      <trkpt lat="42.6145" lon="-0.20585">
        <ele>1584.3</ele>
        <time>2017-07-30T09:52:06Z</time>
      </trkpt>
      <trkpt lat="42.61447" lon="-0.2059">
        <ele>1584.6</ele>
        <time>2017-07-30T09:52:08Z</time>
      </trkpt>
      <trkpt lat="42.61445" lon="-0.20595">
        <ele>1585.1</ele>
        <time>2017-07-30T09:52:10Z</time>
      </trkpt>
      <trkpt lat="42.61444" lon="-0.20599">
        <ele>1585.4</ele>
        <time>2017-07-30T09:52:12Z</time>
      </trkpt>
      <trkpt lat="42.61443" lon="-0.20603">
        <ele>1585.6</ele>
        <time>2017-07-30T09:52:14Z</time>
      </trkpt>
      <trkpt lat="42.61441" lon="-0.20606">
        <ele>1585.8</ele>
        <time>2017-07-30T09:52:16Z</time>
      </trkpt>
      <trkpt lat="42.61438" lon="-0.20607">
        <ele>1585.9</ele>
        <time>2017-07-30T09:53:29Z</time>
      </trkpt>
      <trkpt lat="42.61435" lon="-0.2061">
        <ele>1586</ele>
        <time>2017-07-30T09:53:31Z</time>
      </trkpt>
      <trkpt lat="42.61431" lon="-0.20612">
        <ele>1586</ele>
        <time>2017-07-30T09:53:33Z</time>
      </trkpt>
      <trkpt lat="42.61428" lon="-0.20614">
        <ele>1586</ele>
        <time>2017-07-30T09:53:35Z</time>
      </trkpt>
      <trkpt lat="42.61424" lon="-0.20617">
        <ele>1586.7</ele>
        <time>2017-07-30T09:53:37Z</time>
      </trkpt>
      <trkpt lat="42.6142" lon="-0.20619">
        <ele>1587.7</ele>
        <time>2017-07-30T09:53:39Z</time>
      </trkpt>
      <trkpt lat="42.61416" lon="-0.20621">
        <ele>1588.6</ele>
        <time>2017-07-30T09:53:41Z</time>
      </trkpt>
      <trkpt lat="42.61413" lon="-0.20624">
        <ele>1590.1</ele>
        <time>2017-07-30T09:53:43Z</time>
      </trkpt>
      <trkpt lat="42.61409" lon="-0.20626">
        <ele>1591</ele>
        <time>2017-07-30T09:53:45Z</time>
      </trkpt>
      <trkpt lat="42.61406" lon="-0.20628">
        <ele>1591.8</ele>
        <time>2017-07-30T09:53:47Z</time>
      </trkpt>
      <trkpt lat="42.61403" lon="-0.20631">
        <ele>1592.5</ele>
        <time>2017-07-30T09:53:49Z</time>
      </trkpt>
      <trkpt lat="42.614" lon="-0.20634">
        <ele>1593.2</ele>
        <time>2017-07-30T09:53:51Z</time>
      </trkpt>
      <trkpt lat="42.61397" lon="-0.20637">
        <ele>1594</ele>
        <time>2017-07-30T09:53:53Z</time>
      </trkpt>
      <trkpt lat="42.61395" lon="-0.2064">
        <ele>1594.3</ele>
        <time>2017-07-30T09:53:55Z</time>
      </trkpt>
      <trkpt lat="42.61392" lon="-0.20644">
        <ele>1595.1</ele>
        <time>2017-07-30T09:53:57Z</time>
      </trkpt>
      <trkpt lat="42.6139" lon="-0.20648">
        <ele>1596</ele>
        <time>2017-07-30T09:53:59Z</time>
      </trkpt>
      <trkpt lat="42.61388" lon="-0.20651">
        <ele>1596.3</ele>
        <time>2017-07-30T09:54:01Z</time>
      </trkpt>
      <trkpt lat="42.61386" lon="-0.20655">
        <ele>1597.4</ele>
        <time>2017-07-30T09:54:03Z</time>
      </trkpt>
      <trkpt lat="42.61384" lon="-0.20658">
        <ele>1598.4</ele>
        <time>2017-07-30T09:54:05Z</time>
      </trkpt>
      <trkpt lat="42.61381" lon="-0.20661">
        <ele>1598.6</ele>
        <time>2017-07-30T09:54:07Z</time>
      </trkpt>
      <trkpt lat="42.61379" lon="-0.20665">
        <ele>1599.4</ele>
        <time>2017-07-30T09:54:09Z</time>
      </trkpt>
      <trkpt lat="42.61377" lon="-0.20668">
        <ele>1600.1</ele>
        <time>2017-07-30T09:54:11Z</time>
      </trkpt>
      <trkpt lat="42.61374" lon="-0.20672">
        <ele>1601.2</ele>
        <time>2017-07-30T09:54:13Z</time>
      </trkpt>
      <trkpt lat="42.61372" lon="-0.20675">
        <ele>1601.1</ele>
        <time>2017-07-30T09:54:15Z</time>
      </trkpt>
      <trkpt lat="42.6137" lon="-0.20679">
        <ele>1601.7</ele>
        <time>2017-07-30T09:54:17Z</time>
      </trkpt>
      <trkpt lat="42.61367" lon="-0.20682">
        <ele>1602.2</ele>
        <time>2017-07-30T09:54:19Z</time>
      </trkpt>
      <trkpt lat="42.61364" lon="-0.20687">
        <ele>1602.9</ele>
        <time>2017-07-30T09:54:21Z</time>
      </trkpt>
      <trkpt lat="42.61362" lon="-0.20691">
        <ele>1603.6</ele>
        <time>2017-07-30T09:54:23Z</time>
      </trkpt>
      <trkpt lat="42.61359" lon="-0.20695">
        <ele>1604.5</ele>
        <time>2017-07-30T09:54:25Z</time>
      </trkpt>
      <trkpt lat="42.61355" lon="-0.20698">
        <ele>1605.4</ele>
        <time>2017-07-30T09:54:27Z</time>
      </trkpt>
      <trkpt lat="42.61352" lon="-0.20702">
        <ele>1606.5</ele>
        <time>2017-07-30T09:54:29Z</time>
      </trkpt>
      <trkpt lat="42.61349" lon="-0.20706">
        <ele>1607.8</ele>
        <time>2017-07-30T09:54:31Z</time>
      </trkpt>
      <trkpt lat="42.61346" lon="-0.20709">
        <ele>1609.1</ele>
        <time>2017-07-30T09:54:33Z</time>
      </trkpt>
      <trkpt lat="42.61343" lon="-0.20713">
        <ele>1610.3</ele>
        <time>2017-07-30T09:54:35Z</time>
      </trkpt>
      <trkpt lat="42.61339" lon="-0.20715">
        <ele>1611.2</ele>
        <time>2017-07-30T09:54:37Z</time>
      </trkpt>
      <trkpt lat="42.61335" lon="-0.20718">
        <ele>1612.2</ele>
        <time>2017-07-30T09:54:39Z</time>
      </trkpt>
      <trkpt lat="42.61331" lon="-0.2072">
        <ele>1613</ele>
        <time>2017-07-30T09:54:41Z</time>
      </trkpt>
      <trkpt lat="42.61328" lon="-0.20723">
        <ele>1613.6</ele>
        <time>2017-07-30T09:54:43Z</time>
      </trkpt>
      <trkpt lat="42.61325" lon="-0.20727">
        <ele>1614.3</ele>
        <time>2017-07-30T09:54:45Z</time>
      </trkpt>
      <trkpt lat="42.61322" lon="-0.20731">
        <ele>1615</ele>
        <time>2017-07-30T09:54:47Z</time>
      </trkpt>
      <trkpt lat="42.61318" lon="-0.20735">
        <ele>1615.8</ele>
        <time>2017-07-30T09:54:49Z</time>
      </trkpt>
      <trkpt lat="42.61315" lon="-0.20738">
        <ele>1617.2</ele>
        <time>2017-07-30T09:54:51Z</time>
      </trkpt>
      <trkpt lat="42.61311" lon="-0.20742">
        <ele>1618.2</ele>
        <time>2017-07-30T09:54:53Z</time>
      </trkpt>
      <trkpt lat="42.61308" lon="-0.20746">
        <ele>1619.2</ele>
        <time>2017-07-30T09:54:55Z</time>
      </trkpt>
      <trkpt lat="42.61305" lon="-0.20749">
        <ele>1620</ele>
        <time>2017-07-30T09:54:57Z</time>
      </trkpt>
      <trkpt lat="42.61302" lon="-0.20754">
        <ele>1621.1</ele>
        <time>2017-07-30T09:54:59Z</time>
      </trkpt>
      <trkpt lat="42.61299" lon="-0.20759">
        <ele>1622.2</ele>
        <time>2017-07-30T09:55:01Z</time>
      </trkpt>
      <trkpt lat="42.61295" lon="-0.20765">
        <ele>1623.2</ele>
        <time>2017-07-30T09:55:03Z</time>
      </trkpt>
      <trkpt lat="42.61292" lon="-0.2077">
        <ele>1624.1</ele>
        <time>2017-07-30T09:55:05Z</time>
      </trkpt>
      <trkpt lat="42.61288" lon="-0.20775">
        <ele>1625</ele>
        <time>2017-07-30T09:55:07Z</time>
      </trkpt>
      <trkpt lat="42.61286" lon="-0.20778">
        <ele>1625.6</ele>
        <time>2017-07-30T09:55:08Z</time>
      </trkpt>
      <trkpt lat="42.61284" lon="-0.2078">
        <ele>1625.7</ele>
        <time>2017-07-30T09:55:09Z</time>
      </trkpt>
      <trkpt lat="42.61282" lon="-0.20783">
        <ele>1626.3</ele>
        <time>2017-07-30T09:55:10Z</time>
      </trkpt>
      <trkpt lat="42.61279" lon="-0.20785">
        <ele>1626.3</ele>
        <time>2017-07-30T09:55:11Z</time>
      </trkpt>
      <trkpt lat="42.61277" lon="-0.20787">
        <ele>1626.7</ele>
        <time>2017-07-30T09:55:12Z</time>
      </trkpt>
      <trkpt lat="42.61274" lon="-0.20789">
        <ele>1626.2</ele>
        <time>2017-07-30T09:55:13Z</time>
      </trkpt>
      <trkpt lat="42.61271" lon="-0.2079">
        <ele>1626.4</ele>
        <time>2017-07-30T09:55:14Z</time>
      </trkpt>
      <trkpt lat="42.61268" lon="-0.2079">
        <ele>1626.6</ele>
        <time>2017-07-30T09:55:15Z</time>
      </trkpt>
      <trkpt lat="42.61265" lon="-0.20789">
        <ele>1626.6</ele>
        <time>2017-07-30T09:55:16Z</time>
      </trkpt>
      <trkpt lat="42.61262" lon="-0.20787">
        <ele>1627.4</ele>
        <time>2017-07-30T09:55:17Z</time>
      </trkpt>
      <trkpt lat="42.61259" lon="-0.20785">
        <ele>1627.3</ele>
        <time>2017-07-30T09:55:18Z</time>
      </trkpt>
      <trkpt lat="42.61256" lon="-0.20782">
        <ele>1628.1</ele>
        <time>2017-07-30T09:55:19Z</time>
      </trkpt>
      <trkpt lat="42.61253" lon="-0.20779">
        <ele>1628.9</ele>
        <time>2017-07-30T09:55:20Z</time>
      </trkpt>
      <trkpt lat="42.6125" lon="-0.20776">
        <ele>1628.9</ele>
        <time>2017-07-30T09:55:21Z</time>
      </trkpt>
      <trkpt lat="42.61247" lon="-0.20772">
        <ele>1630.1</ele>
        <time>2017-07-30T09:55:22Z</time>
      </trkpt>
      <trkpt lat="42.61243" lon="-0.20768">
        <ele>1631.3</ele>
        <time>2017-07-30T09:55:23Z</time>
      </trkpt>
      <trkpt lat="42.61239" lon="-0.20764">
        <ele>1632.5</ele>
        <time>2017-07-30T09:55:24Z</time>
      </trkpt>
      <trkpt lat="42.61236" lon="-0.2076">
        <ele>1633</ele>
        <time>2017-07-30T09:55:25Z</time>
      </trkpt>
      <trkpt lat="42.61233" lon="-0.20756">
        <ele>1633.3</ele>
        <time>2017-07-30T09:55:26Z</time>
      </trkpt>
      <trkpt lat="42.61229" lon="-0.20752">
        <ele>1633.3</ele>
        <time>2017-07-30T09:55:27Z</time>
      </trkpt>
      <trkpt lat="42.61226" lon="-0.20747">
        <ele>1633.1</ele>
        <time>2017-07-30T09:55:28Z</time>
      </trkpt>
      <trkpt lat="42.61223" lon="-0.20743">
        <ele>1632.9</ele>
        <time>2017-07-30T09:55:29Z</time>
      </trkpt>
      <trkpt lat="42.61219" lon="-0.20739">
        <ele>1632.7</ele>
        <time>2017-07-30T09:55:30Z</time>
      </trkpt>
      <trkpt lat="42.61216" lon="-0.20735">
        <ele>1632.6</ele>
        <time>2017-07-30T09:55:31Z</time>
      </trkpt>
      <trkpt lat="42.61213" lon="-0.20732">
        <ele>1632.4</ele>
        <time>2017-07-30T09:55:32Z</time>
      </trkpt>
      <trkpt lat="42.61209" lon="-0.20728">
        <ele>1632.3</ele>
        <time>2017-07-30T09:55:33Z</time>
      </trkpt>
      <trkpt lat="42.61206" lon="-0.20724">
        <ele>1632.1</ele>
        <time>2017-07-30T09:55:34Z</time>
      </trkpt>
      <trkpt lat="42.61202" lon="-0.20721">
        <ele>1631.3</ele>
        <time>2017-07-30T09:55:35Z</time>
      </trkpt>
      <trkpt lat="42.61199" lon="-0.20718">
        <ele>1630.7</ele>
        <time>2017-07-30T09:55:36Z</time>
      </trkpt>
      <trkpt lat="42.61195" lon="-0.20714">
        <ele>1630.1</ele>
        <time>2017-07-30T09:55:37Z</time>
      </trkpt>
      <trkpt lat="42.61191" lon="-0.20711">
        <ele>1630.1</ele>
        <time>2017-07-30T09:55:38Z</time>
      </trkpt>
      <trkpt lat="42.61187" lon="-0.20708">
        <ele>1630.2</ele>
        <time>2017-07-30T09:55:39Z</time>
      </trkpt>
      <trkpt lat="42.61183" lon="-0.20705">
        <ele>1630.4</ele>
        <time>2017-07-30T09:55:40Z</time>
      </trkpt>
      <trkpt lat="42.6118" lon="-0.20702">
        <ele>1630.7</ele>
        <time>2017-07-30T09:55:41Z</time>
      </trkpt>
      <trkpt lat="42.61177" lon="-0.20699">
        <ele>1631.2</ele>
        <time>2017-07-30T09:55:42Z</time>
      </trkpt>
      <trkpt lat="42.61174" lon="-0.20696">
        <ele>1631.6</ele>
        <time>2017-07-30T09:55:43Z</time>
      </trkpt>
      <trkpt lat="42.61171" lon="-0.20693">
        <ele>1632</ele>
        <time>2017-07-30T09:55:44Z</time>
      </trkpt>
      <trkpt lat="42.61168" lon="-0.2069">
        <ele>1632.4</ele>
        <time>2017-07-30T09:55:45Z</time>
      </trkpt>
      <trkpt lat="42.61165" lon="-0.20688">
        <ele>1632.7</ele>
        <time>2017-07-30T09:55:46Z</time>
      </trkpt>
      <trkpt lat="42.61162" lon="-0.20687">
        <ele>1632.8</ele>
        <time>2017-07-30T09:55:47Z</time>
      </trkpt>
      <trkpt lat="42.61157" lon="-0.20685">
        <ele>1633.1</ele>
        <time>2017-07-30T09:55:49Z</time>
      </trkpt>
      <trkpt lat="42.61154" lon="-0.20684">
        <ele>1633.2</ele>
        <time>2017-07-30T09:55:50Z</time>
      </trkpt>
      <trkpt lat="42.61152" lon="-0.20683">
        <ele>1633.3</ele>
        <time>2017-07-30T09:55:51Z</time>
      </trkpt>
      <trkpt lat="42.61149" lon="-0.20682">
        <ele>1633.1</ele>
        <time>2017-07-30T09:55:52Z</time>
      </trkpt>
      <trkpt lat="42.61146" lon="-0.20682">
        <ele>1632.7</ele>
        <time>2017-07-30T09:55:53Z</time>
      </trkpt>
      <trkpt lat="42.61143" lon="-0.20682">
        <ele>1632.2</ele>
        <time>2017-07-30T09:55:54Z</time>
      </trkpt>
      <trkpt lat="42.6114" lon="-0.20682">
        <ele>1631.7</ele>
        <time>2017-07-30T09:55:55Z</time>
      </trkpt>
      <trkpt lat="42.61137" lon="-0.20682">
        <ele>1631.1</ele>
        <time>2017-07-30T09:55:56Z</time>
      </trkpt>
      <trkpt lat="42.61134" lon="-0.20682">
        <ele>1630.6</ele>
        <time>2017-07-30T09:55:57Z</time>
      </trkpt>
      <trkpt lat="42.61132" lon="-0.20681">
        <ele>1630</ele>
        <time>2017-07-30T09:55:58Z</time>
      </trkpt>
      <trkpt lat="42.61129" lon="-0.20681">
        <ele>1629.4</ele>
        <time>2017-07-30T09:55:59Z</time>
      </trkpt>
      <trkpt lat="42.61126" lon="-0.20681">
        <ele>1628.8</ele>
        <time>2017-07-30T09:56:00Z</time>
      </trkpt>
      <trkpt lat="42.61121" lon="-0.20681">
        <ele>1627.8</ele>
        <time>2017-07-30T09:56:02Z</time>
      </trkpt>
      <trkpt lat="42.61116" lon="-0.2068">
        <ele>1626.8</ele>
        <time>2017-07-30T09:56:04Z</time>
      </trkpt>
      <trkpt lat="42.61111" lon="-0.2068">
        <ele>1626.1</ele>
        <time>2017-07-30T09:56:06Z</time>
      </trkpt>
      <trkpt lat="42.61106" lon="-0.2068">
        <ele>1625.6</ele>
        <time>2017-07-30T09:56:08Z</time>
      </trkpt>
      <trkpt lat="42.61101" lon="-0.2068">
        <ele>1625.4</ele>
        <time>2017-07-30T09:56:10Z</time>
      </trkpt>
      <trkpt lat="42.61096" lon="-0.2068">
        <ele>1625.8</ele>
        <time>2017-07-30T09:56:12Z</time>
      </trkpt>
      <trkpt lat="42.6109" lon="-0.2068">
        <ele>1626.8</ele>
        <time>2017-07-30T09:56:14Z</time>
      </trkpt>
      <trkpt lat="42.61085" lon="-0.20682">
        <ele>1628.1</ele>
        <time>2017-07-30T09:56:16Z</time>
      </trkpt>
      <trkpt lat="42.6108" lon="-0.20683">
        <ele>1629.5</ele>
        <time>2017-07-30T09:56:18Z</time>
      </trkpt>
      <trkpt lat="42.61075" lon="-0.20684">
        <ele>1631</ele>
        <time>2017-07-30T09:56:20Z</time>
      </trkpt>
      <trkpt lat="42.6107" lon="-0.20686">
        <ele>1632.3</ele>
        <time>2017-07-30T09:56:22Z</time>
      </trkpt>
      <trkpt lat="42.61065" lon="-0.20687">
        <ele>1633.5</ele>
        <time>2017-07-30T09:56:24Z</time>
      </trkpt>
      <trkpt lat="42.61061" lon="-0.20687">
        <ele>1634.5</ele>
        <time>2017-07-30T09:56:26Z</time>
      </trkpt>
      <trkpt lat="42.61058" lon="-0.20687">
        <ele>1635.2</ele>
        <time>2017-07-30T09:56:28Z</time>
      </trkpt>
      <trkpt lat="42.61055" lon="-0.20686">
        <ele>1635.9</ele>
        <time>2017-07-30T09:56:30Z</time>
      </trkpt>
      <trkpt lat="42.61051" lon="-0.20685">
        <ele>1637.1</ele>
        <time>2017-07-30T09:56:32Z</time>
      </trkpt>
      <trkpt lat="42.61049" lon="-0.20684">
        <ele>1638.4</ele>
        <time>2017-07-30T09:56:34Z</time>
      </trkpt>
      <trkpt lat="42.61046" lon="-0.20681">
        <ele>1639.9</ele>
        <time>2017-07-30T09:56:36Z</time>
      </trkpt>
      <trkpt lat="42.61044" lon="-0.20678">
        <ele>1640.6</ele>
        <time>2017-07-30T09:56:38Z</time>
      </trkpt>
      <trkpt lat="42.61041" lon="-0.20677">
        <ele>1641.2</ele>
        <time>2017-07-30T09:56:40Z</time>
      </trkpt>
      <trkpt lat="42.61038" lon="-0.20675">
        <ele>1641.8</ele>
        <time>2017-07-30T09:56:42Z</time>
      </trkpt>
      <trkpt lat="42.61035" lon="-0.20674">
        <ele>1642.2</ele>
        <time>2017-07-30T09:56:44Z</time>
      </trkpt>
      <trkpt lat="42.61031" lon="-0.20673">
        <ele>1642.6</ele>
        <time>2017-07-30T09:56:46Z</time>
      </trkpt>
      <trkpt lat="42.61028" lon="-0.20671">
        <ele>1642.8</ele>
        <time>2017-07-30T09:56:48Z</time>
      </trkpt>
      <trkpt lat="42.61025" lon="-0.20669">
        <ele>1642.9</ele>
        <time>2017-07-30T09:56:50Z</time>
      </trkpt>
      <trkpt lat="42.61021" lon="-0.20667">
        <ele>1643</ele>
        <time>2017-07-30T09:56:52Z</time>
      </trkpt>
      <trkpt lat="42.61018" lon="-0.20665">
        <ele>1643.3</ele>
        <time>2017-07-30T09:56:54Z</time>
      </trkpt>
      <trkpt lat="42.61015" lon="-0.20663">
        <ele>1643.5</ele>
        <time>2017-07-30T09:56:56Z</time>
      </trkpt>
      <trkpt lat="42.61012" lon="-0.20662">
        <ele>1643.8</ele>
        <time>2017-07-30T09:56:58Z</time>
      </trkpt>
      <trkpt lat="42.61009" lon="-0.2066">
        <ele>1644.2</ele>
        <time>2017-07-30T09:57:00Z</time>
      </trkpt>
      <trkpt lat="42.61006" lon="-0.20659">
        <ele>1644.6</ele>
        <time>2017-07-30T09:57:02Z</time>
      </trkpt>
      <trkpt lat="42.61002" lon="-0.20657">
        <ele>1645.3</ele>
        <time>2017-07-30T09:57:04Z</time>
      </trkpt>
      <trkpt lat="42.60999" lon="-0.20654">
        <ele>1646.1</ele>
        <time>2017-07-30T09:57:06Z</time>
      </trkpt>
      <trkpt lat="42.60996" lon="-0.20652">
        <ele>1646.7</ele>
        <time>2017-07-30T09:57:08Z</time>
      </trkpt>
      <trkpt lat="42.60993" lon="-0.20649">
        <ele>1647.1</ele>
        <time>2017-07-30T09:57:10Z</time>
      </trkpt>
      <trkpt lat="42.6099" lon="-0.20646">
        <ele>1647.6</ele>
        <time>2017-07-30T09:57:12Z</time>
      </trkpt>
      <trkpt lat="42.60986" lon="-0.20644">
        <ele>1648.3</ele>
        <time>2017-07-30T09:57:14Z</time>
      </trkpt>
      <trkpt lat="42.60982" lon="-0.20641">
        <ele>1649</ele>
        <time>2017-07-30T09:57:16Z</time>
      </trkpt>
      <trkpt lat="42.60979" lon="-0.20639">
        <ele>1649.1</ele>
        <time>2017-07-30T09:57:18Z</time>
      </trkpt>
      <trkpt lat="42.60975" lon="-0.20638">
        <ele>1649.3</ele>
        <time>2017-07-30T09:57:20Z</time>
      </trkpt>
      <trkpt lat="42.6097" lon="-0.20639">
        <ele>1649.2</ele>
        <time>2017-07-30T09:57:22Z</time>
      </trkpt>
      <trkpt lat="42.60965" lon="-0.2064">
        <ele>1649.1</ele>
        <time>2017-07-30T09:57:24Z</time>
      </trkpt>
      <trkpt lat="42.6096" lon="-0.20641">
        <ele>1648.7</ele>
        <time>2017-07-30T09:57:26Z</time>
      </trkpt>
      <trkpt lat="42.60956" lon="-0.20642">
        <ele>1648</ele>
        <time>2017-07-30T09:57:28Z</time>
      </trkpt>
      <trkpt lat="42.60951" lon="-0.20643">
        <ele>1647</ele>
        <time>2017-07-30T09:57:30Z</time>
      </trkpt>
      <trkpt lat="42.60946" lon="-0.20643">
        <ele>1645.8</ele>
        <time>2017-07-30T09:57:32Z</time>
      </trkpt>
      <trkpt lat="42.60942" lon="-0.20642">
        <ele>1644.7</ele>
        <time>2017-07-30T09:57:34Z</time>
      </trkpt>
      <trkpt lat="42.60937" lon="-0.20642">
        <ele>1644</ele>
        <time>2017-07-30T09:57:36Z</time>
      </trkpt>
      <trkpt lat="42.60933" lon="-0.20642">
        <ele>1643.5</ele>
        <time>2017-07-30T09:57:38Z</time>
      </trkpt>
      <trkpt lat="42.60928" lon="-0.20643">
        <ele>1643.2</ele>
        <time>2017-07-30T09:57:40Z</time>
      </trkpt>
      <trkpt lat="42.60923" lon="-0.20644">
        <ele>1643.1</ele>
        <time>2017-07-30T09:57:42Z</time>
      </trkpt>
      <trkpt lat="42.60919" lon="-0.20645">
        <ele>1643.5</ele>
        <time>2017-07-30T09:57:44Z</time>
      </trkpt>
      <trkpt lat="42.60915" lon="-0.20646">
        <ele>1643.9</ele>
        <time>2017-07-30T09:57:46Z</time>
      </trkpt>
      <trkpt lat="42.60912" lon="-0.20647">
        <ele>1644.4</ele>
        <time>2017-07-30T09:57:48Z</time>
      </trkpt>
      <trkpt lat="42.60909" lon="-0.20648">
        <ele>1644.8</ele>
        <time>2017-07-30T09:57:50Z</time>
      </trkpt>
      <trkpt lat="42.60906" lon="-0.20649">
        <ele>1645.3</ele>
        <time>2017-07-30T09:57:52Z</time>
      </trkpt>
      <trkpt lat="42.60902" lon="-0.20649">
        <ele>1646.6</ele>
        <time>2017-07-30T09:57:55Z</time>
      </trkpt>
      <trkpt lat="42.60898" lon="-0.20649">
        <ele>1647.7</ele>
        <time>2017-07-30T09:57:58Z</time>
      </trkpt>
      <trkpt lat="42.60895" lon="-0.20648">
        <ele>1648.2</ele>
        <time>2017-07-30T09:58:01Z</time>
      </trkpt>
      <trkpt lat="42.60891" lon="-0.20647">
        <ele>1648.7</ele>
        <time>2017-07-30T09:58:04Z</time>
      </trkpt>
      <trkpt lat="42.60887" lon="-0.20645">
        <ele>1650.3</ele>
        <time>2017-07-30T09:58:07Z</time>
      </trkpt>
      <trkpt lat="42.60883" lon="-0.20644">
        <ele>1652</ele>
        <time>2017-07-30T09:58:10Z</time>
      </trkpt>
      <trkpt lat="42.60879" lon="-0.20642">
        <ele>1653.1</ele>
        <time>2017-07-30T09:58:13Z</time>
      </trkpt>
      <trkpt lat="42.60877" lon="-0.2064">
        <ele>1653.7</ele>
        <time>2017-07-30T09:58:15Z</time>
      </trkpt>
      <trkpt lat="42.60875" lon="-0.20638">
        <ele>1654.2</ele>
        <time>2017-07-30T09:58:17Z</time>
      </trkpt>
      <trkpt lat="42.60873" lon="-0.20635">
        <ele>1654.6</ele>
        <time>2017-07-30T09:58:19Z</time>
      </trkpt>
      <trkpt lat="42.60871" lon="-0.20632">
        <ele>1655</ele>
        <time>2017-07-30T09:58:21Z</time>
      </trkpt>
      <trkpt lat="42.60868" lon="-0.2063">
        <ele>1655.4</ele>
        <time>2017-07-30T09:58:23Z</time>
      </trkpt>
      <trkpt lat="42.60867" lon="-0.20626">
        <ele>1655.7</ele>
        <time>2017-07-30T09:58:25Z</time>
      </trkpt>
      <trkpt lat="42.60865" lon="-0.20623">
        <ele>1656</ele>
        <time>2017-07-30T09:58:27Z</time>
      </trkpt>
      <trkpt lat="42.60863" lon="-0.2062">
        <ele>1656.3</ele>
        <time>2017-07-30T09:58:29Z</time>
      </trkpt>
      <trkpt lat="42.6086" lon="-0.20618">
        <ele>1656.5</ele>
        <time>2017-07-30T09:58:31Z</time>
      </trkpt>
      <trkpt lat="42.60858" lon="-0.20616">
        <ele>1656.6</ele>
        <time>2017-07-30T09:58:33Z</time>
      </trkpt>
      <trkpt lat="42.60854" lon="-0.20614">
        <ele>1656.9</ele>
        <time>2017-07-30T09:58:36Z</time>
      </trkpt>
      <trkpt lat="42.60851" lon="-0.20614">
        <ele>1657.3</ele>
        <time>2017-07-30T09:58:38Z</time>
      </trkpt>
      <trkpt lat="42.60849" lon="-0.20614">
        <ele>1657.6</ele>
        <time>2017-07-30T09:58:40Z</time>
      </trkpt>
      <trkpt lat="42.60845" lon="-0.20615">
        <ele>1658.3</ele>
        <time>2017-07-30T09:58:43Z</time>
      </trkpt>
      <trkpt lat="42.60841" lon="-0.20617">
        <ele>1659.3</ele>
        <time>2017-07-30T09:58:46Z</time>
      </trkpt>
      <trkpt lat="42.60838" lon="-0.20618">
        <ele>1660</ele>
        <time>2017-07-30T09:58:49Z</time>
      </trkpt>
      <trkpt lat="42.60834" lon="-0.20619">
        <ele>1660.6</ele>
        <time>2017-07-30T09:58:52Z</time>
      </trkpt>
      <trkpt lat="42.6083" lon="-0.2062">
        <ele>1661.2</ele>
        <time>2017-07-30T09:58:55Z</time>
      </trkpt>
      <trkpt lat="42.60827" lon="-0.20622">
        <ele>1662</ele>
        <time>2017-07-30T09:58:58Z</time>
      </trkpt>
      <trkpt lat="42.60823" lon="-0.20622">
        <ele>1662.9</ele>
        <time>2017-07-30T09:59:01Z</time>
      </trkpt>
      <trkpt lat="42.6082" lon="-0.20622">
        <ele>1663.5</ele>
        <time>2017-07-30T09:59:04Z</time>
      </trkpt>
      <trkpt lat="42.60816" lon="-0.20623">
        <ele>1664.2</ele>
        <time>2017-07-30T09:59:07Z</time>
      </trkpt>
      <trkpt lat="42.60812" lon="-0.20624">
        <ele>1665</ele>
        <time>2017-07-30T09:59:10Z</time>
      </trkpt>
      <trkpt lat="42.60809" lon="-0.20625">
        <ele>1665.7</ele>
        <time>2017-07-30T09:59:13Z</time>
      </trkpt>
      <trkpt lat="42.60805" lon="-0.20625">
        <ele>1666.5</ele>
        <time>2017-07-30T09:59:16Z</time>
      </trkpt>
      <trkpt lat="42.60801" lon="-0.20625">
        <ele>1667.2</ele>
        <time>2017-07-30T09:59:19Z</time>
      </trkpt>
      <trkpt lat="42.60798" lon="-0.20624">
        <ele>1668</ele>
        <time>2017-07-30T09:59:22Z</time>
      </trkpt>
      <trkpt lat="42.60794" lon="-0.20623">
        <ele>1668.8</ele>
        <time>2017-07-30T09:59:25Z</time>
      </trkpt>
      <trkpt lat="42.60791" lon="-0.20623">
        <ele>1669.6</ele>
        <time>2017-07-30T09:59:28Z</time>
      </trkpt>
      <trkpt lat="42.60787" lon="-0.20624">
        <ele>1670.1</ele>
        <time>2017-07-30T09:59:31Z</time>
      </trkpt>
      <trkpt lat="42.60784" lon="-0.20625">
        <ele>1670.5</ele>
        <time>2017-07-30T09:59:34Z</time>
      </trkpt>
      <trkpt lat="42.60781" lon="-0.20624">
        <ele>1671</ele>
        <time>2017-07-30T09:59:37Z</time>
      </trkpt>
      <trkpt lat="42.60778" lon="-0.20623">
        <ele>1671.3</ele>
        <time>2017-07-30T09:59:40Z</time>
      </trkpt>
      <trkpt lat="42.60774" lon="-0.20621">
        <ele>1671.7</ele>
        <time>2017-07-30T09:59:43Z</time>
      </trkpt>
      <trkpt lat="42.60771" lon="-0.20619">
        <ele>1672.4</ele>
        <time>2017-07-30T09:59:46Z</time>
      </trkpt>
      <trkpt lat="42.60769" lon="-0.20616">
        <ele>1672.9</ele>
        <time>2017-07-30T09:59:48Z</time>
      </trkpt>
      <trkpt lat="42.60766" lon="-0.20615">
        <ele>1673.4</ele>
        <time>2017-07-30T09:59:50Z</time>
      </trkpt>
      <trkpt lat="42.60764" lon="-0.20613">
        <ele>1673.7</ele>
        <time>2017-07-30T09:59:52Z</time>
      </trkpt>
      <trkpt lat="42.60761" lon="-0.20612">
        <ele>1674</ele>
        <time>2017-07-30T09:59:54Z</time>
      </trkpt>
      <trkpt lat="42.60758" lon="-0.20611">
        <ele>1674.4</ele>
        <time>2017-07-30T09:59:56Z</time>
      </trkpt>
      <trkpt lat="42.60756" lon="-0.20609">
        <ele>1674.6</ele>
        <time>2017-07-30T09:59:58Z</time>
      </trkpt>
      <trkpt lat="42.60753" lon="-0.20607">
        <ele>1674.7</ele>
        <time>2017-07-30T10:00:00Z</time>
      </trkpt>
      <trkpt lat="42.6075" lon="-0.20605">
        <ele>1674.9</ele>
        <time>2017-07-30T10:00:02Z</time>
      </trkpt>
      <trkpt lat="42.60747" lon="-0.20603">
        <ele>1674.9</ele>
        <time>2017-07-30T10:00:04Z</time>
      </trkpt>
      <trkpt lat="42.60744" lon="-0.20602">
        <ele>1675</ele>
        <time>2017-07-30T10:00:06Z</time>
      </trkpt>
      <trkpt lat="42.60742" lon="-0.20601">
        <ele>1675.1</ele>
        <time>2017-07-30T10:00:08Z</time>
      </trkpt>
      <trkpt lat="42.60739" lon="-0.20599">
        <ele>1675.3</ele>
        <time>2017-07-30T10:00:10Z</time>
      </trkpt>
      <trkpt lat="42.60736" lon="-0.20598">
        <ele>1675.6</ele>
        <time>2017-07-30T10:00:12Z</time>
      </trkpt>
      <trkpt lat="42.60734" lon="-0.20596">
        <ele>1675.8</ele>
        <time>2017-07-30T10:00:14Z</time>
      </trkpt>
      <trkpt lat="42.60731" lon="-0.20595">
        <ele>1676.3</ele>
        <time>2017-07-30T10:00:16Z</time>
      </trkpt>
      <trkpt lat="42.60728" lon="-0.20594">
        <ele>1676.9</ele>
        <time>2017-07-30T10:00:18Z</time>
      </trkpt>
      <trkpt lat="42.60724" lon="-0.20593">
        <ele>1677.6</ele>
        <time>2017-07-30T10:00:21Z</time>
      </trkpt>
      <trkpt lat="42.60722" lon="-0.20592">
        <ele>1677.7</ele>
        <time>2017-07-30T10:00:23Z</time>
      </trkpt>
      <trkpt lat="42.60718" lon="-0.2059">
        <ele>1677.9</ele>
        <time>2017-07-30T10:00:26Z</time>
      </trkpt>
      <trkpt lat="42.60715" lon="-0.20589">
        <ele>1678</ele>
        <time>2017-07-30T10:00:28Z</time>
      </trkpt>
      <trkpt lat="42.60712" lon="-0.20588">
        <ele>1678.2</ele>
        <time>2017-07-30T10:00:31Z</time>
      </trkpt>
      <trkpt lat="42.60708" lon="-0.20587">
        <ele>1678.4</ele>
        <time>2017-07-30T10:00:34Z</time>
      </trkpt>
      <trkpt lat="42.60704" lon="-0.20586">
        <ele>1678.8</ele>
        <time>2017-07-30T10:00:37Z</time>
      </trkpt>
      <trkpt lat="42.607" lon="-0.20586">
        <ele>1679.2</ele>
        <time>2017-07-30T10:00:40Z</time>
      </trkpt>
      <trkpt lat="42.60697" lon="-0.20585">
        <ele>1679.8</ele>
        <time>2017-07-30T10:00:42Z</time>
      </trkpt>
      <trkpt lat="42.60694" lon="-0.20584">
        <ele>1680.6</ele>
        <time>2017-07-30T10:00:45Z</time>
      </trkpt>
      <trkpt lat="42.6069" lon="-0.20584">
        <ele>1681.5</ele>
        <time>2017-07-30T10:00:48Z</time>
      </trkpt>
      <trkpt lat="42.60687" lon="-0.20583">
        <ele>1682.2</ele>
        <time>2017-07-30T10:00:50Z</time>
      </trkpt>
      <trkpt lat="42.60684" lon="-0.20582">
        <ele>1683</ele>
        <time>2017-07-30T10:00:52Z</time>
      </trkpt>
      <trkpt lat="42.60681" lon="-0.20582">
        <ele>1684.3</ele>
        <time>2017-07-30T10:00:54Z</time>
      </trkpt>
      <trkpt lat="42.60678" lon="-0.20581">
        <ele>1685.7</ele>
        <time>2017-07-30T10:00:56Z</time>
      </trkpt>
      <trkpt lat="42.60676" lon="-0.2058">
        <ele>1686.8</ele>
        <time>2017-07-30T10:00:58Z</time>
      </trkpt>
      <trkpt lat="42.60672" lon="-0.2058">
        <ele>1687.7</ele>
        <time>2017-07-30T10:01:01Z</time>
      </trkpt>
      <trkpt lat="42.60668" lon="-0.20578">
        <ele>1688.7</ele>
        <time>2017-07-30T10:01:04Z</time>
      </trkpt>
      <trkpt lat="42.60666" lon="-0.20576">
        <ele>1689.1</ele>
        <time>2017-07-30T10:01:06Z</time>
      </trkpt>
      <trkpt lat="42.60663" lon="-0.20575">
        <ele>1689.5</ele>
        <time>2017-07-30T10:01:08Z</time>
      </trkpt>
      <trkpt lat="42.6066" lon="-0.20574">
        <ele>1689.8</ele>
        <time>2017-07-30T10:01:10Z</time>
      </trkpt>
      <trkpt lat="42.60657" lon="-0.20572">
        <ele>1689.7</ele>
        <time>2017-07-30T10:01:13Z</time>
      </trkpt>
      <trkpt lat="42.60653" lon="-0.2057">
        <ele>1689.6</ele>
        <time>2017-07-30T10:01:16Z</time>
      </trkpt>
      <trkpt lat="42.6065" lon="-0.20568">
        <ele>1689.5</ele>
        <time>2017-07-30T10:01:19Z</time>
      </trkpt>
      <trkpt lat="42.60646" lon="-0.20567">
        <ele>1689.2</ele>
        <time>2017-07-30T10:01:22Z</time>
      </trkpt>
      <trkpt lat="42.60642" lon="-0.20566">
        <ele>1689.1</ele>
        <time>2017-07-30T10:01:25Z</time>
      </trkpt>
      <trkpt lat="42.60639" lon="-0.20565">
        <ele>1689</ele>
        <time>2017-07-30T10:01:27Z</time>
      </trkpt>
      <trkpt lat="42.60636" lon="-0.20564">
        <ele>1688.9</ele>
        <time>2017-07-30T10:01:29Z</time>
      </trkpt>
      <trkpt lat="42.60632" lon="-0.20563">
        <ele>1689.2</ele>
        <time>2017-07-30T10:01:32Z</time>
      </trkpt>
      <trkpt lat="42.60629" lon="-0.20562">
        <ele>1689.7</ele>
        <time>2017-07-30T10:01:35Z</time>
      </trkpt>
      <trkpt lat="42.60625" lon="-0.20561">
        <ele>1690.6</ele>
        <time>2017-07-30T10:01:38Z</time>
      </trkpt>
      <trkpt lat="42.60621" lon="-0.2056">
        <ele>1691.7</ele>
        <time>2017-07-30T10:01:41Z</time>
      </trkpt>
      <trkpt lat="42.60618" lon="-0.20558">
        <ele>1692.8</ele>
        <time>2017-07-30T10:01:44Z</time>
      </trkpt>
      <trkpt lat="42.60614" lon="-0.20558">
        <ele>1693.6</ele>
        <time>2017-07-30T10:01:47Z</time>
      </trkpt>
      <trkpt lat="42.60611" lon="-0.20557">
        <ele>1694.4</ele>
        <time>2017-07-30T10:01:50Z</time>
      </trkpt>
      <trkpt lat="42.60608" lon="-0.20555">
        <ele>1695.5</ele>
        <time>2017-07-30T10:01:53Z</time>
      </trkpt>
      <trkpt lat="42.60604" lon="-0.20554">
        <ele>1696.9</ele>
        <time>2017-07-30T10:01:56Z</time>
      </trkpt>
      <trkpt lat="42.60601" lon="-0.20554">
        <ele>1697.9</ele>
        <time>2017-07-30T10:01:59Z</time>
      </trkpt>
      <trkpt lat="42.60599" lon="-0.20552">
        <ele>1698.7</ele>
        <time>2017-07-30T10:02:02Z</time>
      </trkpt>
      <trkpt lat="42.60596" lon="-0.20553">
        <ele>1699.5</ele>
        <time>2017-07-30T10:02:05Z</time>
      </trkpt>
      <trkpt lat="42.60593" lon="-0.20553">
        <ele>1700.6</ele>
        <time>2017-07-30T10:02:08Z</time>
      </trkpt>
      <trkpt lat="42.60589" lon="-0.20553">
        <ele>1702.3</ele>
        <time>2017-07-30T10:02:11Z</time>
      </trkpt>
      <trkpt lat="42.60587" lon="-0.20554">
        <ele>1703.9</ele>
        <time>2017-07-30T10:02:14Z</time>
      </trkpt>
      <trkpt lat="42.60584" lon="-0.20556">
        <ele>1705.3</ele>
        <time>2017-07-30T10:02:17Z</time>
      </trkpt>
      <trkpt lat="42.6058" lon="-0.20556">
        <ele>1706.7</ele>
        <time>2017-07-30T10:02:20Z</time>
      </trkpt>
      <trkpt lat="42.60577" lon="-0.20556">
        <ele>1707.9</ele>
        <time>2017-07-30T10:02:23Z</time>
      </trkpt>
      <trkpt lat="42.60574" lon="-0.20557">
        <ele>1709</ele>
        <time>2017-07-30T10:02:26Z</time>
      </trkpt>
      <trkpt lat="42.60571" lon="-0.20558">
        <ele>1709.9</ele>
        <time>2017-07-30T10:02:29Z</time>
      </trkpt>
      <trkpt lat="42.60568" lon="-0.20559">
        <ele>1710.9</ele>
        <time>2017-07-30T10:02:32Z</time>
      </trkpt>
      <trkpt lat="42.60565" lon="-0.20559">
        <ele>1712.6</ele>
        <time>2017-07-30T10:02:35Z</time>
      </trkpt>
      <trkpt lat="42.60562" lon="-0.2056">
        <ele>1714.2</ele>
        <time>2017-07-30T10:02:38Z</time>
      </trkpt>
      <trkpt lat="42.6056" lon="-0.20562">
        <ele>1715.8</ele>
        <time>2017-07-30T10:02:41Z</time>
      </trkpt>
      <trkpt lat="42.60557" lon="-0.20564">
        <ele>1715.7</ele>
        <time>2017-07-30T10:02:44Z</time>
      </trkpt>
      <trkpt lat="42.60554" lon="-0.20566">
        <ele>1715.5</ele>
        <time>2017-07-30T10:02:47Z</time>
      </trkpt>
      <trkpt lat="42.60552" lon="-0.20569">
        <ele>1716.3</ele>
        <time>2017-07-30T10:02:50Z</time>
      </trkpt>
      <trkpt lat="42.60549" lon="-0.20571">
        <ele>1715.9</ele>
        <time>2017-07-30T10:02:53Z</time>
      </trkpt>
      <trkpt lat="42.60547" lon="-0.20573">
        <ele>1716.8</ele>
        <time>2017-07-30T10:02:56Z</time>
      </trkpt>
      <trkpt lat="42.60544" lon="-0.20574">
        <ele>1716.4</ele>
        <time>2017-07-30T10:02:59Z</time>
      </trkpt>
      <trkpt lat="42.60541" lon="-0.20574">
        <ele>1717.4</ele>
        <time>2017-07-30T10:03:02Z</time>
      </trkpt>
      <trkpt lat="42.60538" lon="-0.20571">
        <ele>1718.8</ele>
        <time>2017-07-30T10:03:05Z</time>
      </trkpt>
      <trkpt lat="42.60536" lon="-0.20568">
        <ele>1721.2</ele>
        <time>2017-07-30T10:03:08Z</time>
      </trkpt>
      <trkpt lat="42.60535" lon="-0.20564">
        <ele>1722.3</ele>
        <time>2017-07-30T10:03:11Z</time>
      </trkpt>
      <trkpt lat="42.60535" lon="-0.20559">
        <ele>1724.3</ele>
        <time>2017-07-30T10:03:14Z</time>
      </trkpt>
      <trkpt lat="42.60535" lon="-0.20554">
        <ele>1725.1</ele>
        <time>2017-07-30T10:03:17Z</time>
      </trkpt>
      <trkpt lat="42.60534" lon="-0.20549">
        <ele>1725.8</ele>
        <time>2017-07-30T10:03:20Z</time>
      </trkpt>
      <trkpt lat="42.60534" lon="-0.20544">
        <ele>1726.5</ele>
        <time>2017-07-30T10:03:23Z</time>
      </trkpt>
      <trkpt lat="42.60534" lon="-0.2054">
        <ele>1727.2</ele>
        <time>2017-07-30T10:03:26Z</time>
      </trkpt>
      <trkpt lat="42.60533" lon="-0.20535">
        <ele>1727.9</ele>
        <time>2017-07-30T10:03:29Z</time>
      </trkpt>
      <trkpt lat="42.60533" lon="-0.20531">
        <ele>1728.2</ele>
        <time>2017-07-30T10:03:32Z</time>
      </trkpt>
      <trkpt lat="42.60531" lon="-0.20527">
        <ele>1728.6</ele>
        <time>2017-07-30T10:03:35Z</time>
      </trkpt>
      <trkpt lat="42.6053" lon="-0.20523">
        <ele>1728.9</ele>
        <time>2017-07-30T10:03:38Z</time>
      </trkpt>
      <trkpt lat="42.60529" lon="-0.20518">
        <ele>1729.2</ele>
        <time>2017-07-30T10:03:41Z</time>
      </trkpt>
      <trkpt lat="42.60526" lon="-0.20515">
        <ele>1729.6</ele>
        <time>2017-07-30T10:03:44Z</time>
      </trkpt>
      <trkpt lat="42.60523" lon="-0.20511">
        <ele>1729.9</ele>
        <time>2017-07-30T10:03:47Z</time>
      </trkpt>
      <trkpt lat="42.60521" lon="-0.20508">
        <ele>1730.5</ele>
        <time>2017-07-30T10:03:50Z</time>
      </trkpt>
      <trkpt lat="42.60519" lon="-0.20504">
        <ele>1731.2</ele>
        <time>2017-07-30T10:03:53Z</time>
      </trkpt>
      <trkpt lat="42.60516" lon="-0.20501">
        <ele>1731.7</ele>
        <time>2017-07-30T10:03:56Z</time>
      </trkpt>
      <trkpt lat="42.60514" lon="-0.20498">
        <ele>1731.9</ele>
        <time>2017-07-30T10:03:59Z</time>
      </trkpt>
      <trkpt lat="42.60511" lon="-0.20494">
        <ele>1732.2</ele>
        <time>2017-07-30T10:04:02Z</time>
      </trkpt>
      <trkpt lat="42.60509" lon="-0.20491">
        <ele>1732.6</ele>
        <time>2017-07-30T10:04:05Z</time>
      </trkpt>
      <trkpt lat="42.60506" lon="-0.20488">
        <ele>1733.1</ele>
        <time>2017-07-30T10:04:08Z</time>
      </trkpt>
      <trkpt lat="42.60504" lon="-0.20485">
        <ele>1733.4</ele>
        <time>2017-07-30T10:04:10Z</time>
      </trkpt>
      <trkpt lat="42.60502" lon="-0.20482">
        <ele>1734</ele>
        <time>2017-07-30T10:04:12Z</time>
      </trkpt>
      <trkpt lat="42.60501" lon="-0.20477">
        <ele>1735.1</ele>
        <time>2017-07-30T10:04:15Z</time>
      </trkpt>
      <trkpt lat="42.605" lon="-0.20474">
        <ele>1735.9</ele>
        <time>2017-07-30T10:04:17Z</time>
      </trkpt>
      <trkpt lat="42.60499" lon="-0.2047">
        <ele>1736.8</ele>
        <time>2017-07-30T10:04:19Z</time>
      </trkpt>
      <trkpt lat="42.60498" lon="-0.20467">
        <ele>1737.6</ele>
        <time>2017-07-30T10:04:21Z</time>
      </trkpt>
      <trkpt lat="42.60497" lon="-0.20463">
        <ele>1738.4</ele>
        <time>2017-07-30T10:04:23Z</time>
      </trkpt>
      <trkpt lat="42.60496" lon="-0.2046">
        <ele>1738</ele>
        <time>2017-07-30T10:04:25Z</time>
      </trkpt>
      <trkpt lat="42.60495" lon="-0.20456">
        <ele>1737.6</ele>
        <time>2017-07-30T10:04:27Z</time>
      </trkpt>
      <trkpt lat="42.60493" lon="-0.20453">
        <ele>1738.8</ele>
        <time>2017-07-30T10:04:29Z</time>
      </trkpt>
      <trkpt lat="42.60491" lon="-0.20449">
        <ele>1738.3</ele>
        <time>2017-07-30T10:04:32Z</time>
      </trkpt>
      <trkpt lat="42.60489" lon="-0.20445">
        <ele>1739.4</ele>
        <time>2017-07-30T10:04:35Z</time>
      </trkpt>
      <trkpt lat="42.60486" lon="-0.20441">
        <ele>1741.1</ele>
        <time>2017-07-30T10:04:38Z</time>
      </trkpt>
      <trkpt lat="42.60483" lon="-0.20438">
        <ele>1741.8</ele>
        <time>2017-07-30T10:04:41Z</time>
      </trkpt>
      <trkpt lat="42.60481" lon="-0.20435">
        <ele>1742.2</ele>
        <time>2017-07-30T10:04:43Z</time>
      </trkpt>
      <trkpt lat="42.60479" lon="-0.20433">
        <ele>1742.2</ele>
        <time>2017-07-30T10:04:45Z</time>
      </trkpt>
      <trkpt lat="42.60475" lon="-0.20432">
        <ele>1743.5</ele>
        <time>2017-07-30T10:04:48Z</time>
      </trkpt>
      <trkpt lat="42.60472" lon="-0.20431">
        <ele>1743.5</ele>
        <time>2017-07-30T10:04:50Z</time>
      </trkpt>
      <trkpt lat="42.60469" lon="-0.2043">
        <ele>1744.5</ele>
        <time>2017-07-30T10:04:52Z</time>
      </trkpt>
      <trkpt lat="42.60467" lon="-0.20428">
        <ele>1745.5</ele>
        <time>2017-07-30T10:04:54Z</time>
      </trkpt>
      <trkpt lat="42.60464" lon="-0.20428">
        <ele>1745.8</ele>
        <time>2017-07-30T10:04:56Z</time>
      </trkpt>
      <trkpt lat="42.60461" lon="-0.20427">
        <ele>1747.1</ele>
        <time>2017-07-30T10:04:58Z</time>
      </trkpt>
      <trkpt lat="42.60457" lon="-0.20426">
        <ele>1748.4</ele>
        <time>2017-07-30T10:05:00Z</time>
      </trkpt>
      <trkpt lat="42.60454" lon="-0.20426">
        <ele>1749.6</ele>
        <time>2017-07-30T10:05:02Z</time>
      </trkpt>
      <trkpt lat="42.60451" lon="-0.20426">
        <ele>1750.8</ele>
        <time>2017-07-30T10:05:04Z</time>
      </trkpt>
      <trkpt lat="42.60449" lon="-0.20425">
        <ele>1751.9</ele>
        <time>2017-07-30T10:05:06Z</time>
      </trkpt>
      <trkpt lat="42.60446" lon="-0.20425">
        <ele>1752.9</ele>
        <time>2017-07-30T10:05:08Z</time>
      </trkpt>
      <trkpt lat="42.60442" lon="-0.20424">
        <ele>1753.9</ele>
        <time>2017-07-30T10:05:10Z</time>
      </trkpt>
      <trkpt lat="42.6044" lon="-0.20422">
        <ele>1754.4</ele>
        <time>2017-07-30T10:05:12Z</time>
      </trkpt>
      <trkpt lat="42.60437" lon="-0.20419">
        <ele>1753.6</ele>
        <time>2017-07-30T10:05:15Z</time>
      </trkpt>
      <trkpt lat="42.60435" lon="-0.20414">
        <ele>1754.4</ele>
        <time>2017-07-30T10:05:18Z</time>
      </trkpt>
      <trkpt lat="42.60433" lon="-0.20409">
        <ele>1755.2</ele>
        <time>2017-07-30T10:05:21Z</time>
      </trkpt>
      <trkpt lat="42.60432" lon="-0.20406">
        <ele>1754.2</ele>
        <time>2017-07-30T10:05:23Z</time>
      </trkpt>
      <trkpt lat="42.60432" lon="-0.20402">
        <ele>1753</ele>
        <time>2017-07-30T10:05:25Z</time>
      </trkpt>
      <trkpt lat="42.60431" lon="-0.20398">
        <ele>1753</ele>
        <time>2017-07-30T10:05:27Z</time>
      </trkpt>
      <trkpt lat="42.60429" lon="-0.20394">
        <ele>1754</ele>
        <time>2017-07-30T10:05:30Z</time>
      </trkpt>
      <trkpt lat="42.60427" lon="-0.20388">
        <ele>1752</ele>
        <time>2017-07-30T10:05:33Z</time>
      </trkpt>
      <trkpt lat="42.60426" lon="-0.20385">
        <ele>1753.3</ele>
        <time>2017-07-30T10:05:35Z</time>
      </trkpt>
      <trkpt lat="42.60424" lon="-0.20382">
        <ele>1753.2</ele>
        <time>2017-07-30T10:05:37Z</time>
      </trkpt>
      <trkpt lat="42.60422" lon="-0.20377">
        <ele>1754.4</ele>
        <time>2017-07-30T10:05:40Z</time>
      </trkpt>
      <trkpt lat="42.60421" lon="-0.20374">
        <ele>1755.4</ele>
        <time>2017-07-30T10:05:42Z</time>
      </trkpt>
      <trkpt lat="42.60419" lon="-0.20369">
        <ele>1754.3</ele>
        <time>2017-07-30T10:05:45Z</time>
      </trkpt>
      <trkpt lat="42.60418" lon="-0.20365">
        <ele>1753.3</ele>
        <time>2017-07-30T10:05:47Z</time>
      </trkpt>
      <trkpt lat="42.60416" lon="-0.2036">
        <ele>1754.2</ele>
        <time>2017-07-30T10:05:50Z</time>
      </trkpt>
      <trkpt lat="42.60415" lon="-0.20357">
        <ele>1753.2</ele>
        <time>2017-07-30T10:05:52Z</time>
      </trkpt>
      <trkpt lat="42.60414" lon="-0.20354">
        <ele>1754.2</ele>
        <time>2017-07-30T10:05:54Z</time>
      </trkpt>
      <trkpt lat="42.60412" lon="-0.20351">
        <ele>1754.1</ele>
        <time>2017-07-30T10:05:56Z</time>
      </trkpt>
      <trkpt lat="42.6041" lon="-0.20348">
        <ele>1755.4</ele>
        <time>2017-07-30T10:05:58Z</time>
      </trkpt>
      <trkpt lat="42.60408" lon="-0.20345">
        <ele>1756.8</ele>
        <time>2017-07-30T10:06:00Z</time>
      </trkpt>
      <trkpt lat="42.60406" lon="-0.20343">
        <ele>1756.7</ele>
        <time>2017-07-30T10:06:02Z</time>
      </trkpt>
      <trkpt lat="42.60404" lon="-0.2034">
        <ele>1758.4</ele>
        <time>2017-07-30T10:06:04Z</time>
      </trkpt>
      <trkpt lat="42.60402" lon="-0.20335">
        <ele>1757.6</ele>
        <time>2017-07-30T10:06:07Z</time>
      </trkpt>
      <trkpt lat="42.60401" lon="-0.2033">
        <ele>1759.7</ele>
        <time>2017-07-30T10:06:10Z</time>
      </trkpt>
      <trkpt lat="42.60399" lon="-0.20325">
        <ele>1759.5</ele>
        <time>2017-07-30T10:06:13Z</time>
      </trkpt>
      <trkpt lat="42.60398" lon="-0.2032">
        <ele>1762.3</ele>
        <time>2017-07-30T10:06:16Z</time>
      </trkpt>
      <trkpt lat="42.60398" lon="-0.20315">
        <ele>1762.6</ele>
        <time>2017-07-30T10:06:19Z</time>
      </trkpt>
      <trkpt lat="42.60397" lon="-0.20311">
        <ele>1762.9</ele>
        <time>2017-07-30T10:06:21Z</time>
      </trkpt>
      <trkpt lat="42.60396" lon="-0.20306">
        <ele>1763.2</ele>
        <time>2017-07-30T10:06:23Z</time>
      </trkpt>
      <trkpt lat="42.60395" lon="-0.20302">
        <ele>1765.5</ele>
        <time>2017-07-30T10:06:25Z</time>
      </trkpt>
      <trkpt lat="42.60394" lon="-0.20299">
        <ele>1765.5</ele>
        <time>2017-07-30T10:06:27Z</time>
      </trkpt>
      <trkpt lat="42.60393" lon="-0.20295">
        <ele>1765.5</ele>
        <time>2017-07-30T10:06:29Z</time>
      </trkpt>
      <trkpt lat="42.60393" lon="-0.20291">
        <ele>1765.4</ele>
        <time>2017-07-30T10:06:31Z</time>
      </trkpt>
      <trkpt lat="42.60392" lon="-0.20287">
        <ele>1767.2</ele>
        <time>2017-07-30T10:06:33Z</time>
      </trkpt>
      <trkpt lat="42.60392" lon="-0.20283">
        <ele>1767.2</ele>
        <time>2017-07-30T10:06:35Z</time>
      </trkpt>
      <trkpt lat="42.60393" lon="-0.20279">
        <ele>1765.8</ele>
        <time>2017-07-30T10:06:37Z</time>
      </trkpt>
      <trkpt lat="42.60393" lon="-0.20275">
        <ele>1766.3</ele>
        <time>2017-07-30T10:06:39Z</time>
      </trkpt>
      <trkpt lat="42.60393" lon="-0.2027">
        <ele>1766.9</ele>
        <time>2017-07-30T10:06:41Z</time>
      </trkpt>
      <trkpt lat="42.60394" lon="-0.20266">
        <ele>1767.6</ele>
        <time>2017-07-30T10:06:43Z</time>
      </trkpt>
      <trkpt lat="42.60394" lon="-0.20262">
        <ele>1768.5</ele>
        <time>2017-07-30T10:06:45Z</time>
      </trkpt>
      <trkpt lat="42.60395" lon="-0.20258">
        <ele>1769.5</ele>
        <time>2017-07-30T10:06:47Z</time>
      </trkpt>
      <trkpt lat="42.60397" lon="-0.20254">
        <ele>1768.8</ele>
        <time>2017-07-30T10:06:49Z</time>
      </trkpt>
      <trkpt lat="42.60398" lon="-0.20249">
        <ele>1769.5</ele>
        <time>2017-07-30T10:06:51Z</time>
      </trkpt>
      <trkpt lat="42.60399" lon="-0.20245">
        <ele>1770.2</ele>
        <time>2017-07-30T10:06:53Z</time>
      </trkpt>
      <trkpt lat="42.604" lon="-0.20242">
        <ele>1769.2</ele>
        <time>2017-07-30T10:06:55Z</time>
      </trkpt>
      <trkpt lat="42.60401" lon="-0.20238">
        <ele>1769.9</ele>
        <time>2017-07-30T10:06:57Z</time>
      </trkpt>
      <trkpt lat="42.60402" lon="-0.20235">
        <ele>1768.3</ele>
        <time>2017-07-30T10:06:59Z</time>
      </trkpt>
      <trkpt lat="42.60403" lon="-0.20231">
        <ele>1768.9</ele>
        <time>2017-07-30T10:07:01Z</time>
      </trkpt>
      <trkpt lat="42.60405" lon="-0.20227">
        <ele>1769.6</ele>
        <time>2017-07-30T10:07:03Z</time>
      </trkpt>
      <trkpt lat="42.60407" lon="-0.20223">
        <ele>1768.7</ele>
        <time>2017-07-30T10:07:06Z</time>
      </trkpt>
      <trkpt lat="42.60409" lon="-0.2022">
        <ele>1768</ele>
        <time>2017-07-30T10:07:09Z</time>
      </trkpt>
      <trkpt lat="42.6041" lon="-0.20216">
        <ele>1768.7</ele>
        <time>2017-07-30T10:07:11Z</time>
      </trkpt>
      <trkpt lat="42.60412" lon="-0.20213">
        <ele>1768.6</ele>
        <time>2017-07-30T10:07:13Z</time>
      </trkpt>
      <trkpt lat="42.60413" lon="-0.2021">
        <ele>1768.5</ele>
        <time>2017-07-30T10:07:15Z</time>
      </trkpt>
      <trkpt lat="42.60414" lon="-0.20206">
        <ele>1769.6</ele>
        <time>2017-07-30T10:07:17Z</time>
      </trkpt>
      <trkpt lat="42.60414" lon="-0.20202">
        <ele>1770.5</ele>
        <time>2017-07-30T10:07:19Z</time>
      </trkpt>
      <trkpt lat="42.60414" lon="-0.20198">
        <ele>1771.4</ele>
        <time>2017-07-30T10:07:21Z</time>
      </trkpt>
      <trkpt lat="42.60415" lon="-0.20194">
        <ele>1772.1</ele>
        <time>2017-07-30T10:07:23Z</time>
      </trkpt>
      <trkpt lat="42.60415" lon="-0.2019">
        <ele>1772</ele>
        <time>2017-07-30T10:07:25Z</time>
      </trkpt>
      <trkpt lat="42.60416" lon="-0.20185">
        <ele>1772.8</ele>
        <time>2017-07-30T10:07:28Z</time>
      </trkpt>
      <trkpt lat="42.60417" lon="-0.20181">
        <ele>1773.6</ele>
        <time>2017-07-30T10:07:30Z</time>
      </trkpt>
      <trkpt lat="42.60417" lon="-0.20176">
        <ele>1774.5</ele>
        <time>2017-07-30T10:07:32Z</time>
      </trkpt>
      <trkpt lat="42.60418" lon="-0.20172">
        <ele>1774.3</ele>
        <time>2017-07-30T10:07:34Z</time>
      </trkpt>
      <trkpt lat="42.60419" lon="-0.20168">
        <ele>1775</ele>
        <time>2017-07-30T10:07:36Z</time>
      </trkpt>
      <trkpt lat="42.60419" lon="-0.20164">
        <ele>1775.6</ele>
        <time>2017-07-30T10:07:38Z</time>
      </trkpt>
      <trkpt lat="42.6042" lon="-0.2016">
        <ele>1776.3</ele>
        <time>2017-07-30T10:07:40Z</time>
      </trkpt>
      <trkpt lat="42.60421" lon="-0.20156">
        <ele>1777.2</ele>
        <time>2017-07-30T10:07:42Z</time>
      </trkpt>
      <trkpt lat="42.60421" lon="-0.20152">
        <ele>1777.1</ele>
        <time>2017-07-30T10:07:44Z</time>
      </trkpt>
      <trkpt lat="42.60422" lon="-0.20147">
        <ele>1778.1</ele>
        <time>2017-07-30T10:07:47Z</time>
      </trkpt>
      <trkpt lat="42.60422" lon="-0.20143">
        <ele>1779</ele>
        <time>2017-07-30T10:07:49Z</time>
      </trkpt>
      <trkpt lat="42.60423" lon="-0.20139">
        <ele>1779.8</ele>
        <time>2017-07-30T10:07:51Z</time>
      </trkpt>
      <trkpt lat="42.60424" lon="-0.20135">
        <ele>1780.6</ele>
        <time>2017-07-30T10:07:53Z</time>
      </trkpt>
      <trkpt lat="42.60425" lon="-0.20132">
        <ele>1779.3</ele>
        <time>2017-07-30T10:07:55Z</time>
      </trkpt>
      <trkpt lat="42.60427" lon="-0.20129">
        <ele>1780.3</ele>
        <time>2017-07-30T10:07:57Z</time>
      </trkpt>
      <trkpt lat="42.60428" lon="-0.20125">
        <ele>1780.1</ele>
        <time>2017-07-30T10:07:59Z</time>
      </trkpt>
      <trkpt lat="42.6043" lon="-0.20122">
        <ele>1781.3</ele>
        <time>2017-07-30T10:08:01Z</time>
      </trkpt>
      <trkpt lat="42.60431" lon="-0.20118">
        <ele>1781.3</ele>
        <time>2017-07-30T10:08:03Z</time>
      </trkpt>
      <trkpt lat="42.60433" lon="-0.20115">
        <ele>1781.3</ele>
        <time>2017-07-30T10:08:05Z</time>
      </trkpt>
      <trkpt lat="42.60434" lon="-0.20111">
        <ele>1781.3</ele>
        <time>2017-07-30T10:08:07Z</time>
      </trkpt>
      <trkpt lat="42.60436" lon="-0.20108">
        <ele>1782.6</ele>
        <time>2017-07-30T10:08:09Z</time>
      </trkpt>
      <trkpt lat="42.60437" lon="-0.20104">
        <ele>1784.1</ele>
        <time>2017-07-30T10:08:11Z</time>
      </trkpt>
      <trkpt lat="42.60438" lon="-0.20101">
        <ele>1784.4</ele>
        <time>2017-07-30T10:08:13Z</time>
      </trkpt>
      <trkpt lat="42.6044" lon="-0.20098">
        <ele>1783.1</ele>
        <time>2017-07-30T10:08:15Z</time>
      </trkpt>
      <trkpt lat="42.60442" lon="-0.20095">
        <ele>1784.7</ele>
        <time>2017-07-30T10:08:17Z</time>
      </trkpt>
      <trkpt lat="42.60444" lon="-0.20092">
        <ele>1785</ele>
        <time>2017-07-30T10:08:19Z</time>
      </trkpt>
      <trkpt lat="42.60446" lon="-0.20087">
        <ele>1786.4</ele>
        <time>2017-07-30T10:08:22Z</time>
      </trkpt>
      <trkpt lat="42.60448" lon="-0.20083">
        <ele>1786.5</ele>
        <time>2017-07-30T10:08:24Z</time>
      </trkpt>
      <trkpt lat="42.60449" lon="-0.2008">
        <ele>1787.8</ele>
        <time>2017-07-30T10:08:26Z</time>
      </trkpt>
      <trkpt lat="42.6045" lon="-0.20076">
        <ele>1786.5</ele>
        <time>2017-07-30T10:08:28Z</time>
      </trkpt>
      <trkpt lat="42.60451" lon="-0.20073">
        <ele>1787.9</ele>
        <time>2017-07-30T10:08:30Z</time>
      </trkpt>
      <trkpt lat="42.60452" lon="-0.20069">
        <ele>1789.3</ele>
        <time>2017-07-30T10:08:32Z</time>
      </trkpt>
      <trkpt lat="42.60453" lon="-0.20065">
        <ele>1789.1</ele>
        <time>2017-07-30T10:08:34Z</time>
      </trkpt>
      <trkpt lat="42.60454" lon="-0.20061">
        <ele>1790.2</ele>
        <time>2017-07-30T10:08:36Z</time>
      </trkpt>
      <trkpt lat="42.60455" lon="-0.20057">
        <ele>1790.9</ele>
        <time>2017-07-30T10:08:38Z</time>
      </trkpt>
      <trkpt lat="42.60456" lon="-0.20053">
        <ele>1789.8</ele>
        <time>2017-07-30T10:08:40Z</time>
      </trkpt>
      <trkpt lat="42.60457" lon="-0.20049">
        <ele>1790.2</ele>
        <time>2017-07-30T10:08:42Z</time>
      </trkpt>
      <trkpt lat="42.60459" lon="-0.20046">
        <ele>1790.5</ele>
        <time>2017-07-30T10:08:44Z</time>
      </trkpt>
      <trkpt lat="42.6046" lon="-0.20042">
        <ele>1788.9</ele>
        <time>2017-07-30T10:08:46Z</time>
      </trkpt>
      <trkpt lat="42.60461" lon="-0.20039">
        <ele>1789.1</ele>
        <time>2017-07-30T10:08:48Z</time>
      </trkpt>
      <trkpt lat="42.60463" lon="-0.20036">
        <ele>1787.7</ele>
        <time>2017-07-30T10:08:50Z</time>
      </trkpt>
      <trkpt lat="42.60465" lon="-0.20032">
        <ele>1787.8</ele>
        <time>2017-07-30T10:08:52Z</time>
      </trkpt>
      <trkpt lat="42.60466" lon="-0.20028">
        <ele>1786.4</ele>
        <time>2017-07-30T10:08:55Z</time>
      </trkpt>
      <trkpt lat="42.60468" lon="-0.20023">
        <ele>1786.4</ele>
        <time>2017-07-30T10:08:58Z</time>
      </trkpt>
      <trkpt lat="42.60469" lon="-0.20018">
        <ele>1785</ele>
        <time>2017-07-30T10:09:01Z</time>
      </trkpt>
      <trkpt lat="42.6047" lon="-0.20015">
        <ele>1785</ele>
        <time>2017-07-30T10:09:03Z</time>
      </trkpt>
      <trkpt lat="42.6047" lon="-0.20011">
        <ele>1785</ele>
        <time>2017-07-30T10:09:05Z</time>
      </trkpt>
      <trkpt lat="42.6047" lon="-0.20007">
        <ele>1785.1</ele>
        <time>2017-07-30T10:09:07Z</time>
      </trkpt>
      <trkpt lat="42.60469" lon="-0.20001">
        <ele>1785.2</ele>
        <time>2017-07-30T10:09:10Z</time>
      </trkpt>
      <trkpt lat="42.60468" lon="-0.19998">
        <ele>1787.2</ele>
        <time>2017-07-30T10:09:12Z</time>
      </trkpt>
      <trkpt lat="42.60466" lon="-0.19995">
        <ele>1787.2</ele>
        <time>2017-07-30T10:09:15Z</time>
      </trkpt>
      <trkpt lat="42.60464" lon="-0.1999">
        <ele>1789.5</ele>
        <time>2017-07-30T10:09:18Z</time>
      </trkpt>
      <trkpt lat="42.60461" lon="-0.1999">
        <ele>1791.8</ele>
        <time>2017-07-30T10:09:21Z</time>
      </trkpt>
      <trkpt lat="42.60459" lon="-0.19992">
        <ele>1793.8</ele>
        <time>2017-07-30T10:09:23Z</time>
      </trkpt>
      <trkpt lat="42.60457" lon="-0.19995">
        <ele>1793.5</ele>
        <time>2017-07-30T10:09:25Z</time>
      </trkpt>
      <trkpt lat="42.60456" lon="-0.19999">
        <ele>1795.3</ele>
        <time>2017-07-30T10:09:27Z</time>
      </trkpt>
      <trkpt lat="42.60455" lon="-0.20003">
        <ele>1794.8</ele>
        <time>2017-07-30T10:09:29Z</time>
      </trkpt>
      <trkpt lat="42.60455" lon="-0.20007">
        <ele>1794.3</ele>
        <time>2017-07-30T10:09:31Z</time>
      </trkpt>
      <trkpt lat="42.60454" lon="-0.20011">
        <ele>1794.3</ele>
        <time>2017-07-30T10:09:33Z</time>
      </trkpt>
      <trkpt lat="42.60454" lon="-0.20015">
        <ele>1793.6</ele>
        <time>2017-07-30T10:09:35Z</time>
      </trkpt>
      <trkpt lat="42.60454" lon="-0.20019">
        <ele>1793</ele>
        <time>2017-07-30T10:09:37Z</time>
      </trkpt>
      <trkpt lat="42.60453" lon="-0.20024">
        <ele>1792.5</ele>
        <time>2017-07-30T10:09:39Z</time>
      </trkpt>
      <trkpt lat="42.60451" lon="-0.20028">
        <ele>1793.8</ele>
        <time>2017-07-30T10:09:41Z</time>
      </trkpt>
      <trkpt lat="42.60449" lon="-0.20032">
        <ele>1795</ele>
        <time>2017-07-30T10:09:43Z</time>
      </trkpt>
      <trkpt lat="42.60446" lon="-0.20034">
        <ele>1796.2</ele>
        <time>2017-07-30T10:09:45Z</time>
      </trkpt>
      <trkpt lat="42.60444" lon="-0.20036">
        <ele>1796.1</ele>
        <time>2017-07-30T10:09:47Z</time>
      </trkpt>
      <trkpt lat="42.60441" lon="-0.20038">
        <ele>1797.3</ele>
        <time>2017-07-30T10:09:49Z</time>
      </trkpt>
      <trkpt lat="42.60439" lon="-0.20042">
        <ele>1798.5</ele>
        <time>2017-07-30T10:09:52Z</time>
      </trkpt>
      <trkpt lat="42.60436" lon="-0.20044">
        <ele>1800.1</ele>
        <time>2017-07-30T10:09:54Z</time>
      </trkpt>
      <trkpt lat="42.60434" lon="-0.20047">
        <ele>1799.7</ele>
        <time>2017-07-30T10:09:56Z</time>
      </trkpt>
      <trkpt lat="42.60433" lon="-0.2005">
        <ele>1800.8</ele>
        <time>2017-07-30T10:09:58Z</time>
      </trkpt>
      <trkpt lat="42.60431" lon="-0.20054">
        <ele>1800.8</ele>
        <time>2017-07-30T10:10:00Z</time>
      </trkpt>
      <trkpt lat="42.60429" lon="-0.20057">
        <ele>1801.9</ele>
        <time>2017-07-30T10:10:02Z</time>
      </trkpt>
      <trkpt lat="42.60427" lon="-0.2006">
        <ele>1802.8</ele>
        <time>2017-07-30T10:10:04Z</time>
      </trkpt>
      <trkpt lat="42.60425" lon="-0.20062">
        <ele>1802.7</ele>
        <time>2017-07-30T10:10:06Z</time>
      </trkpt>
      <trkpt lat="42.60423" lon="-0.20064">
        <ele>1803.4</ele>
        <time>2017-07-30T10:10:08Z</time>
      </trkpt>
      <trkpt lat="42.60421" lon="-0.20067">
        <ele>1804.7</ele>
        <time>2017-07-30T10:10:10Z</time>
      </trkpt>
      <trkpt lat="42.60419" lon="-0.2007">
        <ele>1803.6</ele>
        <time>2017-07-30T10:10:12Z</time>
      </trkpt>
      <trkpt lat="42.60417" lon="-0.20073">
        <ele>1803.6</ele>
        <time>2017-07-30T10:10:14Z</time>
      </trkpt>
      <trkpt lat="42.60415" lon="-0.20077">
        <ele>1803.4</ele>
        <time>2017-07-30T10:10:16Z</time>
      </trkpt>
      <trkpt lat="42.60413" lon="-0.2008">
        <ele>1803.4</ele>
        <time>2017-07-30T10:10:18Z</time>
      </trkpt>
      <trkpt lat="42.60411" lon="-0.20082">
        <ele>1803.2</ele>
        <time>2017-07-30T10:10:20Z</time>
      </trkpt>
      <trkpt lat="42.60409" lon="-0.20085">
        <ele>1801.7</ele>
        <time>2017-07-30T10:10:22Z</time>
      </trkpt>
      <trkpt lat="42.60406" lon="-0.20088">
        <ele>1802.9</ele>
        <time>2017-07-30T10:10:24Z</time>
      </trkpt>
      <trkpt lat="42.60404" lon="-0.2009">
        <ele>1802.4</ele>
        <time>2017-07-30T10:10:26Z</time>
      </trkpt>
      <trkpt lat="42.60401" lon="-0.20092">
        <ele>1803.7</ele>
        <time>2017-07-30T10:10:28Z</time>
      </trkpt>
      <trkpt lat="42.60399" lon="-0.20094">
        <ele>1801.9</ele>
        <time>2017-07-30T10:10:30Z</time>
      </trkpt>
      <trkpt lat="42.60397" lon="-0.20097">
        <ele>1803.2</ele>
        <time>2017-07-30T10:10:32Z</time>
      </trkpt>
      <trkpt lat="42.60395" lon="-0.201">
        <ele>1802.8</ele>
        <time>2017-07-30T10:10:34Z</time>
      </trkpt>
      <trkpt lat="42.60393" lon="-0.20102">
        <ele>1801.3</ele>
        <time>2017-07-30T10:10:36Z</time>
      </trkpt>
      <trkpt lat="42.6039" lon="-0.20105">
        <ele>1802.5</ele>
        <time>2017-07-30T10:10:39Z</time>
      </trkpt>
      <trkpt lat="42.60387" lon="-0.20107">
        <ele>1802.4</ele>
        <time>2017-07-30T10:10:41Z</time>
      </trkpt>
      <trkpt lat="42.60384" lon="-0.2011">
        <ele>1803.6</ele>
        <time>2017-07-30T10:10:44Z</time>
      </trkpt>
      <trkpt lat="42.60381" lon="-0.20113">
        <ele>1803.9</ele>
        <time>2017-07-30T10:10:47Z</time>
      </trkpt>
      <trkpt lat="42.60378" lon="-0.20114">
        <ele>1805.3</ele>
        <time>2017-07-30T10:10:49Z</time>
      </trkpt>
      <trkpt lat="42.60375" lon="-0.20115">
        <ele>1805.9</ele>
        <time>2017-07-30T10:10:51Z</time>
      </trkpt>
      <trkpt lat="42.60372" lon="-0.20117">
        <ele>1807.4</ele>
        <time>2017-07-30T10:10:53Z</time>
      </trkpt>
      <trkpt lat="42.60369" lon="-0.2012">
        <ele>1808</ele>
        <time>2017-07-30T10:10:55Z</time>
      </trkpt>
      <trkpt lat="42.60366" lon="-0.20122">
        <ele>1809.4</ele>
        <time>2017-07-30T10:10:57Z</time>
      </trkpt>
      <trkpt lat="42.60364" lon="-0.20125">
        <ele>1810.1</ele>
        <time>2017-07-30T10:10:59Z</time>
      </trkpt>
      <trkpt lat="42.60361" lon="-0.20127">
        <ele>1810</ele>
        <time>2017-07-30T10:11:01Z</time>
      </trkpt>
      <trkpt lat="42.60359" lon="-0.2013">
        <ele>1810.7</ele>
        <time>2017-07-30T10:11:03Z</time>
      </trkpt>
      <trkpt lat="42.60356" lon="-0.20134">
        <ele>1811.4</ele>
        <time>2017-07-30T10:11:06Z</time>
      </trkpt>
      <trkpt lat="42.60355" lon="-0.20137">
        <ele>1812.2</ele>
        <time>2017-07-30T10:11:08Z</time>
      </trkpt>
      <trkpt lat="42.60353" lon="-0.2014">
        <ele>1812.2</ele>
        <time>2017-07-30T10:11:10Z</time>
      </trkpt>
      <trkpt lat="42.60351" lon="-0.20143">
        <ele>1813.1</ele>
        <time>2017-07-30T10:11:12Z</time>
      </trkpt>
      <trkpt lat="42.60349" lon="-0.20147">
        <ele>1812.4</ele>
        <time>2017-07-30T10:11:14Z</time>
      </trkpt>
      <trkpt lat="42.60347" lon="-0.2015">
        <ele>1813.1</ele>
        <time>2017-07-30T10:11:16Z</time>
      </trkpt>
      <trkpt lat="42.60345" lon="-0.20153">
        <ele>1814</ele>
        <time>2017-07-30T10:11:18Z</time>
      </trkpt>
      <trkpt lat="42.60343" lon="-0.20156">
        <ele>1814</ele>
        <time>2017-07-30T10:11:20Z</time>
      </trkpt>
      <trkpt lat="42.60341" lon="-0.20159">
        <ele>1815</ele>
        <time>2017-07-30T10:11:22Z</time>
      </trkpt>
      <trkpt lat="42.60339" lon="-0.20162">
        <ele>1816.1</ele>
        <time>2017-07-30T10:11:24Z</time>
      </trkpt>
      <trkpt lat="42.60337" lon="-0.20166">
        <ele>1816.1</ele>
        <time>2017-07-30T10:11:26Z</time>
      </trkpt>
      <trkpt lat="42.60335" lon="-0.20169">
        <ele>1817.2</ele>
        <time>2017-07-30T10:11:28Z</time>
      </trkpt>
      <trkpt lat="42.60334" lon="-0.20173">
        <ele>1816.5</ele>
        <time>2017-07-30T10:11:30Z</time>
      </trkpt>
      <trkpt lat="42.60333" lon="-0.20177">
        <ele>1815.8</ele>
        <time>2017-07-30T10:11:32Z</time>
      </trkpt>
      <trkpt lat="42.60332" lon="-0.20181">
        <ele>1816.4</ele>
        <time>2017-07-30T10:11:34Z</time>
      </trkpt>
      <trkpt lat="42.60331" lon="-0.20185">
        <ele>1815.5</ele>
        <time>2017-07-30T10:11:36Z</time>
      </trkpt>
      <trkpt lat="42.6033" lon="-0.20188">
        <ele>1814.6</ele>
        <time>2017-07-30T10:11:38Z</time>
      </trkpt>
      <trkpt lat="42.60329" lon="-0.20192">
        <ele>1815.4</ele>
        <time>2017-07-30T10:11:40Z</time>
      </trkpt>
      <trkpt lat="42.60327" lon="-0.20196">
        <ele>1815.4</ele>
        <time>2017-07-30T10:11:42Z</time>
      </trkpt>
      <trkpt lat="42.60326" lon="-0.20199">
        <ele>1816.5</ele>
        <time>2017-07-30T10:11:44Z</time>
      </trkpt>
      <trkpt lat="42.60324" lon="-0.20203">
        <ele>1815.8</ele>
        <time>2017-07-30T10:11:46Z</time>
      </trkpt>
      <trkpt lat="42.60323" lon="-0.20206">
        <ele>1817.2</ele>
        <time>2017-07-30T10:11:48Z</time>
      </trkpt>
      <trkpt lat="42.60322" lon="-0.20209">
        <ele>1816.8</ele>
        <time>2017-07-30T10:11:50Z</time>
      </trkpt>
      <trkpt lat="42.6032" lon="-0.20214">
        <ele>1818.5</ele>
        <time>2017-07-30T10:11:53Z</time>
      </trkpt>
      <trkpt lat="42.60319" lon="-0.20218">
        <ele>1818.3</ele>
        <time>2017-07-30T10:11:55Z</time>
      </trkpt>
      <trkpt lat="42.60318" lon="-0.20221">
        <ele>1818.3</ele>
        <time>2017-07-30T10:11:57Z</time>
      </trkpt>
      <trkpt lat="42.60316" lon="-0.20225">
        <ele>1820.3</ele>
        <time>2017-07-30T10:11:59Z</time>
      </trkpt>
      <trkpt lat="42.60315" lon="-0.20228">
        <ele>1820.3</ele>
        <time>2017-07-30T10:12:01Z</time>
      </trkpt>
      <trkpt lat="42.60314" lon="-0.20232">
        <ele>1820.3</ele>
        <time>2017-07-30T10:12:03Z</time>
      </trkpt>
      <trkpt lat="42.60313" lon="-0.20236">
        <ele>1822.3</ele>
        <time>2017-07-30T10:12:05Z</time>
      </trkpt>
      <trkpt lat="42.60312" lon="-0.2024">
        <ele>1822.5</ele>
        <time>2017-07-30T10:12:07Z</time>
      </trkpt>
      <trkpt lat="42.60311" lon="-0.20244">
        <ele>1822.8</ele>
        <time>2017-07-30T10:12:09Z</time>
      </trkpt>
      <trkpt lat="42.6031" lon="-0.20248">
        <ele>1823.2</ele>
        <time>2017-07-30T10:12:11Z</time>
      </trkpt>
      <trkpt lat="42.6031" lon="-0.20252">
        <ele>1823.5</ele>
        <time>2017-07-30T10:12:13Z</time>
      </trkpt>
      <trkpt lat="42.60309" lon="-0.20256">
        <ele>1824</ele>
        <time>2017-07-30T10:12:15Z</time>
      </trkpt>
      <trkpt lat="42.60308" lon="-0.2026">
        <ele>1824.3</ele>
        <time>2017-07-30T10:12:17Z</time>
      </trkpt>
      <trkpt lat="42.60308" lon="-0.20264">
        <ele>1824.7</ele>
        <time>2017-07-30T10:12:19Z</time>
      </trkpt>
      <trkpt lat="42.60308" lon="-0.2027">
        <ele>1825</ele>
        <time>2017-07-30T10:12:22Z</time>
      </trkpt>
      <trkpt lat="42.60308" lon="-0.20274">
        <ele>1825.2</ele>
        <time>2017-07-30T10:12:25Z</time>
      </trkpt>
      <trkpt lat="42.60307" lon="-0.20279">
        <ele>1825.4</ele>
        <time>2017-07-30T10:12:28Z</time>
      </trkpt>
      <trkpt lat="42.60306" lon="-0.20285">
        <ele>1825.6</ele>
        <time>2017-07-30T10:12:31Z</time>
      </trkpt>
      <trkpt lat="42.60306" lon="-0.20288">
        <ele>1825.7</ele>
        <time>2017-07-30T10:12:33Z</time>
      </trkpt>
      <trkpt lat="42.60305" lon="-0.20293">
        <ele>1825.6</ele>
        <time>2017-07-30T10:12:35Z</time>
      </trkpt>
      <trkpt lat="42.60304" lon="-0.20296">
        <ele>1825.6</ele>
        <time>2017-07-30T10:12:37Z</time>
      </trkpt>
      <trkpt lat="42.60304" lon="-0.203">
        <ele>1825.5</ele>
        <time>2017-07-30T10:12:39Z</time>
      </trkpt>
      <trkpt lat="42.60304" lon="-0.20304">
        <ele>1825.3</ele>
        <time>2017-07-30T10:12:41Z</time>
      </trkpt>
      <trkpt lat="42.60303" lon="-0.20308">
        <ele>1825.2</ele>
        <time>2017-07-30T10:12:43Z</time>
      </trkpt>
      <trkpt lat="42.60303" lon="-0.20311">
        <ele>1825</ele>
        <time>2017-07-30T10:12:45Z</time>
      </trkpt>
      <trkpt lat="42.60302" lon="-0.20315">
        <ele>1824.9</ele>
        <time>2017-07-30T10:12:47Z</time>
      </trkpt>
      <trkpt lat="42.60302" lon="-0.20319">
        <ele>1824.8</ele>
        <time>2017-07-30T10:12:49Z</time>
      </trkpt>
      <trkpt lat="42.60302" lon="-0.20323">
        <ele>1824.7</ele>
        <time>2017-07-30T10:12:51Z</time>
      </trkpt>
      <trkpt lat="42.60302" lon="-0.20327">
        <ele>1824.6</ele>
        <time>2017-07-30T10:12:53Z</time>
      </trkpt>
      <trkpt lat="42.60302" lon="-0.20331">
        <ele>1824.6</ele>
        <time>2017-07-30T10:12:55Z</time>
      </trkpt>
      <trkpt lat="42.60303" lon="-0.20335">
        <ele>1824.6</ele>
        <time>2017-07-30T10:12:57Z</time>
      </trkpt>
      <trkpt lat="42.60303" lon="-0.20339">
        <ele>1824.6</ele>
        <time>2017-07-30T10:12:59Z</time>
      </trkpt>
      <trkpt lat="42.60301" lon="-0.20342">
        <ele>1824.8</ele>
        <time>2017-07-30T10:13:01Z</time>
      </trkpt>
      <trkpt lat="42.603" lon="-0.20345">
        <ele>1825</ele>
        <time>2017-07-30T10:13:03Z</time>
      </trkpt>
      <trkpt lat="42.60299" lon="-0.20348">
        <ele>1825.1</ele>
        <time>2017-07-30T10:13:05Z</time>
      </trkpt>
      <trkpt lat="42.60297" lon="-0.20351">
        <ele>1825.3</ele>
        <time>2017-07-30T10:13:07Z</time>
      </trkpt>
      <trkpt lat="42.60294" lon="-0.20353">
        <ele>1825.3</ele>
        <time>2017-07-30T10:13:09Z</time>
      </trkpt>
      <trkpt lat="42.60291" lon="-0.20351">
        <ele>1825.1</ele>
        <time>2017-07-30T10:13:11Z</time>
      </trkpt>
      <trkpt lat="42.6029" lon="-0.20347">
        <ele>1824.9</ele>
        <time>2017-07-30T10:13:13Z</time>
      </trkpt>
      <trkpt lat="42.6029" lon="-0.20342">
        <ele>1824.7</ele>
        <time>2017-07-30T10:13:15Z</time>
      </trkpt>
      <trkpt lat="42.60291" lon="-0.20337">
        <ele>1824.6</ele>
        <time>2017-07-30T10:13:17Z</time>
      </trkpt>
      <trkpt lat="42.60291" lon="-0.20332">
        <ele>1824.6</ele>
        <time>2017-07-30T10:13:19Z</time>
      </trkpt>
      <trkpt lat="42.60291" lon="-0.20327">
        <ele>1824.6</ele>
        <time>2017-07-30T10:13:21Z</time>
      </trkpt>
      <trkpt lat="42.60292" lon="-0.20322">
        <ele>1824.8</ele>
        <time>2017-07-30T10:13:23Z</time>
      </trkpt>
      <trkpt lat="42.60292" lon="-0.20317">
        <ele>1824.9</ele>
        <time>2017-07-30T10:13:25Z</time>
      </trkpt>
      <trkpt lat="42.60292" lon="-0.20312">
        <ele>1825</ele>
        <time>2017-07-30T10:13:27Z</time>
      </trkpt>
      <trkpt lat="42.60291" lon="-0.20308">
        <ele>1825.2</ele>
        <time>2017-07-30T10:13:29Z</time>
      </trkpt>
      <trkpt lat="42.60292" lon="-0.20303">
        <ele>1825.4</ele>
        <time>2017-07-30T10:13:31Z</time>
      </trkpt>
      <trkpt lat="42.60292" lon="-0.20299">
        <ele>1825.5</ele>
        <time>2017-07-30T10:13:33Z</time>
      </trkpt>
      <trkpt lat="42.60291" lon="-0.20294">
        <ele>1825.6</ele>
        <time>2017-07-30T10:13:35Z</time>
      </trkpt>
      <trkpt lat="42.60291" lon="-0.2029">
        <ele>1825.7</ele>
        <time>2017-07-30T10:13:37Z</time>
      </trkpt>
      <trkpt lat="42.60291" lon="-0.20285">
        <ele>1825.5</ele>
        <time>2017-07-30T10:13:39Z</time>
      </trkpt>
      <trkpt lat="42.6029" lon="-0.20281">
        <ele>1825.4</ele>
        <time>2017-07-30T10:13:41Z</time>
      </trkpt>
      <trkpt lat="42.60289" lon="-0.20276">
        <ele>1825.3</ele>
        <time>2017-07-30T10:13:43Z</time>
      </trkpt>
      <trkpt lat="42.60288" lon="-0.20272">
        <ele>1825</ele>
        <time>2017-07-30T10:13:45Z</time>
      </trkpt>
      <trkpt lat="42.60287" lon="-0.20267">
        <ele>1824.8</ele>
        <time>2017-07-30T10:13:47Z</time>
      </trkpt>
      <trkpt lat="42.60287" lon="-0.20263">
        <ele>1824.4</ele>
        <time>2017-07-30T10:13:49Z</time>
      </trkpt>
      <trkpt lat="42.60287" lon="-0.20258">
        <ele>1824</ele>
        <time>2017-07-30T10:13:51Z</time>
      </trkpt>
      <trkpt lat="42.60287" lon="-0.20253">
        <ele>1823.5</ele>
        <time>2017-07-30T10:13:53Z</time>
      </trkpt>
      <trkpt lat="42.60286" lon="-0.20248">
        <ele>1823.1</ele>
        <time>2017-07-30T10:13:55Z</time>
      </trkpt>
      <trkpt lat="42.60286" lon="-0.20243">
        <ele>1822.6</ele>
        <time>2017-07-30T10:13:57Z</time>
      </trkpt>
      <trkpt lat="42.60286" lon="-0.20238">
        <ele>1822.3</ele>
        <time>2017-07-30T10:13:59Z</time>
      </trkpt>
      <trkpt lat="42.60286" lon="-0.20233">
        <ele>1822.1</ele>
        <time>2017-07-30T10:14:01Z</time>
      </trkpt>
      <trkpt lat="42.60287" lon="-0.20228">
        <ele>1821.6</ele>
        <time>2017-07-30T10:14:03Z</time>
      </trkpt>
      <trkpt lat="42.60287" lon="-0.2022">
        <ele>1820.5</ele>
        <time>2017-07-30T10:14:05Z</time>
      </trkpt>
      <trkpt lat="42.60288" lon="-0.20216">
        <ele>1820.4</ele>
        <time>2017-07-30T10:14:06Z</time>
      </trkpt>
      <trkpt lat="42.60288" lon="-0.20211">
        <ele>1821</ele>
        <time>2017-07-30T10:14:07Z</time>
      </trkpt>
      <trkpt lat="42.60289" lon="-0.20207">
        <ele>1821.5</ele>
        <time>2017-07-30T10:14:08Z</time>
      </trkpt>
      <trkpt lat="42.6029" lon="-0.202">
        <ele>1822.3</ele>
        <time>2017-07-30T10:14:10Z</time>
      </trkpt>
      <trkpt lat="42.6029" lon="-0.20194">
        <ele>1823</ele>
        <time>2017-07-30T10:14:12Z</time>
      </trkpt>
      <trkpt lat="42.60291" lon="-0.20188">
        <ele>1824.2</ele>
        <time>2017-07-30T10:14:14Z</time>
      </trkpt>
      <trkpt lat="42.60291" lon="-0.20182">
        <ele>1825.6</ele>
        <time>2017-07-30T10:14:16Z</time>
      </trkpt>
      <trkpt lat="42.60292" lon="-0.20176">
        <ele>1827</ele>
        <time>2017-07-30T10:14:18Z</time>
      </trkpt>
      <trkpt lat="42.60293" lon="-0.2017">
        <ele>1828.3</ele>
        <time>2017-07-30T10:14:20Z</time>
      </trkpt>
      <trkpt lat="42.60295" lon="-0.20164">
        <ele>1828</ele>
        <time>2017-07-30T10:14:22Z</time>
      </trkpt>
      <trkpt lat="42.60296" lon="-0.2016">
        <ele>1827.8</ele>
        <time>2017-07-30T10:14:23Z</time>
      </trkpt>
      <trkpt lat="42.60297" lon="-0.20154">
        <ele>1827.6</ele>
        <time>2017-07-30T10:14:25Z</time>
      </trkpt>
      <trkpt lat="42.60299" lon="-0.20149">
        <ele>1827.4</ele>
        <time>2017-07-30T10:14:27Z</time>
      </trkpt>
      <trkpt lat="42.603" lon="-0.20145">
        <ele>1826.9</ele>
        <time>2017-07-30T10:14:29Z</time>
      </trkpt>
      <trkpt lat="42.60301" lon="-0.2014">
        <ele>1826.3</ele>
        <time>2017-07-30T10:14:31Z</time>
      </trkpt>
      <trkpt lat="42.60302" lon="-0.20135">
        <ele>1825.7</ele>
        <time>2017-07-30T10:14:33Z</time>
      </trkpt>
      <trkpt lat="42.60303" lon="-0.2013">
        <ele>1825</ele>
        <time>2017-07-30T10:14:35Z</time>
      </trkpt>
      <trkpt lat="42.60305" lon="-0.20124">
        <ele>1824.7</ele>
        <time>2017-07-30T10:14:37Z</time>
      </trkpt>
      <trkpt lat="42.60307" lon="-0.20119">
        <ele>1824.6</ele>
        <time>2017-07-30T10:14:39Z</time>
      </trkpt>
      <trkpt lat="42.6031" lon="-0.20115">
        <ele>1823.9</ele>
        <time>2017-07-30T10:14:41Z</time>
      </trkpt>
      <trkpt lat="42.60313" lon="-0.20111">
        <ele>1822.9</ele>
        <time>2017-07-30T10:14:43Z</time>
      </trkpt>
      <trkpt lat="42.60316" lon="-0.20107">
        <ele>1822.2</ele>
        <time>2017-07-30T10:14:45Z</time>
      </trkpt>
      <trkpt lat="42.60319" lon="-0.20104">
        <ele>1821.7</ele>
        <time>2017-07-30T10:14:47Z</time>
      </trkpt>
      <trkpt lat="42.60323" lon="-0.20101">
        <ele>1821.5</ele>
        <time>2017-07-30T10:14:49Z</time>
      </trkpt>
      <trkpt lat="42.60326" lon="-0.20096">
        <ele>1821.3</ele>
        <time>2017-07-30T10:14:51Z</time>
      </trkpt>
      <trkpt lat="42.60327" lon="-0.20091">
        <ele>1822</ele>
        <time>2017-07-30T10:14:53Z</time>
      </trkpt>
      <trkpt lat="42.60329" lon="-0.20086">
        <ele>1823.2</ele>
        <time>2017-07-30T10:14:55Z</time>
      </trkpt>
      <trkpt lat="42.60329" lon="-0.20081">
        <ele>1824.7</ele>
        <time>2017-07-30T10:14:57Z</time>
      </trkpt>
      <trkpt lat="42.6033" lon="-0.20077">
        <ele>1826.4</ele>
        <time>2017-07-30T10:14:59Z</time>
      </trkpt>
      <trkpt lat="42.6033" lon="-0.20072">
        <ele>1827.9</ele>
        <time>2017-07-30T10:15:01Z</time>
      </trkpt>
      <trkpt lat="42.6033" lon="-0.20067">
        <ele>1828.7</ele>
        <time>2017-07-30T10:15:03Z</time>
      </trkpt>
      <trkpt lat="42.6033" lon="-0.20063">
        <ele>1829.4</ele>
        <time>2017-07-30T10:15:05Z</time>
      </trkpt>
      <trkpt lat="42.6033" lon="-0.20059">
        <ele>1829.9</ele>
        <time>2017-07-30T10:15:07Z</time>
      </trkpt>
      <trkpt lat="42.60329" lon="-0.20055">
        <ele>1830.3</ele>
        <time>2017-07-30T10:15:09Z</time>
      </trkpt>
      <trkpt lat="42.60329" lon="-0.2005">
        <ele>1830.7</ele>
        <time>2017-07-30T10:15:12Z</time>
      </trkpt>
      <trkpt lat="42.60329" lon="-0.20045">
        <ele>1830.1</ele>
        <time>2017-07-30T10:15:15Z</time>
      </trkpt>
      <trkpt lat="42.60328" lon="-0.2004">
        <ele>1829.5</ele>
        <time>2017-07-30T10:15:18Z</time>
      </trkpt>
      <trkpt lat="42.60326" lon="-0.20035">
        <ele>1831.6</ele>
        <time>2017-07-30T10:15:21Z</time>
      </trkpt>
      <trkpt lat="42.60325" lon="-0.20031">
        <ele>1833.2</ele>
        <time>2017-07-30T10:15:23Z</time>
      </trkpt>
      <trkpt lat="42.60323" lon="-0.20027">
        <ele>1834.6</ele>
        <time>2017-07-30T10:15:26Z</time>
      </trkpt>
      <trkpt lat="42.6032" lon="-0.20026">
        <ele>1835.4</ele>
        <time>2017-07-30T10:15:28Z</time>
      </trkpt>
      <trkpt lat="42.60317" lon="-0.20024">
        <ele>1836.3</ele>
        <time>2017-07-30T10:15:30Z</time>
      </trkpt>
      <trkpt lat="42.60313" lon="-0.20023">
        <ele>1837.3</ele>
        <time>2017-07-30T10:15:32Z</time>
      </trkpt>
      <trkpt lat="42.6031" lon="-0.20023">
        <ele>1838.2</ele>
        <time>2017-07-30T10:15:34Z</time>
      </trkpt>
      <trkpt lat="42.60307" lon="-0.20022">
        <ele>1839.1</ele>
        <time>2017-07-30T10:15:36Z</time>
      </trkpt>
      <trkpt lat="42.60304" lon="-0.20021">
        <ele>1839.9</ele>
        <time>2017-07-30T10:15:38Z</time>
      </trkpt>
      <trkpt lat="42.60301" lon="-0.2002">
        <ele>1840.8</ele>
        <time>2017-07-30T10:15:40Z</time>
      </trkpt>
      <trkpt lat="42.60298" lon="-0.20019">
        <ele>1841.7</ele>
        <time>2017-07-30T10:15:42Z</time>
      </trkpt>
      <trkpt lat="42.60295" lon="-0.20019">
        <ele>1842.7</ele>
        <time>2017-07-30T10:15:44Z</time>
      </trkpt>
      <trkpt lat="42.60291" lon="-0.20019">
        <ele>1843.8</ele>
        <time>2017-07-30T10:15:46Z</time>
      </trkpt>
      <trkpt lat="42.60287" lon="-0.20018">
        <ele>1844.8</ele>
        <time>2017-07-30T10:15:48Z</time>
      </trkpt>
      <trkpt lat="42.60284" lon="-0.20018">
        <ele>1845.4</ele>
        <time>2017-07-30T10:15:50Z</time>
      </trkpt>
      <trkpt lat="42.6028" lon="-0.20017">
        <ele>1846.1</ele>
        <time>2017-07-30T10:15:52Z</time>
      </trkpt>
      <trkpt lat="42.60276" lon="-0.20017">
        <ele>1847.6</ele>
        <time>2017-07-30T10:15:54Z</time>
      </trkpt>
      <trkpt lat="42.60271" lon="-0.20016">
        <ele>1848.9</ele>
        <time>2017-07-30T10:15:56Z</time>
      </trkpt>
      <trkpt lat="42.60267" lon="-0.20016">
        <ele>1849.4</ele>
        <time>2017-07-30T10:15:58Z</time>
      </trkpt>
      <trkpt lat="42.60262" lon="-0.20015">
        <ele>1849.9</ele>
        <time>2017-07-30T10:16:00Z</time>
      </trkpt>
      <trkpt lat="42.60258" lon="-0.20014">
        <ele>1850.5</ele>
        <time>2017-07-30T10:16:02Z</time>
      </trkpt>
      <trkpt lat="42.60254" lon="-0.20013">
        <ele>1850.8</ele>
        <time>2017-07-30T10:16:04Z</time>
      </trkpt>
      <trkpt lat="42.60249" lon="-0.20013">
        <ele>1851</ele>
        <time>2017-07-30T10:16:06Z</time>
      </trkpt>
      <trkpt lat="42.60245" lon="-0.20012">
        <ele>1850.8</ele>
        <time>2017-07-30T10:16:08Z</time>
      </trkpt>
      <trkpt lat="42.60241" lon="-0.20011">
        <ele>1850.4</ele>
        <time>2017-07-30T10:16:10Z</time>
      </trkpt>
      <trkpt lat="42.60236" lon="-0.2001">
        <ele>1850</ele>
        <time>2017-07-30T10:16:12Z</time>
      </trkpt>
      <trkpt lat="42.60232" lon="-0.20009">
        <ele>1849.5</ele>
        <time>2017-07-30T10:16:14Z</time>
      </trkpt>
      <trkpt lat="42.60228" lon="-0.20007">
        <ele>1849.3</ele>
        <time>2017-07-30T10:16:16Z</time>
      </trkpt>
      <trkpt lat="42.60224" lon="-0.20006">
        <ele>1849.2</ele>
        <time>2017-07-30T10:16:18Z</time>
      </trkpt>
      <trkpt lat="42.6022" lon="-0.20004">
        <ele>1848.9</ele>
        <time>2017-07-30T10:16:20Z</time>
      </trkpt>
      <trkpt lat="42.60217" lon="-0.20002">
        <ele>1848.7</ele>
        <time>2017-07-30T10:16:22Z</time>
      </trkpt>
      <trkpt lat="42.60214" lon="-0.19999">
        <ele>1848.8</ele>
        <time>2017-07-30T10:16:24Z</time>
      </trkpt>
      <trkpt lat="42.6021" lon="-0.19997">
        <ele>1849</ele>
        <time>2017-07-30T10:16:26Z</time>
      </trkpt>
      <trkpt lat="42.60207" lon="-0.19995">
        <ele>1849.5</ele>
        <time>2017-07-30T10:16:28Z</time>
      </trkpt>
      <trkpt lat="42.60204" lon="-0.19992">
        <ele>1850.4</ele>
        <time>2017-07-30T10:16:30Z</time>
      </trkpt>
      <trkpt lat="42.60201" lon="-0.1999">
        <ele>1851.4</ele>
        <time>2017-07-30T10:16:32Z</time>
      </trkpt>
      <trkpt lat="42.60197" lon="-0.19988">
        <ele>1852.3</ele>
        <time>2017-07-30T10:16:34Z</time>
      </trkpt>
      <trkpt lat="42.60195" lon="-0.19986">
        <ele>1853.1</ele>
        <time>2017-07-30T10:16:36Z</time>
      </trkpt>
      <trkpt lat="42.60191" lon="-0.19984">
        <ele>1853.9</ele>
        <time>2017-07-30T10:16:38Z</time>
      </trkpt>
      <trkpt lat="42.60189" lon="-0.19981">
        <ele>1854.6</ele>
        <time>2017-07-30T10:16:40Z</time>
      </trkpt>
      <trkpt lat="42.60186" lon="-0.19978">
        <ele>1854.8</ele>
        <time>2017-07-30T10:16:42Z</time>
      </trkpt>
      <trkpt lat="42.60183" lon="-0.19976">
        <ele>1854.6</ele>
        <time>2017-07-30T10:16:44Z</time>
      </trkpt>
      <trkpt lat="42.6018" lon="-0.19973">
        <ele>1854.5</ele>
        <time>2017-07-30T10:16:46Z</time>
      </trkpt>
      <trkpt lat="42.60177" lon="-0.19971">
        <ele>1854.7</ele>
        <time>2017-07-30T10:16:48Z</time>
      </trkpt>
      <trkpt lat="42.60174" lon="-0.19969">
        <ele>1855</ele>
        <time>2017-07-30T10:16:50Z</time>
      </trkpt>
      <trkpt lat="42.60171" lon="-0.19967">
        <ele>1855.2</ele>
        <time>2017-07-30T10:16:52Z</time>
      </trkpt>
      <trkpt lat="42.60168" lon="-0.19964">
        <ele>1855.4</ele>
        <time>2017-07-30T10:16:54Z</time>
      </trkpt>
      <trkpt lat="42.60165" lon="-0.19962">
        <ele>1855.6</ele>
        <time>2017-07-30T10:16:56Z</time>
      </trkpt>
      <trkpt lat="42.60162" lon="-0.19959">
        <ele>1856.1</ele>
        <time>2017-07-30T10:16:58Z</time>
      </trkpt>
      <trkpt lat="42.6016" lon="-0.19955">
        <ele>1856.7</ele>
        <time>2017-07-30T10:17:00Z</time>
      </trkpt>
      <trkpt lat="42.60158" lon="-0.19952">
        <ele>1857.1</ele>
        <time>2017-07-30T10:17:02Z</time>
      </trkpt>
      <trkpt lat="42.60156" lon="-0.19949">
        <ele>1857.1</ele>
        <time>2017-07-30T10:17:04Z</time>
      </trkpt>
      <trkpt lat="42.60154" lon="-0.19946">
        <ele>1857.1</ele>
        <time>2017-07-30T10:17:06Z</time>
      </trkpt>
      <trkpt lat="42.60152" lon="-0.19943">
        <ele>1857.2</ele>
        <time>2017-07-30T10:17:08Z</time>
      </trkpt>
      <trkpt lat="42.6015" lon="-0.1994">
        <ele>1857.3</ele>
        <time>2017-07-30T10:17:10Z</time>
      </trkpt>
      <trkpt lat="42.60149" lon="-0.19936">
        <ele>1857.4</ele>
        <time>2017-07-30T10:17:12Z</time>
      </trkpt>
      <trkpt lat="42.60147" lon="-0.19933">
        <ele>1857.3</ele>
        <time>2017-07-30T10:17:14Z</time>
      </trkpt>
      <trkpt lat="42.60145" lon="-0.1993">
        <ele>1857.1</ele>
        <time>2017-07-30T10:17:16Z</time>
      </trkpt>
      <trkpt lat="42.60143" lon="-0.19927">
        <ele>1856.9</ele>
        <time>2017-07-30T10:17:18Z</time>
      </trkpt>
      <trkpt lat="42.60141" lon="-0.19923">
        <ele>1857</ele>
        <time>2017-07-30T10:17:20Z</time>
      </trkpt>
      <trkpt lat="42.60138" lon="-0.1992">
        <ele>1857.2</ele>
        <time>2017-07-30T10:17:22Z</time>
      </trkpt>
      <trkpt lat="42.60135" lon="-0.19918">
        <ele>1857.3</ele>
        <time>2017-07-30T10:17:24Z</time>
      </trkpt>
      <trkpt lat="42.60133" lon="-0.19915">
        <ele>1856.8</ele>
        <time>2017-07-30T10:17:26Z</time>
      </trkpt>
      <trkpt lat="42.6013" lon="-0.19913">
        <ele>1856.3</ele>
        <time>2017-07-30T10:17:28Z</time>
      </trkpt>
      <trkpt lat="42.60128" lon="-0.1991">
        <ele>1855.8</ele>
        <time>2017-07-30T10:17:30Z</time>
      </trkpt>
      <trkpt lat="42.60125" lon="-0.19907">
        <ele>1855.3</ele>
        <time>2017-07-30T10:17:32Z</time>
      </trkpt>
      <trkpt lat="42.60123" lon="-0.19905">
        <ele>1854.7</ele>
        <time>2017-07-30T10:17:34Z</time>
      </trkpt>
      <trkpt lat="42.6012" lon="-0.19904">
        <ele>1854.8</ele>
        <time>2017-07-30T10:17:36Z</time>
      </trkpt>
      <trkpt lat="42.60116" lon="-0.19904">
        <ele>1855.3</ele>
        <time>2017-07-30T10:17:38Z</time>
      </trkpt>
      <trkpt lat="42.60113" lon="-0.19904">
        <ele>1855.7</ele>
        <time>2017-07-30T10:17:40Z</time>
      </trkpt>
      <trkpt lat="42.6011" lon="-0.19904">
        <ele>1855.6</ele>
        <time>2017-07-30T10:17:42Z</time>
      </trkpt>
      <trkpt lat="42.60106" lon="-0.19904">
        <ele>1855.5</ele>
        <time>2017-07-30T10:17:44Z</time>
      </trkpt>
      <trkpt lat="42.60103" lon="-0.19903">
        <ele>1855.6</ele>
        <time>2017-07-30T10:17:46Z</time>
      </trkpt>
      <trkpt lat="42.60101" lon="-0.19901">
        <ele>1855.8</ele>
        <time>2017-07-30T10:17:48Z</time>
      </trkpt>
      <trkpt lat="42.60098" lon="-0.19898">
        <ele>1856.1</ele>
        <time>2017-07-30T10:17:50Z</time>
      </trkpt>
      <trkpt lat="42.60096" lon="-0.19896">
        <ele>1856.7</ele>
        <time>2017-07-30T10:17:52Z</time>
      </trkpt>
      <trkpt lat="42.60094" lon="-0.19893">
        <ele>1857.5</ele>
        <time>2017-07-30T10:17:54Z</time>
      </trkpt>
      <trkpt lat="42.60092" lon="-0.1989">
        <ele>1858.4</ele>
        <time>2017-07-30T10:17:56Z</time>
      </trkpt>
      <trkpt lat="42.6009" lon="-0.19887">
        <ele>1859.3</ele>
        <time>2017-07-30T10:17:58Z</time>
      </trkpt>
      <trkpt lat="42.60088" lon="-0.19885">
        <ele>1860.2</ele>
        <time>2017-07-30T10:18:00Z</time>
      </trkpt>
      <trkpt lat="42.60086" lon="-0.19882">
        <ele>1861.1</ele>
        <time>2017-07-30T10:18:02Z</time>
      </trkpt>
      <trkpt lat="42.60084" lon="-0.19879">
        <ele>1861.8</ele>
        <time>2017-07-30T10:18:04Z</time>
      </trkpt>
      <trkpt lat="42.60082" lon="-0.19876">
        <ele>1862.5</ele>
        <time>2017-07-30T10:18:06Z</time>
      </trkpt>
      <trkpt lat="42.6008" lon="-0.19872">
        <ele>1863.1</ele>
        <time>2017-07-30T10:18:08Z</time>
      </trkpt>
      <trkpt lat="42.60078" lon="-0.1987">
        <ele>1863.9</ele>
        <time>2017-07-30T10:18:10Z</time>
      </trkpt>
      <trkpt lat="42.60075" lon="-0.19869">
        <ele>1864.6</ele>
        <time>2017-07-30T10:18:12Z</time>
      </trkpt>
      <trkpt lat="42.60073" lon="-0.19867">
        <ele>1865.3</ele>
        <time>2017-07-30T10:18:14Z</time>
      </trkpt>
      <trkpt lat="42.6007" lon="-0.19864">
        <ele>1865.4</ele>
        <time>2017-07-30T10:18:16Z</time>
      </trkpt>
      <trkpt lat="42.60068" lon="-0.19862">
        <ele>1865.3</ele>
        <time>2017-07-30T10:18:18Z</time>
      </trkpt>
      <trkpt lat="42.60066" lon="-0.1986">
        <ele>1865.2</ele>
        <time>2017-07-30T10:18:20Z</time>
      </trkpt>
      <trkpt lat="42.60064" lon="-0.19857">
        <ele>1865.6</ele>
        <time>2017-07-30T10:18:22Z</time>
      </trkpt>
      <trkpt lat="42.60062" lon="-0.19854">
        <ele>1866.2</ele>
        <time>2017-07-30T10:18:24Z</time>
      </trkpt>
      <trkpt lat="42.60059" lon="-0.1985">
        <ele>1867</ele>
        <time>2017-07-30T10:18:27Z</time>
      </trkpt>
      <trkpt lat="42.60058" lon="-0.19847">
        <ele>1867.4</ele>
        <time>2017-07-30T10:18:29Z</time>
      </trkpt>
      <trkpt lat="42.60055" lon="-0.19842">
        <ele>1867.9</ele>
        <time>2017-07-30T10:18:32Z</time>
      </trkpt>
      <trkpt lat="42.60054" lon="-0.19839">
        <ele>1868.3</ele>
        <time>2017-07-30T10:18:34Z</time>
      </trkpt>
      <trkpt lat="42.60052" lon="-0.19835">
        <ele>1868.6</ele>
        <time>2017-07-30T10:18:36Z</time>
      </trkpt>
      <trkpt lat="42.6005" lon="-0.19832">
        <ele>1868.9</ele>
        <time>2017-07-30T10:18:38Z</time>
      </trkpt>
      <trkpt lat="42.60048" lon="-0.19829">
        <ele>1868.8</ele>
        <time>2017-07-30T10:18:40Z</time>
      </trkpt>
      <trkpt lat="42.60047" lon="-0.19826">
        <ele>1868.4</ele>
        <time>2017-07-30T10:18:42Z</time>
      </trkpt>
      <trkpt lat="42.60045" lon="-0.19823">
        <ele>1868</ele>
        <time>2017-07-30T10:18:44Z</time>
      </trkpt>
      <trkpt lat="42.60043" lon="-0.19819">
        <ele>1867.7</ele>
        <time>2017-07-30T10:18:46Z</time>
      </trkpt>
      <trkpt lat="42.60041" lon="-0.19816">
        <ele>1867.6</ele>
        <time>2017-07-30T10:18:48Z</time>
      </trkpt>
      <trkpt lat="42.60039" lon="-0.19812">
        <ele>1867.6</ele>
        <time>2017-07-30T10:18:50Z</time>
      </trkpt>
      <trkpt lat="42.60038" lon="-0.19809">
        <ele>1867.7</ele>
        <time>2017-07-30T10:18:52Z</time>
      </trkpt>
      <trkpt lat="42.60036" lon="-0.19805">
        <ele>1867.9</ele>
        <time>2017-07-30T10:18:54Z</time>
      </trkpt>
      <trkpt lat="42.60034" lon="-0.19801">
        <ele>1868.2</ele>
        <time>2017-07-30T10:18:56Z</time>
      </trkpt>
      <trkpt lat="42.60032" lon="-0.19797">
        <ele>1868.6</ele>
        <time>2017-07-30T10:18:58Z</time>
      </trkpt>
      <trkpt lat="42.6003" lon="-0.19793">
        <ele>1869.2</ele>
        <time>2017-07-30T10:19:00Z</time>
      </trkpt>
      <trkpt lat="42.60028" lon="-0.19789">
        <ele>1869.8</ele>
        <time>2017-07-30T10:19:02Z</time>
      </trkpt>
      <trkpt lat="42.60027" lon="-0.19784">
        <ele>1870.6</ele>
        <time>2017-07-30T10:19:04Z</time>
      </trkpt>
      <trkpt lat="42.60026" lon="-0.1978">
        <ele>1871.3</ele>
        <time>2017-07-30T10:19:06Z</time>
      </trkpt>
      <trkpt lat="42.60024" lon="-0.19777">
        <ele>1871.4</ele>
        <time>2017-07-30T10:19:08Z</time>
      </trkpt>
      <trkpt lat="42.60021" lon="-0.19774">
        <ele>1871.5</ele>
        <time>2017-07-30T10:19:10Z</time>
      </trkpt>
      <trkpt lat="42.60019" lon="-0.19771">
        <ele>1871.6</ele>
        <time>2017-07-30T10:19:12Z</time>
      </trkpt>
      <trkpt lat="42.60017" lon="-0.19768">
        <ele>1871.7</ele>
        <time>2017-07-30T10:19:14Z</time>
      </trkpt>
      <trkpt lat="42.60015" lon="-0.19765">
        <ele>1871.8</ele>
        <time>2017-07-30T10:19:16Z</time>
      </trkpt>
      <trkpt lat="42.60013" lon="-0.19762">
        <ele>1872.3</ele>
        <time>2017-07-30T10:19:18Z</time>
      </trkpt>
      <trkpt lat="42.60011" lon="-0.19758">
        <ele>1873.2</ele>
        <time>2017-07-30T10:19:20Z</time>
      </trkpt>
      <trkpt lat="42.60009" lon="-0.19754">
        <ele>1873.9</ele>
        <time>2017-07-30T10:19:22Z</time>
      </trkpt>
      <trkpt lat="42.60007" lon="-0.1975">
        <ele>1874.3</ele>
        <time>2017-07-30T10:19:24Z</time>
      </trkpt>
      <trkpt lat="42.60005" lon="-0.19747">
        <ele>1874.6</ele>
        <time>2017-07-30T10:19:26Z</time>
      </trkpt>
      <trkpt lat="42.60003" lon="-0.19743">
        <ele>1874.9</ele>
        <time>2017-07-30T10:19:28Z</time>
      </trkpt>
      <trkpt lat="42.60001" lon="-0.1974">
        <ele>1875.1</ele>
        <time>2017-07-30T10:19:30Z</time>
      </trkpt>
      <trkpt lat="42.59999" lon="-0.19736">
        <ele>1875.3</ele>
        <time>2017-07-30T10:19:32Z</time>
      </trkpt>
      <trkpt lat="42.59997" lon="-0.19733">
        <ele>1876.1</ele>
        <time>2017-07-30T10:19:34Z</time>
      </trkpt>
      <trkpt lat="42.59996" lon="-0.1973">
        <ele>1876.8</ele>
        <time>2017-07-30T10:19:36Z</time>
      </trkpt>
      <trkpt lat="42.59994" lon="-0.19726">
        <ele>1877.4</ele>
        <time>2017-07-30T10:19:38Z</time>
      </trkpt>
      <trkpt lat="42.59993" lon="-0.19723">
        <ele>1877.7</ele>
        <time>2017-07-30T10:19:40Z</time>
      </trkpt>
      <trkpt lat="42.59991" lon="-0.19719">
        <ele>1878.1</ele>
        <time>2017-07-30T10:19:42Z</time>
      </trkpt>
      <trkpt lat="42.59989" lon="-0.19715">
        <ele>1878.4</ele>
        <time>2017-07-30T10:19:44Z</time>
      </trkpt>
      <trkpt lat="42.59988" lon="-0.19711">
        <ele>1878.7</ele>
        <time>2017-07-30T10:19:46Z</time>
      </trkpt>
      <trkpt lat="42.59987" lon="-0.19707">
        <ele>1878.9</ele>
        <time>2017-07-30T10:19:48Z</time>
      </trkpt>
      <trkpt lat="42.59986" lon="-0.19704">
        <ele>1879.9</ele>
        <time>2017-07-30T10:19:50Z</time>
      </trkpt>
      <trkpt lat="42.59985" lon="-0.197">
        <ele>1881</ele>
        <time>2017-07-30T10:19:52Z</time>
      </trkpt>
      <trkpt lat="42.59983" lon="-0.19697">
        <ele>1881.9</ele>
        <time>2017-07-30T10:19:54Z</time>
      </trkpt>
      <trkpt lat="42.59982" lon="-0.19693">
        <ele>1882.3</ele>
        <time>2017-07-30T10:19:56Z</time>
      </trkpt>
      <trkpt lat="42.5998" lon="-0.19688">
        <ele>1882.7</ele>
        <time>2017-07-30T10:19:59Z</time>
      </trkpt>
      <trkpt lat="42.59978" lon="-0.19685">
        <ele>1882.9</ele>
        <time>2017-07-30T10:20:01Z</time>
      </trkpt>
      <trkpt lat="42.59977" lon="-0.19681">
        <ele>1883</ele>
        <time>2017-07-30T10:20:03Z</time>
      </trkpt>
      <trkpt lat="42.59975" lon="-0.19678">
        <ele>1883.2</ele>
        <time>2017-07-30T10:20:05Z</time>
      </trkpt>
      <trkpt lat="42.59974" lon="-0.19675">
        <ele>1883.2</ele>
        <time>2017-07-30T10:20:07Z</time>
      </trkpt>
      <trkpt lat="42.59972" lon="-0.19672">
        <ele>1883.2</ele>
        <time>2017-07-30T10:20:09Z</time>
      </trkpt>
      <trkpt lat="42.5997" lon="-0.19669">
        <ele>1883.5</ele>
        <time>2017-07-30T10:20:11Z</time>
      </trkpt>
      <trkpt lat="42.59968" lon="-0.19666">
        <ele>1884.2</ele>
        <time>2017-07-30T10:20:13Z</time>
      </trkpt>
      <trkpt lat="42.59966" lon="-0.19662">
        <ele>1884.9</ele>
        <time>2017-07-30T10:20:15Z</time>
      </trkpt>
      <trkpt lat="42.59964" lon="-0.19659">
        <ele>1884.9</ele>
        <time>2017-07-30T10:20:17Z</time>
      </trkpt>
      <trkpt lat="42.59963" lon="-0.19655">
        <ele>1884.7</ele>
        <time>2017-07-30T10:20:19Z</time>
      </trkpt>
      <trkpt lat="42.59961" lon="-0.19652">
        <ele>1884.4</ele>
        <time>2017-07-30T10:20:21Z</time>
      </trkpt>
      <trkpt lat="42.5996" lon="-0.19648">
        <ele>1884</ele>
        <time>2017-07-30T10:20:23Z</time>
      </trkpt>
      <trkpt lat="42.5996" lon="-0.19644">
        <ele>1883.6</ele>
        <time>2017-07-30T10:20:25Z</time>
      </trkpt>
      <trkpt lat="42.59959" lon="-0.1964">
        <ele>1882.9</ele>
        <time>2017-07-30T10:20:27Z</time>
      </trkpt>
      <trkpt lat="42.59958" lon="-0.19635">
        <ele>1882</ele>
        <time>2017-07-30T10:20:29Z</time>
      </trkpt>
      <trkpt lat="42.59957" lon="-0.19631">
        <ele>1881.1</ele>
        <time>2017-07-30T10:20:31Z</time>
      </trkpt>
      <trkpt lat="42.59956" lon="-0.19627">
        <ele>1880.5</ele>
        <time>2017-07-30T10:20:33Z</time>
      </trkpt>
      <trkpt lat="42.59955" lon="-0.19623">
        <ele>1879.8</ele>
        <time>2017-07-30T10:20:35Z</time>
      </trkpt>
      <trkpt lat="42.59954" lon="-0.19619">
        <ele>1879.1</ele>
        <time>2017-07-30T10:20:37Z</time>
      </trkpt>
      <trkpt lat="42.59952" lon="-0.19615">
        <ele>1878.5</ele>
        <time>2017-07-30T10:20:39Z</time>
      </trkpt>
      <trkpt lat="42.59951" lon="-0.1961">
        <ele>1877.9</ele>
        <time>2017-07-30T10:20:41Z</time>
      </trkpt>
      <trkpt lat="42.59949" lon="-0.19606">
        <ele>1877.1</ele>
        <time>2017-07-30T10:20:43Z</time>
      </trkpt>
      <trkpt lat="42.59949" lon="-0.19602">
        <ele>1876.4</ele>
        <time>2017-07-30T10:20:45Z</time>
      </trkpt>
      <trkpt lat="42.59948" lon="-0.19597">
        <ele>1875.8</ele>
        <time>2017-07-30T10:20:47Z</time>
      </trkpt>
      <trkpt lat="42.59947" lon="-0.19593">
        <ele>1875.4</ele>
        <time>2017-07-30T10:20:49Z</time>
      </trkpt>
      <trkpt lat="42.59946" lon="-0.19589">
        <ele>1875</ele>
        <time>2017-07-30T10:20:51Z</time>
      </trkpt>
      <trkpt lat="42.59946" lon="-0.19584">
        <ele>1875</ele>
        <time>2017-07-30T10:20:53Z</time>
      </trkpt>
      <trkpt lat="42.59945" lon="-0.1958">
        <ele>1875.2</ele>
        <time>2017-07-30T10:20:55Z</time>
      </trkpt>
      <trkpt lat="42.59944" lon="-0.19576">
        <ele>1875.3</ele>
        <time>2017-07-30T10:20:57Z</time>
      </trkpt>
      <trkpt lat="42.59942" lon="-0.19571">
        <ele>1875</ele>
        <time>2017-07-30T10:20:59Z</time>
      </trkpt>
      <trkpt lat="42.59941" lon="-0.19567">
        <ele>1874.6</ele>
        <time>2017-07-30T10:21:01Z</time>
      </trkpt>
      <trkpt lat="42.5994" lon="-0.19563">
        <ele>1874.3</ele>
        <time>2017-07-30T10:21:03Z</time>
      </trkpt>
      <trkpt lat="42.59938" lon="-0.1956">
        <ele>1874.1</ele>
        <time>2017-07-30T10:21:05Z</time>
      </trkpt>
      <trkpt lat="42.59937" lon="-0.19556">
        <ele>1873.9</ele>
        <time>2017-07-30T10:21:07Z</time>
      </trkpt>
      <trkpt lat="42.59936" lon="-0.19552">
        <ele>1873.8</ele>
        <time>2017-07-30T10:21:09Z</time>
      </trkpt>
      <trkpt lat="42.59934" lon="-0.19549">
        <ele>1874</ele>
        <time>2017-07-30T10:21:11Z</time>
      </trkpt>
      <trkpt lat="42.59932" lon="-0.19545">
        <ele>1874.1</ele>
        <time>2017-07-30T10:21:13Z</time>
      </trkpt>
      <trkpt lat="42.59931" lon="-0.19542">
        <ele>1874.7</ele>
        <time>2017-07-30T10:21:15Z</time>
      </trkpt>
      <trkpt lat="42.59929" lon="-0.19538">
        <ele>1875.6</ele>
        <time>2017-07-30T10:21:17Z</time>
      </trkpt>
      <trkpt lat="42.59926" lon="-0.19536">
        <ele>1876.5</ele>
        <time>2017-07-30T10:21:19Z</time>
      </trkpt>
      <trkpt lat="42.59924" lon="-0.19533">
        <ele>1878.1</ele>
        <time>2017-07-30T10:21:21Z</time>
      </trkpt>
      <trkpt lat="42.59921" lon="-0.19532">
        <ele>1879.9</ele>
        <time>2017-07-30T10:21:23Z</time>
      </trkpt>
      <trkpt lat="42.59918" lon="-0.1953">
        <ele>1881.4</ele>
        <time>2017-07-30T10:21:25Z</time>
      </trkpt>
      <trkpt lat="42.59915" lon="-0.19527">
        <ele>1882.2</ele>
        <time>2017-07-30T10:21:27Z</time>
      </trkpt>
      <trkpt lat="42.59913" lon="-0.19525">
        <ele>1883</ele>
        <time>2017-07-30T10:21:29Z</time>
      </trkpt>
      <trkpt lat="42.5991" lon="-0.19522">
        <ele>1883.4</ele>
        <time>2017-07-30T10:21:31Z</time>
      </trkpt>
      <trkpt lat="42.59907" lon="-0.1952">
        <ele>1883.6</ele>
        <time>2017-07-30T10:21:33Z</time>
      </trkpt>
      <trkpt lat="42.59904" lon="-0.19518">
        <ele>1883.8</ele>
        <time>2017-07-30T10:21:35Z</time>
      </trkpt>
      <trkpt lat="42.59902" lon="-0.19516">
        <ele>1884.4</ele>
        <time>2017-07-30T10:21:37Z</time>
      </trkpt>
      <trkpt lat="42.59899" lon="-0.19514">
        <ele>1884.9</ele>
        <time>2017-07-30T10:21:39Z</time>
      </trkpt>
      <trkpt lat="42.59896" lon="-0.19511">
        <ele>1885.3</ele>
        <time>2017-07-30T10:21:41Z</time>
      </trkpt>
      <trkpt lat="42.59893" lon="-0.19509">
        <ele>1885.6</ele>
        <time>2017-07-30T10:21:43Z</time>
      </trkpt>
      <trkpt lat="42.59891" lon="-0.19507">
        <ele>1885.8</ele>
        <time>2017-07-30T10:21:45Z</time>
      </trkpt>
      <trkpt lat="42.59888" lon="-0.19505">
        <ele>1885.7</ele>
        <time>2017-07-30T10:21:47Z</time>
      </trkpt>
      <trkpt lat="42.59886" lon="-0.19502">
        <ele>1885.7</ele>
        <time>2017-07-30T10:21:49Z</time>
      </trkpt>
      <trkpt lat="42.59884" lon="-0.19499">
        <ele>1885.7</ele>
        <time>2017-07-30T10:21:51Z</time>
      </trkpt>
      <trkpt lat="42.59881" lon="-0.19497">
        <ele>1885.9</ele>
        <time>2017-07-30T10:21:53Z</time>
      </trkpt>
      <trkpt lat="42.59879" lon="-0.19493">
        <ele>1886.1</ele>
        <time>2017-07-30T10:23:37Z</time>
      </trkpt>
      <trkpt lat="42.59876" lon="-0.1949">
        <ele>1885.9</ele>
        <time>2017-07-30T10:23:40Z</time>
      </trkpt>
      <trkpt lat="42.59873" lon="-0.19487">
        <ele>1885.7</ele>
        <time>2017-07-30T10:23:42Z</time>
      </trkpt>
      <trkpt lat="42.59871" lon="-0.19485">
        <ele>1885.5</ele>
        <time>2017-07-30T10:23:44Z</time>
      </trkpt>
      <trkpt lat="42.59869" lon="-0.19481">
        <ele>1885.1</ele>
        <time>2017-07-30T10:23:46Z</time>
      </trkpt>
      <trkpt lat="42.59867" lon="-0.19477">
        <ele>1884.7</ele>
        <time>2017-07-30T10:23:48Z</time>
      </trkpt>
      <trkpt lat="42.59865" lon="-0.19473">
        <ele>1884.8</ele>
        <time>2017-07-30T10:23:50Z</time>
      </trkpt>
      <trkpt lat="42.59864" lon="-0.19469">
        <ele>1885</ele>
        <time>2017-07-30T10:23:52Z</time>
      </trkpt>
      <trkpt lat="42.59862" lon="-0.19466">
        <ele>1885.3</ele>
        <time>2017-07-30T10:23:54Z</time>
      </trkpt>
      <trkpt lat="42.59861" lon="-0.19462">
        <ele>1886</ele>
        <time>2017-07-30T10:23:56Z</time>
      </trkpt>
      <trkpt lat="42.59859" lon="-0.19458">
        <ele>1886.7</ele>
        <time>2017-07-30T10:23:58Z</time>
      </trkpt>
      <trkpt lat="42.59857" lon="-0.19454">
        <ele>1887.4</ele>
        <time>2017-07-30T10:24:00Z</time>
      </trkpt>
      <trkpt lat="42.59855" lon="-0.1945">
        <ele>1888.1</ele>
        <time>2017-07-30T10:24:02Z</time>
      </trkpt>
      <trkpt lat="42.59854" lon="-0.19447">
        <ele>1888.7</ele>
        <time>2017-07-30T10:24:04Z</time>
      </trkpt>
      <trkpt lat="42.59852" lon="-0.19443">
        <ele>1889.2</ele>
        <time>2017-07-30T10:24:06Z</time>
      </trkpt>
      <trkpt lat="42.5985" lon="-0.1944">
        <ele>1889.7</ele>
        <time>2017-07-30T10:24:08Z</time>
      </trkpt>
      <trkpt lat="42.59848" lon="-0.19436">
        <ele>1890.2</ele>
        <time>2017-07-30T10:24:10Z</time>
      </trkpt>
      <trkpt lat="42.59847" lon="-0.19432">
        <ele>1890.4</ele>
        <time>2017-07-30T10:24:12Z</time>
      </trkpt>
      <trkpt lat="42.59845" lon="-0.19429">
        <ele>1890.5</ele>
        <time>2017-07-30T10:24:14Z</time>
      </trkpt>
      <trkpt lat="42.59843" lon="-0.19425">
        <ele>1890.7</ele>
        <time>2017-07-30T10:24:16Z</time>
      </trkpt>
      <trkpt lat="42.5984" lon="-0.19422">
        <ele>1890.9</ele>
        <time>2017-07-30T10:24:18Z</time>
      </trkpt>
      <trkpt lat="42.59839" lon="-0.19419">
        <ele>1891.1</ele>
        <time>2017-07-30T10:24:20Z</time>
      </trkpt>
      <trkpt lat="42.59837" lon="-0.19415">
        <ele>1891.2</ele>
        <time>2017-07-30T10:24:22Z</time>
      </trkpt>
      <trkpt lat="42.59835" lon="-0.19412">
        <ele>1891.3</ele>
        <time>2017-07-30T10:24:24Z</time>
      </trkpt>
      <trkpt lat="42.59834" lon="-0.19409">
        <ele>1891.3</ele>
        <time>2017-07-30T10:24:26Z</time>
      </trkpt>
      <trkpt lat="42.59832" lon="-0.19405">
        <ele>1891.3</ele>
        <time>2017-07-30T10:24:28Z</time>
      </trkpt>
      <trkpt lat="42.59831" lon="-0.19402">
        <ele>1891.2</ele>
        <time>2017-07-30T10:24:30Z</time>
      </trkpt>
      <trkpt lat="42.59829" lon="-0.19398">
        <ele>1891</ele>
        <time>2017-07-30T10:24:32Z</time>
      </trkpt>
      <trkpt lat="42.59827" lon="-0.19395">
        <ele>1890.9</ele>
        <time>2017-07-30T10:24:34Z</time>
      </trkpt>
      <trkpt lat="42.59826" lon="-0.19392">
        <ele>1890.9</ele>
        <time>2017-07-30T10:24:36Z</time>
      </trkpt>
      <trkpt lat="42.59824" lon="-0.19388">
        <ele>1890.8</ele>
        <time>2017-07-30T10:24:38Z</time>
      </trkpt>
      <trkpt lat="42.59823" lon="-0.19385">
        <ele>1890.8</ele>
        <time>2017-07-30T10:24:40Z</time>
      </trkpt>
      <trkpt lat="42.59821" lon="-0.19383">
        <ele>1890.8</ele>
        <time>2017-07-30T10:24:42Z</time>
      </trkpt>
      <trkpt lat="42.59819" lon="-0.1938">
        <ele>1890.9</ele>
        <time>2017-07-30T10:24:44Z</time>
      </trkpt>
      <trkpt lat="42.59817" lon="-0.19375">
        <ele>1891.4</ele>
        <time>2017-07-30T10:24:47Z</time>
      </trkpt>
      <trkpt lat="42.59814" lon="-0.19371">
        <ele>1892</ele>
        <time>2017-07-30T10:24:50Z</time>
      </trkpt>
      <trkpt lat="42.59812" lon="-0.19369">
        <ele>1892.5</ele>
        <time>2017-07-30T10:24:52Z</time>
      </trkpt>
      <trkpt lat="42.5981" lon="-0.19366">
        <ele>1892.9</ele>
        <time>2017-07-30T10:24:54Z</time>
      </trkpt>
      <trkpt lat="42.59808" lon="-0.19363">
        <ele>1893.3</ele>
        <time>2017-07-30T10:24:56Z</time>
      </trkpt>
      <trkpt lat="42.59806" lon="-0.19361">
        <ele>1893.8</ele>
        <time>2017-07-30T10:24:58Z</time>
      </trkpt>
      <trkpt lat="42.59803" lon="-0.19358">
        <ele>1894.3</ele>
        <time>2017-07-30T10:25:00Z</time>
      </trkpt>
      <trkpt lat="42.59801" lon="-0.19356">
        <ele>1894.8</ele>
        <time>2017-07-30T10:25:02Z</time>
      </trkpt>
      <trkpt lat="42.59799" lon="-0.19353">
        <ele>1895.3</ele>
        <time>2017-07-30T10:25:04Z</time>
      </trkpt>
      <trkpt lat="42.59797" lon="-0.1935">
        <ele>1896</ele>
        <time>2017-07-30T10:25:06Z</time>
      </trkpt>
      <trkpt lat="42.59795" lon="-0.19348">
        <ele>1896.5</ele>
        <time>2017-07-30T10:25:08Z</time>
      </trkpt>
      <trkpt lat="42.59792" lon="-0.19345">
        <ele>1897.5</ele>
        <time>2017-07-30T10:25:11Z</time>
      </trkpt>
      <trkpt lat="42.59789" lon="-0.19341">
        <ele>1898.5</ele>
        <time>2017-07-30T10:25:14Z</time>
      </trkpt>
      <trkpt lat="42.59786" lon="-0.19339">
        <ele>1899.5</ele>
        <time>2017-07-30T10:25:17Z</time>
      </trkpt>
      <trkpt lat="42.59783" lon="-0.19336">
        <ele>1900.3</ele>
        <time>2017-07-30T10:25:20Z</time>
      </trkpt>
      <trkpt lat="42.5978" lon="-0.19332">
        <ele>1901.2</ele>
        <time>2017-07-30T10:25:23Z</time>
      </trkpt>
      <trkpt lat="42.59778" lon="-0.19329">
        <ele>1901.9</ele>
        <time>2017-07-30T10:25:26Z</time>
      </trkpt>
      <trkpt lat="42.59775" lon="-0.19326">
        <ele>1902.6</ele>
        <time>2017-07-30T10:25:29Z</time>
      </trkpt>
      <trkpt lat="42.59772" lon="-0.19323">
        <ele>1903.1</ele>
        <time>2017-07-30T10:25:32Z</time>
      </trkpt>
      <trkpt lat="42.59769" lon="-0.1932">
        <ele>1903.4</ele>
        <time>2017-07-30T10:25:35Z</time>
      </trkpt>
      <trkpt lat="42.59767" lon="-0.19317">
        <ele>1903.7</ele>
        <time>2017-07-30T10:25:38Z</time>
      </trkpt>
      <trkpt lat="42.59765" lon="-0.19314">
        <ele>1904</ele>
        <time>2017-07-30T10:25:41Z</time>
      </trkpt>
      <trkpt lat="42.59762" lon="-0.19311">
        <ele>1904.4</ele>
        <time>2017-07-30T10:25:44Z</time>
      </trkpt>
      <trkpt lat="42.59759" lon="-0.19308">
        <ele>1905.1</ele>
        <time>2017-07-30T10:25:47Z</time>
      </trkpt>
      <trkpt lat="42.59756" lon="-0.19306">
        <ele>1905.8</ele>
        <time>2017-07-30T10:25:50Z</time>
      </trkpt>
      <trkpt lat="42.59753" lon="-0.19305">
        <ele>1906.7</ele>
        <time>2017-07-30T10:25:53Z</time>
      </trkpt>
      <trkpt lat="42.5975" lon="-0.19302">
        <ele>1907.8</ele>
        <time>2017-07-30T10:25:56Z</time>
      </trkpt>
      <trkpt lat="42.59747" lon="-0.19299">
        <ele>1908.9</ele>
        <time>2017-07-30T10:25:59Z</time>
      </trkpt>
      <trkpt lat="42.59745" lon="-0.19295">
        <ele>1910.1</ele>
        <time>2017-07-30T10:26:02Z</time>
      </trkpt>
      <trkpt lat="42.59743" lon="-0.19291">
        <ele>1911.4</ele>
        <time>2017-07-30T10:26:05Z</time>
      </trkpt>
      <trkpt lat="42.59741" lon="-0.19288">
        <ele>1912.8</ele>
        <time>2017-07-30T10:26:08Z</time>
      </trkpt>
      <trkpt lat="42.59739" lon="-0.19283">
        <ele>1913.7</ele>
        <time>2017-07-30T10:26:11Z</time>
      </trkpt>
      <trkpt lat="42.59736" lon="-0.1928">
        <ele>1914.6</ele>
        <time>2017-07-30T10:26:14Z</time>
      </trkpt>
      <trkpt lat="42.59734" lon="-0.19277">
        <ele>1915.1</ele>
        <time>2017-07-30T10:26:17Z</time>
      </trkpt>
      <trkpt lat="42.59731" lon="-0.19274">
        <ele>1915.5</ele>
        <time>2017-07-30T10:26:20Z</time>
      </trkpt>
      <trkpt lat="42.59728" lon="-0.1927">
        <ele>1915.8</ele>
        <time>2017-07-30T10:26:23Z</time>
      </trkpt>
      <trkpt lat="42.59726" lon="-0.19267">
        <ele>1915.8</ele>
        <time>2017-07-30T10:26:26Z</time>
      </trkpt>
      <trkpt lat="42.59723" lon="-0.19263">
        <ele>1915.8</ele>
        <time>2017-07-30T10:26:29Z</time>
      </trkpt>
      <trkpt lat="42.5972" lon="-0.1926">
        <ele>1915.9</ele>
        <time>2017-07-30T10:26:32Z</time>
      </trkpt>
      <trkpt lat="42.59718" lon="-0.19257">
        <ele>1916.3</ele>
        <time>2017-07-30T10:26:35Z</time>
      </trkpt>
      <trkpt lat="42.59715" lon="-0.19254">
        <ele>1916.7</ele>
        <time>2017-07-30T10:26:38Z</time>
      </trkpt>
      <trkpt lat="42.59713" lon="-0.19251">
        <ele>1917.2</ele>
        <time>2017-07-30T10:26:41Z</time>
      </trkpt>
      <trkpt lat="42.5971" lon="-0.19249">
        <ele>1917.8</ele>
        <time>2017-07-30T10:26:44Z</time>
      </trkpt>
      <trkpt lat="42.59707" lon="-0.19247">
        <ele>1918.3</ele>
        <time>2017-07-30T10:26:47Z</time>
      </trkpt>
      <trkpt lat="42.59705" lon="-0.19244">
        <ele>1918.6</ele>
        <time>2017-07-30T10:26:50Z</time>
      </trkpt>
      <trkpt lat="42.59702" lon="-0.19242">
        <ele>1918.9</ele>
        <time>2017-07-30T10:26:53Z</time>
      </trkpt>
      <trkpt lat="42.59699" lon="-0.1924">
        <ele>1919.2</ele>
        <time>2017-07-30T10:26:56Z</time>
      </trkpt>
      <trkpt lat="42.59696" lon="-0.19238">
        <ele>1919.5</ele>
        <time>2017-07-30T10:26:59Z</time>
      </trkpt>
      <trkpt lat="42.59693" lon="-0.19236">
        <ele>1919.8</ele>
        <time>2017-07-30T10:27:02Z</time>
      </trkpt>
      <trkpt lat="42.5969" lon="-0.19235">
        <ele>1920.1</ele>
        <time>2017-07-30T10:27:05Z</time>
      </trkpt>
      <trkpt lat="42.59686" lon="-0.19233">
        <ele>1920.4</ele>
        <time>2017-07-30T10:27:08Z</time>
      </trkpt>
      <trkpt lat="42.59683" lon="-0.19231">
        <ele>1920.6</ele>
        <time>2017-07-30T10:27:11Z</time>
      </trkpt>
      <trkpt lat="42.5968" lon="-0.19229">
        <ele>1921</ele>
        <time>2017-07-30T10:27:14Z</time>
      </trkpt>
      <trkpt lat="42.59677" lon="-0.19227">
        <ele>1921.4</ele>
        <time>2017-07-30T10:27:17Z</time>
      </trkpt>
      <trkpt lat="42.59674" lon="-0.19226">
        <ele>1921.9</ele>
        <time>2017-07-30T10:27:20Z</time>
      </trkpt>
      <trkpt lat="42.5967" lon="-0.19226">
        <ele>1922.5</ele>
        <time>2017-07-30T10:27:23Z</time>
      </trkpt>
      <trkpt lat="42.59666" lon="-0.19224">
        <ele>1923</ele>
        <time>2017-07-30T10:27:26Z</time>
      </trkpt>
      <trkpt lat="42.59663" lon="-0.19223">
        <ele>1923.1</ele>
        <time>2017-07-30T10:27:28Z</time>
      </trkpt>
      <trkpt lat="42.5966" lon="-0.19222">
        <ele>1923.3</ele>
        <time>2017-07-30T10:27:30Z</time>
      </trkpt>
      <trkpt lat="42.59657" lon="-0.19221">
        <ele>1923.7</ele>
        <time>2017-07-30T10:27:32Z</time>
      </trkpt>
      <trkpt lat="42.59654" lon="-0.1922">
        <ele>1924.2</ele>
        <time>2017-07-30T10:27:34Z</time>
      </trkpt>
      <trkpt lat="42.59651" lon="-0.19219">
        <ele>1924.9</ele>
        <time>2017-07-30T10:27:36Z</time>
      </trkpt>
      <trkpt lat="42.59647" lon="-0.19219">
        <ele>1925.1</ele>
        <time>2017-07-30T10:27:38Z</time>
      </trkpt>
      <trkpt lat="42.59644" lon="-0.19219">
        <ele>1925.4</ele>
        <time>2017-07-30T10:27:40Z</time>
      </trkpt>
      <trkpt lat="42.5964" lon="-0.1922">
        <ele>1925.5</ele>
        <time>2017-07-30T10:27:42Z</time>
      </trkpt>
      <trkpt lat="42.59637" lon="-0.19221">
        <ele>1925.2</ele>
        <time>2017-07-30T10:27:44Z</time>
      </trkpt>
      <trkpt lat="42.59633" lon="-0.19222">
        <ele>1924.9</ele>
        <time>2017-07-30T10:27:46Z</time>
      </trkpt>
      <trkpt lat="42.5963" lon="-0.19224">
        <ele>1924.6</ele>
        <time>2017-07-30T10:27:48Z</time>
      </trkpt>
      <trkpt lat="42.59627" lon="-0.19226">
        <ele>1924.3</ele>
        <time>2017-07-30T10:27:50Z</time>
      </trkpt>
      <trkpt lat="42.59623" lon="-0.19227">
        <ele>1924</ele>
        <time>2017-07-30T10:27:52Z</time>
      </trkpt>
      <trkpt lat="42.59619" lon="-0.19228">
        <ele>1924</ele>
        <time>2017-07-30T10:27:54Z</time>
      </trkpt>
      <trkpt lat="42.59615" lon="-0.19228">
        <ele>1924</ele>
        <time>2017-07-30T10:27:56Z</time>
      </trkpt>
      <trkpt lat="42.5961" lon="-0.19228">
        <ele>1923.9</ele>
        <time>2017-07-30T10:27:58Z</time>
      </trkpt>
      <trkpt lat="42.59606" lon="-0.19229">
        <ele>1923.9</ele>
        <time>2017-07-30T10:28:00Z</time>
      </trkpt>
      <trkpt lat="42.59602" lon="-0.1923">
        <ele>1923.8</ele>
        <time>2017-07-30T10:28:02Z</time>
      </trkpt>
      <trkpt lat="42.59598" lon="-0.19231">
        <ele>1923.8</ele>
        <time>2017-07-30T10:28:04Z</time>
      </trkpt>
      <trkpt lat="42.59594" lon="-0.19233">
        <ele>1923.8</ele>
        <time>2017-07-30T10:28:06Z</time>
      </trkpt>
      <trkpt lat="42.59589" lon="-0.19234">
        <ele>1923.8</ele>
        <time>2017-07-30T10:28:08Z</time>
      </trkpt>
      <trkpt lat="42.59585" lon="-0.19235">
        <ele>1923.9</ele>
        <time>2017-07-30T10:28:10Z</time>
      </trkpt>
      <trkpt lat="42.59581" lon="-0.19235">
        <ele>1924.2</ele>
        <time>2017-07-30T10:28:12Z</time>
      </trkpt>
      <trkpt lat="42.59577" lon="-0.19234">
        <ele>1924.4</ele>
        <time>2017-07-30T10:28:14Z</time>
      </trkpt>
      <trkpt lat="42.59573" lon="-0.19234">
        <ele>1924.4</ele>
        <time>2017-07-30T10:28:16Z</time>
      </trkpt>
      <trkpt lat="42.59569" lon="-0.19232">
        <ele>1924.4</ele>
        <time>2017-07-30T10:28:18Z</time>
      </trkpt>
      <trkpt lat="42.59566" lon="-0.19231">
        <ele>1924.4</ele>
        <time>2017-07-30T10:28:20Z</time>
      </trkpt>
      <trkpt lat="42.59563" lon="-0.19229">
        <ele>1924.4</ele>
        <time>2017-07-30T10:28:22Z</time>
      </trkpt>
      <trkpt lat="42.59559" lon="-0.19228">
        <ele>1924.4</ele>
        <time>2017-07-30T10:28:24Z</time>
      </trkpt>
      <trkpt lat="42.59555" lon="-0.19227">
        <ele>1924.3</ele>
        <time>2017-07-30T10:28:26Z</time>
      </trkpt>
      <trkpt lat="42.59552" lon="-0.19225">
        <ele>1924.3</ele>
        <time>2017-07-30T10:28:28Z</time>
      </trkpt>
      <trkpt lat="42.59547" lon="-0.19224">
        <ele>1924.2</ele>
        <time>2017-07-30T10:28:30Z</time>
      </trkpt>
      <trkpt lat="42.59543" lon="-0.19224">
        <ele>1924.2</ele>
        <time>2017-07-30T10:28:32Z</time>
      </trkpt>
      <trkpt lat="42.59539" lon="-0.19222">
        <ele>1924.1</ele>
        <time>2017-07-30T10:28:34Z</time>
      </trkpt>
      <trkpt lat="42.59534" lon="-0.19221">
        <ele>1924</ele>
        <time>2017-07-30T10:28:36Z</time>
      </trkpt>
      <trkpt lat="42.5953" lon="-0.19219">
        <ele>1924</ele>
        <time>2017-07-30T10:28:38Z</time>
      </trkpt>
      <trkpt lat="42.59525" lon="-0.19217">
        <ele>1923.8</ele>
        <time>2017-07-30T10:28:40Z</time>
      </trkpt>
      <trkpt lat="42.59522" lon="-0.19216">
        <ele>1923.8</ele>
        <time>2017-07-30T10:28:41Z</time>
      </trkpt>
      <trkpt lat="42.59519" lon="-0.19215">
        <ele>1923.7</ele>
        <time>2017-07-30T10:28:42Z</time>
      </trkpt>
      <trkpt lat="42.59517" lon="-0.19214">
        <ele>1923.6</ele>
        <time>2017-07-30T10:28:43Z</time>
      </trkpt>
      <trkpt lat="42.59514" lon="-0.19214">
        <ele>1923.5</ele>
        <time>2017-07-30T10:28:44Z</time>
      </trkpt>
      <trkpt lat="42.59511" lon="-0.19213">
        <ele>1923.4</ele>
        <time>2017-07-30T10:28:45Z</time>
      </trkpt>
      <trkpt lat="42.59508" lon="-0.19213">
        <ele>1923.4</ele>
        <time>2017-07-30T10:28:46Z</time>
      </trkpt>
      <trkpt lat="42.59505" lon="-0.19213">
        <ele>1923.3</ele>
        <time>2017-07-30T10:28:47Z</time>
      </trkpt>
      <trkpt lat="42.59502" lon="-0.19212">
        <ele>1923.3</ele>
        <time>2017-07-30T10:28:48Z</time>
      </trkpt>
      <trkpt lat="42.59498" lon="-0.19211">
        <ele>1923.2</ele>
        <time>2017-07-30T10:28:49Z</time>
      </trkpt>
      <trkpt lat="42.59495" lon="-0.19211">
        <ele>1923.2</ele>
        <time>2017-07-30T10:28:50Z</time>
      </trkpt>
      <trkpt lat="42.59492" lon="-0.1921">
        <ele>1923.1</ele>
        <time>2017-07-30T10:28:51Z</time>
      </trkpt>
      <trkpt lat="42.59489" lon="-0.1921">
        <ele>1923.1</ele>
        <time>2017-07-30T10:28:52Z</time>
      </trkpt>
      <trkpt lat="42.59486" lon="-0.19209">
        <ele>1923</ele>
        <time>2017-07-30T10:28:53Z</time>
      </trkpt>
      <trkpt lat="42.59483" lon="-0.19209">
        <ele>1923</ele>
        <time>2017-07-30T10:28:54Z</time>
      </trkpt>
      <trkpt lat="42.5948" lon="-0.19208">
        <ele>1922.9</ele>
        <time>2017-07-30T10:28:55Z</time>
      </trkpt>
      <trkpt lat="42.59475" lon="-0.19207">
        <ele>1922.8</ele>
        <time>2017-07-30T10:28:57Z</time>
      </trkpt>
      <trkpt lat="42.59472" lon="-0.19207">
        <ele>1922.8</ele>
        <time>2017-07-30T10:28:58Z</time>
      </trkpt>
      <trkpt lat="42.5947" lon="-0.19207">
        <ele>1922.8</ele>
        <time>2017-07-30T10:28:59Z</time>
      </trkpt>
      <trkpt lat="42.59467" lon="-0.19207">
        <ele>1922.7</ele>
        <time>2017-07-30T10:29:00Z</time>
      </trkpt>
      <trkpt lat="42.59461" lon="-0.19206">
        <ele>1922.6</ele>
        <time>2017-07-30T10:29:02Z</time>
      </trkpt>
      <trkpt lat="42.59459" lon="-0.19206">
        <ele>1922.6</ele>
        <time>2017-07-30T10:29:03Z</time>
      </trkpt>
      <trkpt lat="42.59456" lon="-0.19206">
        <ele>1922.6</ele>
        <time>2017-07-30T10:29:04Z</time>
      </trkpt>
      <trkpt lat="42.59453" lon="-0.19205">
        <ele>1922.5</ele>
        <time>2017-07-30T10:29:05Z</time>
      </trkpt>
      <trkpt lat="42.5945" lon="-0.19205">
        <ele>1922.5</ele>
        <time>2017-07-30T10:29:06Z</time>
      </trkpt>
      <trkpt lat="42.59447" lon="-0.19205">
        <ele>1922.4</ele>
        <time>2017-07-30T10:29:07Z</time>
      </trkpt>
      <trkpt lat="42.59443" lon="-0.19205">
        <ele>1922.4</ele>
        <time>2017-07-30T10:29:08Z</time>
      </trkpt>
      <trkpt lat="42.5944" lon="-0.19205">
        <ele>1922.3</ele>
        <time>2017-07-30T10:29:09Z</time>
      </trkpt>
      <trkpt lat="42.59437" lon="-0.19206">
        <ele>1922.3</ele>
        <time>2017-07-30T10:29:10Z</time>
      </trkpt>
      <trkpt lat="42.59434" lon="-0.19206">
        <ele>1922.2</ele>
        <time>2017-07-30T10:29:11Z</time>
      </trkpt>
      <trkpt lat="42.59431" lon="-0.19206">
        <ele>1922.1</ele>
        <time>2017-07-30T10:29:12Z</time>
      </trkpt>
      <trkpt lat="42.59428" lon="-0.19206">
        <ele>1922.1</ele>
        <time>2017-07-30T10:29:13Z</time>
      </trkpt>
      <trkpt lat="42.59425" lon="-0.19207">
        <ele>1922</ele>
        <time>2017-07-30T10:29:14Z</time>
      </trkpt>
      <trkpt lat="42.59422" lon="-0.19207">
        <ele>1921.9</ele>
        <time>2017-07-30T10:29:15Z</time>
      </trkpt>
      <trkpt lat="42.59419" lon="-0.19207">
        <ele>1921.9</ele>
        <time>2017-07-30T10:29:16Z</time>
      </trkpt>
      <trkpt lat="42.59416" lon="-0.19207">
        <ele>1921.9</ele>
        <time>2017-07-30T10:29:17Z</time>
      </trkpt>
      <trkpt lat="42.59413" lon="-0.19207">
        <ele>1921.8</ele>
        <time>2017-07-30T10:29:18Z</time>
      </trkpt>
      <trkpt lat="42.5941" lon="-0.19207">
        <ele>1921.8</ele>
        <time>2017-07-30T10:29:19Z</time>
      </trkpt>
      <trkpt lat="42.59407" lon="-0.19207">
        <ele>1921.8</ele>
        <time>2017-07-30T10:29:20Z</time>
      </trkpt>
      <trkpt lat="42.59404" lon="-0.19207">
        <ele>1921.8</ele>
        <time>2017-07-30T10:29:21Z</time>
      </trkpt>
      <trkpt lat="42.59401" lon="-0.19208">
        <ele>1921.8</ele>
        <time>2017-07-30T10:29:22Z</time>
      </trkpt>
      <trkpt lat="42.59398" lon="-0.19208">
        <ele>1921.8</ele>
        <time>2017-07-30T10:29:23Z</time>
      </trkpt>
      <trkpt lat="42.59395" lon="-0.19208">
        <ele>1921.8</ele>
        <time>2017-07-30T10:29:24Z</time>
      </trkpt>
      <trkpt lat="42.59393" lon="-0.19209">
        <ele>1921.9</ele>
        <time>2017-07-30T10:29:25Z</time>
      </trkpt>
      <trkpt lat="42.5939" lon="-0.19209">
        <ele>1922</ele>
        <time>2017-07-30T10:29:26Z</time>
      </trkpt>
      <trkpt lat="42.59387" lon="-0.1921">
        <ele>1922.2</ele>
        <time>2017-07-30T10:29:27Z</time>
      </trkpt>
      <trkpt lat="42.59382" lon="-0.19211">
        <ele>1922.3</ele>
        <time>2017-07-30T10:29:29Z</time>
      </trkpt>
      <trkpt lat="42.59379" lon="-0.19211">
        <ele>1922.3</ele>
        <time>2017-07-30T10:29:30Z</time>
      </trkpt>
      <trkpt lat="42.59376" lon="-0.19212">
        <ele>1922.2</ele>
        <time>2017-07-30T10:29:31Z</time>
      </trkpt>
      <trkpt lat="42.59371" lon="-0.19212">
        <ele>1922.2</ele>
        <time>2017-07-30T10:29:33Z</time>
      </trkpt>
      <trkpt lat="42.59366" lon="-0.19213">
        <ele>1922.1</ele>
        <time>2017-07-30T10:29:35Z</time>
      </trkpt>
      <trkpt lat="42.59362" lon="-0.19214">
        <ele>1922.1</ele>
        <time>2017-07-30T10:29:37Z</time>
      </trkpt>
      <trkpt lat="42.59357" lon="-0.19215">
        <ele>1922.1</ele>
        <time>2017-07-30T10:29:39Z</time>
      </trkpt>
      <trkpt lat="42.59352" lon="-0.19215">
        <ele>1922.1</ele>
        <time>2017-07-30T10:29:41Z</time>
      </trkpt>
      <trkpt lat="42.59348" lon="-0.19216">
        <ele>1922.2</ele>
        <time>2017-07-30T10:29:43Z</time>
      </trkpt>
      <trkpt lat="42.59344" lon="-0.19217">
        <ele>1922.4</ele>
        <time>2017-07-30T10:29:45Z</time>
      </trkpt>
      <trkpt lat="42.5934" lon="-0.19218">
        <ele>1922.5</ele>
        <time>2017-07-30T10:29:47Z</time>
      </trkpt>
      <trkpt lat="42.59335" lon="-0.1922">
        <ele>1922.6</ele>
        <time>2017-07-30T10:29:49Z</time>
      </trkpt>
      <trkpt lat="42.59331" lon="-0.19221">
        <ele>1922.5</ele>
        <time>2017-07-30T10:29:51Z</time>
      </trkpt>
      <trkpt lat="42.59327" lon="-0.19223">
        <ele>1922.5</ele>
        <time>2017-07-30T10:29:53Z</time>
      </trkpt>
      <trkpt lat="42.59323" lon="-0.19225">
        <ele>1922.5</ele>
        <time>2017-07-30T10:29:55Z</time>
      </trkpt>
      <trkpt lat="42.59318" lon="-0.19227">
        <ele>1922.4</ele>
        <time>2017-07-30T10:29:57Z</time>
      </trkpt>
      <trkpt lat="42.59314" lon="-0.19229">
        <ele>1922.3</ele>
        <time>2017-07-30T10:29:59Z</time>
      </trkpt>
      <trkpt lat="42.5931" lon="-0.19232">
        <ele>1922.1</ele>
        <time>2017-07-30T10:30:01Z</time>
      </trkpt>
      <trkpt lat="42.59305" lon="-0.19234">
        <ele>1922</ele>
        <time>2017-07-30T10:30:03Z</time>
      </trkpt>
      <trkpt lat="42.59301" lon="-0.19237">
        <ele>1921.8</ele>
        <time>2017-07-30T10:30:05Z</time>
      </trkpt>
      <trkpt lat="42.59297" lon="-0.19239">
        <ele>1921.7</ele>
        <time>2017-07-30T10:30:07Z</time>
      </trkpt>
      <trkpt lat="42.59292" lon="-0.19241">
        <ele>1921.6</ele>
        <time>2017-07-30T10:30:09Z</time>
      </trkpt>
      <trkpt lat="42.59288" lon="-0.19244">
        <ele>1921.5</ele>
        <time>2017-07-30T10:30:11Z</time>
      </trkpt>
      <trkpt lat="42.59283" lon="-0.19246">
        <ele>1921.5</ele>
        <time>2017-07-30T10:30:13Z</time>
      </trkpt>
      <trkpt lat="42.59279" lon="-0.19249">
        <ele>1921.5</ele>
        <time>2017-07-30T10:30:15Z</time>
      </trkpt>
      <trkpt lat="42.59274" lon="-0.19251">
        <ele>1921.5</ele>
        <time>2017-07-30T10:30:17Z</time>
      </trkpt>
      <trkpt lat="42.59269" lon="-0.19254">
        <ele>1921.6</ele>
        <time>2017-07-30T10:30:19Z</time>
      </trkpt>
      <trkpt lat="42.59265" lon="-0.19256">
        <ele>1921.6</ele>
        <time>2017-07-30T10:30:21Z</time>
      </trkpt>
      <trkpt lat="42.59261" lon="-0.19257">
        <ele>1921.9</ele>
        <time>2017-07-30T10:30:23Z</time>
      </trkpt>
      <trkpt lat="42.59256" lon="-0.19259">
        <ele>1922.2</ele>
        <time>2017-07-30T10:30:25Z</time>
      </trkpt>
      <trkpt lat="42.59253" lon="-0.19259">
        <ele>1922.3</ele>
        <time>2017-07-30T10:30:27Z</time>
      </trkpt>
      <trkpt lat="42.59249" lon="-0.1926">
        <ele>1922.3</ele>
        <time>2017-07-30T10:30:29Z</time>
      </trkpt>
      <trkpt lat="42.59245" lon="-0.19261">
        <ele>1922.3</ele>
        <time>2017-07-30T10:30:31Z</time>
      </trkpt>
      <trkpt lat="42.59241" lon="-0.19261">
        <ele>1922.3</ele>
        <time>2017-07-30T10:30:33Z</time>
      </trkpt>
      <trkpt lat="42.59237" lon="-0.19262">
        <ele>1922.3</ele>
        <time>2017-07-30T10:30:35Z</time>
      </trkpt>
      <trkpt lat="42.59233" lon="-0.19263">
        <ele>1922.3</ele>
        <time>2017-07-30T10:30:37Z</time>
      </trkpt>
      <trkpt lat="42.59229" lon="-0.19265">
        <ele>1922.3</ele>
        <time>2017-07-30T10:30:39Z</time>
      </trkpt>
      <trkpt lat="42.59225" lon="-0.19267">
        <ele>1922.2</ele>
        <time>2017-07-30T10:30:41Z</time>
      </trkpt>
      <trkpt lat="42.59221" lon="-0.1927">
        <ele>1922.2</ele>
        <time>2017-07-30T10:30:43Z</time>
      </trkpt>
      <trkpt lat="42.59216" lon="-0.19272">
        <ele>1922.2</ele>
        <time>2017-07-30T10:30:45Z</time>
      </trkpt>
      <trkpt lat="42.59212" lon="-0.19273">
        <ele>1922.2</ele>
        <time>2017-07-30T10:30:47Z</time>
      </trkpt>
      <trkpt lat="42.59207" lon="-0.19273">
        <ele>1922.2</ele>
        <time>2017-07-30T10:30:49Z</time>
      </trkpt>
      <trkpt lat="42.59202" lon="-0.19274">
        <ele>1922.2</ele>
        <time>2017-07-30T10:30:51Z</time>
      </trkpt>
      <trkpt lat="42.59198" lon="-0.19274">
        <ele>1922.3</ele>
        <time>2017-07-30T10:30:53Z</time>
      </trkpt>
      <trkpt lat="42.59194" lon="-0.19275">
        <ele>1922.3</ele>
        <time>2017-07-30T10:30:55Z</time>
      </trkpt>
      <trkpt lat="42.59189" lon="-0.19274">
        <ele>1922.5</ele>
        <time>2017-07-30T10:30:57Z</time>
      </trkpt>
      <trkpt lat="42.59184" lon="-0.19274">
        <ele>1922.8</ele>
        <time>2017-07-30T10:30:59Z</time>
      </trkpt>
      <trkpt lat="42.59179" lon="-0.19272">
        <ele>1923.2</ele>
        <time>2017-07-30T10:31:01Z</time>
      </trkpt>
      <trkpt lat="42.59175" lon="-0.1927">
        <ele>1923.4</ele>
        <time>2017-07-30T10:31:03Z</time>
      </trkpt>
      <trkpt lat="42.59171" lon="-0.19267">
        <ele>1923.7</ele>
        <time>2017-07-30T10:31:05Z</time>
      </trkpt>
      <trkpt lat="42.59166" lon="-0.19264">
        <ele>1924</ele>
        <time>2017-07-30T10:31:07Z</time>
      </trkpt>
      <trkpt lat="42.59164" lon="-0.19262">
        <ele>1924</ele>
        <time>2017-07-30T10:31:08Z</time>
      </trkpt>
      <trkpt lat="42.59161" lon="-0.1926">
        <ele>1924</ele>
        <time>2017-07-30T10:31:09Z</time>
      </trkpt>
      <trkpt lat="42.59157" lon="-0.19258">
        <ele>1924</ele>
        <time>2017-07-30T10:31:10Z</time>
      </trkpt>
      <trkpt lat="42.59154" lon="-0.19256">
        <ele>1924</ele>
        <time>2017-07-30T10:31:11Z</time>
      </trkpt>
      <trkpt lat="42.59151" lon="-0.19254">
        <ele>1924</ele>
        <time>2017-07-30T10:31:12Z</time>
      </trkpt>
      <trkpt lat="42.59148" lon="-0.19252">
        <ele>1924</ele>
        <time>2017-07-30T10:31:13Z</time>
      </trkpt>
      <trkpt lat="42.59146" lon="-0.19249">
        <ele>1923.9</ele>
        <time>2017-07-30T10:31:14Z</time>
      </trkpt>
      <trkpt lat="42.59143" lon="-0.19246">
        <ele>1923.9</ele>
        <time>2017-07-30T10:31:15Z</time>
      </trkpt>
      <trkpt lat="42.59139" lon="-0.19243">
        <ele>1923.8</ele>
        <time>2017-07-30T10:31:16Z</time>
      </trkpt>
      <trkpt lat="42.59136" lon="-0.19239">
        <ele>1923.7</ele>
        <time>2017-07-30T10:31:17Z</time>
      </trkpt>
      <trkpt lat="42.59132" lon="-0.19236">
        <ele>1923.6</ele>
        <time>2017-07-30T10:31:18Z</time>
      </trkpt>
      <trkpt lat="42.59128" lon="-0.19234">
        <ele>1923.5</ele>
        <time>2017-07-30T10:31:19Z</time>
      </trkpt>
      <trkpt lat="42.59124" lon="-0.19233">
        <ele>1923.4</ele>
        <time>2017-07-30T10:31:20Z</time>
      </trkpt>
      <trkpt lat="42.59119" lon="-0.19231">
        <ele>1923</ele>
        <time>2017-07-30T10:31:21Z</time>
      </trkpt>
      <trkpt lat="42.59113" lon="-0.19229">
        <ele>1922.2</ele>
        <time>2017-07-30T10:31:22Z</time>
      </trkpt>
      <trkpt lat="42.59108" lon="-0.19227">
        <ele>1921.5</ele>
        <time>2017-07-30T10:31:23Z</time>
      </trkpt>
      <trkpt lat="42.59103" lon="-0.19224">
        <ele>1921.1</ele>
        <time>2017-07-30T10:31:24Z</time>
      </trkpt>
      <trkpt lat="42.59097" lon="-0.19221">
        <ele>1920.8</ele>
        <time>2017-07-30T10:31:25Z</time>
      </trkpt>
      <trkpt lat="42.59091" lon="-0.19217">
        <ele>1920.6</ele>
        <time>2017-07-30T10:31:26Z</time>
      </trkpt>
      <trkpt lat="42.59086" lon="-0.19214">
        <ele>1920.3</ele>
        <time>2017-07-30T10:31:27Z</time>
      </trkpt>
      <trkpt lat="42.5908" lon="-0.19211">
        <ele>1919.8</ele>
        <time>2017-07-30T10:31:28Z</time>
      </trkpt>
      <trkpt lat="42.59073" lon="-0.19206">
        <ele>1919</ele>
        <time>2017-07-30T10:31:29Z</time>
      </trkpt>
      <trkpt lat="42.59066" lon="-0.19202">
        <ele>1918.2</ele>
        <time>2017-07-30T10:31:30Z</time>
      </trkpt>
      <trkpt lat="42.59059" lon="-0.19198">
        <ele>1917.5</ele>
        <time>2017-07-30T10:31:31Z</time>
      </trkpt>
      <trkpt lat="42.59052" lon="-0.19195">
        <ele>1916.8</ele>
        <time>2017-07-30T10:31:32Z</time>
      </trkpt>
      <trkpt lat="42.59044" lon="-0.19192">
        <ele>1916.1</ele>
        <time>2017-07-30T10:31:33Z</time>
      </trkpt>
      <trkpt lat="42.59038" lon="-0.19189">
        <ele>1915.2</ele>
        <time>2017-07-30T10:31:34Z</time>
      </trkpt>
      <trkpt lat="42.59032" lon="-0.19185">
        <ele>1914.4</ele>
        <time>2017-07-30T10:31:35Z</time>
      </trkpt>
      <trkpt lat="42.59026" lon="-0.1918">
        <ele>1913.6</ele>
        <time>2017-07-30T10:31:36Z</time>
      </trkpt>
      <trkpt lat="42.59021" lon="-0.19174">
        <ele>1911.9</ele>
        <time>2017-07-30T10:31:37Z</time>
      </trkpt>
      <trkpt lat="42.59015" lon="-0.19168">
        <ele>1909.3</ele>
        <time>2017-07-30T10:31:38Z</time>
      </trkpt>
      <trkpt lat="42.59008" lon="-0.19163">
        <ele>1906</ele>
        <time>2017-07-30T10:31:39Z</time>
      </trkpt>
      <trkpt lat="42.58999" lon="-0.19157">
        <ele>1903.1</ele>
        <time>2017-07-30T10:31:40Z</time>
      </trkpt>
      <trkpt lat="42.5899" lon="-0.19151">
        <ele>1902.3</ele>
        <time>2017-07-30T10:31:41Z</time>
      </trkpt>
      <trkpt lat="42.58981" lon="-0.19147">
        <ele>1902.3</ele>
        <time>2017-07-30T10:31:42Z</time>
      </trkpt>
      <trkpt lat="42.58972" lon="-0.19143">
        <ele>1902.5</ele>
        <time>2017-07-30T10:31:43Z</time>
      </trkpt>
      <trkpt lat="42.58966" lon="-0.19141">
        <ele>1902.9</ele>
        <time>2017-07-30T10:31:44Z</time>
      </trkpt>
      <trkpt lat="42.5896" lon="-0.1914">
        <ele>1903.2</ele>
        <time>2017-07-30T10:31:45Z</time>
      </trkpt>
      <trkpt lat="42.58957" lon="-0.19138">
        <ele>1903.4</ele>
        <time>2017-07-30T10:31:46Z</time>
      </trkpt>
      <trkpt lat="42.58954" lon="-0.19137">
        <ele>1903.7</ele>
        <time>2017-07-30T10:31:47Z</time>
      </trkpt>
      <trkpt lat="42.5895" lon="-0.19135">
        <ele>1909.8</ele>
        <time>2017-07-30T10:36:32Z</time>
      </trkpt>
      <trkpt lat="42.58946" lon="-0.19132">
        <ele>1915.6</ele>
        <time>2017-07-30T10:36:34Z</time>
      </trkpt>
      <trkpt lat="42.58943" lon="-0.1913">
        <ele>1915.9</ele>
        <time>2017-07-30T10:36:36Z</time>
      </trkpt>
      <trkpt lat="42.58939" lon="-0.19128">
        <ele>1916.1</ele>
        <time>2017-07-30T10:36:38Z</time>
      </trkpt>
      <trkpt lat="42.58936" lon="-0.19128">
        <ele>1916.1</ele>
        <time>2017-07-30T10:36:40Z</time>
      </trkpt>
      <trkpt lat="42.58933" lon="-0.19126">
        <ele>1915.9</ele>
        <time>2017-07-30T10:36:43Z</time>
      </trkpt>
      <trkpt lat="42.5893" lon="-0.19123">
        <ele>1915.7</ele>
        <time>2017-07-30T10:36:45Z</time>
      </trkpt>
      <trkpt lat="42.58929" lon="-0.1912">
        <ele>1915.3</ele>
        <time>2017-07-30T10:36:50Z</time>
      </trkpt>
      <trkpt lat="42.58928" lon="-0.19117">
        <ele>1914.7</ele>
        <time>2017-07-30T10:36:55Z</time>
      </trkpt>
      <trkpt lat="42.5893" lon="-0.19114">
        <ele>1914.1</ele>
        <time>2017-07-30T10:37:03Z</time>
      </trkpt>
      <trkpt lat="42.58932" lon="-0.19112">
        <ele>1913.4</ele>
        <time>2017-07-30T10:37:06Z</time>
      </trkpt>
      <trkpt lat="42.58935" lon="-0.1911">
        <ele>1912.7</ele>
        <time>2017-07-30T10:37:08Z</time>
      </trkpt>
      <trkpt lat="42.58939" lon="-0.19108">
        <ele>1912.1</ele>
        <time>2017-07-30T10:37:10Z</time>
      </trkpt>
      <trkpt lat="42.58945" lon="-0.19107">
        <ele>1910.7</ele>
        <time>2017-07-30T10:37:12Z</time>
      </trkpt>
      <trkpt lat="42.58948" lon="-0.19107">
        <ele>1909.5</ele>
        <time>2017-07-30T10:37:13Z</time>
      </trkpt>
      <trkpt lat="42.5895" lon="-0.19106">
        <ele>1908.4</ele>
        <time>2017-07-30T10:37:14Z</time>
      </trkpt>
      <trkpt lat="42.58955" lon="-0.19106">
        <ele>1906.8</ele>
        <time>2017-07-30T10:37:16Z</time>
      </trkpt>
      <trkpt lat="42.58958" lon="-0.19106">
        <ele>1905.3</ele>
        <time>2017-07-30T10:37:18Z</time>
      </trkpt>
      <trkpt lat="42.58964" lon="-0.19105">
        <ele>1902.6</ele>
        <time>2017-07-30T10:37:20Z</time>
      </trkpt>
      <trkpt lat="42.58966" lon="-0.19104">
        <ele>1901.5</ele>
        <time>2017-07-30T10:37:21Z</time>
      </trkpt>
      <trkpt lat="42.58969" lon="-0.19104">
        <ele>1900.7</ele>
        <time>2017-07-30T10:37:22Z</time>
      </trkpt>
      <trkpt lat="42.58974" lon="-0.19102">
        <ele>1899.2</ele>
        <time>2017-07-30T10:37:24Z</time>
      </trkpt>
      <trkpt lat="42.58979" lon="-0.19101">
        <ele>1897.3</ele>
        <time>2017-07-30T10:37:26Z</time>
      </trkpt>
      <trkpt lat="42.58984" lon="-0.19099">
        <ele>1896.6</ele>
        <time>2017-07-30T10:37:28Z</time>
      </trkpt>
      <trkpt lat="42.58989" lon="-0.19097">
        <ele>1896.5</ele>
        <time>2017-07-30T10:37:30Z</time>
      </trkpt>
      <trkpt lat="42.58993" lon="-0.19096">
        <ele>1896</ele>
        <time>2017-07-30T10:37:32Z</time>
      </trkpt>
      <trkpt lat="42.58998" lon="-0.19094">
        <ele>1895.5</ele>
        <time>2017-07-30T10:37:34Z</time>
      </trkpt>
      <trkpt lat="42.59001" lon="-0.19093">
        <ele>1895.5</ele>
        <time>2017-07-30T10:37:35Z</time>
      </trkpt>
      <trkpt lat="42.59003" lon="-0.19091">
        <ele>1895.4</ele>
        <time>2017-07-30T10:37:36Z</time>
      </trkpt>
      <trkpt lat="42.59008" lon="-0.19089">
        <ele>1895.2</ele>
        <time>2017-07-30T10:37:38Z</time>
      </trkpt>
      <trkpt lat="42.59013" lon="-0.19087">
        <ele>1894.9</ele>
        <time>2017-07-30T10:37:40Z</time>
      </trkpt>
      <trkpt lat="42.59016" lon="-0.19086">
        <ele>1894.8</ele>
        <time>2017-07-30T10:37:41Z</time>
      </trkpt>
      <trkpt lat="42.59018" lon="-0.19085">
        <ele>1894.8</ele>
        <time>2017-07-30T10:37:42Z</time>
      </trkpt>
      <trkpt lat="42.59021" lon="-0.19083">
        <ele>1894.7</ele>
        <time>2017-07-30T10:37:43Z</time>
      </trkpt>
      <trkpt lat="42.59024" lon="-0.19082">
        <ele>1894.7</ele>
        <time>2017-07-30T10:37:44Z</time>
      </trkpt>
      <trkpt lat="42.59027" lon="-0.1908">
        <ele>1894.8</ele>
        <time>2017-07-30T10:37:45Z</time>
      </trkpt>
      <trkpt lat="42.5903" lon="-0.19079">
        <ele>1894.9</ele>
        <time>2017-07-30T10:37:46Z</time>
      </trkpt>
      <trkpt lat="42.59033" lon="-0.19077">
        <ele>1894.4</ele>
        <time>2017-07-30T10:37:47Z</time>
      </trkpt>
      <trkpt lat="42.59036" lon="-0.19076">
        <ele>1893.9</ele>
        <time>2017-07-30T10:37:48Z</time>
      </trkpt>
      <trkpt lat="42.59039" lon="-0.19074">
        <ele>1893.2</ele>
        <time>2017-07-30T10:37:49Z</time>
      </trkpt>
      <trkpt lat="42.59042" lon="-0.19073">
        <ele>1892.2</ele>
        <time>2017-07-30T10:37:50Z</time>
      </trkpt>
      <trkpt lat="42.59045" lon="-0.19072">
        <ele>1891.4</ele>
        <time>2017-07-30T10:37:51Z</time>
      </trkpt>
      <trkpt lat="42.59049" lon="-0.1907">
        <ele>1890.4</ele>
        <time>2017-07-30T10:37:53Z</time>
      </trkpt>
      <trkpt lat="42.59052" lon="-0.19069">
        <ele>1889.5</ele>
        <time>2017-07-30T10:37:55Z</time>
      </trkpt>
      <trkpt lat="42.59056" lon="-0.19066">
        <ele>1888.4</ele>
        <time>2017-07-30T10:37:57Z</time>
      </trkpt>
      <trkpt lat="42.5906" lon="-0.19062">
        <ele>1887.2</ele>
        <time>2017-07-30T10:37:59Z</time>
      </trkpt>
      <trkpt lat="42.59063" lon="-0.19058">
        <ele>1885.7</ele>
        <time>2017-07-30T10:38:01Z</time>
      </trkpt>
      <trkpt lat="42.59067" lon="-0.19055">
        <ele>1884.2</ele>
        <time>2017-07-30T10:38:03Z</time>
      </trkpt>
      <trkpt lat="42.59071" lon="-0.19052">
        <ele>1883</ele>
        <time>2017-07-30T10:38:05Z</time>
      </trkpt>
      <trkpt lat="42.59076" lon="-0.1905">
        <ele>1881.8</ele>
        <time>2017-07-30T10:38:07Z</time>
      </trkpt>
      <trkpt lat="42.59079" lon="-0.19047">
        <ele>1880.7</ele>
        <time>2017-07-30T10:38:09Z</time>
      </trkpt>
      <trkpt lat="42.59082" lon="-0.19044">
        <ele>1879.7</ele>
        <time>2017-07-30T10:38:11Z</time>
      </trkpt>
      <trkpt lat="42.59086" lon="-0.19042">
        <ele>1878.8</ele>
        <time>2017-07-30T10:38:13Z</time>
      </trkpt>
      <trkpt lat="42.59089" lon="-0.19039">
        <ele>1877.9</ele>
        <time>2017-07-30T10:38:15Z</time>
      </trkpt>
      <trkpt lat="42.59092" lon="-0.19035">
        <ele>1876.2</ele>
        <time>2017-07-30T10:38:17Z</time>
      </trkpt>
      <trkpt lat="42.59096" lon="-0.19032">
        <ele>1875</ele>
        <time>2017-07-30T10:38:19Z</time>
      </trkpt>
      <trkpt lat="42.59101" lon="-0.19029">
        <ele>1875.7</ele>
        <time>2017-07-30T10:38:21Z</time>
      </trkpt>
      <trkpt lat="42.59104" lon="-0.19028">
        <ele>1876</ele>
        <time>2017-07-30T10:38:22Z</time>
      </trkpt>
      <trkpt lat="42.59106" lon="-0.19027">
        <ele>1876.1</ele>
        <time>2017-07-30T10:38:23Z</time>
      </trkpt>
      <trkpt lat="42.59111" lon="-0.19026">
        <ele>1876.2</ele>
        <time>2017-07-30T10:38:25Z</time>
      </trkpt>
      <trkpt lat="42.59114" lon="-0.19025">
        <ele>1876.1</ele>
        <time>2017-07-30T10:38:27Z</time>
      </trkpt>
      <trkpt lat="42.59117" lon="-0.19023">
        <ele>1876</ele>
        <time>2017-07-30T10:38:30Z</time>
      </trkpt>
      <trkpt lat="42.5912" lon="-0.19021">
        <ele>1875.6</ele>
        <time>2017-07-30T10:38:32Z</time>
      </trkpt>
      <trkpt lat="42.59123" lon="-0.19017">
        <ele>1874</ele>
        <time>2017-07-30T10:38:34Z</time>
      </trkpt>
      <trkpt lat="42.59125" lon="-0.19013">
        <ele>1872.6</ele>
        <time>2017-07-30T10:38:36Z</time>
      </trkpt>
      <trkpt lat="42.59128" lon="-0.19009">
        <ele>1870.7</ele>
        <time>2017-07-30T10:38:38Z</time>
      </trkpt>
      <trkpt lat="42.59131" lon="-0.19005">
        <ele>1869</ele>
        <time>2017-07-30T10:38:40Z</time>
      </trkpt>
      <trkpt lat="42.59133" lon="-0.18999">
        <ele>1867.2</ele>
        <time>2017-07-30T10:38:42Z</time>
      </trkpt>
      <trkpt lat="42.59135" lon="-0.18993">
        <ele>1865.3</ele>
        <time>2017-07-30T10:38:44Z</time>
      </trkpt>
      <trkpt lat="42.59137" lon="-0.18988">
        <ele>1863.7</ele>
        <time>2017-07-30T10:38:46Z</time>
      </trkpt>
      <trkpt lat="42.59139" lon="-0.18985">
        <ele>1862.5</ele>
        <time>2017-07-30T10:38:48Z</time>
      </trkpt>
      <trkpt lat="42.5914" lon="-0.18979">
        <ele>1860.9</ele>
        <time>2017-07-30T10:38:50Z</time>
      </trkpt>
      <trkpt lat="42.59142" lon="-0.18974">
        <ele>1859.5</ele>
        <time>2017-07-30T10:38:52Z</time>
      </trkpt>
      <trkpt lat="42.59144" lon="-0.18971">
        <ele>1858.5</ele>
        <time>2017-07-30T10:38:54Z</time>
      </trkpt>
      <trkpt lat="42.59146" lon="-0.18967">
        <ele>1857.5</ele>
        <time>2017-07-30T10:38:56Z</time>
      </trkpt>
      <trkpt lat="42.59148" lon="-0.18965">
        <ele>1856.9</ele>
        <time>2017-07-30T10:39:03Z</time>
      </trkpt>
      <trkpt lat="42.5915" lon="-0.18962">
        <ele>1856.3</ele>
        <time>2017-07-30T10:39:11Z</time>
      </trkpt>
      <trkpt lat="42.59153" lon="-0.18962">
        <ele>1855.7</ele>
        <time>2017-07-30T10:39:21Z</time>
      </trkpt>
      <trkpt lat="42.59155" lon="-0.18958">
        <ele>1855</ele>
        <time>2017-07-30T10:39:25Z</time>
      </trkpt>
      <trkpt lat="42.59158" lon="-0.18954">
        <ele>1854.2</ele>
        <time>2017-07-30T10:39:27Z</time>
      </trkpt>
      <trkpt lat="42.59161" lon="-0.18951">
        <ele>1854.1</ele>
        <time>2017-07-30T10:39:29Z</time>
      </trkpt>
      <trkpt lat="42.59164" lon="-0.18949">
        <ele>1854.2</ele>
        <time>2017-07-30T10:39:31Z</time>
      </trkpt>
      <trkpt lat="42.59167" lon="-0.18948">
        <ele>1854.2</ele>
        <time>2017-07-30T10:39:33Z</time>
      </trkpt>
      <trkpt lat="42.59169" lon="-0.18946">
        <ele>1853.8</ele>
        <time>2017-07-30T10:39:35Z</time>
      </trkpt>
      <trkpt lat="42.59171" lon="-0.18942">
        <ele>1853.4</ele>
        <time>2017-07-30T10:39:37Z</time>
      </trkpt>
      <trkpt lat="42.59173" lon="-0.18938">
        <ele>1852.8</ele>
        <time>2017-07-30T10:39:39Z</time>
      </trkpt>
      <trkpt lat="42.59176" lon="-0.18935">
        <ele>1851.9</ele>
        <time>2017-07-30T10:39:41Z</time>
      </trkpt>
      <trkpt lat="42.59179" lon="-0.18932">
        <ele>1851.3</ele>
        <time>2017-07-30T10:39:43Z</time>
      </trkpt>
      <trkpt lat="42.59183" lon="-0.1893">
        <ele>1852.1</ele>
        <time>2017-07-30T10:39:45Z</time>
      </trkpt>
      <trkpt lat="42.59186" lon="-0.18929">
        <ele>1852.9</ele>
        <time>2017-07-30T10:39:47Z</time>
      </trkpt>
      <trkpt lat="42.5919" lon="-0.18927">
        <ele>1852.5</ele>
        <time>2017-07-30T10:39:49Z</time>
      </trkpt>
      <trkpt lat="42.59195" lon="-0.18925">
        <ele>1851.5</ele>
        <time>2017-07-30T10:39:51Z</time>
      </trkpt>
      <trkpt lat="42.59198" lon="-0.18925">
        <ele>1850.6</ele>
        <time>2017-07-30T10:39:53Z</time>
      </trkpt>
      <trkpt lat="42.59201" lon="-0.18924">
        <ele>1849.4</ele>
        <time>2017-07-30T10:40:12Z</time>
      </trkpt>
      <trkpt lat="42.59205" lon="-0.1892">
        <ele>1847.2</ele>
        <time>2017-07-30T10:40:14Z</time>
      </trkpt>
      <trkpt lat="42.59209" lon="-0.18918">
        <ele>1845.3</ele>
        <time>2017-07-30T10:40:16Z</time>
      </trkpt>
      <trkpt lat="42.59212" lon="-0.18917">
        <ele>1843.8</ele>
        <time>2017-07-30T10:40:18Z</time>
      </trkpt>
      <trkpt lat="42.59213" lon="-0.18913">
        <ele>1842.2</ele>
        <time>2017-07-30T10:40:31Z</time>
      </trkpt>
      <trkpt lat="42.59215" lon="-0.1891">
        <ele>1840.5</ele>
        <time>2017-07-30T10:40:42Z</time>
      </trkpt>
      <trkpt lat="42.59216" lon="-0.18906">
        <ele>1838.9</ele>
        <time>2017-07-30T10:40:47Z</time>
      </trkpt>
      <trkpt lat="42.59217" lon="-0.18902">
        <ele>1836.2</ele>
        <time>2017-07-30T10:40:51Z</time>
      </trkpt>
      <trkpt lat="42.59219" lon="-0.18898">
        <ele>1833.9</ele>
        <time>2017-07-30T10:40:54Z</time>
      </trkpt>
      <trkpt lat="42.5922" lon="-0.18894">
        <ele>1831.6</ele>
        <time>2017-07-30T10:40:56Z</time>
      </trkpt>
      <trkpt lat="42.59222" lon="-0.18891">
        <ele>1830.7</ele>
        <time>2017-07-30T10:40:58Z</time>
      </trkpt>
      <trkpt lat="42.59224" lon="-0.18887">
        <ele>1829.7</ele>
        <time>2017-07-30T10:41:02Z</time>
      </trkpt>
      <trkpt lat="42.59224" lon="-0.18882">
        <ele>1828.6</ele>
        <time>2017-07-30T10:41:06Z</time>
      </trkpt>
      <trkpt lat="42.59223" lon="-0.18877">
        <ele>1827.5</ele>
        <time>2017-07-30T10:41:08Z</time>
      </trkpt>
      <trkpt lat="42.59224" lon="-0.18872">
        <ele>1826.5</ele>
        <time>2017-07-30T10:41:10Z</time>
      </trkpt>
      <trkpt lat="42.59226" lon="-0.18868">
        <ele>1825.4</ele>
        <time>2017-07-30T10:41:14Z</time>
      </trkpt>
      <trkpt lat="42.59228" lon="-0.18866">
        <ele>1824.5</ele>
        <time>2017-07-30T10:41:19Z</time>
      </trkpt>
      <trkpt lat="42.59229" lon="-0.18862">
        <ele>1823.4</ele>
        <time>2017-07-30T10:41:21Z</time>
      </trkpt>
      <trkpt lat="42.59231" lon="-0.18856">
        <ele>1821.9</ele>
        <time>2017-07-30T10:41:23Z</time>
      </trkpt>
      <trkpt lat="42.59232" lon="-0.18851">
        <ele>1820.9</ele>
        <time>2017-07-30T10:41:25Z</time>
      </trkpt>
      <trkpt lat="42.59234" lon="-0.18848">
        <ele>1820.1</ele>
        <time>2017-07-30T10:41:31Z</time>
      </trkpt>
      <trkpt lat="42.59237" lon="-0.18842">
        <ele>1817.4</ele>
        <time>2017-07-30T10:41:33Z</time>
      </trkpt>
      <trkpt lat="42.59239" lon="-0.18839">
        <ele>1815.6</ele>
        <time>2017-07-30T10:41:34Z</time>
      </trkpt>
      <trkpt lat="42.5924" lon="-0.18834">
        <ele>1813.5</ele>
        <time>2017-07-30T10:41:36Z</time>
      </trkpt>
      <trkpt lat="42.5924" lon="-0.1883">
        <ele>1811.9</ele>
        <time>2017-07-30T10:41:39Z</time>
      </trkpt>
      <trkpt lat="42.59237" lon="-0.18827">
        <ele>1809.5</ele>
        <time>2017-07-30T10:41:41Z</time>
      </trkpt>
      <trkpt lat="42.59235" lon="-0.18822">
        <ele>1806.9</ele>
        <time>2017-07-30T10:41:43Z</time>
      </trkpt>
      <trkpt lat="42.59237" lon="-0.18818">
        <ele>1803.7</ele>
        <time>2017-07-30T10:41:50Z</time>
      </trkpt>
      <trkpt lat="42.59238" lon="-0.18815">
        <ele>1801</ele>
        <time>2017-07-30T10:41:52Z</time>
      </trkpt>
      <trkpt lat="42.59241" lon="-0.18811">
        <ele>1801.6</ele>
        <time>2017-07-30T10:41:54Z</time>
      </trkpt>
      <trkpt lat="42.59243" lon="-0.18807">
        <ele>1802.7</ele>
        <time>2017-07-30T10:41:56Z</time>
      </trkpt>
      <trkpt lat="42.59246" lon="-0.18802">
        <ele>1804.7</ele>
        <time>2017-07-30T10:41:58Z</time>
      </trkpt>
      <trkpt lat="42.59248" lon="-0.18797">
        <ele>1806.4</ele>
        <time>2017-07-30T10:42:00Z</time>
      </trkpt>
      <trkpt lat="42.59249" lon="-0.18793">
        <ele>1806.7</ele>
        <time>2017-07-30T10:42:02Z</time>
      </trkpt>
      <trkpt lat="42.59251" lon="-0.18789">
        <ele>1806.9</ele>
        <time>2017-07-30T10:42:04Z</time>
      </trkpt>
      <trkpt lat="42.59253" lon="-0.18786">
        <ele>1808.2</ele>
        <time>2017-07-30T10:42:12Z</time>
      </trkpt>
      <trkpt lat="42.59255" lon="-0.18782">
        <ele>1810.2</ele>
        <time>2017-07-30T10:42:14Z</time>
      </trkpt>
      <trkpt lat="42.59258" lon="-0.18777">
        <ele>1812.4</ele>
        <time>2017-07-30T10:42:16Z</time>
      </trkpt>
      <trkpt lat="42.59261" lon="-0.18774">
        <ele>1813.7</ele>
        <time>2017-07-30T10:42:17Z</time>
      </trkpt>
      <trkpt lat="42.59264" lon="-0.18771">
        <ele>1815.4</ele>
        <time>2017-07-30T10:42:18Z</time>
      </trkpt>
      <trkpt lat="42.59266" lon="-0.18768">
        <ele>1816.9</ele>
        <time>2017-07-30T10:42:19Z</time>
      </trkpt>
      <trkpt lat="42.59269" lon="-0.18763">
        <ele>1816.1</ele>
        <time>2017-07-30T10:42:21Z</time>
      </trkpt>
      <trkpt lat="42.5927" lon="-0.18759">
        <ele>1815.1</ele>
        <time>2017-07-30T10:42:26Z</time>
      </trkpt>
      <trkpt lat="42.59271" lon="-0.18755">
        <ele>1814.7</ele>
        <time>2017-07-30T10:42:30Z</time>
      </trkpt>
      <trkpt lat="42.59273" lon="-0.18753">
        <ele>1814.4</ele>
        <time>2017-07-30T10:42:35Z</time>
      </trkpt>
      <trkpt lat="42.59274" lon="-0.18749">
        <ele>1814.2</ele>
        <time>2017-07-30T10:42:38Z</time>
      </trkpt>
      <trkpt lat="42.59275" lon="-0.18743">
        <ele>1813.4</ele>
        <time>2017-07-30T10:42:40Z</time>
      </trkpt>
      <trkpt lat="42.59276" lon="-0.18736">
        <ele>1812.3</ele>
        <time>2017-07-30T10:42:42Z</time>
      </trkpt>
      <trkpt lat="42.59276" lon="-0.1873">
        <ele>1811</ele>
        <time>2017-07-30T10:42:44Z</time>
      </trkpt>
      <trkpt lat="42.59274" lon="-0.18725">
        <ele>1810</ele>
        <time>2017-07-30T10:42:46Z</time>
      </trkpt>
      <trkpt lat="42.59273" lon="-0.18721">
        <ele>1809.3</ele>
        <time>2017-07-30T10:42:48Z</time>
      </trkpt>
      <trkpt lat="42.59272" lon="-0.18718">
        <ele>1808.6</ele>
        <time>2017-07-30T10:42:50Z</time>
      </trkpt>
      <trkpt lat="42.59271" lon="-0.18714">
        <ele>1807.9</ele>
        <time>2017-07-30T10:42:53Z</time>
      </trkpt>
      <trkpt lat="42.59271" lon="-0.18709">
        <ele>1807.4</ele>
        <time>2017-07-30T10:42:55Z</time>
      </trkpt>
      <trkpt lat="42.59272" lon="-0.18703">
        <ele>1806.4</ele>
        <time>2017-07-30T10:42:57Z</time>
      </trkpt>
      <trkpt lat="42.59272" lon="-0.187">
        <ele>1805.6</ele>
        <time>2017-07-30T10:43:03Z</time>
      </trkpt>
      <trkpt lat="42.59273" lon="-0.18696">
        <ele>1805.5</ele>
        <time>2017-07-30T10:43:08Z</time>
      </trkpt>
      <trkpt lat="42.59275" lon="-0.18693">
        <ele>1805.6</ele>
        <time>2017-07-30T10:43:22Z</time>
      </trkpt>
      <trkpt lat="42.59276" lon="-0.18688">
        <ele>1805.8</ele>
        <time>2017-07-30T10:43:26Z</time>
      </trkpt>
      <trkpt lat="42.59277" lon="-0.18685">
        <ele>1805.9</ele>
        <time>2017-07-30T10:43:29Z</time>
      </trkpt>
      <trkpt lat="42.59279" lon="-0.18681">
        <ele>1806</ele>
        <time>2017-07-30T10:43:31Z</time>
      </trkpt>
      <trkpt lat="42.59281" lon="-0.18677">
        <ele>1806</ele>
        <time>2017-07-30T10:43:33Z</time>
      </trkpt>
      <trkpt lat="42.59283" lon="-0.18672">
        <ele>1805.9</ele>
        <time>2017-07-30T10:43:36Z</time>
      </trkpt>
      <trkpt lat="42.59283" lon="-0.18668">
        <ele>1805.8</ele>
        <time>2017-07-30T10:43:40Z</time>
      </trkpt>
      <trkpt lat="42.59285" lon="-0.18664">
        <ele>1805.7</ele>
        <time>2017-07-30T10:43:42Z</time>
      </trkpt>
      <trkpt lat="42.59287" lon="-0.18659">
        <ele>1805.7</ele>
        <time>2017-07-30T10:43:44Z</time>
      </trkpt>
      <trkpt lat="42.5929" lon="-0.18654">
        <ele>1804.7</ele>
        <time>2017-07-30T10:43:46Z</time>
      </trkpt>
      <trkpt lat="42.59292" lon="-0.1865">
        <ele>1803.8</ele>
        <time>2017-07-30T10:43:48Z</time>
      </trkpt>
      <trkpt lat="42.59293" lon="-0.18646">
        <ele>1804.2</ele>
        <time>2017-07-30T10:43:51Z</time>
      </trkpt>
      <trkpt lat="42.59296" lon="-0.18647">
        <ele>1804.7</ele>
        <time>2017-07-30T10:44:01Z</time>
      </trkpt>
      <trkpt lat="42.59299" lon="-0.18643">
        <ele>1805.1</ele>
        <time>2017-07-30T10:44:07Z</time>
      </trkpt>
      <trkpt lat="42.59301" lon="-0.1864">
        <ele>1804.9</ele>
        <time>2017-07-30T10:44:11Z</time>
      </trkpt>
      <trkpt lat="42.59302" lon="-0.18637">
        <ele>1804.6</ele>
        <time>2017-07-30T10:44:14Z</time>
      </trkpt>
      <trkpt lat="42.59305" lon="-0.18638">
        <ele>1804.4</ele>
        <time>2017-07-30T10:44:26Z</time>
      </trkpt>
      <trkpt lat="42.59308" lon="-0.18636">
        <ele>1804.6</ele>
        <time>2017-07-30T10:44:34Z</time>
      </trkpt>
      <trkpt lat="42.59314" lon="-0.18627">
        <ele>1802.6</ele>
        <time>2017-07-30T10:45:06Z</time>
      </trkpt>
      <trkpt lat="42.59317" lon="-0.18622">
        <ele>1801.8</ele>
        <time>2017-07-30T10:45:08Z</time>
      </trkpt>
      <trkpt lat="42.59321" lon="-0.18618">
        <ele>1804.3</ele>
        <time>2017-07-30T10:45:10Z</time>
      </trkpt>
      <trkpt lat="42.59326" lon="-0.18615">
        <ele>1806.2</ele>
        <time>2017-07-30T10:45:12Z</time>
      </trkpt>
      <trkpt lat="42.59328" lon="-0.18614">
        <ele>1806.8</ele>
        <time>2017-07-30T10:45:13Z</time>
      </trkpt>
      <trkpt lat="42.59331" lon="-0.18613">
        <ele>1807.3</ele>
        <time>2017-07-30T10:45:14Z</time>
      </trkpt>
      <trkpt lat="42.59336" lon="-0.18611">
        <ele>1807.5</ele>
        <time>2017-07-30T10:45:16Z</time>
      </trkpt>
      <trkpt lat="42.5934" lon="-0.18609">
        <ele>1807.2</ele>
        <time>2017-07-30T10:45:18Z</time>
      </trkpt>
      <trkpt lat="42.59345" lon="-0.18608">
        <ele>1807.6</ele>
        <time>2017-07-30T10:45:20Z</time>
      </trkpt>
      <trkpt lat="42.59347" lon="-0.18608">
        <ele>1808.1</ele>
        <time>2017-07-30T10:45:22Z</time>
      </trkpt>
      <trkpt lat="42.5935" lon="-0.1861">
        <ele>1808.8</ele>
        <time>2017-07-30T10:45:25Z</time>
      </trkpt>
      <trkpt lat="42.59352" lon="-0.18612">
        <ele>1810</ele>
        <time>2017-07-30T10:45:39Z</time>
      </trkpt>
      <trkpt lat="42.59355" lon="-0.18611">
        <ele>1811.2</ele>
        <time>2017-07-30T10:45:51Z</time>
      </trkpt>
      <trkpt lat="42.59358" lon="-0.18609">
        <ele>1810.8</ele>
        <time>2017-07-30T10:46:04Z</time>
      </trkpt>
      <trkpt lat="42.59361" lon="-0.18608">
        <ele>1810.2</ele>
        <time>2017-07-30T10:46:11Z</time>
      </trkpt>
      <trkpt lat="42.59363" lon="-0.18604">
        <ele>1808.8</ele>
        <time>2017-07-30T10:46:15Z</time>
      </trkpt>
      <trkpt lat="42.59365" lon="-0.18602">
        <ele>1807</ele>
        <time>2017-07-30T10:46:20Z</time>
      </trkpt>
      <trkpt lat="42.59366" lon="-0.18598">
        <ele>1805.2</ele>
        <time>2017-07-30T10:46:26Z</time>
      </trkpt>
      <trkpt lat="42.59367" lon="-0.18593">
        <ele>1801.7</ele>
        <time>2017-07-30T10:46:30Z</time>
      </trkpt>
      <trkpt lat="42.59368" lon="-0.1859">
        <ele>1799</ele>
        <time>2017-07-30T10:46:34Z</time>
      </trkpt>
      <trkpt lat="42.5937" lon="-0.18587">
        <ele>1796.3</ele>
        <time>2017-07-30T10:46:43Z</time>
      </trkpt>
      <trkpt lat="42.5937" lon="-0.18583">
        <ele>1795.2</ele>
        <time>2017-07-30T10:46:48Z</time>
      </trkpt>
      <trkpt lat="42.59372" lon="-0.1858">
        <ele>1793.9</ele>
        <time>2017-07-30T10:46:52Z</time>
      </trkpt>
      <trkpt lat="42.59373" lon="-0.18575">
        <ele>1792.6</ele>
        <time>2017-07-30T10:46:56Z</time>
      </trkpt>
      <trkpt lat="42.59373" lon="-0.1857">
        <ele>1791.3</ele>
        <time>2017-07-30T10:46:58Z</time>
      </trkpt>
      <trkpt lat="42.59374" lon="-0.18565">
        <ele>1789.9</ele>
        <time>2017-07-30T10:47:00Z</time>
      </trkpt>
      <trkpt lat="42.59376" lon="-0.18561">
        <ele>1788.3</ele>
        <time>2017-07-30T10:47:02Z</time>
      </trkpt>
      <trkpt lat="42.59378" lon="-0.18556">
        <ele>1786.5</ele>
        <time>2017-07-30T10:47:04Z</time>
      </trkpt>
      <trkpt lat="42.59378" lon="-0.18552">
        <ele>1785.5</ele>
        <time>2017-07-30T10:47:10Z</time>
      </trkpt>
      <trkpt lat="42.59377" lon="-0.18546">
        <ele>1784</ele>
        <time>2017-07-30T10:47:12Z</time>
      </trkpt>
      <trkpt lat="42.59377" lon="-0.18542">
        <ele>1782.5</ele>
        <time>2017-07-30T10:47:14Z</time>
      </trkpt>
      <trkpt lat="42.59376" lon="-0.18537">
        <ele>1781.5</ele>
        <time>2017-07-30T10:47:16Z</time>
      </trkpt>
      <trkpt lat="42.59375" lon="-0.18532">
        <ele>1780.5</ele>
        <time>2017-07-30T10:47:18Z</time>
      </trkpt>
      <trkpt lat="42.59375" lon="-0.18526">
        <ele>1779.6</ele>
        <time>2017-07-30T10:47:20Z</time>
      </trkpt>
      <trkpt lat="42.59375" lon="-0.1852">
        <ele>1777.7</ele>
        <time>2017-07-30T10:47:22Z</time>
      </trkpt>
      <trkpt lat="42.59374" lon="-0.18514">
        <ele>1776.1</ele>
        <time>2017-07-30T10:47:24Z</time>
      </trkpt>
      <trkpt lat="42.59374" lon="-0.18509">
        <ele>1776.5</ele>
        <time>2017-07-30T10:47:26Z</time>
      </trkpt>
      <trkpt lat="42.59374" lon="-0.18501">
        <ele>1776.2</ele>
        <time>2017-07-30T10:47:28Z</time>
      </trkpt>
      <trkpt lat="42.59376" lon="-0.18496">
        <ele>1775.5</ele>
        <time>2017-07-30T10:47:29Z</time>
      </trkpt>
      <trkpt lat="42.59376" lon="-0.18491">
        <ele>1774.9</ele>
        <time>2017-07-30T10:47:30Z</time>
      </trkpt>
      <trkpt lat="42.59377" lon="-0.18487">
        <ele>1774.4</ele>
        <time>2017-07-30T10:47:31Z</time>
      </trkpt>
      <trkpt lat="42.59378" lon="-0.18482">
        <ele>1774.7</ele>
        <time>2017-07-30T10:47:33Z</time>
      </trkpt>
      <trkpt lat="42.59379" lon="-0.18479">
        <ele>1775.1</ele>
        <time>2017-07-30T10:47:35Z</time>
      </trkpt>
      <trkpt lat="42.59379" lon="-0.18475">
        <ele>1774.7</ele>
        <time>2017-07-30T10:47:37Z</time>
      </trkpt>
      <trkpt lat="42.59379" lon="-0.18468">
        <ele>1773</ele>
        <time>2017-07-30T10:47:39Z</time>
      </trkpt>
      <trkpt lat="42.5938" lon="-0.18463">
        <ele>1774</ele>
        <time>2017-07-30T10:47:40Z</time>
      </trkpt>
      <trkpt lat="42.59382" lon="-0.18459">
        <ele>1775.1</ele>
        <time>2017-07-30T10:47:41Z</time>
      </trkpt>
      <trkpt lat="42.59383" lon="-0.18454">
        <ele>1776.1</ele>
        <time>2017-07-30T10:47:42Z</time>
      </trkpt>
      <trkpt lat="42.59385" lon="-0.18449">
        <ele>1775.9</ele>
        <time>2017-07-30T10:47:43Z</time>
      </trkpt>
      <trkpt lat="42.59387" lon="-0.18444">
        <ele>1776.4</ele>
        <time>2017-07-30T10:47:44Z</time>
      </trkpt>
      <trkpt lat="42.59389" lon="-0.1844">
        <ele>1776.9</ele>
        <time>2017-07-30T10:47:45Z</time>
      </trkpt>
      <trkpt lat="42.5939" lon="-0.18437">
        <ele>1777.4</ele>
        <time>2017-07-30T10:47:46Z</time>
      </trkpt>
      <trkpt lat="42.59393" lon="-0.18434">
        <ele>1778.3</ele>
        <time>2017-07-30T10:47:48Z</time>
      </trkpt>
      <trkpt lat="42.59393" lon="-0.1843">
        <ele>1779</ele>
        <time>2017-07-30T10:47:50Z</time>
      </trkpt>
      <trkpt lat="42.59392" lon="-0.18425">
        <ele>1777.9</ele>
        <time>2017-07-30T10:47:52Z</time>
      </trkpt>
      <trkpt lat="42.5939" lon="-0.1842">
        <ele>1776.4</ele>
        <time>2017-07-30T10:47:54Z</time>
      </trkpt>
      <trkpt lat="42.5939" lon="-0.18416">
        <ele>1775.5</ele>
        <time>2017-07-30T10:48:03Z</time>
      </trkpt>
      <trkpt lat="42.59392" lon="-0.18413">
        <ele>1774.6</ele>
        <time>2017-07-30T10:48:08Z</time>
      </trkpt>
      <trkpt lat="42.59394" lon="-0.1841">
        <ele>1773.9</ele>
        <time>2017-07-30T10:48:13Z</time>
      </trkpt>
      <trkpt lat="42.59394" lon="-0.18406">
        <ele>1774.2</ele>
        <time>2017-07-30T10:48:18Z</time>
      </trkpt>
      <trkpt lat="42.59393" lon="-0.184">
        <ele>1773.6</ele>
        <time>2017-07-30T10:48:21Z</time>
      </trkpt>
      <trkpt lat="42.59394" lon="-0.18395">
        <ele>1772.5</ele>
        <time>2017-07-30T10:48:23Z</time>
      </trkpt>
      <trkpt lat="42.59395" lon="-0.18389">
        <ele>1771.4</ele>
        <time>2017-07-30T10:48:25Z</time>
      </trkpt>
      <trkpt lat="42.59395" lon="-0.18383">
        <ele>1770.4</ele>
        <time>2017-07-30T10:48:27Z</time>
      </trkpt>
      <trkpt lat="42.59397" lon="-0.18377">
        <ele>1769.8</ele>
        <time>2017-07-30T10:48:29Z</time>
      </trkpt>
      <trkpt lat="42.59399" lon="-0.18372">
        <ele>1769.6</ele>
        <time>2017-07-30T10:48:31Z</time>
      </trkpt>
      <trkpt lat="42.59401" lon="-0.18369">
        <ele>1769.6</ele>
        <time>2017-07-30T10:48:37Z</time>
      </trkpt>
      <trkpt lat="42.59401" lon="-0.18364">
        <ele>1769.6</ele>
        <time>2017-07-30T10:48:42Z</time>
      </trkpt>
      <trkpt lat="42.59401" lon="-0.18359">
        <ele>1768.9</ele>
        <time>2017-07-30T10:48:44Z</time>
      </trkpt>
      <trkpt lat="42.59402" lon="-0.18353">
        <ele>1768.5</ele>
        <time>2017-07-30T10:48:46Z</time>
      </trkpt>
      <trkpt lat="42.59404" lon="-0.18348">
        <ele>1768.9</ele>
        <time>2017-07-30T10:48:48Z</time>
      </trkpt>
      <trkpt lat="42.59407" lon="-0.18344">
        <ele>1769.6</ele>
        <time>2017-07-30T10:48:51Z</time>
      </trkpt>
      <trkpt lat="42.59408" lon="-0.1834">
        <ele>1770</ele>
        <time>2017-07-30T10:48:53Z</time>
      </trkpt>
      <trkpt lat="42.59408" lon="-0.18333">
        <ele>1770.1</ele>
        <time>2017-07-30T10:48:55Z</time>
      </trkpt>
      <trkpt lat="42.59407" lon="-0.18329">
        <ele>1768.9</ele>
        <time>2017-07-30T10:48:56Z</time>
      </trkpt>
      <trkpt lat="42.59407" lon="-0.18324">
        <ele>1767.4</ele>
        <time>2017-07-30T10:48:57Z</time>
      </trkpt>
      <trkpt lat="42.59406" lon="-0.18318">
        <ele>1766.1</ele>
        <time>2017-07-30T10:48:58Z</time>
      </trkpt>
      <trkpt lat="42.59407" lon="-0.18313">
        <ele>1764.8</ele>
        <time>2017-07-30T10:48:59Z</time>
      </trkpt>
      <trkpt lat="42.59407" lon="-0.18308">
        <ele>1763.8</ele>
        <time>2017-07-30T10:49:00Z</time>
      </trkpt>
      <trkpt lat="42.59407" lon="-0.18305">
        <ele>1763</ele>
        <time>2017-07-30T10:49:01Z</time>
      </trkpt>
      <trkpt lat="42.59408" lon="-0.183">
        <ele>1762.2</ele>
        <time>2017-07-30T10:49:03Z</time>
      </trkpt>
      <trkpt lat="42.5941" lon="-0.18297">
        <ele>1761.8</ele>
        <time>2017-07-30T10:49:06Z</time>
      </trkpt>
      <trkpt lat="42.59409" lon="-0.18293">
        <ele>1761.4</ele>
        <time>2017-07-30T10:49:18Z</time>
      </trkpt>
      <trkpt lat="42.59409" lon="-0.18289">
        <ele>1759.8</ele>
        <time>2017-07-30T10:49:27Z</time>
      </trkpt>
      <trkpt lat="42.59411" lon="-0.18285">
        <ele>1758.2</ele>
        <time>2017-07-30T10:49:31Z</time>
      </trkpt>
      <trkpt lat="42.59413" lon="-0.18283">
        <ele>1757.4</ele>
        <time>2017-07-30T10:49:34Z</time>
      </trkpt>
      <trkpt lat="42.59415" lon="-0.1828">
        <ele>1756.5</ele>
        <time>2017-07-30T10:49:41Z</time>
      </trkpt>
      <trkpt lat="42.59415" lon="-0.18275">
        <ele>1756.2</ele>
        <time>2017-07-30T10:49:45Z</time>
      </trkpt>
      <trkpt lat="42.59417" lon="-0.18273">
        <ele>1756.1</ele>
        <time>2017-07-30T10:49:51Z</time>
      </trkpt>
      <trkpt lat="42.5942" lon="-0.18271">
        <ele>1756</ele>
        <time>2017-07-30T10:49:56Z</time>
      </trkpt>
      <trkpt lat="42.59422" lon="-0.18273">
        <ele>1755.9</ele>
        <time>2017-07-30T10:50:06Z</time>
      </trkpt>
      <trkpt lat="42.59422" lon="-0.18269">
        <ele>1755.9</ele>
        <time>2017-07-30T10:50:31Z</time>
      </trkpt>
      <trkpt lat="42.59426" lon="-0.18268">
        <ele>1756.7</ele>
        <time>2017-07-30T10:50:36Z</time>
      </trkpt>
      <trkpt lat="42.59429" lon="-0.18266">
        <ele>1757.5</ele>
        <time>2017-07-30T10:50:38Z</time>
      </trkpt>
      <trkpt lat="42.59434" lon="-0.18263">
        <ele>1757.3</ele>
        <time>2017-07-30T10:50:40Z</time>
      </trkpt>
      <trkpt lat="42.59439" lon="-0.18262">
        <ele>1756.8</ele>
        <time>2017-07-30T10:50:42Z</time>
      </trkpt>
      <trkpt lat="42.59444" lon="-0.1826">
        <ele>1755.7</ele>
        <time>2017-07-30T10:50:44Z</time>
      </trkpt>
      <trkpt lat="42.59447" lon="-0.18259">
        <ele>1755.7</ele>
        <time>2017-07-30T10:50:45Z</time>
      </trkpt>
      <trkpt lat="42.5945" lon="-0.18258">
        <ele>1755.8</ele>
        <time>2017-07-30T10:50:46Z</time>
      </trkpt>
      <trkpt lat="42.59453" lon="-0.18257">
        <ele>1755.9</ele>
        <time>2017-07-30T10:50:47Z</time>
      </trkpt>
      <trkpt lat="42.59457" lon="-0.18256">
        <ele>1756</ele>
        <time>2017-07-30T10:50:48Z</time>
      </trkpt>
      <trkpt lat="42.5946" lon="-0.18255">
        <ele>1755.8</ele>
        <time>2017-07-30T10:50:49Z</time>
      </trkpt>
      <trkpt lat="42.59463" lon="-0.18254">
        <ele>1754.9</ele>
        <time>2017-07-30T10:50:50Z</time>
      </trkpt>
      <trkpt lat="42.59466" lon="-0.18254">
        <ele>1754.1</ele>
        <time>2017-07-30T10:50:51Z</time>
      </trkpt>
      <trkpt lat="42.59471" lon="-0.18254">
        <ele>1753.7</ele>
        <time>2017-07-30T10:50:53Z</time>
      </trkpt>
      <trkpt lat="42.59475" lon="-0.18255">
        <ele>1753.4</ele>
        <time>2017-07-30T10:50:55Z</time>
      </trkpt>
      <trkpt lat="42.59478" lon="-0.18255">
        <ele>1752.9</ele>
        <time>2017-07-30T10:50:57Z</time>
      </trkpt>
      <trkpt lat="42.59481" lon="-0.18256">
        <ele>1752.5</ele>
        <time>2017-07-30T10:50:58Z</time>
      </trkpt>
      <trkpt lat="42.59485" lon="-0.18256">
        <ele>1751.7</ele>
        <time>2017-07-30T10:50:59Z</time>
      </trkpt>
      <trkpt lat="42.59488" lon="-0.18257">
        <ele>1751.2</ele>
        <time>2017-07-30T10:51:00Z</time>
      </trkpt>
      <trkpt lat="42.59492" lon="-0.18258">
        <ele>1750.8</ele>
        <time>2017-07-30T10:51:01Z</time>
      </trkpt>
      <trkpt lat="42.59495" lon="-0.18258">
        <ele>1750.4</ele>
        <time>2017-07-30T10:51:02Z</time>
      </trkpt>
      <trkpt lat="42.59499" lon="-0.18259">
        <ele>1749.7</ele>
        <time>2017-07-30T10:51:03Z</time>
      </trkpt>
      <trkpt lat="42.59503" lon="-0.1826">
        <ele>1748.8</ele>
        <time>2017-07-30T10:51:04Z</time>
      </trkpt>
      <trkpt lat="42.59507" lon="-0.18261">
        <ele>1748.9</ele>
        <time>2017-07-30T10:51:05Z</time>
      </trkpt>
      <trkpt lat="42.59512" lon="-0.18262">
        <ele>1749.3</ele>
        <time>2017-07-30T10:51:06Z</time>
      </trkpt>
      <trkpt lat="42.59517" lon="-0.18263">
        <ele>1749.8</ele>
        <time>2017-07-30T10:51:07Z</time>
      </trkpt>
      <trkpt lat="42.59521" lon="-0.18264">
        <ele>1750.1</ele>
        <time>2017-07-30T10:51:08Z</time>
      </trkpt>
      <trkpt lat="42.59525" lon="-0.18265">
        <ele>1750</ele>
        <time>2017-07-30T10:51:09Z</time>
      </trkpt>
      <trkpt lat="42.59528" lon="-0.18265">
        <ele>1749.7</ele>
        <time>2017-07-30T10:51:10Z</time>
      </trkpt>
      <trkpt lat="42.59532" lon="-0.18266">
        <ele>1749.8</ele>
        <time>2017-07-30T10:51:11Z</time>
      </trkpt>
      <trkpt lat="42.59537" lon="-0.18267">
        <ele>1750.2</ele>
        <time>2017-07-30T10:51:12Z</time>
      </trkpt>
      <trkpt lat="42.59543" lon="-0.18268">
        <ele>1749.8</ele>
        <time>2017-07-30T10:51:13Z</time>
      </trkpt>
      <trkpt lat="42.59548" lon="-0.1827">
        <ele>1749.1</ele>
        <time>2017-07-30T10:51:14Z</time>
      </trkpt>
      <trkpt lat="42.59554" lon="-0.18271">
        <ele>1749.2</ele>
        <time>2017-07-30T10:51:15Z</time>
      </trkpt>
      <trkpt lat="42.5956" lon="-0.18272">
        <ele>1748.6</ele>
        <time>2017-07-30T10:51:16Z</time>
      </trkpt>
      <trkpt lat="42.59566" lon="-0.18274">
        <ele>1747.8</ele>
        <time>2017-07-30T10:51:17Z</time>
      </trkpt>
      <trkpt lat="42.59571" lon="-0.18275">
        <ele>1747.9</ele>
        <time>2017-07-30T10:51:18Z</time>
      </trkpt>
      <trkpt lat="42.59575" lon="-0.18276">
        <ele>1747.7</ele>
        <time>2017-07-30T10:51:19Z</time>
      </trkpt>
      <trkpt lat="42.59578" lon="-0.18277">
        <ele>1747</ele>
        <time>2017-07-30T10:51:20Z</time>
      </trkpt>
      <trkpt lat="42.59581" lon="-0.18278">
        <ele>1746.2</ele>
        <time>2017-07-30T10:51:21Z</time>
      </trkpt>
      <trkpt lat="42.59584" lon="-0.18278">
        <ele>1745.6</ele>
        <time>2017-07-30T10:51:22Z</time>
      </trkpt>
      <trkpt lat="42.59588" lon="-0.18278">
        <ele>1745.1</ele>
        <time>2017-07-30T10:51:23Z</time>
      </trkpt>
      <trkpt lat="42.59592" lon="-0.18279">
        <ele>1744.5</ele>
        <time>2017-07-30T10:51:25Z</time>
      </trkpt>
      <trkpt lat="42.59596" lon="-0.18281">
        <ele>1744.1</ele>
        <time>2017-07-30T10:51:27Z</time>
      </trkpt>
      <trkpt lat="42.59601" lon="-0.18282">
        <ele>1743.7</ele>
        <time>2017-07-30T10:51:29Z</time>
      </trkpt>
      <trkpt lat="42.59606" lon="-0.18282">
        <ele>1743.3</ele>
        <time>2017-07-30T10:51:31Z</time>
      </trkpt>
      <trkpt lat="42.5961" lon="-0.18283">
        <ele>1743.2</ele>
        <time>2017-07-30T10:51:33Z</time>
      </trkpt>
      <trkpt lat="42.59615" lon="-0.18284">
        <ele>1743.1</ele>
        <time>2017-07-30T10:51:35Z</time>
      </trkpt>
      <trkpt lat="42.5962" lon="-0.18285">
        <ele>1743.1</ele>
        <time>2017-07-30T10:51:37Z</time>
      </trkpt>
      <trkpt lat="42.59624" lon="-0.18284">
        <ele>1743.4</ele>
        <time>2017-07-30T10:51:39Z</time>
      </trkpt>
      <trkpt lat="42.59628" lon="-0.18283">
        <ele>1743.6</ele>
        <time>2017-07-30T10:51:41Z</time>
      </trkpt>
      <trkpt lat="42.59632" lon="-0.18281">
        <ele>1743.4</ele>
        <time>2017-07-30T10:51:43Z</time>
      </trkpt>
      <trkpt lat="42.59638" lon="-0.18279">
        <ele>1742.6</ele>
        <time>2017-07-30T10:51:45Z</time>
      </trkpt>
      <trkpt lat="42.59641" lon="-0.18279">
        <ele>1741.8</ele>
        <time>2017-07-30T10:51:46Z</time>
      </trkpt>
      <trkpt lat="42.59645" lon="-0.18279">
        <ele>1741.2</ele>
        <time>2017-07-30T10:51:47Z</time>
      </trkpt>
      <trkpt lat="42.59648" lon="-0.18279">
        <ele>1741</ele>
        <time>2017-07-30T10:51:48Z</time>
      </trkpt>
      <trkpt lat="42.59653" lon="-0.18279">
        <ele>1740.7</ele>
        <time>2017-07-30T10:51:50Z</time>
      </trkpt>
      <trkpt lat="42.59657" lon="-0.18277">
        <ele>1740.3</ele>
        <time>2017-07-30T10:51:52Z</time>
      </trkpt>
      <trkpt lat="42.59662" lon="-0.18274">
        <ele>1738.8</ele>
        <time>2017-07-30T10:51:54Z</time>
      </trkpt>
      <trkpt lat="42.59666" lon="-0.18274">
        <ele>1737.7</ele>
        <time>2017-07-30T10:51:55Z</time>
      </trkpt>
      <trkpt lat="42.59669" lon="-0.18273">
        <ele>1736.7</ele>
        <time>2017-07-30T10:51:56Z</time>
      </trkpt>
      <trkpt lat="42.59672" lon="-0.18273">
        <ele>1736</ele>
        <time>2017-07-30T10:51:57Z</time>
      </trkpt>
      <trkpt lat="42.59675" lon="-0.18273">
        <ele>1735.3</ele>
        <time>2017-07-30T10:51:58Z</time>
      </trkpt>
      <trkpt lat="42.5968" lon="-0.18273">
        <ele>1734</ele>
        <time>2017-07-30T10:52:00Z</time>
      </trkpt>
      <trkpt lat="42.59683" lon="-0.18273">
        <ele>1733.2</ele>
        <time>2017-07-30T10:52:01Z</time>
      </trkpt>
      <trkpt lat="42.59687" lon="-0.18272">
        <ele>1732.4</ele>
        <time>2017-07-30T10:52:02Z</time>
      </trkpt>
      <trkpt lat="42.5969" lon="-0.18272">
        <ele>1731.7</ele>
        <time>2017-07-30T10:52:03Z</time>
      </trkpt>
      <trkpt lat="42.59693" lon="-0.18272">
        <ele>1731</ele>
        <time>2017-07-30T10:52:04Z</time>
      </trkpt>
      <trkpt lat="42.59697" lon="-0.18271">
        <ele>1729.1</ele>
        <time>2017-07-30T10:52:06Z</time>
      </trkpt>
      <trkpt lat="42.59701" lon="-0.1827">
        <ele>1727</ele>
        <time>2017-07-30T10:52:08Z</time>
      </trkpt>
      <trkpt lat="42.59705" lon="-0.1827">
        <ele>1725.3</ele>
        <time>2017-07-30T10:52:10Z</time>
      </trkpt>
      <trkpt lat="42.5971" lon="-0.1827">
        <ele>1723.8</ele>
        <time>2017-07-30T10:52:12Z</time>
      </trkpt>
      <trkpt lat="42.59713" lon="-0.18271">
        <ele>1722.7</ele>
        <time>2017-07-30T10:52:14Z</time>
      </trkpt>
      <trkpt lat="42.59718" lon="-0.18271">
        <ele>1721.4</ele>
        <time>2017-07-30T10:52:16Z</time>
      </trkpt>
      <trkpt lat="42.59722" lon="-0.18269">
        <ele>1720.1</ele>
        <time>2017-07-30T10:52:18Z</time>
      </trkpt>
      <trkpt lat="42.59726" lon="-0.18267">
        <ele>1717.7</ele>
        <time>2017-07-30T10:52:20Z</time>
      </trkpt>
      <trkpt lat="42.5973" lon="-0.18264">
        <ele>1715.5</ele>
        <time>2017-07-30T10:52:22Z</time>
      </trkpt>
      <trkpt lat="42.59734" lon="-0.18261">
        <ele>1713.7</ele>
        <time>2017-07-30T10:52:24Z</time>
      </trkpt>
      <trkpt lat="42.59738" lon="-0.18259">
        <ele>1712.4</ele>
        <time>2017-07-30T10:52:26Z</time>
      </trkpt>
      <trkpt lat="42.59742" lon="-0.18258">
        <ele>1711.6</ele>
        <time>2017-07-30T10:52:28Z</time>
      </trkpt>
      <trkpt lat="42.59746" lon="-0.18257">
        <ele>1711.5</ele>
        <time>2017-07-30T10:52:29Z</time>
      </trkpt>
      <trkpt lat="42.5975" lon="-0.18256">
        <ele>1711.7</ele>
        <time>2017-07-30T10:52:30Z</time>
      </trkpt>
      <trkpt lat="42.59755" lon="-0.18254">
        <ele>1711.9</ele>
        <time>2017-07-30T10:52:31Z</time>
      </trkpt>
      <trkpt lat="42.59758" lon="-0.18253">
        <ele>1711.6</ele>
        <time>2017-07-30T10:52:32Z</time>
      </trkpt>
      <trkpt lat="42.59762" lon="-0.1825">
        <ele>1711.2</ele>
        <time>2017-07-30T10:52:34Z</time>
      </trkpt>
      <trkpt lat="42.59765" lon="-0.18245">
        <ele>1710.8</ele>
        <time>2017-07-30T10:52:36Z</time>
      </trkpt>
      <trkpt lat="42.59767" lon="-0.18241">
        <ele>1710.4</ele>
        <time>2017-07-30T10:52:37Z</time>
      </trkpt>
      <trkpt lat="42.5977" lon="-0.18237">
        <ele>1709.5</ele>
        <time>2017-07-30T10:52:38Z</time>
      </trkpt>
      <trkpt lat="42.59773" lon="-0.18234">
        <ele>1708.7</ele>
        <time>2017-07-30T10:52:39Z</time>
      </trkpt>
      <trkpt lat="42.59775" lon="-0.1823">
        <ele>1707.8</ele>
        <time>2017-07-30T10:52:40Z</time>
      </trkpt>
      <trkpt lat="42.59777" lon="-0.18227">
        <ele>1706.9</ele>
        <time>2017-07-30T10:52:41Z</time>
      </trkpt>
      <trkpt lat="42.59779" lon="-0.18224">
        <ele>1706.3</ele>
        <time>2017-07-30T10:52:42Z</time>
      </trkpt>
      <trkpt lat="42.59782" lon="-0.18222">
        <ele>1705.6</ele>
        <time>2017-07-30T10:52:43Z</time>
      </trkpt>
      <trkpt lat="42.59784" lon="-0.1822">
        <ele>1705</ele>
        <time>2017-07-30T10:52:44Z</time>
      </trkpt>
      <trkpt lat="42.59786" lon="-0.18218">
        <ele>1704.6</ele>
        <time>2017-07-30T10:52:45Z</time>
      </trkpt>
      <trkpt lat="42.5979" lon="-0.18215">
        <ele>1704.4</ele>
        <time>2017-07-30T10:52:47Z</time>
      </trkpt>
      <trkpt lat="42.59793" lon="-0.18212">
        <ele>1704.2</ele>
        <time>2017-07-30T10:52:49Z</time>
      </trkpt>
      <trkpt lat="42.59799" lon="-0.18209">
        <ele>1703.8</ele>
        <time>2017-07-30T10:52:51Z</time>
      </trkpt>
      <trkpt lat="42.59802" lon="-0.18207">
        <ele>1703.6</ele>
        <time>2017-07-30T10:52:52Z</time>
      </trkpt>
      <trkpt lat="42.59805" lon="-0.18205">
        <ele>1703.4</ele>
        <time>2017-07-30T10:52:53Z</time>
      </trkpt>
      <trkpt lat="42.59808" lon="-0.18203">
        <ele>1703.2</ele>
        <time>2017-07-30T10:52:54Z</time>
      </trkpt>
      <trkpt lat="42.59811" lon="-0.18201">
        <ele>1702.8</ele>
        <time>2017-07-30T10:52:55Z</time>
      </trkpt>
      <trkpt lat="42.59814" lon="-0.182">
        <ele>1702.4</ele>
        <time>2017-07-30T10:52:56Z</time>
      </trkpt>
      <trkpt lat="42.59817" lon="-0.18199">
        <ele>1702.2</ele>
        <time>2017-07-30T10:52:57Z</time>
      </trkpt>
      <trkpt lat="42.5982" lon="-0.18199">
        <ele>1702.1</ele>
        <time>2017-07-30T10:52:58Z</time>
      </trkpt>
      <trkpt lat="42.59823" lon="-0.18198">
        <ele>1701.9</ele>
        <time>2017-07-30T10:52:59Z</time>
      </trkpt>
      <trkpt lat="42.59826" lon="-0.18198">
        <ele>1701.8</ele>
        <time>2017-07-30T10:53:00Z</time>
      </trkpt>
      <trkpt lat="42.59829" lon="-0.18197">
        <ele>1701.6</ele>
        <time>2017-07-30T10:53:01Z</time>
      </trkpt>
      <trkpt lat="42.59831" lon="-0.18196">
        <ele>1701.5</ele>
        <time>2017-07-30T10:53:02Z</time>
      </trkpt>
      <trkpt lat="42.59835" lon="-0.18193">
        <ele>1701.3</ele>
        <time>2017-07-30T10:53:04Z</time>
      </trkpt>
      <trkpt lat="42.59839" lon="-0.1819">
        <ele>1701.2</ele>
        <time>2017-07-30T10:53:06Z</time>
      </trkpt>
      <trkpt lat="42.59843" lon="-0.18188">
        <ele>1700.9</ele>
        <time>2017-07-30T10:53:08Z</time>
      </trkpt>
      <trkpt lat="42.59848" lon="-0.18186">
        <ele>1700.5</ele>
        <time>2017-07-30T10:53:10Z</time>
      </trkpt>
      <trkpt lat="42.59851" lon="-0.18185">
        <ele>1700.1</ele>
        <time>2017-07-30T10:53:11Z</time>
      </trkpt>
      <trkpt lat="42.59854" lon="-0.18184">
        <ele>1699.8</ele>
        <time>2017-07-30T10:53:12Z</time>
      </trkpt>
      <trkpt lat="42.59857" lon="-0.18182">
        <ele>1699.5</ele>
        <time>2017-07-30T10:53:13Z</time>
      </trkpt>
      <trkpt lat="42.59859" lon="-0.1818">
        <ele>1699.1</ele>
        <time>2017-07-30T10:53:14Z</time>
      </trkpt>
      <trkpt lat="42.59862" lon="-0.18178">
        <ele>1698.6</ele>
        <time>2017-07-30T10:53:15Z</time>
      </trkpt>
      <trkpt lat="42.59864" lon="-0.18176">
        <ele>1698.2</ele>
        <time>2017-07-30T10:53:16Z</time>
      </trkpt>
      <trkpt lat="42.59867" lon="-0.18174">
        <ele>1697.6</ele>
        <time>2017-07-30T10:53:17Z</time>
      </trkpt>
      <trkpt lat="42.5987" lon="-0.18172">
        <ele>1697</ele>
        <time>2017-07-30T10:53:18Z</time>
      </trkpt>
      <trkpt lat="42.59873" lon="-0.1817">
        <ele>1696.5</ele>
        <time>2017-07-30T10:53:19Z</time>
      </trkpt>
      <trkpt lat="42.59875" lon="-0.18168">
        <ele>1696.1</ele>
        <time>2017-07-30T10:53:20Z</time>
      </trkpt>
      <trkpt lat="42.59878" lon="-0.18166">
        <ele>1695.6</ele>
        <time>2017-07-30T10:53:21Z</time>
      </trkpt>
      <trkpt lat="42.5988" lon="-0.18164">
        <ele>1694.9</ele>
        <time>2017-07-30T10:53:22Z</time>
      </trkpt>
      <trkpt lat="42.59883" lon="-0.18162">
        <ele>1693.8</ele>
        <time>2017-07-30T10:53:23Z</time>
      </trkpt>
      <trkpt lat="42.59885" lon="-0.1816">
        <ele>1693.6</ele>
        <time>2017-07-30T10:53:24Z</time>
      </trkpt>
      <trkpt lat="42.59887" lon="-0.18157">
        <ele>1693.1</ele>
        <time>2017-07-30T10:53:25Z</time>
      </trkpt>
      <trkpt lat="42.59889" lon="-0.18154">
        <ele>1693</ele>
        <time>2017-07-30T10:53:26Z</time>
      </trkpt>
      <trkpt lat="42.59891" lon="-0.18151">
        <ele>1692.2</ele>
        <time>2017-07-30T10:53:27Z</time>
      </trkpt>
      <trkpt lat="42.59893" lon="-0.18147">
        <ele>1691</ele>
        <time>2017-07-30T10:53:28Z</time>
      </trkpt>
      <trkpt lat="42.59894" lon="-0.18143">
        <ele>1690</ele>
        <time>2017-07-30T10:53:29Z</time>
      </trkpt>
      <trkpt lat="42.59897" lon="-0.18138">
        <ele>1688.7</ele>
        <time>2017-07-30T10:53:30Z</time>
      </trkpt>
      <trkpt lat="42.59899" lon="-0.18134">
        <ele>1687.7</ele>
        <time>2017-07-30T10:53:31Z</time>
      </trkpt>
      <trkpt lat="42.59902" lon="-0.1813">
        <ele>1686.5</ele>
        <time>2017-07-30T10:53:32Z</time>
      </trkpt>
      <trkpt lat="42.59904" lon="-0.18126">
        <ele>1685.4</ele>
        <time>2017-07-30T10:53:33Z</time>
      </trkpt>
      <trkpt lat="42.59907" lon="-0.18121">
        <ele>1684.5</ele>
        <time>2017-07-30T10:53:34Z</time>
      </trkpt>
      <trkpt lat="42.59909" lon="-0.18117">
        <ele>1683.1</ele>
        <time>2017-07-30T10:53:35Z</time>
      </trkpt>
      <trkpt lat="42.5991" lon="-0.18113">
        <ele>1682.5</ele>
        <time>2017-07-30T10:53:36Z</time>
      </trkpt>
      <trkpt lat="42.59913" lon="-0.18109">
        <ele>1682</ele>
        <time>2017-07-30T10:53:37Z</time>
      </trkpt>
      <trkpt lat="42.59916" lon="-0.18105">
        <ele>1681.2</ele>
        <time>2017-07-30T10:53:38Z</time>
      </trkpt>
      <trkpt lat="42.59919" lon="-0.181">
        <ele>1679.6</ele>
        <time>2017-07-30T10:53:39Z</time>
      </trkpt>
      <trkpt lat="42.59922" lon="-0.18096">
        <ele>1678.6</ele>
        <time>2017-07-30T10:53:40Z</time>
      </trkpt>
      <trkpt lat="42.59925" lon="-0.18092">
        <ele>1677.7</ele>
        <time>2017-07-30T10:53:41Z</time>
      </trkpt>
      <trkpt lat="42.59927" lon="-0.18087">
        <ele>1677.2</ele>
        <time>2017-07-30T10:53:42Z</time>
      </trkpt>
      <trkpt lat="42.5993" lon="-0.18084">
        <ele>1676.9</ele>
        <time>2017-07-30T10:53:43Z</time>
      </trkpt>
      <trkpt lat="42.59932" lon="-0.18082">
        <ele>1677.7</ele>
        <time>2017-07-30T10:53:44Z</time>
      </trkpt>
      <trkpt lat="42.59934" lon="-0.18079">
        <ele>1676.5</ele>
        <time>2017-07-30T10:53:45Z</time>
      </trkpt>
      <trkpt lat="42.59936" lon="-0.18076">
        <ele>1675.9</ele>
        <time>2017-07-30T10:53:46Z</time>
      </trkpt>
      <trkpt lat="42.59939" lon="-0.18072">
        <ele>1676.7</ele>
        <time>2017-07-30T10:53:47Z</time>
      </trkpt>
      <trkpt lat="42.59943" lon="-0.18067">
        <ele>1675.8</ele>
        <time>2017-07-30T10:53:48Z</time>
      </trkpt>
      <trkpt lat="42.59946" lon="-0.18063">
        <ele>1674.7</ele>
        <time>2017-07-30T10:53:49Z</time>
      </trkpt>
      <trkpt lat="42.59948" lon="-0.18061">
        <ele>1673.7</ele>
        <time>2017-07-30T10:53:50Z</time>
      </trkpt>
      <trkpt lat="42.59952" lon="-0.18056">
        <ele>1672.8</ele>
        <time>2017-07-30T10:53:52Z</time>
      </trkpt>
      <trkpt lat="42.59954" lon="-0.18052">
        <ele>1672</ele>
        <time>2017-07-30T10:53:53Z</time>
      </trkpt>
      <trkpt lat="42.59956" lon="-0.18048">
        <ele>1670.7</ele>
        <time>2017-07-30T10:53:54Z</time>
      </trkpt>
      <trkpt lat="42.59959" lon="-0.18044">
        <ele>1669.8</ele>
        <time>2017-07-30T10:53:55Z</time>
      </trkpt>
      <trkpt lat="42.59962" lon="-0.1804">
        <ele>1669.1</ele>
        <time>2017-07-30T10:53:56Z</time>
      </trkpt>
      <trkpt lat="42.59965" lon="-0.18035">
        <ele>1668.7</ele>
        <time>2017-07-30T10:53:57Z</time>
      </trkpt>
      <trkpt lat="42.59967" lon="-0.18031">
        <ele>1668.5</ele>
        <time>2017-07-30T10:53:58Z</time>
      </trkpt>
      <trkpt lat="42.59969" lon="-0.18027">
        <ele>1667.9</ele>
        <time>2017-07-30T10:53:59Z</time>
      </trkpt>
      <trkpt lat="42.59971" lon="-0.18024">
        <ele>1668.2</ele>
        <time>2017-07-30T10:54:00Z</time>
      </trkpt>
      <trkpt lat="42.59973" lon="-0.1802">
        <ele>1668.4</ele>
        <time>2017-07-30T10:54:01Z</time>
      </trkpt>
      <trkpt lat="42.59975" lon="-0.18016">
        <ele>1668.4</ele>
        <time>2017-07-30T10:54:02Z</time>
      </trkpt>
      <trkpt lat="42.59977" lon="-0.18011">
        <ele>1668.1</ele>
        <time>2017-07-30T10:54:03Z</time>
      </trkpt>
      <trkpt lat="42.5998" lon="-0.18006">
        <ele>1668.3</ele>
        <time>2017-07-30T10:54:04Z</time>
      </trkpt>
      <trkpt lat="42.59982" lon="-0.18001">
        <ele>1667.7</ele>
        <time>2017-07-30T10:54:05Z</time>
      </trkpt>
      <trkpt lat="42.59983" lon="-0.17997">
        <ele>1667.8</ele>
        <time>2017-07-30T10:54:06Z</time>
      </trkpt>
      <trkpt lat="42.59986" lon="-0.17993">
        <ele>1667.7</ele>
        <time>2017-07-30T10:54:08Z</time>
      </trkpt>
      <trkpt lat="42.59988" lon="-0.17987">
        <ele>1666.4</ele>
        <time>2017-07-30T10:54:10Z</time>
      </trkpt>
      <trkpt lat="42.5999" lon="-0.1798">
        <ele>1664.3</ele>
        <time>2017-07-30T10:54:12Z</time>
      </trkpt>
      <trkpt lat="42.59992" lon="-0.17974">
        <ele>1663.8</ele>
        <time>2017-07-30T10:54:14Z</time>
      </trkpt>
      <trkpt lat="42.59993" lon="-0.17969">
        <ele>1662.3</ele>
        <time>2017-07-30T10:54:16Z</time>
      </trkpt>
      <trkpt lat="42.59995" lon="-0.17963">
        <ele>1660.4</ele>
        <time>2017-07-30T10:54:18Z</time>
      </trkpt>
      <trkpt lat="42.59995" lon="-0.17959">
        <ele>1658.9</ele>
        <time>2017-07-30T10:54:19Z</time>
      </trkpt>
      <trkpt lat="42.59996" lon="-0.17954">
        <ele>1657.3</ele>
        <time>2017-07-30T10:54:20Z</time>
      </trkpt>
      <trkpt lat="42.59996" lon="-0.17949">
        <ele>1655.8</ele>
        <time>2017-07-30T10:54:21Z</time>
      </trkpt>
      <trkpt lat="42.59996" lon="-0.17943">
        <ele>1653.2</ele>
        <time>2017-07-30T10:54:22Z</time>
      </trkpt>
      <trkpt lat="42.59996" lon="-0.17937">
        <ele>1651.9</ele>
        <time>2017-07-30T10:54:23Z</time>
      </trkpt>
      <trkpt lat="42.59997" lon="-0.17931">
        <ele>1650.7</ele>
        <time>2017-07-30T10:54:24Z</time>
      </trkpt>
      <trkpt lat="42.59997" lon="-0.17926">
        <ele>1649.6</ele>
        <time>2017-07-30T10:54:25Z</time>
      </trkpt>
      <trkpt lat="42.59997" lon="-0.17921">
        <ele>1647.9</ele>
        <time>2017-07-30T10:54:26Z</time>
      </trkpt>
      <trkpt lat="42.59996" lon="-0.17917">
        <ele>1647.5</ele>
        <time>2017-07-30T10:54:27Z</time>
      </trkpt>
      <trkpt lat="42.59995" lon="-0.17913">
        <ele>1647.5</ele>
        <time>2017-07-30T10:54:28Z</time>
      </trkpt>
      <trkpt lat="42.59995" lon="-0.17909">
        <ele>1646.1</ele>
        <time>2017-07-30T10:54:29Z</time>
      </trkpt>
      <trkpt lat="42.59994" lon="-0.17904">
        <ele>1645.4</ele>
        <time>2017-07-30T10:54:30Z</time>
      </trkpt>
      <trkpt lat="42.59993" lon="-0.17899">
        <ele>1645.2</ele>
        <time>2017-07-30T10:54:31Z</time>
      </trkpt>
      <trkpt lat="42.59993" lon="-0.17893">
        <ele>1645</ele>
        <time>2017-07-30T10:54:32Z</time>
      </trkpt>
      <trkpt lat="42.59992" lon="-0.17888">
        <ele>1644.9</ele>
        <time>2017-07-30T10:54:33Z</time>
      </trkpt>
      <trkpt lat="42.59992" lon="-0.17883">
        <ele>1644.6</ele>
        <time>2017-07-30T10:54:34Z</time>
      </trkpt>
      <trkpt lat="42.59992" lon="-0.17878">
        <ele>1644.2</ele>
        <time>2017-07-30T10:54:35Z</time>
      </trkpt>
      <trkpt lat="42.59993" lon="-0.17874">
        <ele>1643.8</ele>
        <time>2017-07-30T10:54:36Z</time>
      </trkpt>
      <trkpt lat="42.59993" lon="-0.17871">
        <ele>1643.8</ele>
        <time>2017-07-30T10:54:37Z</time>
      </trkpt>
      <trkpt lat="42.59993" lon="-0.17867">
        <ele>1643.5</ele>
        <time>2017-07-30T10:54:38Z</time>
      </trkpt>
      <trkpt lat="42.59993" lon="-0.17863">
        <ele>1643.3</ele>
        <time>2017-07-30T10:54:39Z</time>
      </trkpt>
      <trkpt lat="42.59992" lon="-0.17858">
        <ele>1643.1</ele>
        <time>2017-07-30T10:54:40Z</time>
      </trkpt>
      <trkpt lat="42.59991" lon="-0.17854">
        <ele>1642.2</ele>
        <time>2017-07-30T10:54:41Z</time>
      </trkpt>
      <trkpt lat="42.59991" lon="-0.1785">
        <ele>1642.1</ele>
        <time>2017-07-30T10:54:43Z</time>
      </trkpt>
      <trkpt lat="42.5999" lon="-0.17845">
        <ele>1642</ele>
        <time>2017-07-30T10:54:46Z</time>
      </trkpt>
      <trkpt lat="42.59989" lon="-0.17841">
        <ele>1641.9</ele>
        <time>2017-07-30T10:54:56Z</time>
      </trkpt>
      <trkpt lat="42.59987" lon="-0.17836">
        <ele>1641</ele>
        <time>2017-07-30T10:55:04Z</time>
      </trkpt>
      <trkpt lat="42.59986" lon="-0.17832">
        <ele>1640.8</ele>
        <time>2017-07-30T10:55:06Z</time>
      </trkpt>
      <trkpt lat="42.59985" lon="-0.17827">
        <ele>1640.1</ele>
        <time>2017-07-30T10:55:08Z</time>
      </trkpt>
      <trkpt lat="42.59985" lon="-0.17821">
        <ele>1639.1</ele>
        <time>2017-07-30T10:55:10Z</time>
      </trkpt>
      <trkpt lat="42.59984" lon="-0.17813">
        <ele>1638.3</ele>
        <time>2017-07-30T10:55:12Z</time>
      </trkpt>
      <trkpt lat="42.59983" lon="-0.17809">
        <ele>1637.9</ele>
        <time>2017-07-30T10:55:13Z</time>
      </trkpt>
      <trkpt lat="42.59982" lon="-0.17804">
        <ele>1637.6</ele>
        <time>2017-07-30T10:55:14Z</time>
      </trkpt>
      <trkpt lat="42.59982" lon="-0.178">
        <ele>1636.8</ele>
        <time>2017-07-30T10:55:15Z</time>
      </trkpt>
      <trkpt lat="42.59981" lon="-0.17795">
        <ele>1636.5</ele>
        <time>2017-07-30T10:55:16Z</time>
      </trkpt>
      <trkpt lat="42.59981" lon="-0.17791">
        <ele>1636.2</ele>
        <time>2017-07-30T10:55:17Z</time>
      </trkpt>
      <trkpt lat="42.59981" lon="-0.17787">
        <ele>1636</ele>
        <time>2017-07-30T10:55:18Z</time>
      </trkpt>
      <trkpt lat="42.59981" lon="-0.17783">
        <ele>1635.8</ele>
        <time>2017-07-30T10:55:19Z</time>
      </trkpt>
      <trkpt lat="42.5998" lon="-0.17779">
        <ele>1635.6</ele>
        <time>2017-07-30T10:55:20Z</time>
      </trkpt>
      <trkpt lat="42.5998" lon="-0.17775">
        <ele>1635.5</ele>
        <time>2017-07-30T10:55:21Z</time>
      </trkpt>
      <trkpt lat="42.59979" lon="-0.17771">
        <ele>1635.5</ele>
        <time>2017-07-30T10:55:22Z</time>
      </trkpt>
      <trkpt lat="42.59978" lon="-0.17766">
        <ele>1634.6</ele>
        <time>2017-07-30T10:55:24Z</time>
      </trkpt>
      <trkpt lat="42.5998" lon="-0.17763">
        <ele>1635.1</ele>
        <time>2017-07-30T10:55:34Z</time>
      </trkpt>
      <trkpt lat="42.59979" lon="-0.17757">
        <ele>1634.8</ele>
        <time>2017-07-30T10:55:37Z</time>
      </trkpt>
      <trkpt lat="42.59979" lon="-0.17752">
        <ele>1634.4</ele>
        <time>2017-07-30T10:55:39Z</time>
      </trkpt>
      <trkpt lat="42.59977" lon="-0.17747">
        <ele>1634.4</ele>
        <time>2017-07-30T10:55:41Z</time>
      </trkpt>
      <trkpt lat="42.59975" lon="-0.17743">
        <ele>1633.8</ele>
        <time>2017-07-30T10:55:43Z</time>
      </trkpt>
      <trkpt lat="42.59974" lon="-0.17738">
        <ele>1633.5</ele>
        <time>2017-07-30T10:56:44Z</time>
      </trkpt>
      <trkpt lat="42.59972" lon="-0.17732">
        <ele>1632.2</ele>
        <time>2017-07-30T10:56:46Z</time>
      </trkpt>
      <trkpt lat="42.59971" lon="-0.17728">
        <ele>1631.7</ele>
        <time>2017-07-30T10:56:47Z</time>
      </trkpt>
      <trkpt lat="42.5997" lon="-0.17722">
        <ele>1631.4</ele>
        <time>2017-07-30T10:56:49Z</time>
      </trkpt>
      <trkpt lat="42.59969" lon="-0.17716">
        <ele>1631</ele>
        <time>2017-07-30T10:56:51Z</time>
      </trkpt>
      <trkpt lat="42.59969" lon="-0.1771">
        <ele>1629.4</ele>
        <time>2017-07-30T10:56:53Z</time>
      </trkpt>
      <trkpt lat="42.59968" lon="-0.17706">
        <ele>1628.8</ele>
        <time>2017-07-30T10:56:55Z</time>
      </trkpt>
      <trkpt lat="42.59967" lon="-0.17702">
        <ele>1628.1</ele>
        <time>2017-07-30T10:56:57Z</time>
      </trkpt>
      <trkpt lat="42.59965" lon="-0.17699">
        <ele>1627.5</ele>
        <time>2017-07-30T10:57:06Z</time>
      </trkpt>
      <trkpt lat="42.59964" lon="-0.17693">
        <ele>1626.3</ele>
        <time>2017-07-30T10:57:08Z</time>
      </trkpt>
      <trkpt lat="42.59963" lon="-0.17689">
        <ele>1625.6</ele>
        <time>2017-07-30T10:57:09Z</time>
      </trkpt>
      <trkpt lat="42.59963" lon="-0.17685">
        <ele>1624.3</ele>
        <time>2017-07-30T10:57:10Z</time>
      </trkpt>
      <trkpt lat="42.59961" lon="-0.17679">
        <ele>1623.5</ele>
        <time>2017-07-30T10:57:12Z</time>
      </trkpt>
      <trkpt lat="42.5996" lon="-0.17672">
        <ele>1622</ele>
        <time>2017-07-30T10:57:14Z</time>
      </trkpt>
      <trkpt lat="42.59958" lon="-0.17666">
        <ele>1621.1</ele>
        <time>2017-07-30T10:57:16Z</time>
      </trkpt>
      <trkpt lat="42.59957" lon="-0.17659">
        <ele>1619.5</ele>
        <time>2017-07-30T10:57:18Z</time>
      </trkpt>
      <trkpt lat="42.59957" lon="-0.17654">
        <ele>1618.6</ele>
        <time>2017-07-30T10:57:19Z</time>
      </trkpt>
      <trkpt lat="42.59957" lon="-0.17649">
        <ele>1617.8</ele>
        <time>2017-07-30T10:57:20Z</time>
      </trkpt>
      <trkpt lat="42.59956" lon="-0.17643">
        <ele>1617</ele>
        <time>2017-07-30T10:57:21Z</time>
      </trkpt>
      <trkpt lat="42.59956" lon="-0.17639">
        <ele>1616.5</ele>
        <time>2017-07-30T10:57:22Z</time>
      </trkpt>
      <trkpt lat="42.59955" lon="-0.17633">
        <ele>1615.9</ele>
        <time>2017-07-30T10:57:24Z</time>
      </trkpt>
      <trkpt lat="42.59954" lon="-0.17628">
        <ele>1615.7</ele>
        <time>2017-07-30T10:57:26Z</time>
      </trkpt>
      <trkpt lat="42.59953" lon="-0.17621">
        <ele>1615.4</ele>
        <time>2017-07-30T10:57:28Z</time>
      </trkpt>
      <trkpt lat="42.59953" lon="-0.17617">
        <ele>1615.4</ele>
        <time>2017-07-30T10:57:29Z</time>
      </trkpt>
      <trkpt lat="42.59953" lon="-0.17613">
        <ele>1615.3</ele>
        <time>2017-07-30T10:57:30Z</time>
      </trkpt>
      <trkpt lat="42.59953" lon="-0.17609">
        <ele>1615.1</ele>
        <time>2017-07-30T10:57:31Z</time>
      </trkpt>
      <trkpt lat="42.59952" lon="-0.17605">
        <ele>1614.7</ele>
        <time>2017-07-30T10:57:32Z</time>
      </trkpt>
      <trkpt lat="42.59952" lon="-0.17598">
        <ele>1613.5</ele>
        <time>2017-07-30T10:57:34Z</time>
      </trkpt>
      <trkpt lat="42.59952" lon="-0.17594">
        <ele>1612.7</ele>
        <time>2017-07-30T10:57:35Z</time>
      </trkpt>
      <trkpt lat="42.59952" lon="-0.1759">
        <ele>1611.8</ele>
        <time>2017-07-30T10:57:36Z</time>
      </trkpt>
      <trkpt lat="42.59952" lon="-0.17586">
        <ele>1610.9</ele>
        <time>2017-07-30T10:57:37Z</time>
      </trkpt>
      <trkpt lat="42.59953" lon="-0.17583">
        <ele>1610.9</ele>
        <time>2017-07-30T10:57:38Z</time>
      </trkpt>
      <trkpt lat="42.59954" lon="-0.17579">
        <ele>1609.7</ele>
        <time>2017-07-30T10:57:39Z</time>
      </trkpt>
      <trkpt lat="42.59955" lon="-0.17574">
        <ele>1608.8</ele>
        <time>2017-07-30T10:57:40Z</time>
      </trkpt>
      <trkpt lat="42.59956" lon="-0.17569">
        <ele>1607</ele>
        <time>2017-07-30T10:57:41Z</time>
      </trkpt>
      <trkpt lat="42.59956" lon="-0.17563">
        <ele>1606.1</ele>
        <time>2017-07-30T10:57:42Z</time>
      </trkpt>
      <trkpt lat="42.59957" lon="-0.17558">
        <ele>1605.4</ele>
        <time>2017-07-30T10:57:43Z</time>
      </trkpt>
      <trkpt lat="42.59957" lon="-0.17553">
        <ele>1604.8</ele>
        <time>2017-07-30T10:57:44Z</time>
      </trkpt>
      <trkpt lat="42.59958" lon="-0.17548">
        <ele>1603.9</ele>
        <time>2017-07-30T10:57:45Z</time>
      </trkpt>
      <trkpt lat="42.59958" lon="-0.17542">
        <ele>1603.3</ele>
        <time>2017-07-30T10:57:46Z</time>
      </trkpt>
      <trkpt lat="42.59959" lon="-0.17538">
        <ele>1602.8</ele>
        <time>2017-07-30T10:57:47Z</time>
      </trkpt>
      <trkpt lat="42.59959" lon="-0.17534">
        <ele>1602.3</ele>
        <time>2017-07-30T10:57:48Z</time>
      </trkpt>
      <trkpt lat="42.5996" lon="-0.17527">
        <ele>1601.9</ele>
        <time>2017-07-30T10:57:50Z</time>
      </trkpt>
      <trkpt lat="42.59958" lon="-0.17524">
        <ele>1601.4</ele>
        <time>2017-07-30T10:57:58Z</time>
      </trkpt>
      <trkpt lat="42.59958" lon="-0.1752">
        <ele>1600.8</ele>
        <time>2017-07-30T10:58:09Z</time>
      </trkpt>
      <trkpt lat="42.59957" lon="-0.17517">
        <ele>1600</ele>
        <time>2017-07-30T10:58:13Z</time>
      </trkpt>
      <trkpt lat="42.59958" lon="-0.17512">
        <ele>1599.2</ele>
        <time>2017-07-30T10:58:18Z</time>
      </trkpt>
      <trkpt lat="42.59958" lon="-0.17508">
        <ele>1598.4</ele>
        <time>2017-07-30T10:58:20Z</time>
      </trkpt>
      <trkpt lat="42.59958" lon="-0.17504">
        <ele>1597.7</ele>
        <time>2017-07-30T10:58:22Z</time>
      </trkpt>
      <trkpt lat="42.59958" lon="-0.175">
        <ele>1597.1</ele>
        <time>2017-07-30T10:58:24Z</time>
      </trkpt>
      <trkpt lat="42.5996" lon="-0.17494">
        <ele>1596.4</ele>
        <time>2017-07-30T10:58:26Z</time>
      </trkpt>
      <trkpt lat="42.59961" lon="-0.1749">
        <ele>1596.3</ele>
        <time>2017-07-30T10:58:27Z</time>
      </trkpt>
      <trkpt lat="42.59961" lon="-0.17485">
        <ele>1595.5</ele>
        <time>2017-07-30T10:58:28Z</time>
      </trkpt>
      <trkpt lat="42.59962" lon="-0.17479">
        <ele>1594</ele>
        <time>2017-07-30T10:58:29Z</time>
      </trkpt>
      <trkpt lat="42.59962" lon="-0.17473">
        <ele>1593.3</ele>
        <time>2017-07-30T10:58:30Z</time>
      </trkpt>
      <trkpt lat="42.59962" lon="-0.17468">
        <ele>1592.6</ele>
        <time>2017-07-30T10:58:31Z</time>
      </trkpt>
      <trkpt lat="42.59962" lon="-0.17463">
        <ele>1591.8</ele>
        <time>2017-07-30T10:58:32Z</time>
      </trkpt>
      <trkpt lat="42.59962" lon="-0.17458">
        <ele>1590.9</ele>
        <time>2017-07-30T10:58:33Z</time>
      </trkpt>
      <trkpt lat="42.59962" lon="-0.17454">
        <ele>1590.1</ele>
        <time>2017-07-30T10:58:34Z</time>
      </trkpt>
      <trkpt lat="42.59962" lon="-0.1745">
        <ele>1589.3</ele>
        <time>2017-07-30T10:58:35Z</time>
      </trkpt>
      <trkpt lat="42.59962" lon="-0.17445">
        <ele>1588.5</ele>
        <time>2017-07-30T10:58:36Z</time>
      </trkpt>
      <trkpt lat="42.59963" lon="-0.1744">
        <ele>1587.2</ele>
        <time>2017-07-30T10:58:37Z</time>
      </trkpt>
      <trkpt lat="42.59963" lon="-0.17435">
        <ele>1586.9</ele>
        <time>2017-07-30T10:58:38Z</time>
      </trkpt>
      <trkpt lat="42.59963" lon="-0.17429">
        <ele>1586.1</ele>
        <time>2017-07-30T10:58:39Z</time>
      </trkpt>
      <trkpt lat="42.59963" lon="-0.17425">
        <ele>1585.2</ele>
        <time>2017-07-30T10:58:40Z</time>
      </trkpt>
      <trkpt lat="42.59964" lon="-0.1742">
        <ele>1584.5</ele>
        <time>2017-07-30T10:58:42Z</time>
      </trkpt>
      <trkpt lat="42.59964" lon="-0.17416">
        <ele>1583.8</ele>
        <time>2017-07-30T10:58:44Z</time>
      </trkpt>
      <trkpt lat="42.59964" lon="-0.17411">
        <ele>1583.2</ele>
        <time>2017-07-30T10:58:46Z</time>
      </trkpt>
      <trkpt lat="42.59965" lon="-0.17405">
        <ele>1581.9</ele>
        <time>2017-07-30T10:58:48Z</time>
      </trkpt>
      <trkpt lat="42.59966" lon="-0.17401">
        <ele>1581.2</ele>
        <time>2017-07-30T10:58:49Z</time>
      </trkpt>
      <trkpt lat="42.59966" lon="-0.17397">
        <ele>1580.5</ele>
        <time>2017-07-30T10:58:50Z</time>
      </trkpt>
      <trkpt lat="42.59966" lon="-0.17393">
        <ele>1579.9</ele>
        <time>2017-07-30T10:58:51Z</time>
      </trkpt>
      <trkpt lat="42.59967" lon="-0.17387">
        <ele>1579.3</ele>
        <time>2017-07-30T10:58:52Z</time>
      </trkpt>
      <trkpt lat="42.59967" lon="-0.17381">
        <ele>1578.8</ele>
        <time>2017-07-30T10:58:53Z</time>
      </trkpt>
      <trkpt lat="42.59967" lon="-0.17375">
        <ele>1577.6</ele>
        <time>2017-07-30T10:58:54Z</time>
      </trkpt>
      <trkpt lat="42.59967" lon="-0.17368">
        <ele>1577</ele>
        <time>2017-07-30T10:58:55Z</time>
      </trkpt>
      <trkpt lat="42.59967" lon="-0.17363">
        <ele>1576.2</ele>
        <time>2017-07-30T10:58:56Z</time>
      </trkpt>
      <trkpt lat="42.59967" lon="-0.17357">
        <ele>1575.9</ele>
        <time>2017-07-30T10:58:57Z</time>
      </trkpt>
      <trkpt lat="42.59966" lon="-0.17352">
        <ele>1575.4</ele>
        <time>2017-07-30T10:58:58Z</time>
      </trkpt>
      <trkpt lat="42.59965" lon="-0.17347">
        <ele>1575.1</ele>
        <time>2017-07-30T10:58:59Z</time>
      </trkpt>
      <trkpt lat="42.59965" lon="-0.17342">
        <ele>1574.9</ele>
        <time>2017-07-30T10:59:00Z</time>
      </trkpt>
      <trkpt lat="42.59964" lon="-0.17338">
        <ele>1574.8</ele>
        <time>2017-07-30T10:59:01Z</time>
      </trkpt>
      <trkpt lat="42.59962" lon="-0.17335">
        <ele>1574.2</ele>
        <time>2017-07-30T10:59:02Z</time>
      </trkpt>
      <trkpt lat="42.59961" lon="-0.17332">
        <ele>1574.1</ele>
        <time>2017-07-30T10:59:04Z</time>
      </trkpt>
      <trkpt lat="42.59957" lon="-0.17329">
        <ele>1573.5</ele>
        <time>2017-07-30T11:00:45Z</time>
      </trkpt>
      <trkpt lat="42.59955" lon="-0.17326">
        <ele>1572.8</ele>
        <time>2017-07-30T11:00:46Z</time>
      </trkpt>
      <trkpt lat="42.59953" lon="-0.17322">
        <ele>1572.6</ele>
        <time>2017-07-30T11:00:47Z</time>
      </trkpt>
      <trkpt lat="42.59952" lon="-0.17318">
        <ele>1572.5</ele>
        <time>2017-07-30T11:00:48Z</time>
      </trkpt>
      <trkpt lat="42.5995" lon="-0.17312">
        <ele>1572.7</ele>
        <time>2017-07-30T11:00:50Z</time>
      </trkpt>
      <trkpt lat="42.59948" lon="-0.17309">
        <ele>1572.8</ele>
        <time>2017-07-30T11:00:51Z</time>
      </trkpt>
      <trkpt lat="42.59947" lon="-0.17306">
        <ele>1572.9</ele>
        <time>2017-07-30T11:00:52Z</time>
      </trkpt>
      <trkpt lat="42.59944" lon="-0.17303">
        <ele>1573.2</ele>
        <time>2017-07-30T11:00:53Z</time>
      </trkpt>
      <trkpt lat="42.59942" lon="-0.173">
        <ele>1573.5</ele>
        <time>2017-07-30T11:00:54Z</time>
      </trkpt>
      <trkpt lat="42.59941" lon="-0.17296">
        <ele>1573.9</ele>
        <time>2017-07-30T11:00:55Z</time>
      </trkpt>
      <trkpt lat="42.59939" lon="-0.17293">
        <ele>1574.4</ele>
        <time>2017-07-30T11:00:56Z</time>
      </trkpt>
      <trkpt lat="42.59938" lon="-0.17289">
        <ele>1574.7</ele>
        <time>2017-07-30T11:00:57Z</time>
      </trkpt>
      <trkpt lat="42.59937" lon="-0.17285">
        <ele>1575</ele>
        <time>2017-07-30T11:00:58Z</time>
      </trkpt>
      <trkpt lat="42.59936" lon="-0.17281">
        <ele>1575.4</ele>
        <time>2017-07-30T11:00:59Z</time>
      </trkpt>
      <trkpt lat="42.59936" lon="-0.17277">
        <ele>1575.6</ele>
        <time>2017-07-30T11:01:00Z</time>
      </trkpt>
      <trkpt lat="42.59935" lon="-0.17272">
        <ele>1575.8</ele>
        <time>2017-07-30T11:01:02Z</time>
      </trkpt>
      <trkpt lat="42.59935" lon="-0.17267">
        <ele>1575.6</ele>
        <time>2017-07-30T11:01:06Z</time>
      </trkpt>
      <trkpt lat="42.59933" lon="-0.17263">
        <ele>1575.5</ele>
        <time>2017-07-30T11:01:08Z</time>
      </trkpt>
      <trkpt lat="42.59932" lon="-0.1726">
        <ele>1575.5</ele>
        <time>2017-07-30T11:01:10Z</time>
      </trkpt>
      <trkpt lat="42.5993" lon="-0.17255">
        <ele>1575.6</ele>
        <time>2017-07-30T11:01:13Z</time>
      </trkpt>
      <trkpt lat="42.59928" lon="-0.1725">
        <ele>1575.5</ele>
        <time>2017-07-30T11:01:15Z</time>
      </trkpt>
      <trkpt lat="42.59925" lon="-0.17246">
        <ele>1575.4</ele>
        <time>2017-07-30T11:01:17Z</time>
      </trkpt>
      <trkpt lat="42.59923" lon="-0.17241">
        <ele>1575.3</ele>
        <time>2017-07-30T11:01:19Z</time>
      </trkpt>
      <trkpt lat="42.59922" lon="-0.17234">
        <ele>1575.2</ele>
        <time>2017-07-30T11:01:21Z</time>
      </trkpt>
      <trkpt lat="42.59921" lon="-0.1723">
        <ele>1575.1</ele>
        <time>2017-07-30T11:01:22Z</time>
      </trkpt>
      <trkpt lat="42.5992" lon="-0.17226">
        <ele>1575</ele>
        <time>2017-07-30T11:01:23Z</time>
      </trkpt>
      <trkpt lat="42.5992" lon="-0.17223">
        <ele>1574.9</ele>
        <time>2017-07-30T11:01:24Z</time>
      </trkpt>
      <trkpt lat="42.59918" lon="-0.17217">
        <ele>1574.7</ele>
        <time>2017-07-30T11:01:26Z</time>
      </trkpt>
      <trkpt lat="42.59915" lon="-0.17211">
        <ele>1574.4</ele>
        <time>2017-07-30T11:01:28Z</time>
      </trkpt>
      <trkpt lat="42.59913" lon="-0.17206">
        <ele>1574.3</ele>
        <time>2017-07-30T11:01:30Z</time>
      </trkpt>
      <trkpt lat="42.59911" lon="-0.17201">
        <ele>1574.1</ele>
        <time>2017-07-30T11:01:32Z</time>
      </trkpt>
      <trkpt lat="42.59908" lon="-0.17195">
        <ele>1573.9</ele>
        <time>2017-07-30T11:01:34Z</time>
      </trkpt>
      <trkpt lat="42.59907" lon="-0.17191">
        <ele>1573.8</ele>
        <time>2017-07-30T11:01:35Z</time>
      </trkpt>
      <trkpt lat="42.59906" lon="-0.17188">
        <ele>1573.8</ele>
        <time>2017-07-30T11:01:36Z</time>
      </trkpt>
      <trkpt lat="42.59904" lon="-0.17182">
        <ele>1573.7</ele>
        <time>2017-07-30T11:01:38Z</time>
      </trkpt>
      <trkpt lat="42.59901" lon="-0.17175">
        <ele>1573.6</ele>
        <time>2017-07-30T11:01:40Z</time>
      </trkpt>
      <trkpt lat="42.599" lon="-0.17171">
        <ele>1573.4</ele>
        <time>2017-07-30T11:01:41Z</time>
      </trkpt>
      <trkpt lat="42.59898" lon="-0.17166">
        <ele>1573.1</ele>
        <time>2017-07-30T11:01:42Z</time>
      </trkpt>
      <trkpt lat="42.59898" lon="-0.17162">
        <ele>1572.8</ele>
        <time>2017-07-30T11:01:43Z</time>
      </trkpt>
      <trkpt lat="42.59897" lon="-0.17157">
        <ele>1572</ele>
        <time>2017-07-30T11:01:45Z</time>
      </trkpt>
      <trkpt lat="42.59897" lon="-0.17153">
        <ele>1571.3</ele>
        <time>2017-07-30T11:01:48Z</time>
      </trkpt>
      <trkpt lat="42.59897" lon="-0.17149">
        <ele>1570.6</ele>
        <time>2017-07-30T11:01:55Z</time>
      </trkpt>
      <trkpt lat="42.59897" lon="-0.17145">
        <ele>1569.8</ele>
        <time>2017-07-30T11:01:58Z</time>
      </trkpt>
      <trkpt lat="42.59896" lon="-0.17141">
        <ele>1569</ele>
        <time>2017-07-30T11:02:00Z</time>
      </trkpt>
      <trkpt lat="42.59895" lon="-0.17138">
        <ele>1568.3</ele>
        <time>2017-07-30T11:02:02Z</time>
      </trkpt>
      <trkpt lat="42.59892" lon="-0.17138">
        <ele>1567.6</ele>
        <time>2017-07-30T11:02:04Z</time>
      </trkpt>
      <trkpt lat="42.59888" lon="-0.1714">
        <ele>1567.3</ele>
        <time>2017-07-30T11:02:06Z</time>
      </trkpt>
      <trkpt lat="42.59885" lon="-0.17142">
        <ele>1567.1</ele>
        <time>2017-07-30T11:02:08Z</time>
      </trkpt>
      <trkpt lat="42.59883" lon="-0.17137">
        <ele>1566.4</ele>
        <time>2017-07-30T11:02:11Z</time>
      </trkpt>
      <trkpt lat="42.59881" lon="-0.17131">
        <ele>1565.7</ele>
        <time>2017-07-30T11:02:13Z</time>
      </trkpt>
      <trkpt lat="42.59881" lon="-0.17126">
        <ele>1565.1</ele>
        <time>2017-07-30T11:02:15Z</time>
      </trkpt>
      <trkpt lat="42.59879" lon="-0.17122">
        <ele>1564.8</ele>
        <time>2017-07-30T11:02:17Z</time>
      </trkpt>
      <trkpt lat="42.59877" lon="-0.17121">
        <ele>1564.5</ele>
        <time>2017-07-30T11:02:19Z</time>
      </trkpt>
      <trkpt lat="42.59873" lon="-0.17122">
        <ele>1563.4</ele>
        <time>2017-07-30T11:02:21Z</time>
      </trkpt>
      <trkpt lat="42.59868" lon="-0.17123">
        <ele>1562.1</ele>
        <time>2017-07-30T11:02:23Z</time>
      </trkpt>
      <trkpt lat="42.59865" lon="-0.17122">
        <ele>1561.3</ele>
        <time>2017-07-30T11:02:25Z</time>
      </trkpt>
      <trkpt lat="42.59864" lon="-0.17116">
        <ele>1560.3</ele>
        <time>2017-07-30T11:02:27Z</time>
      </trkpt>
      <trkpt lat="42.59862" lon="-0.17111">
        <ele>1559.3</ele>
        <time>2017-07-30T11:02:29Z</time>
      </trkpt>
      <trkpt lat="42.59858" lon="-0.17108">
        <ele>1558.4</ele>
        <time>2017-07-30T11:02:31Z</time>
      </trkpt>
      <trkpt lat="42.59854" lon="-0.17108">
        <ele>1557.4</ele>
        <time>2017-07-30T11:02:33Z</time>
      </trkpt>
      <trkpt lat="42.59849" lon="-0.17109">
        <ele>1556.3</ele>
        <time>2017-07-30T11:02:35Z</time>
      </trkpt>
      <trkpt lat="42.59846" lon="-0.17107">
        <ele>1555.4</ele>
        <time>2017-07-30T11:02:37Z</time>
      </trkpt>
      <trkpt lat="42.59845" lon="-0.171">
        <ele>1554.1</ele>
        <time>2017-07-30T11:02:39Z</time>
      </trkpt>
      <trkpt lat="42.59843" lon="-0.17094">
        <ele>1553.3</ele>
        <time>2017-07-30T11:02:41Z</time>
      </trkpt>
      <trkpt lat="42.59839" lon="-0.17091">
        <ele>1552.8</ele>
        <time>2017-07-30T11:02:43Z</time>
      </trkpt>
      <trkpt lat="42.59837" lon="-0.17087">
        <ele>1551.7</ele>
        <time>2017-07-30T11:02:45Z</time>
      </trkpt>
      <trkpt lat="42.59837" lon="-0.17083">
        <ele>1550.7</ele>
        <time>2017-07-30T11:02:47Z</time>
      </trkpt>
      <trkpt lat="42.59838" lon="-0.17078">
        <ele>1549</ele>
        <time>2017-07-30T11:02:49Z</time>
      </trkpt>
      <trkpt lat="42.59836" lon="-0.17072">
        <ele>1547.7</ele>
        <time>2017-07-30T11:02:51Z</time>
      </trkpt>
      <trkpt lat="42.59832" lon="-0.17069">
        <ele>1547.2</ele>
        <time>2017-07-30T11:02:53Z</time>
      </trkpt>
      <trkpt lat="42.59828" lon="-0.17069">
        <ele>1545.9</ele>
        <time>2017-07-30T11:02:55Z</time>
      </trkpt>
      <trkpt lat="42.59825" lon="-0.17069">
        <ele>1544.6</ele>
        <time>2017-07-30T11:02:57Z</time>
      </trkpt>
      <trkpt lat="42.59821" lon="-0.1707">
        <ele>1542.7</ele>
        <time>2017-07-30T11:02:59Z</time>
      </trkpt>
      <trkpt lat="42.59818" lon="-0.17071">
        <ele>1541.2</ele>
        <time>2017-07-30T11:03:01Z</time>
      </trkpt>
      <trkpt lat="42.59814" lon="-0.17069">
        <ele>1540.5</ele>
        <time>2017-07-30T11:03:03Z</time>
      </trkpt>
      <trkpt lat="42.5981" lon="-0.17069">
        <ele>1539.6</ele>
        <time>2017-07-30T11:03:05Z</time>
      </trkpt>
      <trkpt lat="42.59806" lon="-0.17074">
        <ele>1537.1</ele>
        <time>2017-07-30T11:03:07Z</time>
      </trkpt>
      <trkpt lat="42.59804" lon="-0.17078">
        <ele>1536.1</ele>
        <time>2017-07-30T11:03:08Z</time>
      </trkpt>
      <trkpt lat="42.59802" lon="-0.17083">
        <ele>1535.2</ele>
        <time>2017-07-30T11:03:10Z</time>
      </trkpt>
      <trkpt lat="42.598" lon="-0.17086">
        <ele>1535.1</ele>
        <time>2017-07-30T11:03:12Z</time>
      </trkpt>
      <trkpt lat="42.59798" lon="-0.17085">
        <ele>1535</ele>
        <time>2017-07-30T11:03:15Z</time>
      </trkpt>
      <trkpt lat="42.59796" lon="-0.17077">
        <ele>1534.4</ele>
        <time>2017-07-30T11:03:17Z</time>
      </trkpt>
      <trkpt lat="42.59796" lon="-0.17072">
        <ele>1533.9</ele>
        <time>2017-07-30T11:03:18Z</time>
      </trkpt>
      <trkpt lat="42.59795" lon="-0.17068">
        <ele>1532.7</ele>
        <time>2017-07-30T11:03:19Z</time>
      </trkpt>
      <trkpt lat="42.59795" lon="-0.17063">
        <ele>1531.9</ele>
        <time>2017-07-30T11:03:20Z</time>
      </trkpt>
      <trkpt lat="42.59795" lon="-0.1706">
        <ele>1531.3</ele>
        <time>2017-07-30T11:03:21Z</time>
      </trkpt>
      <trkpt lat="42.59796" lon="-0.17053">
        <ele>1530.9</ele>
        <time>2017-07-30T11:03:23Z</time>
      </trkpt>
      <trkpt lat="42.59797" lon="-0.17048">
        <ele>1530.5</ele>
        <time>2017-07-30T11:03:25Z</time>
      </trkpt>
      <trkpt lat="42.59797" lon="-0.17044">
        <ele>1530.1</ele>
        <time>2017-07-30T11:03:26Z</time>
      </trkpt>
      <trkpt lat="42.59797" lon="-0.1704">
        <ele>1529.7</ele>
        <time>2017-07-30T11:03:27Z</time>
      </trkpt>
      <trkpt lat="42.59797" lon="-0.17034">
        <ele>1528.6</ele>
        <time>2017-07-30T11:03:29Z</time>
      </trkpt>
      <trkpt lat="42.59797" lon="-0.1703">
        <ele>1527.7</ele>
        <time>2017-07-30T11:03:31Z</time>
      </trkpt>
      <trkpt lat="42.59797" lon="-0.17026">
        <ele>1527.3</ele>
        <time>2017-07-30T11:03:33Z</time>
      </trkpt>
      <trkpt lat="42.59797" lon="-0.17021">
        <ele>1526.8</ele>
        <time>2017-07-30T11:03:35Z</time>
      </trkpt>
      <trkpt lat="42.59798" lon="-0.17016">
        <ele>1525.7</ele>
        <time>2017-07-30T11:03:37Z</time>
      </trkpt>
      <trkpt lat="42.598" lon="-0.17012">
        <ele>1523.7</ele>
        <time>2017-07-30T11:03:39Z</time>
      </trkpt>
      <trkpt lat="42.598" lon="-0.17007">
        <ele>1522.9</ele>
        <time>2017-07-30T11:03:41Z</time>
      </trkpt>
      <trkpt lat="42.59798" lon="-0.17004">
        <ele>1522.1</ele>
        <time>2017-07-30T11:03:43Z</time>
      </trkpt>
      <trkpt lat="42.59794" lon="-0.17003">
        <ele>1521.5</ele>
        <time>2017-07-30T11:03:45Z</time>
      </trkpt>
      <trkpt lat="42.5979" lon="-0.17005">
        <ele>1521.2</ele>
        <time>2017-07-30T11:03:47Z</time>
      </trkpt>
      <trkpt lat="42.59786" lon="-0.17009">
        <ele>1520</ele>
        <time>2017-07-30T11:03:49Z</time>
      </trkpt>
      <trkpt lat="42.59782" lon="-0.17013">
        <ele>1518.1</ele>
        <time>2017-07-30T11:03:51Z</time>
      </trkpt>
      <trkpt lat="42.59779" lon="-0.17017">
        <ele>1517.6</ele>
        <time>2017-07-30T11:03:53Z</time>
      </trkpt>
      <trkpt lat="42.59777" lon="-0.17014">
        <ele>1517.2</ele>
        <time>2017-07-30T11:03:56Z</time>
      </trkpt>
      <trkpt lat="42.59777" lon="-0.17009">
        <ele>1516.6</ele>
        <time>2017-07-30T11:03:58Z</time>
      </trkpt>
      <trkpt lat="42.59778" lon="-0.17003">
        <ele>1516.3</ele>
        <time>2017-07-30T11:04:00Z</time>
      </trkpt>
      <trkpt lat="42.59779" lon="-0.16996">
        <ele>1515.9</ele>
        <time>2017-07-30T11:04:02Z</time>
      </trkpt>
      <trkpt lat="42.59779" lon="-0.16991">
        <ele>1514.2</ele>
        <time>2017-07-30T11:04:04Z</time>
      </trkpt>
      <trkpt lat="42.59781" lon="-0.16987">
        <ele>1513.3</ele>
        <time>2017-07-30T11:04:15Z</time>
      </trkpt>
      <trkpt lat="42.59781" lon="-0.16983">
        <ele>1512.6</ele>
        <time>2017-07-30T11:04:20Z</time>
      </trkpt>
      <trkpt lat="42.59779" lon="-0.16979">
        <ele>1511.9</ele>
        <time>2017-07-30T11:04:25Z</time>
      </trkpt>
      <trkpt lat="42.5978" lon="-0.16975">
        <ele>1511.1</ele>
        <time>2017-07-30T11:04:29Z</time>
      </trkpt>
      <trkpt lat="42.59782" lon="-0.16971">
        <ele>1510.4</ele>
        <time>2017-07-30T11:04:34Z</time>
      </trkpt>
      <trkpt lat="42.59783" lon="-0.16967">
        <ele>1510.4</ele>
        <time>2017-07-30T11:04:38Z</time>
      </trkpt>
      <trkpt lat="42.59779" lon="-0.16966">
        <ele>1509.6</ele>
        <time>2017-07-30T11:04:46Z</time>
      </trkpt>
      <trkpt lat="42.59776" lon="-0.16968">
        <ele>1508.7</ele>
        <time>2017-07-30T11:04:48Z</time>
      </trkpt>
      <trkpt lat="42.59773" lon="-0.16969">
        <ele>1507.8</ele>
        <time>2017-07-30T11:04:50Z</time>
      </trkpt>
      <trkpt lat="42.5977" lon="-0.1697">
        <ele>1507.3</ele>
        <time>2017-07-30T11:04:52Z</time>
      </trkpt>
      <trkpt lat="42.59767" lon="-0.16974">
        <ele>1506.8</ele>
        <time>2017-07-30T11:04:54Z</time>
      </trkpt>
      <trkpt lat="42.59764" lon="-0.16976">
        <ele>1504.5</ele>
        <time>2017-07-30T11:04:57Z</time>
      </trkpt>
      <trkpt lat="42.59764" lon="-0.16971">
        <ele>1502.9</ele>
        <time>2017-07-30T11:05:16Z</time>
      </trkpt>
      <trkpt lat="42.59764" lon="-0.16967">
        <ele>1503.2</ele>
        <time>2017-07-30T11:05:26Z</time>
      </trkpt>
      <trkpt lat="42.59764" lon="-0.16963">
        <ele>1502.4</ele>
        <time>2017-07-30T11:05:31Z</time>
      </trkpt>
      <trkpt lat="42.59764" lon="-0.1696">
        <ele>1501.1</ele>
        <time>2017-07-30T11:05:40Z</time>
      </trkpt>
      <trkpt lat="42.59764" lon="-0.16956">
        <ele>1501</ele>
        <time>2017-07-30T11:05:52Z</time>
      </trkpt>
      <trkpt lat="42.59765" lon="-0.16952">
        <ele>1500.7</ele>
        <time>2017-07-30T11:05:56Z</time>
      </trkpt>
      <trkpt lat="42.59766" lon="-0.16948">
        <ele>1500</ele>
        <time>2017-07-30T11:06:01Z</time>
      </trkpt>
      <trkpt lat="42.59767" lon="-0.16944">
        <ele>1499.2</ele>
        <time>2017-07-30T11:06:07Z</time>
      </trkpt>
      <trkpt lat="42.59766" lon="-0.1694">
        <ele>1498.1</ele>
        <time>2017-07-30T11:06:13Z</time>
      </trkpt>
      <trkpt lat="42.59764" lon="-0.16936">
        <ele>1497</ele>
        <time>2017-07-30T11:06:17Z</time>
      </trkpt>
      <trkpt lat="42.59765" lon="-0.16932">
        <ele>1496</ele>
        <time>2017-07-30T11:06:23Z</time>
      </trkpt>
      <trkpt lat="42.59765" lon="-0.16928">
        <ele>1494.7</ele>
        <time>2017-07-30T11:06:29Z</time>
      </trkpt>
      <trkpt lat="42.59766" lon="-0.16924">
        <ele>1493.7</ele>
        <time>2017-07-30T11:06:34Z</time>
      </trkpt>
      <trkpt lat="42.59767" lon="-0.1692">
        <ele>1492.4</ele>
        <time>2017-07-30T11:06:41Z</time>
      </trkpt>
      <trkpt lat="42.59769" lon="-0.16917">
        <ele>1491.4</ele>
        <time>2017-07-30T11:06:44Z</time>
      </trkpt>
      <trkpt lat="42.5977" lon="-0.16914">
        <ele>1490.2</ele>
        <time>2017-07-30T11:06:53Z</time>
      </trkpt>
      <trkpt lat="42.59772" lon="-0.1691">
        <ele>1488.7</ele>
        <time>2017-07-30T11:07:00Z</time>
      </trkpt>
      <trkpt lat="42.5977" lon="-0.16906">
        <ele>1487.3</ele>
        <time>2017-07-30T11:07:05Z</time>
      </trkpt>
      <trkpt lat="42.59773" lon="-0.16903">
        <ele>1485.6</ele>
        <time>2017-07-30T11:07:09Z</time>
      </trkpt>
      <trkpt lat="42.59776" lon="-0.16902">
        <ele>1484.3</ele>
        <time>2017-07-30T11:07:12Z</time>
      </trkpt>
      <trkpt lat="42.59777" lon="-0.16898">
        <ele>1483.5</ele>
        <time>2017-07-30T11:07:16Z</time>
      </trkpt>
      <trkpt lat="42.59774" lon="-0.16895">
        <ele>1483</ele>
        <time>2017-07-30T11:07:21Z</time>
      </trkpt>
      <trkpt lat="42.59771" lon="-0.16893">
        <ele>1482.9</ele>
        <time>2017-07-30T11:07:23Z</time>
      </trkpt>
      <trkpt lat="42.59767" lon="-0.16894">
        <ele>1482</ele>
        <time>2017-07-30T11:07:25Z</time>
      </trkpt>
      <trkpt lat="42.59764" lon="-0.16895">
        <ele>1480.7</ele>
        <time>2017-07-30T11:07:27Z</time>
      </trkpt>
      <trkpt lat="42.59763" lon="-0.16892">
        <ele>1480.5</ele>
        <time>2017-07-30T11:07:34Z</time>
      </trkpt>
      <trkpt lat="42.59765" lon="-0.16888">
        <ele>1480.6</ele>
        <time>2017-07-30T11:07:41Z</time>
      </trkpt>
      <trkpt lat="42.59766" lon="-0.16883">
        <ele>1479.9</ele>
        <time>2017-07-30T11:07:44Z</time>
      </trkpt>
      <trkpt lat="42.59768" lon="-0.16878">
        <ele>1477.6</ele>
        <time>2017-07-30T11:07:46Z</time>
      </trkpt>
      <trkpt lat="42.5977" lon="-0.16873">
        <ele>1476.6</ele>
        <time>2017-07-30T11:07:48Z</time>
      </trkpt>
      <trkpt lat="42.5977" lon="-0.16868">
        <ele>1476.5</ele>
        <time>2017-07-30T11:07:50Z</time>
      </trkpt>
      <trkpt lat="42.59767" lon="-0.16864">
        <ele>1474.7</ele>
        <time>2017-07-30T11:07:52Z</time>
      </trkpt>
      <trkpt lat="42.59769" lon="-0.16861">
        <ele>1473.7</ele>
        <time>2017-07-30T11:07:57Z</time>
      </trkpt>
      <trkpt lat="42.59768" lon="-0.16856">
        <ele>1473</ele>
        <time>2017-07-30T11:08:05Z</time>
      </trkpt>
      <trkpt lat="42.59765" lon="-0.16855">
        <ele>1472.3</ele>
        <time>2017-07-30T11:08:08Z</time>
      </trkpt>
      <trkpt lat="42.59763" lon="-0.16852">
        <ele>1471.7</ele>
        <time>2017-07-30T11:08:11Z</time>
      </trkpt>
      <trkpt lat="42.59764" lon="-0.16849">
        <ele>1471.2</ele>
        <time>2017-07-30T11:08:17Z</time>
      </trkpt>
      <trkpt lat="42.59767" lon="-0.16847">
        <ele>1470.8</ele>
        <time>2017-07-30T11:08:21Z</time>
      </trkpt>
      <trkpt lat="42.59768" lon="-0.16844">
        <ele>1469.5</ele>
        <time>2017-07-30T11:08:26Z</time>
      </trkpt>
      <trkpt lat="42.59768" lon="-0.1684">
        <ele>1468.1</ele>
        <time>2017-07-30T11:08:30Z</time>
      </trkpt>
      <trkpt lat="42.59767" lon="-0.16836">
        <ele>1466.8</ele>
        <time>2017-07-30T11:08:34Z</time>
      </trkpt>
      <trkpt lat="42.59764" lon="-0.16832">
        <ele>1467.2</ele>
        <time>2017-07-30T11:08:36Z</time>
      </trkpt>
      <trkpt lat="42.59761" lon="-0.16829">
        <ele>1466.8</ele>
        <time>2017-07-30T11:08:38Z</time>
      </trkpt>
      <trkpt lat="42.59764" lon="-0.16827">
        <ele>1465.6</ele>
        <time>2017-07-30T11:08:47Z</time>
      </trkpt>
      <trkpt lat="42.59768" lon="-0.16827">
        <ele>1464.1</ele>
        <time>2017-07-30T11:08:49Z</time>
      </trkpt>
      <trkpt lat="42.59772" lon="-0.16828">
        <ele>1463.5</ele>
        <time>2017-07-30T11:08:51Z</time>
      </trkpt>
      <trkpt lat="42.59776" lon="-0.16828">
        <ele>1463.2</ele>
        <time>2017-07-30T11:08:52Z</time>
      </trkpt>
      <trkpt lat="42.59778" lon="-0.16828">
        <ele>1461.8</ele>
        <time>2017-07-30T11:08:53Z</time>
      </trkpt>
      <trkpt lat="42.59783" lon="-0.16827">
        <ele>1459.4</ele>
        <time>2017-07-30T11:08:55Z</time>
      </trkpt>
      <trkpt lat="42.59788" lon="-0.16827">
        <ele>1458.1</ele>
        <time>2017-07-30T11:08:57Z</time>
      </trkpt>
      <trkpt lat="42.59793" lon="-0.16827">
        <ele>1456.6</ele>
        <time>2017-07-30T11:08:59Z</time>
      </trkpt>
      <trkpt lat="42.59797" lon="-0.16826">
        <ele>1456.6</ele>
        <time>2017-07-30T11:09:01Z</time>
      </trkpt>
      <trkpt lat="42.59798" lon="-0.16822">
        <ele>1456.8</ele>
        <time>2017-07-30T11:09:11Z</time>
      </trkpt>
      <trkpt lat="42.59797" lon="-0.16819">
        <ele>1457</ele>
        <time>2017-07-30T11:09:17Z</time>
      </trkpt>
      <trkpt lat="42.59796" lon="-0.16815">
        <ele>1457</ele>
        <time>2017-07-30T11:09:26Z</time>
      </trkpt>
      <trkpt lat="42.59794" lon="-0.16812">
        <ele>1456.9</ele>
        <time>2017-07-30T11:09:31Z</time>
      </trkpt>
      <trkpt lat="42.59793" lon="-0.16808">
        <ele>1456.8</ele>
        <time>2017-07-30T11:09:40Z</time>
      </trkpt>
      <trkpt lat="42.5979" lon="-0.16803">
        <ele>1456</ele>
        <time>2017-07-30T11:09:42Z</time>
      </trkpt>
      <trkpt lat="42.59788" lon="-0.168">
        <ele>1455.5</ele>
        <time>2017-07-30T11:09:44Z</time>
      </trkpt>
      <trkpt lat="42.59785" lon="-0.16797">
        <ele>1454.6</ele>
        <time>2017-07-30T11:09:52Z</time>
      </trkpt>
      <trkpt lat="42.59782" lon="-0.16792">
        <ele>1453.6</ele>
        <time>2017-07-30T11:09:54Z</time>
      </trkpt>
      <trkpt lat="42.5978" lon="-0.16787">
        <ele>1452.6</ele>
        <time>2017-07-30T11:09:56Z</time>
      </trkpt>
      <trkpt lat="42.59779" lon="-0.16782">
        <ele>1451.5</ele>
        <time>2017-07-30T11:09:58Z</time>
      </trkpt>
      <trkpt lat="42.59776" lon="-0.16778">
        <ele>1449.1</ele>
        <time>2017-07-30T11:10:00Z</time>
      </trkpt>
      <trkpt lat="42.59779" lon="-0.16777">
        <ele>1447.3</ele>
        <time>2017-07-30T11:10:10Z</time>
      </trkpt>
      <trkpt lat="42.59779" lon="-0.16773">
        <ele>1445.8</ele>
        <time>2017-07-30T11:10:26Z</time>
      </trkpt>
      <trkpt lat="42.59778" lon="-0.1677">
        <ele>1444.3</ele>
        <time>2017-07-30T11:10:30Z</time>
      </trkpt>
      <trkpt lat="42.59777" lon="-0.16767">
        <ele>1442.8</ele>
        <time>2017-07-30T11:10:35Z</time>
      </trkpt>
      <trkpt lat="42.59775" lon="-0.16763">
        <ele>1442</ele>
        <time>2017-07-30T11:10:44Z</time>
      </trkpt>
      <trkpt lat="42.59772" lon="-0.16757">
        <ele>1440.7</ele>
        <time>2017-07-30T11:10:47Z</time>
      </trkpt>
      <trkpt lat="42.5977" lon="-0.16753">
        <ele>1439.2</ele>
        <time>2017-07-30T11:10:48Z</time>
      </trkpt>
      <trkpt lat="42.59768" lon="-0.1675">
        <ele>1437.6</ele>
        <time>2017-07-30T11:10:49Z</time>
      </trkpt>
      <trkpt lat="42.59766" lon="-0.16747">
        <ele>1435.7</ele>
        <time>2017-07-30T11:10:50Z</time>
      </trkpt>
      <trkpt lat="42.59764" lon="-0.16744">
        <ele>1433.3</ele>
        <time>2017-07-30T11:10:51Z</time>
      </trkpt>
      <trkpt lat="42.59762" lon="-0.1674">
        <ele>1430.7</ele>
        <time>2017-07-30T11:10:52Z</time>
      </trkpt>
      <trkpt lat="42.59759" lon="-0.16738">
        <ele>1429.3</ele>
        <time>2017-07-30T11:10:53Z</time>
      </trkpt>
      <trkpt lat="42.59756" lon="-0.16733">
        <ele>1427.7</ele>
        <time>2017-07-30T11:10:55Z</time>
      </trkpt>
      <trkpt lat="42.59752" lon="-0.16729">
        <ele>1425.8</ele>
        <time>2017-07-30T11:10:57Z</time>
      </trkpt>
      <trkpt lat="42.5975" lon="-0.16725">
        <ele>1423.8</ele>
        <time>2017-07-30T11:10:59Z</time>
      </trkpt>
      <trkpt lat="42.59748" lon="-0.16722">
        <ele>1422.4</ele>
        <time>2017-07-30T11:11:01Z</time>
      </trkpt>
      <trkpt lat="42.59746" lon="-0.16719">
        <ele>1421.7</ele>
        <time>2017-07-30T11:11:03Z</time>
      </trkpt>
      <trkpt lat="42.59744" lon="-0.16713">
        <ele>1421.1</ele>
        <time>2017-07-30T11:11:05Z</time>
      </trkpt>
      <trkpt lat="42.59741" lon="-0.16707">
        <ele>1420.7</ele>
        <time>2017-07-30T11:11:07Z</time>
      </trkpt>
      <trkpt lat="42.59738" lon="-0.16703">
        <ele>1420.5</ele>
        <time>2017-07-30T11:11:09Z</time>
      </trkpt>
      <trkpt lat="42.59734" lon="-0.16699">
        <ele>1420.4</ele>
        <time>2017-07-30T11:11:11Z</time>
      </trkpt>
      <trkpt lat="42.59731" lon="-0.16696">
        <ele>1419.9</ele>
        <time>2017-07-30T11:11:13Z</time>
      </trkpt>
      <trkpt lat="42.59728" lon="-0.16692">
        <ele>1419.5</ele>
        <time>2017-07-30T11:11:15Z</time>
      </trkpt>
      <trkpt lat="42.59726" lon="-0.16688">
        <ele>1419.3</ele>
        <time>2017-07-30T11:11:16Z</time>
      </trkpt>
      <trkpt lat="42.59725" lon="-0.16685">
        <ele>1419.2</ele>
        <time>2017-07-30T11:11:17Z</time>
      </trkpt>
      <trkpt lat="42.59723" lon="-0.16681">
        <ele>1419</ele>
        <time>2017-07-30T11:11:18Z</time>
      </trkpt>
      <trkpt lat="42.59721" lon="-0.16677">
        <ele>1418.7</ele>
        <time>2017-07-30T11:11:19Z</time>
      </trkpt>
      <trkpt lat="42.59719" lon="-0.16672">
        <ele>1417.9</ele>
        <time>2017-07-30T11:11:20Z</time>
      </trkpt>
      <trkpt lat="42.59717" lon="-0.16667">
        <ele>1417</ele>
        <time>2017-07-30T11:11:21Z</time>
      </trkpt>
      <trkpt lat="42.59715" lon="-0.16663">
        <ele>1416.4</ele>
        <time>2017-07-30T11:11:22Z</time>
      </trkpt>
      <trkpt lat="42.59713" lon="-0.16659">
        <ele>1415.8</ele>
        <time>2017-07-30T11:11:23Z</time>
      </trkpt>
      <trkpt lat="42.5971" lon="-0.16655">
        <ele>1415.2</ele>
        <time>2017-07-30T11:11:24Z</time>
      </trkpt>
      <trkpt lat="42.59707" lon="-0.16651">
        <ele>1414.6</ele>
        <time>2017-07-30T11:11:25Z</time>
      </trkpt>
      <trkpt lat="42.59705" lon="-0.16647">
        <ele>1413.9</ele>
        <time>2017-07-30T11:11:26Z</time>
      </trkpt>
      <trkpt lat="42.59702" lon="-0.16644">
        <ele>1413.3</ele>
        <time>2017-07-30T11:11:27Z</time>
      </trkpt>
      <trkpt lat="42.597" lon="-0.16642">
        <ele>1412.7</ele>
        <time>2017-07-30T11:11:28Z</time>
      </trkpt>
      <trkpt lat="42.59697" lon="-0.1664">
        <ele>1412.2</ele>
        <time>2017-07-30T11:11:29Z</time>
      </trkpt>
      <trkpt lat="42.59693" lon="-0.16638">
        <ele>1411.7</ele>
        <time>2017-07-30T11:11:30Z</time>
      </trkpt>
      <trkpt lat="42.59689" lon="-0.16636">
        <ele>1411</ele>
        <time>2017-07-30T11:11:31Z</time>
      </trkpt>
      <trkpt lat="42.59686" lon="-0.16633">
        <ele>1410.3</ele>
        <time>2017-07-30T11:11:32Z</time>
      </trkpt>
      <trkpt lat="42.59683" lon="-0.16632">
        <ele>1409.8</ele>
        <time>2017-07-30T11:11:33Z</time>
      </trkpt>
      <trkpt lat="42.5968" lon="-0.1663">
        <ele>1409.7</ele>
        <time>2017-07-30T11:11:34Z</time>
      </trkpt>
      <trkpt lat="42.59677" lon="-0.16629">
        <ele>1409.5</ele>
        <time>2017-07-30T11:11:35Z</time>
      </trkpt>
      <trkpt lat="42.59673" lon="-0.16627">
        <ele>1409.3</ele>
        <time>2017-07-30T11:11:36Z</time>
      </trkpt>
      <trkpt lat="42.5967" lon="-0.16626">
        <ele>1409.1</ele>
        <time>2017-07-30T11:11:37Z</time>
      </trkpt>
      <trkpt lat="42.59666" lon="-0.16624">
        <ele>1409.1</ele>
        <time>2017-07-30T11:11:38Z</time>
      </trkpt>
      <trkpt lat="42.59663" lon="-0.16622">
        <ele>1409.1</ele>
        <time>2017-07-30T11:11:39Z</time>
      </trkpt>
      <trkpt lat="42.5966" lon="-0.1662">
        <ele>1409.1</ele>
        <time>2017-07-30T11:11:40Z</time>
      </trkpt>
      <trkpt lat="42.59655" lon="-0.16617">
        <ele>1409.1</ele>
        <time>2017-07-30T11:11:42Z</time>
      </trkpt>
      <trkpt lat="42.59651" lon="-0.16614">
        <ele>1409.1</ele>
        <time>2017-07-30T11:11:44Z</time>
      </trkpt>
      <trkpt lat="42.59646" lon="-0.16613">
        <ele>1409</ele>
        <time>2017-07-30T11:11:46Z</time>
      </trkpt>
      <trkpt lat="42.59643" lon="-0.16614">
        <ele>1409</ele>
        <time>2017-07-30T11:11:47Z</time>
      </trkpt>
      <trkpt lat="42.5964" lon="-0.16614">
        <ele>1408.9</ele>
        <time>2017-07-30T11:11:48Z</time>
      </trkpt>
      <trkpt lat="42.59637" lon="-0.16615">
        <ele>1408.7</ele>
        <time>2017-07-30T11:11:49Z</time>
      </trkpt>
      <trkpt lat="42.59633" lon="-0.16616">
        <ele>1408.5</ele>
        <time>2017-07-30T11:11:50Z</time>
      </trkpt>
      <trkpt lat="42.5963" lon="-0.16616">
        <ele>1408.2</ele>
        <time>2017-07-30T11:11:51Z</time>
      </trkpt>
      <trkpt lat="42.59626" lon="-0.16616">
        <ele>1407.9</ele>
        <time>2017-07-30T11:11:52Z</time>
      </trkpt>
      <trkpt lat="42.59622" lon="-0.16615">
        <ele>1407.5</ele>
        <time>2017-07-30T11:11:54Z</time>
      </trkpt>
      <trkpt lat="42.59619" lon="-0.16613">
        <ele>1407.1</ele>
        <time>2017-07-30T11:11:56Z</time>
      </trkpt>
      <trkpt lat="42.59617" lon="-0.1661">
        <ele>1406.5</ele>
        <time>2017-07-30T11:11:58Z</time>
      </trkpt>
      <trkpt lat="42.59613" lon="-0.16606">
        <ele>1406</ele>
        <time>2017-07-30T11:12:00Z</time>
      </trkpt>
      <trkpt lat="42.59611" lon="-0.16602">
        <ele>1405.6</ele>
        <time>2017-07-30T11:12:02Z</time>
      </trkpt>
      <trkpt lat="42.59608" lon="-0.16598">
        <ele>1405.1</ele>
        <time>2017-07-30T11:12:04Z</time>
      </trkpt>
      <trkpt lat="42.59605" lon="-0.16595">
        <ele>1404.5</ele>
        <time>2017-07-30T11:12:06Z</time>
      </trkpt>
      <trkpt lat="42.596" lon="-0.16593">
        <ele>1403.9</ele>
        <time>2017-07-30T11:12:08Z</time>
      </trkpt>
      <trkpt lat="42.59596" lon="-0.16592">
        <ele>1403.3</ele>
        <time>2017-07-30T11:12:10Z</time>
      </trkpt>
      <trkpt lat="42.59592" lon="-0.1659">
        <ele>1402.6</ele>
        <time>2017-07-30T11:12:12Z</time>
      </trkpt>
      <trkpt lat="42.59589" lon="-0.16588">
        <ele>1401.8</ele>
        <time>2017-07-30T11:12:14Z</time>
      </trkpt>
      <trkpt lat="42.59585" lon="-0.16586">
        <ele>1401</ele>
        <time>2017-07-30T11:12:16Z</time>
      </trkpt>
      <trkpt lat="42.59581" lon="-0.16583">
        <ele>1400.4</ele>
        <time>2017-07-30T11:12:18Z</time>
      </trkpt>
      <trkpt lat="42.59578" lon="-0.1658">
        <ele>1400.2</ele>
        <time>2017-07-30T11:12:20Z</time>
      </trkpt>
      <trkpt lat="42.59577" lon="-0.16576">
        <ele>1399.8</ele>
        <time>2017-07-30T11:12:28Z</time>
      </trkpt>
      <trkpt lat="42.59575" lon="-0.16574">
        <ele>1399.4</ele>
        <time>2017-07-30T11:12:35Z</time>
      </trkpt>
      <trkpt lat="42.59573" lon="-0.16571">
        <ele>1398.9</ele>
        <time>2017-07-30T11:12:41Z</time>
      </trkpt>
      <trkpt lat="42.5957" lon="-0.1657">
        <ele>1398.5</ele>
        <time>2017-07-30T11:12:52Z</time>
      </trkpt>
      <trkpt lat="42.59567" lon="-0.16571">
        <ele>1398.1</ele>
        <time>2017-07-30T11:12:55Z</time>
      </trkpt>
      <trkpt lat="42.59564" lon="-0.16569">
        <ele>1397.7</ele>
        <time>2017-07-30T11:13:01Z</time>
      </trkpt>
      <trkpt lat="42.59561" lon="-0.16566">
        <ele>1397.4</ele>
        <time>2017-07-30T11:13:05Z</time>
      </trkpt>
      <trkpt lat="42.59558" lon="-0.16565">
        <ele>1397</ele>
        <time>2017-07-30T11:13:09Z</time>
      </trkpt>
      <trkpt lat="42.59555" lon="-0.16564">
        <ele>1396.8</ele>
        <time>2017-07-30T11:13:11Z</time>
      </trkpt>
      <trkpt lat="42.59553" lon="-0.16563">
        <ele>1396.5</ele>
        <time>2017-07-30T11:13:13Z</time>
      </trkpt>
      <trkpt lat="42.59549" lon="-0.16559">
        <ele>1395.8</ele>
        <time>2017-07-30T11:13:15Z</time>
      </trkpt>
      <trkpt lat="42.59546" lon="-0.16554">
        <ele>1394.3</ele>
        <time>2017-07-30T11:13:17Z</time>
      </trkpt>
      <trkpt lat="42.59542" lon="-0.1655">
        <ele>1393.1</ele>
        <time>2017-07-30T11:13:19Z</time>
      </trkpt>
      <trkpt lat="42.5954" lon="-0.16548">
        <ele>1392.6</ele>
        <time>2017-07-30T11:13:20Z</time>
      </trkpt>
      <trkpt lat="42.59535" lon="-0.16546">
        <ele>1391.9</ele>
        <time>2017-07-30T11:13:22Z</time>
      </trkpt>
      <trkpt lat="42.59532" lon="-0.16542">
        <ele>1391.3</ele>
        <time>2017-07-30T11:13:24Z</time>
      </trkpt>
      <trkpt lat="42.59531" lon="-0.16538">
        <ele>1391.1</ele>
        <time>2017-07-30T11:13:25Z</time>
      </trkpt>
      <trkpt lat="42.59529" lon="-0.16535">
        <ele>1390.9</ele>
        <time>2017-07-30T11:13:26Z</time>
      </trkpt>
      <trkpt lat="42.59525" lon="-0.16531">
        <ele>1389.6</ele>
        <time>2017-07-30T11:13:28Z</time>
      </trkpt>
      <trkpt lat="42.59522" lon="-0.16527">
        <ele>1387.5</ele>
        <time>2017-07-30T11:13:30Z</time>
      </trkpt>
      <trkpt lat="42.5952" lon="-0.16522">
        <ele>1386.5</ele>
        <time>2017-07-30T11:13:32Z</time>
      </trkpt>
      <trkpt lat="42.59518" lon="-0.16518">
        <ele>1385.7</ele>
        <time>2017-07-30T11:13:34Z</time>
      </trkpt>
      <trkpt lat="42.59517" lon="-0.16514">
        <ele>1385.2</ele>
        <time>2017-07-30T11:13:47Z</time>
      </trkpt>
      <trkpt lat="42.59515" lon="-0.16511">
        <ele>1384.8</ele>
        <time>2017-07-30T11:13:59Z</time>
      </trkpt>
      <trkpt lat="42.59512" lon="-0.16509">
        <ele>1384.3</ele>
        <time>2017-07-30T11:14:07Z</time>
      </trkpt>
      <trkpt lat="42.59509" lon="-0.16503">
        <ele>1383.4</ele>
        <time>2017-07-30T11:14:54Z</time>
      </trkpt>
      <trkpt lat="42.5951" lon="-0.16499">
        <ele>1383</ele>
        <time>2017-07-30T11:15:00Z</time>
      </trkpt>
      <trkpt lat="42.59507" lon="-0.16497">
        <ele>1382.4</ele>
        <time>2017-07-30T11:15:03Z</time>
      </trkpt>
      <trkpt lat="42.59504" lon="-0.16494">
        <ele>1381.9</ele>
        <time>2017-07-30T11:15:07Z</time>
      </trkpt>
      <trkpt lat="42.59504" lon="-0.16491">
        <ele>1381.4</ele>
        <time>2017-07-30T11:15:19Z</time>
      </trkpt>
      <trkpt lat="42.59504" lon="-0.16486">
        <ele>1380.9</ele>
        <time>2017-07-30T11:15:27Z</time>
      </trkpt>
      <trkpt lat="42.59505" lon="-0.16483">
        <ele>1380.4</ele>
        <time>2017-07-30T11:15:31Z</time>
      </trkpt>
      <trkpt lat="42.59505" lon="-0.16479">
        <ele>1379.8</ele>
        <time>2017-07-30T11:15:38Z</time>
      </trkpt>
      <trkpt lat="42.59501" lon="-0.16478">
        <ele>1378.7</ele>
        <time>2017-07-30T11:17:28Z</time>
      </trkpt>
      <trkpt lat="42.59497" lon="-0.1648">
        <ele>1377.9</ele>
        <time>2017-07-30T11:17:30Z</time>
      </trkpt>
      <trkpt lat="42.59495" lon="-0.16477">
        <ele>1377.6</ele>
        <time>2017-07-30T11:17:37Z</time>
      </trkpt>
      <trkpt lat="42.59492" lon="-0.16475">
        <ele>1377.1</ele>
        <time>2017-07-30T11:17:42Z</time>
      </trkpt>
      <trkpt lat="42.59489" lon="-0.16475">
        <ele>1376.4</ele>
        <time>2017-07-30T11:17:47Z</time>
      </trkpt>
      <trkpt lat="42.59485" lon="-0.16475">
        <ele>1375.6</ele>
        <time>2017-07-30T11:17:50Z</time>
      </trkpt>
      <trkpt lat="42.59481" lon="-0.16476">
        <ele>1374.6</ele>
        <time>2017-07-30T11:17:52Z</time>
      </trkpt>
      <trkpt lat="42.59477" lon="-0.16477">
        <ele>1373.6</ele>
        <time>2017-07-30T11:17:54Z</time>
      </trkpt>
      <trkpt lat="42.59473" lon="-0.16478">
        <ele>1372.5</ele>
        <time>2017-07-30T11:17:56Z</time>
      </trkpt>
      <trkpt lat="42.5947" lon="-0.16478">
        <ele>1371.7</ele>
        <time>2017-07-30T11:17:59Z</time>
      </trkpt>
      <trkpt lat="42.59467" lon="-0.16477">
        <ele>1370.8</ele>
        <time>2017-07-30T11:18:05Z</time>
      </trkpt>
      <trkpt lat="42.59464" lon="-0.16476">
        <ele>1370</ele>
        <time>2017-07-30T11:18:09Z</time>
      </trkpt>
      <trkpt lat="42.59461" lon="-0.16477">
        <ele>1369.3</ele>
        <time>2017-07-30T11:18:18Z</time>
      </trkpt>
      <trkpt lat="42.59459" lon="-0.16474">
        <ele>1368.9</ele>
        <time>2017-07-30T11:18:27Z</time>
      </trkpt>
      <trkpt lat="42.59457" lon="-0.16471">
        <ele>1368.5</ele>
        <time>2017-07-30T11:18:34Z</time>
      </trkpt>
      <trkpt lat="42.59455" lon="-0.16468">
        <ele>1368.2</ele>
        <time>2017-07-30T11:18:38Z</time>
      </trkpt>
      <trkpt lat="42.59453" lon="-0.16466">
        <ele>1367.6</ele>
        <time>2017-07-30T11:18:44Z</time>
      </trkpt>
      <trkpt lat="42.5945" lon="-0.16464">
        <ele>1366.7</ele>
        <time>2017-07-30T11:18:48Z</time>
      </trkpt>
      <trkpt lat="42.59448" lon="-0.16461">
        <ele>1366</ele>
        <time>2017-07-30T11:18:55Z</time>
      </trkpt>
      <trkpt lat="42.59445" lon="-0.1646">
        <ele>1365.1</ele>
        <time>2017-07-30T11:19:03Z</time>
      </trkpt>
      <trkpt lat="42.59443" lon="-0.16461">
        <ele>1364</ele>
        <time>2017-07-30T11:19:07Z</time>
      </trkpt>
      <trkpt lat="42.59441" lon="-0.16458">
        <ele>1362.9</ele>
        <time>2017-07-30T11:19:11Z</time>
      </trkpt>
      <trkpt lat="42.5944" lon="-0.16454">
        <ele>1361.6</ele>
        <time>2017-07-30T11:19:20Z</time>
      </trkpt>
      <trkpt lat="42.59437" lon="-0.16452">
        <ele>1360.4</ele>
        <time>2017-07-30T11:19:30Z</time>
      </trkpt>
      <trkpt lat="42.59435" lon="-0.16453">
        <ele>1359.2</ele>
        <time>2017-07-30T11:19:33Z</time>
      </trkpt>
      <trkpt lat="42.59431" lon="-0.16454">
        <ele>1357.7</ele>
        <time>2017-07-30T11:19:36Z</time>
      </trkpt>
      <trkpt lat="42.59427" lon="-0.16454">
        <ele>1356.5</ele>
        <time>2017-07-30T11:19:39Z</time>
      </trkpt>
      <trkpt lat="42.59425" lon="-0.16451">
        <ele>1355.4</ele>
        <time>2017-07-30T11:19:41Z</time>
      </trkpt>
      <trkpt lat="42.59424" lon="-0.16446">
        <ele>1354.5</ele>
        <time>2017-07-30T11:19:43Z</time>
      </trkpt>
      <trkpt lat="42.59426" lon="-0.16442">
        <ele>1353.8</ele>
        <time>2017-07-30T11:19:46Z</time>
      </trkpt>
      <trkpt lat="42.59429" lon="-0.16439">
        <ele>1353.1</ele>
        <time>2017-07-30T11:19:48Z</time>
      </trkpt>
      <trkpt lat="42.59431" lon="-0.16436">
        <ele>1352.5</ele>
        <time>2017-07-30T11:19:50Z</time>
      </trkpt>
      <trkpt lat="42.59434" lon="-0.16432">
        <ele>1352</ele>
        <time>2017-07-30T11:19:52Z</time>
      </trkpt>
      <trkpt lat="42.59436" lon="-0.16429">
        <ele>1351.6</ele>
        <time>2017-07-30T11:19:55Z</time>
      </trkpt>
      <trkpt lat="42.59438" lon="-0.16426">
        <ele>1351</ele>
        <time>2017-07-30T11:20:02Z</time>
      </trkpt>
      <trkpt lat="42.5944" lon="-0.16423">
        <ele>1350.4</ele>
        <time>2017-07-30T11:20:04Z</time>
      </trkpt>
      <trkpt lat="42.59442" lon="-0.1642">
        <ele>1349.8</ele>
        <time>2017-07-30T11:20:06Z</time>
      </trkpt>
      <trkpt lat="42.59444" lon="-0.16416">
        <ele>1349.1</ele>
        <time>2017-07-30T11:20:08Z</time>
      </trkpt>
      <trkpt lat="42.59447" lon="-0.16412">
        <ele>1348.2</ele>
        <time>2017-07-30T11:20:10Z</time>
      </trkpt>
      <trkpt lat="42.5945" lon="-0.16409">
        <ele>1347.2</ele>
        <time>2017-07-30T11:20:12Z</time>
      </trkpt>
      <trkpt lat="42.59453" lon="-0.16405">
        <ele>1346.2</ele>
        <time>2017-07-30T11:20:14Z</time>
      </trkpt>
      <trkpt lat="42.59456" lon="-0.16401">
        <ele>1345.6</ele>
        <time>2017-07-30T11:20:16Z</time>
      </trkpt>
      <trkpt lat="42.59458" lon="-0.16399">
        <ele>1344.9</ele>
        <time>2017-07-30T11:20:19Z</time>
      </trkpt>
      <trkpt lat="42.59461" lon="-0.16396">
        <ele>1344.2</ele>
        <time>2017-07-30T11:20:22Z</time>
      </trkpt>
      <trkpt lat="42.59464" lon="-0.16391">
        <ele>1344</ele>
        <time>2017-07-30T11:20:24Z</time>
      </trkpt>
      <trkpt lat="42.59467" lon="-0.16387">
        <ele>1343.2</ele>
        <time>2017-07-30T11:20:26Z</time>
      </trkpt>
      <trkpt lat="42.59471" lon="-0.16382">
        <ele>1342.2</ele>
        <time>2017-07-30T11:20:28Z</time>
      </trkpt>
      <trkpt lat="42.59473" lon="-0.16379">
        <ele>1342.3</ele>
        <time>2017-07-30T11:20:29Z</time>
      </trkpt>
      <trkpt lat="42.59475" lon="-0.16376">
        <ele>1342.5</ele>
        <time>2017-07-30T11:20:30Z</time>
      </trkpt>
      <trkpt lat="42.59476" lon="-0.16372">
        <ele>1342.7</ele>
        <time>2017-07-30T11:20:31Z</time>
      </trkpt>
      <trkpt lat="42.59479" lon="-0.16367">
        <ele>1342.2</ele>
        <time>2017-07-30T11:20:33Z</time>
      </trkpt>
      <trkpt lat="42.59481" lon="-0.16362">
        <ele>1341.8</ele>
        <time>2017-07-30T11:20:35Z</time>
      </trkpt>
      <trkpt lat="42.59482" lon="-0.16357">
        <ele>1341.4</ele>
        <time>2017-07-30T11:20:37Z</time>
      </trkpt>
      <trkpt lat="42.59482" lon="-0.16352">
        <ele>1341</ele>
        <time>2017-07-30T11:20:39Z</time>
      </trkpt>
      <trkpt lat="42.59483" lon="-0.16346">
        <ele>1340.4</ele>
        <time>2017-07-30T11:20:41Z</time>
      </trkpt>
      <trkpt lat="42.59483" lon="-0.1634">
        <ele>1339.7</ele>
        <time>2017-07-30T11:20:43Z</time>
      </trkpt>
      <trkpt lat="42.59482" lon="-0.16335">
        <ele>1338.9</ele>
        <time>2017-07-30T11:20:45Z</time>
      </trkpt>
      <trkpt lat="42.59482" lon="-0.16329">
        <ele>1338</ele>
        <time>2017-07-30T11:20:47Z</time>
      </trkpt>
      <trkpt lat="42.59482" lon="-0.16325">
        <ele>1337.3</ele>
        <time>2017-07-30T11:20:49Z</time>
      </trkpt>
      <trkpt lat="42.59482" lon="-0.16321">
        <ele>1336.6</ele>
        <time>2017-07-30T11:20:51Z</time>
      </trkpt>
      <trkpt lat="42.59483" lon="-0.16315">
        <ele>1335.7</ele>
        <time>2017-07-30T11:20:53Z</time>
      </trkpt>
      <trkpt lat="42.59483" lon="-0.16311">
        <ele>1335.1</ele>
        <time>2017-07-30T11:20:55Z</time>
      </trkpt>
      <trkpt lat="42.59483" lon="-0.16305">
        <ele>1334.6</ele>
        <time>2017-07-30T11:20:57Z</time>
      </trkpt>
      <trkpt lat="42.59481" lon="-0.163">
        <ele>1334</ele>
        <time>2017-07-30T11:20:59Z</time>
      </trkpt>
      <trkpt lat="42.5948" lon="-0.16297">
        <ele>1333.5</ele>
        <time>2017-07-30T11:21:02Z</time>
      </trkpt>
      <trkpt lat="42.59479" lon="-0.16292">
        <ele>1332.9</ele>
        <time>2017-07-30T11:21:07Z</time>
      </trkpt>
      <trkpt lat="42.5948" lon="-0.16288">
        <ele>1332.3</ele>
        <time>2017-07-30T11:21:13Z</time>
      </trkpt>
      <trkpt lat="42.5948" lon="-0.16285">
        <ele>1331.6</ele>
        <time>2017-07-30T11:21:15Z</time>
      </trkpt>
      <trkpt lat="42.59479" lon="-0.1628">
        <ele>1330.6</ele>
        <time>2017-07-30T11:21:17Z</time>
      </trkpt>
      <trkpt lat="42.59478" lon="-0.16273">
        <ele>1330</ele>
        <time>2017-07-30T11:21:19Z</time>
      </trkpt>
      <trkpt lat="42.59477" lon="-0.16267">
        <ele>1329.5</ele>
        <time>2017-07-30T11:21:21Z</time>
      </trkpt>
      <trkpt lat="42.59477" lon="-0.16261">
        <ele>1328.8</ele>
        <time>2017-07-30T11:21:23Z</time>
      </trkpt>
      <trkpt lat="42.59477" lon="-0.16256">
        <ele>1328.2</ele>
        <time>2017-07-30T11:21:25Z</time>
      </trkpt>
      <trkpt lat="42.59477" lon="-0.16251">
        <ele>1327.1</ele>
        <time>2017-07-30T11:21:27Z</time>
      </trkpt>
      <trkpt lat="42.59477" lon="-0.16247">
        <ele>1326.2</ele>
        <time>2017-07-30T11:21:29Z</time>
      </trkpt>
      <trkpt lat="42.59476" lon="-0.16243">
        <ele>1325.3</ele>
        <time>2017-07-30T11:21:35Z</time>
      </trkpt>
      <trkpt lat="42.59475" lon="-0.16239">
        <ele>1324.7</ele>
        <time>2017-07-30T11:21:37Z</time>
      </trkpt>
      <trkpt lat="42.59475" lon="-0.16235">
        <ele>1324.2</ele>
        <time>2017-07-30T11:21:39Z</time>
      </trkpt>
      <trkpt lat="42.59476" lon="-0.16232">
        <ele>1323.7</ele>
        <time>2017-07-30T11:21:46Z</time>
      </trkpt>
      <trkpt lat="42.59476" lon="-0.16228">
        <ele>1322.9</ele>
        <time>2017-07-30T11:21:48Z</time>
      </trkpt>
      <trkpt lat="42.59476" lon="-0.16223">
        <ele>1322</ele>
        <time>2017-07-30T11:21:50Z</time>
      </trkpt>
      <trkpt lat="42.59476" lon="-0.16216">
        <ele>1320.7</ele>
        <time>2017-07-30T11:21:52Z</time>
      </trkpt>
      <trkpt lat="42.59476" lon="-0.16211">
        <ele>1319.4</ele>
        <time>2017-07-30T11:21:54Z</time>
      </trkpt>
      <trkpt lat="42.59476" lon="-0.16206">
        <ele>1318.4</ele>
        <time>2017-07-30T11:22:01Z</time>
      </trkpt>
      <trkpt lat="42.59476" lon="-0.16202">
        <ele>1317.9</ele>
        <time>2017-07-30T11:22:05Z</time>
      </trkpt>
      <trkpt lat="42.59477" lon="-0.16197">
        <ele>1317.2</ele>
        <time>2017-07-30T11:22:08Z</time>
      </trkpt>
      <trkpt lat="42.59479" lon="-0.16192">
        <ele>1315.7</ele>
        <time>2017-07-30T11:22:10Z</time>
      </trkpt>
      <trkpt lat="42.5948" lon="-0.16188">
        <ele>1314.3</ele>
        <time>2017-07-30T11:22:12Z</time>
      </trkpt>
      <trkpt lat="42.59481" lon="-0.16184">
        <ele>1313.3</ele>
        <time>2017-07-30T11:22:14Z</time>
      </trkpt>
      <trkpt lat="42.59483" lon="-0.16178">
        <ele>1312.6</ele>
        <time>2017-07-30T11:22:16Z</time>
      </trkpt>
      <trkpt lat="42.59486" lon="-0.16173">
        <ele>1310.7</ele>
        <time>2017-07-30T11:22:18Z</time>
      </trkpt>
      <trkpt lat="42.5949" lon="-0.16168">
        <ele>1308.2</ele>
        <time>2017-07-30T11:22:20Z</time>
      </trkpt>
      <trkpt lat="42.59492" lon="-0.16166">
        <ele>1307.7</ele>
        <time>2017-07-30T11:22:21Z</time>
      </trkpt>
      <trkpt lat="42.59494" lon="-0.16163">
        <ele>1307.1</ele>
        <time>2017-07-30T11:22:22Z</time>
      </trkpt>
      <trkpt lat="42.59496" lon="-0.16159">
        <ele>1306.5</ele>
        <time>2017-07-30T11:22:23Z</time>
      </trkpt>
      <trkpt lat="42.59498" lon="-0.16156">
        <ele>1305.8</ele>
        <time>2017-07-30T11:22:24Z</time>
      </trkpt>
      <trkpt lat="42.595" lon="-0.16151">
        <ele>1304.8</ele>
        <time>2017-07-30T11:22:26Z</time>
      </trkpt>
      <trkpt lat="42.59503" lon="-0.16147">
        <ele>1303.3</ele>
        <time>2017-07-30T11:22:28Z</time>
      </trkpt>
      <trkpt lat="42.59505" lon="-0.16144">
        <ele>1302.2</ele>
        <time>2017-07-30T11:22:30Z</time>
      </trkpt>
      <trkpt lat="42.59507" lon="-0.1614">
        <ele>1301.9</ele>
        <time>2017-07-30T11:22:32Z</time>
      </trkpt>
      <trkpt lat="42.5951" lon="-0.16137">
        <ele>1302.4</ele>
        <time>2017-07-30T11:22:34Z</time>
      </trkpt>
      <trkpt lat="42.59514" lon="-0.1613">
        <ele>1302.5</ele>
        <time>2017-07-30T11:22:36Z</time>
      </trkpt>
      <trkpt lat="42.59516" lon="-0.16127">
        <ele>1302.3</ele>
        <time>2017-07-30T11:22:37Z</time>
      </trkpt>
      <trkpt lat="42.59519" lon="-0.16123">
        <ele>1302</ele>
        <time>2017-07-30T11:22:39Z</time>
      </trkpt>
      <trkpt lat="42.59522" lon="-0.16121">
        <ele>1301.8</ele>
        <time>2017-07-30T11:22:41Z</time>
      </trkpt>
      <trkpt lat="42.59525" lon="-0.16121">
        <ele>1301.5</ele>
        <time>2017-07-30T11:22:44Z</time>
      </trkpt>
      <trkpt lat="42.59522" lon="-0.16119">
        <ele>1301</ele>
        <time>2017-07-30T11:22:52Z</time>
      </trkpt>
      <trkpt lat="42.59519" lon="-0.16119">
        <ele>1300.6</ele>
        <time>2017-07-30T11:22:55Z</time>
      </trkpt>
      <trkpt lat="42.59523" lon="-0.16117">
        <ele>1300.5</ele>
        <time>2017-07-30T11:23:01Z</time>
      </trkpt>
      <trkpt lat="42.59527" lon="-0.16116">
        <ele>1301.1</ele>
        <time>2017-07-30T11:23:03Z</time>
      </trkpt>
      <trkpt lat="42.59531" lon="-0.16116">
        <ele>1301.1</ele>
        <time>2017-07-30T11:23:05Z</time>
      </trkpt>
      <trkpt lat="42.59536" lon="-0.16116">
        <ele>1300.4</ele>
        <time>2017-07-30T11:23:07Z</time>
      </trkpt>
      <trkpt lat="42.59538" lon="-0.16111">
        <ele>1299.9</ele>
        <time>2017-07-30T11:23:10Z</time>
      </trkpt>
      <trkpt lat="42.59536" lon="-0.16105">
        <ele>1299.6</ele>
        <time>2017-07-30T11:23:12Z</time>
      </trkpt>
      <trkpt lat="42.59534" lon="-0.16101">
        <ele>1298.5</ele>
        <time>2017-07-30T11:23:13Z</time>
      </trkpt>
      <trkpt lat="42.59531" lon="-0.16098">
        <ele>1297.4</ele>
        <time>2017-07-30T11:23:14Z</time>
      </trkpt>
      <trkpt lat="42.59529" lon="-0.16096">
        <ele>1296.2</ele>
        <time>2017-07-30T11:23:15Z</time>
      </trkpt>
      <trkpt lat="42.59525" lon="-0.16093">
        <ele>1294.5</ele>
        <time>2017-07-30T11:23:17Z</time>
      </trkpt>
      <trkpt lat="42.59521" lon="-0.1609">
        <ele>1292.9</ele>
        <time>2017-07-30T11:23:19Z</time>
      </trkpt>
      <trkpt lat="42.59519" lon="-0.16086">
        <ele>1291.8</ele>
        <time>2017-07-30T11:23:21Z</time>
      </trkpt>
      <trkpt lat="42.59517" lon="-0.16083">
        <ele>1290.9</ele>
        <time>2017-07-30T11:23:46Z</time>
      </trkpt>
      <trkpt lat="42.59519" lon="-0.16081">
        <ele>1290.1</ele>
        <time>2017-07-30T11:23:56Z</time>
      </trkpt>
      <trkpt lat="42.59519" lon="-0.16077">
        <ele>1289.5</ele>
        <time>2017-07-30T11:24:03Z</time>
      </trkpt>
      <trkpt lat="42.59517" lon="-0.16074">
        <ele>1288.8</ele>
        <time>2017-07-30T11:24:08Z</time>
      </trkpt>
      <trkpt lat="42.59516" lon="-0.1607">
        <ele>1288.2</ele>
        <time>2017-07-30T11:24:12Z</time>
      </trkpt>
      <trkpt lat="42.59514" lon="-0.16066">
        <ele>1287.4</ele>
        <time>2017-07-30T11:24:16Z</time>
      </trkpt>
      <trkpt lat="42.59511" lon="-0.16063">
        <ele>1286.7</ele>
        <time>2017-07-30T11:24:18Z</time>
      </trkpt>
      <trkpt lat="42.59508" lon="-0.16063">
        <ele>1287</ele>
        <time>2017-07-30T11:24:20Z</time>
      </trkpt>
      <trkpt lat="42.59505" lon="-0.16065">
        <ele>1287.8</ele>
        <time>2017-07-30T11:24:22Z</time>
      </trkpt>
      <trkpt lat="42.59502" lon="-0.16063">
        <ele>1288</ele>
        <time>2017-07-30T11:24:25Z</time>
      </trkpt>
      <trkpt lat="42.59503" lon="-0.16059">
        <ele>1287.8</ele>
        <time>2017-07-30T11:24:28Z</time>
      </trkpt>
      <trkpt lat="42.59506" lon="-0.16056">
        <ele>1286.9</ele>
        <time>2017-07-30T11:24:30Z</time>
      </trkpt>
      <trkpt lat="42.59508" lon="-0.16052">
        <ele>1284.9</ele>
        <time>2017-07-30T11:24:32Z</time>
      </trkpt>
      <trkpt lat="42.5951" lon="-0.16049">
        <ele>1283.2</ele>
        <time>2017-07-30T11:24:34Z</time>
      </trkpt>
      <trkpt lat="42.59514" lon="-0.16047">
        <ele>1281.6</ele>
        <time>2017-07-30T11:24:37Z</time>
      </trkpt>
      <trkpt lat="42.59517" lon="-0.16047">
        <ele>1280.4</ele>
        <time>2017-07-30T11:24:39Z</time>
      </trkpt>
      <trkpt lat="42.5952" lon="-0.16046">
        <ele>1279.3</ele>
        <time>2017-07-30T11:24:41Z</time>
      </trkpt>
      <trkpt lat="42.59519" lon="-0.16041">
        <ele>1277.8</ele>
        <time>2017-07-30T11:24:44Z</time>
      </trkpt>
      <trkpt lat="42.59516" lon="-0.16038">
        <ele>1276.2</ele>
        <time>2017-07-30T11:24:46Z</time>
      </trkpt>
      <trkpt lat="42.59512" lon="-0.16035">
        <ele>1274</ele>
        <time>2017-07-30T11:24:48Z</time>
      </trkpt>
      <trkpt lat="42.59508" lon="-0.16032">
        <ele>1272.2</ele>
        <time>2017-07-30T11:24:50Z</time>
      </trkpt>
      <trkpt lat="42.59504" lon="-0.16031">
        <ele>1270.6</ele>
        <time>2017-07-30T11:24:52Z</time>
      </trkpt>
      <trkpt lat="42.59501" lon="-0.1603">
        <ele>1269.6</ele>
        <time>2017-07-30T11:24:53Z</time>
      </trkpt>
      <trkpt lat="42.59498" lon="-0.16029">
        <ele>1268.6</ele>
        <time>2017-07-30T11:24:55Z</time>
      </trkpt>
      <trkpt lat="42.59501" lon="-0.16027">
        <ele>1267.6</ele>
        <time>2017-07-30T11:25:04Z</time>
      </trkpt>
      <trkpt lat="42.59503" lon="-0.16025">
        <ele>1266</ele>
        <time>2017-07-30T11:25:09Z</time>
      </trkpt>
      <trkpt lat="42.59506" lon="-0.16023">
        <ele>1264.5</ele>
        <time>2017-07-30T11:25:16Z</time>
      </trkpt>
      <trkpt lat="42.59507" lon="-0.16018">
        <ele>1263.2</ele>
        <time>2017-07-30T11:25:21Z</time>
      </trkpt>
      <trkpt lat="42.59505" lon="-0.16014">
        <ele>1262.1</ele>
        <time>2017-07-30T11:25:24Z</time>
      </trkpt>
      <trkpt lat="42.59503" lon="-0.16011">
        <ele>1261.3</ele>
        <time>2017-07-30T11:25:27Z</time>
      </trkpt>
      <trkpt lat="42.595" lon="-0.16009">
        <ele>1260.8</ele>
        <time>2017-07-30T11:25:29Z</time>
      </trkpt>
      <trkpt lat="42.59498" lon="-0.16005">
        <ele>1260.2</ele>
        <time>2017-07-30T11:25:32Z</time>
      </trkpt>
      <trkpt lat="42.59498" lon="-0.16001">
        <ele>1259</ele>
        <time>2017-07-30T11:25:37Z</time>
      </trkpt>
      <trkpt lat="42.59498" lon="-0.15997">
        <ele>1257.8</ele>
        <time>2017-07-30T11:25:45Z</time>
      </trkpt>
      <trkpt lat="42.595" lon="-0.15995">
        <ele>1256.7</ele>
        <time>2017-07-30T11:25:52Z</time>
      </trkpt>
      <trkpt lat="42.59503" lon="-0.15993">
        <ele>1255.7</ele>
        <time>2017-07-30T11:25:57Z</time>
      </trkpt>
      <trkpt lat="42.59506" lon="-0.15991">
        <ele>1254.9</ele>
        <time>2017-07-30T11:26:01Z</time>
      </trkpt>
      <trkpt lat="42.59509" lon="-0.15991">
        <ele>1253.7</ele>
        <time>2017-07-30T11:26:05Z</time>
      </trkpt>
      <trkpt lat="42.59512" lon="-0.15989">
        <ele>1252.5</ele>
        <time>2017-07-30T11:26:11Z</time>
      </trkpt>
      <trkpt lat="42.59511" lon="-0.15985">
        <ele>1251.1</ele>
        <time>2017-07-30T11:26:14Z</time>
      </trkpt>
      <trkpt lat="42.59508" lon="-0.15981">
        <ele>1249.6</ele>
        <time>2017-07-30T11:26:16Z</time>
      </trkpt>
      <trkpt lat="42.59505" lon="-0.15978">
        <ele>1248.1</ele>
        <time>2017-07-30T11:26:18Z</time>
      </trkpt>
      <trkpt lat="42.59502" lon="-0.15974">
        <ele>1246.1</ele>
        <time>2017-07-30T11:26:20Z</time>
      </trkpt>
      <trkpt lat="42.59498" lon="-0.15969">
        <ele>1244.7</ele>
        <time>2017-07-30T11:26:22Z</time>
      </trkpt>
      <trkpt lat="42.59495" lon="-0.15968">
        <ele>1243.9</ele>
        <time>2017-07-30T11:26:23Z</time>
      </trkpt>
      <trkpt lat="42.59492" lon="-0.15966">
        <ele>1242.5</ele>
        <time>2017-07-30T11:26:24Z</time>
      </trkpt>
      <trkpt lat="42.59489" lon="-0.15966">
        <ele>1241.2</ele>
        <time>2017-07-30T11:26:25Z</time>
      </trkpt>
      <trkpt lat="42.59484" lon="-0.15965">
        <ele>1237.8</ele>
        <time>2017-07-30T11:26:27Z</time>
      </trkpt>
      <trkpt lat="42.59488" lon="-0.15964">
        <ele>1234.8</ele>
        <time>2017-07-30T11:26:39Z</time>
      </trkpt>
      <trkpt lat="42.59492" lon="-0.15962">
        <ele>1232.8</ele>
        <time>2017-07-30T11:26:41Z</time>
      </trkpt>
      <trkpt lat="42.59496" lon="-0.15958">
        <ele>1230.7</ele>
        <time>2017-07-30T11:26:43Z</time>
      </trkpt>
      <trkpt lat="42.59499" lon="-0.15954">
        <ele>1227.8</ele>
        <time>2017-07-30T11:26:45Z</time>
      </trkpt>
      <trkpt lat="42.59502" lon="-0.15952">
        <ele>1226</ele>
        <time>2017-07-30T11:26:48Z</time>
      </trkpt>
      <trkpt lat="42.59504" lon="-0.15952">
        <ele>1224.5</ele>
        <time>2017-07-30T11:26:53Z</time>
      </trkpt>
      <trkpt lat="42.59507" lon="-0.1595">
        <ele>1224.3</ele>
        <time>2017-07-30T11:26:56Z</time>
      </trkpt>
      <trkpt lat="42.5951" lon="-0.1595">
        <ele>1224.1</ele>
        <time>2017-07-30T11:26:58Z</time>
      </trkpt>
      <trkpt lat="42.59513" lon="-0.15948">
        <ele>1223.8</ele>
        <time>2017-07-30T11:27:00Z</time>
      </trkpt>
      <trkpt lat="42.59516" lon="-0.15947">
        <ele>1223.6</ele>
        <time>2017-07-30T11:27:02Z</time>
      </trkpt>
      <trkpt lat="42.5952" lon="-0.15945">
        <ele>1223.4</ele>
        <time>2017-07-30T11:27:05Z</time>
      </trkpt>
      <trkpt lat="42.59523" lon="-0.15946">
        <ele>1223.9</ele>
        <time>2017-07-30T11:27:07Z</time>
      </trkpt>
      <trkpt lat="42.59527" lon="-0.15948">
        <ele>1224.4</ele>
        <time>2017-07-30T11:27:09Z</time>
      </trkpt>
      <trkpt lat="42.5953" lon="-0.15951">
        <ele>1225.4</ele>
        <time>2017-07-30T11:27:11Z</time>
      </trkpt>
      <trkpt lat="42.59533" lon="-0.15952">
        <ele>1226.3</ele>
        <time>2017-07-30T11:27:14Z</time>
      </trkpt>
      <trkpt lat="42.59536" lon="-0.15954">
        <ele>1227.1</ele>
        <time>2017-07-30T11:27:16Z</time>
      </trkpt>
      <trkpt lat="42.5954" lon="-0.15956">
        <ele>1226.1</ele>
        <time>2017-07-30T11:27:18Z</time>
      </trkpt>
      <trkpt lat="42.59543" lon="-0.15957">
        <ele>1225.5</ele>
        <time>2017-07-30T11:27:20Z</time>
      </trkpt>
      <trkpt lat="42.59545" lon="-0.15959">
        <ele>1225.4</ele>
        <time>2017-07-30T11:27:22Z</time>
      </trkpt>
      <trkpt lat="42.59549" lon="-0.15963">
        <ele>1226.5</ele>
        <time>2017-07-30T11:27:24Z</time>
      </trkpt>
      <trkpt lat="42.59552" lon="-0.15964">
        <ele>1226.3</ele>
        <time>2017-07-30T11:27:27Z</time>
      </trkpt>
      <trkpt lat="42.59552" lon="-0.1596">
        <ele>1226.1</ele>
        <time>2017-07-30T11:27:30Z</time>
      </trkpt>
      <trkpt lat="42.59553" lon="-0.15956">
        <ele>1225.6</ele>
        <time>2017-07-30T11:27:33Z</time>
      </trkpt>
      <trkpt lat="42.59557" lon="-0.15958">
        <ele>1225</ele>
        <time>2017-07-30T11:27:36Z</time>
      </trkpt>
      <trkpt lat="42.59551" lon="-0.15959">
        <ele>1222.7</ele>
        <time>2017-07-30T11:29:01Z</time>
      </trkpt>
      <trkpt lat="42.59556" lon="-0.15961">
        <ele>1221.1</ele>
        <time>2017-07-30T11:29:03Z</time>
      </trkpt>
      <trkpt lat="42.59559" lon="-0.15962">
        <ele>1219.7</ele>
        <time>2017-07-30T11:29:05Z</time>
      </trkpt>
      <trkpt lat="42.59564" lon="-0.15962">
        <ele>1218.5</ele>
        <time>2017-07-30T11:29:07Z</time>
      </trkpt>
      <trkpt lat="42.59568" lon="-0.15961">
        <ele>1216.9</ele>
        <time>2017-07-30T11:29:09Z</time>
      </trkpt>
      <trkpt lat="42.59572" lon="-0.15959">
        <ele>1213.9</ele>
        <time>2017-07-30T11:29:11Z</time>
      </trkpt>
      <trkpt lat="42.59575" lon="-0.15958">
        <ele>1211.3</ele>
        <time>2017-07-30T11:29:13Z</time>
      </trkpt>
      <trkpt lat="42.59577" lon="-0.15955">
        <ele>1209.2</ele>
        <time>2017-07-30T11:29:15Z</time>
      </trkpt>
      <trkpt lat="42.59579" lon="-0.15951">
        <ele>1206.7</ele>
        <time>2017-07-30T11:29:17Z</time>
      </trkpt>
      <trkpt lat="42.59581" lon="-0.15947">
        <ele>1204.4</ele>
        <time>2017-07-30T11:29:19Z</time>
      </trkpt>
      <trkpt lat="42.59583" lon="-0.15944">
        <ele>1202.9</ele>
        <time>2017-07-30T11:29:21Z</time>
      </trkpt>
      <trkpt lat="42.59586" lon="-0.15941">
        <ele>1200.8</ele>
        <time>2017-07-30T11:29:24Z</time>
      </trkpt>
      <trkpt lat="42.59588" lon="-0.15938">
        <ele>1199.1</ele>
        <time>2017-07-30T11:29:26Z</time>
      </trkpt>
      <trkpt lat="42.5959" lon="-0.15933">
        <ele>1197.3</ele>
        <time>2017-07-30T11:29:28Z</time>
      </trkpt>
      <trkpt lat="42.59591" lon="-0.15929">
        <ele>1195.7</ele>
        <time>2017-07-30T11:29:30Z</time>
      </trkpt>
      <trkpt lat="42.59594" lon="-0.15925">
        <ele>1195.6</ele>
        <time>2017-07-30T11:29:32Z</time>
      </trkpt>
      <trkpt lat="42.59597" lon="-0.15923">
        <ele>1195.5</ele>
        <time>2017-07-30T11:29:34Z</time>
      </trkpt>
      <trkpt lat="42.59602" lon="-0.1592">
        <ele>1194.6</ele>
        <time>2017-07-30T11:29:36Z</time>
      </trkpt>
      <trkpt lat="42.59604" lon="-0.15919">
        <ele>1194.1</ele>
        <time>2017-07-30T11:29:38Z</time>
      </trkpt>
      <trkpt lat="42.59608" lon="-0.15919">
        <ele>1193.7</ele>
        <time>2017-07-30T11:29:41Z</time>
      </trkpt>
      <trkpt lat="42.5961" lon="-0.15917">
        <ele>1194.1</ele>
        <time>2017-07-30T11:29:43Z</time>
      </trkpt>
      <trkpt lat="42.59613" lon="-0.15916">
        <ele>1194.5</ele>
        <time>2017-07-30T11:29:46Z</time>
      </trkpt>
      <trkpt lat="42.59617" lon="-0.15916">
        <ele>1195</ele>
        <time>2017-07-30T11:29:48Z</time>
      </trkpt>
      <trkpt lat="42.59622" lon="-0.15917">
        <ele>1195.4</ele>
        <time>2017-07-30T11:29:50Z</time>
      </trkpt>
      <trkpt lat="42.59625" lon="-0.15917">
        <ele>1195.7</ele>
        <time>2017-07-30T11:29:51Z</time>
      </trkpt>
      <trkpt lat="42.59627" lon="-0.15917">
        <ele>1195</ele>
        <time>2017-07-30T11:29:52Z</time>
      </trkpt>
      <trkpt lat="42.59632" lon="-0.15918">
        <ele>1194</ele>
        <time>2017-07-30T11:29:54Z</time>
      </trkpt>
      <trkpt lat="42.59637" lon="-0.1592">
        <ele>1193.2</ele>
        <time>2017-07-30T11:29:56Z</time>
      </trkpt>
      <trkpt lat="42.59642" lon="-0.1592">
        <ele>1192.7</ele>
        <time>2017-07-30T11:29:58Z</time>
      </trkpt>
      <trkpt lat="42.59647" lon="-0.15919">
        <ele>1190.1</ele>
        <time>2017-07-30T11:30:00Z</time>
      </trkpt>
      <trkpt lat="42.59651" lon="-0.15917">
        <ele>1187.6</ele>
        <time>2017-07-30T11:30:02Z</time>
      </trkpt>
      <trkpt lat="42.59655" lon="-0.15916">
        <ele>1186.4</ele>
        <time>2017-07-30T11:30:04Z</time>
      </trkpt>
      <trkpt lat="42.59658" lon="-0.15915">
        <ele>1185.3</ele>
        <time>2017-07-30T11:30:07Z</time>
      </trkpt>
      <trkpt lat="42.59661" lon="-0.15914">
        <ele>1183.6</ele>
        <time>2017-07-30T11:30:09Z</time>
      </trkpt>
      <trkpt lat="42.59666" lon="-0.15912">
        <ele>1180.8</ele>
        <time>2017-07-30T11:30:11Z</time>
      </trkpt>
      <trkpt lat="42.5967" lon="-0.1591">
        <ele>1178.9</ele>
        <time>2017-07-30T11:30:13Z</time>
      </trkpt>
      <trkpt lat="42.59675" lon="-0.15907">
        <ele>1176.8</ele>
        <time>2017-07-30T11:30:15Z</time>
      </trkpt>
      <trkpt lat="42.59678" lon="-0.15905">
        <ele>1175.3</ele>
        <time>2017-07-30T11:30:16Z</time>
      </trkpt>
      <trkpt lat="42.59682" lon="-0.15904">
        <ele>1173.6</ele>
        <time>2017-07-30T11:30:17Z</time>
      </trkpt>
      <trkpt lat="42.59685" lon="-0.15904">
        <ele>1172.9</ele>
        <time>2017-07-30T11:30:18Z</time>
      </trkpt>
      <trkpt lat="42.59689" lon="-0.15904">
        <ele>1172.2</ele>
        <time>2017-07-30T11:30:19Z</time>
      </trkpt>
      <trkpt lat="42.59692" lon="-0.15905">
        <ele>1171.8</ele>
        <time>2017-07-30T11:30:20Z</time>
      </trkpt>
      <trkpt lat="42.59696" lon="-0.15906">
        <ele>1171.6</ele>
        <time>2017-07-30T11:30:21Z</time>
      </trkpt>
      <trkpt lat="42.597" lon="-0.15907">
        <ele>1171.4</ele>
        <time>2017-07-30T11:30:22Z</time>
      </trkpt>
      <trkpt lat="42.59703" lon="-0.15909">
        <ele>1171.5</ele>
        <time>2017-07-30T11:30:23Z</time>
      </trkpt>
      <trkpt lat="42.59705" lon="-0.15911">
        <ele>1171.5</ele>
        <time>2017-07-30T11:30:24Z</time>
      </trkpt>
      <trkpt lat="42.59709" lon="-0.15914">
        <ele>1172.3</ele>
        <time>2017-07-30T11:30:26Z</time>
      </trkpt>
      <trkpt lat="42.59711" lon="-0.15916">
        <ele>1173.1</ele>
        <time>2017-07-30T11:30:28Z</time>
      </trkpt>
      <trkpt lat="42.59714" lon="-0.15919">
        <ele>1174</ele>
        <time>2017-07-30T11:30:30Z</time>
      </trkpt>
      <trkpt lat="42.59716" lon="-0.15924">
        <ele>1174.2</ele>
        <time>2017-07-30T11:30:32Z</time>
      </trkpt>
      <trkpt lat="42.59718" lon="-0.15929">
        <ele>1174.6</ele>
        <time>2017-07-30T11:30:34Z</time>
      </trkpt>
      <trkpt lat="42.59721" lon="-0.15934">
        <ele>1175.6</ele>
        <time>2017-07-30T11:30:36Z</time>
      </trkpt>
      <trkpt lat="42.59725" lon="-0.15939">
        <ele>1176.6</ele>
        <time>2017-07-30T11:30:38Z</time>
      </trkpt>
      <trkpt lat="42.59728" lon="-0.15943">
        <ele>1177.2</ele>
        <time>2017-07-30T11:30:40Z</time>
      </trkpt>
      <trkpt lat="42.59732" lon="-0.15947">
        <ele>1178.1</ele>
        <time>2017-07-30T11:30:42Z</time>
      </trkpt>
      <trkpt lat="42.59736" lon="-0.15951">
        <ele>1179.5</ele>
        <time>2017-07-30T11:30:44Z</time>
      </trkpt>
      <trkpt lat="42.59739" lon="-0.15953">
        <ele>1179.5</ele>
        <time>2017-07-30T11:30:45Z</time>
      </trkpt>
      <trkpt lat="42.59742" lon="-0.15955">
        <ele>1179.3</ele>
        <time>2017-07-30T11:30:46Z</time>
      </trkpt>
      <trkpt lat="42.59744" lon="-0.15957">
        <ele>1179.4</ele>
        <time>2017-07-30T11:30:47Z</time>
      </trkpt>
      <trkpt lat="42.59749" lon="-0.15961">
        <ele>1180.2</ele>
        <time>2017-07-30T11:30:49Z</time>
      </trkpt>
      <trkpt lat="42.59754" lon="-0.15964">
        <ele>1180.9</ele>
        <time>2017-07-30T11:30:51Z</time>
      </trkpt>
      <trkpt lat="42.59756" lon="-0.15966">
        <ele>1176.2</ele>
        <time>2017-07-30T11:30:52Z</time>
      </trkpt>
      <trkpt lat="42.59759" lon="-0.15968">
        <ele>1177</ele>
        <time>2017-07-30T11:30:53Z</time>
      </trkpt>
      <trkpt lat="42.59762" lon="-0.15972">
        <ele>1177.9</ele>
        <time>2017-07-30T11:30:54Z</time>
      </trkpt>
      <trkpt lat="42.59764" lon="-0.15974">
        <ele>1178.7</ele>
        <time>2017-07-30T11:30:55Z</time>
      </trkpt>
      <trkpt lat="42.59766" lon="-0.15979">
        <ele>1179.4</ele>
        <time>2017-07-30T11:30:57Z</time>
      </trkpt>
      <trkpt lat="42.59764" lon="-0.15982">
        <ele>1179.6</ele>
        <time>2017-07-30T11:31:02Z</time>
      </trkpt>
      <trkpt lat="42.59766" lon="-0.15979">
        <ele>1178.4</ele>
        <time>2017-07-30T11:31:14Z</time>
      </trkpt>
      <trkpt lat="42.59764" lon="-0.15976">
        <ele>1177.8</ele>
        <time>2017-07-30T11:31:18Z</time>
      </trkpt>
      <trkpt lat="42.59762" lon="-0.15973">
        <ele>1177.3</ele>
        <time>2017-07-30T11:31:20Z</time>
      </trkpt>
      <trkpt lat="42.59762" lon="-0.15968">
        <ele>1176.6</ele>
        <time>2017-07-30T11:31:22Z</time>
      </trkpt>
      <trkpt lat="42.5976" lon="-0.15963">
        <ele>1176</ele>
        <time>2017-07-30T11:31:24Z</time>
      </trkpt>
      <trkpt lat="42.59758" lon="-0.15959">
        <ele>1175.5</ele>
        <time>2017-07-30T11:31:26Z</time>
      </trkpt>
      <trkpt lat="42.59756" lon="-0.15956">
        <ele>1175</ele>
        <time>2017-07-30T11:31:29Z</time>
      </trkpt>
      <trkpt lat="42.59756" lon="-0.15951">
        <ele>1174.3</ele>
        <time>2017-07-30T11:31:32Z</time>
      </trkpt>
      <trkpt lat="42.59756" lon="-0.15946">
        <ele>1173.8</ele>
        <time>2017-07-30T11:31:34Z</time>
      </trkpt>
      <trkpt lat="42.59755" lon="-0.15941">
        <ele>1172.9</ele>
        <time>2017-07-30T11:31:36Z</time>
      </trkpt>
      <trkpt lat="42.59755" lon="-0.15937">
        <ele>1171.7</ele>
        <time>2017-07-30T11:31:38Z</time>
      </trkpt>
      <trkpt lat="42.59753" lon="-0.15931">
        <ele>1170</ele>
        <time>2017-07-30T11:31:40Z</time>
      </trkpt>
      <trkpt lat="42.5975" lon="-0.15928">
        <ele>1169.3</ele>
        <time>2017-07-30T11:31:42Z</time>
      </trkpt>
      <trkpt lat="42.59747" lon="-0.15924">
        <ele>1168.7</ele>
        <time>2017-07-30T11:31:44Z</time>
      </trkpt>
      <trkpt lat="42.59747" lon="-0.15918">
        <ele>1167.9</ele>
        <time>2017-07-30T11:31:46Z</time>
      </trkpt>
      <trkpt lat="42.59747" lon="-0.15911">
        <ele>1167</ele>
        <time>2017-07-30T11:31:48Z</time>
      </trkpt>
      <trkpt lat="42.59746" lon="-0.15907">
        <ele>1166.3</ele>
        <time>2017-07-30T11:31:49Z</time>
      </trkpt>
      <trkpt lat="42.59747" lon="-0.15902">
        <ele>1165.5</ele>
        <time>2017-07-30T11:31:50Z</time>
      </trkpt>
      <trkpt lat="42.59747" lon="-0.15897">
        <ele>1164.7</ele>
        <time>2017-07-30T11:31:51Z</time>
      </trkpt>
      <trkpt lat="42.59747" lon="-0.15893">
        <ele>1164.3</ele>
        <time>2017-07-30T11:31:52Z</time>
      </trkpt>
      <trkpt lat="42.59748" lon="-0.15888">
        <ele>1163.8</ele>
        <time>2017-07-30T11:31:53Z</time>
      </trkpt>
      <trkpt lat="42.59748" lon="-0.15884">
        <ele>1163.4</ele>
        <time>2017-07-30T11:31:54Z</time>
      </trkpt>
      <trkpt lat="42.59749" lon="-0.15878">
        <ele>1162.9</ele>
        <time>2017-07-30T11:31:55Z</time>
      </trkpt>
      <trkpt lat="42.59749" lon="-0.15875">
        <ele>1162.2</ele>
        <time>2017-07-30T11:31:56Z</time>
      </trkpt>
      <trkpt lat="42.59749" lon="-0.15871">
        <ele>1161.4</ele>
        <time>2017-07-30T11:31:57Z</time>
      </trkpt>
      <trkpt lat="42.5975" lon="-0.15866">
        <ele>1160.3</ele>
        <time>2017-07-30T11:31:58Z</time>
      </trkpt>
      <trkpt lat="42.5975" lon="-0.15862">
        <ele>1159.8</ele>
        <time>2017-07-30T11:31:59Z</time>
      </trkpt>
      <trkpt lat="42.5975" lon="-0.15857">
        <ele>1159.3</ele>
        <time>2017-07-30T11:32:00Z</time>
      </trkpt>
      <trkpt lat="42.5975" lon="-0.15853">
        <ele>1158.3</ele>
        <time>2017-07-30T11:32:01Z</time>
      </trkpt>
      <trkpt lat="42.5975" lon="-0.15848">
        <ele>1157.2</ele>
        <time>2017-07-30T11:32:02Z</time>
      </trkpt>
      <trkpt lat="42.5975" lon="-0.15844">
        <ele>1156.9</ele>
        <time>2017-07-30T11:32:03Z</time>
      </trkpt>
      <trkpt lat="42.5975" lon="-0.1584">
        <ele>1156.5</ele>
        <time>2017-07-30T11:32:04Z</time>
      </trkpt>
      <trkpt lat="42.5975" lon="-0.15836">
        <ele>1156.2</ele>
        <time>2017-07-30T11:32:05Z</time>
      </trkpt>
      <trkpt lat="42.5975" lon="-0.15832">
        <ele>1155.9</ele>
        <time>2017-07-30T11:32:06Z</time>
      </trkpt>
      <trkpt lat="42.59751" lon="-0.15825">
        <ele>1156.6</ele>
        <time>2017-07-30T11:32:08Z</time>
      </trkpt>
      <trkpt lat="42.59753" lon="-0.15821">
        <ele>1157.5</ele>
        <time>2017-07-30T11:32:09Z</time>
      </trkpt>
      <trkpt lat="42.59755" lon="-0.15818">
        <ele>1158.1</ele>
        <time>2017-07-30T11:32:10Z</time>
      </trkpt>
      <trkpt lat="42.59757" lon="-0.15815">
        <ele>1158.6</ele>
        <time>2017-07-30T11:32:11Z</time>
      </trkpt>
      <trkpt lat="42.59759" lon="-0.15812">
        <ele>1159.7</ele>
        <time>2017-07-30T11:32:12Z</time>
      </trkpt>
      <trkpt lat="42.59761" lon="-0.1581">
        <ele>1160.9</ele>
        <time>2017-07-30T11:32:13Z</time>
      </trkpt>
      <trkpt lat="42.59765" lon="-0.15805">
        <ele>1160.7</ele>
        <time>2017-07-30T11:32:15Z</time>
      </trkpt>
      <trkpt lat="42.59767" lon="-0.15801">
        <ele>1160.7</ele>
        <time>2017-07-30T11:32:17Z</time>
      </trkpt>
      <trkpt lat="42.59769" lon="-0.15797">
        <ele>1161.4</ele>
        <time>2017-07-30T11:32:20Z</time>
      </trkpt>
      <trkpt lat="42.59768" lon="-0.15792">
        <ele>1160.1</ele>
        <time>2017-07-30T11:32:24Z</time>
      </trkpt>
      <trkpt lat="42.59766" lon="-0.1579">
        <ele>1159.1</ele>
        <time>2017-07-30T11:32:26Z</time>
      </trkpt>
      <trkpt lat="42.59763" lon="-0.15789">
        <ele>1158.2</ele>
        <time>2017-07-30T11:32:28Z</time>
      </trkpt>
      <trkpt lat="42.59759" lon="-0.1579">
        <ele>1157.7</ele>
        <time>2017-07-30T11:32:30Z</time>
      </trkpt>
      <trkpt lat="42.59755" lon="-0.15791">
        <ele>1157.1</ele>
        <time>2017-07-30T11:32:32Z</time>
      </trkpt>
      <trkpt lat="42.59751" lon="-0.15792">
        <ele>1156.1</ele>
        <time>2017-07-30T11:32:34Z</time>
      </trkpt>
      <trkpt lat="42.59748" lon="-0.15791">
        <ele>1155.2</ele>
        <time>2017-07-30T11:32:36Z</time>
      </trkpt>
      <trkpt lat="42.59745" lon="-0.15789">
        <ele>1154</ele>
        <time>2017-07-30T11:32:38Z</time>
      </trkpt>
      <trkpt lat="42.59739" lon="-0.15788">
        <ele>1152.4</ele>
        <time>2017-07-30T11:32:40Z</time>
      </trkpt>
      <trkpt lat="42.59736" lon="-0.15788">
        <ele>1151.8</ele>
        <time>2017-07-30T11:32:41Z</time>
      </trkpt>
      <trkpt lat="42.59732" lon="-0.15787">
        <ele>1151.3</ele>
        <time>2017-07-30T11:32:42Z</time>
      </trkpt>
      <trkpt lat="42.59729" lon="-0.15787">
        <ele>1150.8</ele>
        <time>2017-07-30T11:32:43Z</time>
      </trkpt>
      <trkpt lat="42.59726" lon="-0.15786">
        <ele>1150.4</ele>
        <time>2017-07-30T11:32:44Z</time>
      </trkpt>
      <trkpt lat="42.59729" lon="-0.15783">
        <ele>1149.9</ele>
        <time>2017-07-30T11:32:52Z</time>
      </trkpt>
      <trkpt lat="42.59726" lon="-0.15781">
        <ele>1149.2</ele>
        <time>2017-07-30T11:33:00Z</time>
      </trkpt>
      <trkpt lat="42.59723" lon="-0.15779">
        <ele>1148.6</ele>
        <time>2017-07-30T11:33:06Z</time>
      </trkpt>
      <trkpt lat="42.59719" lon="-0.15776">
        <ele>1147.6</ele>
        <time>2017-07-30T11:33:08Z</time>
      </trkpt>
      <trkpt lat="42.59717" lon="-0.15773">
        <ele>1147</ele>
        <time>2017-07-30T11:33:09Z</time>
      </trkpt>
      <trkpt lat="42.59714" lon="-0.15771">
        <ele>1146.6</ele>
        <time>2017-07-30T11:33:10Z</time>
      </trkpt>
      <trkpt lat="42.59712" lon="-0.15769">
        <ele>1146.4</ele>
        <time>2017-07-30T11:33:11Z</time>
      </trkpt>
      <trkpt lat="42.59708" lon="-0.15767">
        <ele>1146.2</ele>
        <time>2017-07-30T11:33:12Z</time>
      </trkpt>
      <trkpt lat="42.59705" lon="-0.15765">
        <ele>1146.2</ele>
        <time>2017-07-30T11:33:13Z</time>
      </trkpt>
      <trkpt lat="42.59701" lon="-0.15762">
        <ele>1146.7</ele>
        <time>2017-07-30T11:33:14Z</time>
      </trkpt>
      <trkpt lat="42.59698" lon="-0.15759">
        <ele>1147.8</ele>
        <time>2017-07-30T11:33:15Z</time>
      </trkpt>
      <trkpt lat="42.59695" lon="-0.15754">
        <ele>1148.6</ele>
        <time>2017-07-30T11:33:17Z</time>
      </trkpt>
      <trkpt lat="42.59694" lon="-0.15751">
        <ele>1148.8</ele>
        <time>2017-07-30T11:33:18Z</time>
      </trkpt>
      <trkpt lat="42.59692" lon="-0.15745">
        <ele>1148.3</ele>
        <time>2017-07-30T11:33:20Z</time>
      </trkpt>
      <trkpt lat="42.59689" lon="-0.15741">
        <ele>1147.3</ele>
        <time>2017-07-30T11:33:22Z</time>
      </trkpt>
      <trkpt lat="42.59686" lon="-0.15736">
        <ele>1147.1</ele>
        <time>2017-07-30T11:33:24Z</time>
      </trkpt>
      <trkpt lat="42.59683" lon="-0.15732">
        <ele>1147.3</ele>
        <time>2017-07-30T11:33:26Z</time>
      </trkpt>
      <trkpt lat="42.5968" lon="-0.15726">
        <ele>1148.6</ele>
        <time>2017-07-30T11:33:28Z</time>
      </trkpt>
      <trkpt lat="42.59677" lon="-0.15721">
        <ele>1149.8</ele>
        <time>2017-07-30T11:33:30Z</time>
      </trkpt>
      <trkpt lat="42.59673" lon="-0.15717">
        <ele>1150</ele>
        <time>2017-07-30T11:33:32Z</time>
      </trkpt>
      <trkpt lat="42.5967" lon="-0.15713">
        <ele>1149.4</ele>
        <time>2017-07-30T11:33:34Z</time>
      </trkpt>
      <trkpt lat="42.59667" lon="-0.15708">
        <ele>1148</ele>
        <time>2017-07-30T11:33:36Z</time>
      </trkpt>
      <trkpt lat="42.59662" lon="-0.15704">
        <ele>1147.8</ele>
        <time>2017-07-30T11:33:38Z</time>
      </trkpt>
      <trkpt lat="42.5966" lon="-0.15702">
        <ele>1147.8</ele>
        <time>2017-07-30T11:33:39Z</time>
      </trkpt>
      <trkpt lat="42.59657" lon="-0.157">
        <ele>1148.2</ele>
        <time>2017-07-30T11:33:40Z</time>
      </trkpt>
      <trkpt lat="42.59654" lon="-0.15698">
        <ele>1148.7</ele>
        <time>2017-07-30T11:33:41Z</time>
      </trkpt>
      <trkpt lat="42.59651" lon="-0.15695">
        <ele>1149.3</ele>
        <time>2017-07-30T11:33:42Z</time>
      </trkpt>
      <trkpt lat="42.59648" lon="-0.15692">
        <ele>1149.9</ele>
        <time>2017-07-30T11:33:43Z</time>
      </trkpt>
      <trkpt lat="42.59645" lon="-0.15689">
        <ele>1150.5</ele>
        <time>2017-07-30T11:33:44Z</time>
      </trkpt>
      <trkpt lat="42.59642" lon="-0.15686">
        <ele>1150.9</ele>
        <time>2017-07-30T11:33:45Z</time>
      </trkpt>
      <trkpt lat="42.59638" lon="-0.15682">
        <ele>1151.3</ele>
        <time>2017-07-30T11:33:46Z</time>
      </trkpt>
      <trkpt lat="42.59634" lon="-0.15678">
        <ele>1152.4</ele>
        <time>2017-07-30T11:33:47Z</time>
      </trkpt>
      <trkpt lat="42.5963" lon="-0.15673">
        <ele>1153.5</ele>
        <time>2017-07-30T11:33:48Z</time>
      </trkpt>
      <trkpt lat="42.59626" lon="-0.15669">
        <ele>1152.9</ele>
        <time>2017-07-30T11:33:49Z</time>
      </trkpt>
      <trkpt lat="42.59622" lon="-0.15664">
        <ele>1152.4</ele>
        <time>2017-07-30T11:33:50Z</time>
      </trkpt>
      <trkpt lat="42.59619" lon="-0.15659">
        <ele>1151.9</ele>
        <time>2017-07-30T11:33:51Z</time>
      </trkpt>
      <trkpt lat="42.59617" lon="-0.15654">
        <ele>1151.7</ele>
        <time>2017-07-30T11:33:52Z</time>
      </trkpt>
      <trkpt lat="42.59616" lon="-0.1565">
        <ele>1151.8</ele>
        <time>2017-07-30T11:33:53Z</time>
      </trkpt>
      <trkpt lat="42.59615" lon="-0.15646">
        <ele>1151.8</ele>
        <time>2017-07-30T11:33:54Z</time>
      </trkpt>
      <trkpt lat="42.59614" lon="-0.15642">
        <ele>1151.8</ele>
        <time>2017-07-30T11:33:55Z</time>
      </trkpt>
      <trkpt lat="42.59614" lon="-0.15638">
        <ele>1151.9</ele>
        <time>2017-07-30T11:33:56Z</time>
      </trkpt>
      <trkpt lat="42.59612" lon="-0.15631">
        <ele>1151.9</ele>
        <time>2017-07-30T11:33:58Z</time>
      </trkpt>
      <trkpt lat="42.5961" lon="-0.15628">
        <ele>1151.9</ele>
        <time>2017-07-30T11:33:59Z</time>
      </trkpt>
      <trkpt lat="42.59608" lon="-0.15625">
        <ele>1151.9</ele>
        <time>2017-07-30T11:34:00Z</time>
      </trkpt>
      <trkpt lat="42.59605" lon="-0.15622">
        <ele>1151.7</ele>
        <time>2017-07-30T11:34:01Z</time>
      </trkpt>
      <trkpt lat="42.59603" lon="-0.15619">
        <ele>1151.5</ele>
        <time>2017-07-30T11:34:02Z</time>
      </trkpt>
      <trkpt lat="42.59601" lon="-0.15615">
        <ele>1151.4</ele>
        <time>2017-07-30T11:34:03Z</time>
      </trkpt>
      <trkpt lat="42.59599" lon="-0.15612">
        <ele>1151.1</ele>
        <time>2017-07-30T11:34:04Z</time>
      </trkpt>
      <trkpt lat="42.59595" lon="-0.15607">
        <ele>1150.7</ele>
        <time>2017-07-30T11:34:06Z</time>
      </trkpt>
      <trkpt lat="42.59592" lon="-0.15602">
        <ele>1150.9</ele>
        <time>2017-07-30T11:34:08Z</time>
      </trkpt>
      <trkpt lat="42.5959" lon="-0.15599">
        <ele>1151</ele>
        <time>2017-07-30T11:34:09Z</time>
      </trkpt>
      <trkpt lat="42.59587" lon="-0.15597">
        <ele>1151.1</ele>
        <time>2017-07-30T11:34:10Z</time>
      </trkpt>
      <trkpt lat="42.59584" lon="-0.15595">
        <ele>1151</ele>
        <time>2017-07-30T11:34:11Z</time>
      </trkpt>
      <trkpt lat="42.59581" lon="-0.15591">
        <ele>1150.9</ele>
        <time>2017-07-30T11:34:12Z</time>
      </trkpt>
      <trkpt lat="42.59577" lon="-0.15588">
        <ele>1149.9</ele>
        <time>2017-07-30T11:34:13Z</time>
      </trkpt>
      <trkpt lat="42.59573" lon="-0.15584">
        <ele>1148.9</ele>
        <time>2017-07-30T11:34:14Z</time>
      </trkpt>
      <trkpt lat="42.59569" lon="-0.1558">
        <ele>1147.8</ele>
        <time>2017-07-30T11:34:15Z</time>
      </trkpt>
      <trkpt lat="42.59565" lon="-0.15577">
        <ele>1146.5</ele>
        <time>2017-07-30T11:34:16Z</time>
      </trkpt>
      <trkpt lat="42.5956" lon="-0.15573">
        <ele>1144.5</ele>
        <time>2017-07-30T11:34:17Z</time>
      </trkpt>
      <trkpt lat="42.59556" lon="-0.1557">
        <ele>1142.1</ele>
        <time>2017-07-30T11:34:18Z</time>
      </trkpt>
      <trkpt lat="42.59551" lon="-0.15566">
        <ele>1139.5</ele>
        <time>2017-07-30T11:34:19Z</time>
      </trkpt>
      <trkpt lat="42.59547" lon="-0.15563">
        <ele>1140.1</ele>
        <time>2017-07-30T11:34:20Z</time>
      </trkpt>
      <trkpt lat="42.59544" lon="-0.1556">
        <ele>1140.9</ele>
        <time>2017-07-30T11:34:21Z</time>
      </trkpt>
      <trkpt lat="42.59542" lon="-0.15557">
        <ele>1141.2</ele>
        <time>2017-07-30T11:34:22Z</time>
      </trkpt>
      <trkpt lat="42.5954" lon="-0.15553">
        <ele>1141.3</ele>
        <time>2017-07-30T11:34:24Z</time>
      </trkpt>
      <trkpt lat="42.59539" lon="-0.15549">
        <ele>1141.4</ele>
        <time>2017-07-30T11:34:32Z</time>
      </trkpt>
      <trkpt lat="42.59536" lon="-0.15545">
        <ele>1142.4</ele>
        <time>2017-07-30T11:34:36Z</time>
      </trkpt>
      <trkpt lat="42.59535" lon="-0.15541">
        <ele>1143.1</ele>
        <time>2017-07-30T11:34:38Z</time>
      </trkpt>
      <trkpt lat="42.59532" lon="-0.15539">
        <ele>1143.6</ele>
        <time>2017-07-30T11:34:43Z</time>
      </trkpt>
      <trkpt lat="42.5953" lon="-0.15536">
        <ele>1143.4</ele>
        <time>2017-07-30T11:34:50Z</time>
      </trkpt>
      <trkpt lat="42.59527" lon="-0.15533">
        <ele>1143.1</ele>
        <time>2017-07-30T11:34:53Z</time>
      </trkpt>
      <trkpt lat="42.59525" lon="-0.15528">
        <ele>1143.4</ele>
        <time>2017-07-30T11:34:55Z</time>
      </trkpt>
      <trkpt lat="42.59522" lon="-0.15523">
        <ele>1143.3</ele>
        <time>2017-07-30T11:34:57Z</time>
      </trkpt>
      <trkpt lat="42.5952" lon="-0.15518">
        <ele>1142</ele>
        <time>2017-07-30T11:34:59Z</time>
      </trkpt>
      <trkpt lat="42.59518" lon="-0.15512">
        <ele>1141.3</ele>
        <time>2017-07-30T11:35:01Z</time>
      </trkpt>
      <trkpt lat="42.59517" lon="-0.15506">
        <ele>1141.1</ele>
        <time>2017-07-30T11:35:03Z</time>
      </trkpt>
      <trkpt lat="42.59516" lon="-0.155">
        <ele>1140.6</ele>
        <time>2017-07-30T11:35:05Z</time>
      </trkpt>
      <trkpt lat="42.59515" lon="-0.15493">
        <ele>1139.8</ele>
        <time>2017-07-30T11:35:07Z</time>
      </trkpt>
      <trkpt lat="42.59515" lon="-0.15488">
        <ele>1140.2</ele>
        <time>2017-07-30T11:35:09Z</time>
      </trkpt>
      <trkpt lat="42.59514" lon="-0.15481">
        <ele>1140.6</ele>
        <time>2017-07-30T11:35:11Z</time>
      </trkpt>
      <trkpt lat="42.59515" lon="-0.15477">
        <ele>1139.6</ele>
        <time>2017-07-30T11:35:12Z</time>
      </trkpt>
      <trkpt lat="42.59515" lon="-0.15473">
        <ele>1138.6</ele>
        <time>2017-07-30T11:35:13Z</time>
      </trkpt>
      <trkpt lat="42.59515" lon="-0.15469">
        <ele>1137.7</ele>
        <time>2017-07-30T11:35:14Z</time>
      </trkpt>
      <trkpt lat="42.59515" lon="-0.15465">
        <ele>1137.5</ele>
        <time>2017-07-30T11:35:15Z</time>
      </trkpt>
      <trkpt lat="42.59516" lon="-0.15461">
        <ele>1137.2</ele>
        <time>2017-07-30T11:35:16Z</time>
      </trkpt>
      <trkpt lat="42.59517" lon="-0.15457">
        <ele>1136.4</ele>
        <time>2017-07-30T11:35:17Z</time>
      </trkpt>
      <trkpt lat="42.59518" lon="-0.15453">
        <ele>1135.1</ele>
        <time>2017-07-30T11:35:18Z</time>
      </trkpt>
      <trkpt lat="42.59519" lon="-0.15449">
        <ele>1133.7</ele>
        <time>2017-07-30T11:35:19Z</time>
      </trkpt>
      <trkpt lat="42.59519" lon="-0.15446">
        <ele>1132.8</ele>
        <time>2017-07-30T11:35:20Z</time>
      </trkpt>
      <trkpt lat="42.59521" lon="-0.15439">
        <ele>1131.4</ele>
        <time>2017-07-30T11:35:22Z</time>
      </trkpt>
      <trkpt lat="42.59522" lon="-0.15433">
        <ele>1130.6</ele>
        <time>2017-07-30T11:35:24Z</time>
      </trkpt>
      <trkpt lat="42.59524" lon="-0.15428">
        <ele>1130</ele>
        <time>2017-07-30T11:35:25Z</time>
      </trkpt>
      <trkpt lat="42.59526" lon="-0.15423">
        <ele>1128.7</ele>
        <time>2017-07-30T11:35:26Z</time>
      </trkpt>
      <trkpt lat="42.59529" lon="-0.15417">
        <ele>1127.6</ele>
        <time>2017-07-30T11:35:27Z</time>
      </trkpt>
      <trkpt lat="42.59531" lon="-0.15411">
        <ele>1126.9</ele>
        <time>2017-07-30T11:35:28Z</time>
      </trkpt>
      <trkpt lat="42.59533" lon="-0.15405">
        <ele>1127.5</ele>
        <time>2017-07-30T11:35:29Z</time>
      </trkpt>
      <trkpt lat="42.59535" lon="-0.15399">
        <ele>1128.4</ele>
        <time>2017-07-30T11:35:30Z</time>
      </trkpt>
      <trkpt lat="42.59538" lon="-0.15393">
        <ele>1128</ele>
        <time>2017-07-30T11:35:31Z</time>
      </trkpt>
      <trkpt lat="42.5954" lon="-0.15389">
        <ele>1127.6</ele>
        <time>2017-07-30T11:35:32Z</time>
      </trkpt>
      <trkpt lat="42.59542" lon="-0.15385">
        <ele>1127.3</ele>
        <time>2017-07-30T11:35:33Z</time>
      </trkpt>
      <trkpt lat="42.59544" lon="-0.15383">
        <ele>1126.9</ele>
        <time>2017-07-30T11:35:34Z</time>
      </trkpt>
      <trkpt lat="42.59547" lon="-0.1538">
        <ele>1127.3</ele>
        <time>2017-07-30T11:35:36Z</time>
      </trkpt>
      <trkpt lat="42.59549" lon="-0.15376">
        <ele>1127.7</ele>
        <time>2017-07-30T11:35:41Z</time>
      </trkpt>
      <trkpt lat="42.5955" lon="-0.15372">
        <ele>1127.4</ele>
        <time>2017-07-30T11:35:43Z</time>
      </trkpt>
      <trkpt lat="42.59551" lon="-0.15367">
        <ele>1126.7</ele>
        <time>2017-07-30T11:35:45Z</time>
      </trkpt>
      <trkpt lat="42.59553" lon="-0.15361">
        <ele>1126</ele>
        <time>2017-07-30T11:35:47Z</time>
      </trkpt>
      <trkpt lat="42.59554" lon="-0.15357">
        <ele>1126.4</ele>
        <time>2017-07-30T11:35:49Z</time>
      </trkpt>
      <trkpt lat="42.59556" lon="-0.15353">
        <ele>1126.8</ele>
        <time>2017-07-30T11:35:52Z</time>
      </trkpt>
      <trkpt lat="42.59558" lon="-0.15347">
        <ele>1125.6</ele>
        <time>2017-07-30T11:35:54Z</time>
      </trkpt>
      <trkpt lat="42.5956" lon="-0.15344">
        <ele>1124.7</ele>
        <time>2017-07-30T11:35:55Z</time>
      </trkpt>
      <trkpt lat="42.59561" lon="-0.1534">
        <ele>1124.1</ele>
        <time>2017-07-30T11:35:56Z</time>
      </trkpt>
      <trkpt lat="42.59563" lon="-0.15337">
        <ele>1124.8</ele>
        <time>2017-07-30T11:35:57Z</time>
      </trkpt>
      <trkpt lat="42.59565" lon="-0.15333">
        <ele>1125.5</ele>
        <time>2017-07-30T11:35:58Z</time>
      </trkpt>
      <trkpt lat="42.59568" lon="-0.15331">
        <ele>1126.5</ele>
        <time>2017-07-30T11:35:59Z</time>
      </trkpt>
      <trkpt lat="42.59571" lon="-0.15328">
        <ele>1127.6</ele>
        <time>2017-07-30T11:36:00Z</time>
      </trkpt>
      <trkpt lat="42.59575" lon="-0.15325">
        <ele>1128.4</ele>
        <time>2017-07-30T11:36:01Z</time>
      </trkpt>
      <trkpt lat="42.59578" lon="-0.15322">
        <ele>1128.7</ele>
        <time>2017-07-30T11:36:02Z</time>
      </trkpt>
      <trkpt lat="42.59581" lon="-0.1532">
        <ele>1129.3</ele>
        <time>2017-07-30T11:36:03Z</time>
      </trkpt>
      <trkpt lat="42.59584" lon="-0.15318">
        <ele>1130.6</ele>
        <time>2017-07-30T11:36:04Z</time>
      </trkpt>
      <trkpt lat="42.59587" lon="-0.15316">
        <ele>1131.8</ele>
        <time>2017-07-30T11:36:05Z</time>
      </trkpt>
      <trkpt lat="42.5959" lon="-0.15315">
        <ele>1131.9</ele>
        <time>2017-07-30T11:36:06Z</time>
      </trkpt>
      <trkpt lat="42.59594" lon="-0.15314">
        <ele>1131.6</ele>
        <time>2017-07-30T11:36:08Z</time>
      </trkpt>
      <trkpt lat="42.59599" lon="-0.15313">
        <ele>1131.9</ele>
        <time>2017-07-30T11:36:10Z</time>
      </trkpt>
      <trkpt lat="42.59603" lon="-0.15311">
        <ele>1132.5</ele>
        <time>2017-07-30T11:36:12Z</time>
      </trkpt>
      <trkpt lat="42.59605" lon="-0.15308">
        <ele>1132.9</ele>
        <time>2017-07-30T11:36:13Z</time>
      </trkpt>
      <trkpt lat="42.59607" lon="-0.15305">
        <ele>1133.4</ele>
        <time>2017-07-30T11:36:14Z</time>
      </trkpt>
      <trkpt lat="42.5961" lon="-0.15303">
        <ele>1134</ele>
        <time>2017-07-30T11:36:15Z</time>
      </trkpt>
      <trkpt lat="42.59612" lon="-0.15301">
        <ele>1134.5</ele>
        <time>2017-07-30T11:36:16Z</time>
      </trkpt>
      <trkpt lat="42.59615" lon="-0.15299">
        <ele>1135.1</ele>
        <time>2017-07-30T11:36:17Z</time>
      </trkpt>
      <trkpt lat="42.59618" lon="-0.15297">
        <ele>1135.7</ele>
        <time>2017-07-30T11:36:18Z</time>
      </trkpt>
      <trkpt lat="42.59621" lon="-0.15295">
        <ele>1136.1</ele>
        <time>2017-07-30T11:36:19Z</time>
      </trkpt>
      <trkpt lat="42.59624" lon="-0.15294">
        <ele>1136.5</ele>
        <time>2017-07-30T11:36:20Z</time>
      </trkpt>
      <trkpt lat="42.59627" lon="-0.15292">
        <ele>1137.1</ele>
        <time>2017-07-30T11:36:21Z</time>
      </trkpt>
      <trkpt lat="42.59631" lon="-0.1529">
        <ele>1137.7</ele>
        <time>2017-07-30T11:36:22Z</time>
      </trkpt>
      <trkpt lat="42.59634" lon="-0.15289">
        <ele>1138.8</ele>
        <time>2017-07-30T11:36:23Z</time>
      </trkpt>
      <trkpt lat="42.59637" lon="-0.15287">
        <ele>1139.8</ele>
        <time>2017-07-30T11:36:24Z</time>
      </trkpt>
      <trkpt lat="42.5964" lon="-0.15285">
        <ele>1140.3</ele>
        <time>2017-07-30T11:36:25Z</time>
      </trkpt>
      <trkpt lat="42.59645" lon="-0.15281">
        <ele>1140.9</ele>
        <time>2017-07-30T11:36:27Z</time>
      </trkpt>
      <trkpt lat="42.59648" lon="-0.15278">
        <ele>1141.8</ele>
        <time>2017-07-30T11:36:28Z</time>
      </trkpt>
      <trkpt lat="42.59651" lon="-0.15277">
        <ele>1142.5</ele>
        <time>2017-07-30T11:36:29Z</time>
      </trkpt>
      <trkpt lat="42.59654" lon="-0.15275">
        <ele>1143.5</ele>
        <time>2017-07-30T11:36:30Z</time>
      </trkpt>
      <trkpt lat="42.59656" lon="-0.15274">
        <ele>1144.4</ele>
        <time>2017-07-30T11:36:31Z</time>
      </trkpt>
      <trkpt lat="42.59662" lon="-0.15273">
        <ele>1143</ele>
        <time>2017-07-30T11:36:33Z</time>
      </trkpt>
      <trkpt lat="42.59666" lon="-0.1527">
        <ele>1141</ele>
        <time>2017-07-30T11:36:35Z</time>
      </trkpt>
      <trkpt lat="42.59668" lon="-0.15266">
        <ele>1139.9</ele>
        <time>2017-07-30T11:36:37Z</time>
      </trkpt>
      <trkpt lat="42.59666" lon="-0.1526">
        <ele>1138.8</ele>
        <time>2017-07-30T11:36:39Z</time>
      </trkpt>
      <trkpt lat="42.59664" lon="-0.15257">
        <ele>1138.1</ele>
        <time>2017-07-30T11:36:40Z</time>
      </trkpt>
      <trkpt lat="42.59661" lon="-0.15254">
        <ele>1136.7</ele>
        <time>2017-07-30T11:36:41Z</time>
      </trkpt>
      <trkpt lat="42.59657" lon="-0.1525">
        <ele>1135</ele>
        <time>2017-07-30T11:36:42Z</time>
      </trkpt>
      <trkpt lat="42.59654" lon="-0.15247">
        <ele>1134.1</ele>
        <time>2017-07-30T11:36:43Z</time>
      </trkpt>
      <trkpt lat="42.5965" lon="-0.15242">
        <ele>1132.2</ele>
        <time>2017-07-30T11:36:45Z</time>
      </trkpt>
      <trkpt lat="42.59648" lon="-0.15236">
        <ele>1130.2</ele>
        <time>2017-07-30T11:36:47Z</time>
      </trkpt>
      <trkpt lat="42.59647" lon="-0.15231">
        <ele>1129.4</ele>
        <time>2017-07-30T11:36:49Z</time>
      </trkpt>
      <trkpt lat="42.59645" lon="-0.15224">
        <ele>1128.3</ele>
        <time>2017-07-30T11:36:51Z</time>
      </trkpt>
      <trkpt lat="42.59643" lon="-0.1522">
        <ele>1127.6</ele>
        <time>2017-07-30T11:36:52Z</time>
      </trkpt>
      <trkpt lat="42.59641" lon="-0.15217">
        <ele>1126.9</ele>
        <time>2017-07-30T11:36:53Z</time>
      </trkpt>
      <trkpt lat="42.59639" lon="-0.15214">
        <ele>1125.9</ele>
        <time>2017-07-30T11:36:54Z</time>
      </trkpt>
      <trkpt lat="42.59638" lon="-0.1521">
        <ele>1124.7</ele>
        <time>2017-07-30T11:36:55Z</time>
      </trkpt>
      <trkpt lat="42.59636" lon="-0.15206">
        <ele>1123.6</ele>
        <time>2017-07-30T11:36:56Z</time>
      </trkpt>
      <trkpt lat="42.59635" lon="-0.15201">
        <ele>1123.2</ele>
        <time>2017-07-30T11:36:57Z</time>
      </trkpt>
      <trkpt lat="42.59633" lon="-0.15196">
        <ele>1122.8</ele>
        <time>2017-07-30T11:36:58Z</time>
      </trkpt>
      <trkpt lat="42.59633" lon="-0.15191">
        <ele>1123</ele>
        <time>2017-07-30T11:36:59Z</time>
      </trkpt>
      <trkpt lat="42.59632" lon="-0.15185">
        <ele>1123.2</ele>
        <time>2017-07-30T11:37:00Z</time>
      </trkpt>
      <trkpt lat="42.59633" lon="-0.1518">
        <ele>1123.8</ele>
        <time>2017-07-30T11:37:01Z</time>
      </trkpt>
      <trkpt lat="42.59634" lon="-0.15174">
        <ele>1124.6</ele>
        <time>2017-07-30T11:37:02Z</time>
      </trkpt>
      <trkpt lat="42.59635" lon="-0.1517">
        <ele>1124.8</ele>
        <time>2017-07-30T11:37:03Z</time>
      </trkpt>
      <trkpt lat="42.59636" lon="-0.15166">
        <ele>1124.3</ele>
        <time>2017-07-30T11:37:04Z</time>
      </trkpt>
      <trkpt lat="42.59638" lon="-0.15161">
        <ele>1123.7</ele>
        <time>2017-07-30T11:37:05Z</time>
      </trkpt>
      <trkpt lat="42.59639" lon="-0.15156">
        <ele>1123</ele>
        <time>2017-07-30T11:37:06Z</time>
      </trkpt>
      <trkpt lat="42.5964" lon="-0.15151">
        <ele>1122.3</ele>
        <time>2017-07-30T11:37:07Z</time>
      </trkpt>
      <trkpt lat="42.59642" lon="-0.15146">
        <ele>1121.9</ele>
        <time>2017-07-30T11:37:08Z</time>
      </trkpt>
      <trkpt lat="42.59643" lon="-0.1514">
        <ele>1122.4</ele>
        <time>2017-07-30T11:37:09Z</time>
      </trkpt>
      <trkpt lat="42.59646" lon="-0.15134">
        <ele>1123.5</ele>
        <time>2017-07-30T11:37:10Z</time>
      </trkpt>
      <trkpt lat="42.59648" lon="-0.15129">
        <ele>1125.1</ele>
        <time>2017-07-30T11:37:11Z</time>
      </trkpt>
      <trkpt lat="42.5965" lon="-0.15125">
        <ele>1125.9</ele>
        <time>2017-07-30T11:37:12Z</time>
      </trkpt>
      <trkpt lat="42.59653" lon="-0.1512">
        <ele>1126.5</ele>
        <time>2017-07-30T11:37:14Z</time>
      </trkpt>
      <trkpt lat="42.59655" lon="-0.15117">
        <ele>1126.2</ele>
        <time>2017-07-30T11:37:16Z</time>
      </trkpt>
      <trkpt lat="42.59657" lon="-0.15114">
        <ele>1125.4</ele>
        <time>2017-07-30T11:37:21Z</time>
      </trkpt>
      <trkpt lat="42.59658" lon="-0.15109">
        <ele>1124.6</ele>
        <time>2017-07-30T11:37:24Z</time>
      </trkpt>
      <trkpt lat="42.5966" lon="-0.15105">
        <ele>1124.8</ele>
        <time>2017-07-30T11:37:26Z</time>
      </trkpt>
      <trkpt lat="42.59662" lon="-0.15101">
        <ele>1125.1</ele>
        <time>2017-07-30T11:37:28Z</time>
      </trkpt>
      <trkpt lat="42.59664" lon="-0.15095">
        <ele>1124.1</ele>
        <time>2017-07-30T11:37:30Z</time>
      </trkpt>
      <trkpt lat="42.59666" lon="-0.1509">
        <ele>1123.2</ele>
        <time>2017-07-30T11:37:32Z</time>
      </trkpt>
      <trkpt lat="42.59669" lon="-0.15086">
        <ele>1122.6</ele>
        <time>2017-07-30T11:37:34Z</time>
      </trkpt>
      <trkpt lat="42.59671" lon="-0.15083">
        <ele>1122.2</ele>
        <time>2017-07-30T11:37:36Z</time>
      </trkpt>
      <trkpt lat="42.59673" lon="-0.1508">
        <ele>1121.4</ele>
        <time>2017-07-30T11:37:44Z</time>
      </trkpt>
      <trkpt lat="42.59674" lon="-0.15076">
        <ele>1120.4</ele>
        <time>2017-07-30T11:37:51Z</time>
      </trkpt>
      <trkpt lat="42.59677" lon="-0.15073">
        <ele>1119.2</ele>
        <time>2017-07-30T11:37:56Z</time>
      </trkpt>
      <trkpt lat="42.5968" lon="-0.1507">
        <ele>1118.7</ele>
        <time>2017-07-30T11:38:01Z</time>
      </trkpt>
      <trkpt lat="42.59683" lon="-0.15066">
        <ele>1118</ele>
        <time>2017-07-30T11:38:03Z</time>
      </trkpt>
      <trkpt lat="42.59686" lon="-0.15061">
        <ele>1117.3</ele>
        <time>2017-07-30T11:38:05Z</time>
      </trkpt>
      <trkpt lat="42.5969" lon="-0.15058">
        <ele>1116.6</ele>
        <time>2017-07-30T11:38:07Z</time>
      </trkpt>
      <trkpt lat="42.59692" lon="-0.15054">
        <ele>1115.3</ele>
        <time>2017-07-30T11:38:11Z</time>
      </trkpt>
      <trkpt lat="42.59695" lon="-0.15051">
        <ele>1114.1</ele>
        <time>2017-07-30T11:38:13Z</time>
      </trkpt>
      <trkpt lat="42.59698" lon="-0.15049">
        <ele>1113.4</ele>
        <time>2017-07-30T11:38:15Z</time>
      </trkpt>
      <trkpt lat="42.597" lon="-0.15046">
        <ele>1112.9</ele>
        <time>2017-07-30T11:38:17Z</time>
      </trkpt>
      <trkpt lat="42.59703" lon="-0.1504">
        <ele>1113.1</ele>
        <time>2017-07-30T11:38:19Z</time>
      </trkpt>
      <trkpt lat="42.59706" lon="-0.15035">
        <ele>1114.1</ele>
        <time>2017-07-30T11:38:21Z</time>
      </trkpt>
      <trkpt lat="42.59709" lon="-0.15032">
        <ele>1114.6</ele>
        <time>2017-07-30T11:38:23Z</time>
      </trkpt>
      <trkpt lat="42.59712" lon="-0.15029">
        <ele>1115.1</ele>
        <time>2017-07-30T11:38:25Z</time>
      </trkpt>
      <trkpt lat="42.59715" lon="-0.15025">
        <ele>1116.1</ele>
        <time>2017-07-30T11:38:27Z</time>
      </trkpt>
      <trkpt lat="42.59719" lon="-0.15022">
        <ele>1117.1</ele>
        <time>2017-07-30T11:38:29Z</time>
      </trkpt>
      <trkpt lat="42.59721" lon="-0.1502">
        <ele>1117</ele>
        <time>2017-07-30T11:38:30Z</time>
      </trkpt>
      <trkpt lat="42.59723" lon="-0.15017">
        <ele>1116.9</ele>
        <time>2017-07-30T11:38:31Z</time>
      </trkpt>
      <trkpt lat="42.59726" lon="-0.15015">
        <ele>1117.8</ele>
        <time>2017-07-30T11:38:32Z</time>
      </trkpt>
      <trkpt lat="42.59728" lon="-0.15013">
        <ele>1119.2</ele>
        <time>2017-07-30T11:38:33Z</time>
      </trkpt>
      <trkpt lat="42.59733" lon="-0.1501">
        <ele>1121.6</ele>
        <time>2017-07-30T11:38:35Z</time>
      </trkpt>
      <trkpt lat="42.59736" lon="-0.15005">
        <ele>1123.4</ele>
        <time>2017-07-30T11:38:37Z</time>
      </trkpt>
      <trkpt lat="42.59735" lon="-0.15001">
        <ele>1123.5</ele>
        <time>2017-07-30T11:38:42Z</time>
      </trkpt>
      <trkpt lat="42.59733" lon="-0.14998">
        <ele>1122.3</ele>
        <time>2017-07-30T11:38:44Z</time>
      </trkpt>
      <trkpt lat="42.5973" lon="-0.14998">
        <ele>1121.1</ele>
        <time>2017-07-30T11:39:16Z</time>
      </trkpt>
      <trkpt lat="42.59726" lon="-0.14996">
        <ele>1119.6</ele>
        <time>2017-07-30T11:39:18Z</time>
      </trkpt>
      <trkpt lat="42.59723" lon="-0.14995">
        <ele>1118.5</ele>
        <time>2017-07-30T11:39:20Z</time>
      </trkpt>
      <trkpt lat="42.5972" lon="-0.14992">
        <ele>1117.3</ele>
        <time>2017-07-30T11:39:22Z</time>
      </trkpt>
      <trkpt lat="42.59714" lon="-0.1499">
        <ele>1114.8</ele>
        <time>2017-07-30T11:39:24Z</time>
      </trkpt>
      <trkpt lat="42.59711" lon="-0.14988">
        <ele>1113.1</ele>
        <time>2017-07-30T11:39:25Z</time>
      </trkpt>
      <trkpt lat="42.59707" lon="-0.14985">
        <ele>1112</ele>
        <time>2017-07-30T11:39:26Z</time>
      </trkpt>
      <trkpt lat="42.59704" lon="-0.14982">
        <ele>1111</ele>
        <time>2017-07-30T11:39:27Z</time>
      </trkpt>
      <trkpt lat="42.59701" lon="-0.14979">
        <ele>1110.2</ele>
        <time>2017-07-30T11:39:28Z</time>
      </trkpt>
      <trkpt lat="42.59698" lon="-0.14976">
        <ele>1109.4</ele>
        <time>2017-07-30T11:39:29Z</time>
      </trkpt>
      <trkpt lat="42.59695" lon="-0.14973">
        <ele>1108.8</ele>
        <time>2017-07-30T11:39:30Z</time>
      </trkpt>
      <trkpt lat="42.59692" lon="-0.14971">
        <ele>1108.3</ele>
        <time>2017-07-30T11:39:31Z</time>
      </trkpt>
      <trkpt lat="42.59688" lon="-0.14968">
        <ele>1107.7</ele>
        <time>2017-07-30T11:39:32Z</time>
      </trkpt>
      <trkpt lat="42.59685" lon="-0.14966">
        <ele>1107.2</ele>
        <time>2017-07-30T11:39:33Z</time>
      </trkpt>
      <trkpt lat="42.59683" lon="-0.14964">
        <ele>1106.8</ele>
        <time>2017-07-30T11:39:34Z</time>
      </trkpt>
      <trkpt lat="42.5968" lon="-0.14962">
        <ele>1106.5</ele>
        <time>2017-07-30T11:39:35Z</time>
      </trkpt>
      <trkpt lat="42.59677" lon="-0.14959">
        <ele>1106</ele>
        <time>2017-07-30T11:39:36Z</time>
      </trkpt>
      <trkpt lat="42.59674" lon="-0.14956">
        <ele>1105.3</ele>
        <time>2017-07-30T11:39:37Z</time>
      </trkpt>
      <trkpt lat="42.59672" lon="-0.14954">
        <ele>1104.4</ele>
        <time>2017-07-30T11:39:38Z</time>
      </trkpt>
      <trkpt lat="42.59669" lon="-0.1495">
        <ele>1103.6</ele>
        <time>2017-07-30T11:39:39Z</time>
      </trkpt>
      <trkpt lat="42.59667" lon="-0.14947">
        <ele>1102.8</ele>
        <time>2017-07-30T11:39:40Z</time>
      </trkpt>
      <trkpt lat="42.59664" lon="-0.14943">
        <ele>1101.9</ele>
        <time>2017-07-30T11:39:41Z</time>
      </trkpt>
      <trkpt lat="42.59661" lon="-0.14938">
        <ele>1100.8</ele>
        <time>2017-07-30T11:39:42Z</time>
      </trkpt>
      <trkpt lat="42.59659" lon="-0.14934">
        <ele>1099.7</ele>
        <time>2017-07-30T11:39:43Z</time>
      </trkpt>
      <trkpt lat="42.59658" lon="-0.1493">
        <ele>1099</ele>
        <time>2017-07-30T11:39:44Z</time>
      </trkpt>
      <trkpt lat="42.59657" lon="-0.14926">
        <ele>1098.4</ele>
        <time>2017-07-30T11:39:45Z</time>
      </trkpt>
      <trkpt lat="42.59656" lon="-0.14922">
        <ele>1097.7</ele>
        <time>2017-07-30T11:39:46Z</time>
      </trkpt>
      <trkpt lat="42.59655" lon="-0.14918">
        <ele>1096.8</ele>
        <time>2017-07-30T11:39:47Z</time>
      </trkpt>
      <trkpt lat="42.59654" lon="-0.14914">
        <ele>1095.8</ele>
        <time>2017-07-30T11:39:48Z</time>
      </trkpt>
      <trkpt lat="42.59654" lon="-0.1491">
        <ele>1095.6</ele>
        <time>2017-07-30T11:39:49Z</time>
      </trkpt>
      <trkpt lat="42.59653" lon="-0.14904">
        <ele>1095.5</ele>
        <time>2017-07-30T11:39:51Z</time>
      </trkpt>
      <trkpt lat="42.59652" lon="-0.14897">
        <ele>1094.9</ele>
        <time>2017-07-30T11:39:53Z</time>
      </trkpt>
      <trkpt lat="42.59651" lon="-0.14892">
        <ele>1094.4</ele>
        <time>2017-07-30T11:39:55Z</time>
      </trkpt>
      <trkpt lat="42.59651" lon="-0.14887">
        <ele>1095.6</ele>
        <time>2017-07-30T11:39:57Z</time>
      </trkpt>
      <trkpt lat="42.59651" lon="-0.14882">
        <ele>1096.7</ele>
        <time>2017-07-30T11:39:58Z</time>
      </trkpt>
      <trkpt lat="42.59651" lon="-0.14876">
        <ele>1096.4</ele>
        <time>2017-07-30T11:39:59Z</time>
      </trkpt>
      <trkpt lat="42.59652" lon="-0.1487">
        <ele>1095.7</ele>
        <time>2017-07-30T11:40:00Z</time>
      </trkpt>
      <trkpt lat="42.59653" lon="-0.14863">
        <ele>1094.3</ele>
        <time>2017-07-30T11:40:01Z</time>
      </trkpt>
      <trkpt lat="42.59653" lon="-0.14857">
        <ele>1093.2</ele>
        <time>2017-07-30T11:40:02Z</time>
      </trkpt>
      <trkpt lat="42.59653" lon="-0.14851">
        <ele>1092.3</ele>
        <time>2017-07-30T11:40:03Z</time>
      </trkpt>
      <trkpt lat="42.59654" lon="-0.14846">
        <ele>1091.6</ele>
        <time>2017-07-30T11:40:04Z</time>
      </trkpt>
      <trkpt lat="42.59655" lon="-0.14842">
        <ele>1091.1</ele>
        <time>2017-07-30T11:40:05Z</time>
      </trkpt>
      <trkpt lat="42.59657" lon="-0.14837">
        <ele>1090.3</ele>
        <time>2017-07-30T11:40:07Z</time>
      </trkpt>
      <trkpt lat="42.59657" lon="-0.14831">
        <ele>1091.9</ele>
        <time>2017-07-30T11:40:09Z</time>
      </trkpt>
      <trkpt lat="42.59656" lon="-0.14827">
        <ele>1091.6</ele>
        <time>2017-07-30T11:40:10Z</time>
      </trkpt>
      <trkpt lat="42.59654" lon="-0.14824">
        <ele>1090</ele>
        <time>2017-07-30T11:40:11Z</time>
      </trkpt>
      <trkpt lat="42.59653" lon="-0.1482">
        <ele>1088.8</ele>
        <time>2017-07-30T11:40:12Z</time>
      </trkpt>
      <trkpt lat="42.59653" lon="-0.14816">
        <ele>1088.4</ele>
        <time>2017-07-30T11:40:13Z</time>
      </trkpt>
      <trkpt lat="42.59652" lon="-0.14811">
        <ele>1087.8</ele>
        <time>2017-07-30T11:40:14Z</time>
      </trkpt>
      <trkpt lat="42.59652" lon="-0.14807">
        <ele>1086.1</ele>
        <time>2017-07-30T11:40:15Z</time>
      </trkpt>
      <trkpt lat="42.59652" lon="-0.14801">
        <ele>1085.1</ele>
        <time>2017-07-30T11:40:16Z</time>
      </trkpt>
      <trkpt lat="42.59653" lon="-0.14796">
        <ele>1085.6</ele>
        <time>2017-07-30T11:40:17Z</time>
      </trkpt>
      <trkpt lat="42.59653" lon="-0.1479">
        <ele>1085.6</ele>
        <time>2017-07-30T11:40:18Z</time>
      </trkpt>
      <trkpt lat="42.59654" lon="-0.14785">
        <ele>1084.8</ele>
        <time>2017-07-30T11:40:19Z</time>
      </trkpt>
      <trkpt lat="42.59655" lon="-0.1478">
        <ele>1084</ele>
        <time>2017-07-30T11:40:20Z</time>
      </trkpt>
      <trkpt lat="42.59655" lon="-0.14776">
        <ele>1083.7</ele>
        <time>2017-07-30T11:40:21Z</time>
      </trkpt>
      <trkpt lat="42.59656" lon="-0.14772">
        <ele>1083.4</ele>
        <time>2017-07-30T11:40:22Z</time>
      </trkpt>
      <trkpt lat="42.59658" lon="-0.14765">
        <ele>1084.1</ele>
        <time>2017-07-30T11:40:24Z</time>
      </trkpt>
      <trkpt lat="42.59659" lon="-0.14762">
        <ele>1085.1</ele>
        <time>2017-07-30T11:40:26Z</time>
      </trkpt>
      <trkpt lat="42.59661" lon="-0.14759">
        <ele>1085.9</ele>
        <time>2017-07-30T11:40:33Z</time>
      </trkpt>
      <trkpt lat="42.59663" lon="-0.14755">
        <ele>1086.7</ele>
        <time>2017-07-30T11:40:40Z</time>
      </trkpt>
      <trkpt lat="42.59664" lon="-0.14752">
        <ele>1086.5</ele>
        <time>2017-07-30T11:40:43Z</time>
      </trkpt>
      <trkpt lat="42.59665" lon="-0.14747">
        <ele>1086.1</ele>
        <time>2017-07-30T11:40:46Z</time>
      </trkpt>
      <trkpt lat="42.59665" lon="-0.14741">
        <ele>1085.5</ele>
        <time>2017-07-30T11:40:48Z</time>
      </trkpt>
      <trkpt lat="42.59665" lon="-0.14736">
        <ele>1084.6</ele>
        <time>2017-07-30T11:40:50Z</time>
      </trkpt>
      <trkpt lat="42.59665" lon="-0.14731">
        <ele>1083.6</ele>
        <time>2017-07-30T11:40:52Z</time>
      </trkpt>
      <trkpt lat="42.59665" lon="-0.14727">
        <ele>1083.2</ele>
        <time>2017-07-30T11:40:59Z</time>
      </trkpt>
      <trkpt lat="42.59665" lon="-0.14723">
        <ele>1082.8</ele>
        <time>2017-07-30T11:41:04Z</time>
      </trkpt>
      <trkpt lat="42.59666" lon="-0.14718">
        <ele>1081.9</ele>
        <time>2017-07-30T11:41:07Z</time>
      </trkpt>
      <trkpt lat="42.59666" lon="-0.14713">
        <ele>1080.7</ele>
        <time>2017-07-30T11:41:09Z</time>
      </trkpt>
      <trkpt lat="42.59667" lon="-0.14709">
        <ele>1079.7</ele>
        <time>2017-07-30T11:41:11Z</time>
      </trkpt>
      <trkpt lat="42.59668" lon="-0.14705">
        <ele>1079.4</ele>
        <time>2017-07-30T11:41:13Z</time>
      </trkpt>
      <trkpt lat="42.59669" lon="-0.14701">
        <ele>1079.5</ele>
        <time>2017-07-30T11:41:15Z</time>
      </trkpt>
      <trkpt lat="42.59671" lon="-0.14697">
        <ele>1079.7</ele>
        <time>2017-07-30T11:41:17Z</time>
      </trkpt>
      <trkpt lat="42.59673" lon="-0.14691">
        <ele>1080.5</ele>
        <time>2017-07-30T11:41:19Z</time>
      </trkpt>
      <trkpt lat="42.59675" lon="-0.14685">
        <ele>1081.5</ele>
        <time>2017-07-30T11:41:21Z</time>
      </trkpt>
      <trkpt lat="42.59677" lon="-0.14679">
        <ele>1082.8</ele>
        <time>2017-07-30T11:41:23Z</time>
      </trkpt>
      <trkpt lat="42.59678" lon="-0.14672">
        <ele>1084.4</ele>
        <time>2017-07-30T11:41:25Z</time>
      </trkpt>
      <trkpt lat="42.59678" lon="-0.14668">
        <ele>1085.2</ele>
        <time>2017-07-30T11:41:26Z</time>
      </trkpt>
      <trkpt lat="42.5968" lon="-0.14662">
        <ele>1086.5</ele>
        <time>2017-07-30T11:41:28Z</time>
      </trkpt>
      <trkpt lat="42.5968" lon="-0.14655">
        <ele>1086.2</ele>
        <time>2017-07-30T11:41:30Z</time>
      </trkpt>
      <trkpt lat="42.59679" lon="-0.1465">
        <ele>1086.3</ele>
        <time>2017-07-30T11:41:32Z</time>
      </trkpt>
      <trkpt lat="42.59677" lon="-0.14647">
        <ele>1086.6</ele>
        <time>2017-07-30T11:41:33Z</time>
      </trkpt>
      <trkpt lat="42.59676" lon="-0.14644">
        <ele>1085.8</ele>
        <time>2017-07-30T11:41:34Z</time>
      </trkpt>
      <trkpt lat="42.59674" lon="-0.1464">
        <ele>1083.8</ele>
        <time>2017-07-30T11:41:35Z</time>
      </trkpt>
      <trkpt lat="42.59673" lon="-0.14637">
        <ele>1081.9</ele>
        <time>2017-07-30T11:41:36Z</time>
      </trkpt>
      <trkpt lat="42.5967" lon="-0.14631">
        <ele>1079.5</ele>
        <time>2017-07-30T11:41:38Z</time>
      </trkpt>
      <trkpt lat="42.59668" lon="-0.14625">
        <ele>1077.5</ele>
        <time>2017-07-30T11:41:40Z</time>
      </trkpt>
      <trkpt lat="42.59665" lon="-0.14621">
        <ele>1075.6</ele>
        <time>2017-07-30T11:41:42Z</time>
      </trkpt>
      <trkpt lat="42.59661" lon="-0.14616">
        <ele>1073.7</ele>
        <time>2017-07-30T11:41:44Z</time>
      </trkpt>
      <trkpt lat="42.59659" lon="-0.14611">
        <ele>1072.2</ele>
        <time>2017-07-30T11:41:46Z</time>
      </trkpt>
      <trkpt lat="42.59657" lon="-0.14607">
        <ele>1071</ele>
        <time>2017-07-30T11:41:48Z</time>
      </trkpt>
      <trkpt lat="42.59656" lon="-0.14603">
        <ele>1070.1</ele>
        <time>2017-07-30T11:41:50Z</time>
      </trkpt>
      <trkpt lat="42.59656" lon="-0.14597">
        <ele>1068.5</ele>
        <time>2017-07-30T11:41:53Z</time>
      </trkpt>
      <trkpt lat="42.59655" lon="-0.14591">
        <ele>1066.9</ele>
        <time>2017-07-30T11:41:55Z</time>
      </trkpt>
      <trkpt lat="42.59655" lon="-0.14586">
        <ele>1065.1</ele>
        <time>2017-07-30T11:41:58Z</time>
      </trkpt>
      <trkpt lat="42.59656" lon="-0.14581">
        <ele>1063.4</ele>
        <time>2017-07-30T11:42:00Z</time>
      </trkpt>
      <trkpt lat="42.59657" lon="-0.14577">
        <ele>1061.9</ele>
        <time>2017-07-30T11:42:02Z</time>
      </trkpt>
      <trkpt lat="42.59657" lon="-0.14573">
        <ele>1061.5</ele>
        <time>2017-07-30T11:42:05Z</time>
      </trkpt>
      <trkpt lat="42.59657" lon="-0.14569">
        <ele>1060.9</ele>
        <time>2017-07-30T11:42:11Z</time>
      </trkpt>
      <trkpt lat="42.59657" lon="-0.14565">
        <ele>1060.4</ele>
        <time>2017-07-30T11:42:13Z</time>
      </trkpt>
      <trkpt lat="42.59655" lon="-0.14561">
        <ele>1059.9</ele>
        <time>2017-07-30T11:42:15Z</time>
      </trkpt>
      <trkpt lat="42.59654" lon="-0.14556">
        <ele>1058.7</ele>
        <time>2017-07-30T11:42:18Z</time>
      </trkpt>
      <trkpt lat="42.59654" lon="-0.14552">
        <ele>1057.5</ele>
        <time>2017-07-30T11:42:20Z</time>
      </trkpt>
      <trkpt lat="42.59655" lon="-0.14547">
        <ele>1056.4</ele>
        <time>2017-07-30T11:42:23Z</time>
      </trkpt>
      <trkpt lat="42.59656" lon="-0.14542">
        <ele>1055.8</ele>
        <time>2017-07-30T11:42:26Z</time>
      </trkpt>
      <trkpt lat="42.59658" lon="-0.14539">
        <ele>1055.4</ele>
        <time>2017-07-30T11:42:31Z</time>
      </trkpt>
      <trkpt lat="42.59658" lon="-0.14534">
        <ele>1055.4</ele>
        <time>2017-07-30T11:42:34Z</time>
      </trkpt>
      <trkpt lat="42.59659" lon="-0.1453">
        <ele>1055.5</ele>
        <time>2017-07-30T11:42:36Z</time>
      </trkpt>
      <trkpt lat="42.59658" lon="-0.14526">
        <ele>1055.6</ele>
        <time>2017-07-30T11:42:49Z</time>
      </trkpt>
      <trkpt lat="42.59659" lon="-0.14522">
        <ele>1055.4</ele>
        <time>2017-07-30T11:42:56Z</time>
      </trkpt>
      <trkpt lat="42.5966" lon="-0.14519">
        <ele>1055.1</ele>
        <time>2017-07-30T11:43:04Z</time>
      </trkpt>
      <trkpt lat="42.5966" lon="-0.14515">
        <ele>1054.8</ele>
        <time>2017-07-30T11:43:12Z</time>
      </trkpt>
      <trkpt lat="42.59661" lon="-0.1451">
        <ele>1054.7</ele>
        <time>2017-07-30T11:43:20Z</time>
      </trkpt>
      <trkpt lat="42.59662" lon="-0.14506">
        <ele>1054.7</ele>
        <time>2017-07-30T11:43:24Z</time>
      </trkpt>
      <trkpt lat="42.59662" lon="-0.14502">
        <ele>1054.5</ele>
        <time>2017-07-30T11:43:28Z</time>
      </trkpt>
      <trkpt lat="42.59662" lon="-0.14498">
        <ele>1053.6</ele>
        <time>2017-07-30T11:43:32Z</time>
      </trkpt>
      <trkpt lat="42.59663" lon="-0.14493">
        <ele>1052.7</ele>
        <time>2017-07-30T11:43:38Z</time>
      </trkpt>
      <trkpt lat="42.59663" lon="-0.14489">
        <ele>1051.9</ele>
        <time>2017-07-30T11:43:45Z</time>
      </trkpt>
      <trkpt lat="42.59663" lon="-0.14485">
        <ele>1051.2</ele>
        <time>2017-07-30T11:43:49Z</time>
      </trkpt>
      <trkpt lat="42.59663" lon="-0.14482">
        <ele>1050.5</ele>
        <time>2017-07-30T11:43:54Z</time>
      </trkpt>
      <trkpt lat="42.59663" lon="-0.14477">
        <ele>1049.7</ele>
        <time>2017-07-30T11:43:59Z</time>
      </trkpt>
      <trkpt lat="42.59663" lon="-0.14472">
        <ele>1048.6</ele>
        <time>2017-07-30T11:44:04Z</time>
      </trkpt>
      <trkpt lat="42.59662" lon="-0.14469">
        <ele>1047.8</ele>
        <time>2017-07-30T11:44:06Z</time>
      </trkpt>
      <trkpt lat="42.59662" lon="-0.14465">
        <ele>1046.9</ele>
        <time>2017-07-30T11:44:10Z</time>
      </trkpt>
      <trkpt lat="42.59662" lon="-0.14461">
        <ele>1045.9</ele>
        <time>2017-07-30T11:44:14Z</time>
      </trkpt>
      <trkpt lat="42.59662" lon="-0.14457">
        <ele>1045</ele>
        <time>2017-07-30T11:44:17Z</time>
      </trkpt>
      <trkpt lat="42.59663" lon="-0.14452">
        <ele>1044.2</ele>
        <time>2017-07-30T11:44:19Z</time>
      </trkpt>
      <trkpt lat="42.59664" lon="-0.14446">
        <ele>1043.5</ele>
        <time>2017-07-30T11:44:21Z</time>
      </trkpt>
      <trkpt lat="42.59666" lon="-0.14441">
        <ele>1042.9</ele>
        <time>2017-07-30T11:44:23Z</time>
      </trkpt>
      <trkpt lat="42.59667" lon="-0.14437">
        <ele>1042.6</ele>
        <time>2017-07-30T11:44:25Z</time>
      </trkpt>
      <trkpt lat="42.59667" lon="-0.14432">
        <ele>1042.5</ele>
        <time>2017-07-30T11:44:27Z</time>
      </trkpt>
      <trkpt lat="42.59667" lon="-0.14428">
        <ele>1042.2</ele>
        <time>2017-07-30T11:44:29Z</time>
      </trkpt>
      <trkpt lat="42.59667" lon="-0.14424">
        <ele>1041.6</ele>
        <time>2017-07-30T11:44:31Z</time>
      </trkpt>
      <trkpt lat="42.59666" lon="-0.14419">
        <ele>1040.9</ele>
        <time>2017-07-30T11:44:33Z</time>
      </trkpt>
      <trkpt lat="42.59666" lon="-0.14415">
        <ele>1040</ele>
        <time>2017-07-30T11:44:35Z</time>
      </trkpt>
      <trkpt lat="42.59666" lon="-0.1441">
        <ele>1039</ele>
        <time>2017-07-30T11:44:37Z</time>
      </trkpt>
      <trkpt lat="42.59667" lon="-0.14405">
        <ele>1037.9</ele>
        <time>2017-07-30T11:44:40Z</time>
      </trkpt>
      <trkpt lat="42.59667" lon="-0.144">
        <ele>1037.2</ele>
        <time>2017-07-30T11:44:42Z</time>
      </trkpt>
      <trkpt lat="42.59668" lon="-0.14396">
        <ele>1036.4</ele>
        <time>2017-07-30T11:44:44Z</time>
      </trkpt>
      <trkpt lat="42.59668" lon="-0.14392">
        <ele>1036.2</ele>
        <time>2017-07-30T11:44:46Z</time>
      </trkpt>
      <trkpt lat="42.5967" lon="-0.14388">
        <ele>1036</ele>
        <time>2017-07-30T11:44:48Z</time>
      </trkpt>
      <trkpt lat="42.59671" lon="-0.14384">
        <ele>1035.7</ele>
        <time>2017-07-30T11:44:50Z</time>
      </trkpt>
      <trkpt lat="42.59671" lon="-0.14381">
        <ele>1034.7</ele>
        <time>2017-07-30T11:44:52Z</time>
      </trkpt>
      <trkpt lat="42.59672" lon="-0.14377">
        <ele>1033.7</ele>
        <time>2017-07-30T11:44:55Z</time>
      </trkpt>
      <trkpt lat="42.59671" lon="-0.14373">
        <ele>1033</ele>
        <time>2017-07-30T11:45:07Z</time>
      </trkpt>
      <trkpt lat="42.59671" lon="-0.14369">
        <ele>1032.7</ele>
        <time>2017-07-30T11:45:11Z</time>
      </trkpt>
      <trkpt lat="42.59672" lon="-0.14365">
        <ele>1032.3</ele>
        <time>2017-07-30T11:45:16Z</time>
      </trkpt>
      <trkpt lat="42.59673" lon="-0.14361">
        <ele>1031.4</ele>
        <time>2017-07-30T11:45:22Z</time>
      </trkpt>
      <trkpt lat="42.59673" lon="-0.14356">
        <ele>1030.1</ele>
        <time>2017-07-30T11:45:24Z</time>
      </trkpt>
      <trkpt lat="42.59673" lon="-0.14351">
        <ele>1029.1</ele>
        <time>2017-07-30T11:45:26Z</time>
      </trkpt>
      <trkpt lat="42.59672" lon="-0.14348">
        <ele>1028.8</ele>
        <time>2017-07-30T11:45:28Z</time>
      </trkpt>
      <trkpt lat="42.59672" lon="-0.14344">
        <ele>1028.5</ele>
        <time>2017-07-30T11:45:30Z</time>
      </trkpt>
      <trkpt lat="42.5967" lon="-0.14339">
        <ele>1028.1</ele>
        <time>2017-07-30T11:45:32Z</time>
      </trkpt>
      <trkpt lat="42.59668" lon="-0.14334">
        <ele>1027.6</ele>
        <time>2017-07-30T11:45:34Z</time>
      </trkpt>
      <trkpt lat="42.59667" lon="-0.14329">
        <ele>1026.7</ele>
        <time>2017-07-30T11:45:36Z</time>
      </trkpt>
      <trkpt lat="42.59669" lon="-0.14319">
        <ele>1025</ele>
        <time>2017-07-30T11:46:48Z</time>
      </trkpt>
      <trkpt lat="42.59668" lon="-0.14313">
        <ele>1023.9</ele>
        <time>2017-07-30T11:46:50Z</time>
      </trkpt>
      <trkpt lat="42.59667" lon="-0.14306">
        <ele>1022</ele>
        <time>2017-07-30T11:46:52Z</time>
      </trkpt>
      <trkpt lat="42.59667" lon="-0.143">
        <ele>1020.5</ele>
        <time>2017-07-30T11:46:54Z</time>
      </trkpt>
      <trkpt lat="42.59668" lon="-0.14295">
        <ele>1019.2</ele>
        <time>2017-07-30T11:46:56Z</time>
      </trkpt>
      <trkpt lat="42.59668" lon="-0.14289">
        <ele>1017.4</ele>
        <time>2017-07-30T11:46:58Z</time>
      </trkpt>
      <trkpt lat="42.5967" lon="-0.14283">
        <ele>1015.6</ele>
        <time>2017-07-30T11:47:00Z</time>
      </trkpt>
      <trkpt lat="42.59672" lon="-0.14278">
        <ele>1014.3</ele>
        <time>2017-07-30T11:47:02Z</time>
      </trkpt>
      <trkpt lat="42.59674" lon="-0.14274">
        <ele>1013.6</ele>
        <time>2017-07-30T11:47:04Z</time>
      </trkpt>
      <trkpt lat="42.59676" lon="-0.14269">
        <ele>1013.4</ele>
        <time>2017-07-30T11:47:06Z</time>
      </trkpt>
      <trkpt lat="42.59679" lon="-0.14265">
        <ele>1013</ele>
        <time>2017-07-30T11:47:08Z</time>
      </trkpt>
      <trkpt lat="42.59681" lon="-0.1426">
        <ele>1012.1</ele>
        <time>2017-07-30T11:47:10Z</time>
      </trkpt>
      <trkpt lat="42.59684" lon="-0.14255">
        <ele>1011.1</ele>
        <time>2017-07-30T11:47:12Z</time>
      </trkpt>
      <trkpt lat="42.59687" lon="-0.14251">
        <ele>1009.5</ele>
        <time>2017-07-30T11:47:14Z</time>
      </trkpt>
      <trkpt lat="42.5969" lon="-0.14247">
        <ele>1008.2</ele>
        <time>2017-07-30T11:47:16Z</time>
      </trkpt>
      <trkpt lat="42.59693" lon="-0.14243">
        <ele>1007.7</ele>
        <time>2017-07-30T11:47:18Z</time>
      </trkpt>
      <trkpt lat="42.59695" lon="-0.14241">
        <ele>1007.3</ele>
        <time>2017-07-30T11:47:20Z</time>
      </trkpt>
      <trkpt lat="42.59698" lon="-0.14238">
        <ele>1006.9</ele>
        <time>2017-07-30T11:47:22Z</time>
      </trkpt>
      <trkpt lat="42.597" lon="-0.14235">
        <ele>1006.6</ele>
        <time>2017-07-30T11:47:24Z</time>
      </trkpt>
      <trkpt lat="42.59702" lon="-0.14233">
        <ele>1006.3</ele>
        <time>2017-07-30T11:47:26Z</time>
      </trkpt>
      <trkpt lat="42.59705" lon="-0.14231">
        <ele>1006.2</ele>
        <time>2017-07-30T11:47:28Z</time>
      </trkpt>
      <trkpt lat="42.59707" lon="-0.14228">
        <ele>1006.3</ele>
        <time>2017-07-30T11:47:30Z</time>
      </trkpt>
      <trkpt lat="42.5971" lon="-0.14226">
        <ele>1006.4</ele>
        <time>2017-07-30T11:47:32Z</time>
      </trkpt>
      <trkpt lat="42.59712" lon="-0.14223">
        <ele>1006.5</ele>
        <time>2017-07-30T11:47:35Z</time>
      </trkpt>
      <trkpt lat="42.59715" lon="-0.14221">
        <ele>1006.7</ele>
        <time>2017-07-30T11:47:38Z</time>
      </trkpt>
      <trkpt lat="42.59718" lon="-0.14218">
        <ele>1006.9</ele>
        <time>2017-07-30T11:47:41Z</time>
      </trkpt>
      <trkpt lat="42.5972" lon="-0.14214">
        <ele>1007.1</ele>
        <time>2017-07-30T11:47:43Z</time>
      </trkpt>
      <trkpt lat="42.59722" lon="-0.1421">
        <ele>1007.4</ele>
        <time>2017-07-30T11:47:45Z</time>
      </trkpt>
      <trkpt lat="42.59724" lon="-0.14205">
        <ele>1007.2</ele>
        <time>2017-07-30T11:47:47Z</time>
      </trkpt>
      <trkpt lat="42.59727" lon="-0.14201">
        <ele>1006.4</ele>
        <time>2017-07-30T11:47:49Z</time>
      </trkpt>
      <trkpt lat="42.5973" lon="-0.14197">
        <ele>1006</ele>
        <time>2017-07-30T11:47:51Z</time>
      </trkpt>
      <trkpt lat="42.59734" lon="-0.14192">
        <ele>1006.2</ele>
        <time>2017-07-30T11:47:53Z</time>
      </trkpt>
      <trkpt lat="42.59736" lon="-0.14186">
        <ele>1006.2</ele>
        <time>2017-07-30T11:47:55Z</time>
      </trkpt>
      <trkpt lat="42.59738" lon="-0.14182">
        <ele>1006.2</ele>
        <time>2017-07-30T11:47:57Z</time>
      </trkpt>
      <trkpt lat="42.5974" lon="-0.14178">
        <ele>1006.3</ele>
        <time>2017-07-30T11:47:59Z</time>
      </trkpt>
      <trkpt lat="42.59742" lon="-0.14175">
        <ele>1006.4</ele>
        <time>2017-07-30T11:48:01Z</time>
      </trkpt>
      <trkpt lat="42.59744" lon="-0.14171">
        <ele>1006.9</ele>
        <time>2017-07-30T11:48:03Z</time>
      </trkpt>
      <trkpt lat="42.59746" lon="-0.14168">
        <ele>1008.1</ele>
        <time>2017-07-30T11:48:05Z</time>
      </trkpt>
      <trkpt lat="42.59747" lon="-0.14163">
        <ele>1009.2</ele>
        <time>2017-07-30T11:48:07Z</time>
      </trkpt>
      <trkpt lat="42.59747" lon="-0.14159">
        <ele>1009.2</ele>
        <time>2017-07-30T11:48:09Z</time>
      </trkpt>
      <trkpt lat="42.59748" lon="-0.14155">
        <ele>1008.9</ele>
        <time>2017-07-30T11:48:11Z</time>
      </trkpt>
      <trkpt lat="42.59751" lon="-0.14151">
        <ele>1008.9</ele>
        <time>2017-07-30T11:48:13Z</time>
      </trkpt>
      <trkpt lat="42.59754" lon="-0.14148">
        <ele>1008.8</ele>
        <time>2017-07-30T11:48:15Z</time>
      </trkpt>
      <trkpt lat="42.59757" lon="-0.14145">
        <ele>1009.6</ele>
        <time>2017-07-30T11:48:17Z</time>
      </trkpt>
      <trkpt lat="42.59759" lon="-0.14142">
        <ele>1009.4</ele>
        <time>2017-07-30T11:48:20Z</time>
      </trkpt>
      <trkpt lat="42.59761" lon="-0.14139">
        <ele>1008.5</ele>
        <time>2017-07-30T11:48:35Z</time>
      </trkpt>
      <trkpt lat="42.59764" lon="-0.14137">
        <ele>1009.5</ele>
        <time>2017-07-30T11:48:40Z</time>
      </trkpt>
      <trkpt lat="42.59766" lon="-0.14135">
        <ele>1008.9</ele>
        <time>2017-07-30T11:48:45Z</time>
      </trkpt>
      <trkpt lat="42.59769" lon="-0.14133">
        <ele>1009.9</ele>
        <time>2017-07-30T11:48:51Z</time>
      </trkpt>
      <trkpt lat="42.59772" lon="-0.14131">
        <ele>1008.8</ele>
        <time>2017-07-30T11:48:54Z</time>
      </trkpt>
      <trkpt lat="42.59775" lon="-0.14129">
        <ele>1009.7</ele>
        <time>2017-07-30T11:48:57Z</time>
      </trkpt>
      <trkpt lat="42.59777" lon="-0.14125">
        <ele>1007.8</ele>
        <time>2017-07-30T11:49:01Z</time>
      </trkpt>
      <trkpt lat="42.5978" lon="-0.14126">
        <ele>1009.3</ele>
        <time>2017-07-30T11:49:06Z</time>
      </trkpt>
      <trkpt lat="42.59784" lon="-0.14126">
        <ele>1010.4</ele>
        <time>2017-07-30T11:49:08Z</time>
      </trkpt>
      <trkpt lat="42.59787" lon="-0.14126">
        <ele>1009.6</ele>
        <time>2017-07-30T11:49:09Z</time>
      </trkpt>
      <trkpt lat="42.5979" lon="-0.14126">
        <ele>1008.5</ele>
        <time>2017-07-30T11:49:10Z</time>
      </trkpt>
      <trkpt lat="42.59793" lon="-0.14126">
        <ele>1007.4</ele>
        <time>2017-07-30T11:49:11Z</time>
      </trkpt>
      <trkpt lat="42.59797" lon="-0.14123">
        <ele>1004.8</ele>
        <time>2017-07-30T11:49:13Z</time>
      </trkpt>
      <trkpt lat="42.598" lon="-0.14121">
        <ele>1003.2</ele>
        <time>2017-07-30T11:49:15Z</time>
      </trkpt>
      <trkpt lat="42.59802" lon="-0.14117">
        <ele>1001.9</ele>
        <time>2017-07-30T11:49:17Z</time>
      </trkpt>
      <trkpt lat="42.59801" lon="-0.14113">
        <ele>1000.6</ele>
        <time>2017-07-30T11:49:21Z</time>
      </trkpt>
      <trkpt lat="42.59799" lon="-0.1411">
        <ele>998.2</ele>
        <time>2017-07-30T11:49:24Z</time>
      </trkpt>
      <trkpt lat="42.59797" lon="-0.14108">
        <ele>996.1</ele>
        <time>2017-07-30T11:49:27Z</time>
      </trkpt>
      <trkpt lat="42.59796" lon="-0.14104">
        <ele>994.5</ele>
        <time>2017-07-30T11:49:31Z</time>
      </trkpt>
      <trkpt lat="42.59797" lon="-0.141">
        <ele>993.3</ele>
        <time>2017-07-30T11:49:34Z</time>
      </trkpt>
      <trkpt lat="42.59797" lon="-0.14095">
        <ele>992.1</ele>
        <time>2017-07-30T11:49:37Z</time>
      </trkpt>
      <trkpt lat="42.59798" lon="-0.14091">
        <ele>991.3</ele>
        <time>2017-07-30T11:49:40Z</time>
      </trkpt>
      <trkpt lat="42.59798" lon="-0.14086">
        <ele>990.3</ele>
        <time>2017-07-30T11:49:43Z</time>
      </trkpt>
      <trkpt lat="42.59799" lon="-0.14081">
        <ele>989</ele>
        <time>2017-07-30T11:49:45Z</time>
      </trkpt>
      <trkpt lat="42.598" lon="-0.14076">
        <ele>987.4</ele>
        <time>2017-07-30T11:49:47Z</time>
      </trkpt>
      <trkpt lat="42.59799" lon="-0.14071">
        <ele>986.7</ele>
        <time>2017-07-30T11:49:49Z</time>
      </trkpt>
      <trkpt lat="42.59799" lon="-0.14067">
        <ele>986.4</ele>
        <time>2017-07-30T11:49:51Z</time>
      </trkpt>
      <trkpt lat="42.59797" lon="-0.14062">
        <ele>985.9</ele>
        <time>2017-07-30T11:49:53Z</time>
      </trkpt>
      <trkpt lat="42.59795" lon="-0.14056">
        <ele>983.5</ele>
        <time>2017-07-30T11:49:55Z</time>
      </trkpt>
      <trkpt lat="42.59793" lon="-0.1405">
        <ele>981.5</ele>
        <time>2017-07-30T11:49:57Z</time>
      </trkpt>
      <trkpt lat="42.59792" lon="-0.14043">
        <ele>980.1</ele>
        <time>2017-07-30T11:49:59Z</time>
      </trkpt>
      <trkpt lat="42.59791" lon="-0.14037">
        <ele>978.9</ele>
        <time>2017-07-30T11:50:01Z</time>
      </trkpt>
      <trkpt lat="42.59789" lon="-0.14031">
        <ele>977.6</ele>
        <time>2017-07-30T11:50:03Z</time>
      </trkpt>
      <trkpt lat="42.59787" lon="-0.14027">
        <ele>976.6</ele>
        <time>2017-07-30T11:50:05Z</time>
      </trkpt>
      <trkpt lat="42.59784" lon="-0.14021">
        <ele>976.1</ele>
        <time>2017-07-30T11:50:07Z</time>
      </trkpt>
      <trkpt lat="42.59782" lon="-0.14017">
        <ele>975.7</ele>
        <time>2017-07-30T11:50:08Z</time>
      </trkpt>
      <trkpt lat="42.59779" lon="-0.14013">
        <ele>975.4</ele>
        <time>2017-07-30T11:50:09Z</time>
      </trkpt>
      <trkpt lat="42.59777" lon="-0.1401">
        <ele>975.2</ele>
        <time>2017-07-30T11:50:10Z</time>
      </trkpt>
      <trkpt lat="42.59776" lon="-0.14006">
        <ele>975.1</ele>
        <time>2017-07-30T11:50:11Z</time>
      </trkpt>
      <trkpt lat="42.59775" lon="-0.14002">
        <ele>975</ele>
        <time>2017-07-30T11:50:12Z</time>
      </trkpt>
      <trkpt lat="42.59775" lon="-0.13997">
        <ele>975</ele>
        <time>2017-07-30T11:50:13Z</time>
      </trkpt>
      <trkpt lat="42.59776" lon="-0.13992">
        <ele>975.2</ele>
        <time>2017-07-30T11:50:14Z</time>
      </trkpt>
      <trkpt lat="42.59777" lon="-0.13986">
        <ele>975.3</ele>
        <time>2017-07-30T11:50:15Z</time>
      </trkpt>
      <trkpt lat="42.59778" lon="-0.13981">
        <ele>975.2</ele>
        <time>2017-07-30T11:50:16Z</time>
      </trkpt>
      <trkpt lat="42.59779" lon="-0.13975">
        <ele>975</ele>
        <time>2017-07-30T11:50:17Z</time>
      </trkpt>
      <trkpt lat="42.5978" lon="-0.13969">
        <ele>975.1</ele>
        <time>2017-07-30T11:50:18Z</time>
      </trkpt>
      <trkpt lat="42.59781" lon="-0.13964">
        <ele>975.2</ele>
        <time>2017-07-30T11:50:19Z</time>
      </trkpt>
      <trkpt lat="42.59782" lon="-0.13959">
        <ele>975.1</ele>
        <time>2017-07-30T11:50:20Z</time>
      </trkpt>
      <trkpt lat="42.59783" lon="-0.13954">
        <ele>974.7</ele>
        <time>2017-07-30T11:50:21Z</time>
      </trkpt>
      <trkpt lat="42.59784" lon="-0.13949">
        <ele>974.6</ele>
        <time>2017-07-30T11:50:22Z</time>
      </trkpt>
      <trkpt lat="42.59785" lon="-0.13944">
        <ele>974.8</ele>
        <time>2017-07-30T11:50:23Z</time>
      </trkpt>
      <trkpt lat="42.59786" lon="-0.13938">
        <ele>975.1</ele>
        <time>2017-07-30T11:50:24Z</time>
      </trkpt>
      <trkpt lat="42.59787" lon="-0.13933">
        <ele>975.6</ele>
        <time>2017-07-30T11:50:25Z</time>
      </trkpt>
      <trkpt lat="42.59789" lon="-0.13928">
        <ele>976.1</ele>
        <time>2017-07-30T11:50:26Z</time>
      </trkpt>
      <trkpt lat="42.5979" lon="-0.13922">
        <ele>976.8</ele>
        <time>2017-07-30T11:50:27Z</time>
      </trkpt>
      <trkpt lat="42.59792" lon="-0.13917">
        <ele>977.3</ele>
        <time>2017-07-30T11:50:28Z</time>
      </trkpt>
      <trkpt lat="42.59794" lon="-0.13912">
        <ele>977.8</ele>
        <time>2017-07-30T11:50:29Z</time>
      </trkpt>
      <trkpt lat="42.59795" lon="-0.13908">
        <ele>978</ele>
        <time>2017-07-30T11:50:30Z</time>
      </trkpt>
      <trkpt lat="42.59797" lon="-0.13904">
        <ele>978.2</ele>
        <time>2017-07-30T11:50:31Z</time>
      </trkpt>
      <trkpt lat="42.59799" lon="-0.13901">
        <ele>978.3</ele>
        <time>2017-07-30T11:50:32Z</time>
      </trkpt>
      <trkpt lat="42.598" lon="-0.13897">
        <ele>978.4</ele>
        <time>2017-07-30T11:50:33Z</time>
      </trkpt>
      <trkpt lat="42.59803" lon="-0.13891">
        <ele>978</ele>
        <time>2017-07-30T11:50:35Z</time>
      </trkpt>
      <trkpt lat="42.59805" lon="-0.13887">
        <ele>977.5</ele>
        <time>2017-07-30T11:50:36Z</time>
      </trkpt>
      <trkpt lat="42.59806" lon="-0.13883">
        <ele>977.1</ele>
        <time>2017-07-30T11:50:37Z</time>
      </trkpt>
      <trkpt lat="42.59808" lon="-0.13879">
        <ele>976.9</ele>
        <time>2017-07-30T11:50:38Z</time>
      </trkpt>
      <trkpt lat="42.59809" lon="-0.13875">
        <ele>976.8</ele>
        <time>2017-07-30T11:50:39Z</time>
      </trkpt>
      <trkpt lat="42.59811" lon="-0.1387">
        <ele>976.5</ele>
        <time>2017-07-30T11:50:40Z</time>
      </trkpt>
      <trkpt lat="42.59812" lon="-0.13865">
        <ele>976.3</ele>
        <time>2017-07-30T11:50:41Z</time>
      </trkpt>
      <trkpt lat="42.59813" lon="-0.13861">
        <ele>975.9</ele>
        <time>2017-07-30T11:50:42Z</time>
      </trkpt>
      <trkpt lat="42.59814" lon="-0.13856">
        <ele>975.5</ele>
        <time>2017-07-30T11:50:43Z</time>
      </trkpt>
      <trkpt lat="42.59814" lon="-0.13851">
        <ele>975.3</ele>
        <time>2017-07-30T11:50:44Z</time>
      </trkpt>
      <trkpt lat="42.59815" lon="-0.13846">
        <ele>975.3</ele>
        <time>2017-07-30T11:50:45Z</time>
      </trkpt>
      <trkpt lat="42.59816" lon="-0.13841">
        <ele>975.3</ele>
        <time>2017-07-30T11:50:46Z</time>
      </trkpt>
      <trkpt lat="42.59816" lon="-0.13837">
        <ele>975.6</ele>
        <time>2017-07-30T11:50:47Z</time>
      </trkpt>
      <trkpt lat="42.59817" lon="-0.13831">
        <ele>976</ele>
        <time>2017-07-30T11:50:49Z</time>
      </trkpt>
      <trkpt lat="42.59817" lon="-0.13826">
        <ele>976.3</ele>
        <time>2017-07-30T11:50:51Z</time>
      </trkpt>
      <trkpt lat="42.59819" lon="-0.1382">
        <ele>976.7</ele>
        <time>2017-07-30T11:50:53Z</time>
      </trkpt>
      <trkpt lat="42.5982" lon="-0.13817">
        <ele>977.1</ele>
        <time>2017-07-30T11:50:54Z</time>
      </trkpt>
      <trkpt lat="42.59822" lon="-0.13814">
        <ele>977.8</ele>
        <time>2017-07-30T11:50:55Z</time>
      </trkpt>
      <trkpt lat="42.59824" lon="-0.13811">
        <ele>978.4</ele>
        <time>2017-07-30T11:50:56Z</time>
      </trkpt>
      <trkpt lat="42.59826" lon="-0.13808">
        <ele>978.5</ele>
        <time>2017-07-30T11:50:57Z</time>
      </trkpt>
      <trkpt lat="42.59827" lon="-0.13805">
        <ele>978.3</ele>
        <time>2017-07-30T11:50:58Z</time>
      </trkpt>
      <trkpt lat="42.59829" lon="-0.13801">
        <ele>978.1</ele>
        <time>2017-07-30T11:50:59Z</time>
      </trkpt>
      <trkpt lat="42.59831" lon="-0.13797">
        <ele>978.3</ele>
        <time>2017-07-30T11:51:00Z</time>
      </trkpt>
      <trkpt lat="42.59833" lon="-0.13794">
        <ele>978.5</ele>
        <time>2017-07-30T11:51:01Z</time>
      </trkpt>
      <trkpt lat="42.59834" lon="-0.13791">
        <ele>978.8</ele>
        <time>2017-07-30T11:51:02Z</time>
      </trkpt>
      <trkpt lat="42.59837" lon="-0.13786">
        <ele>979.7</ele>
        <time>2017-07-30T11:51:04Z</time>
      </trkpt>
      <trkpt lat="42.5984" lon="-0.13779">
        <ele>980.5</ele>
        <time>2017-07-30T11:51:06Z</time>
      </trkpt>
      <trkpt lat="42.59842" lon="-0.13776">
        <ele>980.5</ele>
        <time>2017-07-30T11:51:07Z</time>
      </trkpt>
      <trkpt lat="42.59844" lon="-0.13772">
        <ele>980.6</ele>
        <time>2017-07-30T11:51:08Z</time>
      </trkpt>
      <trkpt lat="42.59846" lon="-0.13768">
        <ele>980.6</ele>
        <time>2017-07-30T11:51:09Z</time>
      </trkpt>
      <trkpt lat="42.59848" lon="-0.13765">
        <ele>980.6</ele>
        <time>2017-07-30T11:51:10Z</time>
      </trkpt>
      <trkpt lat="42.5985" lon="-0.13761">
        <ele>980.1</ele>
        <time>2017-07-30T11:51:11Z</time>
      </trkpt>
      <trkpt lat="42.59851" lon="-0.13756">
        <ele>979</ele>
        <time>2017-07-30T11:51:12Z</time>
      </trkpt>
      <trkpt lat="42.59852" lon="-0.13752">
        <ele>978</ele>
        <time>2017-07-30T11:51:13Z</time>
      </trkpt>
      <trkpt lat="42.59853" lon="-0.13747">
        <ele>978</ele>
        <time>2017-07-30T11:51:14Z</time>
      </trkpt>
      <trkpt lat="42.59853" lon="-0.13741">
        <ele>978</ele>
        <time>2017-07-30T11:51:15Z</time>
      </trkpt>
      <trkpt lat="42.59853" lon="-0.13736">
        <ele>977.9</ele>
        <time>2017-07-30T11:51:16Z</time>
      </trkpt>
      <trkpt lat="42.59854" lon="-0.1373">
        <ele>977.7</ele>
        <time>2017-07-30T11:51:17Z</time>
      </trkpt>
      <trkpt lat="42.59855" lon="-0.13724">
        <ele>977.3</ele>
        <time>2017-07-30T11:51:18Z</time>
      </trkpt>
      <trkpt lat="42.59856" lon="-0.13718">
        <ele>977</ele>
        <time>2017-07-30T11:51:19Z</time>
      </trkpt>
      <trkpt lat="42.59858" lon="-0.13712">
        <ele>977.3</ele>
        <time>2017-07-30T11:51:20Z</time>
      </trkpt>
      <trkpt lat="42.59859" lon="-0.13705">
        <ele>977.8</ele>
        <time>2017-07-30T11:51:21Z</time>
      </trkpt>
      <trkpt lat="42.59861" lon="-0.13698">
        <ele>978.3</ele>
        <time>2017-07-30T11:51:22Z</time>
      </trkpt>
      <trkpt lat="42.59862" lon="-0.13693">
        <ele>978.2</ele>
        <time>2017-07-30T11:51:23Z</time>
      </trkpt>
      <trkpt lat="42.59863" lon="-0.13689">
        <ele>977.7</ele>
        <time>2017-07-30T11:51:24Z</time>
      </trkpt>
      <trkpt lat="42.59863" lon="-0.13686">
        <ele>977.2</ele>
        <time>2017-07-30T11:51:25Z</time>
      </trkpt>
      <trkpt lat="42.59864" lon="-0.13682">
        <ele>977.4</ele>
        <time>2017-07-30T11:51:26Z</time>
      </trkpt>
      <trkpt lat="42.59865" lon="-0.13676">
        <ele>977.7</ele>
        <time>2017-07-30T11:51:28Z</time>
      </trkpt>
      <trkpt lat="42.59865" lon="-0.13671">
        <ele>976.9</ele>
        <time>2017-07-30T11:51:30Z</time>
      </trkpt>
      <trkpt lat="42.59865" lon="-0.13665">
        <ele>974.9</ele>
        <time>2017-07-30T11:51:32Z</time>
      </trkpt>
      <trkpt lat="42.59865" lon="-0.13659">
        <ele>973.4</ele>
        <time>2017-07-30T11:51:34Z</time>
      </trkpt>
      <trkpt lat="42.59863" lon="-0.13654">
        <ele>972.3</ele>
        <time>2017-07-30T11:51:36Z</time>
      </trkpt>
      <trkpt lat="42.59861" lon="-0.13648">
        <ele>971.3</ele>
        <time>2017-07-30T11:51:38Z</time>
      </trkpt>
      <trkpt lat="42.5986" lon="-0.13642">
        <ele>970.4</ele>
        <time>2017-07-30T11:51:40Z</time>
      </trkpt>
      <trkpt lat="42.59859" lon="-0.13638">
        <ele>969.7</ele>
        <time>2017-07-30T11:51:42Z</time>
      </trkpt>
      <trkpt lat="42.5986" lon="-0.13633">
        <ele>968.4</ele>
        <time>2017-07-30T11:51:44Z</time>
      </trkpt>
      <trkpt lat="42.5986" lon="-0.13627">
        <ele>967.1</ele>
        <time>2017-07-30T11:51:46Z</time>
      </trkpt>
      <trkpt lat="42.5986" lon="-0.13622">
        <ele>966.3</ele>
        <time>2017-07-30T11:51:48Z</time>
      </trkpt>
      <trkpt lat="42.5986" lon="-0.13618">
        <ele>965.8</ele>
        <time>2017-07-30T11:51:50Z</time>
      </trkpt>
      <trkpt lat="42.59861" lon="-0.13612">
        <ele>965.2</ele>
        <time>2017-07-30T11:51:52Z</time>
      </trkpt>
      <trkpt lat="42.59862" lon="-0.13608">
        <ele>964.9</ele>
        <time>2017-07-30T11:51:53Z</time>
      </trkpt>
      <trkpt lat="42.59862" lon="-0.13603">
        <ele>964.7</ele>
        <time>2017-07-30T11:51:54Z</time>
      </trkpt>
      <trkpt lat="42.59862" lon="-0.13599">
        <ele>964.2</ele>
        <time>2017-07-30T11:51:55Z</time>
      </trkpt>
      <trkpt lat="42.59863" lon="-0.13595">
        <ele>963.3</ele>
        <time>2017-07-30T11:51:56Z</time>
      </trkpt>
      <trkpt lat="42.59864" lon="-0.1359">
        <ele>962.5</ele>
        <time>2017-07-30T11:51:57Z</time>
      </trkpt>
      <trkpt lat="42.59865" lon="-0.13587">
        <ele>962</ele>
        <time>2017-07-30T11:51:58Z</time>
      </trkpt>
      <trkpt lat="42.59867" lon="-0.13583">
        <ele>961.6</ele>
        <time>2017-07-30T11:51:59Z</time>
      </trkpt>
      <trkpt lat="42.59869" lon="-0.13578">
        <ele>960.9</ele>
        <time>2017-07-30T11:52:00Z</time>
      </trkpt>
      <trkpt lat="42.5987" lon="-0.13574">
        <ele>960</ele>
        <time>2017-07-30T11:52:01Z</time>
      </trkpt>
      <trkpt lat="42.59872" lon="-0.1357">
        <ele>959.3</ele>
        <time>2017-07-30T11:52:02Z</time>
      </trkpt>
      <trkpt lat="42.59873" lon="-0.13564">
        <ele>958.2</ele>
        <time>2017-07-30T11:52:04Z</time>
      </trkpt>
      <trkpt lat="42.59874" lon="-0.1356">
        <ele>957.6</ele>
        <time>2017-07-30T11:52:05Z</time>
      </trkpt>
      <trkpt lat="42.59874" lon="-0.13557">
        <ele>957</ele>
        <time>2017-07-30T11:52:07Z</time>
      </trkpt>
      <trkpt lat="42.59873" lon="-0.13551">
        <ele>955.9</ele>
        <time>2017-07-30T11:52:10Z</time>
      </trkpt>
      <trkpt lat="42.59874" lon="-0.13544">
        <ele>954.7</ele>
        <time>2017-07-30T11:52:12Z</time>
      </trkpt>
      <trkpt lat="42.59877" lon="-0.13538">
        <ele>953.5</ele>
        <time>2017-07-30T11:52:14Z</time>
      </trkpt>
      <trkpt lat="42.59878" lon="-0.13534">
        <ele>952.9</ele>
        <time>2017-07-30T11:52:15Z</time>
      </trkpt>
      <trkpt lat="42.59879" lon="-0.13529">
        <ele>952.7</ele>
        <time>2017-07-30T11:52:16Z</time>
      </trkpt>
      <trkpt lat="42.5988" lon="-0.13523">
        <ele>952.8</ele>
        <time>2017-07-30T11:52:17Z</time>
      </trkpt>
      <trkpt lat="42.5988" lon="-0.13519">
        <ele>952.3</ele>
        <time>2017-07-30T11:52:18Z</time>
      </trkpt>
      <trkpt lat="42.59881" lon="-0.13515">
        <ele>951.4</ele>
        <time>2017-07-30T11:52:19Z</time>
      </trkpt>
      <trkpt lat="42.59884" lon="-0.13511">
        <ele>950</ele>
        <time>2017-07-30T11:52:21Z</time>
      </trkpt>
      <trkpt lat="42.59885" lon="-0.13507">
        <ele>949.5</ele>
        <time>2017-07-30T11:52:24Z</time>
      </trkpt>
      <trkpt lat="42.59884" lon="-0.13503">
        <ele>949.2</ele>
        <time>2017-07-30T11:52:26Z</time>
      </trkpt>
      <trkpt lat="42.59886" lon="-0.13498">
        <ele>948.4</ele>
        <time>2017-07-30T11:52:28Z</time>
      </trkpt>
      <trkpt lat="42.59889" lon="-0.13493">
        <ele>947</ele>
        <time>2017-07-30T11:52:30Z</time>
      </trkpt>
      <trkpt lat="42.59891" lon="-0.13487">
        <ele>945.6</ele>
        <time>2017-07-30T11:52:32Z</time>
      </trkpt>
      <trkpt lat="42.59891" lon="-0.13484">
        <ele>944.8</ele>
        <time>2017-07-30T11:52:36Z</time>
      </trkpt>
      <trkpt lat="42.59893" lon="-0.13478">
        <ele>943.4</ele>
        <time>2017-07-30T11:52:39Z</time>
      </trkpt>
      <trkpt lat="42.59893" lon="-0.13472">
        <ele>940.6</ele>
        <time>2017-07-30T11:52:41Z</time>
      </trkpt>
      <trkpt lat="42.59893" lon="-0.13468">
        <ele>939</ele>
        <time>2017-07-30T11:52:42Z</time>
      </trkpt>
      <trkpt lat="42.59894" lon="-0.13465">
        <ele>938.2</ele>
        <time>2017-07-30T11:52:43Z</time>
      </trkpt>
      <trkpt lat="42.59895" lon="-0.13461">
        <ele>937.6</ele>
        <time>2017-07-30T11:52:44Z</time>
      </trkpt>
      <trkpt lat="42.59895" lon="-0.13457">
        <ele>937</ele>
        <time>2017-07-30T11:52:45Z</time>
      </trkpt>
      <trkpt lat="42.59896" lon="-0.13453">
        <ele>936.1</ele>
        <time>2017-07-30T11:52:46Z</time>
      </trkpt>
      <trkpt lat="42.59897" lon="-0.13449">
        <ele>935.3</ele>
        <time>2017-07-30T11:52:47Z</time>
      </trkpt>
      <trkpt lat="42.59898" lon="-0.13442">
        <ele>933.9</ele>
        <time>2017-07-30T11:52:49Z</time>
      </trkpt>
      <trkpt lat="42.59899" lon="-0.13439">
        <ele>933.2</ele>
        <time>2017-07-30T11:52:50Z</time>
      </trkpt>
      <trkpt lat="42.59899" lon="-0.13435">
        <ele>932.2</ele>
        <time>2017-07-30T11:52:51Z</time>
      </trkpt>
      <trkpt lat="42.59899" lon="-0.13431">
        <ele>930.8</ele>
        <time>2017-07-30T11:52:52Z</time>
      </trkpt>
      <trkpt lat="42.59898" lon="-0.13424">
        <ele>928.8</ele>
        <time>2017-07-30T11:52:54Z</time>
      </trkpt>
      <trkpt lat="42.59897" lon="-0.13421">
        <ele>928.2</ele>
        <time>2017-07-30T11:52:55Z</time>
      </trkpt>
      <trkpt lat="42.59896" lon="-0.13418">
        <ele>927.6</ele>
        <time>2017-07-30T11:52:56Z</time>
      </trkpt>
      <trkpt lat="42.59894" lon="-0.13413">
        <ele>926.2</ele>
        <time>2017-07-30T11:52:58Z</time>
      </trkpt>
      <trkpt lat="42.59892" lon="-0.1341">
        <ele>925</ele>
        <time>2017-07-30T11:53:00Z</time>
      </trkpt>
      <trkpt lat="42.59892" lon="-0.13406">
        <ele>923.5</ele>
        <time>2017-07-30T11:53:29Z</time>
      </trkpt>
      <trkpt lat="42.5989" lon="-0.13404">
        <ele>922.1</ele>
        <time>2017-07-30T11:53:34Z</time>
      </trkpt>
      <trkpt lat="42.59887" lon="-0.13402">
        <ele>921.2</ele>
        <time>2017-07-30T11:53:38Z</time>
      </trkpt>
      <trkpt lat="42.59885" lon="-0.13399">
        <ele>920.6</ele>
        <time>2017-07-30T11:53:42Z</time>
      </trkpt>
      <trkpt lat="42.59882" lon="-0.13395">
        <ele>919.9</ele>
        <time>2017-07-30T11:53:45Z</time>
      </trkpt>
      <trkpt lat="42.59879" lon="-0.13391">
        <ele>919.4</ele>
        <time>2017-07-30T11:53:47Z</time>
      </trkpt>
      <trkpt lat="42.59876" lon="-0.13387">
        <ele>918.3</ele>
        <time>2017-07-30T11:53:49Z</time>
      </trkpt>
      <trkpt lat="42.59873" lon="-0.13382">
        <ele>917.5</ele>
        <time>2017-07-30T11:53:51Z</time>
      </trkpt>
      <trkpt lat="42.5987" lon="-0.13377">
        <ele>917.1</ele>
        <time>2017-07-30T11:53:53Z</time>
      </trkpt>
      <trkpt lat="42.59868" lon="-0.13373">
        <ele>916.5</ele>
        <time>2017-07-30T11:53:55Z</time>
      </trkpt>
      <trkpt lat="42.59867" lon="-0.13368">
        <ele>916.1</ele>
        <time>2017-07-30T11:53:57Z</time>
      </trkpt>
      <trkpt lat="42.59866" lon="-0.13363">
        <ele>915.4</ele>
        <time>2017-07-30T11:53:59Z</time>
      </trkpt>
      <trkpt lat="42.59863" lon="-0.13358">
        <ele>914.7</ele>
        <time>2017-07-30T11:54:01Z</time>
      </trkpt>
      <trkpt lat="42.59861" lon="-0.13354">
        <ele>914.2</ele>
        <time>2017-07-30T11:54:03Z</time>
      </trkpt>
      <trkpt lat="42.5986" lon="-0.13348">
        <ele>913.8</ele>
        <time>2017-07-30T11:54:05Z</time>
      </trkpt>
      <trkpt lat="42.59861" lon="-0.13342">
        <ele>913.1</ele>
        <time>2017-07-30T11:54:07Z</time>
      </trkpt>
      <trkpt lat="42.59862" lon="-0.13337">
        <ele>912.3</ele>
        <time>2017-07-30T11:54:09Z</time>
      </trkpt>
      <trkpt lat="42.59863" lon="-0.13331">
        <ele>911.6</ele>
        <time>2017-07-30T11:54:11Z</time>
      </trkpt>
      <trkpt lat="42.59864" lon="-0.13326">
        <ele>911.2</ele>
        <time>2017-07-30T11:54:13Z</time>
      </trkpt>
      <trkpt lat="42.59866" lon="-0.13321">
        <ele>910.6</ele>
        <time>2017-07-30T11:54:15Z</time>
      </trkpt>
      <trkpt lat="42.59868" lon="-0.13316">
        <ele>909.6</ele>
        <time>2017-07-30T11:54:17Z</time>
      </trkpt>
      <trkpt lat="42.5987" lon="-0.13309">
        <ele>908.1</ele>
        <time>2017-07-30T11:54:19Z</time>
      </trkpt>
      <trkpt lat="42.59871" lon="-0.13301">
        <ele>906.8</ele>
        <time>2017-07-30T11:54:21Z</time>
      </trkpt>
      <trkpt lat="42.59872" lon="-0.13294">
        <ele>905.8</ele>
        <time>2017-07-30T11:54:23Z</time>
      </trkpt>
      <trkpt lat="42.59873" lon="-0.1329">
        <ele>905.1</ele>
        <time>2017-07-30T11:54:24Z</time>
      </trkpt>
      <trkpt lat="42.59873" lon="-0.13287">
        <ele>904.3</ele>
        <time>2017-07-30T11:54:25Z</time>
      </trkpt>
      <trkpt lat="42.59873" lon="-0.13283">
        <ele>903.5</ele>
        <time>2017-07-30T11:54:26Z</time>
      </trkpt>
      <trkpt lat="42.59874" lon="-0.13278">
        <ele>903</ele>
        <time>2017-07-30T11:54:27Z</time>
      </trkpt>
      <trkpt lat="42.59875" lon="-0.13274">
        <ele>902.9</ele>
        <time>2017-07-30T11:54:28Z</time>
      </trkpt>
      <trkpt lat="42.59876" lon="-0.13269">
        <ele>902.8</ele>
        <time>2017-07-30T11:54:29Z</time>
      </trkpt>
      <trkpt lat="42.59878" lon="-0.13265">
        <ele>903</ele>
        <time>2017-07-30T11:54:30Z</time>
      </trkpt>
      <trkpt lat="42.59879" lon="-0.13259">
        <ele>903.5</ele>
        <time>2017-07-30T11:54:32Z</time>
      </trkpt>
      <trkpt lat="42.59881" lon="-0.13254">
        <ele>903.9</ele>
        <time>2017-07-30T11:54:34Z</time>
      </trkpt>
      <trkpt lat="42.59884" lon="-0.13248">
        <ele>904.6</ele>
        <time>2017-07-30T11:54:36Z</time>
      </trkpt>
      <trkpt lat="42.59885" lon="-0.13245">
        <ele>905</ele>
        <time>2017-07-30T11:54:37Z</time>
      </trkpt>
      <trkpt lat="42.59887" lon="-0.13241">
        <ele>905.4</ele>
        <time>2017-07-30T11:54:38Z</time>
      </trkpt>
      <trkpt lat="42.59889" lon="-0.13237">
        <ele>905.4</ele>
        <time>2017-07-30T11:54:39Z</time>
      </trkpt>
      <trkpt lat="42.59891" lon="-0.13233">
        <ele>905</ele>
        <time>2017-07-30T11:54:40Z</time>
      </trkpt>
      <trkpt lat="42.59892" lon="-0.1323">
        <ele>904.5</ele>
        <time>2017-07-30T11:54:41Z</time>
      </trkpt>
      <trkpt lat="42.59894" lon="-0.13226">
        <ele>904.2</ele>
        <time>2017-07-30T11:54:42Z</time>
      </trkpt>
      <trkpt lat="42.59895" lon="-0.13222">
        <ele>904</ele>
        <time>2017-07-30T11:54:43Z</time>
      </trkpt>
      <trkpt lat="42.59897" lon="-0.13219">
        <ele>903.8</ele>
        <time>2017-07-30T11:54:44Z</time>
      </trkpt>
      <trkpt lat="42.59899" lon="-0.13213">
        <ele>903.4</ele>
        <time>2017-07-30T11:54:46Z</time>
      </trkpt>
      <trkpt lat="42.599" lon="-0.13207">
        <ele>903.1</ele>
        <time>2017-07-30T11:54:48Z</time>
      </trkpt>
      <trkpt lat="42.59901" lon="-0.13202">
        <ele>903.1</ele>
        <time>2017-07-30T11:54:49Z</time>
      </trkpt>
      <trkpt lat="42.59902" lon="-0.13198">
        <ele>903.2</ele>
        <time>2017-07-30T11:54:50Z</time>
      </trkpt>
      <trkpt lat="42.59903" lon="-0.13193">
        <ele>903.2</ele>
        <time>2017-07-30T11:54:51Z</time>
      </trkpt>
      <trkpt lat="42.59905" lon="-0.13189">
        <ele>903.3</ele>
        <time>2017-07-30T11:54:52Z</time>
      </trkpt>
      <trkpt lat="42.59906" lon="-0.13185">
        <ele>903.5</ele>
        <time>2017-07-30T11:54:53Z</time>
      </trkpt>
      <trkpt lat="42.59907" lon="-0.13182">
        <ele>903.7</ele>
        <time>2017-07-30T11:54:54Z</time>
      </trkpt>
      <trkpt lat="42.59907" lon="-0.13178">
        <ele>903.9</ele>
        <time>2017-07-30T11:54:55Z</time>
      </trkpt>
      <trkpt lat="42.59909" lon="-0.13174">
        <ele>904.2</ele>
        <time>2017-07-30T11:54:56Z</time>
      </trkpt>
      <trkpt lat="42.5991" lon="-0.1317">
        <ele>904.2</ele>
        <time>2017-07-30T11:54:57Z</time>
      </trkpt>
      <trkpt lat="42.59911" lon="-0.13167">
        <ele>904.1</ele>
        <time>2017-07-30T11:54:58Z</time>
      </trkpt>
      <trkpt lat="42.59913" lon="-0.13162">
        <ele>903.9</ele>
        <time>2017-07-30T11:55:00Z</time>
      </trkpt>
      <trkpt lat="42.59915" lon="-0.13155">
        <ele>903.9</ele>
        <time>2017-07-30T11:55:02Z</time>
      </trkpt>
      <trkpt lat="42.59917" lon="-0.13148">
        <ele>903.4</ele>
        <time>2017-07-30T11:55:04Z</time>
      </trkpt>
      <trkpt lat="42.59918" lon="-0.13142">
        <ele>902.2</ele>
        <time>2017-07-30T11:55:06Z</time>
      </trkpt>
      <trkpt lat="42.59918" lon="-0.13137">
        <ele>901.5</ele>
        <time>2017-07-30T11:55:07Z</time>
      </trkpt>
      <trkpt lat="42.59918" lon="-0.13133">
        <ele>901.1</ele>
        <time>2017-07-30T11:55:08Z</time>
      </trkpt>
      <trkpt lat="42.59918" lon="-0.13128">
        <ele>900.7</ele>
        <time>2017-07-30T11:55:09Z</time>
      </trkpt>
      <trkpt lat="42.59917" lon="-0.13124">
        <ele>900.4</ele>
        <time>2017-07-30T11:55:10Z</time>
      </trkpt>
      <trkpt lat="42.59917" lon="-0.13119">
        <ele>900.4</ele>
        <time>2017-07-30T11:55:11Z</time>
      </trkpt>
      <trkpt lat="42.59917" lon="-0.13114">
        <ele>900.4</ele>
        <time>2017-07-30T11:55:12Z</time>
      </trkpt>
      <trkpt lat="42.59916" lon="-0.1311">
        <ele>900.5</ele>
        <time>2017-07-30T11:55:13Z</time>
      </trkpt>
      <trkpt lat="42.59916" lon="-0.13107">
        <ele>900.6</ele>
        <time>2017-07-30T11:55:14Z</time>
      </trkpt>
      <trkpt lat="42.59915" lon="-0.13103">
        <ele>900.7</ele>
        <time>2017-07-30T11:55:15Z</time>
      </trkpt>
      <trkpt lat="42.59915" lon="-0.13098">
        <ele>900.7</ele>
        <time>2017-07-30T11:55:16Z</time>
      </trkpt>
      <trkpt lat="42.59915" lon="-0.13093">
        <ele>900.7</ele>
        <time>2017-07-30T11:55:17Z</time>
      </trkpt>
      <trkpt lat="42.59915" lon="-0.13088">
        <ele>900.8</ele>
        <time>2017-07-30T11:55:18Z</time>
      </trkpt>
      <trkpt lat="42.59916" lon="-0.13081">
        <ele>901.1</ele>
        <time>2017-07-30T11:55:19Z</time>
      </trkpt>
      <trkpt lat="42.59916" lon="-0.13074">
        <ele>901.5</ele>
        <time>2017-07-30T11:55:20Z</time>
      </trkpt>
      <trkpt lat="42.59917" lon="-0.13067">
        <ele>901.8</ele>
        <time>2017-07-30T11:55:21Z</time>
      </trkpt>
      <trkpt lat="42.59917" lon="-0.13059">
        <ele>902.1</ele>
        <time>2017-07-30T11:55:22Z</time>
      </trkpt>
      <trkpt lat="42.59918" lon="-0.13051">
        <ele>902.3</ele>
        <time>2017-07-30T11:55:23Z</time>
      </trkpt>
      <trkpt lat="42.59918" lon="-0.13043">
        <ele>902.3</ele>
        <time>2017-07-30T11:55:24Z</time>
      </trkpt>
      <trkpt lat="42.59919" lon="-0.13035">
        <ele>901.9</ele>
        <time>2017-07-30T11:55:25Z</time>
      </trkpt>
      <trkpt lat="42.5992" lon="-0.13029">
        <ele>901.5</ele>
        <time>2017-07-30T11:55:26Z</time>
      </trkpt>
      <trkpt lat="42.5992" lon="-0.13025">
        <ele>901.2</ele>
        <time>2017-07-30T11:55:27Z</time>
      </trkpt>
      <trkpt lat="42.59921" lon="-0.13018">
        <ele>900.7</ele>
        <time>2017-07-30T11:55:29Z</time>
      </trkpt>
      <trkpt lat="42.59921" lon="-0.13012">
        <ele>900.3</ele>
        <time>2017-07-30T11:55:31Z</time>
      </trkpt>
      <trkpt lat="42.59921" lon="-0.13006">
        <ele>900</ele>
        <time>2017-07-30T11:55:33Z</time>
      </trkpt>
      <trkpt lat="42.5992" lon="-0.13">
        <ele>899.9</ele>
        <time>2017-07-30T11:55:35Z</time>
      </trkpt>
      <trkpt lat="42.5992" lon="-0.12992">
        <ele>900</ele>
        <time>2017-07-30T11:55:37Z</time>
      </trkpt>
      <trkpt lat="42.5992" lon="-0.12988">
        <ele>900.1</ele>
        <time>2017-07-30T11:55:38Z</time>
      </trkpt>
      <trkpt lat="42.59921" lon="-0.12985">
        <ele>900.3</ele>
        <time>2017-07-30T11:55:42Z</time>
      </trkpt>
      <trkpt lat="42.59923" lon="-0.12982">
        <ele>902.1</ele>
        <time>2017-07-30T11:55:49Z</time>
      </trkpt>
      <trkpt lat="42.59923" lon="-0.12978">
        <ele>901.8</ele>
        <time>2017-07-30T11:55:54Z</time>
      </trkpt>
      <trkpt lat="42.59923" lon="-0.12974">
        <ele>901.5</ele>
        <time>2017-07-30T11:56:05Z</time>
      </trkpt>
      <trkpt lat="42.59922" lon="-0.12968">
        <ele>901</ele>
        <time>2017-07-30T11:56:07Z</time>
      </trkpt>
      <trkpt lat="42.59921" lon="-0.12964">
        <ele>900.6</ele>
        <time>2017-07-30T11:56:08Z</time>
      </trkpt>
      <trkpt lat="42.5992" lon="-0.1296">
        <ele>900.2</ele>
        <time>2017-07-30T11:56:09Z</time>
      </trkpt>
      <trkpt lat="42.59919" lon="-0.12954">
        <ele>899.7</ele>
        <time>2017-07-30T11:56:10Z</time>
      </trkpt>
      <trkpt lat="42.59916" lon="-0.12949">
        <ele>899.2</ele>
        <time>2017-07-30T11:56:11Z</time>
      </trkpt>
      <trkpt lat="42.59913" lon="-0.12945">
        <ele>898.7</ele>
        <time>2017-07-30T11:56:12Z</time>
      </trkpt>
      <trkpt lat="42.59909" lon="-0.12941">
        <ele>898.1</ele>
        <time>2017-07-30T11:56:13Z</time>
      </trkpt>
      <trkpt lat="42.59904" lon="-0.12939">
        <ele>897.5</ele>
        <time>2017-07-30T11:56:14Z</time>
      </trkpt>
      <trkpt lat="42.59898" lon="-0.12938">
        <ele>896.9</ele>
        <time>2017-07-30T11:56:15Z</time>
      </trkpt>
      <trkpt lat="42.59892" lon="-0.12938">
        <ele>896.3</ele>
        <time>2017-07-30T11:56:16Z</time>
      </trkpt>
      <trkpt lat="42.59886" lon="-0.1294">
        <ele>895.6</ele>
        <time>2017-07-30T11:56:17Z</time>
      </trkpt>
      <trkpt lat="42.5988" lon="-0.12945">
        <ele>894.8</ele>
        <time>2017-07-30T11:56:18Z</time>
      </trkpt>
      <trkpt lat="42.59875" lon="-0.1295">
        <ele>894</ele>
        <time>2017-07-30T11:56:19Z</time>
      </trkpt>
      <trkpt lat="42.59869" lon="-0.12957">
        <ele>894.1</ele>
        <time>2017-07-30T11:56:20Z</time>
      </trkpt>
      <trkpt lat="42.59864" lon="-0.12964">
        <ele>894.2</ele>
        <time>2017-07-30T11:56:21Z</time>
      </trkpt>
      <trkpt lat="42.59859" lon="-0.12971">
        <ele>894.2</ele>
        <time>2017-07-30T11:56:22Z</time>
      </trkpt>
      <trkpt lat="42.59854" lon="-0.12981">
        <ele>894.3</ele>
        <time>2017-07-30T11:56:23Z</time>
      </trkpt>
      <trkpt lat="42.59848" lon="-0.12985">
        <ele>894.4</ele>
        <time>2017-07-30T11:56:24Z</time>
      </trkpt>
      <trkpt lat="42.59842" lon="-0.12991">
        <ele>894.5</ele>
        <time>2017-07-30T11:56:25Z</time>
      </trkpt>
      <trkpt lat="42.59836" lon="-0.12995">
        <ele>894.5</ele>
        <time>2017-07-30T11:56:26Z</time>
      </trkpt>
      <trkpt lat="42.59831" lon="-0.13001">
        <ele>894.6</ele>
        <time>2017-07-30T11:56:27Z</time>
      </trkpt>
      <trkpt lat="42.59828" lon="-0.13004">
        <ele>894.7</ele>
        <time>2017-07-30T11:56:28Z</time>
      </trkpt>
      <trkpt lat="42.59824" lon="-0.13006">
        <ele>894.7</ele>
        <time>2017-07-30T11:56:29Z</time>
      </trkpt>
      <trkpt lat="42.59821" lon="-0.13009">
        <ele>894.8</ele>
        <time>2017-07-30T11:56:30Z</time>
      </trkpt>
      <trkpt lat="42.59817" lon="-0.13012">
        <ele>894.8</ele>
        <time>2017-07-30T11:56:31Z</time>
      </trkpt>
      <trkpt lat="42.59815" lon="-0.13015">
        <ele>894.9</ele>
        <time>2017-07-30T11:56:32Z</time>
      </trkpt>
      <trkpt lat="42.59811" lon="-0.13018">
        <ele>895</ele>
        <time>2017-07-30T11:56:34Z</time>
      </trkpt>
      <trkpt lat="42.59807" lon="-0.13019">
        <ele>895.2</ele>
        <time>2017-07-30T11:56:35Z</time>
      </trkpt>
      <trkpt lat="42.59803" lon="-0.1302">
        <ele>895.5</ele>
        <time>2017-07-30T11:56:36Z</time>
      </trkpt>
      <trkpt lat="42.59799" lon="-0.13023">
        <ele>895.7</ele>
        <time>2017-07-30T11:56:38Z</time>
      </trkpt>
      <trkpt lat="42.59795" lon="-0.13026">
        <ele>896.1</ele>
        <time>2017-07-30T11:56:40Z</time>
      </trkpt>
      <trkpt lat="42.59792" lon="-0.13028">
        <ele>896.7</ele>
        <time>2017-07-30T11:56:42Z</time>
      </trkpt>
      <trkpt lat="42.59789" lon="-0.13031">
        <ele>897.4</ele>
        <time>2017-07-30T11:56:44Z</time>
      </trkpt>
      <trkpt lat="42.59786" lon="-0.13036">
        <ele>898</ele>
        <time>2017-07-30T11:56:46Z</time>
      </trkpt>
      <trkpt lat="42.59784" lon="-0.13042">
        <ele>898.1</ele>
        <time>2017-07-30T11:56:48Z</time>
      </trkpt>
      <trkpt lat="42.59783" lon="-0.13048">
        <ele>898.2</ele>
        <time>2017-07-30T11:56:50Z</time>
      </trkpt>
      <trkpt lat="42.59783" lon="-0.13054">
        <ele>898.3</ele>
        <time>2017-07-30T11:56:52Z</time>
      </trkpt>
      <trkpt lat="42.59784" lon="-0.13059">
        <ele>898.5</ele>
        <time>2017-07-30T11:56:54Z</time>
      </trkpt>
      <trkpt lat="42.59784" lon="-0.13063">
        <ele>898.7</ele>
        <time>2017-07-30T11:56:56Z</time>
      </trkpt>
      <trkpt lat="42.59784" lon="-0.13068">
        <ele>898.8</ele>
        <time>2017-07-30T11:56:58Z</time>
      </trkpt>
      <trkpt lat="42.59784" lon="-0.13072">
        <ele>899</ele>
        <time>2017-07-30T11:57:00Z</time>
      </trkpt>
      <trkpt lat="42.59783" lon="-0.13079">
        <ele>899.3</ele>
        <time>2017-07-30T11:57:02Z</time>
      </trkpt>
      <trkpt lat="42.59782" lon="-0.13085">
        <ele>899.4</ele>
        <time>2017-07-30T11:57:04Z</time>
      </trkpt>
      <trkpt lat="42.59779" lon="-0.13091">
        <ele>899.6</ele>
        <time>2017-07-30T11:57:06Z</time>
      </trkpt>
      <trkpt lat="42.59777" lon="-0.13096">
        <ele>899.7</ele>
        <time>2017-07-30T11:57:08Z</time>
      </trkpt>
      <trkpt lat="42.59775" lon="-0.131">
        <ele>899.8</ele>
        <time>2017-07-30T11:57:10Z</time>
      </trkpt>
      <trkpt lat="42.59773" lon="-0.13103">
        <ele>899.9</ele>
        <time>2017-07-30T11:57:12Z</time>
      </trkpt>
      <trkpt lat="42.59769" lon="-0.13104">
        <ele>900.1</ele>
        <time>2017-07-30T11:57:14Z</time>
      </trkpt>
      <trkpt lat="42.59765" lon="-0.13104">
        <ele>900.3</ele>
        <time>2017-07-30T11:57:16Z</time>
      </trkpt>
      <trkpt lat="42.59762" lon="-0.13104">
        <ele>900.5</ele>
        <time>2017-07-30T11:57:18Z</time>
      </trkpt>
      <trkpt lat="42.59759" lon="-0.13105">
        <ele>900.7</ele>
        <time>2017-07-30T11:57:21Z</time>
      </trkpt>
      <trkpt lat="42.59755" lon="-0.13107">
        <ele>900.9</ele>
        <time>2017-07-30T11:57:24Z</time>
      </trkpt>
      <trkpt lat="42.59752" lon="-0.13107">
        <ele>900.9</ele>
        <time>2017-07-30T11:57:26Z</time>
      </trkpt>
      <trkpt lat="42.59748" lon="-0.13107">
        <ele>900.9</ele>
        <time>2017-07-30T11:57:28Z</time>
      </trkpt>
      <trkpt lat="42.59744" lon="-0.13108">
        <ele>900.9</ele>
        <time>2017-07-30T11:57:30Z</time>
      </trkpt>
      <trkpt lat="42.5974" lon="-0.13108">
        <ele>900.9</ele>
        <time>2017-07-30T11:57:32Z</time>
      </trkpt>
      <trkpt lat="42.59737" lon="-0.13108">
        <ele>901</ele>
        <time>2017-07-30T11:57:34Z</time>
      </trkpt>
      <trkpt lat="42.59734" lon="-0.13108">
        <ele>901</ele>
        <time>2017-07-30T11:57:36Z</time>
      </trkpt>
      <trkpt lat="42.5973" lon="-0.13108">
        <ele>901.3</ele>
        <time>2017-07-30T11:57:38Z</time>
      </trkpt>
      <trkpt lat="42.59727" lon="-0.13107">
        <ele>901.3</ele>
        <time>2017-07-30T11:57:40Z</time>
      </trkpt>
      <trkpt lat="42.59724" lon="-0.13105">
        <ele>901.4</ele>
        <time>2017-07-30T11:57:43Z</time>
      </trkpt>
      <trkpt lat="42.59727" lon="-0.13104">
        <ele>901.3</ele>
        <time>2017-07-30T11:58:32Z</time>
      </trkpt>
      <trkpt lat="42.59731" lon="-0.13102">
        <ele>901.2</ele>
        <time>2017-07-30T11:58:34Z</time>
      </trkpt>
      <trkpt lat="42.59734" lon="-0.13102">
        <ele>901.1</ele>
        <time>2017-07-30T11:58:35Z</time>
      </trkpt>
      <trkpt lat="42.59737" lon="-0.13103">
        <ele>901</ele>
        <time>2017-07-30T11:58:36Z</time>
      </trkpt>
      <trkpt lat="42.5974" lon="-0.13103">
        <ele>900.9</ele>
        <time>2017-07-30T11:58:37Z</time>
      </trkpt>
      <trkpt lat="42.59743" lon="-0.13103">
        <ele>900.8</ele>
        <time>2017-07-30T11:58:38Z</time>
      </trkpt>
      <trkpt lat="42.59746" lon="-0.13104">
        <ele>900.9</ele>
        <time>2017-07-30T11:58:39Z</time>
      </trkpt>
      <trkpt lat="42.59749" lon="-0.13104">
        <ele>900.9</ele>
        <time>2017-07-30T11:58:40Z</time>
      </trkpt>
      <trkpt lat="42.59752" lon="-0.13104">
        <ele>900.9</ele>
        <time>2017-07-30T11:58:41Z</time>
      </trkpt>
      <trkpt lat="42.59757" lon="-0.13105">
        <ele>900.8</ele>
        <time>2017-07-30T11:58:43Z</time>
      </trkpt>
      <trkpt lat="42.59762" lon="-0.13106">
        <ele>900.6</ele>
        <time>2017-07-30T11:58:45Z</time>
      </trkpt>
      <trkpt lat="42.59764" lon="-0.13105">
        <ele>900.5</ele>
        <time>2017-07-30T11:58:46Z</time>
      </trkpt>
      <trkpt lat="42.59767" lon="-0.13103">
        <ele>900.4</ele>
        <time>2017-07-30T11:58:47Z</time>
      </trkpt>
      <trkpt lat="42.5977" lon="-0.13101">
        <ele>900.2</ele>
        <time>2017-07-30T11:58:48Z</time>
      </trkpt>
      <trkpt lat="42.59772" lon="-0.13097">
        <ele>900</ele>
        <time>2017-07-30T11:58:49Z</time>
      </trkpt>
      <trkpt lat="42.59774" lon="-0.13094">
        <ele>899.9</ele>
        <time>2017-07-30T11:58:50Z</time>
      </trkpt>
      <trkpt lat="42.59776" lon="-0.13089">
        <ele>899.8</ele>
        <time>2017-07-30T11:58:51Z</time>
      </trkpt>
      <trkpt lat="42.59777" lon="-0.13084">
        <ele>899.7</ele>
        <time>2017-07-30T11:58:52Z</time>
      </trkpt>
      <trkpt lat="42.59778" lon="-0.13078">
        <ele>899.6</ele>
        <time>2017-07-30T11:58:53Z</time>
      </trkpt>
      <trkpt lat="42.59779" lon="-0.13072">
        <ele>899.5</ele>
        <time>2017-07-30T11:58:54Z</time>
      </trkpt>
      <trkpt lat="42.59779" lon="-0.13065">
        <ele>899.4</ele>
        <time>2017-07-30T11:58:55Z</time>
      </trkpt>
      <trkpt lat="42.59779" lon="-0.1306">
        <ele>899.3</ele>
        <time>2017-07-30T11:58:56Z</time>
      </trkpt>
      <trkpt lat="42.59779" lon="-0.13055">
        <ele>899.2</ele>
        <time>2017-07-30T11:58:57Z</time>
      </trkpt>
      <trkpt lat="42.59779" lon="-0.13051">
        <ele>899</ele>
        <time>2017-07-30T11:58:58Z</time>
      </trkpt>
      <trkpt lat="42.59779" lon="-0.13046">
        <ele>898.9</ele>
        <time>2017-07-30T11:58:59Z</time>
      </trkpt>
      <trkpt lat="42.59779" lon="-0.13042">
        <ele>898.7</ele>
        <time>2017-07-30T11:59:00Z</time>
      </trkpt>
      <trkpt lat="42.59779" lon="-0.13036">
        <ele>898.5</ele>
        <time>2017-07-30T11:59:02Z</time>
      </trkpt>
      <trkpt lat="42.59778" lon="-0.13032">
        <ele>898.4</ele>
        <time>2017-07-30T11:59:04Z</time>
      </trkpt>
      <trkpt lat="42.59776" lon="-0.13027">
        <ele>898.3</ele>
        <time>2017-07-30T11:59:08Z</time>
      </trkpt>
      <trkpt lat="42.59774" lon="-0.13023">
        <ele>898.2</ele>
        <time>2017-07-30T11:59:10Z</time>
      </trkpt>
      <trkpt lat="42.59776" lon="-0.1302">
        <ele>898.2</ele>
        <time>2017-07-30T11:59:12Z</time>
      </trkpt>
      <trkpt lat="42.59779" lon="-0.13019">
        <ele>898.1</ele>
        <time>2017-07-30T11:59:14Z</time>
      </trkpt>
      <trkpt lat="42.59782" lon="-0.13021">
        <ele>898.1</ele>
        <time>2017-07-30T11:59:16Z</time>
      </trkpt>
      <trkpt lat="42.59785" lon="-0.13023">
        <ele>898</ele>
        <time>2017-07-30T11:59:18Z</time>
      </trkpt>
      <trkpt lat="42.59788" lon="-0.13026">
        <ele>898</ele>
        <time>2017-07-30T11:59:21Z</time>
      </trkpt>
      <trkpt lat="42.59788" lon="-0.1303">
        <ele>897.4</ele>
        <time>2017-07-30T11:59:24Z</time>
      </trkpt>
      <trkpt lat="42.59787" lon="-0.13023">
        <ele>896.5</ele>
        <time>2017-07-30T11:59:55Z</time>
      </trkpt>
      <trkpt lat="42.59792" lon="-0.13023">
        <ele>895.9</ele>
        <time>2017-07-30T11:59:57Z</time>
      </trkpt>
      <trkpt lat="42.59795" lon="-0.13022">
        <ele>895.7</ele>
        <time>2017-07-30T11:59:58Z</time>
      </trkpt>
      <trkpt lat="42.59799" lon="-0.13021">
        <ele>895.5</ele>
        <time>2017-07-30T11:59:59Z</time>
      </trkpt>
      <trkpt lat="42.59802" lon="-0.13018">
        <ele>895.3</ele>
        <time>2017-07-30T12:00:00Z</time>
      </trkpt>
      <trkpt lat="42.59806" lon="-0.13016">
        <ele>895.1</ele>
        <time>2017-07-30T12:00:01Z</time>
      </trkpt>
      <trkpt lat="42.59809" lon="-0.13013">
        <ele>894.9</ele>
        <time>2017-07-30T12:00:02Z</time>
      </trkpt>
      <trkpt lat="42.59812" lon="-0.13011">
        <ele>894.8</ele>
        <time>2017-07-30T12:00:03Z</time>
      </trkpt>
      <trkpt lat="42.59816" lon="-0.13008">
        <ele>894.8</ele>
        <time>2017-07-30T12:00:04Z</time>
      </trkpt>
      <trkpt lat="42.59819" lon="-0.13006">
        <ele>894.7</ele>
        <time>2017-07-30T12:00:05Z</time>
      </trkpt>
      <trkpt lat="42.59822" lon="-0.13004">
        <ele>894.7</ele>
        <time>2017-07-30T12:00:06Z</time>
      </trkpt>
      <trkpt lat="42.59826" lon="-0.13001">
        <ele>894.6</ele>
        <time>2017-07-30T12:00:07Z</time>
      </trkpt>
      <trkpt lat="42.59829" lon="-0.12999">
        <ele>894.6</ele>
        <time>2017-07-30T12:00:08Z</time>
      </trkpt>
      <trkpt lat="42.59832" lon="-0.12997">
        <ele>894.5</ele>
        <time>2017-07-30T12:00:09Z</time>
      </trkpt>
      <trkpt lat="42.59836" lon="-0.12994">
        <ele>894.5</ele>
        <time>2017-07-30T12:00:10Z</time>
      </trkpt>
      <trkpt lat="42.59839" lon="-0.12992">
        <ele>894.5</ele>
        <time>2017-07-30T12:00:11Z</time>
      </trkpt>
      <trkpt lat="42.59842" lon="-0.1299">
        <ele>894.4</ele>
        <time>2017-07-30T12:00:12Z</time>
      </trkpt>
      <trkpt lat="42.59845" lon="-0.12987">
        <ele>894.4</ele>
        <time>2017-07-30T12:00:13Z</time>
      </trkpt>
      <trkpt lat="42.59848" lon="-0.12984">
        <ele>894.4</ele>
        <time>2017-07-30T12:00:14Z</time>
      </trkpt>
      <trkpt lat="42.5985" lon="-0.12982">
        <ele>894.3</ele>
        <time>2017-07-30T12:00:15Z</time>
      </trkpt>
      <trkpt lat="42.59853" lon="-0.12979">
        <ele>894.3</ele>
        <time>2017-07-30T12:00:16Z</time>
      </trkpt>
      <trkpt lat="42.59855" lon="-0.12976">
        <ele>894.3</ele>
        <time>2017-07-30T12:00:17Z</time>
      </trkpt>
      <trkpt lat="42.59858" lon="-0.12973">
        <ele>894.2</ele>
        <time>2017-07-30T12:00:18Z</time>
      </trkpt>
      <trkpt lat="42.5986" lon="-0.1297">
        <ele>894.2</ele>
        <time>2017-07-30T12:00:19Z</time>
      </trkpt>
      <trkpt lat="42.59862" lon="-0.12967">
        <ele>894.2</ele>
        <time>2017-07-30T12:00:20Z</time>
      </trkpt>
      <trkpt lat="42.59865" lon="-0.12965">
        <ele>894.2</ele>
        <time>2017-07-30T12:00:21Z</time>
      </trkpt>
      <trkpt lat="42.59868" lon="-0.1296">
        <ele>894.1</ele>
        <time>2017-07-30T12:00:23Z</time>
      </trkpt>
      <trkpt lat="42.59872" lon="-0.12956">
        <ele>894.1</ele>
        <time>2017-07-30T12:00:25Z</time>
      </trkpt>
      <trkpt lat="42.59876" lon="-0.12953">
        <ele>894</ele>
        <time>2017-07-30T12:00:27Z</time>
      </trkpt>
      <trkpt lat="42.5988" lon="-0.12948">
        <ele>894.6</ele>
        <time>2017-07-30T12:00:29Z</time>
      </trkpt>
      <trkpt lat="42.59882" lon="-0.12945">
        <ele>894.9</ele>
        <time>2017-07-30T12:00:30Z</time>
      </trkpt>
      <trkpt lat="42.59885" lon="-0.12943">
        <ele>895.3</ele>
        <time>2017-07-30T12:00:31Z</time>
      </trkpt>
      <trkpt lat="42.59887" lon="-0.12941">
        <ele>895.6</ele>
        <time>2017-07-30T12:00:32Z</time>
      </trkpt>
      <trkpt lat="42.5989" lon="-0.12939">
        <ele>896</ele>
        <time>2017-07-30T12:00:33Z</time>
      </trkpt>
      <trkpt lat="42.59893" lon="-0.12938">
        <ele>896.3</ele>
        <time>2017-07-30T12:00:34Z</time>
      </trkpt>
      <trkpt lat="42.59896" lon="-0.12937">
        <ele>896.7</ele>
        <time>2017-07-30T12:00:35Z</time>
      </trkpt>
      <trkpt lat="42.59899" lon="-0.12936">
        <ele>897</ele>
        <time>2017-07-30T12:00:36Z</time>
      </trkpt>
      <trkpt lat="42.59902" lon="-0.12937">
        <ele>897.3</ele>
        <time>2017-07-30T12:00:37Z</time>
      </trkpt>
      <trkpt lat="42.59905" lon="-0.12938">
        <ele>897.7</ele>
        <time>2017-07-30T12:00:38Z</time>
      </trkpt>
      <trkpt lat="42.59908" lon="-0.12939">
        <ele>898</ele>
        <time>2017-07-30T12:00:39Z</time>
      </trkpt>
      <trkpt lat="42.5991" lon="-0.1294">
        <ele>898.4</ele>
        <time>2017-07-30T12:00:40Z</time>
      </trkpt>
      <trkpt lat="42.59913" lon="-0.12942">
        <ele>898.7</ele>
        <time>2017-07-30T12:00:41Z</time>
      </trkpt>
      <trkpt lat="42.59915" lon="-0.12945">
        <ele>899.1</ele>
        <time>2017-07-30T12:00:42Z</time>
      </trkpt>
      <trkpt lat="42.59917" lon="-0.12949">
        <ele>899.5</ele>
        <time>2017-07-30T12:00:43Z</time>
      </trkpt>
      <trkpt lat="42.59918" lon="-0.12953">
        <ele>899.8</ele>
        <time>2017-07-30T12:00:44Z</time>
      </trkpt>
      <trkpt lat="42.59919" lon="-0.12957">
        <ele>900.2</ele>
        <time>2017-07-30T12:00:45Z</time>
      </trkpt>
      <trkpt lat="42.59921" lon="-0.12961">
        <ele>900.6</ele>
        <time>2017-07-30T12:00:46Z</time>
      </trkpt>
      <trkpt lat="42.59922" lon="-0.12965">
        <ele>901</ele>
        <time>2017-07-30T12:00:47Z</time>
      </trkpt>
      <trkpt lat="42.59923" lon="-0.12969">
        <ele>901.3</ele>
        <time>2017-07-30T12:00:48Z</time>
      </trkpt>
      <trkpt lat="42.59925" lon="-0.12972">
        <ele>901.6</ele>
        <time>2017-07-30T12:00:49Z</time>
      </trkpt>
      <trkpt lat="42.59928" lon="-0.12978">
        <ele>902.3</ele>
        <time>2017-07-30T12:00:51Z</time>
      </trkpt>
      <trkpt lat="42.5993" lon="-0.1298">
        <ele>902.6</ele>
        <time>2017-07-30T12:00:52Z</time>
      </trkpt>
      <trkpt lat="42.59933" lon="-0.12981">
        <ele>903</ele>
        <time>2017-07-30T12:00:53Z</time>
      </trkpt>
      <trkpt lat="42.59936" lon="-0.12981">
        <ele>903.3</ele>
        <time>2017-07-30T12:00:54Z</time>
      </trkpt>
      <trkpt lat="42.59938" lon="-0.12979">
        <ele>903.6</ele>
        <time>2017-07-30T12:00:55Z</time>
      </trkpt>
      <trkpt lat="42.59941" lon="-0.12976">
        <ele>904</ele>
        <time>2017-07-30T12:00:56Z</time>
      </trkpt>
      <trkpt lat="42.59943" lon="-0.12973">
        <ele>904</ele>
        <time>2017-07-30T12:00:57Z</time>
      </trkpt>
      <trkpt lat="42.59944" lon="-0.12968">
        <ele>904</ele>
        <time>2017-07-30T12:00:58Z</time>
      </trkpt>
      <trkpt lat="42.59944" lon="-0.12964">
        <ele>904</ele>
        <time>2017-07-30T12:00:59Z</time>
      </trkpt>
      <trkpt lat="42.59942" lon="-0.12959">
        <ele>904</ele>
        <time>2017-07-30T12:01:00Z</time>
      </trkpt>
      <trkpt lat="42.59941" lon="-0.12955">
        <ele>904</ele>
        <time>2017-07-30T12:01:01Z</time>
      </trkpt>
      <trkpt lat="42.59939" lon="-0.12951">
        <ele>904</ele>
        <time>2017-07-30T12:01:02Z</time>
      </trkpt>
      <trkpt lat="42.59938" lon="-0.12948">
        <ele>904</ele>
        <time>2017-07-30T12:01:03Z</time>
      </trkpt>
      <trkpt lat="42.59936" lon="-0.12944">
        <ele>904</ele>
        <time>2017-07-30T12:01:04Z</time>
      </trkpt>
      <trkpt lat="42.59935" lon="-0.12941">
        <ele>904</ele>
        <time>2017-07-30T12:01:05Z</time>
      </trkpt>
      <trkpt lat="42.59934" lon="-0.12938">
        <ele>904</ele>
        <time>2017-07-30T12:01:06Z</time>
      </trkpt>
      <trkpt lat="42.59932" lon="-0.12934">
        <ele>904</ele>
        <time>2017-07-30T12:01:07Z</time>
      </trkpt>
      <trkpt lat="42.59931" lon="-0.12931">
        <ele>904</ele>
        <time>2017-07-30T12:01:08Z</time>
      </trkpt>
      <trkpt lat="42.5993" lon="-0.12927">
        <ele>904</ele>
        <time>2017-07-30T12:01:09Z</time>
      </trkpt>
      <trkpt lat="42.59929" lon="-0.12924">
        <ele>904</ele>
        <time>2017-07-30T12:01:10Z</time>
      </trkpt>
      <trkpt lat="42.59928" lon="-0.1292">
        <ele>904.3</ele>
        <time>2017-07-30T12:01:11Z</time>
      </trkpt>
      <trkpt lat="42.59927" lon="-0.12917">
        <ele>905.3</ele>
        <time>2017-07-30T12:01:12Z</time>
      </trkpt>
      <trkpt lat="42.59926" lon="-0.1291">
        <ele>907.2</ele>
        <time>2017-07-30T12:01:14Z</time>
      </trkpt>
      <trkpt lat="42.59924" lon="-0.12903">
        <ele>907.3</ele>
        <time>2017-07-30T12:01:16Z</time>
      </trkpt>
      <trkpt lat="42.59922" lon="-0.12897">
        <ele>906.3</ele>
        <time>2017-07-30T12:01:18Z</time>
      </trkpt>
      <trkpt lat="42.5992" lon="-0.1289">
        <ele>905.3</ele>
        <time>2017-07-30T12:01:20Z</time>
      </trkpt>
      <trkpt lat="42.59917" lon="-0.12884">
        <ele>904.3</ele>
        <time>2017-07-30T12:01:22Z</time>
      </trkpt>
      <trkpt lat="42.59915" lon="-0.12878">
        <ele>903.3</ele>
        <time>2017-07-30T12:01:24Z</time>
      </trkpt>
      <trkpt lat="42.59913" lon="-0.12875">
        <ele>902.8</ele>
        <time>2017-07-30T12:01:25Z</time>
      </trkpt>
      <trkpt lat="42.59911" lon="-0.12872">
        <ele>902.2</ele>
        <time>2017-07-30T12:01:26Z</time>
      </trkpt>
      <trkpt lat="42.59908" lon="-0.12867">
        <ele>901.3</ele>
        <time>2017-07-30T12:01:28Z</time>
      </trkpt>
      <trkpt lat="42.59903" lon="-0.12866">
        <ele>901</ele>
        <time>2017-07-30T12:01:30Z</time>
      </trkpt>
      <trkpt lat="42.599" lon="-0.12866">
        <ele>901</ele>
        <time>2017-07-30T12:01:31Z</time>
      </trkpt>
      <trkpt lat="42.59896" lon="-0.12867">
        <ele>901</ele>
        <time>2017-07-30T12:01:32Z</time>
      </trkpt>
      <trkpt lat="42.59893" lon="-0.12868">
        <ele>901</ele>
        <time>2017-07-30T12:01:33Z</time>
      </trkpt>
      <trkpt lat="42.5989" lon="-0.12868">
        <ele>901</ele>
        <time>2017-07-30T12:01:34Z</time>
      </trkpt>
      <trkpt lat="42.59885" lon="-0.12866">
        <ele>901</ele>
        <time>2017-07-30T12:01:36Z</time>
      </trkpt>
      <trkpt lat="42.59883" lon="-0.12863">
        <ele>901</ele>
        <time>2017-07-30T12:01:37Z</time>
      </trkpt>
      <trkpt lat="42.59881" lon="-0.1286">
        <ele>901</ele>
        <time>2017-07-30T12:01:38Z</time>
      </trkpt>
      <trkpt lat="42.59878" lon="-0.12854">
        <ele>901</ele>
        <time>2017-07-30T12:01:40Z</time>
      </trkpt>
      <trkpt lat="42.59875" lon="-0.12848">
        <ele>901</ele>
        <time>2017-07-30T12:01:42Z</time>
      </trkpt>
      <trkpt lat="42.59873" lon="-0.12844">
        <ele>901</ele>
        <time>2017-07-30T12:01:44Z</time>
      </trkpt>
      <trkpt lat="42.59871" lon="-0.12839">
        <ele>901</ele>
        <time>2017-07-30T12:01:46Z</time>
      </trkpt>
      <trkpt lat="42.59871" lon="-0.12834">
        <ele>901</ele>
        <time>2017-07-30T12:01:48Z</time>
      </trkpt>
      <trkpt lat="42.59871" lon="-0.12828">
        <ele>903</ele>
        <time>2017-07-30T12:01:50Z</time>
      </trkpt>
      <trkpt lat="42.5987" lon="-0.12824">
        <ele>904.4</ele>
        <time>2017-07-30T12:01:52Z</time>
      </trkpt>
      <trkpt lat="42.59871" lon="-0.12819">
        <ele>906.3</ele>
        <time>2017-07-30T12:01:55Z</time>
      </trkpt>
      <trkpt lat="42.59871" lon="-0.12814">
        <ele>908</ele>
        <time>2017-07-30T12:01:57Z</time>
      </trkpt>
      <trkpt lat="42.5987" lon="-0.1281">
        <ele>909.5</ele>
        <time>2017-07-30T12:01:58Z</time>
      </trkpt>
      <trkpt lat="42.59869" lon="-0.12806">
        <ele>911</ele>
        <time>2017-07-30T12:01:59Z</time>
      </trkpt>
      <trkpt lat="42.59868" lon="-0.12802">
        <ele>911</ele>
        <time>2017-07-30T12:02:00Z</time>
      </trkpt>
      <trkpt lat="42.59866" lon="-0.12797">
        <ele>911</ele>
        <time>2017-07-30T12:02:01Z</time>
      </trkpt>
      <trkpt lat="42.59863" lon="-0.12793">
        <ele>911</ele>
        <time>2017-07-30T12:02:02Z</time>
      </trkpt>
      <trkpt lat="42.5986" lon="-0.12788">
        <ele>911</ele>
        <time>2017-07-30T12:02:03Z</time>
      </trkpt>
      <trkpt lat="42.59858" lon="-0.12783">
        <ele>911</ele>
        <time>2017-07-30T12:02:04Z</time>
      </trkpt>
      <trkpt lat="42.59859" lon="-0.12772">
        <ele>910.7</ele>
        <time>2017-07-30T12:02:05Z</time>
      </trkpt>
      <trkpt lat="42.59859" lon="-0.12762">
        <ele>910.4</ele>
        <time>2017-07-30T12:02:06Z</time>
      </trkpt>
      <trkpt lat="42.59859" lon="-0.12754">
        <ele>910.2</ele>
        <time>2017-07-30T12:02:07Z</time>
      </trkpt>
      <trkpt lat="42.5986" lon="-0.12746">
        <ele>910.1</ele>
        <time>2017-07-30T12:02:08Z</time>
      </trkpt>
      <trkpt lat="42.59861" lon="-0.12739">
        <ele>909.9</ele>
        <time>2017-07-30T12:02:09Z</time>
      </trkpt>
      <trkpt lat="42.59861" lon="-0.12736">
        <ele>909.8</ele>
        <time>2017-07-30T12:02:10Z</time>
      </trkpt>
      <trkpt lat="42.59859" lon="-0.12727">
        <ele>909.6</ele>
        <time>2017-07-30T12:02:12Z</time>
      </trkpt>
      <trkpt lat="42.59862" lon="-0.1272">
        <ele>909.4</ele>
        <time>2017-07-30T12:02:13Z</time>
      </trkpt>
      <trkpt lat="42.59867" lon="-0.12714">
        <ele>909</ele>
        <time>2017-07-30T12:02:14Z</time>
      </trkpt>
      <trkpt lat="42.59871" lon="-0.12709">
        <ele>909</ele>
        <time>2017-07-30T12:02:15Z</time>
      </trkpt>
      <trkpt lat="42.59876" lon="-0.12705">
        <ele>909</ele>
        <time>2017-07-30T12:02:16Z</time>
      </trkpt>
      <trkpt lat="42.59882" lon="-0.127">
        <ele>909.1</ele>
        <time>2017-07-30T12:02:17Z</time>
      </trkpt>
      <trkpt lat="42.59888" lon="-0.12696">
        <ele>909.4</ele>
        <time>2017-07-30T12:02:18Z</time>
      </trkpt>
      <trkpt lat="42.59894" lon="-0.12692">
        <ele>909.7</ele>
        <time>2017-07-30T12:02:19Z</time>
      </trkpt>
      <trkpt lat="42.599" lon="-0.12687">
        <ele>909.9</ele>
        <time>2017-07-30T12:02:20Z</time>
      </trkpt>
      <trkpt lat="42.59907" lon="-0.12683">
        <ele>910.1</ele>
        <time>2017-07-30T12:02:21Z</time>
      </trkpt>
      <trkpt lat="42.59913" lon="-0.1268">
        <ele>910.3</ele>
        <time>2017-07-30T12:02:22Z</time>
      </trkpt>
      <trkpt lat="42.5992" lon="-0.1268">
        <ele>910.5</ele>
        <time>2017-07-30T12:02:23Z</time>
      </trkpt>
      <trkpt lat="42.59926" lon="-0.12682">
        <ele>910.7</ele>
        <time>2017-07-30T12:02:24Z</time>
      </trkpt>
      <trkpt lat="42.59932" lon="-0.12685">
        <ele>910.9</ele>
        <time>2017-07-30T12:02:25Z</time>
      </trkpt>
      <trkpt lat="42.59938" lon="-0.12688">
        <ele>911.2</ele>
        <time>2017-07-30T12:02:26Z</time>
      </trkpt>
      <trkpt lat="42.59944" lon="-0.12692">
        <ele>911.6</ele>
        <time>2017-07-30T12:02:27Z</time>
      </trkpt>
      <trkpt lat="42.5995" lon="-0.12696">
        <ele>911.9</ele>
        <time>2017-07-30T12:02:28Z</time>
      </trkpt>
      <trkpt lat="42.59955" lon="-0.12699">
        <ele>912.2</ele>
        <time>2017-07-30T12:02:29Z</time>
      </trkpt>
      <trkpt lat="42.59961" lon="-0.12699">
        <ele>912.7</ele>
        <time>2017-07-30T12:02:30Z</time>
      </trkpt>
      <trkpt lat="42.59966" lon="-0.12698">
        <ele>913</ele>
        <time>2017-07-30T12:02:31Z</time>
      </trkpt>
      <trkpt lat="42.5997" lon="-0.12698">
        <ele>913.4</ele>
        <time>2017-07-30T12:02:32Z</time>
      </trkpt>
      <trkpt lat="42.59975" lon="-0.12695">
        <ele>914</ele>
        <time>2017-07-30T12:02:33Z</time>
      </trkpt>
      <trkpt lat="42.5998" lon="-0.12692">
        <ele>914.6</ele>
        <time>2017-07-30T12:02:34Z</time>
      </trkpt>
      <trkpt lat="42.59983" lon="-0.12689">
        <ele>914.9</ele>
        <time>2017-07-30T12:02:35Z</time>
      </trkpt>
      <trkpt lat="42.59986" lon="-0.12687">
        <ele>915.3</ele>
        <time>2017-07-30T12:02:36Z</time>
      </trkpt>
      <trkpt lat="42.5999" lon="-0.12684">
        <ele>915.8</ele>
        <time>2017-07-30T12:02:37Z</time>
      </trkpt>
      <trkpt lat="42.59993" lon="-0.12681">
        <ele>916.1</ele>
        <time>2017-07-30T12:02:38Z</time>
      </trkpt>
      <trkpt lat="42.59995" lon="-0.12678">
        <ele>916.4</ele>
        <time>2017-07-30T12:02:39Z</time>
      </trkpt>
      <trkpt lat="42.59998" lon="-0.12675">
        <ele>916.7</ele>
        <time>2017-07-30T12:02:40Z</time>
      </trkpt>
      <trkpt lat="42.6" lon="-0.12673">
        <ele>916.9</ele>
        <time>2017-07-30T12:02:41Z</time>
      </trkpt>
      <trkpt lat="42.60004" lon="-0.12672">
        <ele>917.3</ele>
        <time>2017-07-30T12:02:42Z</time>
      </trkpt>
      <trkpt lat="42.60007" lon="-0.12671">
        <ele>917.7</ele>
        <time>2017-07-30T12:02:43Z</time>
      </trkpt>
      <trkpt lat="42.60011" lon="-0.12672">
        <ele>918.1</ele>
        <time>2017-07-30T12:02:44Z</time>
      </trkpt>
      <trkpt lat="42.60015" lon="-0.12673">
        <ele>918.6</ele>
        <time>2017-07-30T12:02:45Z</time>
      </trkpt>
      <trkpt lat="42.60019" lon="-0.12673">
        <ele>919.5</ele>
        <time>2017-07-30T12:02:46Z</time>
      </trkpt>
      <trkpt lat="42.60023" lon="-0.12674">
        <ele>920</ele>
        <time>2017-07-30T12:02:47Z</time>
      </trkpt>
      <trkpt lat="42.60027" lon="-0.12675">
        <ele>920.4</ele>
        <time>2017-07-30T12:02:48Z</time>
      </trkpt>
      <trkpt lat="42.6003" lon="-0.12675">
        <ele>920.9</ele>
        <time>2017-07-30T12:02:49Z</time>
      </trkpt>
      <trkpt lat="42.60034" lon="-0.12676">
        <ele>921.3</ele>
        <time>2017-07-30T12:02:50Z</time>
      </trkpt>
      <trkpt lat="42.60038" lon="-0.12676">
        <ele>921.5</ele>
        <time>2017-07-30T12:02:51Z</time>
      </trkpt>
      <trkpt lat="42.60042" lon="-0.12677">
        <ele>921.8</ele>
        <time>2017-07-30T12:02:52Z</time>
      </trkpt>
      <trkpt lat="42.60046" lon="-0.12677">
        <ele>922</ele>
        <time>2017-07-30T12:02:53Z</time>
      </trkpt>
      <trkpt lat="42.60049" lon="-0.12677">
        <ele>921.6</ele>
        <time>2017-07-30T12:02:54Z</time>
      </trkpt>
      <trkpt lat="42.60053" lon="-0.12676">
        <ele>921.2</ele>
        <time>2017-07-30T12:02:55Z</time>
      </trkpt>
      <trkpt lat="42.60056" lon="-0.12674">
        <ele>920.8</ele>
        <time>2017-07-30T12:02:56Z</time>
      </trkpt>
      <trkpt lat="42.60059" lon="-0.12672">
        <ele>920.4</ele>
        <time>2017-07-30T12:02:57Z</time>
      </trkpt>
      <trkpt lat="42.60062" lon="-0.12668">
        <ele>920</ele>
        <time>2017-07-30T12:02:58Z</time>
      </trkpt>
      <trkpt lat="42.60065" lon="-0.12664">
        <ele>919.6</ele>
        <time>2017-07-30T12:02:59Z</time>
      </trkpt>
      <trkpt lat="42.60067" lon="-0.1266">
        <ele>919.2</ele>
        <time>2017-07-30T12:03:00Z</time>
      </trkpt>
      <trkpt lat="42.6007" lon="-0.12655">
        <ele>918.7</ele>
        <time>2017-07-30T12:03:01Z</time>
      </trkpt>
      <trkpt lat="42.60072" lon="-0.1265">
        <ele>918.3</ele>
        <time>2017-07-30T12:03:02Z</time>
      </trkpt>
      <trkpt lat="42.60074" lon="-0.12645">
        <ele>918</ele>
        <time>2017-07-30T12:03:03Z</time>
      </trkpt>
      <trkpt lat="42.60075" lon="-0.1264">
        <ele>917.6</ele>
        <time>2017-07-30T12:03:04Z</time>
      </trkpt>
      <trkpt lat="42.60077" lon="-0.12636">
        <ele>917.3</ele>
        <time>2017-07-30T12:03:05Z</time>
      </trkpt>
      <trkpt lat="42.60078" lon="-0.12631">
        <ele>916.9</ele>
        <time>2017-07-30T12:03:06Z</time>
      </trkpt>
      <trkpt lat="42.60078" lon="-0.12623">
        <ele>916.4</ele>
        <time>2017-07-30T12:03:07Z</time>
      </trkpt>
      <trkpt lat="42.60078" lon="-0.12616">
        <ele>916</ele>
        <time>2017-07-30T12:03:08Z</time>
      </trkpt>
      <trkpt lat="42.60079" lon="-0.12608">
        <ele>915.6</ele>
        <time>2017-07-30T12:03:09Z</time>
      </trkpt>
      <trkpt lat="42.6008" lon="-0.12601">
        <ele>915.3</ele>
        <time>2017-07-30T12:03:10Z</time>
      </trkpt>
      <trkpt lat="42.60083" lon="-0.12592">
        <ele>915</ele>
        <time>2017-07-30T12:03:11Z</time>
      </trkpt>
      <trkpt lat="42.60084" lon="-0.12585">
        <ele>914.7</ele>
        <time>2017-07-30T12:03:12Z</time>
      </trkpt>
      <trkpt lat="42.60086" lon="-0.12577">
        <ele>914.4</ele>
        <time>2017-07-30T12:03:13Z</time>
      </trkpt>
      <trkpt lat="42.60088" lon="-0.1257">
        <ele>914</ele>
        <time>2017-07-30T12:03:14Z</time>
      </trkpt>
      <trkpt lat="42.6009" lon="-0.12563">
        <ele>913.7</ele>
        <time>2017-07-30T12:03:15Z</time>
      </trkpt>
      <trkpt lat="42.60091" lon="-0.12557">
        <ele>913.4</ele>
        <time>2017-07-30T12:03:16Z</time>
      </trkpt>
      <trkpt lat="42.60092" lon="-0.1255">
        <ele>913.1</ele>
        <time>2017-07-30T12:03:17Z</time>
      </trkpt>
      <trkpt lat="42.60093" lon="-0.12543">
        <ele>912.8</ele>
        <time>2017-07-30T12:03:18Z</time>
      </trkpt>
      <trkpt lat="42.60095" lon="-0.12536">
        <ele>912.5</ele>
        <time>2017-07-30T12:03:19Z</time>
      </trkpt>
      <trkpt lat="42.60097" lon="-0.12529">
        <ele>912.2</ele>
        <time>2017-07-30T12:03:20Z</time>
      </trkpt>
      <trkpt lat="42.601" lon="-0.12522">
        <ele>911.9</ele>
        <time>2017-07-30T12:03:21Z</time>
      </trkpt>
      <trkpt lat="42.60101" lon="-0.12515">
        <ele>911.7</ele>
        <time>2017-07-30T12:03:22Z</time>
      </trkpt>
      <trkpt lat="42.60103" lon="-0.12507">
        <ele>911.5</ele>
        <time>2017-07-30T12:03:23Z</time>
      </trkpt>
      <trkpt lat="42.60104" lon="-0.12499">
        <ele>911.4</ele>
        <time>2017-07-30T12:03:24Z</time>
      </trkpt>
      <trkpt lat="42.60105" lon="-0.12491">
        <ele>911.3</ele>
        <time>2017-07-30T12:03:25Z</time>
      </trkpt>
      <trkpt lat="42.60106" lon="-0.12483">
        <ele>911.1</ele>
        <time>2017-07-30T12:03:26Z</time>
      </trkpt>
      <trkpt lat="42.60108" lon="-0.12477">
        <ele>911</ele>
        <time>2017-07-30T12:03:27Z</time>
      </trkpt>
      <trkpt lat="42.60111" lon="-0.1247">
        <ele>910.9</ele>
        <time>2017-07-30T12:03:28Z</time>
      </trkpt>
      <trkpt lat="42.60113" lon="-0.12463">
        <ele>910.8</ele>
        <time>2017-07-30T12:03:29Z</time>
      </trkpt>
      <trkpt lat="42.60117" lon="-0.12457">
        <ele>910.6</ele>
        <time>2017-07-30T12:03:30Z</time>
      </trkpt>
      <trkpt lat="42.60119" lon="-0.12452">
        <ele>910.6</ele>
        <time>2017-07-30T12:03:31Z</time>
      </trkpt>
      <trkpt lat="42.60124" lon="-0.12448">
        <ele>910.5</ele>
        <time>2017-07-30T12:03:32Z</time>
      </trkpt>
      <trkpt lat="42.60128" lon="-0.12444">
        <ele>910.4</ele>
        <time>2017-07-30T12:03:33Z</time>
      </trkpt>
      <trkpt lat="42.60134" lon="-0.12441">
        <ele>910.3</ele>
        <time>2017-07-30T12:03:34Z</time>
      </trkpt>
      <trkpt lat="42.60138" lon="-0.12438">
        <ele>910.2</ele>
        <time>2017-07-30T12:03:35Z</time>
      </trkpt>
      <trkpt lat="42.60143" lon="-0.12434">
        <ele>910.1</ele>
        <time>2017-07-30T12:03:36Z</time>
      </trkpt>
      <trkpt lat="42.60147" lon="-0.1243">
        <ele>910</ele>
        <time>2017-07-30T12:03:37Z</time>
      </trkpt>
      <trkpt lat="42.6015" lon="-0.12426">
        <ele>909.9</ele>
        <time>2017-07-30T12:03:38Z</time>
      </trkpt>
      <trkpt lat="42.60153" lon="-0.1242">
        <ele>909.8</ele>
        <time>2017-07-30T12:03:39Z</time>
      </trkpt>
      <trkpt lat="42.60156" lon="-0.12414">
        <ele>909.6</ele>
        <time>2017-07-30T12:03:40Z</time>
      </trkpt>
      <trkpt lat="42.60159" lon="-0.12408">
        <ele>909.5</ele>
        <time>2017-07-30T12:03:41Z</time>
      </trkpt>
      <trkpt lat="42.60162" lon="-0.12402">
        <ele>909.4</ele>
        <time>2017-07-30T12:03:42Z</time>
      </trkpt>
      <trkpt lat="42.60166" lon="-0.12396">
        <ele>909.2</ele>
        <time>2017-07-30T12:03:43Z</time>
      </trkpt>
      <trkpt lat="42.60169" lon="-0.12389">
        <ele>909</ele>
        <time>2017-07-30T12:03:44Z</time>
      </trkpt>
      <trkpt lat="42.60174" lon="-0.12383">
        <ele>908.8</ele>
        <time>2017-07-30T12:03:45Z</time>
      </trkpt>
      <trkpt lat="42.60178" lon="-0.12377">
        <ele>908.7</ele>
        <time>2017-07-30T12:03:46Z</time>
      </trkpt>
      <trkpt lat="42.60183" lon="-0.12371">
        <ele>908.5</ele>
        <time>2017-07-30T12:03:47Z</time>
      </trkpt>
      <trkpt lat="42.60188" lon="-0.12366">
        <ele>908.1</ele>
        <time>2017-07-30T12:03:48Z</time>
      </trkpt>
      <trkpt lat="42.60193" lon="-0.12362">
        <ele>907.7</ele>
        <time>2017-07-30T12:03:49Z</time>
      </trkpt>
      <trkpt lat="42.60198" lon="-0.12359">
        <ele>907.3</ele>
        <time>2017-07-30T12:03:50Z</time>
      </trkpt>
      <trkpt lat="42.60203" lon="-0.12356">
        <ele>907.1</ele>
        <time>2017-07-30T12:03:51Z</time>
      </trkpt>
      <trkpt lat="42.60209" lon="-0.12354">
        <ele>907.5</ele>
        <time>2017-07-30T12:03:52Z</time>
      </trkpt>
      <trkpt lat="42.60215" lon="-0.12355">
        <ele>907.9</ele>
        <time>2017-07-30T12:03:53Z</time>
      </trkpt>
      <trkpt lat="42.60222" lon="-0.12354">
        <ele>908.3</ele>
        <time>2017-07-30T12:03:54Z</time>
      </trkpt>
      <trkpt lat="42.60228" lon="-0.12354">
        <ele>908.7</ele>
        <time>2017-07-30T12:03:55Z</time>
      </trkpt>
      <trkpt lat="42.60233" lon="-0.12354">
        <ele>909</ele>
        <time>2017-07-30T12:03:56Z</time>
      </trkpt>
      <trkpt lat="42.6024" lon="-0.12354">
        <ele>909.3</ele>
        <time>2017-07-30T12:03:57Z</time>
      </trkpt>
      <trkpt lat="42.60245" lon="-0.12354">
        <ele>909.6</ele>
        <time>2017-07-30T12:03:58Z</time>
      </trkpt>
      <trkpt lat="42.60251" lon="-0.12354">
        <ele>909.9</ele>
        <time>2017-07-30T12:03:59Z</time>
      </trkpt>
      <trkpt lat="42.60256" lon="-0.12354">
        <ele>910.2</ele>
        <time>2017-07-30T12:04:00Z</time>
      </trkpt>
      <trkpt lat="42.6026" lon="-0.12355">
        <ele>910.4</ele>
        <time>2017-07-30T12:04:01Z</time>
      </trkpt>
      <trkpt lat="42.60264" lon="-0.12355">
        <ele>910.7</ele>
        <time>2017-07-30T12:04:02Z</time>
      </trkpt>
      <trkpt lat="42.6027" lon="-0.12357">
        <ele>910.9</ele>
        <time>2017-07-30T12:04:03Z</time>
      </trkpt>
      <trkpt lat="42.60274" lon="-0.12358">
        <ele>911.1</ele>
        <time>2017-07-30T12:04:04Z</time>
      </trkpt>
      <trkpt lat="42.60278" lon="-0.12361">
        <ele>911.3</ele>
        <time>2017-07-30T12:04:05Z</time>
      </trkpt>
      <trkpt lat="42.60282" lon="-0.12365">
        <ele>911.7</ele>
        <time>2017-07-30T12:04:06Z</time>
      </trkpt>
      <trkpt lat="42.60286" lon="-0.1237">
        <ele>912.1</ele>
        <time>2017-07-30T12:04:07Z</time>
      </trkpt>
      <trkpt lat="42.6029" lon="-0.12374">
        <ele>912.4</ele>
        <time>2017-07-30T12:04:08Z</time>
      </trkpt>
      <trkpt lat="42.60294" lon="-0.12379">
        <ele>913.1</ele>
        <time>2017-07-30T12:04:09Z</time>
      </trkpt>
      <trkpt lat="42.60297" lon="-0.12383">
        <ele>913.5</ele>
        <time>2017-07-30T12:04:10Z</time>
      </trkpt>
      <trkpt lat="42.603" lon="-0.12387">
        <ele>913.9</ele>
        <time>2017-07-30T12:04:11Z</time>
      </trkpt>
      <trkpt lat="42.60303" lon="-0.12394">
        <ele>914.6</ele>
        <time>2017-07-30T12:04:12Z</time>
      </trkpt>
      <trkpt lat="42.60307" lon="-0.12397">
        <ele>915.4</ele>
        <time>2017-07-30T12:04:13Z</time>
      </trkpt>
      <trkpt lat="42.6031" lon="-0.12401">
        <ele>916.1</ele>
        <time>2017-07-30T12:04:14Z</time>
      </trkpt>
      <trkpt lat="42.60313" lon="-0.12404">
        <ele>917</ele>
        <time>2017-07-30T12:04:15Z</time>
      </trkpt>
      <trkpt lat="42.60317" lon="-0.12407">
        <ele>917.9</ele>
        <time>2017-07-30T12:04:16Z</time>
      </trkpt>
      <trkpt lat="42.6032" lon="-0.1241">
        <ele>918.8</ele>
        <time>2017-07-30T12:04:17Z</time>
      </trkpt>
      <trkpt lat="42.60324" lon="-0.12412">
        <ele>919.7</ele>
        <time>2017-07-30T12:04:18Z</time>
      </trkpt>
      <trkpt lat="42.60327" lon="-0.12413">
        <ele>920.6</ele>
        <time>2017-07-30T12:04:19Z</time>
      </trkpt>
      <trkpt lat="42.60331" lon="-0.12415">
        <ele>921.3</ele>
        <time>2017-07-30T12:04:20Z</time>
      </trkpt>
      <trkpt lat="42.60334" lon="-0.12417">
        <ele>921.7</ele>
        <time>2017-07-30T12:04:21Z</time>
      </trkpt>
      <trkpt lat="42.60338" lon="-0.12419">
        <ele>922.1</ele>
        <time>2017-07-30T12:04:22Z</time>
      </trkpt>
      <trkpt lat="42.60342" lon="-0.12421">
        <ele>922.5</ele>
        <time>2017-07-30T12:04:23Z</time>
      </trkpt>
      <trkpt lat="42.60346" lon="-0.12423">
        <ele>923</ele>
        <time>2017-07-30T12:04:24Z</time>
      </trkpt>
      <trkpt lat="42.60351" lon="-0.12426">
        <ele>923.4</ele>
        <time>2017-07-30T12:04:25Z</time>
      </trkpt>
      <trkpt lat="42.60357" lon="-0.12429">
        <ele>923.9</ele>
        <time>2017-07-30T12:04:26Z</time>
      </trkpt>
      <trkpt lat="42.60362" lon="-0.12432">
        <ele>924.4</ele>
        <time>2017-07-30T12:04:27Z</time>
      </trkpt>
      <trkpt lat="42.60367" lon="-0.12436">
        <ele>925</ele>
        <time>2017-07-30T12:04:28Z</time>
      </trkpt>
      <trkpt lat="42.60373" lon="-0.12436">
        <ele>925.4</ele>
        <time>2017-07-30T12:04:29Z</time>
      </trkpt>
      <trkpt lat="42.60379" lon="-0.12435">
        <ele>925.9</ele>
        <time>2017-07-30T12:04:30Z</time>
      </trkpt>
      <trkpt lat="42.60385" lon="-0.12433">
        <ele>926</ele>
        <time>2017-07-30T12:04:31Z</time>
      </trkpt>
      <trkpt lat="42.6039" lon="-0.1243">
        <ele>926</ele>
        <time>2017-07-30T12:04:32Z</time>
      </trkpt>
      <trkpt lat="42.60394" lon="-0.12427">
        <ele>926</ele>
        <time>2017-07-30T12:04:33Z</time>
      </trkpt>
      <trkpt lat="42.60397" lon="-0.12424">
        <ele>926</ele>
        <time>2017-07-30T12:04:34Z</time>
      </trkpt>
      <trkpt lat="42.60401" lon="-0.12422">
        <ele>926</ele>
        <time>2017-07-30T12:04:36Z</time>
      </trkpt>
      <trkpt lat="42.60404" lon="-0.12419">
        <ele>926</ele>
        <time>2017-07-30T12:04:38Z</time>
      </trkpt>
      <trkpt lat="42.60407" lon="-0.12417">
        <ele>915.9</ele>
        <time>2017-07-30T12:04:41Z</time>
      </trkpt>
      <trkpt lat="42.60409" lon="-0.12416">
        <ele>905.7</ele>
        <time>2017-07-30T12:04:43Z</time>
      </trkpt>
      <trkpt lat="42.60412" lon="-0.12414">
        <ele>904</ele>
        <time>2017-07-30T12:04:45Z</time>
      </trkpt>
      <trkpt lat="42.60415" lon="-0.12413">
        <ele>903.9</ele>
        <time>2017-07-30T12:04:48Z</time>
      </trkpt>
      <trkpt lat="42.60419" lon="-0.12413">
        <ele>903.6</ele>
        <time>2017-07-30T12:04:50Z</time>
      </trkpt>
      <trkpt lat="42.60422" lon="-0.1241">
        <ele>903.2</ele>
        <time>2017-07-30T12:04:52Z</time>
      </trkpt>
      <trkpt lat="42.60426" lon="-0.12406">
        <ele>902.8</ele>
        <time>2017-07-30T12:04:54Z</time>
      </trkpt>
      <trkpt lat="42.60428" lon="-0.12403">
        <ele>902.5</ele>
        <time>2017-07-30T12:04:55Z</time>
      </trkpt>
      <trkpt lat="42.60431" lon="-0.124">
        <ele>902.3</ele>
        <time>2017-07-30T12:04:56Z</time>
      </trkpt>
      <trkpt lat="42.60434" lon="-0.12397">
        <ele>902</ele>
        <time>2017-07-30T12:04:57Z</time>
      </trkpt>
      <trkpt lat="42.60437" lon="-0.12394">
        <ele>901.6</ele>
        <time>2017-07-30T12:04:58Z</time>
      </trkpt>
      <trkpt lat="42.60439" lon="-0.12391">
        <ele>901.3</ele>
        <time>2017-07-30T12:04:59Z</time>
      </trkpt>
      <trkpt lat="42.60442" lon="-0.12388">
        <ele>901</ele>
        <time>2017-07-30T12:05:00Z</time>
      </trkpt>
      <trkpt lat="42.60445" lon="-0.12385">
        <ele>900.7</ele>
        <time>2017-07-30T12:05:01Z</time>
      </trkpt>
      <trkpt lat="42.60448" lon="-0.12382">
        <ele>900.4</ele>
        <time>2017-07-30T12:05:02Z</time>
      </trkpt>
      <trkpt lat="42.60451" lon="-0.1238">
        <ele>900.2</ele>
        <time>2017-07-30T12:05:03Z</time>
      </trkpt>
      <trkpt lat="42.60453" lon="-0.12377">
        <ele>899.9</ele>
        <time>2017-07-30T12:05:04Z</time>
      </trkpt>
      <trkpt lat="42.60456" lon="-0.12374">
        <ele>899.6</ele>
        <time>2017-07-30T12:05:05Z</time>
      </trkpt>
      <trkpt lat="42.60459" lon="-0.12371">
        <ele>899.3</ele>
        <time>2017-07-30T12:05:06Z</time>
      </trkpt>
      <trkpt lat="42.60462" lon="-0.12368">
        <ele>899</ele>
        <time>2017-07-30T12:05:07Z</time>
      </trkpt>
      <trkpt lat="42.60465" lon="-0.12365">
        <ele>899</ele>
        <time>2017-07-30T12:05:08Z</time>
      </trkpt>
      <trkpt lat="42.60467" lon="-0.12362">
        <ele>899</ele>
        <time>2017-07-30T12:05:09Z</time>
      </trkpt>
      <trkpt lat="42.6047" lon="-0.12358">
        <ele>899</ele>
        <time>2017-07-30T12:05:10Z</time>
      </trkpt>
      <trkpt lat="42.60472" lon="-0.12355">
        <ele>899</ele>
        <time>2017-07-30T12:05:11Z</time>
      </trkpt>
      <trkpt lat="42.60474" lon="-0.12351">
        <ele>899</ele>
        <time>2017-07-30T12:05:12Z</time>
      </trkpt>
      <trkpt lat="42.60477" lon="-0.12349">
        <ele>899</ele>
        <time>2017-07-30T12:05:13Z</time>
      </trkpt>
      <trkpt lat="42.6048" lon="-0.12349">
        <ele>898.9</ele>
        <time>2017-07-30T12:05:14Z</time>
      </trkpt>
      <trkpt lat="42.60484" lon="-0.12351">
        <ele>898.8</ele>
        <time>2017-07-30T12:05:15Z</time>
      </trkpt>
      <trkpt lat="42.60487" lon="-0.12354">
        <ele>898.8</ele>
        <time>2017-07-30T12:05:16Z</time>
      </trkpt>
      <trkpt lat="42.60489" lon="-0.12357">
        <ele>898.7</ele>
        <time>2017-07-30T12:05:17Z</time>
      </trkpt>
      <trkpt lat="42.60492" lon="-0.12361">
        <ele>898.6</ele>
        <time>2017-07-30T12:05:19Z</time>
      </trkpt>
      <trkpt lat="42.60495" lon="-0.12364">
        <ele>898.6</ele>
        <time>2017-07-30T12:05:21Z</time>
      </trkpt>
      <trkpt lat="42.60498" lon="-0.12367">
        <ele>898.5</ele>
        <time>2017-07-30T12:05:23Z</time>
      </trkpt>
      <trkpt lat="42.605" lon="-0.12371">
        <ele>898.4</ele>
        <time>2017-07-30T12:05:25Z</time>
      </trkpt>
      <trkpt lat="42.60502" lon="-0.12374">
        <ele>898.3</ele>
        <time>2017-07-30T12:05:27Z</time>
      </trkpt>
      <trkpt lat="42.60504" lon="-0.12377">
        <ele>898.3</ele>
        <time>2017-07-30T12:05:29Z</time>
      </trkpt>
      <trkpt lat="42.60504" lon="-0.12373">
        <ele>897.5</ele>
        <time>2017-07-30T12:05:33Z</time>
      </trkpt>
      <trkpt lat="42.60501" lon="-0.1237">
        <ele>897.4</ele>
        <time>2017-07-30T12:05:34Z</time>
      </trkpt>
      <trkpt lat="42.60498" lon="-0.12368">
        <ele>897.2</ele>
        <time>2017-07-30T12:05:35Z</time>
      </trkpt>
      <trkpt lat="42.60494" lon="-0.12365">
        <ele>897</ele>
        <time>2017-07-30T12:05:36Z</time>
      </trkpt>
      <trkpt lat="42.60491" lon="-0.12362">
        <ele>896.8</ele>
        <time>2017-07-30T12:05:37Z</time>
      </trkpt>
      <trkpt lat="42.60487" lon="-0.12359">
        <ele>896.7</ele>
        <time>2017-07-30T12:05:38Z</time>
      </trkpt>
      <trkpt lat="42.60484" lon="-0.12356">
        <ele>896.5</ele>
        <time>2017-07-30T12:05:39Z</time>
      </trkpt>
      <trkpt lat="42.60481" lon="-0.12353">
        <ele>896.3</ele>
        <time>2017-07-30T12:05:40Z</time>
      </trkpt>
      <trkpt lat="42.60477" lon="-0.12349">
        <ele>896.1</ele>
        <time>2017-07-30T12:05:41Z</time>
      </trkpt>
      <trkpt lat="42.60476" lon="-0.12342">
        <ele>895.9</ele>
        <time>2017-07-30T12:05:42Z</time>
      </trkpt>
      <trkpt lat="42.60474" lon="-0.12335">
        <ele>895.7</ele>
        <time>2017-07-30T12:05:43Z</time>
      </trkpt>
      <trkpt lat="42.60471" lon="-0.1233">
        <ele>895.5</ele>
        <time>2017-07-30T12:05:44Z</time>
      </trkpt>
      <trkpt lat="42.60468" lon="-0.12326">
        <ele>895.3</ele>
        <time>2017-07-30T12:05:45Z</time>
      </trkpt>
      <trkpt lat="42.60464" lon="-0.12321">
        <ele>895.1</ele>
        <time>2017-07-30T12:05:46Z</time>
      </trkpt>
      <trkpt lat="42.60462" lon="-0.12316">
        <ele>895</ele>
        <time>2017-07-30T12:05:47Z</time>
      </trkpt>
      <trkpt lat="42.60459" lon="-0.12312">
        <ele>895</ele>
        <time>2017-07-30T12:05:48Z</time>
      </trkpt>
      <trkpt lat="42.60457" lon="-0.12306">
        <ele>895</ele>
        <time>2017-07-30T12:05:49Z</time>
      </trkpt>
      <trkpt lat="42.60454" lon="-0.12301">
        <ele>895</ele>
        <time>2017-07-30T12:05:50Z</time>
      </trkpt>
      <trkpt lat="42.60452" lon="-0.12297">
        <ele>895</ele>
        <time>2017-07-30T12:05:51Z</time>
      </trkpt>
      <trkpt lat="42.6045" lon="-0.12293">
        <ele>895</ele>
        <time>2017-07-30T12:05:52Z</time>
      </trkpt>
      <trkpt lat="42.60448" lon="-0.12288">
        <ele>895</ele>
        <time>2017-07-30T12:05:53Z</time>
      </trkpt>
      <trkpt lat="42.60445" lon="-0.12284">
        <ele>895</ele>
        <time>2017-07-30T12:05:54Z</time>
      </trkpt>
      <trkpt lat="42.60443" lon="-0.1228">
        <ele>895</ele>
        <time>2017-07-30T12:05:55Z</time>
      </trkpt>
      <trkpt lat="42.6044" lon="-0.12277">
        <ele>895.1</ele>
        <time>2017-07-30T12:05:56Z</time>
      </trkpt>
      <trkpt lat="42.60437" lon="-0.12271">
        <ele>895.6</ele>
        <time>2017-07-30T12:05:57Z</time>
      </trkpt>
      <trkpt lat="42.60435" lon="-0.12265">
        <ele>896.1</ele>
        <time>2017-07-30T12:05:58Z</time>
      </trkpt>
      <trkpt lat="42.60434" lon="-0.12258">
        <ele>896.6</ele>
        <time>2017-07-30T12:05:59Z</time>
      </trkpt>
      <trkpt lat="42.60431" lon="-0.12254">
        <ele>897.1</ele>
        <time>2017-07-30T12:06:00Z</time>
      </trkpt>
      <trkpt lat="42.60429" lon="-0.12248">
        <ele>897.5</ele>
        <time>2017-07-30T12:06:01Z</time>
      </trkpt>
      <trkpt lat="42.60426" lon="-0.12243">
        <ele>898</ele>
        <time>2017-07-30T12:06:02Z</time>
      </trkpt>
      <trkpt lat="42.60424" lon="-0.12237">
        <ele>895.9</ele>
        <time>2017-07-30T12:06:03Z</time>
      </trkpt>
      <trkpt lat="42.60423" lon="-0.1223">
        <ele>893.5</ele>
        <time>2017-07-30T12:06:04Z</time>
      </trkpt>
      <trkpt lat="42.6042" lon="-0.1222">
        <ele>892</ele>
        <time>2017-07-30T12:06:06Z</time>
      </trkpt>
      <trkpt lat="42.60415" lon="-0.12216">
        <ele>892</ele>
        <time>2017-07-30T12:06:07Z</time>
      </trkpt>
      <trkpt lat="42.60411" lon="-0.12211">
        <ele>892.1</ele>
        <time>2017-07-30T12:06:08Z</time>
      </trkpt>
      <trkpt lat="42.60408" lon="-0.12205">
        <ele>892.3</ele>
        <time>2017-07-30T12:06:09Z</time>
      </trkpt>
      <trkpt lat="42.60404" lon="-0.12199">
        <ele>892.4</ele>
        <time>2017-07-30T12:06:10Z</time>
      </trkpt>
      <trkpt lat="42.60401" lon="-0.12193">
        <ele>892.5</ele>
        <time>2017-07-30T12:06:11Z</time>
      </trkpt>
      <trkpt lat="42.60398" lon="-0.12185">
        <ele>892.2</ele>
        <time>2017-07-30T12:06:12Z</time>
      </trkpt>
      <trkpt lat="42.60395" lon="-0.12178">
        <ele>891.9</ele>
        <time>2017-07-30T12:06:13Z</time>
      </trkpt>
      <trkpt lat="42.60392" lon="-0.12171">
        <ele>892</ele>
        <time>2017-07-30T12:06:14Z</time>
      </trkpt>
      <trkpt lat="42.60388" lon="-0.12165">
        <ele>892.1</ele>
        <time>2017-07-30T12:06:15Z</time>
      </trkpt>
      <trkpt lat="42.60383" lon="-0.12161">
        <ele>892.2</ele>
        <time>2017-07-30T12:06:16Z</time>
      </trkpt>
      <trkpt lat="42.60382" lon="-0.12153">
        <ele>892.3</ele>
        <time>2017-07-30T12:06:17Z</time>
      </trkpt>
      <trkpt lat="42.60377" lon="-0.12149">
        <ele>892.4</ele>
        <time>2017-07-30T12:06:18Z</time>
      </trkpt>
      <trkpt lat="42.60372" lon="-0.12145">
        <ele>892.5</ele>
        <time>2017-07-30T12:06:19Z</time>
      </trkpt>
      <trkpt lat="42.60368" lon="-0.1214">
        <ele>892.6</ele>
        <time>2017-07-30T12:06:20Z</time>
      </trkpt>
      <trkpt lat="42.60365" lon="-0.12136">
        <ele>892.7</ele>
        <time>2017-07-30T12:06:21Z</time>
      </trkpt>
      <trkpt lat="42.60361" lon="-0.1213">
        <ele>892.8</ele>
        <time>2017-07-30T12:06:22Z</time>
      </trkpt>
      <trkpt lat="42.60358" lon="-0.12125">
        <ele>892.8</ele>
        <time>2017-07-30T12:06:23Z</time>
      </trkpt>
      <trkpt lat="42.60354" lon="-0.12122">
        <ele>892.9</ele>
        <time>2017-07-30T12:06:24Z</time>
      </trkpt>
      <trkpt lat="42.60351" lon="-0.12117">
        <ele>893</ele>
        <time>2017-07-30T12:06:25Z</time>
      </trkpt>
      <trkpt lat="42.60347" lon="-0.12112">
        <ele>893</ele>
        <time>2017-07-30T12:06:26Z</time>
      </trkpt>
      <trkpt lat="42.60344" lon="-0.12108">
        <ele>893</ele>
        <time>2017-07-30T12:06:27Z</time>
      </trkpt>
      <trkpt lat="42.6034" lon="-0.12105">
        <ele>893.1</ele>
        <time>2017-07-30T12:06:28Z</time>
      </trkpt>
      <trkpt lat="42.60336" lon="-0.121">
        <ele>893.2</ele>
        <time>2017-07-30T12:06:29Z</time>
      </trkpt>
      <trkpt lat="42.60332" lon="-0.12097">
        <ele>893.2</ele>
        <time>2017-07-30T12:06:30Z</time>
      </trkpt>
      <trkpt lat="42.60327" lon="-0.12094">
        <ele>893.3</ele>
        <time>2017-07-30T12:06:31Z</time>
      </trkpt>
      <trkpt lat="42.60323" lon="-0.12091">
        <ele>893.3</ele>
        <time>2017-07-30T12:06:32Z</time>
      </trkpt>
      <trkpt lat="42.60318" lon="-0.12088">
        <ele>893.4</ele>
        <time>2017-07-30T12:06:33Z</time>
      </trkpt>
      <trkpt lat="42.60315" lon="-0.12085">
        <ele>893.4</ele>
        <time>2017-07-30T12:06:34Z</time>
      </trkpt>
      <trkpt lat="42.60309" lon="-0.12087">
        <ele>893.5</ele>
        <time>2017-07-30T12:06:35Z</time>
      </trkpt>
      <trkpt lat="42.60304" lon="-0.12082">
        <ele>893.6</ele>
        <time>2017-07-30T12:06:37Z</time>
      </trkpt>
      <trkpt lat="42.603" lon="-0.12078">
        <ele>893.7</ele>
        <time>2017-07-30T12:06:38Z</time>
      </trkpt>
      <trkpt lat="42.60295" lon="-0.12076">
        <ele>893.7</ele>
        <time>2017-07-30T12:06:39Z</time>
      </trkpt>
      <trkpt lat="42.60291" lon="-0.12073">
        <ele>893.8</ele>
        <time>2017-07-30T12:06:40Z</time>
      </trkpt>
      <trkpt lat="42.60286" lon="-0.12072">
        <ele>893.9</ele>
        <time>2017-07-30T12:06:41Z</time>
      </trkpt>
      <trkpt lat="42.60282" lon="-0.12069">
        <ele>894</ele>
        <time>2017-07-30T12:06:42Z</time>
      </trkpt>
      <trkpt lat="42.60278" lon="-0.12068">
        <ele>894</ele>
        <time>2017-07-30T12:06:43Z</time>
      </trkpt>
      <trkpt lat="42.60275" lon="-0.12067">
        <ele>894</ele>
        <time>2017-07-30T12:06:44Z</time>
      </trkpt>
      <trkpt lat="42.60271" lon="-0.12066">
        <ele>894</ele>
        <time>2017-07-30T12:06:45Z</time>
      </trkpt>
      <trkpt lat="42.60266" lon="-0.12065">
        <ele>894</ele>
        <time>2017-07-30T12:06:46Z</time>
      </trkpt>
      <trkpt lat="42.6026" lon="-0.12063">
        <ele>894</ele>
        <time>2017-07-30T12:06:47Z</time>
      </trkpt>
      <trkpt lat="42.60254" lon="-0.12064">
        <ele>894</ele>
        <time>2017-07-30T12:06:48Z</time>
      </trkpt>
      <trkpt lat="42.60248" lon="-0.12065">
        <ele>895.7</ele>
        <time>2017-07-30T12:06:49Z</time>
      </trkpt>
      <trkpt lat="42.60242" lon="-0.12066">
        <ele>897</ele>
        <time>2017-07-30T12:06:50Z</time>
      </trkpt>
      <trkpt lat="42.60237" lon="-0.12067">
        <ele>897</ele>
        <time>2017-07-30T12:06:51Z</time>
      </trkpt>
      <trkpt lat="42.60231" lon="-0.12068">
        <ele>897</ele>
        <time>2017-07-30T12:06:52Z</time>
      </trkpt>
      <trkpt lat="42.60226" lon="-0.12069">
        <ele>897</ele>
        <time>2017-07-30T12:06:53Z</time>
      </trkpt>
      <trkpt lat="42.6022" lon="-0.12072">
        <ele>897</ele>
        <time>2017-07-30T12:06:54Z</time>
      </trkpt>
      <trkpt lat="42.60215" lon="-0.12074">
        <ele>897</ele>
        <time>2017-07-30T12:06:55Z</time>
      </trkpt>
      <trkpt lat="42.60211" lon="-0.12075">
        <ele>897</ele>
        <time>2017-07-30T12:06:56Z</time>
      </trkpt>
      <trkpt lat="42.60207" lon="-0.12076">
        <ele>897</ele>
        <time>2017-07-30T12:06:57Z</time>
      </trkpt>
      <trkpt lat="42.60204" lon="-0.12077">
        <ele>897</ele>
        <time>2017-07-30T12:06:58Z</time>
      </trkpt>
      <trkpt lat="42.60201" lon="-0.1208">
        <ele>897</ele>
        <time>2017-07-30T12:06:59Z</time>
      </trkpt>
      <trkpt lat="42.60202" lon="-0.12083">
        <ele>897.1</ele>
        <time>2017-07-30T12:07:08Z</time>
      </trkpt>
    </trkseg>
  </trk>
</gpx>